<?xml version="1.0" encoding="UTF-8"?>
<gpx version="1.1" creator="https://www.youtrack.es" xsi:schemaLocation="http://www.topografix.com/GPX/1/1 http://www.topografix.com/GPX/1/1/gpx.xsd http://www.garmin.com/xmlschemas/GpxExtensions/v3 http://www.garmin.com/xmlschemas/GpxExtensionsv3.xsd http://www.garmin.com/xmlschemas/TrackPointExtension/v1 http://www.garmin.com/xmlschemas/TrackPointExtensionv1.xsd" xmlns:gpxtpx="http://www.garmin.com/xmlschemas/TrackPointExtension/v1" xmlns:gpxx="http://www.garmin.com/xmlschemas/GpxExtensions/v3" xmlns:xsi="http://www.w3.org/2001/XMLSchema-instance">
  <metadata>
    <link href="https://www.youtrack.es">
      <text>YouTrack.es</text>
    </link>
    <time>2026-05-09T00:42:03Z</time>
  </metadata>
  <trk>
    <src>https://www.youtrack.es</src>
    <link href="https://www.youtrack.es/ruta/2629-desafio-alcarria-completo">
      <text>YouTrack.es</text>
    </link>
    <trkseg>
      <trkpt lat="40.481608" lon="-2.732620">
        <ele>733.0</ele>
        <time>2015-02-22T11:17:44Z</time>
      </trkpt>
      <trkpt lat="40.481952" lon="-2.732348">
        <ele>730.8</ele>
        <time>2015-02-22T11:17:48Z</time>
      </trkpt>
      <trkpt lat="40.482343" lon="-2.732187">
        <ele>729.2</ele>
        <time>2015-02-22T11:17:52Z</time>
      </trkpt>
      <trkpt lat="40.482701" lon="-2.732045">
        <ele>727.9</ele>
        <time>2015-02-22T11:17:56Z</time>
      </trkpt>
      <trkpt lat="40.482913" lon="-2.732095">
        <ele>727.3</ele>
        <time>2015-02-22T11:18:00Z</time>
      </trkpt>
      <trkpt lat="40.482972" lon="-2.732364">
        <ele>726.8</ele>
        <time>2015-02-22T11:18:04Z</time>
      </trkpt>
      <trkpt lat="40.483011" lon="-2.732658">
        <ele>726.8</ele>
        <time>2015-02-22T11:18:08Z</time>
      </trkpt>
      <trkpt lat="40.483060" lon="-2.732941">
        <ele>727.0</ele>
        <time>2015-02-22T11:18:12Z</time>
      </trkpt>
      <trkpt lat="40.483102" lon="-2.733192">
        <ele>727.2</ele>
        <time>2015-02-22T11:18:16Z</time>
      </trkpt>
      <trkpt lat="40.483140" lon="-2.733423">
        <ele>727.3</ele>
        <time>2015-02-22T11:18:20Z</time>
      </trkpt>
      <trkpt lat="40.483180" lon="-2.733649">
        <ele>727.5</ele>
        <time>2015-02-22T11:18:24Z</time>
      </trkpt>
      <trkpt lat="40.483195" lon="-2.733865">
        <ele>727.8</ele>
        <time>2015-02-22T11:18:28Z</time>
      </trkpt>
      <trkpt lat="40.483239" lon="-2.734118">
        <ele>727.8</ele>
        <time>2015-02-22T11:18:32Z</time>
      </trkpt>
      <trkpt lat="40.483267" lon="-2.734295">
        <ele>728.7</ele>
        <time>2015-02-22T11:18:35Z</time>
      </trkpt>
      <trkpt lat="40.483294" lon="-2.734430">
        <ele>729.6</ele>
        <time>2015-02-22T11:18:37Z</time>
      </trkpt>
      <trkpt lat="40.483322" lon="-2.734560">
        <ele>730.5</ele>
        <time>2015-02-22T11:18:39Z</time>
      </trkpt>
      <trkpt lat="40.483355" lon="-2.734688">
        <ele>731.4</ele>
        <time>2015-02-22T11:18:41Z</time>
      </trkpt>
      <trkpt lat="40.483390" lon="-2.734812">
        <ele>732.6</ele>
        <time>2015-02-22T11:18:43Z</time>
      </trkpt>
      <trkpt lat="40.483435" lon="-2.734935">
        <ele>733.6</ele>
        <time>2015-02-22T11:18:45Z</time>
      </trkpt>
      <trkpt lat="40.483493" lon="-2.735043">
        <ele>734.8</ele>
        <time>2015-02-22T11:18:47Z</time>
      </trkpt>
      <trkpt lat="40.483570" lon="-2.735126">
        <ele>735.7</ele>
        <time>2015-02-22T11:18:49Z</time>
      </trkpt>
      <trkpt lat="40.483654" lon="-2.735178">
        <ele>736.4</ele>
        <time>2015-02-22T11:18:51Z</time>
      </trkpt>
      <trkpt lat="40.483780" lon="-2.735225">
        <ele>737.2</ele>
        <time>2015-02-22T11:18:54Z</time>
      </trkpt>
      <trkpt lat="40.483905" lon="-2.735270">
        <ele>737.9</ele>
        <time>2015-02-22T11:18:57Z</time>
      </trkpt>
      <trkpt lat="40.484002" lon="-2.735363">
        <ele>739.1</ele>
        <time>2015-02-22T11:19:00Z</time>
      </trkpt>
      <trkpt lat="40.484050" lon="-2.735502">
        <ele>740.9</ele>
        <time>2015-02-22T11:19:03Z</time>
      </trkpt>
      <trkpt lat="40.484109" lon="-2.735630">
        <ele>742.5</ele>
        <time>2015-02-22T11:19:06Z</time>
      </trkpt>
      <trkpt lat="40.484192" lon="-2.735711">
        <ele>743.5</ele>
        <time>2015-02-22T11:19:09Z</time>
      </trkpt>
      <trkpt lat="40.484294" lon="-2.735783">
        <ele>743.9</ele>
        <time>2015-02-22T11:19:13Z</time>
      </trkpt>
      <trkpt lat="40.484385" lon="-2.735850">
        <ele>744.5</ele>
        <time>2015-02-22T11:19:17Z</time>
      </trkpt>
      <trkpt lat="40.484468" lon="-2.735923">
        <ele>744.8</ele>
        <time>2015-02-22T11:19:21Z</time>
      </trkpt>
      <trkpt lat="40.484549" lon="-2.735993">
        <ele>745.3</ele>
        <time>2015-02-22T11:19:25Z</time>
      </trkpt>
      <trkpt lat="40.484637" lon="-2.736073">
        <ele>745.9</ele>
        <time>2015-02-22T11:19:29Z</time>
      </trkpt>
      <trkpt lat="40.484722" lon="-2.736151">
        <ele>746.5</ele>
        <time>2015-02-22T11:19:33Z</time>
      </trkpt>
      <trkpt lat="40.484810" lon="-2.736228">
        <ele>747.2</ele>
        <time>2015-02-22T11:19:37Z</time>
      </trkpt>
      <trkpt lat="40.484903" lon="-2.736315">
        <ele>747.9</ele>
        <time>2015-02-22T11:19:41Z</time>
      </trkpt>
      <trkpt lat="40.485002" lon="-2.736393">
        <ele>748.7</ele>
        <time>2015-02-22T11:19:45Z</time>
      </trkpt>
      <trkpt lat="40.485079" lon="-2.736463">
        <ele>749.0</ele>
        <time>2015-02-22T11:19:48Z</time>
      </trkpt>
      <trkpt lat="40.485177" lon="-2.736552">
        <ele>749.1</ele>
        <time>2015-02-22T11:19:52Z</time>
      </trkpt>
      <trkpt lat="40.485258" lon="-2.736613">
        <ele>749.2</ele>
        <time>2015-02-22T11:19:55Z</time>
      </trkpt>
      <trkpt lat="40.485358" lon="-2.736693">
        <ele>749.3</ele>
        <time>2015-02-22T11:19:59Z</time>
      </trkpt>
      <trkpt lat="40.485450" lon="-2.736768">
        <ele>749.6</ele>
        <time>2015-02-22T11:20:03Z</time>
      </trkpt>
      <trkpt lat="40.485544" lon="-2.736842">
        <ele>750.0</ele>
        <time>2015-02-22T11:20:07Z</time>
      </trkpt>
      <trkpt lat="40.485635" lon="-2.736913">
        <ele>750.2</ele>
        <time>2015-02-22T11:20:11Z</time>
      </trkpt>
      <trkpt lat="40.485725" lon="-2.736988">
        <ele>750.5</ele>
        <time>2015-02-22T11:20:15Z</time>
      </trkpt>
      <trkpt lat="40.485822" lon="-2.737065">
        <ele>750.9</ele>
        <time>2015-02-22T11:20:19Z</time>
      </trkpt>
      <trkpt lat="40.485907" lon="-2.737125">
        <ele>751.5</ele>
        <time>2015-02-22T11:20:22Z</time>
      </trkpt>
      <trkpt lat="40.485994" lon="-2.737183">
        <ele>752.0</ele>
        <time>2015-02-22T11:20:25Z</time>
      </trkpt>
      <trkpt lat="40.486073" lon="-2.737245">
        <ele>752.7</ele>
        <time>2015-02-22T11:20:28Z</time>
      </trkpt>
      <trkpt lat="40.486152" lon="-2.737308">
        <ele>753.4</ele>
        <time>2015-02-22T11:20:31Z</time>
      </trkpt>
      <trkpt lat="40.486247" lon="-2.737392">
        <ele>754.4</ele>
        <time>2015-02-22T11:20:35Z</time>
      </trkpt>
      <trkpt lat="40.486322" lon="-2.737458">
        <ele>755.2</ele>
        <time>2015-02-22T11:20:38Z</time>
      </trkpt>
      <trkpt lat="40.486398" lon="-2.737522">
        <ele>756.1</ele>
        <time>2015-02-22T11:20:41Z</time>
      </trkpt>
      <trkpt lat="40.486505" lon="-2.737595">
        <ele>757.4</ele>
        <time>2015-02-22T11:20:45Z</time>
      </trkpt>
      <trkpt lat="40.486588" lon="-2.737643">
        <ele>758.0</ele>
        <time>2015-02-22T11:20:48Z</time>
      </trkpt>
      <trkpt lat="40.486699" lon="-2.737706">
        <ele>759.0</ele>
        <time>2015-02-22T11:20:52Z</time>
      </trkpt>
      <trkpt lat="40.486805" lon="-2.737758">
        <ele>759.2</ele>
        <time>2015-02-22T11:20:56Z</time>
      </trkpt>
      <trkpt lat="40.486914" lon="-2.737818">
        <ele>759.7</ele>
        <time>2015-02-22T11:21:00Z</time>
      </trkpt>
      <trkpt lat="40.487024" lon="-2.737877">
        <ele>759.9</ele>
        <time>2015-02-22T11:21:04Z</time>
      </trkpt>
      <trkpt lat="40.487129" lon="-2.737930">
        <ele>760.2</ele>
        <time>2015-02-22T11:21:08Z</time>
      </trkpt>
      <trkpt lat="40.487232" lon="-2.737985">
        <ele>760.7</ele>
        <time>2015-02-22T11:21:12Z</time>
      </trkpt>
      <trkpt lat="40.487335" lon="-2.738040">
        <ele>761.1</ele>
        <time>2015-02-22T11:21:16Z</time>
      </trkpt>
      <trkpt lat="40.487437" lon="-2.738098">
        <ele>761.4</ele>
        <time>2015-02-22T11:21:20Z</time>
      </trkpt>
      <trkpt lat="40.487540" lon="-2.738153">
        <ele>761.7</ele>
        <time>2015-02-22T11:21:24Z</time>
      </trkpt>
      <trkpt lat="40.487645" lon="-2.738212">
        <ele>762.3</ele>
        <time>2015-02-22T11:21:28Z</time>
      </trkpt>
      <trkpt lat="40.487745" lon="-2.738265">
        <ele>762.5</ele>
        <time>2015-02-22T11:21:32Z</time>
      </trkpt>
      <trkpt lat="40.487848" lon="-2.738322">
        <ele>762.8</ele>
        <time>2015-02-22T11:21:36Z</time>
      </trkpt>
      <trkpt lat="40.487953" lon="-2.738371">
        <ele>763.2</ele>
        <time>2015-02-22T11:21:40Z</time>
      </trkpt>
      <trkpt lat="40.488058" lon="-2.738432">
        <ele>763.9</ele>
        <time>2015-02-22T11:21:44Z</time>
      </trkpt>
      <trkpt lat="40.488167" lon="-2.738486">
        <ele>764.3</ele>
        <time>2015-02-22T11:21:48Z</time>
      </trkpt>
      <trkpt lat="40.488277" lon="-2.738542">
        <ele>764.7</ele>
        <time>2015-02-22T11:21:52Z</time>
      </trkpt>
      <trkpt lat="40.488362" lon="-2.738581">
        <ele>765.4</ele>
        <time>2015-02-22T11:21:55Z</time>
      </trkpt>
      <trkpt lat="40.488472" lon="-2.738640">
        <ele>767.6</ele>
        <time>2015-02-22T11:21:59Z</time>
      </trkpt>
      <trkpt lat="40.488584" lon="-2.738698">
        <ele>769.5</ele>
        <time>2015-02-22T11:22:03Z</time>
      </trkpt>
      <trkpt lat="40.488690" lon="-2.738753">
        <ele>771.8</ele>
        <time>2015-02-22T11:22:07Z</time>
      </trkpt>
      <trkpt lat="40.488795" lon="-2.738816">
        <ele>773.7</ele>
        <time>2015-02-22T11:22:11Z</time>
      </trkpt>
      <trkpt lat="40.488902" lon="-2.738882">
        <ele>776.0</ele>
        <time>2015-02-22T11:22:15Z</time>
      </trkpt>
      <trkpt lat="40.489002" lon="-2.738958">
        <ele>778.6</ele>
        <time>2015-02-22T11:22:19Z</time>
      </trkpt>
      <trkpt lat="40.489097" lon="-2.739043">
        <ele>781.5</ele>
        <time>2015-02-22T11:22:23Z</time>
      </trkpt>
      <trkpt lat="40.489175" lon="-2.739145">
        <ele>784.7</ele>
        <time>2015-02-22T11:22:27Z</time>
      </trkpt>
      <trkpt lat="40.489253" lon="-2.739240">
        <ele>785.1</ele>
        <time>2015-02-22T11:22:31Z</time>
      </trkpt>
      <trkpt lat="40.489205" lon="-2.739342">
        <ele>785.2</ele>
        <time>2015-02-22T11:22:37Z</time>
      </trkpt>
      <trkpt lat="40.489110" lon="-2.739292">
        <ele>784.9</ele>
        <time>2015-02-22T11:22:43Z</time>
      </trkpt>
      <trkpt lat="40.489022" lon="-2.739215">
        <ele>784.3</ele>
        <time>2015-02-22T11:22:49Z</time>
      </trkpt>
      <trkpt lat="40.488935" lon="-2.739150">
        <ele>783.3</ele>
        <time>2015-02-22T11:22:54Z</time>
      </trkpt>
      <trkpt lat="40.488850" lon="-2.739080">
        <ele>781.1</ele>
        <time>2015-02-22T11:22:59Z</time>
      </trkpt>
      <trkpt lat="40.488759" lon="-2.739071">
        <ele>780.2</ele>
        <time>2015-02-22T11:23:04Z</time>
      </trkpt>
      <trkpt lat="40.488712" lon="-2.739177">
        <ele>782.4</ele>
        <time>2015-02-22T11:23:10Z</time>
      </trkpt>
      <trkpt lat="40.488697" lon="-2.739297">
        <ele>783.4</ele>
        <time>2015-02-22T11:23:15Z</time>
      </trkpt>
      <trkpt lat="40.488649" lon="-2.739403">
        <ele>784.4</ele>
        <time>2015-02-22T11:23:20Z</time>
      </trkpt>
      <trkpt lat="40.488584" lon="-2.739501">
        <ele>785.3</ele>
        <time>2015-02-22T11:23:25Z</time>
      </trkpt>
      <trkpt lat="40.488513" lon="-2.739596">
        <ele>786.4</ele>
        <time>2015-02-22T11:23:30Z</time>
      </trkpt>
      <trkpt lat="40.488423" lon="-2.739660">
        <ele>787.5</ele>
        <time>2015-02-22T11:23:35Z</time>
      </trkpt>
      <trkpt lat="40.488332" lon="-2.739690">
        <ele>788.3</ele>
        <time>2015-02-22T11:23:40Z</time>
      </trkpt>
      <trkpt lat="40.488235" lon="-2.739685">
        <ele>788.9</ele>
        <time>2015-02-22T11:23:45Z</time>
      </trkpt>
      <trkpt lat="40.488145" lon="-2.739632">
        <ele>788.9</ele>
        <time>2015-02-22T11:23:50Z</time>
      </trkpt>
      <trkpt lat="40.488050" lon="-2.739575">
        <ele>788.9</ele>
        <time>2015-02-22T11:23:55Z</time>
      </trkpt>
      <trkpt lat="40.487948" lon="-2.739545">
        <ele>789.1</ele>
        <time>2015-02-22T11:24:00Z</time>
      </trkpt>
      <trkpt lat="40.487850" lon="-2.739520">
        <ele>789.5</ele>
        <time>2015-02-22T11:24:05Z</time>
      </trkpt>
      <trkpt lat="40.487750" lon="-2.739495">
        <ele>790.2</ele>
        <time>2015-02-22T11:24:10Z</time>
      </trkpt>
      <trkpt lat="40.487659" lon="-2.739505">
        <ele>790.9</ele>
        <time>2015-02-22T11:24:15Z</time>
      </trkpt>
      <trkpt lat="40.487569" lon="-2.739552">
        <ele>792.5</ele>
        <time>2015-02-22T11:24:20Z</time>
      </trkpt>
      <trkpt lat="40.487498" lon="-2.739626">
        <ele>794.3</ele>
        <time>2015-02-22T11:24:25Z</time>
      </trkpt>
      <trkpt lat="40.487432" lon="-2.739713">
        <ele>796.2</ele>
        <time>2015-02-22T11:24:30Z</time>
      </trkpt>
      <trkpt lat="40.487364" lon="-2.739793">
        <ele>798.2</ele>
        <time>2015-02-22T11:24:35Z</time>
      </trkpt>
      <trkpt lat="40.487287" lon="-2.739877">
        <ele>800.7</ele>
        <time>2015-02-22T11:24:41Z</time>
      </trkpt>
      <trkpt lat="40.487193" lon="-2.739930">
        <ele>802.8</ele>
        <time>2015-02-22T11:24:47Z</time>
      </trkpt>
      <trkpt lat="40.487094" lon="-2.739968">
        <ele>804.8</ele>
        <time>2015-02-22T11:24:53Z</time>
      </trkpt>
      <trkpt lat="40.486987" lon="-2.739983">
        <ele>806.5</ele>
        <time>2015-02-22T11:24:59Z</time>
      </trkpt>
      <trkpt lat="40.486894" lon="-2.739988">
        <ele>807.7</ele>
        <time>2015-02-22T11:25:04Z</time>
      </trkpt>
      <trkpt lat="40.486795" lon="-2.740002">
        <ele>809.3</ele>
        <time>2015-02-22T11:25:09Z</time>
      </trkpt>
      <trkpt lat="40.486705" lon="-2.740038">
        <ele>810.9</ele>
        <time>2015-02-22T11:25:14Z</time>
      </trkpt>
      <trkpt lat="40.486627" lon="-2.740110">
        <ele>812.3</ele>
        <time>2015-02-22T11:25:19Z</time>
      </trkpt>
      <trkpt lat="40.486547" lon="-2.740168">
        <ele>813.1</ele>
        <time>2015-02-22T11:25:24Z</time>
      </trkpt>
      <trkpt lat="40.486450" lon="-2.740225">
        <ele>814.2</ele>
        <time>2015-02-22T11:25:30Z</time>
      </trkpt>
      <trkpt lat="40.486362" lon="-2.740286">
        <ele>815.4</ele>
        <time>2015-02-22T11:25:36Z</time>
      </trkpt>
      <trkpt lat="40.486283" lon="-2.740360">
        <ele>817.1</ele>
        <time>2015-02-22T11:25:42Z</time>
      </trkpt>
      <trkpt lat="40.486199" lon="-2.740427">
        <ele>818.8</ele>
        <time>2015-02-22T11:25:48Z</time>
      </trkpt>
      <trkpt lat="40.486112" lon="-2.740470">
        <ele>820.3</ele>
        <time>2015-02-22T11:25:54Z</time>
      </trkpt>
      <trkpt lat="40.486014" lon="-2.740491">
        <ele>821.6</ele>
        <time>2015-02-22T11:26:01Z</time>
      </trkpt>
      <trkpt lat="40.485923" lon="-2.740527">
        <ele>823.3</ele>
        <time>2015-02-22T11:26:07Z</time>
      </trkpt>
      <trkpt lat="40.485837" lon="-2.740562">
        <ele>824.8</ele>
        <time>2015-02-22T11:26:13Z</time>
      </trkpt>
      <trkpt lat="40.485739" lon="-2.740598">
        <ele>826.2</ele>
        <time>2015-02-22T11:26:20Z</time>
      </trkpt>
      <trkpt lat="40.485637" lon="-2.740613">
        <ele>827.0</ele>
        <time>2015-02-22T11:26:28Z</time>
      </trkpt>
      <trkpt lat="40.485547" lon="-2.740640">
        <ele>828.2</ele>
        <time>2015-02-22T11:26:34Z</time>
      </trkpt>
      <trkpt lat="40.485452" lon="-2.740682">
        <ele>830.1</ele>
        <time>2015-02-22T11:26:40Z</time>
      </trkpt>
      <trkpt lat="40.485357" lon="-2.740723">
        <ele>831.7</ele>
        <time>2015-02-22T11:26:46Z</time>
      </trkpt>
      <trkpt lat="40.485262" lon="-2.740766">
        <ele>833.4</ele>
        <time>2015-02-22T11:26:52Z</time>
      </trkpt>
      <trkpt lat="40.485163" lon="-2.740797">
        <ele>835.2</ele>
        <time>2015-02-22T11:26:58Z</time>
      </trkpt>
      <trkpt lat="40.485060" lon="-2.740816">
        <ele>836.2</ele>
        <time>2015-02-22T11:27:04Z</time>
      </trkpt>
      <trkpt lat="40.484957" lon="-2.740831">
        <ele>837.0</ele>
        <time>2015-02-22T11:27:10Z</time>
      </trkpt>
      <trkpt lat="40.484864" lon="-2.740838">
        <ele>837.2</ele>
        <time>2015-02-22T11:27:15Z</time>
      </trkpt>
      <trkpt lat="40.484774" lon="-2.740833">
        <ele>837.0</ele>
        <time>2015-02-22T11:27:20Z</time>
      </trkpt>
      <trkpt lat="40.484680" lon="-2.740820">
        <ele>836.6</ele>
        <time>2015-02-22T11:27:25Z</time>
      </trkpt>
      <trkpt lat="40.484587" lon="-2.740825">
        <ele>837.0</ele>
        <time>2015-02-22T11:27:30Z</time>
      </trkpt>
      <trkpt lat="40.484492" lon="-2.740862">
        <ele>837.5</ele>
        <time>2015-02-22T11:27:35Z</time>
      </trkpt>
      <trkpt lat="40.484405" lon="-2.740921">
        <ele>838.7</ele>
        <time>2015-02-22T11:27:40Z</time>
      </trkpt>
      <trkpt lat="40.484352" lon="-2.741021">
        <ele>840.7</ele>
        <time>2015-02-22T11:27:45Z</time>
      </trkpt>
      <trkpt lat="40.484332" lon="-2.741150">
        <ele>843.3</ele>
        <time>2015-02-22T11:27:50Z</time>
      </trkpt>
      <trkpt lat="40.484292" lon="-2.741261">
        <ele>845.6</ele>
        <time>2015-02-22T11:27:55Z</time>
      </trkpt>
      <trkpt lat="40.484215" lon="-2.741343">
        <ele>847.6</ele>
        <time>2015-02-22T11:28:00Z</time>
      </trkpt>
      <trkpt lat="40.484123" lon="-2.741396">
        <ele>849.4</ele>
        <time>2015-02-22T11:28:05Z</time>
      </trkpt>
      <trkpt lat="40.484038" lon="-2.741458">
        <ele>850.6</ele>
        <time>2015-02-22T11:28:10Z</time>
      </trkpt>
      <trkpt lat="40.483954" lon="-2.741516">
        <ele>852.1</ele>
        <time>2015-02-22T11:28:15Z</time>
      </trkpt>
      <trkpt lat="40.483865" lon="-2.741568">
        <ele>853.4</ele>
        <time>2015-02-22T11:28:20Z</time>
      </trkpt>
      <trkpt lat="40.483779" lon="-2.741611">
        <ele>854.3</ele>
        <time>2015-02-22T11:28:25Z</time>
      </trkpt>
      <trkpt lat="40.483690" lon="-2.741643">
        <ele>855.3</ele>
        <time>2015-02-22T11:28:30Z</time>
      </trkpt>
      <trkpt lat="40.483602" lon="-2.741668">
        <ele>855.7</ele>
        <time>2015-02-22T11:28:35Z</time>
      </trkpt>
      <trkpt lat="40.483508" lon="-2.741693">
        <ele>855.9</ele>
        <time>2015-02-22T11:28:40Z</time>
      </trkpt>
      <trkpt lat="40.483417" lon="-2.741731">
        <ele>856.3</ele>
        <time>2015-02-22T11:28:45Z</time>
      </trkpt>
      <trkpt lat="40.483335" lon="-2.741795">
        <ele>857.1</ele>
        <time>2015-02-22T11:28:50Z</time>
      </trkpt>
      <trkpt lat="40.483268" lon="-2.741877">
        <ele>858.2</ele>
        <time>2015-02-22T11:28:55Z</time>
      </trkpt>
      <trkpt lat="40.483199" lon="-2.741961">
        <ele>859.7</ele>
        <time>2015-02-22T11:29:00Z</time>
      </trkpt>
      <trkpt lat="40.483129" lon="-2.742045">
        <ele>861.2</ele>
        <time>2015-02-22T11:29:05Z</time>
      </trkpt>
      <trkpt lat="40.483048" lon="-2.742105">
        <ele>862.9</ele>
        <time>2015-02-22T11:29:10Z</time>
      </trkpt>
      <trkpt lat="40.482958" lon="-2.742143">
        <ele>864.5</ele>
        <time>2015-02-22T11:29:15Z</time>
      </trkpt>
      <trkpt lat="40.482857" lon="-2.742178">
        <ele>866.4</ele>
        <time>2015-02-22T11:29:21Z</time>
      </trkpt>
      <trkpt lat="40.482754" lon="-2.742198">
        <ele>867.9</ele>
        <time>2015-02-22T11:29:27Z</time>
      </trkpt>
      <trkpt lat="40.482663" lon="-2.742222">
        <ele>869.6</ele>
        <time>2015-02-22T11:29:32Z</time>
      </trkpt>
      <trkpt lat="40.482570" lon="-2.742248">
        <ele>871.4</ele>
        <time>2015-02-22T11:29:37Z</time>
      </trkpt>
      <trkpt lat="40.482478" lon="-2.742278">
        <ele>873.0</ele>
        <time>2015-02-22T11:29:42Z</time>
      </trkpt>
      <trkpt lat="40.482377" lon="-2.742330">
        <ele>874.8</ele>
        <time>2015-02-22T11:29:48Z</time>
      </trkpt>
      <trkpt lat="40.482292" lon="-2.742375">
        <ele>876.4</ele>
        <time>2015-02-22T11:29:53Z</time>
      </trkpt>
      <trkpt lat="40.482209" lon="-2.742432">
        <ele>878.1</ele>
        <time>2015-02-22T11:29:58Z</time>
      </trkpt>
      <trkpt lat="40.482127" lon="-2.742485">
        <ele>879.9</ele>
        <time>2015-02-22T11:30:03Z</time>
      </trkpt>
      <trkpt lat="40.482040" lon="-2.742526">
        <ele>881.0</ele>
        <time>2015-02-22T11:30:08Z</time>
      </trkpt>
      <trkpt lat="40.481955" lon="-2.742572">
        <ele>881.9</ele>
        <time>2015-02-22T11:30:13Z</time>
      </trkpt>
      <trkpt lat="40.481864" lon="-2.742596">
        <ele>882.8</ele>
        <time>2015-02-22T11:30:18Z</time>
      </trkpt>
      <trkpt lat="40.481772" lon="-2.742626">
        <ele>883.8</ele>
        <time>2015-02-22T11:30:23Z</time>
      </trkpt>
      <trkpt lat="40.481670" lon="-2.742668">
        <ele>885.0</ele>
        <time>2015-02-22T11:30:29Z</time>
      </trkpt>
      <trkpt lat="40.481567" lon="-2.742693">
        <ele>885.7</ele>
        <time>2015-02-22T11:30:35Z</time>
      </trkpt>
      <trkpt lat="40.481465" lon="-2.742725">
        <ele>886.7</ele>
        <time>2015-02-22T11:30:41Z</time>
      </trkpt>
      <trkpt lat="40.481377" lon="-2.742755">
        <ele>887.5</ele>
        <time>2015-02-22T11:30:46Z</time>
      </trkpt>
      <trkpt lat="40.481290" lon="-2.742795">
        <ele>888.5</ele>
        <time>2015-02-22T11:30:51Z</time>
      </trkpt>
      <trkpt lat="40.481204" lon="-2.742845">
        <ele>889.7</ele>
        <time>2015-02-22T11:30:56Z</time>
      </trkpt>
      <trkpt lat="40.481122" lon="-2.742903">
        <ele>891.0</ele>
        <time>2015-02-22T11:31:01Z</time>
      </trkpt>
      <trkpt lat="40.481042" lon="-2.742961">
        <ele>892.7</ele>
        <time>2015-02-22T11:31:06Z</time>
      </trkpt>
      <trkpt lat="40.480957" lon="-2.743005">
        <ele>893.9</ele>
        <time>2015-02-22T11:31:11Z</time>
      </trkpt>
      <trkpt lat="40.480870" lon="-2.743042">
        <ele>895.2</ele>
        <time>2015-02-22T11:31:16Z</time>
      </trkpt>
      <trkpt lat="40.480783" lon="-2.743081">
        <ele>896.3</ele>
        <time>2015-02-22T11:31:21Z</time>
      </trkpt>
      <trkpt lat="40.480702" lon="-2.743138">
        <ele>897.5</ele>
        <time>2015-02-22T11:31:26Z</time>
      </trkpt>
      <trkpt lat="40.480617" lon="-2.743188">
        <ele>898.7</ele>
        <time>2015-02-22T11:31:31Z</time>
      </trkpt>
      <trkpt lat="40.480530" lon="-2.743222">
        <ele>899.7</ele>
        <time>2015-02-22T11:31:36Z</time>
      </trkpt>
      <trkpt lat="40.480429" lon="-2.743252">
        <ele>900.4</ele>
        <time>2015-02-22T11:31:42Z</time>
      </trkpt>
      <trkpt lat="40.480340" lon="-2.743281">
        <ele>901.1</ele>
        <time>2015-02-22T11:31:47Z</time>
      </trkpt>
      <trkpt lat="40.480243" lon="-2.743347">
        <ele>902.7</ele>
        <time>2015-02-22T11:31:53Z</time>
      </trkpt>
      <trkpt lat="40.480179" lon="-2.743458">
        <ele>905.3</ele>
        <time>2015-02-22T11:31:59Z</time>
      </trkpt>
      <trkpt lat="40.480123" lon="-2.743577">
        <ele>908.0</ele>
        <time>2015-02-22T11:32:05Z</time>
      </trkpt>
      <trkpt lat="40.480069" lon="-2.743690">
        <ele>910.9</ele>
        <time>2015-02-22T11:32:11Z</time>
      </trkpt>
      <trkpt lat="40.479997" lon="-2.743782">
        <ele>913.4</ele>
        <time>2015-02-22T11:32:17Z</time>
      </trkpt>
      <trkpt lat="40.479918" lon="-2.743863">
        <ele>915.0</ele>
        <time>2015-02-22T11:32:23Z</time>
      </trkpt>
      <trkpt lat="40.479842" lon="-2.743956">
        <ele>916.9</ele>
        <time>2015-02-22T11:33:33Z</time>
      </trkpt>
      <trkpt lat="40.479747" lon="-2.744005">
        <ele>917.8</ele>
        <time>2015-02-22T11:33:38Z</time>
      </trkpt>
      <trkpt lat="40.479657" lon="-2.744047">
        <ele>918.5</ele>
        <time>2015-02-22T11:33:42Z</time>
      </trkpt>
      <trkpt lat="40.479552" lon="-2.744083">
        <ele>919.1</ele>
        <time>2015-02-22T11:33:46Z</time>
      </trkpt>
      <trkpt lat="40.479437" lon="-2.744103">
        <ele>919.2</ele>
        <time>2015-02-22T11:33:49Z</time>
      </trkpt>
      <trkpt lat="40.479342" lon="-2.744127">
        <ele>919.5</ele>
        <time>2015-02-22T11:33:52Z</time>
      </trkpt>
      <trkpt lat="40.479243" lon="-2.744118">
        <ele>919.3</ele>
        <time>2015-02-22T11:33:55Z</time>
      </trkpt>
      <trkpt lat="40.479145" lon="-2.744048">
        <ele>917.2</ele>
        <time>2015-02-22T11:33:58Z</time>
      </trkpt>
      <trkpt lat="40.479047" lon="-2.743965">
        <ele>914.9</ele>
        <time>2015-02-22T11:34:01Z</time>
      </trkpt>
      <trkpt lat="40.478935" lon="-2.743900">
        <ele>912.9</ele>
        <time>2015-02-22T11:34:04Z</time>
      </trkpt>
      <trkpt lat="40.478842" lon="-2.743900">
        <ele>912.4</ele>
        <time>2015-02-22T11:34:06Z</time>
      </trkpt>
      <trkpt lat="40.478745" lon="-2.743928">
        <ele>912.5</ele>
        <time>2015-02-22T11:34:08Z</time>
      </trkpt>
      <trkpt lat="40.478620" lon="-2.743975">
        <ele>913.1</ele>
        <time>2015-02-22T11:34:11Z</time>
      </trkpt>
      <trkpt lat="40.478515" lon="-2.744012">
        <ele>913.2</ele>
        <time>2015-02-22T11:34:15Z</time>
      </trkpt>
      <trkpt lat="40.478428" lon="-2.744043">
        <ele>913.7</ele>
        <time>2015-02-22T11:34:18Z</time>
      </trkpt>
      <trkpt lat="40.478352" lon="-2.744140">
        <ele>915.5</ele>
        <time>2015-02-22T11:34:21Z</time>
      </trkpt>
      <trkpt lat="40.478310" lon="-2.744247">
        <ele>915.3</ele>
        <time>2015-02-22T11:34:23Z</time>
      </trkpt>
      <trkpt lat="40.478277" lon="-2.744365">
        <ele>914.2</ele>
        <time>2015-02-22T11:34:25Z</time>
      </trkpt>
      <trkpt lat="40.478250" lon="-2.744483">
        <ele>913.4</ele>
        <time>2015-02-22T11:34:27Z</time>
      </trkpt>
      <trkpt lat="40.478207" lon="-2.744633">
        <ele>912.2</ele>
        <time>2015-02-22T11:34:30Z</time>
      </trkpt>
      <trkpt lat="40.478170" lon="-2.744745">
        <ele>911.3</ele>
        <time>2015-02-22T11:34:33Z</time>
      </trkpt>
      <trkpt lat="40.478132" lon="-2.744865">
        <ele>910.5</ele>
        <time>2015-02-22T11:34:37Z</time>
      </trkpt>
      <trkpt lat="40.478102" lon="-2.745007">
        <ele>909.6</ele>
        <time>2015-02-22T11:34:42Z</time>
      </trkpt>
      <trkpt lat="40.478085" lon="-2.745130">
        <ele>908.2</ele>
        <time>2015-02-22T11:34:47Z</time>
      </trkpt>
      <trkpt lat="40.478065" lon="-2.745250">
        <ele>906.7</ele>
        <time>2015-02-22T11:34:52Z</time>
      </trkpt>
      <trkpt lat="40.478038" lon="-2.745363">
        <ele>905.5</ele>
        <time>2015-02-22T11:34:57Z</time>
      </trkpt>
      <trkpt lat="40.478012" lon="-2.745477">
        <ele>904.4</ele>
        <time>2015-02-22T11:35:02Z</time>
      </trkpt>
      <trkpt lat="40.477975" lon="-2.745607">
        <ele>903.3</ele>
        <time>2015-02-22T11:35:08Z</time>
      </trkpt>
      <trkpt lat="40.477934" lon="-2.745731">
        <ele>902.5</ele>
        <time>2015-02-22T11:35:14Z</time>
      </trkpt>
      <trkpt lat="40.477885" lon="-2.745850">
        <ele>902.4</ele>
        <time>2015-02-22T11:35:20Z</time>
      </trkpt>
      <trkpt lat="40.477840" lon="-2.745966">
        <ele>903.4</ele>
        <time>2015-02-22T11:35:26Z</time>
      </trkpt>
      <trkpt lat="40.477804" lon="-2.746085">
        <ele>904.5</ele>
        <time>2015-02-22T11:35:32Z</time>
      </trkpt>
      <trkpt lat="40.477762" lon="-2.746200">
        <ele>905.7</ele>
        <time>2015-02-22T11:35:38Z</time>
      </trkpt>
      <trkpt lat="40.477727" lon="-2.746320">
        <ele>907.2</ele>
        <time>2015-02-22T11:35:44Z</time>
      </trkpt>
      <trkpt lat="40.477700" lon="-2.746445">
        <ele>908.5</ele>
        <time>2015-02-22T11:35:50Z</time>
      </trkpt>
      <trkpt lat="40.477668" lon="-2.746568">
        <ele>910.2</ele>
        <time>2015-02-22T11:35:56Z</time>
      </trkpt>
      <trkpt lat="40.477670" lon="-2.746697">
        <ele>911.3</ele>
        <time>2015-02-22T11:36:02Z</time>
      </trkpt>
      <trkpt lat="40.477693" lon="-2.746822">
        <ele>912.0</ele>
        <time>2015-02-22T11:36:08Z</time>
      </trkpt>
      <trkpt lat="40.477732" lon="-2.746943">
        <ele>912.6</ele>
        <time>2015-02-22T11:36:14Z</time>
      </trkpt>
      <trkpt lat="40.477768" lon="-2.747067">
        <ele>913.0</ele>
        <time>2015-02-22T11:36:20Z</time>
      </trkpt>
      <trkpt lat="40.477802" lon="-2.747193">
        <ele>913.7</ele>
        <time>2015-02-22T11:36:26Z</time>
      </trkpt>
      <trkpt lat="40.477810" lon="-2.747326">
        <ele>915.0</ele>
        <time>2015-02-22T11:36:32Z</time>
      </trkpt>
      <trkpt lat="40.477802" lon="-2.747457">
        <ele>916.7</ele>
        <time>2015-02-22T11:36:38Z</time>
      </trkpt>
      <trkpt lat="40.477773" lon="-2.747590">
        <ele>917.9</ele>
        <time>2015-02-22T11:36:44Z</time>
      </trkpt>
      <trkpt lat="40.477734" lon="-2.747703">
        <ele>918.8</ele>
        <time>2015-02-22T11:36:49Z</time>
      </trkpt>
      <trkpt lat="40.477672" lon="-2.747797">
        <ele>920.2</ele>
        <time>2015-02-22T11:36:54Z</time>
      </trkpt>
      <trkpt lat="40.477578" lon="-2.747833">
        <ele>922.0</ele>
        <time>2015-02-22T11:37:17Z</time>
      </trkpt>
      <trkpt lat="40.477475" lon="-2.747866">
        <ele>924.0</ele>
        <time>2015-02-22T11:37:21Z</time>
      </trkpt>
      <trkpt lat="40.477362" lon="-2.747903">
        <ele>925.9</ele>
        <time>2015-02-22T11:37:25Z</time>
      </trkpt>
      <trkpt lat="40.477267" lon="-2.747942">
        <ele>927.4</ele>
        <time>2015-02-22T11:37:28Z</time>
      </trkpt>
      <trkpt lat="40.477160" lon="-2.747998">
        <ele>929.1</ele>
        <time>2015-02-22T11:37:31Z</time>
      </trkpt>
      <trkpt lat="40.477067" lon="-2.748035">
        <ele>930.5</ele>
        <time>2015-02-22T11:37:33Z</time>
      </trkpt>
      <trkpt lat="40.476955" lon="-2.748080">
        <ele>932.1</ele>
        <time>2015-02-22T11:37:35Z</time>
      </trkpt>
      <trkpt lat="40.476832" lon="-2.748128">
        <ele>933.8</ele>
        <time>2015-02-22T11:37:37Z</time>
      </trkpt>
      <trkpt lat="40.476704" lon="-2.748181">
        <ele>935.4</ele>
        <time>2015-02-22T11:37:39Z</time>
      </trkpt>
      <trkpt lat="40.476572" lon="-2.748238">
        <ele>936.0</ele>
        <time>2015-02-22T11:37:41Z</time>
      </trkpt>
      <trkpt lat="40.476440" lon="-2.748305">
        <ele>935.8</ele>
        <time>2015-02-22T11:37:43Z</time>
      </trkpt>
      <trkpt lat="40.476297" lon="-2.748373">
        <ele>935.0</ele>
        <time>2015-02-22T11:37:45Z</time>
      </trkpt>
      <trkpt lat="40.476143" lon="-2.748440">
        <ele>933.5</ele>
        <time>2015-02-22T11:37:47Z</time>
      </trkpt>
      <trkpt lat="40.475990" lon="-2.748530">
        <ele>932.1</ele>
        <time>2015-02-22T11:37:49Z</time>
      </trkpt>
      <trkpt lat="40.475857" lon="-2.748653">
        <ele>929.5</ele>
        <time>2015-02-22T11:37:51Z</time>
      </trkpt>
      <trkpt lat="40.475758" lon="-2.748803">
        <ele>927.3</ele>
        <time>2015-02-22T11:37:53Z</time>
      </trkpt>
      <trkpt lat="40.475697" lon="-2.748960">
        <ele>924.9</ele>
        <time>2015-02-22T11:37:55Z</time>
      </trkpt>
      <trkpt lat="40.475661" lon="-2.749136">
        <ele>921.8</ele>
        <time>2015-02-22T11:37:57Z</time>
      </trkpt>
      <trkpt lat="40.475642" lon="-2.749288">
        <ele>922.0</ele>
        <time>2015-02-22T11:38:00Z</time>
      </trkpt>
      <trkpt lat="40.475625" lon="-2.749463">
        <ele>922.6</ele>
        <time>2015-02-22T11:38:04Z</time>
      </trkpt>
      <trkpt lat="40.475610" lon="-2.749598">
        <ele>923.2</ele>
        <time>2015-02-22T11:38:08Z</time>
      </trkpt>
      <trkpt lat="40.475589" lon="-2.749742">
        <ele>924.0</ele>
        <time>2015-02-22T11:38:12Z</time>
      </trkpt>
      <trkpt lat="40.475573" lon="-2.749860">
        <ele>924.6</ele>
        <time>2015-02-22T11:38:15Z</time>
      </trkpt>
      <trkpt lat="40.475552" lon="-2.749995">
        <ele>925.4</ele>
        <time>2015-02-22T11:38:19Z</time>
      </trkpt>
      <trkpt lat="40.475512" lon="-2.750105">
        <ele>928.3</ele>
        <time>2015-02-22T11:38:23Z</time>
      </trkpt>
      <trkpt lat="40.475460" lon="-2.750226">
        <ele>931.9</ele>
        <time>2015-02-22T11:38:28Z</time>
      </trkpt>
      <trkpt lat="40.475392" lon="-2.750333">
        <ele>935.3</ele>
        <time>2015-02-22T11:38:33Z</time>
      </trkpt>
      <trkpt lat="40.475313" lon="-2.750426">
        <ele>938.5</ele>
        <time>2015-02-22T11:38:38Z</time>
      </trkpt>
      <trkpt lat="40.475223" lon="-2.750508">
        <ele>941.6</ele>
        <time>2015-02-22T11:38:43Z</time>
      </trkpt>
      <trkpt lat="40.475140" lon="-2.750593">
        <ele>944.8</ele>
        <time>2015-02-22T11:38:48Z</time>
      </trkpt>
      <trkpt lat="40.475062" lon="-2.750670">
        <ele>947.5</ele>
        <time>2015-02-22T11:38:53Z</time>
      </trkpt>
      <trkpt lat="40.474980" lon="-2.750730">
        <ele>949.4</ele>
        <time>2015-02-22T11:38:58Z</time>
      </trkpt>
      <trkpt lat="40.474892" lon="-2.750788">
        <ele>950.5</ele>
        <time>2015-02-22T11:39:03Z</time>
      </trkpt>
      <trkpt lat="40.474792" lon="-2.750820">
        <ele>950.8</ele>
        <time>2015-02-22T11:39:08Z</time>
      </trkpt>
      <trkpt lat="40.474695" lon="-2.750827">
        <ele>951.0</ele>
        <time>2015-02-22T11:39:13Z</time>
      </trkpt>
      <trkpt lat="40.474602" lon="-2.750822">
        <ele>950.9</ele>
        <time>2015-02-22T11:39:18Z</time>
      </trkpt>
      <trkpt lat="40.474510" lon="-2.750812">
        <ele>950.9</ele>
        <time>2015-02-22T11:39:23Z</time>
      </trkpt>
      <trkpt lat="40.474410" lon="-2.750786">
        <ele>950.8</ele>
        <time>2015-02-22T11:39:29Z</time>
      </trkpt>
      <trkpt lat="40.474318" lon="-2.750758">
        <ele>950.7</ele>
        <time>2015-02-22T11:39:34Z</time>
      </trkpt>
      <trkpt lat="40.474225" lon="-2.750725">
        <ele>950.7</ele>
        <time>2015-02-22T11:39:39Z</time>
      </trkpt>
      <trkpt lat="40.474132" lon="-2.750693">
        <ele>951.1</ele>
        <time>2015-02-22T11:39:44Z</time>
      </trkpt>
      <trkpt lat="40.474025" lon="-2.750675">
        <ele>952.4</ele>
        <time>2015-02-22T11:39:49Z</time>
      </trkpt>
      <trkpt lat="40.473929" lon="-2.750650">
        <ele>953.6</ele>
        <time>2015-02-22T11:39:53Z</time>
      </trkpt>
      <trkpt lat="40.473827" lon="-2.750633">
        <ele>954.9</ele>
        <time>2015-02-22T11:39:57Z</time>
      </trkpt>
      <trkpt lat="40.473719" lon="-2.750622">
        <ele>956.3</ele>
        <time>2015-02-22T11:40:01Z</time>
      </trkpt>
      <trkpt lat="40.473628" lon="-2.750617">
        <ele>957.4</ele>
        <time>2015-02-22T11:40:04Z</time>
      </trkpt>
      <trkpt lat="40.473525" lon="-2.750630">
        <ele>958.7</ele>
        <time>2015-02-22T11:40:07Z</time>
      </trkpt>
      <trkpt lat="40.473403" lon="-2.750640">
        <ele>960.3</ele>
        <time>2015-02-22T11:40:10Z</time>
      </trkpt>
      <trkpt lat="40.473283" lon="-2.750648">
        <ele>961.1</ele>
        <time>2015-02-22T11:40:13Z</time>
      </trkpt>
      <trkpt lat="40.473170" lon="-2.750653">
        <ele>961.1</ele>
        <time>2015-02-22T11:40:16Z</time>
      </trkpt>
      <trkpt lat="40.473055" lon="-2.750656">
        <ele>961.1</ele>
        <time>2015-02-22T11:40:19Z</time>
      </trkpt>
      <trkpt lat="40.472925" lon="-2.750661">
        <ele>961.1</ele>
        <time>2015-02-22T11:40:22Z</time>
      </trkpt>
      <trkpt lat="40.472835" lon="-2.750663">
        <ele>961.2</ele>
        <time>2015-02-22T11:40:24Z</time>
      </trkpt>
      <trkpt lat="40.472709" lon="-2.750666">
        <ele>961.0</ele>
        <time>2015-02-22T11:40:27Z</time>
      </trkpt>
      <trkpt lat="40.472594" lon="-2.750671">
        <ele>961.0</ele>
        <time>2015-02-22T11:40:30Z</time>
      </trkpt>
      <trkpt lat="40.472487" lon="-2.750646">
        <ele>961.4</ele>
        <time>2015-02-22T11:40:33Z</time>
      </trkpt>
      <trkpt lat="40.472384" lon="-2.750573">
        <ele>962.5</ele>
        <time>2015-02-22T11:40:36Z</time>
      </trkpt>
      <trkpt lat="40.472305" lon="-2.750478">
        <ele>963.9</ele>
        <time>2015-02-22T11:40:38Z</time>
      </trkpt>
      <trkpt lat="40.472200" lon="-2.750348">
        <ele>966.0</ele>
        <time>2015-02-22T11:40:40Z</time>
      </trkpt>
      <trkpt lat="40.472075" lon="-2.750216">
        <ele>967.9</ele>
        <time>2015-02-22T11:40:42Z</time>
      </trkpt>
      <trkpt lat="40.471945" lon="-2.750088">
        <ele>969.7</ele>
        <time>2015-02-22T11:40:44Z</time>
      </trkpt>
      <trkpt lat="40.471819" lon="-2.749961">
        <ele>971.3</ele>
        <time>2015-02-22T11:40:46Z</time>
      </trkpt>
      <trkpt lat="40.471694" lon="-2.749833">
        <ele>972.4</ele>
        <time>2015-02-22T11:40:48Z</time>
      </trkpt>
      <trkpt lat="40.471574" lon="-2.749707">
        <ele>972.5</ele>
        <time>2015-02-22T11:40:50Z</time>
      </trkpt>
      <trkpt lat="40.471460" lon="-2.749588">
        <ele>972.1</ele>
        <time>2015-02-22T11:40:52Z</time>
      </trkpt>
      <trkpt lat="40.471365" lon="-2.749487">
        <ele>971.8</ele>
        <time>2015-02-22T11:40:54Z</time>
      </trkpt>
      <trkpt lat="40.471292" lon="-2.749402">
        <ele>971.7</ele>
        <time>2015-02-22T11:40:56Z</time>
      </trkpt>
      <trkpt lat="40.471203" lon="-2.749320">
        <ele>971.1</ele>
        <time>2015-02-22T11:40:59Z</time>
      </trkpt>
      <trkpt lat="40.471093" lon="-2.749328">
        <ele>968.8</ele>
        <time>2015-02-22T11:41:02Z</time>
      </trkpt>
      <trkpt lat="40.471034" lon="-2.749420">
        <ele>966.6</ele>
        <time>2015-02-22T11:41:04Z</time>
      </trkpt>
      <trkpt lat="40.470992" lon="-2.749555">
        <ele>964.2</ele>
        <time>2015-02-22T11:41:06Z</time>
      </trkpt>
      <trkpt lat="40.470952" lon="-2.749712">
        <ele>961.6</ele>
        <time>2015-02-22T11:41:08Z</time>
      </trkpt>
      <trkpt lat="40.470904" lon="-2.749863">
        <ele>958.8</ele>
        <time>2015-02-22T11:41:10Z</time>
      </trkpt>
      <trkpt lat="40.470837" lon="-2.749980">
        <ele>956.2</ele>
        <time>2015-02-22T11:41:12Z</time>
      </trkpt>
      <trkpt lat="40.470753" lon="-2.750080">
        <ele>955.3</ele>
        <time>2015-02-22T11:41:15Z</time>
      </trkpt>
      <trkpt lat="40.470669" lon="-2.750140">
        <ele>954.7</ele>
        <time>2015-02-22T11:41:19Z</time>
      </trkpt>
      <trkpt lat="40.470580" lon="-2.750185">
        <ele>954.3</ele>
        <time>2015-02-22T11:41:23Z</time>
      </trkpt>
      <trkpt lat="40.470495" lon="-2.750228">
        <ele>954.1</ele>
        <time>2015-02-22T11:41:27Z</time>
      </trkpt>
      <trkpt lat="40.470412" lon="-2.750280">
        <ele>953.8</ele>
        <time>2015-02-22T11:41:31Z</time>
      </trkpt>
      <trkpt lat="40.470325" lon="-2.750353">
        <ele>953.5</ele>
        <time>2015-02-22T11:41:35Z</time>
      </trkpt>
      <trkpt lat="40.470260" lon="-2.750458">
        <ele>953.2</ele>
        <time>2015-02-22T11:41:39Z</time>
      </trkpt>
      <trkpt lat="40.470235" lon="-2.750587">
        <ele>952.9</ele>
        <time>2015-02-22T11:41:43Z</time>
      </trkpt>
      <trkpt lat="40.470203" lon="-2.750720">
        <ele>952.5</ele>
        <time>2015-02-22T11:41:48Z</time>
      </trkpt>
      <trkpt lat="40.470139" lon="-2.750810">
        <ele>952.5</ele>
        <time>2015-02-22T11:41:54Z</time>
      </trkpt>
      <trkpt lat="40.470049" lon="-2.750848">
        <ele>952.8</ele>
        <time>2015-02-22T11:42:00Z</time>
      </trkpt>
      <trkpt lat="40.469948" lon="-2.750863">
        <ele>953.6</ele>
        <time>2015-02-22T11:42:06Z</time>
      </trkpt>
      <trkpt lat="40.469847" lon="-2.750890">
        <ele>954.9</ele>
        <time>2015-02-22T11:42:12Z</time>
      </trkpt>
      <trkpt lat="40.469758" lon="-2.750933">
        <ele>956.1</ele>
        <time>2015-02-22T11:42:17Z</time>
      </trkpt>
      <trkpt lat="40.469670" lon="-2.750995">
        <ele>957.2</ele>
        <time>2015-02-22T11:42:22Z</time>
      </trkpt>
      <trkpt lat="40.469600" lon="-2.751070">
        <ele>958.2</ele>
        <time>2015-02-22T11:42:27Z</time>
      </trkpt>
      <trkpt lat="40.469545" lon="-2.751168">
        <ele>958.8</ele>
        <time>2015-02-22T11:42:50Z</time>
      </trkpt>
      <trkpt lat="40.469475" lon="-2.751248">
        <ele>959.8</ele>
        <time>2015-02-22T11:42:53Z</time>
      </trkpt>
      <trkpt lat="40.469384" lon="-2.751341">
        <ele>961.2</ele>
        <time>2015-02-22T11:42:56Z</time>
      </trkpt>
      <trkpt lat="40.469292" lon="-2.751425">
        <ele>962.7</ele>
        <time>2015-02-22T11:42:59Z</time>
      </trkpt>
      <trkpt lat="40.469190" lon="-2.751498">
        <ele>964.5</ele>
        <time>2015-02-22T11:43:02Z</time>
      </trkpt>
      <trkpt lat="40.469090" lon="-2.751563">
        <ele>965.4</ele>
        <time>2015-02-22T11:43:05Z</time>
      </trkpt>
      <trkpt lat="40.468992" lon="-2.751618">
        <ele>966.1</ele>
        <time>2015-02-22T11:43:08Z</time>
      </trkpt>
      <trkpt lat="40.468897" lon="-2.751666">
        <ele>966.9</ele>
        <time>2015-02-22T11:43:11Z</time>
      </trkpt>
      <trkpt lat="40.468802" lon="-2.751715">
        <ele>966.9</ele>
        <time>2015-02-22T11:43:14Z</time>
      </trkpt>
      <trkpt lat="40.468717" lon="-2.751758">
        <ele>967.1</ele>
        <time>2015-02-22T11:43:17Z</time>
      </trkpt>
      <trkpt lat="40.468610" lon="-2.751813">
        <ele>967.4</ele>
        <time>2015-02-22T11:43:21Z</time>
      </trkpt>
      <trkpt lat="40.468515" lon="-2.751891">
        <ele>967.6</ele>
        <time>2015-02-22T11:43:25Z</time>
      </trkpt>
      <trkpt lat="40.468440" lon="-2.751975">
        <ele>967.8</ele>
        <time>2015-02-22T11:43:29Z</time>
      </trkpt>
      <trkpt lat="40.468383" lon="-2.752077">
        <ele>967.8</ele>
        <time>2015-02-22T11:43:33Z</time>
      </trkpt>
      <trkpt lat="40.468347" lon="-2.752190">
        <ele>967.6</ele>
        <time>2015-02-22T11:43:37Z</time>
      </trkpt>
      <trkpt lat="40.468312" lon="-2.752300">
        <ele>967.4</ele>
        <time>2015-02-22T11:43:41Z</time>
      </trkpt>
      <trkpt lat="40.468265" lon="-2.752410">
        <ele>967.6</ele>
        <time>2015-02-22T11:43:45Z</time>
      </trkpt>
      <trkpt lat="40.468217" lon="-2.752518">
        <ele>967.9</ele>
        <time>2015-02-22T11:43:49Z</time>
      </trkpt>
      <trkpt lat="40.468165" lon="-2.752640">
        <ele>968.4</ele>
        <time>2015-02-22T11:43:54Z</time>
      </trkpt>
      <trkpt lat="40.468112" lon="-2.752745">
        <ele>969.3</ele>
        <time>2015-02-22T11:43:59Z</time>
      </trkpt>
      <trkpt lat="40.468072" lon="-2.752858">
        <ele>970.0</ele>
        <time>2015-02-22T11:44:24Z</time>
      </trkpt>
      <trkpt lat="40.468027" lon="-2.752962">
        <ele>971.0</ele>
        <time>2015-02-22T11:45:17Z</time>
      </trkpt>
      <trkpt lat="40.467973" lon="-2.753067">
        <ele>972.2</ele>
        <time>2015-02-22T11:45:23Z</time>
      </trkpt>
      <trkpt lat="40.467917" lon="-2.753175">
        <ele>973.8</ele>
        <time>2015-02-22T11:45:30Z</time>
      </trkpt>
      <trkpt lat="40.467870" lon="-2.753295">
        <ele>975.2</ele>
        <time>2015-02-22T11:45:37Z</time>
      </trkpt>
      <trkpt lat="40.467822" lon="-2.753395">
        <ele>976.8</ele>
        <time>2015-02-22T11:45:43Z</time>
      </trkpt>
      <trkpt lat="40.467762" lon="-2.753507">
        <ele>978.6</ele>
        <time>2015-02-22T11:45:50Z</time>
      </trkpt>
      <trkpt lat="40.467695" lon="-2.753610">
        <ele>980.5</ele>
        <time>2015-02-22T11:45:56Z</time>
      </trkpt>
      <trkpt lat="40.467633" lon="-2.753698">
        <ele>982.1</ele>
        <time>2015-02-22T11:46:01Z</time>
      </trkpt>
      <trkpt lat="40.467554" lon="-2.753788">
        <ele>984.1</ele>
        <time>2015-02-22T11:46:07Z</time>
      </trkpt>
      <trkpt lat="40.467469" lon="-2.753876">
        <ele>985.8</ele>
        <time>2015-02-22T11:46:13Z</time>
      </trkpt>
      <trkpt lat="40.467388" lon="-2.753970">
        <ele>987.0</ele>
        <time>2015-02-22T11:46:19Z</time>
      </trkpt>
      <trkpt lat="40.467310" lon="-2.754038">
        <ele>988.4</ele>
        <time>2015-02-22T11:46:24Z</time>
      </trkpt>
      <trkpt lat="40.467239" lon="-2.754118">
        <ele>989.9</ele>
        <time>2015-02-22T11:46:29Z</time>
      </trkpt>
      <trkpt lat="40.467158" lon="-2.754180">
        <ele>991.7</ele>
        <time>2015-02-22T11:46:34Z</time>
      </trkpt>
      <trkpt lat="40.467068" lon="-2.754207">
        <ele>993.6</ele>
        <time>2015-02-22T11:46:39Z</time>
      </trkpt>
      <trkpt lat="40.466972" lon="-2.754233">
        <ele>995.6</ele>
        <time>2015-02-22T11:46:43Z</time>
      </trkpt>
      <trkpt lat="40.466869" lon="-2.754263">
        <ele>997.8</ele>
        <time>2015-02-22T11:46:46Z</time>
      </trkpt>
      <trkpt lat="40.466779" lon="-2.754293">
        <ele>999.5</ele>
        <time>2015-02-22T11:46:48Z</time>
      </trkpt>
      <trkpt lat="40.466665" lon="-2.754333">
        <ele>1001.6</ele>
        <time>2015-02-22T11:46:50Z</time>
      </trkpt>
      <trkpt lat="40.466544" lon="-2.754380">
        <ele>1001.2</ele>
        <time>2015-02-22T11:46:52Z</time>
      </trkpt>
      <trkpt lat="40.466422" lon="-2.754426">
        <ele>1000.8</ele>
        <time>2015-02-22T11:46:54Z</time>
      </trkpt>
      <trkpt lat="40.466295" lon="-2.754468">
        <ele>1000.3</ele>
        <time>2015-02-22T11:46:56Z</time>
      </trkpt>
      <trkpt lat="40.466162" lon="-2.754515">
        <ele>999.7</ele>
        <time>2015-02-22T11:46:58Z</time>
      </trkpt>
      <trkpt lat="40.466030" lon="-2.754558">
        <ele>999.0</ele>
        <time>2015-02-22T11:47:00Z</time>
      </trkpt>
      <trkpt lat="40.465902" lon="-2.754591">
        <ele>998.4</ele>
        <time>2015-02-22T11:47:02Z</time>
      </trkpt>
      <trkpt lat="40.465774" lon="-2.754620">
        <ele>998.1</ele>
        <time>2015-02-22T11:47:04Z</time>
      </trkpt>
      <trkpt lat="40.465637" lon="-2.754655">
        <ele>998.2</ele>
        <time>2015-02-22T11:47:06Z</time>
      </trkpt>
      <trkpt lat="40.465503" lon="-2.754722">
        <ele>998.4</ele>
        <time>2015-02-22T11:47:08Z</time>
      </trkpt>
      <trkpt lat="40.465387" lon="-2.754816">
        <ele>998.5</ele>
        <time>2015-02-22T11:47:10Z</time>
      </trkpt>
      <trkpt lat="40.465285" lon="-2.754913">
        <ele>998.7</ele>
        <time>2015-02-22T11:47:12Z</time>
      </trkpt>
      <trkpt lat="40.465195" lon="-2.755000">
        <ele>998.8</ele>
        <time>2015-02-22T11:47:14Z</time>
      </trkpt>
      <trkpt lat="40.465107" lon="-2.755077">
        <ele>998.4</ele>
        <time>2015-02-22T11:47:16Z</time>
      </trkpt>
      <trkpt lat="40.465017" lon="-2.755141">
        <ele>998.0</ele>
        <time>2015-02-22T11:47:18Z</time>
      </trkpt>
      <trkpt lat="40.464925" lon="-2.755200">
        <ele>998.1</ele>
        <time>2015-02-22T11:47:20Z</time>
      </trkpt>
      <trkpt lat="40.464837" lon="-2.755260">
        <ele>998.4</ele>
        <time>2015-02-22T11:47:22Z</time>
      </trkpt>
      <trkpt lat="40.464749" lon="-2.755323">
        <ele>998.7</ele>
        <time>2015-02-22T11:47:24Z</time>
      </trkpt>
      <trkpt lat="40.464664" lon="-2.755393">
        <ele>999.1</ele>
        <time>2015-02-22T11:47:26Z</time>
      </trkpt>
      <trkpt lat="40.464582" lon="-2.755470">
        <ele>999.5</ele>
        <time>2015-02-22T11:47:28Z</time>
      </trkpt>
      <trkpt lat="40.464508" lon="-2.755546">
        <ele>999.9</ele>
        <time>2015-02-22T11:47:30Z</time>
      </trkpt>
      <trkpt lat="40.464455" lon="-2.755645">
        <ele>1000.1</ele>
        <time>2015-02-22T11:47:32Z</time>
      </trkpt>
      <trkpt lat="40.464408" lon="-2.755758">
        <ele>1000.3</ele>
        <time>2015-02-22T11:47:34Z</time>
      </trkpt>
      <trkpt lat="40.464367" lon="-2.755872">
        <ele>1000.3</ele>
        <time>2015-02-22T11:47:36Z</time>
      </trkpt>
      <trkpt lat="40.464419" lon="-2.755767">
        <ele>1000.2</ele>
        <time>2015-02-22T11:47:47Z</time>
      </trkpt>
      <trkpt lat="40.464470" lon="-2.755668">
        <ele>999.9</ele>
        <time>2015-02-22T11:47:50Z</time>
      </trkpt>
      <trkpt lat="40.464545" lon="-2.755580">
        <ele>999.4</ele>
        <time>2015-02-22T11:47:54Z</time>
      </trkpt>
      <trkpt lat="40.464449" lon="-2.755560">
        <ele>1000.5</ele>
        <time>2015-02-22T11:48:04Z</time>
      </trkpt>
      <trkpt lat="40.464354" lon="-2.755568">
        <ele>1001.4</ele>
        <time>2015-02-22T11:48:08Z</time>
      </trkpt>
      <trkpt lat="40.464248" lon="-2.755500">
        <ele>1002.6</ele>
        <time>2015-02-22T11:48:12Z</time>
      </trkpt>
      <trkpt lat="40.464165" lon="-2.755412">
        <ele>1003.5</ele>
        <time>2015-02-22T11:48:15Z</time>
      </trkpt>
      <trkpt lat="40.464107" lon="-2.755316">
        <ele>1003.9</ele>
        <time>2015-02-22T11:48:18Z</time>
      </trkpt>
      <trkpt lat="40.464038" lon="-2.755230">
        <ele>1004.4</ele>
        <time>2015-02-22T11:50:27Z</time>
      </trkpt>
      <trkpt lat="40.463942" lon="-2.755121">
        <ele>1005.1</ele>
        <time>2015-02-22T11:50:31Z</time>
      </trkpt>
      <trkpt lat="40.463867" lon="-2.755035">
        <ele>1005.7</ele>
        <time>2015-02-22T11:50:34Z</time>
      </trkpt>
      <trkpt lat="40.463784" lon="-2.754962">
        <ele>1005.7</ele>
        <time>2015-02-22T11:50:40Z</time>
      </trkpt>
      <trkpt lat="40.463672" lon="-2.754875">
        <ele>1005.0</ele>
        <time>2015-02-22T11:50:43Z</time>
      </trkpt>
      <trkpt lat="40.463575" lon="-2.754816">
        <ele>1004.3</ele>
        <time>2015-02-22T11:50:45Z</time>
      </trkpt>
      <trkpt lat="40.463470" lon="-2.754795">
        <ele>1004.5</ele>
        <time>2015-02-22T11:50:47Z</time>
      </trkpt>
      <trkpt lat="40.463372" lon="-2.754816">
        <ele>1005.1</ele>
        <time>2015-02-22T11:50:49Z</time>
      </trkpt>
      <trkpt lat="40.463272" lon="-2.754865">
        <ele>1006.2</ele>
        <time>2015-02-22T11:50:51Z</time>
      </trkpt>
      <trkpt lat="40.463175" lon="-2.754900">
        <ele>1006.8</ele>
        <time>2015-02-22T11:50:53Z</time>
      </trkpt>
      <trkpt lat="40.463045" lon="-2.754898">
        <ele>1006.6</ele>
        <time>2015-02-22T11:50:56Z</time>
      </trkpt>
      <trkpt lat="40.462955" lon="-2.754845">
        <ele>1005.2</ele>
        <time>2015-02-22T11:50:58Z</time>
      </trkpt>
      <trkpt lat="40.462847" lon="-2.754766">
        <ele>1003.7</ele>
        <time>2015-02-22T11:51:00Z</time>
      </trkpt>
      <trkpt lat="40.462737" lon="-2.754670">
        <ele>1002.0</ele>
        <time>2015-02-22T11:51:02Z</time>
      </trkpt>
      <trkpt lat="40.462647" lon="-2.754570">
        <ele>1000.3</ele>
        <time>2015-02-22T11:51:04Z</time>
      </trkpt>
      <trkpt lat="40.462587" lon="-2.754460">
        <ele>998.6</ele>
        <time>2015-02-22T11:51:06Z</time>
      </trkpt>
      <trkpt lat="40.462547" lon="-2.754345">
        <ele>996.8</ele>
        <time>2015-02-22T11:51:08Z</time>
      </trkpt>
      <trkpt lat="40.462492" lon="-2.754233">
        <ele>995.0</ele>
        <time>2015-02-22T11:51:12Z</time>
      </trkpt>
      <trkpt lat="40.462545" lon="-2.754131">
        <ele>993.2</ele>
        <time>2015-02-22T11:51:16Z</time>
      </trkpt>
      <trkpt lat="40.462595" lon="-2.753986">
        <ele>989.0</ele>
        <time>2015-02-22T11:51:19Z</time>
      </trkpt>
      <trkpt lat="40.462667" lon="-2.753876">
        <ele>986.1</ele>
        <time>2015-02-22T11:51:21Z</time>
      </trkpt>
      <trkpt lat="40.462745" lon="-2.753775">
        <ele>983.2</ele>
        <time>2015-02-22T11:51:23Z</time>
      </trkpt>
      <trkpt lat="40.462874" lon="-2.753728">
        <ele>982.0</ele>
        <time>2015-02-22T11:51:26Z</time>
      </trkpt>
      <trkpt lat="40.462982" lon="-2.753728">
        <ele>981.8</ele>
        <time>2015-02-22T11:51:28Z</time>
      </trkpt>
      <trkpt lat="40.463075" lon="-2.753690">
        <ele>980.6</ele>
        <time>2015-02-22T11:51:30Z</time>
      </trkpt>
      <trkpt lat="40.463162" lon="-2.753632">
        <ele>978.8</ele>
        <time>2015-02-22T11:51:32Z</time>
      </trkpt>
      <trkpt lat="40.463257" lon="-2.753600">
        <ele>978.0</ele>
        <time>2015-02-22T11:51:34Z</time>
      </trkpt>
      <trkpt lat="40.463358" lon="-2.753628">
        <ele>978.7</ele>
        <time>2015-02-22T11:51:36Z</time>
      </trkpt>
      <trkpt lat="40.463460" lon="-2.753643">
        <ele>979.6</ele>
        <time>2015-02-22T11:51:38Z</time>
      </trkpt>
      <trkpt lat="40.463570" lon="-2.753620">
        <ele>979.6</ele>
        <time>2015-02-22T11:51:40Z</time>
      </trkpt>
      <trkpt lat="40.463672" lon="-2.753576">
        <ele>979.3</ele>
        <time>2015-02-22T11:51:42Z</time>
      </trkpt>
      <trkpt lat="40.463762" lon="-2.753542">
        <ele>979.0</ele>
        <time>2015-02-22T11:51:44Z</time>
      </trkpt>
      <trkpt lat="40.463849" lon="-2.753456">
        <ele>977.7</ele>
        <time>2015-02-22T11:51:46Z</time>
      </trkpt>
      <trkpt lat="40.463910" lon="-2.753338">
        <ele>975.4</ele>
        <time>2015-02-22T11:51:49Z</time>
      </trkpt>
      <trkpt lat="40.463970" lon="-2.753202">
        <ele>973.1</ele>
        <time>2015-02-22T11:51:52Z</time>
      </trkpt>
      <trkpt lat="40.464047" lon="-2.753100">
        <ele>971.6</ele>
        <time>2015-02-22T11:51:54Z</time>
      </trkpt>
      <trkpt lat="40.464137" lon="-2.752995">
        <ele>970.3</ele>
        <time>2015-02-22T11:51:56Z</time>
      </trkpt>
      <trkpt lat="40.464237" lon="-2.752916">
        <ele>969.8</ele>
        <time>2015-02-22T11:51:58Z</time>
      </trkpt>
      <trkpt lat="40.464335" lon="-2.752780">
        <ele>968.4</ele>
        <time>2015-02-22T11:52:00Z</time>
      </trkpt>
      <trkpt lat="40.464417" lon="-2.752613">
        <ele>966.2</ele>
        <time>2015-02-22T11:52:02Z</time>
      </trkpt>
      <trkpt lat="40.464527" lon="-2.752478">
        <ele>965.1</ele>
        <time>2015-02-22T11:52:04Z</time>
      </trkpt>
      <trkpt lat="40.464652" lon="-2.752343">
        <ele>964.4</ele>
        <time>2015-02-22T11:52:06Z</time>
      </trkpt>
      <trkpt lat="40.464780" lon="-2.752192">
        <ele>963.6</ele>
        <time>2015-02-22T11:52:08Z</time>
      </trkpt>
      <trkpt lat="40.464905" lon="-2.752021">
        <ele>962.2</ele>
        <time>2015-02-22T11:52:10Z</time>
      </trkpt>
      <trkpt lat="40.465027" lon="-2.751855">
        <ele>960.5</ele>
        <time>2015-02-22T11:52:12Z</time>
      </trkpt>
      <trkpt lat="40.465127" lon="-2.751683">
        <ele>958.5</ele>
        <time>2015-02-22T11:52:14Z</time>
      </trkpt>
      <trkpt lat="40.465209" lon="-2.751556">
        <ele>957.5</ele>
        <time>2015-02-22T11:52:16Z</time>
      </trkpt>
      <trkpt lat="40.465298" lon="-2.751487">
        <ele>957.5</ele>
        <time>2015-02-22T11:52:18Z</time>
      </trkpt>
      <trkpt lat="40.465395" lon="-2.751405">
        <ele>957.1</ele>
        <time>2015-02-22T11:52:20Z</time>
      </trkpt>
      <trkpt lat="40.465503" lon="-2.751318">
        <ele>956.8</ele>
        <time>2015-02-22T11:52:22Z</time>
      </trkpt>
      <trkpt lat="40.465598" lon="-2.751203">
        <ele>955.9</ele>
        <time>2015-02-22T11:52:24Z</time>
      </trkpt>
      <trkpt lat="40.465684" lon="-2.751047">
        <ele>954.3</ele>
        <time>2015-02-22T11:52:26Z</time>
      </trkpt>
      <trkpt lat="40.465765" lon="-2.750875">
        <ele>952.4</ele>
        <time>2015-02-22T11:52:28Z</time>
      </trkpt>
      <trkpt lat="40.465838" lon="-2.750713">
        <ele>951.0</ele>
        <time>2015-02-22T11:52:30Z</time>
      </trkpt>
      <trkpt lat="40.465900" lon="-2.750585">
        <ele>949.7</ele>
        <time>2015-02-22T11:52:32Z</time>
      </trkpt>
      <trkpt lat="40.465965" lon="-2.750498">
        <ele>948.9</ele>
        <time>2015-02-22T11:52:34Z</time>
      </trkpt>
      <trkpt lat="40.466062" lon="-2.750408">
        <ele>947.8</ele>
        <time>2015-02-22T11:52:37Z</time>
      </trkpt>
      <trkpt lat="40.466165" lon="-2.750315">
        <ele>946.7</ele>
        <time>2015-02-22T11:52:40Z</time>
      </trkpt>
      <trkpt lat="40.466268" lon="-2.750210">
        <ele>945.3</ele>
        <time>2015-02-22T11:52:43Z</time>
      </trkpt>
      <trkpt lat="40.466344" lon="-2.750125">
        <ele>944.3</ele>
        <time>2015-02-22T11:52:45Z</time>
      </trkpt>
      <trkpt lat="40.466450" lon="-2.750038">
        <ele>943.1</ele>
        <time>2015-02-22T11:52:48Z</time>
      </trkpt>
      <trkpt lat="40.466555" lon="-2.749985">
        <ele>942.3</ele>
        <time>2015-02-22T11:52:51Z</time>
      </trkpt>
      <trkpt lat="40.466655" lon="-2.749958">
        <ele>941.9</ele>
        <time>2015-02-22T11:52:54Z</time>
      </trkpt>
      <trkpt lat="40.466757" lon="-2.749947">
        <ele>941.9</ele>
        <time>2015-02-22T11:52:57Z</time>
      </trkpt>
      <trkpt lat="40.466870" lon="-2.749935">
        <ele>942.0</ele>
        <time>2015-02-22T11:53:00Z</time>
      </trkpt>
      <trkpt lat="40.466980" lon="-2.749928">
        <ele>942.1</ele>
        <time>2015-02-22T11:53:03Z</time>
      </trkpt>
      <trkpt lat="40.467082" lon="-2.749903">
        <ele>942.0</ele>
        <time>2015-02-22T11:53:07Z</time>
      </trkpt>
      <trkpt lat="40.467167" lon="-2.749807">
        <ele>941.5</ele>
        <time>2015-02-22T11:53:11Z</time>
      </trkpt>
      <trkpt lat="40.467214" lon="-2.749702">
        <ele>940.9</ele>
        <time>2015-02-22T11:53:14Z</time>
      </trkpt>
      <trkpt lat="40.467265" lon="-2.749598">
        <ele>940.2</ele>
        <time>2015-02-22T11:53:17Z</time>
      </trkpt>
      <trkpt lat="40.467329" lon="-2.749503">
        <ele>939.6</ele>
        <time>2015-02-22T11:53:21Z</time>
      </trkpt>
      <trkpt lat="40.467410" lon="-2.749408">
        <ele>938.9</ele>
        <time>2015-02-22T11:53:25Z</time>
      </trkpt>
      <trkpt lat="40.467500" lon="-2.749308">
        <ele>938.0</ele>
        <time>2015-02-22T11:53:29Z</time>
      </trkpt>
      <trkpt lat="40.467603" lon="-2.749293">
        <ele>938.0</ele>
        <time>2015-02-22T11:53:33Z</time>
      </trkpt>
      <trkpt lat="40.467699" lon="-2.749277">
        <ele>938.0</ele>
        <time>2015-02-22T11:53:36Z</time>
      </trkpt>
      <trkpt lat="40.467794" lon="-2.749278">
        <ele>938.0</ele>
        <time>2015-02-22T11:53:39Z</time>
      </trkpt>
      <trkpt lat="40.467890" lon="-2.749290">
        <ele>938.2</ele>
        <time>2015-02-22T11:53:42Z</time>
      </trkpt>
      <trkpt lat="40.467989" lon="-2.749305">
        <ele>938.4</ele>
        <time>2015-02-22T11:53:45Z</time>
      </trkpt>
      <trkpt lat="40.468082" lon="-2.749288">
        <ele>938.4</ele>
        <time>2015-02-22T11:53:48Z</time>
      </trkpt>
      <trkpt lat="40.468180" lon="-2.749247">
        <ele>937.9</ele>
        <time>2015-02-22T11:53:51Z</time>
      </trkpt>
      <trkpt lat="40.468287" lon="-2.749177">
        <ele>937.2</ele>
        <time>2015-02-22T11:53:54Z</time>
      </trkpt>
      <trkpt lat="40.468383" lon="-2.749118">
        <ele>937.6</ele>
        <time>2015-02-22T11:53:57Z</time>
      </trkpt>
      <trkpt lat="40.468460" lon="-2.749048">
        <ele>938.6</ele>
        <time>2015-02-22T11:54:01Z</time>
      </trkpt>
      <trkpt lat="40.468570" lon="-2.748993">
        <ele>940.0</ele>
        <time>2015-02-22T11:54:06Z</time>
      </trkpt>
      <trkpt lat="40.468635" lon="-2.748908">
        <ele>940.9</ele>
        <time>2015-02-22T11:54:09Z</time>
      </trkpt>
      <trkpt lat="40.468743" lon="-2.748852">
        <ele>942.4</ele>
        <time>2015-02-22T11:54:12Z</time>
      </trkpt>
      <trkpt lat="40.468860" lon="-2.748788">
        <ele>944.1</ele>
        <time>2015-02-22T11:54:15Z</time>
      </trkpt>
      <trkpt lat="40.468958" lon="-2.748715">
        <ele>945.5</ele>
        <time>2015-02-22T11:54:18Z</time>
      </trkpt>
      <trkpt lat="40.469039" lon="-2.748613">
        <ele>946.8</ele>
        <time>2015-02-22T11:54:21Z</time>
      </trkpt>
      <trkpt lat="40.469117" lon="-2.748510">
        <ele>948.0</ele>
        <time>2015-02-22T11:54:25Z</time>
      </trkpt>
      <trkpt lat="40.469190" lon="-2.748421">
        <ele>949.1</ele>
        <time>2015-02-22T11:54:29Z</time>
      </trkpt>
      <trkpt lat="40.469269" lon="-2.748333">
        <ele>949.9</ele>
        <time>2015-02-22T11:54:33Z</time>
      </trkpt>
      <trkpt lat="40.469359" lon="-2.748265">
        <ele>949.5</ele>
        <time>2015-02-22T11:54:37Z</time>
      </trkpt>
      <trkpt lat="40.469450" lon="-2.748205">
        <ele>949.1</ele>
        <time>2015-02-22T11:54:42Z</time>
      </trkpt>
      <trkpt lat="40.469535" lon="-2.748140">
        <ele>948.8</ele>
        <time>2015-02-22T11:54:47Z</time>
      </trkpt>
      <trkpt lat="40.469603" lon="-2.748045">
        <ele>947.9</ele>
        <time>2015-02-22T11:54:51Z</time>
      </trkpt>
      <trkpt lat="40.469639" lon="-2.747920">
        <ele>946.2</ele>
        <time>2015-02-22T11:54:54Z</time>
      </trkpt>
      <trkpt lat="40.469645" lon="-2.747773">
        <ele>943.7</ele>
        <time>2015-02-22T11:54:58Z</time>
      </trkpt>
      <trkpt lat="40.469710" lon="-2.747671">
        <ele>942.7</ele>
        <time>2015-02-22T11:55:01Z</time>
      </trkpt>
      <trkpt lat="40.469804" lon="-2.747577">
        <ele>942.2</ele>
        <time>2015-02-22T11:55:04Z</time>
      </trkpt>
      <trkpt lat="40.469897" lon="-2.747528">
        <ele>942.3</ele>
        <time>2015-02-22T11:55:06Z</time>
      </trkpt>
      <trkpt lat="40.469999" lon="-2.747488">
        <ele>942.8</ele>
        <time>2015-02-22T11:55:08Z</time>
      </trkpt>
      <trkpt lat="40.470110" lon="-2.747443">
        <ele>944.1</ele>
        <time>2015-02-22T11:55:10Z</time>
      </trkpt>
      <trkpt lat="40.470222" lon="-2.747411">
        <ele>945.5</ele>
        <time>2015-02-22T11:55:12Z</time>
      </trkpt>
      <trkpt lat="40.470329" lon="-2.747381">
        <ele>946.8</ele>
        <time>2015-02-22T11:55:14Z</time>
      </trkpt>
      <trkpt lat="40.470425" lon="-2.747347">
        <ele>948.1</ele>
        <time>2015-02-22T11:55:16Z</time>
      </trkpt>
      <trkpt lat="40.470562" lon="-2.747271">
        <ele>949.4</ele>
        <time>2015-02-22T11:55:19Z</time>
      </trkpt>
      <trkpt lat="40.470662" lon="-2.747200">
        <ele>950.1</ele>
        <time>2015-02-22T11:55:23Z</time>
      </trkpt>
      <trkpt lat="40.470741" lon="-2.747123">
        <ele>950.4</ele>
        <time>2015-02-22T11:55:48Z</time>
      </trkpt>
      <trkpt lat="40.470837" lon="-2.747002">
        <ele>950.5</ele>
        <time>2015-02-22T11:55:52Z</time>
      </trkpt>
      <trkpt lat="40.470935" lon="-2.746837">
        <ele>948.8</ele>
        <time>2015-02-22T11:55:56Z</time>
      </trkpt>
      <trkpt lat="40.471016" lon="-2.746646">
        <ele>946.5</ele>
        <time>2015-02-22T11:56:00Z</time>
      </trkpt>
      <trkpt lat="40.471087" lon="-2.746483">
        <ele>944.2</ele>
        <time>2015-02-22T11:56:04Z</time>
      </trkpt>
      <trkpt lat="40.471169" lon="-2.746333">
        <ele>942.2</ele>
        <time>2015-02-22T11:56:08Z</time>
      </trkpt>
      <trkpt lat="40.471272" lon="-2.746176">
        <ele>940.0</ele>
        <time>2015-02-22T11:56:12Z</time>
      </trkpt>
      <trkpt lat="40.471337" lon="-2.746068">
        <ele>938.3</ele>
        <time>2015-02-22T11:56:15Z</time>
      </trkpt>
      <trkpt lat="40.471394" lon="-2.745965">
        <ele>936.8</ele>
        <time>2015-02-22T11:56:17Z</time>
      </trkpt>
      <trkpt lat="40.471449" lon="-2.745870">
        <ele>935.4</ele>
        <time>2015-02-22T11:56:19Z</time>
      </trkpt>
      <trkpt lat="40.471515" lon="-2.745717">
        <ele>934.0</ele>
        <time>2015-02-22T11:56:22Z</time>
      </trkpt>
      <trkpt lat="40.471584" lon="-2.745567">
        <ele>933.0</ele>
        <time>2015-02-22T11:56:25Z</time>
      </trkpt>
      <trkpt lat="40.471660" lon="-2.745428">
        <ele>932.1</ele>
        <time>2015-02-22T11:56:28Z</time>
      </trkpt>
      <trkpt lat="40.471742" lon="-2.745300">
        <ele>930.8</ele>
        <time>2015-02-22T11:56:31Z</time>
      </trkpt>
      <trkpt lat="40.471832" lon="-2.745188">
        <ele>929.3</ele>
        <time>2015-02-22T11:56:34Z</time>
      </trkpt>
      <trkpt lat="40.471930" lon="-2.745108">
        <ele>927.8</ele>
        <time>2015-02-22T11:56:37Z</time>
      </trkpt>
      <trkpt lat="40.472029" lon="-2.745035">
        <ele>926.0</ele>
        <time>2015-02-22T11:56:40Z</time>
      </trkpt>
      <trkpt lat="40.472134" lon="-2.745008">
        <ele>924.7</ele>
        <time>2015-02-22T11:56:44Z</time>
      </trkpt>
      <trkpt lat="40.472230" lon="-2.744996">
        <ele>923.6</ele>
        <time>2015-02-22T11:56:47Z</time>
      </trkpt>
      <trkpt lat="40.472332" lon="-2.744978">
        <ele>922.4</ele>
        <time>2015-02-22T11:56:50Z</time>
      </trkpt>
      <trkpt lat="40.472430" lon="-2.744866">
        <ele>920.1</ele>
        <time>2015-02-22T11:56:53Z</time>
      </trkpt>
      <trkpt lat="40.472505" lon="-2.744787">
        <ele>918.5</ele>
        <time>2015-02-22T11:56:55Z</time>
      </trkpt>
      <trkpt lat="40.472584" lon="-2.744712">
        <ele>917.3</ele>
        <time>2015-02-22T11:56:57Z</time>
      </trkpt>
      <trkpt lat="40.472655" lon="-2.744640">
        <ele>916.3</ele>
        <time>2015-02-22T11:56:59Z</time>
      </trkpt>
      <trkpt lat="40.472729" lon="-2.744550">
        <ele>914.8</ele>
        <time>2015-02-22T11:57:01Z</time>
      </trkpt>
      <trkpt lat="40.472822" lon="-2.744482">
        <ele>913.6</ele>
        <time>2015-02-22T11:57:04Z</time>
      </trkpt>
      <trkpt lat="40.472912" lon="-2.744391">
        <ele>911.9</ele>
        <time>2015-02-22T11:57:07Z</time>
      </trkpt>
      <trkpt lat="40.472990" lon="-2.744275">
        <ele>909.8</ele>
        <time>2015-02-22T11:57:09Z</time>
      </trkpt>
      <trkpt lat="40.473078" lon="-2.744171">
        <ele>907.7</ele>
        <time>2015-02-22T11:57:11Z</time>
      </trkpt>
      <trkpt lat="40.473157" lon="-2.744110">
        <ele>906.3</ele>
        <time>2015-02-22T11:57:13Z</time>
      </trkpt>
      <trkpt lat="40.473270" lon="-2.744090">
        <ele>905.1</ele>
        <time>2015-02-22T11:57:16Z</time>
      </trkpt>
      <trkpt lat="40.473355" lon="-2.743945">
        <ele>902.5</ele>
        <time>2015-02-22T11:57:19Z</time>
      </trkpt>
      <trkpt lat="40.473427" lon="-2.743850">
        <ele>901.5</ele>
        <time>2015-02-22T11:57:21Z</time>
      </trkpt>
      <trkpt lat="40.473500" lon="-2.743767">
        <ele>900.8</ele>
        <time>2015-02-22T11:57:23Z</time>
      </trkpt>
      <trkpt lat="40.473614" lon="-2.743696">
        <ele>900.5</ele>
        <time>2015-02-22T11:57:26Z</time>
      </trkpt>
      <trkpt lat="40.473729" lon="-2.743711">
        <ele>901.7</ele>
        <time>2015-02-22T11:57:29Z</time>
      </trkpt>
      <trkpt lat="40.473827" lon="-2.743696">
        <ele>902.3</ele>
        <time>2015-02-22T11:57:31Z</time>
      </trkpt>
      <trkpt lat="40.473945" lon="-2.743618">
        <ele>902.0</ele>
        <time>2015-02-22T11:57:33Z</time>
      </trkpt>
      <trkpt lat="40.474055" lon="-2.743527">
        <ele>901.4</ele>
        <time>2015-02-22T11:57:35Z</time>
      </trkpt>
      <trkpt lat="40.474142" lon="-2.743435">
        <ele>900.6</ele>
        <time>2015-02-22T11:57:37Z</time>
      </trkpt>
      <trkpt lat="40.474215" lon="-2.743326">
        <ele>899.3</ele>
        <time>2015-02-22T11:57:39Z</time>
      </trkpt>
      <trkpt lat="40.474293" lon="-2.743228">
        <ele>898.1</ele>
        <time>2015-02-22T11:57:41Z</time>
      </trkpt>
      <trkpt lat="40.474369" lon="-2.743122">
        <ele>896.9</ele>
        <time>2015-02-22T11:57:43Z</time>
      </trkpt>
      <trkpt lat="40.474415" lon="-2.742998">
        <ele>895.4</ele>
        <time>2015-02-22T11:57:45Z</time>
      </trkpt>
      <trkpt lat="40.474433" lon="-2.742863">
        <ele>893.3</ele>
        <time>2015-02-22T11:57:47Z</time>
      </trkpt>
      <trkpt lat="40.474415" lon="-2.742743">
        <ele>891.3</ele>
        <time>2015-02-22T11:57:49Z</time>
      </trkpt>
      <trkpt lat="40.474400" lon="-2.742616">
        <ele>889.1</ele>
        <time>2015-02-22T11:57:52Z</time>
      </trkpt>
      <trkpt lat="40.474320" lon="-2.742483">
        <ele>886.3</ele>
        <time>2015-02-22T11:57:56Z</time>
      </trkpt>
      <trkpt lat="40.474239" lon="-2.742360">
        <ele>883.8</ele>
        <time>2015-02-22T11:57:59Z</time>
      </trkpt>
      <trkpt lat="40.474169" lon="-2.742265">
        <ele>881.7</ele>
        <time>2015-02-22T11:58:02Z</time>
      </trkpt>
      <trkpt lat="40.474102" lon="-2.742115">
        <ele>879.0</ele>
        <time>2015-02-22T11:58:05Z</time>
      </trkpt>
      <trkpt lat="40.474049" lon="-2.742010">
        <ele>876.9</ele>
        <time>2015-02-22T11:58:07Z</time>
      </trkpt>
      <trkpt lat="40.474009" lon="-2.741853">
        <ele>874.1</ele>
        <time>2015-02-22T11:58:10Z</time>
      </trkpt>
      <trkpt lat="40.473944" lon="-2.741710">
        <ele>871.2</ele>
        <time>2015-02-22T11:58:13Z</time>
      </trkpt>
      <trkpt lat="40.473870" lon="-2.741616">
        <ele>868.2</ele>
        <time>2015-02-22T11:58:15Z</time>
      </trkpt>
      <trkpt lat="40.473788" lon="-2.741503">
        <ele>865.0</ele>
        <time>2015-02-22T11:58:17Z</time>
      </trkpt>
      <trkpt lat="40.473727" lon="-2.741338">
        <ele>860.6</ele>
        <time>2015-02-22T11:58:19Z</time>
      </trkpt>
      <trkpt lat="40.473672" lon="-2.741186">
        <ele>856.6</ele>
        <time>2015-02-22T11:58:21Z</time>
      </trkpt>
      <trkpt lat="40.473610" lon="-2.741063">
        <ele>853.6</ele>
        <time>2015-02-22T11:58:23Z</time>
      </trkpt>
      <trkpt lat="40.473567" lon="-2.740953">
        <ele>851.1</ele>
        <time>2015-02-22T11:58:25Z</time>
      </trkpt>
      <trkpt lat="40.473599" lon="-2.740782">
        <ele>847.8</ele>
        <time>2015-02-22T11:58:28Z</time>
      </trkpt>
      <trkpt lat="40.473648" lon="-2.740657">
        <ele>846.2</ele>
        <time>2015-02-22T11:58:30Z</time>
      </trkpt>
      <trkpt lat="40.473725" lon="-2.740516">
        <ele>844.3</ele>
        <time>2015-02-22T11:58:32Z</time>
      </trkpt>
      <trkpt lat="40.473790" lon="-2.740371">
        <ele>842.3</ele>
        <time>2015-02-22T11:58:34Z</time>
      </trkpt>
      <trkpt lat="40.473834" lon="-2.740248">
        <ele>840.3</ele>
        <time>2015-02-22T11:58:36Z</time>
      </trkpt>
      <trkpt lat="40.473862" lon="-2.740078">
        <ele>837.6</ele>
        <time>2015-02-22T11:58:39Z</time>
      </trkpt>
      <trkpt lat="40.473880" lon="-2.739903">
        <ele>834.5</ele>
        <time>2015-02-22T11:58:42Z</time>
      </trkpt>
      <trkpt lat="40.473932" lon="-2.739783">
        <ele>832.2</ele>
        <time>2015-02-22T11:58:45Z</time>
      </trkpt>
      <trkpt lat="40.474024" lon="-2.739783">
        <ele>832.3</ele>
        <time>2015-02-22T11:58:47Z</time>
      </trkpt>
      <trkpt lat="40.474147" lon="-2.739805">
        <ele>832.8</ele>
        <time>2015-02-22T11:58:49Z</time>
      </trkpt>
      <trkpt lat="40.474254" lon="-2.739808">
        <ele>833.3</ele>
        <time>2015-02-22T11:58:51Z</time>
      </trkpt>
      <trkpt lat="40.474340" lon="-2.739720">
        <ele>831.6</ele>
        <time>2015-02-22T11:58:54Z</time>
      </trkpt>
      <trkpt lat="40.474343" lon="-2.739590">
        <ele>828.7</ele>
        <time>2015-02-22T11:58:56Z</time>
      </trkpt>
      <trkpt lat="40.474355" lon="-2.739440">
        <ele>825.3</ele>
        <time>2015-02-22T11:58:58Z</time>
      </trkpt>
      <trkpt lat="40.474400" lon="-2.739278">
        <ele>821.9</ele>
        <time>2015-02-22T11:59:00Z</time>
      </trkpt>
      <trkpt lat="40.474484" lon="-2.739143">
        <ele>819.2</ele>
        <time>2015-02-22T11:59:02Z</time>
      </trkpt>
      <trkpt lat="40.474599" lon="-2.739028">
        <ele>817.2</ele>
        <time>2015-02-22T11:59:04Z</time>
      </trkpt>
      <trkpt lat="40.474705" lon="-2.738923">
        <ele>815.4</ele>
        <time>2015-02-22T11:59:06Z</time>
      </trkpt>
      <trkpt lat="40.474799" lon="-2.738798">
        <ele>812.9</ele>
        <time>2015-02-22T11:59:08Z</time>
      </trkpt>
      <trkpt lat="40.474897" lon="-2.738630">
        <ele>809.4</ele>
        <time>2015-02-22T11:59:10Z</time>
      </trkpt>
      <trkpt lat="40.475005" lon="-2.738450">
        <ele>805.4</ele>
        <time>2015-02-22T11:59:12Z</time>
      </trkpt>
      <trkpt lat="40.475085" lon="-2.738251">
        <ele>801.8</ele>
        <time>2015-02-22T11:59:14Z</time>
      </trkpt>
      <trkpt lat="40.475132" lon="-2.738040">
        <ele>798.8</ele>
        <time>2015-02-22T11:59:16Z</time>
      </trkpt>
      <trkpt lat="40.475159" lon="-2.737808">
        <ele>795.4</ele>
        <time>2015-02-22T11:59:18Z</time>
      </trkpt>
      <trkpt lat="40.475172" lon="-2.737690">
        <ele>793.7</ele>
        <time>2015-02-22T11:59:19Z</time>
      </trkpt>
      <trkpt lat="40.475188" lon="-2.737466">
        <ele>790.7</ele>
        <time>2015-02-22T11:59:21Z</time>
      </trkpt>
      <trkpt lat="40.475208" lon="-2.737251">
        <ele>789.1</ele>
        <time>2015-02-22T11:59:23Z</time>
      </trkpt>
      <trkpt lat="40.475252" lon="-2.737038">
        <ele>787.5</ele>
        <time>2015-02-22T11:59:25Z</time>
      </trkpt>
      <trkpt lat="40.475325" lon="-2.736847">
        <ele>785.7</ele>
        <time>2015-02-22T11:59:27Z</time>
      </trkpt>
      <trkpt lat="40.475430" lon="-2.736671">
        <ele>783.6</ele>
        <time>2015-02-22T11:59:29Z</time>
      </trkpt>
      <trkpt lat="40.475545" lon="-2.736503">
        <ele>781.5</ele>
        <time>2015-02-22T11:59:31Z</time>
      </trkpt>
      <trkpt lat="40.475655" lon="-2.736358">
        <ele>779.5</ele>
        <time>2015-02-22T11:59:33Z</time>
      </trkpt>
      <trkpt lat="40.475753" lon="-2.736233">
        <ele>777.5</ele>
        <time>2015-02-22T11:59:35Z</time>
      </trkpt>
      <trkpt lat="40.475848" lon="-2.736118">
        <ele>775.7</ele>
        <time>2015-02-22T11:59:37Z</time>
      </trkpt>
      <trkpt lat="40.475925" lon="-2.736005">
        <ele>774.1</ele>
        <time>2015-02-22T11:59:39Z</time>
      </trkpt>
      <trkpt lat="40.475988" lon="-2.735893">
        <ele>772.5</ele>
        <time>2015-02-22T11:59:41Z</time>
      </trkpt>
      <trkpt lat="40.476057" lon="-2.735773">
        <ele>771.0</ele>
        <time>2015-02-22T11:59:43Z</time>
      </trkpt>
      <trkpt lat="40.476147" lon="-2.735668">
        <ele>769.5</ele>
        <time>2015-02-22T11:59:45Z</time>
      </trkpt>
      <trkpt lat="40.476235" lon="-2.735585">
        <ele>768.2</ele>
        <time>2015-02-22T11:59:47Z</time>
      </trkpt>
      <trkpt lat="40.476320" lon="-2.735515">
        <ele>767.0</ele>
        <time>2015-02-22T11:59:49Z</time>
      </trkpt>
      <trkpt lat="40.476402" lon="-2.735441">
        <ele>765.8</ele>
        <time>2015-02-22T11:59:51Z</time>
      </trkpt>
      <trkpt lat="40.476468" lon="-2.735332">
        <ele>764.4</ele>
        <time>2015-02-22T11:59:53Z</time>
      </trkpt>
      <trkpt lat="40.476522" lon="-2.735177">
        <ele>762.7</ele>
        <time>2015-02-22T11:59:55Z</time>
      </trkpt>
      <trkpt lat="40.476578" lon="-2.734987">
        <ele>760.7</ele>
        <time>2015-02-22T11:59:57Z</time>
      </trkpt>
      <trkpt lat="40.476680" lon="-2.734791">
        <ele>759.9</ele>
        <time>2015-02-22T11:59:59Z</time>
      </trkpt>
      <trkpt lat="40.476747" lon="-2.734696">
        <ele>759.6</ele>
        <time>2015-02-22T12:00:00Z</time>
      </trkpt>
      <trkpt lat="40.476820" lon="-2.734603">
        <ele>759.2</ele>
        <time>2015-02-22T12:00:01Z</time>
      </trkpt>
      <trkpt lat="40.476897" lon="-2.734517">
        <ele>758.7</ele>
        <time>2015-02-22T12:00:02Z</time>
      </trkpt>
      <trkpt lat="40.476975" lon="-2.734438">
        <ele>758.3</ele>
        <time>2015-02-22T12:00:03Z</time>
      </trkpt>
      <trkpt lat="40.477050" lon="-2.734361">
        <ele>757.8</ele>
        <time>2015-02-22T12:00:04Z</time>
      </trkpt>
      <trkpt lat="40.477127" lon="-2.734290">
        <ele>757.3</ele>
        <time>2015-02-22T12:00:05Z</time>
      </trkpt>
      <trkpt lat="40.477205" lon="-2.734225">
        <ele>756.8</ele>
        <time>2015-02-22T12:00:06Z</time>
      </trkpt>
      <trkpt lat="40.477285" lon="-2.734163">
        <ele>756.3</ele>
        <time>2015-02-22T12:00:07Z</time>
      </trkpt>
      <trkpt lat="40.477369" lon="-2.734105">
        <ele>755.6</ele>
        <time>2015-02-22T12:00:08Z</time>
      </trkpt>
      <trkpt lat="40.477453" lon="-2.734050">
        <ele>754.8</ele>
        <time>2015-02-22T12:00:09Z</time>
      </trkpt>
      <trkpt lat="40.477537" lon="-2.733991">
        <ele>754.3</ele>
        <time>2015-02-22T12:00:10Z</time>
      </trkpt>
      <trkpt lat="40.477622" lon="-2.733920">
        <ele>753.9</ele>
        <time>2015-02-22T12:00:11Z</time>
      </trkpt>
      <trkpt lat="40.477702" lon="-2.733838">
        <ele>753.5</ele>
        <time>2015-02-22T12:00:12Z</time>
      </trkpt>
      <trkpt lat="40.477767" lon="-2.733752">
        <ele>753.2</ele>
        <time>2015-02-22T12:00:13Z</time>
      </trkpt>
      <trkpt lat="40.477872" lon="-2.733580">
        <ele>752.6</ele>
        <time>2015-02-22T12:00:15Z</time>
      </trkpt>
      <trkpt lat="40.477960" lon="-2.733430">
        <ele>752.2</ele>
        <time>2015-02-22T12:00:17Z</time>
      </trkpt>
      <trkpt lat="40.478044" lon="-2.733305">
        <ele>751.8</ele>
        <time>2015-02-22T12:00:19Z</time>
      </trkpt>
      <trkpt lat="40.478108" lon="-2.733211">
        <ele>751.2</ele>
        <time>2015-02-22T12:00:21Z</time>
      </trkpt>
      <trkpt lat="40.478142" lon="-2.733098">
        <ele>750.4</ele>
        <time>2015-02-22T12:00:24Z</time>
      </trkpt>
      <trkpt lat="40.478038" lon="-2.733038">
        <ele>750.2</ele>
        <time>2015-02-22T12:00:27Z</time>
      </trkpt>
      <trkpt lat="40.477923" lon="-2.732953">
        <ele>749.7</ele>
        <time>2015-02-22T12:00:30Z</time>
      </trkpt>
      <trkpt lat="40.477887" lon="-2.732845">
        <ele>749.2</ele>
        <time>2015-02-22T12:00:32Z</time>
      </trkpt>
      <trkpt lat="40.477862" lon="-2.732702">
        <ele>748.3</ele>
        <time>2015-02-22T12:00:34Z</time>
      </trkpt>
      <trkpt lat="40.477844" lon="-2.732538">
        <ele>747.4</ele>
        <time>2015-02-22T12:00:36Z</time>
      </trkpt>
      <trkpt lat="40.477829" lon="-2.732367">
        <ele>746.2</ele>
        <time>2015-02-22T12:00:38Z</time>
      </trkpt>
      <trkpt lat="40.477815" lon="-2.732193">
        <ele>744.8</ele>
        <time>2015-02-22T12:00:40Z</time>
      </trkpt>
      <trkpt lat="40.477800" lon="-2.732031">
        <ele>743.5</ele>
        <time>2015-02-22T12:00:42Z</time>
      </trkpt>
      <trkpt lat="40.477770" lon="-2.731886">
        <ele>742.5</ele>
        <time>2015-02-22T12:00:44Z</time>
      </trkpt>
      <trkpt lat="40.477709" lon="-2.731788">
        <ele>742.0</ele>
        <time>2015-02-22T12:00:46Z</time>
      </trkpt>
      <trkpt lat="40.477602" lon="-2.731761">
        <ele>742.3</ele>
        <time>2015-02-22T12:00:48Z</time>
      </trkpt>
      <trkpt lat="40.477497" lon="-2.731766">
        <ele>742.8</ele>
        <time>2015-02-22T12:00:50Z</time>
      </trkpt>
      <trkpt lat="40.477385" lon="-2.731751">
        <ele>742.8</ele>
        <time>2015-02-22T12:00:52Z</time>
      </trkpt>
      <trkpt lat="40.477259" lon="-2.731713">
        <ele>742.6</ele>
        <time>2015-02-22T12:00:54Z</time>
      </trkpt>
      <trkpt lat="40.477128" lon="-2.731675">
        <ele>742.5</ele>
        <time>2015-02-22T12:00:56Z</time>
      </trkpt>
      <trkpt lat="40.476995" lon="-2.731638">
        <ele>742.5</ele>
        <time>2015-02-22T12:00:58Z</time>
      </trkpt>
      <trkpt lat="40.476868" lon="-2.731597">
        <ele>742.5</ele>
        <time>2015-02-22T12:01:00Z</time>
      </trkpt>
      <trkpt lat="40.476750" lon="-2.731541">
        <ele>742.4</ele>
        <time>2015-02-22T12:01:02Z</time>
      </trkpt>
      <trkpt lat="40.476643" lon="-2.731487">
        <ele>742.1</ele>
        <time>2015-02-22T12:01:04Z</time>
      </trkpt>
      <trkpt lat="40.476547" lon="-2.731433">
        <ele>741.8</ele>
        <time>2015-02-22T12:01:06Z</time>
      </trkpt>
      <trkpt lat="40.476448" lon="-2.731383">
        <ele>741.5</ele>
        <time>2015-02-22T12:01:08Z</time>
      </trkpt>
      <trkpt lat="40.476345" lon="-2.731328">
        <ele>741.1</ele>
        <time>2015-02-22T12:01:10Z</time>
      </trkpt>
      <trkpt lat="40.476237" lon="-2.731278">
        <ele>740.9</ele>
        <time>2015-02-22T12:01:12Z</time>
      </trkpt>
      <trkpt lat="40.476128" lon="-2.731228">
        <ele>740.6</ele>
        <time>2015-02-22T12:01:14Z</time>
      </trkpt>
      <trkpt lat="40.476022" lon="-2.731172">
        <ele>740.3</ele>
        <time>2015-02-22T12:01:16Z</time>
      </trkpt>
      <trkpt lat="40.475915" lon="-2.731113">
        <ele>740.1</ele>
        <time>2015-02-22T12:01:18Z</time>
      </trkpt>
      <trkpt lat="40.475812" lon="-2.731057">
        <ele>739.9</ele>
        <time>2015-02-22T12:01:20Z</time>
      </trkpt>
      <trkpt lat="40.475714" lon="-2.730998">
        <ele>740.3</ele>
        <time>2015-02-22T12:01:22Z</time>
      </trkpt>
      <trkpt lat="40.475625" lon="-2.730952">
        <ele>740.6</ele>
        <time>2015-02-22T12:01:24Z</time>
      </trkpt>
      <trkpt lat="40.475499" lon="-2.730900">
        <ele>741.2</ele>
        <time>2015-02-22T12:01:27Z</time>
      </trkpt>
      <trkpt lat="40.475385" lon="-2.730845">
        <ele>741.7</ele>
        <time>2015-02-22T12:01:30Z</time>
      </trkpt>
      <trkpt lat="40.475269" lon="-2.730783">
        <ele>742.2</ele>
        <time>2015-02-22T12:01:33Z</time>
      </trkpt>
      <trkpt lat="40.475137" lon="-2.730742">
        <ele>742.8</ele>
        <time>2015-02-22T12:01:36Z</time>
      </trkpt>
      <trkpt lat="40.475020" lon="-2.730707">
        <ele>743.3</ele>
        <time>2015-02-22T12:01:39Z</time>
      </trkpt>
      <trkpt lat="40.474915" lon="-2.730685">
        <ele>743.6</ele>
        <time>2015-02-22T12:01:42Z</time>
      </trkpt>
      <trkpt lat="40.474807" lon="-2.730670">
        <ele>744.0</ele>
        <time>2015-02-22T12:01:45Z</time>
      </trkpt>
      <trkpt lat="40.474695" lon="-2.730655">
        <ele>744.4</ele>
        <time>2015-02-22T12:01:48Z</time>
      </trkpt>
      <trkpt lat="40.474585" lon="-2.730628">
        <ele>744.7</ele>
        <time>2015-02-22T12:01:51Z</time>
      </trkpt>
      <trkpt lat="40.474459" lon="-2.730592">
        <ele>745.0</ele>
        <time>2015-02-22T12:01:54Z</time>
      </trkpt>
      <trkpt lat="40.474375" lon="-2.730533">
        <ele>745.1</ele>
        <time>2015-02-22T12:01:56Z</time>
      </trkpt>
      <trkpt lat="40.474293" lon="-2.730446">
        <ele>745.1</ele>
        <time>2015-02-22T12:01:58Z</time>
      </trkpt>
      <trkpt lat="40.474182" lon="-2.730393">
        <ele>745.4</ele>
        <time>2015-02-22T12:02:00Z</time>
      </trkpt>
      <trkpt lat="40.474063" lon="-2.730358">
        <ele>745.6</ele>
        <time>2015-02-22T12:02:02Z</time>
      </trkpt>
      <trkpt lat="40.473945" lon="-2.730316">
        <ele>745.7</ele>
        <time>2015-02-22T12:02:04Z</time>
      </trkpt>
      <trkpt lat="40.473830" lon="-2.730272">
        <ele>745.8</ele>
        <time>2015-02-22T12:02:06Z</time>
      </trkpt>
      <trkpt lat="40.473720" lon="-2.730237">
        <ele>745.9</ele>
        <time>2015-02-22T12:02:08Z</time>
      </trkpt>
      <trkpt lat="40.473604" lon="-2.730208">
        <ele>745.9</ele>
        <time>2015-02-22T12:02:10Z</time>
      </trkpt>
      <trkpt lat="40.473480" lon="-2.730173">
        <ele>746.0</ele>
        <time>2015-02-22T12:02:12Z</time>
      </trkpt>
      <trkpt lat="40.473405" lon="-2.730100">
        <ele>745.6</ele>
        <time>2015-02-22T12:02:14Z</time>
      </trkpt>
      <trkpt lat="40.473403" lon="-2.729971">
        <ele>744.8</ele>
        <time>2015-02-22T12:02:16Z</time>
      </trkpt>
      <trkpt lat="40.473467" lon="-2.729855">
        <ele>744.2</ele>
        <time>2015-02-22T12:02:18Z</time>
      </trkpt>
      <trkpt lat="40.473548" lon="-2.729748">
        <ele>743.6</ele>
        <time>2015-02-22T12:02:20Z</time>
      </trkpt>
      <trkpt lat="40.473625" lon="-2.729641">
        <ele>742.9</ele>
        <time>2015-02-22T12:02:22Z</time>
      </trkpt>
      <trkpt lat="40.473687" lon="-2.729538">
        <ele>742.2</ele>
        <time>2015-02-22T12:02:24Z</time>
      </trkpt>
      <trkpt lat="40.473782" lon="-2.729435">
        <ele>741.4</ele>
        <time>2015-02-22T12:02:27Z</time>
      </trkpt>
      <trkpt lat="40.473895" lon="-2.729401">
        <ele>740.7</ele>
        <time>2015-02-22T12:02:30Z</time>
      </trkpt>
      <trkpt lat="40.474007" lon="-2.729355">
        <ele>740.0</ele>
        <time>2015-02-22T12:02:33Z</time>
      </trkpt>
      <trkpt lat="40.474144" lon="-2.729320">
        <ele>739.2</ele>
        <time>2015-02-22T12:02:36Z</time>
      </trkpt>
      <trkpt lat="40.474252" lon="-2.729286">
        <ele>738.6</ele>
        <time>2015-02-22T12:02:38Z</time>
      </trkpt>
      <trkpt lat="40.474365" lon="-2.729216">
        <ele>737.6</ele>
        <time>2015-02-22T12:02:40Z</time>
      </trkpt>
      <trkpt lat="40.474445" lon="-2.729095">
        <ele>736.9</ele>
        <time>2015-02-22T12:02:42Z</time>
      </trkpt>
      <trkpt lat="40.474500" lon="-2.728955">
        <ele>736.4</ele>
        <time>2015-02-22T12:02:44Z</time>
      </trkpt>
      <trkpt lat="40.474550" lon="-2.728812">
        <ele>736.0</ele>
        <time>2015-02-22T12:02:46Z</time>
      </trkpt>
      <trkpt lat="40.474607" lon="-2.728682">
        <ele>735.6</ele>
        <time>2015-02-22T12:02:48Z</time>
      </trkpt>
      <trkpt lat="40.474695" lon="-2.728602">
        <ele>735.2</ele>
        <time>2015-02-22T12:02:50Z</time>
      </trkpt>
      <trkpt lat="40.474792" lon="-2.728568">
        <ele>734.9</ele>
        <time>2015-02-22T12:02:52Z</time>
      </trkpt>
      <trkpt lat="40.474890" lon="-2.728548">
        <ele>734.6</ele>
        <time>2015-02-22T12:02:54Z</time>
      </trkpt>
      <trkpt lat="40.474990" lon="-2.728555">
        <ele>734.3</ele>
        <time>2015-02-22T12:02:56Z</time>
      </trkpt>
      <trkpt lat="40.475090" lon="-2.728562">
        <ele>734.3</ele>
        <time>2015-02-22T12:02:58Z</time>
      </trkpt>
      <trkpt lat="40.475194" lon="-2.728567">
        <ele>734.3</ele>
        <time>2015-02-22T12:03:00Z</time>
      </trkpt>
      <trkpt lat="40.475297" lon="-2.728550">
        <ele>734.4</ele>
        <time>2015-02-22T12:03:02Z</time>
      </trkpt>
      <trkpt lat="40.475380" lon="-2.728493">
        <ele>734.3</ele>
        <time>2015-02-22T12:03:04Z</time>
      </trkpt>
      <trkpt lat="40.475469" lon="-2.728443">
        <ele>734.2</ele>
        <time>2015-02-22T12:03:06Z</time>
      </trkpt>
      <trkpt lat="40.475577" lon="-2.728408">
        <ele>734.2</ele>
        <time>2015-02-22T12:03:08Z</time>
      </trkpt>
      <trkpt lat="40.475685" lon="-2.728395">
        <ele>734.1</ele>
        <time>2015-02-22T12:03:10Z</time>
      </trkpt>
      <trkpt lat="40.475783" lon="-2.728390">
        <ele>734.2</ele>
        <time>2015-02-22T12:03:12Z</time>
      </trkpt>
      <trkpt lat="40.475905" lon="-2.728398">
        <ele>733.7</ele>
        <time>2015-02-22T12:03:15Z</time>
      </trkpt>
      <trkpt lat="40.476035" lon="-2.728395">
        <ele>732.9</ele>
        <time>2015-02-22T12:03:18Z</time>
      </trkpt>
      <trkpt lat="40.476160" lon="-2.728338">
        <ele>732.1</ele>
        <time>2015-02-22T12:03:21Z</time>
      </trkpt>
      <trkpt lat="40.476279" lon="-2.728267">
        <ele>731.7</ele>
        <time>2015-02-22T12:03:24Z</time>
      </trkpt>
      <trkpt lat="40.476369" lon="-2.728250">
        <ele>731.3</ele>
        <time>2015-02-22T12:03:26Z</time>
      </trkpt>
      <trkpt lat="40.476462" lon="-2.728203">
        <ele>731.2</ele>
        <time>2015-02-22T12:03:28Z</time>
      </trkpt>
      <trkpt lat="40.476553" lon="-2.728152">
        <ele>731.3</ele>
        <time>2015-02-22T12:03:30Z</time>
      </trkpt>
      <trkpt lat="40.476662" lon="-2.728116">
        <ele>731.0</ele>
        <time>2015-02-22T12:03:32Z</time>
      </trkpt>
      <trkpt lat="40.476770" lon="-2.728080">
        <ele>731.4</ele>
        <time>2015-02-22T12:03:34Z</time>
      </trkpt>
      <trkpt lat="40.476862" lon="-2.728023">
        <ele>731.9</ele>
        <time>2015-02-22T12:03:36Z</time>
      </trkpt>
      <trkpt lat="40.476935" lon="-2.727943">
        <ele>732.8</ele>
        <time>2015-02-22T12:03:38Z</time>
      </trkpt>
      <trkpt lat="40.476987" lon="-2.727828">
        <ele>733.8</ele>
        <time>2015-02-22T12:03:40Z</time>
      </trkpt>
      <trkpt lat="40.477042" lon="-2.727707">
        <ele>735.0</ele>
        <time>2015-02-22T12:03:42Z</time>
      </trkpt>
      <trkpt lat="40.477112" lon="-2.727612">
        <ele>735.9</ele>
        <time>2015-02-22T12:03:44Z</time>
      </trkpt>
      <trkpt lat="40.477217" lon="-2.727518">
        <ele>736.8</ele>
        <time>2015-02-22T12:03:47Z</time>
      </trkpt>
      <trkpt lat="40.477300" lon="-2.727443">
        <ele>737.1</ele>
        <time>2015-02-22T12:03:50Z</time>
      </trkpt>
      <trkpt lat="40.477384" lon="-2.727360">
        <ele>737.3</ele>
        <time>2015-02-22T12:03:53Z</time>
      </trkpt>
      <trkpt lat="40.477458" lon="-2.727280">
        <ele>737.5</ele>
        <time>2015-02-22T12:03:56Z</time>
      </trkpt>
      <trkpt lat="40.477537" lon="-2.727203">
        <ele>737.4</ele>
        <time>2015-02-22T12:03:59Z</time>
      </trkpt>
      <trkpt lat="40.477617" lon="-2.727138">
        <ele>737.2</ele>
        <time>2015-02-22T12:04:02Z</time>
      </trkpt>
      <trkpt lat="40.477705" lon="-2.727066">
        <ele>736.9</ele>
        <time>2015-02-22T12:04:06Z</time>
      </trkpt>
      <trkpt lat="40.477765" lon="-2.726950">
        <ele>737.1</ele>
        <time>2015-02-22T12:04:10Z</time>
      </trkpt>
      <trkpt lat="40.477822" lon="-2.726797">
        <ele>737.6</ele>
        <time>2015-02-22T12:04:13Z</time>
      </trkpt>
      <trkpt lat="40.477808" lon="-2.726656">
        <ele>738.3</ele>
        <time>2015-02-22T12:04:15Z</time>
      </trkpt>
      <trkpt lat="40.477760" lon="-2.726508">
        <ele>736.4</ele>
        <time>2015-02-22T12:04:17Z</time>
      </trkpt>
      <trkpt lat="40.477672" lon="-2.726363">
        <ele>734.6</ele>
        <time>2015-02-22T12:04:19Z</time>
      </trkpt>
      <trkpt lat="40.477553" lon="-2.726227">
        <ele>732.8</ele>
        <time>2015-02-22T12:04:21Z</time>
      </trkpt>
      <trkpt lat="40.477442" lon="-2.726068">
        <ele>730.4</ele>
        <time>2015-02-22T12:04:23Z</time>
      </trkpt>
      <trkpt lat="40.477335" lon="-2.725902">
        <ele>728.4</ele>
        <time>2015-02-22T12:04:25Z</time>
      </trkpt>
      <trkpt lat="40.477225" lon="-2.725753">
        <ele>727.6</ele>
        <time>2015-02-22T12:04:27Z</time>
      </trkpt>
      <trkpt lat="40.477118" lon="-2.725615">
        <ele>727.6</ele>
        <time>2015-02-22T12:04:29Z</time>
      </trkpt>
      <trkpt lat="40.477022" lon="-2.725482">
        <ele>727.4</ele>
        <time>2015-02-22T12:04:31Z</time>
      </trkpt>
      <trkpt lat="40.476927" lon="-2.725358">
        <ele>727.2</ele>
        <time>2015-02-22T12:04:33Z</time>
      </trkpt>
      <trkpt lat="40.476834" lon="-2.725258">
        <ele>727.0</ele>
        <time>2015-02-22T12:04:35Z</time>
      </trkpt>
      <trkpt lat="40.476757" lon="-2.725150">
        <ele>726.6</ele>
        <time>2015-02-22T12:04:37Z</time>
      </trkpt>
      <trkpt lat="40.476688" lon="-2.725035">
        <ele>726.2</ele>
        <time>2015-02-22T12:04:39Z</time>
      </trkpt>
      <trkpt lat="40.476617" lon="-2.724918">
        <ele>726.8</ele>
        <time>2015-02-22T12:04:41Z</time>
      </trkpt>
      <trkpt lat="40.476538" lon="-2.724820">
        <ele>727.8</ele>
        <time>2015-02-22T12:04:43Z</time>
      </trkpt>
      <trkpt lat="40.476472" lon="-2.724726">
        <ele>728.8</ele>
        <time>2015-02-22T12:04:45Z</time>
      </trkpt>
      <trkpt lat="40.476385" lon="-2.724423">
        <ele>731.4</ele>
        <time>2015-02-22T12:04:51Z</time>
      </trkpt>
      <trkpt lat="40.476348" lon="-2.724233">
        <ele>732.9</ele>
        <time>2015-02-22T12:04:54Z</time>
      </trkpt>
      <trkpt lat="40.476332" lon="-2.724085">
        <ele>733.9</ele>
        <time>2015-02-22T12:04:57Z</time>
      </trkpt>
      <trkpt lat="40.476314" lon="-2.723931">
        <ele>735.0</ele>
        <time>2015-02-22T12:05:00Z</time>
      </trkpt>
      <trkpt lat="40.476297" lon="-2.723788">
        <ele>735.9</ele>
        <time>2015-02-22T12:05:03Z</time>
      </trkpt>
      <trkpt lat="40.476274" lon="-2.723655">
        <ele>736.7</ele>
        <time>2015-02-22T12:05:06Z</time>
      </trkpt>
      <trkpt lat="40.476257" lon="-2.723533">
        <ele>737.3</ele>
        <time>2015-02-22T12:05:09Z</time>
      </trkpt>
      <trkpt lat="40.476260" lon="-2.723396">
        <ele>738.2</ele>
        <time>2015-02-22T12:05:13Z</time>
      </trkpt>
      <trkpt lat="40.476303" lon="-2.723260">
        <ele>738.9</ele>
        <time>2015-02-22T12:05:17Z</time>
      </trkpt>
      <trkpt lat="40.476322" lon="-2.723118">
        <ele>739.0</ele>
        <time>2015-02-22T12:05:21Z</time>
      </trkpt>
      <trkpt lat="40.476300" lon="-2.722973">
        <ele>738.7</ele>
        <time>2015-02-22T12:05:25Z</time>
      </trkpt>
      <trkpt lat="40.476267" lon="-2.722856">
        <ele>738.3</ele>
        <time>2015-02-22T12:05:28Z</time>
      </trkpt>
      <trkpt lat="40.476227" lon="-2.722736">
        <ele>738.0</ele>
        <time>2015-02-22T12:05:31Z</time>
      </trkpt>
      <trkpt lat="40.476179" lon="-2.722593">
        <ele>737.5</ele>
        <time>2015-02-22T12:05:35Z</time>
      </trkpt>
      <trkpt lat="40.476169" lon="-2.722438">
        <ele>737.4</ele>
        <time>2015-02-22T12:05:39Z</time>
      </trkpt>
      <trkpt lat="40.476184" lon="-2.722285">
        <ele>737.6</ele>
        <time>2015-02-22T12:05:43Z</time>
      </trkpt>
      <trkpt lat="40.476208" lon="-2.722137">
        <ele>737.7</ele>
        <time>2015-02-22T12:05:47Z</time>
      </trkpt>
      <trkpt lat="40.476249" lon="-2.721990">
        <ele>738.0</ele>
        <time>2015-02-22T12:05:51Z</time>
      </trkpt>
      <trkpt lat="40.476302" lon="-2.721855">
        <ele>738.3</ele>
        <time>2015-02-22T12:05:55Z</time>
      </trkpt>
      <trkpt lat="40.476342" lon="-2.721731">
        <ele>738.5</ele>
        <time>2015-02-22T12:05:59Z</time>
      </trkpt>
      <trkpt lat="40.476359" lon="-2.721591">
        <ele>738.6</ele>
        <time>2015-02-22T12:06:04Z</time>
      </trkpt>
      <trkpt lat="40.476345" lon="-2.721458">
        <ele>738.6</ele>
        <time>2015-02-22T12:06:09Z</time>
      </trkpt>
      <trkpt lat="40.476282" lon="-2.721348">
        <ele>738.4</ele>
        <time>2015-02-22T12:06:14Z</time>
      </trkpt>
      <trkpt lat="40.476200" lon="-2.721273">
        <ele>738.0</ele>
        <time>2015-02-22T12:06:18Z</time>
      </trkpt>
      <trkpt lat="40.476134" lon="-2.721166">
        <ele>737.7</ele>
        <time>2015-02-22T12:06:22Z</time>
      </trkpt>
      <trkpt lat="40.476092" lon="-2.721028">
        <ele>737.5</ele>
        <time>2015-02-22T12:06:26Z</time>
      </trkpt>
      <trkpt lat="40.476062" lon="-2.720915">
        <ele>737.3</ele>
        <time>2015-02-22T12:06:29Z</time>
      </trkpt>
      <trkpt lat="40.476032" lon="-2.720798">
        <ele>737.3</ele>
        <time>2015-02-22T12:06:32Z</time>
      </trkpt>
      <trkpt lat="40.476007" lon="-2.720680">
        <ele>737.4</ele>
        <time>2015-02-22T12:06:35Z</time>
      </trkpt>
      <trkpt lat="40.475985" lon="-2.720558">
        <ele>737.6</ele>
        <time>2015-02-22T12:06:38Z</time>
      </trkpt>
      <trkpt lat="40.475983" lon="-2.720435">
        <ele>737.9</ele>
        <time>2015-02-22T12:06:41Z</time>
      </trkpt>
      <trkpt lat="40.475990" lon="-2.720303">
        <ele>738.3</ele>
        <time>2015-02-22T12:06:44Z</time>
      </trkpt>
      <trkpt lat="40.475998" lon="-2.720175">
        <ele>738.7</ele>
        <time>2015-02-22T12:06:47Z</time>
      </trkpt>
      <trkpt lat="40.476000" lon="-2.720051">
        <ele>739.1</ele>
        <time>2015-02-22T12:06:50Z</time>
      </trkpt>
      <trkpt lat="40.475997" lon="-2.719925">
        <ele>739.0</ele>
        <time>2015-02-22T12:06:53Z</time>
      </trkpt>
      <trkpt lat="40.475983" lon="-2.719805">
        <ele>738.6</ele>
        <time>2015-02-22T12:06:56Z</time>
      </trkpt>
      <trkpt lat="40.475944" lon="-2.719663">
        <ele>737.9</ele>
        <time>2015-02-22T12:07:00Z</time>
      </trkpt>
      <trkpt lat="40.475883" lon="-2.719568">
        <ele>737.1</ele>
        <time>2015-02-22T12:07:03Z</time>
      </trkpt>
      <trkpt lat="40.475817" lon="-2.719486">
        <ele>736.5</ele>
        <time>2015-02-22T12:07:06Z</time>
      </trkpt>
      <trkpt lat="40.475739" lon="-2.719366">
        <ele>736.8</ele>
        <time>2015-02-22T12:07:10Z</time>
      </trkpt>
      <trkpt lat="40.475653" lon="-2.719260">
        <ele>737.2</ele>
        <time>2015-02-22T12:07:14Z</time>
      </trkpt>
      <trkpt lat="40.475568" lon="-2.719165">
        <ele>737.6</ele>
        <time>2015-02-22T12:07:18Z</time>
      </trkpt>
      <trkpt lat="40.475489" lon="-2.719060">
        <ele>738.1</ele>
        <time>2015-02-22T12:07:22Z</time>
      </trkpt>
      <trkpt lat="40.475407" lon="-2.718963">
        <ele>738.6</ele>
        <time>2015-02-22T12:07:26Z</time>
      </trkpt>
      <trkpt lat="40.475335" lon="-2.718888">
        <ele>739.0</ele>
        <time>2015-02-22T12:07:29Z</time>
      </trkpt>
      <trkpt lat="40.475235" lon="-2.718801">
        <ele>739.6</ele>
        <time>2015-02-22T12:07:32Z</time>
      </trkpt>
      <trkpt lat="40.475120" lon="-2.718713">
        <ele>740.3</ele>
        <time>2015-02-22T12:07:35Z</time>
      </trkpt>
      <trkpt lat="40.475040" lon="-2.718657">
        <ele>740.7</ele>
        <time>2015-02-22T12:07:37Z</time>
      </trkpt>
      <trkpt lat="40.474957" lon="-2.718603">
        <ele>741.1</ele>
        <time>2015-02-22T12:07:39Z</time>
      </trkpt>
      <trkpt lat="40.474878" lon="-2.718535">
        <ele>741.2</ele>
        <time>2015-02-22T12:07:41Z</time>
      </trkpt>
      <trkpt lat="40.474807" lon="-2.718463">
        <ele>741.2</ele>
        <time>2015-02-22T12:07:43Z</time>
      </trkpt>
      <trkpt lat="40.474705" lon="-2.718348">
        <ele>741.0</ele>
        <time>2015-02-22T12:07:46Z</time>
      </trkpt>
      <trkpt lat="40.474625" lon="-2.718207">
        <ele>740.7</ele>
        <time>2015-02-22T12:07:49Z</time>
      </trkpt>
      <trkpt lat="40.474538" lon="-2.718078">
        <ele>740.4</ele>
        <time>2015-02-22T12:07:52Z</time>
      </trkpt>
      <trkpt lat="40.474455" lon="-2.717950">
        <ele>740.2</ele>
        <time>2015-02-22T12:07:55Z</time>
      </trkpt>
      <trkpt lat="40.474370" lon="-2.717823">
        <ele>740.1</ele>
        <time>2015-02-22T12:07:58Z</time>
      </trkpt>
      <trkpt lat="40.474300" lon="-2.717686">
        <ele>740.0</ele>
        <time>2015-02-22T12:08:01Z</time>
      </trkpt>
      <trkpt lat="40.474240" lon="-2.717545">
        <ele>739.9</ele>
        <time>2015-02-22T12:08:04Z</time>
      </trkpt>
      <trkpt lat="40.474184" lon="-2.717402">
        <ele>740.2</ele>
        <time>2015-02-22T12:08:07Z</time>
      </trkpt>
      <trkpt lat="40.474134" lon="-2.717261">
        <ele>740.7</ele>
        <time>2015-02-22T12:08:10Z</time>
      </trkpt>
      <trkpt lat="40.474093" lon="-2.717123">
        <ele>741.2</ele>
        <time>2015-02-22T12:08:13Z</time>
      </trkpt>
      <trkpt lat="40.474035" lon="-2.717001">
        <ele>741.7</ele>
        <time>2015-02-22T12:08:16Z</time>
      </trkpt>
      <trkpt lat="40.473983" lon="-2.716883">
        <ele>742.2</ele>
        <time>2015-02-22T12:08:19Z</time>
      </trkpt>
      <trkpt lat="40.473940" lon="-2.716758">
        <ele>742.6</ele>
        <time>2015-02-22T12:08:22Z</time>
      </trkpt>
      <trkpt lat="40.473915" lon="-2.716635">
        <ele>743.0</ele>
        <time>2015-02-22T12:08:25Z</time>
      </trkpt>
      <trkpt lat="40.473898" lon="-2.716507">
        <ele>743.4</ele>
        <time>2015-02-22T12:08:28Z</time>
      </trkpt>
      <trkpt lat="40.473877" lon="-2.716375">
        <ele>743.8</ele>
        <time>2015-02-22T12:08:31Z</time>
      </trkpt>
      <trkpt lat="40.473837" lon="-2.716263">
        <ele>744.3</ele>
        <time>2015-02-22T12:08:34Z</time>
      </trkpt>
      <trkpt lat="40.473787" lon="-2.716163">
        <ele>744.6</ele>
        <time>2015-02-22T12:08:37Z</time>
      </trkpt>
      <trkpt lat="40.473714" lon="-2.716041">
        <ele>745.1</ele>
        <time>2015-02-22T12:08:41Z</time>
      </trkpt>
      <trkpt lat="40.473642" lon="-2.715928">
        <ele>745.4</ele>
        <time>2015-02-22T12:08:45Z</time>
      </trkpt>
      <trkpt lat="40.473582" lon="-2.715820">
        <ele>745.8</ele>
        <time>2015-02-22T12:08:49Z</time>
      </trkpt>
      <trkpt lat="40.473523" lon="-2.715720">
        <ele>746.3</ele>
        <time>2015-02-22T12:08:53Z</time>
      </trkpt>
      <trkpt lat="40.473442" lon="-2.715620">
        <ele>746.9</ele>
        <time>2015-02-22T12:08:57Z</time>
      </trkpt>
      <trkpt lat="40.473365" lon="-2.715518">
        <ele>747.5</ele>
        <time>2015-02-22T12:09:01Z</time>
      </trkpt>
      <trkpt lat="40.473300" lon="-2.715408">
        <ele>748.2</ele>
        <time>2015-02-22T12:09:05Z</time>
      </trkpt>
      <trkpt lat="40.473244" lon="-2.715287">
        <ele>749.2</ele>
        <time>2015-02-22T12:09:09Z</time>
      </trkpt>
      <trkpt lat="40.473208" lon="-2.715148">
        <ele>750.0</ele>
        <time>2015-02-22T12:09:13Z</time>
      </trkpt>
      <trkpt lat="40.473177" lon="-2.715001">
        <ele>750.9</ele>
        <time>2015-02-22T12:09:17Z</time>
      </trkpt>
      <trkpt lat="40.473144" lon="-2.714875">
        <ele>751.2</ele>
        <time>2015-02-22T12:09:21Z</time>
      </trkpt>
      <trkpt lat="40.473117" lon="-2.714722">
        <ele>751.4</ele>
        <time>2015-02-22T12:09:25Z</time>
      </trkpt>
      <trkpt lat="40.473097" lon="-2.714571">
        <ele>751.6</ele>
        <time>2015-02-22T12:09:29Z</time>
      </trkpt>
      <trkpt lat="40.473078" lon="-2.714433">
        <ele>751.8</ele>
        <time>2015-02-22T12:09:33Z</time>
      </trkpt>
      <trkpt lat="40.473042" lon="-2.714300">
        <ele>752.0</ele>
        <time>2015-02-22T12:09:37Z</time>
      </trkpt>
      <trkpt lat="40.472993" lon="-2.714177">
        <ele>752.2</ele>
        <time>2015-02-22T12:09:41Z</time>
      </trkpt>
      <trkpt lat="40.472930" lon="-2.714067">
        <ele>752.8</ele>
        <time>2015-02-22T12:09:45Z</time>
      </trkpt>
      <trkpt lat="40.472868" lon="-2.713960">
        <ele>753.5</ele>
        <time>2015-02-22T12:09:49Z</time>
      </trkpt>
      <trkpt lat="40.472809" lon="-2.713865">
        <ele>753.9</ele>
        <time>2015-02-22T12:09:53Z</time>
      </trkpt>
      <trkpt lat="40.472730" lon="-2.713763">
        <ele>754.3</ele>
        <time>2015-02-22T12:09:58Z</time>
      </trkpt>
      <trkpt lat="40.472667" lon="-2.713678">
        <ele>754.6</ele>
        <time>2015-02-22T12:10:02Z</time>
      </trkpt>
      <trkpt lat="40.472579" lon="-2.713598">
        <ele>754.7</ele>
        <time>2015-02-22T12:10:07Z</time>
      </trkpt>
      <trkpt lat="40.472479" lon="-2.713535">
        <ele>754.9</ele>
        <time>2015-02-22T12:10:12Z</time>
      </trkpt>
      <trkpt lat="40.472384" lon="-2.713478">
        <ele>755.9</ele>
        <time>2015-02-22T12:10:17Z</time>
      </trkpt>
      <trkpt lat="40.472292" lon="-2.713438">
        <ele>756.7</ele>
        <time>2015-02-22T12:10:22Z</time>
      </trkpt>
      <trkpt lat="40.472197" lon="-2.713410">
        <ele>757.5</ele>
        <time>2015-02-22T12:10:27Z</time>
      </trkpt>
      <trkpt lat="40.472110" lon="-2.713366">
        <ele>758.3</ele>
        <time>2015-02-22T12:10:32Z</time>
      </trkpt>
      <trkpt lat="40.472024" lon="-2.713316">
        <ele>759.0</ele>
        <time>2015-02-22T12:10:37Z</time>
      </trkpt>
      <trkpt lat="40.471937" lon="-2.713253">
        <ele>759.8</ele>
        <time>2015-02-22T12:10:42Z</time>
      </trkpt>
      <trkpt lat="40.471845" lon="-2.713193">
        <ele>760.5</ele>
        <time>2015-02-22T12:10:47Z</time>
      </trkpt>
      <trkpt lat="40.471763" lon="-2.713118">
        <ele>761.0</ele>
        <time>2015-02-22T12:10:52Z</time>
      </trkpt>
      <trkpt lat="40.471694" lon="-2.713025">
        <ele>761.4</ele>
        <time>2015-02-22T12:10:57Z</time>
      </trkpt>
      <trkpt lat="40.471620" lon="-2.712938">
        <ele>762.0</ele>
        <time>2015-02-22T12:11:02Z</time>
      </trkpt>
      <trkpt lat="40.471543" lon="-2.712835">
        <ele>762.9</ele>
        <time>2015-02-22T12:11:07Z</time>
      </trkpt>
      <trkpt lat="40.471479" lon="-2.712723">
        <ele>763.5</ele>
        <time>2015-02-22T12:11:12Z</time>
      </trkpt>
      <trkpt lat="40.471422" lon="-2.712618">
        <ele>764.2</ele>
        <time>2015-02-22T12:11:17Z</time>
      </trkpt>
      <trkpt lat="40.471364" lon="-2.712528">
        <ele>765.0</ele>
        <time>2015-02-22T12:11:21Z</time>
      </trkpt>
      <trkpt lat="40.471282" lon="-2.712443">
        <ele>766.0</ele>
        <time>2015-02-22T12:11:25Z</time>
      </trkpt>
      <trkpt lat="40.471198" lon="-2.712351">
        <ele>766.9</ele>
        <time>2015-02-22T12:11:29Z</time>
      </trkpt>
      <trkpt lat="40.471120" lon="-2.712257">
        <ele>767.5</ele>
        <time>2015-02-22T12:11:33Z</time>
      </trkpt>
      <trkpt lat="40.471047" lon="-2.712163">
        <ele>767.9</ele>
        <time>2015-02-22T12:11:37Z</time>
      </trkpt>
      <trkpt lat="40.470977" lon="-2.712060">
        <ele>768.2</ele>
        <time>2015-02-22T12:11:41Z</time>
      </trkpt>
      <trkpt lat="40.470907" lon="-2.711947">
        <ele>768.1</ele>
        <time>2015-02-22T12:11:45Z</time>
      </trkpt>
      <trkpt lat="40.470845" lon="-2.711835">
        <ele>767.9</ele>
        <time>2015-02-22T12:11:49Z</time>
      </trkpt>
      <trkpt lat="40.470784" lon="-2.711723">
        <ele>768.0</ele>
        <time>2015-02-22T12:11:53Z</time>
      </trkpt>
      <trkpt lat="40.470742" lon="-2.711605">
        <ele>768.1</ele>
        <time>2015-02-22T12:11:57Z</time>
      </trkpt>
      <trkpt lat="40.470725" lon="-2.711473">
        <ele>767.9</ele>
        <time>2015-02-22T12:12:01Z</time>
      </trkpt>
      <trkpt lat="40.470728" lon="-2.711345">
        <ele>767.6</ele>
        <time>2015-02-22T12:12:05Z</time>
      </trkpt>
      <trkpt lat="40.470730" lon="-2.711215">
        <ele>767.3</ele>
        <time>2015-02-22T12:12:09Z</time>
      </trkpt>
      <trkpt lat="40.470737" lon="-2.711058">
        <ele>766.8</ele>
        <time>2015-02-22T12:12:13Z</time>
      </trkpt>
      <trkpt lat="40.470747" lon="-2.710938">
        <ele>766.4</ele>
        <time>2015-02-22T12:12:16Z</time>
      </trkpt>
      <trkpt lat="40.470730" lon="-2.710785">
        <ele>766.4</ele>
        <time>2015-02-22T12:12:20Z</time>
      </trkpt>
      <trkpt lat="40.470692" lon="-2.710656">
        <ele>766.9</ele>
        <time>2015-02-22T12:12:23Z</time>
      </trkpt>
      <trkpt lat="40.470637" lon="-2.710507">
        <ele>767.5</ele>
        <time>2015-02-22T12:12:26Z</time>
      </trkpt>
      <trkpt lat="40.470592" lon="-2.710345">
        <ele>767.9</ele>
        <time>2015-02-22T12:12:29Z</time>
      </trkpt>
      <trkpt lat="40.470569" lon="-2.710226">
        <ele>768.1</ele>
        <time>2015-02-22T12:12:31Z</time>
      </trkpt>
      <trkpt lat="40.470555" lon="-2.710103">
        <ele>768.1</ele>
        <time>2015-02-22T12:12:33Z</time>
      </trkpt>
      <trkpt lat="40.470540" lon="-2.709976">
        <ele>768.2</ele>
        <time>2015-02-22T12:12:35Z</time>
      </trkpt>
      <trkpt lat="40.470520" lon="-2.709852">
        <ele>768.9</ele>
        <time>2015-02-22T12:12:37Z</time>
      </trkpt>
      <trkpt lat="40.470489" lon="-2.709685">
        <ele>769.9</ele>
        <time>2015-02-22T12:12:40Z</time>
      </trkpt>
      <trkpt lat="40.470462" lon="-2.709526">
        <ele>770.7</ele>
        <time>2015-02-22T12:12:43Z</time>
      </trkpt>
      <trkpt lat="40.470428" lon="-2.709365">
        <ele>771.6</ele>
        <time>2015-02-22T12:12:46Z</time>
      </trkpt>
      <trkpt lat="40.470405" lon="-2.709193">
        <ele>772.4</ele>
        <time>2015-02-22T12:12:49Z</time>
      </trkpt>
      <trkpt lat="40.470398" lon="-2.709075">
        <ele>772.9</ele>
        <time>2015-02-22T12:12:51Z</time>
      </trkpt>
      <trkpt lat="40.470403" lon="-2.708910">
        <ele>773.4</ele>
        <time>2015-02-22T12:12:54Z</time>
      </trkpt>
      <trkpt lat="40.470410" lon="-2.708751">
        <ele>774.0</ele>
        <time>2015-02-22T12:12:57Z</time>
      </trkpt>
      <trkpt lat="40.470423" lon="-2.708587">
        <ele>774.5</ele>
        <time>2015-02-22T12:13:00Z</time>
      </trkpt>
      <trkpt lat="40.470439" lon="-2.708431">
        <ele>775.1</ele>
        <time>2015-02-22T12:13:03Z</time>
      </trkpt>
      <trkpt lat="40.470455" lon="-2.708286">
        <ele>775.6</ele>
        <time>2015-02-22T12:13:06Z</time>
      </trkpt>
      <trkpt lat="40.470470" lon="-2.708155">
        <ele>775.9</ele>
        <time>2015-02-22T12:13:09Z</time>
      </trkpt>
      <trkpt lat="40.470484" lon="-2.708023">
        <ele>776.2</ele>
        <time>2015-02-22T12:13:12Z</time>
      </trkpt>
      <trkpt lat="40.470493" lon="-2.707891">
        <ele>776.6</ele>
        <time>2015-02-22T12:13:15Z</time>
      </trkpt>
      <trkpt lat="40.470502" lon="-2.707741">
        <ele>776.9</ele>
        <time>2015-02-22T12:13:19Z</time>
      </trkpt>
      <trkpt lat="40.470505" lon="-2.707598">
        <ele>777.3</ele>
        <time>2015-02-22T12:13:23Z</time>
      </trkpt>
      <trkpt lat="40.470508" lon="-2.707463">
        <ele>777.7</ele>
        <time>2015-02-22T12:13:27Z</time>
      </trkpt>
      <trkpt lat="40.470515" lon="-2.707325">
        <ele>778.2</ele>
        <time>2015-02-22T12:13:31Z</time>
      </trkpt>
      <trkpt lat="40.470527" lon="-2.707183">
        <ele>778.7</ele>
        <time>2015-02-22T12:13:35Z</time>
      </trkpt>
      <trkpt lat="40.470537" lon="-2.707038">
        <ele>779.3</ele>
        <time>2015-02-22T12:13:39Z</time>
      </trkpt>
      <trkpt lat="40.470542" lon="-2.706893">
        <ele>779.8</ele>
        <time>2015-02-22T12:13:43Z</time>
      </trkpt>
      <trkpt lat="40.470543" lon="-2.706748">
        <ele>780.4</ele>
        <time>2015-02-22T12:13:47Z</time>
      </trkpt>
      <trkpt lat="40.470538" lon="-2.706600">
        <ele>781.2</ele>
        <time>2015-02-22T12:13:51Z</time>
      </trkpt>
      <trkpt lat="40.470522" lon="-2.706457">
        <ele>782.2</ele>
        <time>2015-02-22T12:13:55Z</time>
      </trkpt>
      <trkpt lat="40.470495" lon="-2.706315">
        <ele>783.3</ele>
        <time>2015-02-22T12:13:59Z</time>
      </trkpt>
      <trkpt lat="40.470445" lon="-2.706185">
        <ele>784.3</ele>
        <time>2015-02-22T12:14:03Z</time>
      </trkpt>
      <trkpt lat="40.470383" lon="-2.706080">
        <ele>785.1</ele>
        <time>2015-02-22T12:14:07Z</time>
      </trkpt>
      <trkpt lat="40.470330" lon="-2.705950">
        <ele>786.0</ele>
        <time>2015-02-22T12:14:11Z</time>
      </trkpt>
      <trkpt lat="40.470287" lon="-2.705813">
        <ele>786.7</ele>
        <time>2015-02-22T12:14:15Z</time>
      </trkpt>
      <trkpt lat="40.470257" lon="-2.705665">
        <ele>787.6</ele>
        <time>2015-02-22T12:14:19Z</time>
      </trkpt>
      <trkpt lat="40.470227" lon="-2.705516">
        <ele>788.4</ele>
        <time>2015-02-22T12:14:23Z</time>
      </trkpt>
      <trkpt lat="40.470202" lon="-2.705368">
        <ele>789.2</ele>
        <time>2015-02-22T12:14:27Z</time>
      </trkpt>
      <trkpt lat="40.470172" lon="-2.705232">
        <ele>790.1</ele>
        <time>2015-02-22T12:14:31Z</time>
      </trkpt>
      <trkpt lat="40.470145" lon="-2.705095">
        <ele>790.9</ele>
        <time>2015-02-22T12:14:35Z</time>
      </trkpt>
      <trkpt lat="40.470134" lon="-2.704950">
        <ele>791.8</ele>
        <time>2015-02-22T12:14:39Z</time>
      </trkpt>
      <trkpt lat="40.470122" lon="-2.704810">
        <ele>792.4</ele>
        <time>2015-02-22T12:14:43Z</time>
      </trkpt>
      <trkpt lat="40.470112" lon="-2.704667">
        <ele>793.2</ele>
        <time>2015-02-22T12:14:47Z</time>
      </trkpt>
      <trkpt lat="40.470105" lon="-2.704521">
        <ele>793.9</ele>
        <time>2015-02-22T12:14:51Z</time>
      </trkpt>
      <trkpt lat="40.470105" lon="-2.704375">
        <ele>794.6</ele>
        <time>2015-02-22T12:14:55Z</time>
      </trkpt>
      <trkpt lat="40.470110" lon="-2.704238">
        <ele>795.2</ele>
        <time>2015-02-22T12:14:59Z</time>
      </trkpt>
      <trkpt lat="40.470120" lon="-2.704115">
        <ele>795.8</ele>
        <time>2015-02-22T12:15:03Z</time>
      </trkpt>
      <trkpt lat="40.470144" lon="-2.703983">
        <ele>796.3</ele>
        <time>2015-02-22T12:15:07Z</time>
      </trkpt>
      <trkpt lat="40.470162" lon="-2.703858">
        <ele>796.8</ele>
        <time>2015-02-22T12:15:11Z</time>
      </trkpt>
      <trkpt lat="40.470162" lon="-2.703733">
        <ele>797.4</ele>
        <time>2015-02-22T12:15:15Z</time>
      </trkpt>
      <trkpt lat="40.470160" lon="-2.703610">
        <ele>797.9</ele>
        <time>2015-02-22T12:15:19Z</time>
      </trkpt>
      <trkpt lat="40.470162" lon="-2.703465">
        <ele>798.6</ele>
        <time>2015-02-22T12:15:24Z</time>
      </trkpt>
      <trkpt lat="40.470173" lon="-2.703347">
        <ele>799.1</ele>
        <time>2015-02-22T12:15:28Z</time>
      </trkpt>
      <trkpt lat="40.470209" lon="-2.703210">
        <ele>799.4</ele>
        <time>2015-02-22T12:15:33Z</time>
      </trkpt>
      <trkpt lat="40.470222" lon="-2.703066">
        <ele>799.7</ele>
        <time>2015-02-22T12:15:38Z</time>
      </trkpt>
      <trkpt lat="40.470227" lon="-2.702935">
        <ele>800.1</ele>
        <time>2015-02-22T12:15:43Z</time>
      </trkpt>
      <trkpt lat="40.470252" lon="-2.702816">
        <ele>800.4</ele>
        <time>2015-02-22T12:15:47Z</time>
      </trkpt>
      <trkpt lat="40.470293" lon="-2.702695">
        <ele>800.7</ele>
        <time>2015-02-22T12:15:51Z</time>
      </trkpt>
      <trkpt lat="40.470350" lon="-2.702565">
        <ele>800.9</ele>
        <time>2015-02-22T12:15:55Z</time>
      </trkpt>
      <trkpt lat="40.470395" lon="-2.702458">
        <ele>801.2</ele>
        <time>2015-02-22T12:15:58Z</time>
      </trkpt>
      <trkpt lat="40.470440" lon="-2.702337">
        <ele>801.7</ele>
        <time>2015-02-22T12:16:01Z</time>
      </trkpt>
      <trkpt lat="40.470484" lon="-2.702222">
        <ele>802.1</ele>
        <time>2015-02-22T12:16:04Z</time>
      </trkpt>
      <trkpt lat="40.470533" lon="-2.702117">
        <ele>802.4</ele>
        <time>2015-02-22T12:16:07Z</time>
      </trkpt>
      <trkpt lat="40.470585" lon="-2.702008">
        <ele>802.7</ele>
        <time>2015-02-22T12:16:10Z</time>
      </trkpt>
      <trkpt lat="40.470640" lon="-2.701905">
        <ele>802.9</ele>
        <time>2015-02-22T12:16:13Z</time>
      </trkpt>
      <trkpt lat="40.470715" lon="-2.701785">
        <ele>803.1</ele>
        <time>2015-02-22T12:16:17Z</time>
      </trkpt>
      <trkpt lat="40.470775" lon="-2.701692">
        <ele>803.2</ele>
        <time>2015-02-22T12:16:20Z</time>
      </trkpt>
      <trkpt lat="40.470822" lon="-2.701573">
        <ele>803.5</ele>
        <time>2015-02-22T12:16:23Z</time>
      </trkpt>
      <trkpt lat="40.470865" lon="-2.701457">
        <ele>804.2</ele>
        <time>2015-02-22T12:16:26Z</time>
      </trkpt>
      <trkpt lat="40.470909" lon="-2.701342">
        <ele>805.0</ele>
        <time>2015-02-22T12:16:29Z</time>
      </trkpt>
      <trkpt lat="40.470937" lon="-2.701223">
        <ele>805.7</ele>
        <time>2015-02-22T12:16:32Z</time>
      </trkpt>
      <trkpt lat="40.470952" lon="-2.701097">
        <ele>806.3</ele>
        <time>2015-02-22T12:16:35Z</time>
      </trkpt>
      <trkpt lat="40.470977" lon="-2.700970">
        <ele>807.0</ele>
        <time>2015-02-22T12:16:38Z</time>
      </trkpt>
      <trkpt lat="40.471012" lon="-2.700850">
        <ele>807.7</ele>
        <time>2015-02-22T12:16:41Z</time>
      </trkpt>
      <trkpt lat="40.471047" lon="-2.700733">
        <ele>808.5</ele>
        <time>2015-02-22T12:16:44Z</time>
      </trkpt>
      <trkpt lat="40.471092" lon="-2.700598">
        <ele>809.5</ele>
        <time>2015-02-22T12:16:48Z</time>
      </trkpt>
      <trkpt lat="40.471137" lon="-2.700483">
        <ele>810.2</ele>
        <time>2015-02-22T12:16:52Z</time>
      </trkpt>
      <trkpt lat="40.471178" lon="-2.700351">
        <ele>810.9</ele>
        <time>2015-02-22T12:16:57Z</time>
      </trkpt>
      <trkpt lat="40.471215" lon="-2.700242">
        <ele>811.4</ele>
        <time>2015-02-22T12:17:01Z</time>
      </trkpt>
      <trkpt lat="40.471242" lon="-2.700118">
        <ele>812.0</ele>
        <time>2015-02-22T12:17:06Z</time>
      </trkpt>
      <trkpt lat="40.471252" lon="-2.699983">
        <ele>812.6</ele>
        <time>2015-02-22T12:17:11Z</time>
      </trkpt>
      <trkpt lat="40.471249" lon="-2.699850">
        <ele>813.6</ele>
        <time>2015-02-22T12:17:16Z</time>
      </trkpt>
      <trkpt lat="40.471222" lon="-2.699731">
        <ele>814.5</ele>
        <time>2015-02-22T12:17:20Z</time>
      </trkpt>
      <trkpt lat="40.471198" lon="-2.699600">
        <ele>815.5</ele>
        <time>2015-02-22T12:17:24Z</time>
      </trkpt>
      <trkpt lat="40.471182" lon="-2.699465">
        <ele>816.6</ele>
        <time>2015-02-22T12:17:28Z</time>
      </trkpt>
      <trkpt lat="40.471162" lon="-2.699337">
        <ele>817.5</ele>
        <time>2015-02-22T12:17:32Z</time>
      </trkpt>
      <trkpt lat="40.471157" lon="-2.699208">
        <ele>818.4</ele>
        <time>2015-02-22T12:17:36Z</time>
      </trkpt>
      <trkpt lat="40.471193" lon="-2.699087">
        <ele>819.4</ele>
        <time>2015-02-22T12:17:40Z</time>
      </trkpt>
      <trkpt lat="40.471272" lon="-2.699008">
        <ele>820.2</ele>
        <time>2015-02-22T12:17:44Z</time>
      </trkpt>
      <trkpt lat="40.471357" lon="-2.698948">
        <ele>820.8</ele>
        <time>2015-02-22T12:17:48Z</time>
      </trkpt>
      <trkpt lat="40.471385" lon="-2.698818">
        <ele>821.8</ele>
        <time>2015-02-22T12:17:52Z</time>
      </trkpt>
      <trkpt lat="40.471380" lon="-2.698675">
        <ele>822.8</ele>
        <time>2015-02-22T12:17:56Z</time>
      </trkpt>
      <trkpt lat="40.471379" lon="-2.698535">
        <ele>823.8</ele>
        <time>2015-02-22T12:18:00Z</time>
      </trkpt>
      <trkpt lat="40.471375" lon="-2.698400">
        <ele>824.8</ele>
        <time>2015-02-22T12:18:04Z</time>
      </trkpt>
      <trkpt lat="40.471374" lon="-2.698271">
        <ele>825.6</ele>
        <time>2015-02-22T12:18:08Z</time>
      </trkpt>
      <trkpt lat="40.471372" lon="-2.698148">
        <ele>826.4</ele>
        <time>2015-02-22T12:18:12Z</time>
      </trkpt>
      <trkpt lat="40.471365" lon="-2.698026">
        <ele>827.1</ele>
        <time>2015-02-22T12:18:16Z</time>
      </trkpt>
      <trkpt lat="40.471357" lon="-2.697906">
        <ele>827.7</ele>
        <time>2015-02-22T12:18:20Z</time>
      </trkpt>
      <trkpt lat="40.471349" lon="-2.697788">
        <ele>828.4</ele>
        <time>2015-02-22T12:18:24Z</time>
      </trkpt>
      <trkpt lat="40.471344" lon="-2.697662">
        <ele>829.1</ele>
        <time>2015-02-22T12:18:28Z</time>
      </trkpt>
      <trkpt lat="40.471334" lon="-2.697542">
        <ele>829.7</ele>
        <time>2015-02-22T12:18:32Z</time>
      </trkpt>
      <trkpt lat="40.471329" lon="-2.697422">
        <ele>830.8</ele>
        <time>2015-02-22T12:18:36Z</time>
      </trkpt>
      <trkpt lat="40.471320" lon="-2.697298">
        <ele>832.0</ele>
        <time>2015-02-22T12:18:40Z</time>
      </trkpt>
      <trkpt lat="40.471302" lon="-2.697180">
        <ele>833.1</ele>
        <time>2015-02-22T12:18:44Z</time>
      </trkpt>
      <trkpt lat="40.471270" lon="-2.697065">
        <ele>834.0</ele>
        <time>2015-02-22T12:18:48Z</time>
      </trkpt>
      <trkpt lat="40.471229" lon="-2.696957">
        <ele>834.8</ele>
        <time>2015-02-22T12:18:52Z</time>
      </trkpt>
      <trkpt lat="40.471187" lon="-2.696846">
        <ele>835.6</ele>
        <time>2015-02-22T12:18:56Z</time>
      </trkpt>
      <trkpt lat="40.471144" lon="-2.696742">
        <ele>836.2</ele>
        <time>2015-02-22T12:19:00Z</time>
      </trkpt>
      <trkpt lat="40.471097" lon="-2.696612">
        <ele>836.9</ele>
        <time>2015-02-22T12:19:05Z</time>
      </trkpt>
      <trkpt lat="40.471052" lon="-2.696500">
        <ele>837.3</ele>
        <time>2015-02-22T12:19:09Z</time>
      </trkpt>
      <trkpt lat="40.470985" lon="-2.696385">
        <ele>837.5</ele>
        <time>2015-02-22T12:19:13Z</time>
      </trkpt>
      <trkpt lat="40.470917" lon="-2.696271">
        <ele>837.7</ele>
        <time>2015-02-22T12:19:17Z</time>
      </trkpt>
      <trkpt lat="40.470847" lon="-2.696160">
        <ele>837.8</ele>
        <time>2015-02-22T12:19:21Z</time>
      </trkpt>
      <trkpt lat="40.470795" lon="-2.696050">
        <ele>838.1</ele>
        <time>2015-02-22T12:19:25Z</time>
      </trkpt>
      <trkpt lat="40.470737" lon="-2.695936">
        <ele>838.4</ele>
        <time>2015-02-22T12:19:29Z</time>
      </trkpt>
      <trkpt lat="40.470689" lon="-2.695803">
        <ele>838.8</ele>
        <time>2015-02-22T12:19:34Z</time>
      </trkpt>
      <trkpt lat="40.470630" lon="-2.695670">
        <ele>838.9</ele>
        <time>2015-02-22T12:19:38Z</time>
      </trkpt>
      <trkpt lat="40.470594" lon="-2.695527">
        <ele>839.2</ele>
        <time>2015-02-22T12:19:41Z</time>
      </trkpt>
      <trkpt lat="40.470565" lon="-2.695365">
        <ele>839.7</ele>
        <time>2015-02-22T12:19:44Z</time>
      </trkpt>
      <trkpt lat="40.470554" lon="-2.695215">
        <ele>840.2</ele>
        <time>2015-02-22T12:19:47Z</time>
      </trkpt>
      <trkpt lat="40.470543" lon="-2.695068">
        <ele>840.8</ele>
        <time>2015-02-22T12:19:50Z</time>
      </trkpt>
      <trkpt lat="40.470543" lon="-2.694950">
        <ele>840.9</ele>
        <time>2015-02-22T12:19:53Z</time>
      </trkpt>
      <trkpt lat="40.470543" lon="-2.694830">
        <ele>840.2</ele>
        <time>2015-02-22T12:19:56Z</time>
      </trkpt>
      <trkpt lat="40.470562" lon="-2.694671">
        <ele>839.6</ele>
        <time>2015-02-22T12:20:00Z</time>
      </trkpt>
      <trkpt lat="40.470594" lon="-2.694540">
        <ele>839.2</ele>
        <time>2015-02-22T12:20:03Z</time>
      </trkpt>
      <trkpt lat="40.470618" lon="-2.694407">
        <ele>838.7</ele>
        <time>2015-02-22T12:20:06Z</time>
      </trkpt>
      <trkpt lat="40.470633" lon="-2.694273">
        <ele>838.0</ele>
        <time>2015-02-22T12:20:09Z</time>
      </trkpt>
      <trkpt lat="40.470650" lon="-2.694145">
        <ele>837.4</ele>
        <time>2015-02-22T12:20:12Z</time>
      </trkpt>
      <trkpt lat="40.470664" lon="-2.693991">
        <ele>836.5</ele>
        <time>2015-02-22T12:20:16Z</time>
      </trkpt>
      <trkpt lat="40.470679" lon="-2.693855">
        <ele>835.7</ele>
        <time>2015-02-22T12:20:19Z</time>
      </trkpt>
      <trkpt lat="40.470702" lon="-2.693722">
        <ele>835.1</ele>
        <time>2015-02-22T12:20:22Z</time>
      </trkpt>
      <trkpt lat="40.470733" lon="-2.693596">
        <ele>834.5</ele>
        <time>2015-02-22T12:20:25Z</time>
      </trkpt>
      <trkpt lat="40.470775" lon="-2.693461">
        <ele>833.7</ele>
        <time>2015-02-22T12:20:29Z</time>
      </trkpt>
      <trkpt lat="40.470810" lon="-2.693333">
        <ele>832.9</ele>
        <time>2015-02-22T12:20:33Z</time>
      </trkpt>
      <trkpt lat="40.470863" lon="-2.693216">
        <ele>833.1</ele>
        <time>2015-02-22T12:20:37Z</time>
      </trkpt>
      <trkpt lat="40.470930" lon="-2.693108">
        <ele>833.5</ele>
        <time>2015-02-22T12:20:40Z</time>
      </trkpt>
      <trkpt lat="40.471009" lon="-2.692978">
        <ele>834.0</ele>
        <time>2015-02-22T12:20:43Z</time>
      </trkpt>
      <trkpt lat="40.471057" lon="-2.692871">
        <ele>834.2</ele>
        <time>2015-02-22T12:20:45Z</time>
      </trkpt>
      <trkpt lat="40.471072" lon="-2.692750">
        <ele>834.1</ele>
        <time>2015-02-22T12:20:47Z</time>
      </trkpt>
      <trkpt lat="40.471085" lon="-2.692630">
        <ele>834.0</ele>
        <time>2015-02-22T12:20:49Z</time>
      </trkpt>
      <trkpt lat="40.471122" lon="-2.692522">
        <ele>834.1</ele>
        <time>2015-02-22T12:20:51Z</time>
      </trkpt>
      <trkpt lat="40.471197" lon="-2.692382">
        <ele>834.2</ele>
        <time>2015-02-22T12:20:54Z</time>
      </trkpt>
      <trkpt lat="40.471252" lon="-2.692236">
        <ele>833.9</ele>
        <time>2015-02-22T12:20:57Z</time>
      </trkpt>
      <trkpt lat="40.471292" lon="-2.692077">
        <ele>833.5</ele>
        <time>2015-02-22T12:21:00Z</time>
      </trkpt>
      <trkpt lat="40.471315" lon="-2.691962">
        <ele>833.1</ele>
        <time>2015-02-22T12:21:02Z</time>
      </trkpt>
      <trkpt lat="40.471369" lon="-2.691807">
        <ele>832.6</ele>
        <time>2015-02-22T12:21:05Z</time>
      </trkpt>
      <trkpt lat="40.471435" lon="-2.691668">
        <ele>832.2</ele>
        <time>2015-02-22T12:21:08Z</time>
      </trkpt>
      <trkpt lat="40.471477" lon="-2.691561">
        <ele>832.0</ele>
        <time>2015-02-22T12:21:11Z</time>
      </trkpt>
      <trkpt lat="40.471509" lon="-2.691440">
        <ele>831.7</ele>
        <time>2015-02-22T12:21:14Z</time>
      </trkpt>
      <trkpt lat="40.471560" lon="-2.691300">
        <ele>831.4</ele>
        <time>2015-02-22T12:21:17Z</time>
      </trkpt>
      <trkpt lat="40.471627" lon="-2.691163">
        <ele>831.1</ele>
        <time>2015-02-22T12:21:20Z</time>
      </trkpt>
      <trkpt lat="40.471695" lon="-2.691027">
        <ele>830.9</ele>
        <time>2015-02-22T12:21:23Z</time>
      </trkpt>
      <trkpt lat="40.471763" lon="-2.690895">
        <ele>830.7</ele>
        <time>2015-02-22T12:21:26Z</time>
      </trkpt>
      <trkpt lat="40.471832" lon="-2.690797">
        <ele>830.7</ele>
        <time>2015-02-22T12:21:29Z</time>
      </trkpt>
      <trkpt lat="40.471924" lon="-2.690733">
        <ele>830.8</ele>
        <time>2015-02-22T12:21:32Z</time>
      </trkpt>
      <trkpt lat="40.472003" lon="-2.690646">
        <ele>830.7</ele>
        <time>2015-02-22T12:21:35Z</time>
      </trkpt>
      <trkpt lat="40.472067" lon="-2.690531">
        <ele>830.3</ele>
        <time>2015-02-22T12:21:38Z</time>
      </trkpt>
      <trkpt lat="40.472144" lon="-2.690428">
        <ele>830.1</ele>
        <time>2015-02-22T12:21:41Z</time>
      </trkpt>
      <trkpt lat="40.472200" lon="-2.690295">
        <ele>829.6</ele>
        <time>2015-02-22T12:21:44Z</time>
      </trkpt>
      <trkpt lat="40.472290" lon="-2.690178">
        <ele>829.3</ele>
        <time>2015-02-22T12:21:47Z</time>
      </trkpt>
      <trkpt lat="40.472340" lon="-2.690076">
        <ele>828.9</ele>
        <time>2015-02-22T12:21:49Z</time>
      </trkpt>
      <trkpt lat="40.472420" lon="-2.690003">
        <ele>828.8</ele>
        <time>2015-02-22T12:21:51Z</time>
      </trkpt>
      <trkpt lat="40.472500" lon="-2.689927">
        <ele>828.9</ele>
        <time>2015-02-22T12:21:53Z</time>
      </trkpt>
      <trkpt lat="40.472585" lon="-2.689795">
        <ele>829.1</ele>
        <time>2015-02-22T12:21:56Z</time>
      </trkpt>
      <trkpt lat="40.472657" lon="-2.689650">
        <ele>829.2</ele>
        <time>2015-02-22T12:21:59Z</time>
      </trkpt>
      <trkpt lat="40.472700" lon="-2.689533">
        <ele>829.1</ele>
        <time>2015-02-22T12:22:01Z</time>
      </trkpt>
      <trkpt lat="40.472750" lon="-2.689421">
        <ele>829.1</ele>
        <time>2015-02-22T12:22:03Z</time>
      </trkpt>
      <trkpt lat="40.472799" lon="-2.689321">
        <ele>829.0</ele>
        <time>2015-02-22T12:22:05Z</time>
      </trkpt>
      <trkpt lat="40.472855" lon="-2.689175">
        <ele>828.9</ele>
        <time>2015-02-22T12:22:08Z</time>
      </trkpt>
      <trkpt lat="40.472898" lon="-2.689068">
        <ele>828.8</ele>
        <time>2015-02-22T12:22:10Z</time>
      </trkpt>
      <trkpt lat="40.472965" lon="-2.688923">
        <ele>828.7</ele>
        <time>2015-02-22T12:22:13Z</time>
      </trkpt>
      <trkpt lat="40.473039" lon="-2.688838">
        <ele>828.8</ele>
        <time>2015-02-22T12:22:16Z</time>
      </trkpt>
      <trkpt lat="40.473105" lon="-2.688745">
        <ele>828.8</ele>
        <time>2015-02-22T12:22:19Z</time>
      </trkpt>
      <trkpt lat="40.473152" lon="-2.688600">
        <ele>828.7</ele>
        <time>2015-02-22T12:22:22Z</time>
      </trkpt>
      <trkpt lat="40.473187" lon="-2.688485">
        <ele>828.7</ele>
        <time>2015-02-22T12:22:24Z</time>
      </trkpt>
      <trkpt lat="40.473220" lon="-2.688373">
        <ele>828.7</ele>
        <time>2015-02-22T12:22:26Z</time>
      </trkpt>
      <trkpt lat="40.473280" lon="-2.688252">
        <ele>828.3</ele>
        <time>2015-02-22T12:22:29Z</time>
      </trkpt>
      <trkpt lat="40.473380" lon="-2.688170">
        <ele>828.2</ele>
        <time>2015-02-22T12:22:33Z</time>
      </trkpt>
      <trkpt lat="40.473459" lon="-2.688057">
        <ele>827.7</ele>
        <time>2015-02-22T12:22:37Z</time>
      </trkpt>
      <trkpt lat="40.473500" lon="-2.687950">
        <ele>827.2</ele>
        <time>2015-02-22T12:22:41Z</time>
      </trkpt>
      <trkpt lat="40.473555" lon="-2.687855">
        <ele>826.9</ele>
        <time>2015-02-22T12:22:51Z</time>
      </trkpt>
      <trkpt lat="40.473648" lon="-2.687810">
        <ele>826.9</ele>
        <time>2015-02-22T12:22:56Z</time>
      </trkpt>
      <trkpt lat="40.473765" lon="-2.687746">
        <ele>826.9</ele>
        <time>2015-02-22T12:23:00Z</time>
      </trkpt>
      <trkpt lat="40.473880" lon="-2.687675">
        <ele>826.9</ele>
        <time>2015-02-22T12:23:03Z</time>
      </trkpt>
      <trkpt lat="40.473978" lon="-2.687573">
        <ele>826.7</ele>
        <time>2015-02-22T12:23:06Z</time>
      </trkpt>
      <trkpt lat="40.474054" lon="-2.687453">
        <ele>826.4</ele>
        <time>2015-02-22T12:23:09Z</time>
      </trkpt>
      <trkpt lat="40.474172" lon="-2.687405">
        <ele>826.7</ele>
        <time>2015-02-22T12:23:12Z</time>
      </trkpt>
      <trkpt lat="40.474295" lon="-2.687360">
        <ele>826.7</ele>
        <time>2015-02-22T12:23:15Z</time>
      </trkpt>
      <trkpt lat="40.474395" lon="-2.687260">
        <ele>826.4</ele>
        <time>2015-02-22T12:23:18Z</time>
      </trkpt>
      <trkpt lat="40.474457" lon="-2.687163">
        <ele>826.1</ele>
        <time>2015-02-22T12:23:20Z</time>
      </trkpt>
      <trkpt lat="40.474522" lon="-2.687066">
        <ele>825.9</ele>
        <time>2015-02-22T12:23:22Z</time>
      </trkpt>
      <trkpt lat="40.474590" lon="-2.686981">
        <ele>825.6</ele>
        <time>2015-02-22T12:23:24Z</time>
      </trkpt>
      <trkpt lat="40.474663" lon="-2.686910">
        <ele>825.5</ele>
        <time>2015-02-22T12:23:26Z</time>
      </trkpt>
      <trkpt lat="40.474743" lon="-2.686845">
        <ele>825.3</ele>
        <time>2015-02-22T12:23:28Z</time>
      </trkpt>
      <trkpt lat="40.474863" lon="-2.686766">
        <ele>825.2</ele>
        <time>2015-02-22T12:23:31Z</time>
      </trkpt>
      <trkpt lat="40.474947" lon="-2.686708">
        <ele>825.1</ele>
        <time>2015-02-22T12:23:33Z</time>
      </trkpt>
      <trkpt lat="40.475030" lon="-2.686648">
        <ele>825.0</ele>
        <time>2015-02-22T12:23:35Z</time>
      </trkpt>
      <trkpt lat="40.475110" lon="-2.686590">
        <ele>825.0</ele>
        <time>2015-02-22T12:23:37Z</time>
      </trkpt>
      <trkpt lat="40.475225" lon="-2.686510">
        <ele>824.9</ele>
        <time>2015-02-22T12:23:40Z</time>
      </trkpt>
      <trkpt lat="40.475312" lon="-2.686393">
        <ele>824.7</ele>
        <time>2015-02-22T12:23:43Z</time>
      </trkpt>
      <trkpt lat="40.475298" lon="-2.686268">
        <ele>824.4</ele>
        <time>2015-02-22T12:23:46Z</time>
      </trkpt>
      <trkpt lat="40.475245" lon="-2.686135">
        <ele>824.1</ele>
        <time>2015-02-22T12:23:49Z</time>
      </trkpt>
      <trkpt lat="40.475212" lon="-2.685993">
        <ele>823.9</ele>
        <time>2015-02-22T12:23:52Z</time>
      </trkpt>
      <trkpt lat="40.475187" lon="-2.685866">
        <ele>823.6</ele>
        <time>2015-02-22T12:23:55Z</time>
      </trkpt>
      <trkpt lat="40.475162" lon="-2.685718">
        <ele>823.7</ele>
        <time>2015-02-22T12:23:59Z</time>
      </trkpt>
      <trkpt lat="40.475145" lon="-2.685562">
        <ele>823.9</ele>
        <time>2015-02-22T12:24:03Z</time>
      </trkpt>
      <trkpt lat="40.475129" lon="-2.685423">
        <ele>824.1</ele>
        <time>2015-02-22T12:24:07Z</time>
      </trkpt>
      <trkpt lat="40.475115" lon="-2.685300">
        <ele>824.3</ele>
        <time>2015-02-22T12:24:11Z</time>
      </trkpt>
      <trkpt lat="40.475103" lon="-2.685166">
        <ele>824.4</ele>
        <time>2015-02-22T12:24:15Z</time>
      </trkpt>
      <trkpt lat="40.475085" lon="-2.685025">
        <ele>824.7</ele>
        <time>2015-02-22T12:24:20Z</time>
      </trkpt>
      <trkpt lat="40.475068" lon="-2.684905">
        <ele>826.1</ele>
        <time>2015-02-22T12:24:25Z</time>
      </trkpt>
      <trkpt lat="40.475042" lon="-2.684785">
        <ele>828.1</ele>
        <time>2015-02-22T12:24:30Z</time>
      </trkpt>
      <trkpt lat="40.474957" lon="-2.684725">
        <ele>829.4</ele>
        <time>2015-02-22T12:24:35Z</time>
      </trkpt>
      <trkpt lat="40.474883" lon="-2.684647">
        <ele>830.8</ele>
        <time>2015-02-22T12:24:40Z</time>
      </trkpt>
      <trkpt lat="40.474827" lon="-2.684536">
        <ele>832.6</ele>
        <time>2015-02-22T12:24:45Z</time>
      </trkpt>
      <trkpt lat="40.474777" lon="-2.684426">
        <ele>834.6</ele>
        <time>2015-02-22T12:24:50Z</time>
      </trkpt>
      <trkpt lat="40.474717" lon="-2.684306">
        <ele>836.5</ele>
        <time>2015-02-22T12:24:55Z</time>
      </trkpt>
      <trkpt lat="40.474638" lon="-2.684227">
        <ele>837.9</ele>
        <time>2015-02-22T12:24:59Z</time>
      </trkpt>
      <trkpt lat="40.474575" lon="-2.684115">
        <ele>839.9</ele>
        <time>2015-02-22T12:25:03Z</time>
      </trkpt>
      <trkpt lat="40.474527" lon="-2.683976">
        <ele>842.0</ele>
        <time>2015-02-22T12:25:07Z</time>
      </trkpt>
      <trkpt lat="40.474499" lon="-2.683861">
        <ele>843.9</ele>
        <time>2015-02-22T12:25:10Z</time>
      </trkpt>
      <trkpt lat="40.474465" lon="-2.683733">
        <ele>845.9</ele>
        <time>2015-02-22T12:25:13Z</time>
      </trkpt>
      <trkpt lat="40.474423" lon="-2.683606">
        <ele>847.8</ele>
        <time>2015-02-22T12:25:16Z</time>
      </trkpt>
      <trkpt lat="40.474392" lon="-2.683483">
        <ele>849.5</ele>
        <time>2015-02-22T12:25:19Z</time>
      </trkpt>
      <trkpt lat="40.474362" lon="-2.683368">
        <ele>851.1</ele>
        <time>2015-02-22T12:25:22Z</time>
      </trkpt>
      <trkpt lat="40.474347" lon="-2.683247">
        <ele>851.2</ele>
        <time>2015-02-22T12:25:25Z</time>
      </trkpt>
      <trkpt lat="40.474332" lon="-2.683128">
        <ele>850.3</ele>
        <time>2015-02-22T12:25:28Z</time>
      </trkpt>
      <trkpt lat="40.474302" lon="-2.683017">
        <ele>849.4</ele>
        <time>2015-02-22T12:25:31Z</time>
      </trkpt>
      <trkpt lat="40.474272" lon="-2.682882">
        <ele>848.4</ele>
        <time>2015-02-22T12:25:35Z</time>
      </trkpt>
      <trkpt lat="40.474223" lon="-2.682762">
        <ele>847.2</ele>
        <time>2015-02-22T12:25:40Z</time>
      </trkpt>
      <trkpt lat="40.474137" lon="-2.682725">
        <ele>846.4</ele>
        <time>2015-02-22T12:25:45Z</time>
      </trkpt>
      <trkpt lat="40.474044" lon="-2.682726">
        <ele>845.7</ele>
        <time>2015-02-22T12:25:52Z</time>
      </trkpt>
      <trkpt lat="40.473954" lon="-2.682723">
        <ele>844.9</ele>
        <time>2015-02-22T12:26:31Z</time>
      </trkpt>
      <trkpt lat="40.473853" lon="-2.682728">
        <ele>844.1</ele>
        <time>2015-02-22T12:27:00Z</time>
      </trkpt>
      <trkpt lat="40.473742" lon="-2.682683">
        <ele>843.0</ele>
        <time>2015-02-22T12:27:04Z</time>
      </trkpt>
      <trkpt lat="40.473652" lon="-2.682660">
        <ele>842.3</ele>
        <time>2015-02-22T12:27:07Z</time>
      </trkpt>
      <trkpt lat="40.473518" lon="-2.682682">
        <ele>841.2</ele>
        <time>2015-02-22T12:27:10Z</time>
      </trkpt>
      <trkpt lat="40.473405" lon="-2.682685">
        <ele>840.3</ele>
        <time>2015-02-22T12:27:12Z</time>
      </trkpt>
      <trkpt lat="40.473285" lon="-2.682635">
        <ele>839.5</ele>
        <time>2015-02-22T12:27:14Z</time>
      </trkpt>
      <trkpt lat="40.473169" lon="-2.682558">
        <ele>838.9</ele>
        <time>2015-02-22T12:27:16Z</time>
      </trkpt>
      <trkpt lat="40.473070" lon="-2.682468">
        <ele>838.4</ele>
        <time>2015-02-22T12:27:18Z</time>
      </trkpt>
      <trkpt lat="40.472992" lon="-2.682390">
        <ele>838.2</ele>
        <time>2015-02-22T12:27:20Z</time>
      </trkpt>
      <trkpt lat="40.472878" lon="-2.682325">
        <ele>838.3</ele>
        <time>2015-02-22T12:27:23Z</time>
      </trkpt>
      <trkpt lat="40.472782" lon="-2.682295">
        <ele>838.3</ele>
        <time>2015-02-22T12:27:25Z</time>
      </trkpt>
      <trkpt lat="40.472674" lon="-2.682273">
        <ele>838.5</ele>
        <time>2015-02-22T12:27:27Z</time>
      </trkpt>
      <trkpt lat="40.472558" lon="-2.682255">
        <ele>838.7</ele>
        <time>2015-02-22T12:27:29Z</time>
      </trkpt>
      <trkpt lat="40.472437" lon="-2.682213">
        <ele>839.1</ele>
        <time>2015-02-22T12:27:31Z</time>
      </trkpt>
      <trkpt lat="40.472317" lon="-2.682188">
        <ele>838.9</ele>
        <time>2015-02-22T12:27:33Z</time>
      </trkpt>
      <trkpt lat="40.472178" lon="-2.682175">
        <ele>838.4</ele>
        <time>2015-02-22T12:27:35Z</time>
      </trkpt>
      <trkpt lat="40.472037" lon="-2.682148">
        <ele>838.1</ele>
        <time>2015-02-22T12:27:37Z</time>
      </trkpt>
      <trkpt lat="40.471894" lon="-2.682108">
        <ele>838.1</ele>
        <time>2015-02-22T12:27:39Z</time>
      </trkpt>
      <trkpt lat="40.471725" lon="-2.682097">
        <ele>837.5</ele>
        <time>2015-02-22T12:27:41Z</time>
      </trkpt>
      <trkpt lat="40.471630" lon="-2.682087">
        <ele>836.7</ele>
        <time>2015-02-22T12:27:42Z</time>
      </trkpt>
      <trkpt lat="40.471533" lon="-2.682080">
        <ele>835.4</ele>
        <time>2015-02-22T12:27:43Z</time>
      </trkpt>
      <trkpt lat="40.471433" lon="-2.682078">
        <ele>833.9</ele>
        <time>2015-02-22T12:27:44Z</time>
      </trkpt>
      <trkpt lat="40.471334" lon="-2.682076">
        <ele>832.3</ele>
        <time>2015-02-22T12:27:45Z</time>
      </trkpt>
      <trkpt lat="40.471235" lon="-2.682070">
        <ele>830.9</ele>
        <time>2015-02-22T12:27:46Z</time>
      </trkpt>
      <trkpt lat="40.471140" lon="-2.682051">
        <ele>829.5</ele>
        <time>2015-02-22T12:27:47Z</time>
      </trkpt>
      <trkpt lat="40.471049" lon="-2.682023">
        <ele>828.3</ele>
        <time>2015-02-22T12:27:48Z</time>
      </trkpt>
      <trkpt lat="40.470958" lon="-2.681992">
        <ele>827.0</ele>
        <time>2015-02-22T12:27:49Z</time>
      </trkpt>
      <trkpt lat="40.470870" lon="-2.681960">
        <ele>825.6</ele>
        <time>2015-02-22T12:27:50Z</time>
      </trkpt>
      <trkpt lat="40.470697" lon="-2.681897">
        <ele>823.8</ele>
        <time>2015-02-22T12:27:52Z</time>
      </trkpt>
      <trkpt lat="40.470610" lon="-2.681858">
        <ele>823.1</ele>
        <time>2015-02-22T12:27:53Z</time>
      </trkpt>
      <trkpt lat="40.470449" lon="-2.681785">
        <ele>821.6</ele>
        <time>2015-02-22T12:27:55Z</time>
      </trkpt>
      <trkpt lat="40.470303" lon="-2.681716">
        <ele>820.2</ele>
        <time>2015-02-22T12:27:57Z</time>
      </trkpt>
      <trkpt lat="40.470175" lon="-2.681621">
        <ele>818.5</ele>
        <time>2015-02-22T12:27:59Z</time>
      </trkpt>
      <trkpt lat="40.470070" lon="-2.681485">
        <ele>815.9</ele>
        <time>2015-02-22T12:28:01Z</time>
      </trkpt>
      <trkpt lat="40.469970" lon="-2.681323">
        <ele>813.4</ele>
        <time>2015-02-22T12:28:03Z</time>
      </trkpt>
      <trkpt lat="40.469862" lon="-2.681150">
        <ele>811.8</ele>
        <time>2015-02-22T12:28:05Z</time>
      </trkpt>
      <trkpt lat="40.469748" lon="-2.680973">
        <ele>810.1</ele>
        <time>2015-02-22T12:28:07Z</time>
      </trkpt>
      <trkpt lat="40.469642" lon="-2.680823">
        <ele>808.9</ele>
        <time>2015-02-22T12:28:09Z</time>
      </trkpt>
      <trkpt lat="40.469547" lon="-2.680708">
        <ele>808.2</ele>
        <time>2015-02-22T12:28:11Z</time>
      </trkpt>
      <trkpt lat="40.469454" lon="-2.680606">
        <ele>807.8</ele>
        <time>2015-02-22T12:28:13Z</time>
      </trkpt>
      <trkpt lat="40.469364" lon="-2.680511">
        <ele>807.6</ele>
        <time>2015-02-22T12:28:15Z</time>
      </trkpt>
      <trkpt lat="40.469290" lon="-2.680432">
        <ele>807.4</ele>
        <time>2015-02-22T12:28:17Z</time>
      </trkpt>
      <trkpt lat="40.469222" lon="-2.680350">
        <ele>807.4</ele>
        <time>2015-02-22T12:28:19Z</time>
      </trkpt>
      <trkpt lat="40.469162" lon="-2.680260">
        <ele>807.3</ele>
        <time>2015-02-22T12:28:21Z</time>
      </trkpt>
      <trkpt lat="40.469092" lon="-2.680118">
        <ele>807.3</ele>
        <time>2015-02-22T12:28:24Z</time>
      </trkpt>
      <trkpt lat="40.469035" lon="-2.680005">
        <ele>807.5</ele>
        <time>2015-02-22T12:28:27Z</time>
      </trkpt>
      <trkpt lat="40.468967" lon="-2.679903">
        <ele>807.3</ele>
        <time>2015-02-22T12:28:30Z</time>
      </trkpt>
      <trkpt lat="40.468885" lon="-2.679815">
        <ele>807.3</ele>
        <time>2015-02-22T12:28:33Z</time>
      </trkpt>
      <trkpt lat="40.468823" lon="-2.679711">
        <ele>807.1</ele>
        <time>2015-02-22T12:28:36Z</time>
      </trkpt>
      <trkpt lat="40.468830" lon="-2.679568">
        <ele>805.7</ele>
        <time>2015-02-22T12:28:39Z</time>
      </trkpt>
      <trkpt lat="40.468868" lon="-2.679457">
        <ele>804.3</ele>
        <time>2015-02-22T12:28:41Z</time>
      </trkpt>
      <trkpt lat="40.468892" lon="-2.679342">
        <ele>803.0</ele>
        <time>2015-02-22T12:28:43Z</time>
      </trkpt>
      <trkpt lat="40.468904" lon="-2.679170">
        <ele>801.3</ele>
        <time>2015-02-22T12:28:46Z</time>
      </trkpt>
      <trkpt lat="40.468894" lon="-2.679043">
        <ele>801.0</ele>
        <time>2015-02-22T12:28:48Z</time>
      </trkpt>
      <trkpt lat="40.468879" lon="-2.678905">
        <ele>800.8</ele>
        <time>2015-02-22T12:28:50Z</time>
      </trkpt>
      <trkpt lat="40.468857" lon="-2.678772">
        <ele>800.8</ele>
        <time>2015-02-22T12:28:52Z</time>
      </trkpt>
      <trkpt lat="40.468780" lon="-2.678681">
        <ele>801.7</ele>
        <time>2015-02-22T12:28:54Z</time>
      </trkpt>
      <trkpt lat="40.468687" lon="-2.678650">
        <ele>803.0</ele>
        <time>2015-02-22T12:28:56Z</time>
      </trkpt>
      <trkpt lat="40.468584" lon="-2.678650">
        <ele>804.4</ele>
        <time>2015-02-22T12:28:58Z</time>
      </trkpt>
      <trkpt lat="40.468465" lon="-2.678673">
        <ele>806.1</ele>
        <time>2015-02-22T12:29:00Z</time>
      </trkpt>
      <trkpt lat="40.468330" lon="-2.678681">
        <ele>808.0</ele>
        <time>2015-02-22T12:29:02Z</time>
      </trkpt>
      <trkpt lat="40.468205" lon="-2.678690">
        <ele>808.0</ele>
        <time>2015-02-22T12:29:04Z</time>
      </trkpt>
      <trkpt lat="40.468068" lon="-2.678668">
        <ele>808.1</ele>
        <time>2015-02-22T12:29:06Z</time>
      </trkpt>
      <trkpt lat="40.467920" lon="-2.678618">
        <ele>808.0</ele>
        <time>2015-02-22T12:29:08Z</time>
      </trkpt>
      <trkpt lat="40.467760" lon="-2.678567">
        <ele>807.9</ele>
        <time>2015-02-22T12:29:10Z</time>
      </trkpt>
      <trkpt lat="40.467590" lon="-2.678562">
        <ele>807.9</ele>
        <time>2015-02-22T12:29:12Z</time>
      </trkpt>
      <trkpt lat="40.467430" lon="-2.678588">
        <ele>807.2</ele>
        <time>2015-02-22T12:29:14Z</time>
      </trkpt>
      <trkpt lat="40.467268" lon="-2.678570">
        <ele>805.3</ele>
        <time>2015-02-22T12:29:16Z</time>
      </trkpt>
      <trkpt lat="40.467102" lon="-2.678578">
        <ele>803.5</ele>
        <time>2015-02-22T12:29:18Z</time>
      </trkpt>
      <trkpt lat="40.466940" lon="-2.678571">
        <ele>801.7</ele>
        <time>2015-02-22T12:29:20Z</time>
      </trkpt>
      <trkpt lat="40.466785" lon="-2.678558">
        <ele>800.0</ele>
        <time>2015-02-22T12:29:22Z</time>
      </trkpt>
      <trkpt lat="40.466632" lon="-2.678580">
        <ele>798.4</ele>
        <time>2015-02-22T12:29:24Z</time>
      </trkpt>
      <trkpt lat="40.466488" lon="-2.678633">
        <ele>797.2</ele>
        <time>2015-02-22T12:29:26Z</time>
      </trkpt>
      <trkpt lat="40.466353" lon="-2.678677">
        <ele>796.1</ele>
        <time>2015-02-22T12:29:28Z</time>
      </trkpt>
      <trkpt lat="40.466224" lon="-2.678691">
        <ele>795.0</ele>
        <time>2015-02-22T12:29:30Z</time>
      </trkpt>
      <trkpt lat="40.466095" lon="-2.678690">
        <ele>794.0</ele>
        <time>2015-02-22T12:29:32Z</time>
      </trkpt>
      <trkpt lat="40.465965" lon="-2.678681">
        <ele>792.9</ele>
        <time>2015-02-22T12:29:34Z</time>
      </trkpt>
      <trkpt lat="40.465840" lon="-2.678673">
        <ele>791.9</ele>
        <time>2015-02-22T12:29:36Z</time>
      </trkpt>
      <trkpt lat="40.465722" lon="-2.678660">
        <ele>791.8</ele>
        <time>2015-02-22T12:29:38Z</time>
      </trkpt>
      <trkpt lat="40.465615" lon="-2.678643">
        <ele>791.7</ele>
        <time>2015-02-22T12:29:40Z</time>
      </trkpt>
      <trkpt lat="40.465522" lon="-2.678632">
        <ele>791.6</ele>
        <time>2015-02-22T12:29:42Z</time>
      </trkpt>
      <trkpt lat="40.465420" lon="-2.678585">
        <ele>791.4</ele>
        <time>2015-02-22T12:29:45Z</time>
      </trkpt>
      <trkpt lat="40.465325" lon="-2.678581">
        <ele>791.3</ele>
        <time>2015-02-22T12:29:48Z</time>
      </trkpt>
      <trkpt lat="40.465230" lon="-2.678640">
        <ele>791.7</ele>
        <time>2015-02-22T12:29:51Z</time>
      </trkpt>
      <trkpt lat="40.465148" lon="-2.678696">
        <ele>792.0</ele>
        <time>2015-02-22T12:29:54Z</time>
      </trkpt>
      <trkpt lat="40.465060" lon="-2.678735">
        <ele>792.4</ele>
        <time>2015-02-22T12:29:57Z</time>
      </trkpt>
      <trkpt lat="40.464972" lon="-2.678765">
        <ele>792.8</ele>
        <time>2015-02-22T12:30:00Z</time>
      </trkpt>
      <trkpt lat="40.464879" lon="-2.678785">
        <ele>793.9</ele>
        <time>2015-02-22T12:30:03Z</time>
      </trkpt>
      <trkpt lat="40.464787" lon="-2.678803">
        <ele>794.8</ele>
        <time>2015-02-22T12:30:06Z</time>
      </trkpt>
      <trkpt lat="40.464688" lon="-2.678816">
        <ele>795.8</ele>
        <time>2015-02-22T12:30:09Z</time>
      </trkpt>
      <trkpt lat="40.464587" lon="-2.678826">
        <ele>796.8</ele>
        <time>2015-02-22T12:30:12Z</time>
      </trkpt>
      <trkpt lat="40.464480" lon="-2.678841">
        <ele>797.9</ele>
        <time>2015-02-22T12:30:15Z</time>
      </trkpt>
      <trkpt lat="40.464372" lon="-2.678883">
        <ele>799.5</ele>
        <time>2015-02-22T12:30:18Z</time>
      </trkpt>
      <trkpt lat="40.464263" lon="-2.678941">
        <ele>801.1</ele>
        <time>2015-02-22T12:30:21Z</time>
      </trkpt>
      <trkpt lat="40.464130" lon="-2.678956">
        <ele>802.1</ele>
        <time>2015-02-22T12:30:24Z</time>
      </trkpt>
      <trkpt lat="40.464040" lon="-2.678945">
        <ele>801.5</ele>
        <time>2015-02-22T12:30:26Z</time>
      </trkpt>
      <trkpt lat="40.463910" lon="-2.678943">
        <ele>800.9</ele>
        <time>2015-02-22T12:30:29Z</time>
      </trkpt>
      <trkpt lat="40.463784" lon="-2.678997">
        <ele>801.0</ele>
        <time>2015-02-22T12:30:32Z</time>
      </trkpt>
      <trkpt lat="40.463662" lon="-2.678992">
        <ele>800.5</ele>
        <time>2015-02-22T12:30:35Z</time>
      </trkpt>
      <trkpt lat="40.463575" lon="-2.678926">
        <ele>799.3</ele>
        <time>2015-02-22T12:30:38Z</time>
      </trkpt>
      <trkpt lat="40.463503" lon="-2.678833">
        <ele>797.8</ele>
        <time>2015-02-22T12:30:41Z</time>
      </trkpt>
      <trkpt lat="40.463435" lon="-2.678733">
        <ele>796.3</ele>
        <time>2015-02-22T12:30:44Z</time>
      </trkpt>
      <trkpt lat="40.463367" lon="-2.678630">
        <ele>794.7</ele>
        <time>2015-02-22T12:30:48Z</time>
      </trkpt>
      <trkpt lat="40.463299" lon="-2.678545">
        <ele>793.9</ele>
        <time>2015-02-22T12:30:51Z</time>
      </trkpt>
      <trkpt lat="40.463209" lon="-2.678483">
        <ele>793.9</ele>
        <time>2015-02-22T12:30:55Z</time>
      </trkpt>
      <trkpt lat="40.463108" lon="-2.678470">
        <ele>794.6</ele>
        <time>2015-02-22T12:30:59Z</time>
      </trkpt>
      <trkpt lat="40.463018" lon="-2.678466">
        <ele>795.3</ele>
        <time>2015-02-22T12:31:03Z</time>
      </trkpt>
      <trkpt lat="40.462909" lon="-2.678458">
        <ele>796.1</ele>
        <time>2015-02-22T12:31:08Z</time>
      </trkpt>
      <trkpt lat="40.462818" lon="-2.678470">
        <ele>797.0</ele>
        <time>2015-02-22T12:31:12Z</time>
      </trkpt>
      <trkpt lat="40.462715" lon="-2.678498">
        <ele>798.2</ele>
        <time>2015-02-22T12:31:17Z</time>
      </trkpt>
      <trkpt lat="40.462622" lon="-2.678530">
        <ele>799.3</ele>
        <time>2015-02-22T12:31:22Z</time>
      </trkpt>
      <trkpt lat="40.462527" lon="-2.678552">
        <ele>800.4</ele>
        <time>2015-02-22T12:31:27Z</time>
      </trkpt>
      <trkpt lat="40.462424" lon="-2.678567">
        <ele>801.6</ele>
        <time>2015-02-22T12:31:32Z</time>
      </trkpt>
      <trkpt lat="40.462317" lon="-2.678568">
        <ele>802.7</ele>
        <time>2015-02-22T12:31:37Z</time>
      </trkpt>
      <trkpt lat="40.462225" lon="-2.678578">
        <ele>803.8</ele>
        <time>2015-02-22T12:31:40Z</time>
      </trkpt>
      <trkpt lat="40.462112" lon="-2.678586">
        <ele>805.1</ele>
        <time>2015-02-22T12:31:43Z</time>
      </trkpt>
      <trkpt lat="40.462022" lon="-2.678596">
        <ele>806.3</ele>
        <time>2015-02-22T12:31:46Z</time>
      </trkpt>
      <trkpt lat="40.461918" lon="-2.678613">
        <ele>807.5</ele>
        <time>2015-02-22T12:31:50Z</time>
      </trkpt>
      <trkpt lat="40.461839" lon="-2.678672">
        <ele>809.1</ele>
        <time>2015-02-22T12:31:56Z</time>
      </trkpt>
      <trkpt lat="40.461774" lon="-2.678765">
        <ele>811.0</ele>
        <time>2015-02-22T12:32:02Z</time>
      </trkpt>
      <trkpt lat="40.461690" lon="-2.678877">
        <ele>813.6</ele>
        <time>2015-02-22T12:33:17Z</time>
      </trkpt>
      <trkpt lat="40.461620" lon="-2.678961">
        <ele>815.2</ele>
        <time>2015-02-22T12:33:19Z</time>
      </trkpt>
      <trkpt lat="40.461525" lon="-2.679071">
        <ele>816.5</ele>
        <time>2015-02-22T12:33:21Z</time>
      </trkpt>
      <trkpt lat="40.461425" lon="-2.679213">
        <ele>817.8</ele>
        <time>2015-02-22T12:33:23Z</time>
      </trkpt>
      <trkpt lat="40.461323" lon="-2.679361">
        <ele>818.2</ele>
        <time>2015-02-22T12:33:25Z</time>
      </trkpt>
      <trkpt lat="40.461214" lon="-2.679478">
        <ele>818.0</ele>
        <time>2015-02-22T12:33:27Z</time>
      </trkpt>
      <trkpt lat="40.461077" lon="-2.679505">
        <ele>817.1</ele>
        <time>2015-02-22T12:33:29Z</time>
      </trkpt>
      <trkpt lat="40.460932" lon="-2.679496">
        <ele>815.9</ele>
        <time>2015-02-22T12:33:31Z</time>
      </trkpt>
      <trkpt lat="40.460787" lon="-2.679542">
        <ele>814.6</ele>
        <time>2015-02-22T12:33:33Z</time>
      </trkpt>
      <trkpt lat="40.460654" lon="-2.679630">
        <ele>812.7</ele>
        <time>2015-02-22T12:33:35Z</time>
      </trkpt>
      <trkpt lat="40.460539" lon="-2.679765">
        <ele>810.7</ele>
        <time>2015-02-22T12:33:37Z</time>
      </trkpt>
      <trkpt lat="40.460429" lon="-2.679908">
        <ele>808.6</ele>
        <time>2015-02-22T12:33:39Z</time>
      </trkpt>
      <trkpt lat="40.460314" lon="-2.680038">
        <ele>806.6</ele>
        <time>2015-02-22T12:33:41Z</time>
      </trkpt>
      <trkpt lat="40.460177" lon="-2.680155">
        <ele>804.6</ele>
        <time>2015-02-22T12:33:43Z</time>
      </trkpt>
      <trkpt lat="40.460032" lon="-2.680288">
        <ele>802.2</ele>
        <time>2015-02-22T12:33:45Z</time>
      </trkpt>
      <trkpt lat="40.459970" lon="-2.680375">
        <ele>801.5</ele>
        <time>2015-02-22T12:33:46Z</time>
      </trkpt>
      <trkpt lat="40.459912" lon="-2.680466">
        <ele>801.1</ele>
        <time>2015-02-22T12:33:47Z</time>
      </trkpt>
      <trkpt lat="40.459850" lon="-2.680553">
        <ele>800.5</ele>
        <time>2015-02-22T12:33:48Z</time>
      </trkpt>
      <trkpt lat="40.459724" lon="-2.680716">
        <ele>799.2</ele>
        <time>2015-02-22T12:33:50Z</time>
      </trkpt>
      <trkpt lat="40.459583" lon="-2.680852">
        <ele>797.4</ele>
        <time>2015-02-22T12:33:52Z</time>
      </trkpt>
      <trkpt lat="40.459442" lon="-2.680951">
        <ele>795.9</ele>
        <time>2015-02-22T12:33:54Z</time>
      </trkpt>
      <trkpt lat="40.459314" lon="-2.681060">
        <ele>794.4</ele>
        <time>2015-02-22T12:33:56Z</time>
      </trkpt>
      <trkpt lat="40.459195" lon="-2.681160">
        <ele>793.1</ele>
        <time>2015-02-22T12:33:58Z</time>
      </trkpt>
      <trkpt lat="40.459065" lon="-2.681228">
        <ele>792.9</ele>
        <time>2015-02-22T12:34:00Z</time>
      </trkpt>
      <trkpt lat="40.458940" lon="-2.681301">
        <ele>792.8</ele>
        <time>2015-02-22T12:34:02Z</time>
      </trkpt>
      <trkpt lat="40.458847" lon="-2.681425">
        <ele>792.0</ele>
        <time>2015-02-22T12:34:04Z</time>
      </trkpt>
      <trkpt lat="40.458750" lon="-2.681538">
        <ele>791.2</ele>
        <time>2015-02-22T12:34:06Z</time>
      </trkpt>
      <trkpt lat="40.458635" lon="-2.681635">
        <ele>790.0</ele>
        <time>2015-02-22T12:34:08Z</time>
      </trkpt>
      <trkpt lat="40.458522" lon="-2.681726">
        <ele>789.0</ele>
        <time>2015-02-22T12:34:10Z</time>
      </trkpt>
      <trkpt lat="40.458409" lon="-2.681825">
        <ele>788.1</ele>
        <time>2015-02-22T12:34:12Z</time>
      </trkpt>
      <trkpt lat="40.458279" lon="-2.681915">
        <ele>787.4</ele>
        <time>2015-02-22T12:34:14Z</time>
      </trkpt>
      <trkpt lat="40.458154" lon="-2.682008">
        <ele>787.0</ele>
        <time>2015-02-22T12:34:16Z</time>
      </trkpt>
      <trkpt lat="40.458042" lon="-2.682118">
        <ele>786.3</ele>
        <time>2015-02-22T12:34:18Z</time>
      </trkpt>
      <trkpt lat="40.457952" lon="-2.682243">
        <ele>785.3</ele>
        <time>2015-02-22T12:34:20Z</time>
      </trkpt>
      <trkpt lat="40.457860" lon="-2.682347">
        <ele>784.4</ele>
        <time>2015-02-22T12:34:22Z</time>
      </trkpt>
      <trkpt lat="40.457770" lon="-2.682423">
        <ele>783.8</ele>
        <time>2015-02-22T12:34:24Z</time>
      </trkpt>
      <trkpt lat="40.457660" lon="-2.682516">
        <ele>783.0</ele>
        <time>2015-02-22T12:34:27Z</time>
      </trkpt>
      <trkpt lat="40.457555" lon="-2.682591">
        <ele>783.0</ele>
        <time>2015-02-22T12:34:30Z</time>
      </trkpt>
      <trkpt lat="40.457442" lon="-2.682673">
        <ele>783.6</ele>
        <time>2015-02-22T12:34:33Z</time>
      </trkpt>
      <trkpt lat="40.457355" lon="-2.682735">
        <ele>784.4</ele>
        <time>2015-02-22T12:34:35Z</time>
      </trkpt>
      <trkpt lat="40.457265" lon="-2.682798">
        <ele>785.2</ele>
        <time>2015-02-22T12:34:37Z</time>
      </trkpt>
      <trkpt lat="40.457170" lon="-2.682855">
        <ele>785.9</ele>
        <time>2015-02-22T12:34:39Z</time>
      </trkpt>
      <trkpt lat="40.457075" lon="-2.682921">
        <ele>786.5</ele>
        <time>2015-02-22T12:34:41Z</time>
      </trkpt>
      <trkpt lat="40.456970" lon="-2.682995">
        <ele>787.1</ele>
        <time>2015-02-22T12:34:43Z</time>
      </trkpt>
      <trkpt lat="40.456869" lon="-2.683063">
        <ele>787.5</ele>
        <time>2015-02-22T12:34:45Z</time>
      </trkpt>
      <trkpt lat="40.456775" lon="-2.683122">
        <ele>787.8</ele>
        <time>2015-02-22T12:34:47Z</time>
      </trkpt>
      <trkpt lat="40.456687" lon="-2.683200">
        <ele>787.8</ele>
        <time>2015-02-22T12:34:49Z</time>
      </trkpt>
      <trkpt lat="40.456597" lon="-2.683295">
        <ele>787.6</ele>
        <time>2015-02-22T12:34:51Z</time>
      </trkpt>
      <trkpt lat="40.456489" lon="-2.683380">
        <ele>787.5</ele>
        <time>2015-02-22T12:34:53Z</time>
      </trkpt>
      <trkpt lat="40.456364" lon="-2.683452">
        <ele>787.7</ele>
        <time>2015-02-22T12:34:55Z</time>
      </trkpt>
      <trkpt lat="40.456220" lon="-2.683523">
        <ele>787.8</ele>
        <time>2015-02-22T12:34:57Z</time>
      </trkpt>
      <trkpt lat="40.456064" lon="-2.683577">
        <ele>788.2</ele>
        <time>2015-02-22T12:34:59Z</time>
      </trkpt>
      <trkpt lat="40.455917" lon="-2.683626">
        <ele>788.5</ele>
        <time>2015-02-22T12:35:01Z</time>
      </trkpt>
      <trkpt lat="40.455763" lon="-2.683685">
        <ele>788.4</ele>
        <time>2015-02-22T12:35:03Z</time>
      </trkpt>
      <trkpt lat="40.455604" lon="-2.683746">
        <ele>787.7</ele>
        <time>2015-02-22T12:35:05Z</time>
      </trkpt>
      <trkpt lat="40.455442" lon="-2.683800">
        <ele>787.1</ele>
        <time>2015-02-22T12:35:07Z</time>
      </trkpt>
      <trkpt lat="40.455282" lon="-2.683855">
        <ele>786.4</ele>
        <time>2015-02-22T12:35:09Z</time>
      </trkpt>
      <trkpt lat="40.455120" lon="-2.683905">
        <ele>785.7</ele>
        <time>2015-02-22T12:35:11Z</time>
      </trkpt>
      <trkpt lat="40.454955" lon="-2.683943">
        <ele>784.7</ele>
        <time>2015-02-22T12:35:13Z</time>
      </trkpt>
      <trkpt lat="40.454788" lon="-2.683990">
        <ele>783.0</ele>
        <time>2015-02-22T12:35:15Z</time>
      </trkpt>
      <trkpt lat="40.454632" lon="-2.684075">
        <ele>781.3</ele>
        <time>2015-02-22T12:35:17Z</time>
      </trkpt>
      <trkpt lat="40.454510" lon="-2.684198">
        <ele>779.9</ele>
        <time>2015-02-22T12:35:19Z</time>
      </trkpt>
      <trkpt lat="40.454417" lon="-2.684273">
        <ele>779.0</ele>
        <time>2015-02-22T12:35:21Z</time>
      </trkpt>
      <trkpt lat="40.454312" lon="-2.684311">
        <ele>778.3</ele>
        <time>2015-02-22T12:35:24Z</time>
      </trkpt>
      <trkpt lat="40.454192" lon="-2.684301">
        <ele>777.6</ele>
        <time>2015-02-22T12:35:47Z</time>
      </trkpt>
      <trkpt lat="40.454054" lon="-2.684291">
        <ele>776.5</ele>
        <time>2015-02-22T12:35:49Z</time>
      </trkpt>
      <trkpt lat="40.453885" lon="-2.684266">
        <ele>774.9</ele>
        <time>2015-02-22T12:35:51Z</time>
      </trkpt>
      <trkpt lat="40.453795" lon="-2.684260">
        <ele>774.1</ele>
        <time>2015-02-22T12:35:52Z</time>
      </trkpt>
      <trkpt lat="40.453625" lon="-2.684248">
        <ele>772.4</ele>
        <time>2015-02-22T12:35:54Z</time>
      </trkpt>
      <trkpt lat="40.453485" lon="-2.684191">
        <ele>770.8</ele>
        <time>2015-02-22T12:35:56Z</time>
      </trkpt>
      <trkpt lat="40.453364" lon="-2.684112">
        <ele>768.7</ele>
        <time>2015-02-22T12:35:58Z</time>
      </trkpt>
      <trkpt lat="40.453222" lon="-2.684053">
        <ele>766.8</ele>
        <time>2015-02-22T12:36:00Z</time>
      </trkpt>
      <trkpt lat="40.453057" lon="-2.684018">
        <ele>765.0</ele>
        <time>2015-02-22T12:36:02Z</time>
      </trkpt>
      <trkpt lat="40.452888" lon="-2.684005">
        <ele>763.6</ele>
        <time>2015-02-22T12:36:04Z</time>
      </trkpt>
      <trkpt lat="40.452743" lon="-2.683988">
        <ele>762.2</ele>
        <time>2015-02-22T12:36:06Z</time>
      </trkpt>
      <trkpt lat="40.452615" lon="-2.683955">
        <ele>760.4</ele>
        <time>2015-02-22T12:36:08Z</time>
      </trkpt>
      <trkpt lat="40.452499" lon="-2.683965">
        <ele>759.8</ele>
        <time>2015-02-22T12:36:10Z</time>
      </trkpt>
      <trkpt lat="40.452407" lon="-2.683938">
        <ele>758.6</ele>
        <time>2015-02-22T12:36:13Z</time>
      </trkpt>
      <trkpt lat="40.452469" lon="-2.683795">
        <ele>755.9</ele>
        <time>2015-02-22T12:36:16Z</time>
      </trkpt>
      <trkpt lat="40.452555" lon="-2.683651">
        <ele>753.6</ele>
        <time>2015-02-22T12:36:19Z</time>
      </trkpt>
      <trkpt lat="40.452640" lon="-2.683572">
        <ele>753.0</ele>
        <time>2015-02-22T12:36:21Z</time>
      </trkpt>
      <trkpt lat="40.452730" lon="-2.683526">
        <ele>753.1</ele>
        <time>2015-02-22T12:36:23Z</time>
      </trkpt>
      <trkpt lat="40.452775" lon="-2.683396">
        <ele>751.2</ele>
        <time>2015-02-22T12:36:26Z</time>
      </trkpt>
      <trkpt lat="40.452782" lon="-2.683243">
        <ele>748.9</ele>
        <time>2015-02-22T12:36:28Z</time>
      </trkpt>
      <trkpt lat="40.452743" lon="-2.683071">
        <ele>746.2</ele>
        <time>2015-02-22T12:36:30Z</time>
      </trkpt>
      <trkpt lat="40.452663" lon="-2.682902">
        <ele>743.0</ele>
        <time>2015-02-22T12:36:32Z</time>
      </trkpt>
      <trkpt lat="40.452577" lon="-2.682716">
        <ele>739.6</ele>
        <time>2015-02-22T12:36:34Z</time>
      </trkpt>
      <trkpt lat="40.452565" lon="-2.682537">
        <ele>737.3</ele>
        <time>2015-02-22T12:36:36Z</time>
      </trkpt>
      <trkpt lat="40.452608" lon="-2.682380">
        <ele>736.8</ele>
        <time>2015-02-22T12:36:38Z</time>
      </trkpt>
      <trkpt lat="40.452642" lon="-2.682198">
        <ele>736.3</ele>
        <time>2015-02-22T12:36:40Z</time>
      </trkpt>
      <trkpt lat="40.452692" lon="-2.682020">
        <ele>736.1</ele>
        <time>2015-02-22T12:36:42Z</time>
      </trkpt>
      <trkpt lat="40.452745" lon="-2.681877">
        <ele>736.2</ele>
        <time>2015-02-22T12:36:44Z</time>
      </trkpt>
      <trkpt lat="40.452825" lon="-2.681808">
        <ele>736.9</ele>
        <time>2015-02-22T12:36:46Z</time>
      </trkpt>
      <trkpt lat="40.452882" lon="-2.681698">
        <ele>737.2</ele>
        <time>2015-02-22T12:36:49Z</time>
      </trkpt>
      <trkpt lat="40.452825" lon="-2.681595">
        <ele>735.8</ele>
        <time>2015-02-22T12:36:51Z</time>
      </trkpt>
      <trkpt lat="40.452777" lon="-2.681435">
        <ele>733.9</ele>
        <time>2015-02-22T12:36:53Z</time>
      </trkpt>
      <trkpt lat="40.452758" lon="-2.681296">
        <ele>732.5</ele>
        <time>2015-02-22T12:36:55Z</time>
      </trkpt>
      <trkpt lat="40.452790" lon="-2.681163">
        <ele>731.9</ele>
        <time>2015-02-22T12:36:57Z</time>
      </trkpt>
      <trkpt lat="40.452830" lon="-2.680971">
        <ele>730.9</ele>
        <time>2015-02-22T12:36:59Z</time>
      </trkpt>
      <trkpt lat="40.452863" lon="-2.680762">
        <ele>730.1</ele>
        <time>2015-02-22T12:37:01Z</time>
      </trkpt>
      <trkpt lat="40.452875" lon="-2.680560">
        <ele>730.0</ele>
        <time>2015-02-22T12:37:03Z</time>
      </trkpt>
      <trkpt lat="40.452878" lon="-2.680370">
        <ele>729.7</ele>
        <time>2015-02-22T12:37:05Z</time>
      </trkpt>
      <trkpt lat="40.452887" lon="-2.680210">
        <ele>729.5</ele>
        <time>2015-02-22T12:37:07Z</time>
      </trkpt>
      <trkpt lat="40.452942" lon="-2.680088">
        <ele>730.0</ele>
        <time>2015-02-22T12:37:09Z</time>
      </trkpt>
      <trkpt lat="40.453014" lon="-2.679998">
        <ele>730.8</ele>
        <time>2015-02-22T12:37:11Z</time>
      </trkpt>
      <trkpt lat="40.453103" lon="-2.679885">
        <ele>731.7</ele>
        <time>2015-02-22T12:37:14Z</time>
      </trkpt>
      <trkpt lat="40.453172" lon="-2.679778">
        <ele>732.3</ele>
        <time>2015-02-22T12:37:18Z</time>
      </trkpt>
      <trkpt lat="40.453232" lon="-2.679686">
        <ele>732.7</ele>
        <time>2015-02-22T12:37:23Z</time>
      </trkpt>
      <trkpt lat="40.453310" lon="-2.679623">
        <ele>733.4</ele>
        <time>2015-02-22T12:37:28Z</time>
      </trkpt>
      <trkpt lat="40.453394" lon="-2.679535">
        <ele>733.8</ele>
        <time>2015-02-22T12:37:33Z</time>
      </trkpt>
      <trkpt lat="40.453459" lon="-2.679438">
        <ele>733.9</ele>
        <time>2015-02-22T12:37:37Z</time>
      </trkpt>
      <trkpt lat="40.453540" lon="-2.679322">
        <ele>734.0</ele>
        <time>2015-02-22T12:37:41Z</time>
      </trkpt>
      <trkpt lat="40.453613" lon="-2.679208">
        <ele>733.9</ele>
        <time>2015-02-22T12:37:44Z</time>
      </trkpt>
      <trkpt lat="40.453685" lon="-2.679056">
        <ele>733.9</ele>
        <time>2015-02-22T12:37:47Z</time>
      </trkpt>
      <trkpt lat="40.453735" lon="-2.678936">
        <ele>734.0</ele>
        <time>2015-02-22T12:37:49Z</time>
      </trkpt>
      <trkpt lat="40.453790" lon="-2.678800">
        <ele>734.1</ele>
        <time>2015-02-22T12:37:51Z</time>
      </trkpt>
      <trkpt lat="40.453835" lon="-2.678678">
        <ele>734.1</ele>
        <time>2015-02-22T12:37:53Z</time>
      </trkpt>
      <trkpt lat="40.453775" lon="-2.678557">
        <ele>733.5</ele>
        <time>2015-02-22T12:37:56Z</time>
      </trkpt>
      <trkpt lat="40.453687" lon="-2.678527">
        <ele>733.0</ele>
        <time>2015-02-22T12:37:58Z</time>
      </trkpt>
      <trkpt lat="40.453587" lon="-2.678443">
        <ele>732.4</ele>
        <time>2015-02-22T12:38:01Z</time>
      </trkpt>
      <trkpt lat="40.453602" lon="-2.678320">
        <ele>732.3</ele>
        <time>2015-02-22T12:38:04Z</time>
      </trkpt>
      <trkpt lat="40.453658" lon="-2.678200">
        <ele>732.8</ele>
        <time>2015-02-22T12:38:08Z</time>
      </trkpt>
      <trkpt lat="40.453620" lon="-2.678075">
        <ele>732.9</ele>
        <time>2015-02-22T12:38:11Z</time>
      </trkpt>
      <trkpt lat="40.453555" lon="-2.677973">
        <ele>732.7</ele>
        <time>2015-02-22T12:38:13Z</time>
      </trkpt>
      <trkpt lat="40.453465" lon="-2.677847">
        <ele>732.4</ele>
        <time>2015-02-22T12:38:15Z</time>
      </trkpt>
      <trkpt lat="40.453360" lon="-2.677695">
        <ele>732.0</ele>
        <time>2015-02-22T12:38:17Z</time>
      </trkpt>
      <trkpt lat="40.453255" lon="-2.677537">
        <ele>731.2</ele>
        <time>2015-02-22T12:38:19Z</time>
      </trkpt>
      <trkpt lat="40.453198" lon="-2.677333">
        <ele>730.1</ele>
        <time>2015-02-22T12:38:21Z</time>
      </trkpt>
      <trkpt lat="40.453174" lon="-2.677123">
        <ele>729.0</ele>
        <time>2015-02-22T12:38:23Z</time>
      </trkpt>
      <trkpt lat="40.453134" lon="-2.676935">
        <ele>727.9</ele>
        <time>2015-02-22T12:38:25Z</time>
      </trkpt>
      <trkpt lat="40.453080" lon="-2.676757">
        <ele>726.6</ele>
        <time>2015-02-22T12:38:27Z</time>
      </trkpt>
      <trkpt lat="40.453005" lon="-2.676595">
        <ele>725.1</ele>
        <time>2015-02-22T12:38:29Z</time>
      </trkpt>
      <trkpt lat="40.452920" lon="-2.676453">
        <ele>723.5</ele>
        <time>2015-02-22T12:38:31Z</time>
      </trkpt>
      <trkpt lat="40.452835" lon="-2.676298">
        <ele>721.9</ele>
        <time>2015-02-22T12:38:33Z</time>
      </trkpt>
      <trkpt lat="40.452762" lon="-2.676133">
        <ele>720.3</ele>
        <time>2015-02-22T12:38:35Z</time>
      </trkpt>
      <trkpt lat="40.452732" lon="-2.676008">
        <ele>719.4</ele>
        <time>2015-02-22T12:38:37Z</time>
      </trkpt>
      <trkpt lat="40.452794" lon="-2.675887">
        <ele>719.4</ele>
        <time>2015-02-22T12:38:40Z</time>
      </trkpt>
      <trkpt lat="40.452890" lon="-2.675875">
        <ele>720.5</ele>
        <time>2015-02-22T12:38:44Z</time>
      </trkpt>
      <trkpt lat="40.452992" lon="-2.675916">
        <ele>721.7</ele>
        <time>2015-02-22T12:38:47Z</time>
      </trkpt>
      <trkpt lat="40.453125" lon="-2.675932">
        <ele>723.2</ele>
        <time>2015-02-22T12:38:50Z</time>
      </trkpt>
      <trkpt lat="40.453217" lon="-2.675882">
        <ele>724.0</ele>
        <time>2015-02-22T12:38:52Z</time>
      </trkpt>
      <trkpt lat="40.453298" lon="-2.675781">
        <ele>724.2</ele>
        <time>2015-02-22T12:38:54Z</time>
      </trkpt>
      <trkpt lat="40.453369" lon="-2.675662">
        <ele>724.3</ele>
        <time>2015-02-22T12:38:56Z</time>
      </trkpt>
      <trkpt lat="40.453420" lon="-2.675523">
        <ele>724.1</ele>
        <time>2015-02-22T12:38:58Z</time>
      </trkpt>
      <trkpt lat="40.453472" lon="-2.675383">
        <ele>723.9</ele>
        <time>2015-02-22T12:39:00Z</time>
      </trkpt>
      <trkpt lat="40.453520" lon="-2.675246">
        <ele>723.5</ele>
        <time>2015-02-22T12:39:02Z</time>
      </trkpt>
      <trkpt lat="40.453555" lon="-2.675125">
        <ele>723.1</ele>
        <time>2015-02-22T12:39:04Z</time>
      </trkpt>
      <trkpt lat="40.453600" lon="-2.675011">
        <ele>722.9</ele>
        <time>2015-02-22T12:39:06Z</time>
      </trkpt>
      <trkpt lat="40.453657" lon="-2.674888">
        <ele>723.1</ele>
        <time>2015-02-22T12:39:08Z</time>
      </trkpt>
      <trkpt lat="40.453728" lon="-2.674771">
        <ele>723.3</ele>
        <time>2015-02-22T12:39:10Z</time>
      </trkpt>
      <trkpt lat="40.453810" lon="-2.674656">
        <ele>723.5</ele>
        <time>2015-02-22T12:39:12Z</time>
      </trkpt>
      <trkpt lat="40.453890" lon="-2.674545">
        <ele>723.5</ele>
        <time>2015-02-22T12:39:14Z</time>
      </trkpt>
      <trkpt lat="40.453975" lon="-2.674431">
        <ele>723.4</ele>
        <time>2015-02-22T12:39:16Z</time>
      </trkpt>
      <trkpt lat="40.454049" lon="-2.674310">
        <ele>722.7</ele>
        <time>2015-02-22T12:39:18Z</time>
      </trkpt>
      <trkpt lat="40.454132" lon="-2.674212">
        <ele>722.4</ele>
        <time>2015-02-22T12:39:20Z</time>
      </trkpt>
      <trkpt lat="40.454223" lon="-2.674130">
        <ele>722.3</ele>
        <time>2015-02-22T12:39:22Z</time>
      </trkpt>
      <trkpt lat="40.454327" lon="-2.674053">
        <ele>722.6</ele>
        <time>2015-02-22T12:39:24Z</time>
      </trkpt>
      <trkpt lat="40.454432" lon="-2.673988">
        <ele>723.1</ele>
        <time>2015-02-22T12:39:26Z</time>
      </trkpt>
      <trkpt lat="40.454515" lon="-2.673893">
        <ele>722.9</ele>
        <time>2015-02-22T12:39:28Z</time>
      </trkpt>
      <trkpt lat="40.454587" lon="-2.673786">
        <ele>722.6</ele>
        <time>2015-02-22T12:39:30Z</time>
      </trkpt>
      <trkpt lat="40.454625" lon="-2.673651">
        <ele>721.8</ele>
        <time>2015-02-22T12:39:32Z</time>
      </trkpt>
      <trkpt lat="40.454609" lon="-2.673498">
        <ele>720.2</ele>
        <time>2015-02-22T12:39:34Z</time>
      </trkpt>
      <trkpt lat="40.454568" lon="-2.673360">
        <ele>718.6</ele>
        <time>2015-02-22T12:39:36Z</time>
      </trkpt>
      <trkpt lat="40.454562" lon="-2.673240">
        <ele>717.8</ele>
        <time>2015-02-22T12:39:38Z</time>
      </trkpt>
      <trkpt lat="40.454620" lon="-2.673138">
        <ele>717.7</ele>
        <time>2015-02-22T12:39:40Z</time>
      </trkpt>
      <trkpt lat="40.454699" lon="-2.673052">
        <ele>717.8</ele>
        <time>2015-02-22T12:39:42Z</time>
      </trkpt>
      <trkpt lat="40.454768" lon="-2.672971">
        <ele>717.9</ele>
        <time>2015-02-22T12:39:44Z</time>
      </trkpt>
      <trkpt lat="40.454842" lon="-2.672827">
        <ele>717.6</ele>
        <time>2015-02-22T12:39:47Z</time>
      </trkpt>
      <trkpt lat="40.454898" lon="-2.672675">
        <ele>717.2</ele>
        <time>2015-02-22T12:39:50Z</time>
      </trkpt>
      <trkpt lat="40.454967" lon="-2.672535">
        <ele>717.0</ele>
        <time>2015-02-22T12:39:53Z</time>
      </trkpt>
      <trkpt lat="40.455047" lon="-2.672426">
        <ele>716.7</ele>
        <time>2015-02-22T12:39:56Z</time>
      </trkpt>
      <trkpt lat="40.455145" lon="-2.672355">
        <ele>716.5</ele>
        <time>2015-02-22T12:39:59Z</time>
      </trkpt>
      <trkpt lat="40.455250" lon="-2.672350">
        <ele>716.9</ele>
        <time>2015-02-22T12:40:02Z</time>
      </trkpt>
      <trkpt lat="40.455337" lon="-2.672415">
        <ele>717.7</ele>
        <time>2015-02-22T12:40:05Z</time>
      </trkpt>
      <trkpt lat="40.455428" lon="-2.672450">
        <ele>718.2</ele>
        <time>2015-02-22T12:40:08Z</time>
      </trkpt>
      <trkpt lat="40.455520" lon="-2.672421">
        <ele>718.3</ele>
        <time>2015-02-22T12:40:11Z</time>
      </trkpt>
      <trkpt lat="40.455628" lon="-2.672335">
        <ele>718.1</ele>
        <time>2015-02-22T12:40:15Z</time>
      </trkpt>
      <trkpt lat="40.455752" lon="-2.672262">
        <ele>718.0</ele>
        <time>2015-02-22T12:40:18Z</time>
      </trkpt>
      <trkpt lat="40.455855" lon="-2.672210">
        <ele>718.0</ele>
        <time>2015-02-22T12:40:20Z</time>
      </trkpt>
      <trkpt lat="40.455954" lon="-2.672170">
        <ele>718.0</ele>
        <time>2015-02-22T12:40:22Z</time>
      </trkpt>
      <trkpt lat="40.456052" lon="-2.672163">
        <ele>718.2</ele>
        <time>2015-02-22T12:40:24Z</time>
      </trkpt>
      <trkpt lat="40.456145" lon="-2.672168">
        <ele>718.6</ele>
        <time>2015-02-22T12:40:26Z</time>
      </trkpt>
      <trkpt lat="40.456240" lon="-2.672158">
        <ele>718.8</ele>
        <time>2015-02-22T12:40:28Z</time>
      </trkpt>
      <trkpt lat="40.456333" lon="-2.672140">
        <ele>719.0</ele>
        <time>2015-02-22T12:40:30Z</time>
      </trkpt>
      <trkpt lat="40.456422" lon="-2.672111">
        <ele>719.0</ele>
        <time>2015-02-22T12:40:32Z</time>
      </trkpt>
      <trkpt lat="40.456553" lon="-2.672080">
        <ele>719.2</ele>
        <time>2015-02-22T12:40:35Z</time>
      </trkpt>
      <trkpt lat="40.456665" lon="-2.672043">
        <ele>719.2</ele>
        <time>2015-02-22T12:40:38Z</time>
      </trkpt>
      <trkpt lat="40.456759" lon="-2.671980">
        <ele>718.8</ele>
        <time>2015-02-22T12:40:41Z</time>
      </trkpt>
      <trkpt lat="40.456844" lon="-2.671915">
        <ele>718.4</ele>
        <time>2015-02-22T12:40:45Z</time>
      </trkpt>
      <trkpt lat="40.456915" lon="-2.671843">
        <ele>718.1</ele>
        <time>2015-02-22T12:41:08Z</time>
      </trkpt>
      <trkpt lat="40.457000" lon="-2.671745">
        <ele>717.4</ele>
        <time>2015-02-22T12:41:12Z</time>
      </trkpt>
      <trkpt lat="40.457057" lon="-2.671651">
        <ele>716.9</ele>
        <time>2015-02-22T12:41:15Z</time>
      </trkpt>
      <trkpt lat="40.457133" lon="-2.671587">
        <ele>717.0</ele>
        <time>2015-02-22T12:41:19Z</time>
      </trkpt>
      <trkpt lat="40.457247" lon="-2.671561">
        <ele>717.2</ele>
        <time>2015-02-22T12:41:23Z</time>
      </trkpt>
      <trkpt lat="40.457347" lon="-2.671505">
        <ele>717.4</ele>
        <time>2015-02-22T12:41:26Z</time>
      </trkpt>
      <trkpt lat="40.457452" lon="-2.671441">
        <ele>717.6</ele>
        <time>2015-02-22T12:41:29Z</time>
      </trkpt>
      <trkpt lat="40.457552" lon="-2.671363">
        <ele>717.6</ele>
        <time>2015-02-22T12:41:32Z</time>
      </trkpt>
      <trkpt lat="40.457612" lon="-2.671236">
        <ele>717.5</ele>
        <time>2015-02-22T12:41:35Z</time>
      </trkpt>
      <trkpt lat="40.457604" lon="-2.671091">
        <ele>717.3</ele>
        <time>2015-02-22T12:41:38Z</time>
      </trkpt>
      <trkpt lat="40.457593" lon="-2.670950">
        <ele>717.1</ele>
        <time>2015-02-22T12:41:41Z</time>
      </trkpt>
      <trkpt lat="40.457609" lon="-2.670816">
        <ele>717.0</ele>
        <time>2015-02-22T12:41:44Z</time>
      </trkpt>
      <trkpt lat="40.457638" lon="-2.670692">
        <ele>717.5</ele>
        <time>2015-02-22T12:41:47Z</time>
      </trkpt>
      <trkpt lat="40.457683" lon="-2.670573">
        <ele>717.9</ele>
        <time>2015-02-22T12:41:50Z</time>
      </trkpt>
      <trkpt lat="40.457753" lon="-2.670468">
        <ele>718.3</ele>
        <time>2015-02-22T12:41:53Z</time>
      </trkpt>
      <trkpt lat="40.457857" lon="-2.670408">
        <ele>718.5</ele>
        <time>2015-02-22T12:41:56Z</time>
      </trkpt>
      <trkpt lat="40.457967" lon="-2.670380">
        <ele>718.6</ele>
        <time>2015-02-22T12:41:59Z</time>
      </trkpt>
      <trkpt lat="40.458077" lon="-2.670345">
        <ele>718.7</ele>
        <time>2015-02-22T12:42:02Z</time>
      </trkpt>
      <trkpt lat="40.458175" lon="-2.670282">
        <ele>719.0</ele>
        <time>2015-02-22T12:42:05Z</time>
      </trkpt>
      <trkpt lat="40.458243" lon="-2.670175">
        <ele>719.3</ele>
        <time>2015-02-22T12:42:08Z</time>
      </trkpt>
      <trkpt lat="40.458274" lon="-2.670042">
        <ele>719.8</ele>
        <time>2015-02-22T12:42:11Z</time>
      </trkpt>
      <trkpt lat="40.458370" lon="-2.669988">
        <ele>720.2</ele>
        <time>2015-02-22T12:42:17Z</time>
      </trkpt>
      <trkpt lat="40.458463" lon="-2.669978">
        <ele>720.5</ele>
        <time>2015-02-22T12:42:21Z</time>
      </trkpt>
      <trkpt lat="40.458577" lon="-2.669963">
        <ele>721.0</ele>
        <time>2015-02-22T12:42:25Z</time>
      </trkpt>
      <trkpt lat="40.458690" lon="-2.669953">
        <ele>721.3</ele>
        <time>2015-02-22T12:42:29Z</time>
      </trkpt>
      <trkpt lat="40.458778" lon="-2.669923">
        <ele>722.0</ele>
        <time>2015-02-22T12:42:32Z</time>
      </trkpt>
      <trkpt lat="40.458864" lon="-2.669868">
        <ele>722.9</ele>
        <time>2015-02-22T12:42:35Z</time>
      </trkpt>
      <trkpt lat="40.458955" lon="-2.669840">
        <ele>723.5</ele>
        <time>2015-02-22T12:42:38Z</time>
      </trkpt>
      <trkpt lat="40.459067" lon="-2.669863">
        <ele>723.4</ele>
        <time>2015-02-22T12:42:42Z</time>
      </trkpt>
      <trkpt lat="40.459159" lon="-2.669922">
        <ele>723.0</ele>
        <time>2015-02-22T12:42:46Z</time>
      </trkpt>
      <trkpt lat="40.459248" lon="-2.669966">
        <ele>722.7</ele>
        <time>2015-02-22T12:42:50Z</time>
      </trkpt>
      <trkpt lat="40.459330" lon="-2.670020">
        <ele>722.5</ele>
        <time>2015-02-22T12:42:53Z</time>
      </trkpt>
      <trkpt lat="40.459419" lon="-2.670065">
        <ele>722.7</ele>
        <time>2015-02-22T12:42:56Z</time>
      </trkpt>
      <trkpt lat="40.459520" lon="-2.670095">
        <ele>722.9</ele>
        <time>2015-02-22T12:42:59Z</time>
      </trkpt>
      <trkpt lat="40.459624" lon="-2.670113">
        <ele>723.2</ele>
        <time>2015-02-22T12:43:02Z</time>
      </trkpt>
      <trkpt lat="40.459724" lon="-2.670118">
        <ele>723.5</ele>
        <time>2015-02-22T12:43:05Z</time>
      </trkpt>
      <trkpt lat="40.459829" lon="-2.670123">
        <ele>723.7</ele>
        <time>2015-02-22T12:43:08Z</time>
      </trkpt>
      <trkpt lat="40.459928" lon="-2.670126">
        <ele>724.0</ele>
        <time>2015-02-22T12:43:11Z</time>
      </trkpt>
      <trkpt lat="40.460025" lon="-2.670113">
        <ele>724.3</ele>
        <time>2015-02-22T12:43:14Z</time>
      </trkpt>
      <trkpt lat="40.460115" lon="-2.670095">
        <ele>724.5</ele>
        <time>2015-02-22T12:43:17Z</time>
      </trkpt>
      <trkpt lat="40.460214" lon="-2.670081">
        <ele>724.7</ele>
        <time>2015-02-22T12:43:20Z</time>
      </trkpt>
      <trkpt lat="40.460317" lon="-2.670088">
        <ele>724.8</ele>
        <time>2015-02-22T12:43:23Z</time>
      </trkpt>
      <trkpt lat="40.460422" lon="-2.670122">
        <ele>724.7</ele>
        <time>2015-02-22T12:43:26Z</time>
      </trkpt>
      <trkpt lat="40.460535" lon="-2.670133">
        <ele>724.8</ele>
        <time>2015-02-22T12:43:29Z</time>
      </trkpt>
      <trkpt lat="40.460647" lon="-2.670125">
        <ele>725.0</ele>
        <time>2015-02-22T12:43:32Z</time>
      </trkpt>
      <trkpt lat="40.460759" lon="-2.670110">
        <ele>725.2</ele>
        <time>2015-02-22T12:43:35Z</time>
      </trkpt>
      <trkpt lat="40.460870" lon="-2.670088">
        <ele>725.4</ele>
        <time>2015-02-22T12:43:38Z</time>
      </trkpt>
      <trkpt lat="40.460977" lon="-2.670068">
        <ele>725.4</ele>
        <time>2015-02-22T12:43:41Z</time>
      </trkpt>
      <trkpt lat="40.461084" lon="-2.670052">
        <ele>725.5</ele>
        <time>2015-02-22T12:43:44Z</time>
      </trkpt>
      <trkpt lat="40.461192" lon="-2.670039">
        <ele>725.4</ele>
        <time>2015-02-22T12:43:47Z</time>
      </trkpt>
      <trkpt lat="40.461292" lon="-2.670038">
        <ele>725.3</ele>
        <time>2015-02-22T12:43:50Z</time>
      </trkpt>
      <trkpt lat="40.461394" lon="-2.670048">
        <ele>725.2</ele>
        <time>2015-02-22T12:43:53Z</time>
      </trkpt>
      <trkpt lat="40.461497" lon="-2.670062">
        <ele>725.1</ele>
        <time>2015-02-22T12:43:56Z</time>
      </trkpt>
      <trkpt lat="40.461600" lon="-2.670078">
        <ele>725.0</ele>
        <time>2015-02-22T12:43:59Z</time>
      </trkpt>
      <trkpt lat="40.461705" lon="-2.670100">
        <ele>724.9</ele>
        <time>2015-02-22T12:44:02Z</time>
      </trkpt>
      <trkpt lat="40.461808" lon="-2.670115">
        <ele>725.0</ele>
        <time>2015-02-22T12:44:05Z</time>
      </trkpt>
      <trkpt lat="40.461913" lon="-2.670118">
        <ele>725.2</ele>
        <time>2015-02-22T12:44:08Z</time>
      </trkpt>
      <trkpt lat="40.462020" lon="-2.670118">
        <ele>725.3</ele>
        <time>2015-02-22T12:44:11Z</time>
      </trkpt>
      <trkpt lat="40.462128" lon="-2.670122">
        <ele>725.4</ele>
        <time>2015-02-22T12:44:14Z</time>
      </trkpt>
      <trkpt lat="40.462238" lon="-2.670120">
        <ele>725.5</ele>
        <time>2015-02-22T12:44:17Z</time>
      </trkpt>
      <trkpt lat="40.462352" lon="-2.670113">
        <ele>725.7</ele>
        <time>2015-02-22T12:44:20Z</time>
      </trkpt>
      <trkpt lat="40.462465" lon="-2.670101">
        <ele>725.8</ele>
        <time>2015-02-22T12:44:23Z</time>
      </trkpt>
      <trkpt lat="40.462578" lon="-2.670091">
        <ele>726.0</ele>
        <time>2015-02-22T12:44:26Z</time>
      </trkpt>
      <trkpt lat="40.462695" lon="-2.670065">
        <ele>726.2</ele>
        <time>2015-02-22T12:44:29Z</time>
      </trkpt>
      <trkpt lat="40.462810" lon="-2.670043">
        <ele>726.3</ele>
        <time>2015-02-22T12:44:32Z</time>
      </trkpt>
      <trkpt lat="40.462927" lon="-2.670028">
        <ele>726.5</ele>
        <time>2015-02-22T12:44:35Z</time>
      </trkpt>
      <trkpt lat="40.463043" lon="-2.670005">
        <ele>726.6</ele>
        <time>2015-02-22T12:44:38Z</time>
      </trkpt>
      <trkpt lat="40.463160" lon="-2.669970">
        <ele>727.1</ele>
        <time>2015-02-22T12:44:41Z</time>
      </trkpt>
      <trkpt lat="40.463275" lon="-2.669938">
        <ele>727.7</ele>
        <time>2015-02-22T12:44:44Z</time>
      </trkpt>
      <trkpt lat="40.463382" lon="-2.669905">
        <ele>728.6</ele>
        <time>2015-02-22T12:44:47Z</time>
      </trkpt>
      <trkpt lat="40.463473" lon="-2.669873">
        <ele>729.5</ele>
        <time>2015-02-22T12:44:50Z</time>
      </trkpt>
      <trkpt lat="40.463562" lon="-2.669832">
        <ele>730.7</ele>
        <time>2015-02-22T12:44:53Z</time>
      </trkpt>
      <trkpt lat="40.463655" lon="-2.669780">
        <ele>731.9</ele>
        <time>2015-02-22T12:44:56Z</time>
      </trkpt>
      <trkpt lat="40.463749" lon="-2.669737">
        <ele>732.9</ele>
        <time>2015-02-22T12:44:59Z</time>
      </trkpt>
      <trkpt lat="40.463854" lon="-2.669722">
        <ele>733.7</ele>
        <time>2015-02-22T12:45:02Z</time>
      </trkpt>
      <trkpt lat="40.463959" lon="-2.669720">
        <ele>734.2</ele>
        <time>2015-02-22T12:45:05Z</time>
      </trkpt>
      <trkpt lat="40.464060" lon="-2.669730">
        <ele>734.6</ele>
        <time>2015-02-22T12:45:08Z</time>
      </trkpt>
      <trkpt lat="40.464160" lon="-2.669758">
        <ele>734.8</ele>
        <time>2015-02-22T12:45:11Z</time>
      </trkpt>
      <trkpt lat="40.464252" lon="-2.669798">
        <ele>734.6</ele>
        <time>2015-02-22T12:45:14Z</time>
      </trkpt>
      <trkpt lat="40.464342" lon="-2.669808">
        <ele>734.7</ele>
        <time>2015-02-22T12:45:17Z</time>
      </trkpt>
      <trkpt lat="40.464435" lon="-2.669803">
        <ele>735.1</ele>
        <time>2015-02-22T12:45:20Z</time>
      </trkpt>
      <trkpt lat="40.464534" lon="-2.669807">
        <ele>735.4</ele>
        <time>2015-02-22T12:45:23Z</time>
      </trkpt>
      <trkpt lat="40.464634" lon="-2.669825">
        <ele>735.4</ele>
        <time>2015-02-22T12:45:26Z</time>
      </trkpt>
      <trkpt lat="40.464735" lon="-2.669861">
        <ele>735.3</ele>
        <time>2015-02-22T12:45:29Z</time>
      </trkpt>
      <trkpt lat="40.464838" lon="-2.669896">
        <ele>735.4</ele>
        <time>2015-02-22T12:45:32Z</time>
      </trkpt>
      <trkpt lat="40.464943" lon="-2.669923">
        <ele>735.5</ele>
        <time>2015-02-22T12:45:35Z</time>
      </trkpt>
      <trkpt lat="40.465045" lon="-2.669943">
        <ele>735.4</ele>
        <time>2015-02-22T12:45:38Z</time>
      </trkpt>
      <trkpt lat="40.465150" lon="-2.669953">
        <ele>735.3</ele>
        <time>2015-02-22T12:45:41Z</time>
      </trkpt>
      <trkpt lat="40.465253" lon="-2.669966">
        <ele>735.2</ele>
        <time>2015-02-22T12:45:44Z</time>
      </trkpt>
      <trkpt lat="40.465355" lon="-2.669973">
        <ele>735.2</ele>
        <time>2015-02-22T12:45:47Z</time>
      </trkpt>
      <trkpt lat="40.465455" lon="-2.669963">
        <ele>735.4</ele>
        <time>2015-02-22T12:45:50Z</time>
      </trkpt>
      <trkpt lat="40.465557" lon="-2.669943">
        <ele>735.5</ele>
        <time>2015-02-22T12:45:53Z</time>
      </trkpt>
      <trkpt lat="40.465655" lon="-2.669927">
        <ele>735.7</ele>
        <time>2015-02-22T12:45:56Z</time>
      </trkpt>
      <trkpt lat="40.465752" lon="-2.669906">
        <ele>736.0</ele>
        <time>2015-02-22T12:45:59Z</time>
      </trkpt>
      <trkpt lat="40.465847" lon="-2.669893">
        <ele>736.1</ele>
        <time>2015-02-22T12:46:02Z</time>
      </trkpt>
      <trkpt lat="40.465943" lon="-2.669883">
        <ele>736.0</ele>
        <time>2015-02-22T12:46:05Z</time>
      </trkpt>
      <trkpt lat="40.466040" lon="-2.669878">
        <ele>735.8</ele>
        <time>2015-02-22T12:46:08Z</time>
      </trkpt>
      <trkpt lat="40.466137" lon="-2.669875">
        <ele>735.6</ele>
        <time>2015-02-22T12:46:11Z</time>
      </trkpt>
      <trkpt lat="40.466230" lon="-2.669865">
        <ele>735.6</ele>
        <time>2015-02-22T12:46:14Z</time>
      </trkpt>
      <trkpt lat="40.466350" lon="-2.669843">
        <ele>735.7</ele>
        <time>2015-02-22T12:46:18Z</time>
      </trkpt>
      <trkpt lat="40.466449" lon="-2.669823">
        <ele>735.7</ele>
        <time>2015-02-22T12:46:21Z</time>
      </trkpt>
      <trkpt lat="40.466544" lon="-2.669788">
        <ele>736.0</ele>
        <time>2015-02-22T12:46:24Z</time>
      </trkpt>
      <trkpt lat="40.466639" lon="-2.669753">
        <ele>736.3</ele>
        <time>2015-02-22T12:46:27Z</time>
      </trkpt>
      <trkpt lat="40.466734" lon="-2.669718">
        <ele>736.7</ele>
        <time>2015-02-22T12:46:30Z</time>
      </trkpt>
      <trkpt lat="40.466838" lon="-2.669708">
        <ele>737.0</ele>
        <time>2015-02-22T12:46:33Z</time>
      </trkpt>
      <trkpt lat="40.466952" lon="-2.669703">
        <ele>737.2</ele>
        <time>2015-02-22T12:46:36Z</time>
      </trkpt>
      <trkpt lat="40.467065" lon="-2.669720">
        <ele>737.3</ele>
        <time>2015-02-22T12:46:39Z</time>
      </trkpt>
      <trkpt lat="40.467192" lon="-2.669722">
        <ele>737.5</ele>
        <time>2015-02-22T12:46:42Z</time>
      </trkpt>
      <trkpt lat="40.467325" lon="-2.669730">
        <ele>737.6</ele>
        <time>2015-02-22T12:46:45Z</time>
      </trkpt>
      <trkpt lat="40.467415" lon="-2.669718">
        <ele>737.8</ele>
        <time>2015-02-22T12:46:47Z</time>
      </trkpt>
      <trkpt lat="40.467545" lon="-2.669700">
        <ele>738.2</ele>
        <time>2015-02-22T12:46:50Z</time>
      </trkpt>
      <trkpt lat="40.467635" lon="-2.669705">
        <ele>738.5</ele>
        <time>2015-02-22T12:46:52Z</time>
      </trkpt>
      <trkpt lat="40.467727" lon="-2.669718">
        <ele>738.7</ele>
        <time>2015-02-22T12:46:54Z</time>
      </trkpt>
      <trkpt lat="40.467858" lon="-2.669738">
        <ele>739.1</ele>
        <time>2015-02-22T12:46:57Z</time>
      </trkpt>
      <trkpt lat="40.467990" lon="-2.669760">
        <ele>739.4</ele>
        <time>2015-02-22T12:47:00Z</time>
      </trkpt>
      <trkpt lat="40.468119" lon="-2.669783">
        <ele>739.6</ele>
        <time>2015-02-22T12:47:03Z</time>
      </trkpt>
      <trkpt lat="40.468242" lon="-2.669813">
        <ele>739.8</ele>
        <time>2015-02-22T12:47:06Z</time>
      </trkpt>
      <trkpt lat="40.468367" lon="-2.669833">
        <ele>740.5</ele>
        <time>2015-02-22T12:47:09Z</time>
      </trkpt>
      <trkpt lat="40.468480" lon="-2.669845">
        <ele>742.4</ele>
        <time>2015-02-22T12:47:12Z</time>
      </trkpt>
      <trkpt lat="40.468590" lon="-2.669850">
        <ele>744.1</ele>
        <time>2015-02-22T12:47:15Z</time>
      </trkpt>
      <trkpt lat="40.468697" lon="-2.669850">
        <ele>745.9</ele>
        <time>2015-02-22T12:47:18Z</time>
      </trkpt>
      <trkpt lat="40.468805" lon="-2.669847">
        <ele>747.7</ele>
        <time>2015-02-22T12:47:21Z</time>
      </trkpt>
      <trkpt lat="40.468915" lon="-2.669853">
        <ele>749.6</ele>
        <time>2015-02-22T12:47:24Z</time>
      </trkpt>
      <trkpt lat="40.469024" lon="-2.669863">
        <ele>751.1</ele>
        <time>2015-02-22T12:47:27Z</time>
      </trkpt>
      <trkpt lat="40.469132" lon="-2.669873">
        <ele>752.7</ele>
        <time>2015-02-22T12:47:30Z</time>
      </trkpt>
      <trkpt lat="40.469240" lon="-2.669883">
        <ele>755.0</ele>
        <time>2015-02-22T12:47:33Z</time>
      </trkpt>
      <trkpt lat="40.469349" lon="-2.669896">
        <ele>757.1</ele>
        <time>2015-02-22T12:47:36Z</time>
      </trkpt>
      <trkpt lat="40.469460" lon="-2.669915">
        <ele>758.9</ele>
        <time>2015-02-22T12:47:39Z</time>
      </trkpt>
      <trkpt lat="40.469569" lon="-2.669955">
        <ele>760.3</ele>
        <time>2015-02-22T12:47:42Z</time>
      </trkpt>
      <trkpt lat="40.469664" lon="-2.670042">
        <ele>759.9</ele>
        <time>2015-02-22T12:47:45Z</time>
      </trkpt>
      <trkpt lat="40.469750" lon="-2.670158">
        <ele>758.8</ele>
        <time>2015-02-22T12:47:48Z</time>
      </trkpt>
      <trkpt lat="40.469827" lon="-2.670295">
        <ele>756.1</ele>
        <time>2015-02-22T12:47:51Z</time>
      </trkpt>
      <trkpt lat="40.469924" lon="-2.670402">
        <ele>754.4</ele>
        <time>2015-02-22T12:47:54Z</time>
      </trkpt>
      <trkpt lat="40.470025" lon="-2.670492">
        <ele>752.4</ele>
        <time>2015-02-22T12:47:57Z</time>
      </trkpt>
      <trkpt lat="40.470120" lon="-2.670592">
        <ele>748.8</ele>
        <time>2015-02-22T12:48:00Z</time>
      </trkpt>
      <trkpt lat="40.470215" lon="-2.670676">
        <ele>746.2</ele>
        <time>2015-02-22T12:48:03Z</time>
      </trkpt>
      <trkpt lat="40.470320" lon="-2.670671">
        <ele>745.9</ele>
        <time>2015-02-22T12:48:06Z</time>
      </trkpt>
      <trkpt lat="40.470428" lon="-2.670680">
        <ele>745.2</ele>
        <time>2015-02-22T12:48:09Z</time>
      </trkpt>
      <trkpt lat="40.470538" lon="-2.670688">
        <ele>744.9</ele>
        <time>2015-02-22T12:48:12Z</time>
      </trkpt>
      <trkpt lat="40.470638" lon="-2.670656">
        <ele>745.3</ele>
        <time>2015-02-22T12:48:15Z</time>
      </trkpt>
      <trkpt lat="40.470727" lon="-2.670612">
        <ele>746.2</ele>
        <time>2015-02-22T12:48:18Z</time>
      </trkpt>
      <trkpt lat="40.470819" lon="-2.670565">
        <ele>746.7</ele>
        <time>2015-02-22T12:48:21Z</time>
      </trkpt>
      <trkpt lat="40.470905" lon="-2.670513">
        <ele>748.2</ele>
        <time>2015-02-22T12:48:24Z</time>
      </trkpt>
      <trkpt lat="40.470997" lon="-2.670470">
        <ele>749.7</ele>
        <time>2015-02-22T12:48:27Z</time>
      </trkpt>
      <trkpt lat="40.471088" lon="-2.670426">
        <ele>751.0</ele>
        <time>2015-02-22T12:48:30Z</time>
      </trkpt>
      <trkpt lat="40.471185" lon="-2.670388">
        <ele>752.2</ele>
        <time>2015-02-22T12:48:33Z</time>
      </trkpt>
      <trkpt lat="40.471285" lon="-2.670350">
        <ele>753.3</ele>
        <time>2015-02-22T12:48:36Z</time>
      </trkpt>
      <trkpt lat="40.471388" lon="-2.670320">
        <ele>754.2</ele>
        <time>2015-02-22T12:48:39Z</time>
      </trkpt>
      <trkpt lat="40.471495" lon="-2.670302">
        <ele>755.0</ele>
        <time>2015-02-22T12:48:42Z</time>
      </trkpt>
      <trkpt lat="40.471602" lon="-2.670263">
        <ele>755.8</ele>
        <time>2015-02-22T12:48:45Z</time>
      </trkpt>
      <trkpt lat="40.471715" lon="-2.670253">
        <ele>756.4</ele>
        <time>2015-02-22T12:48:48Z</time>
      </trkpt>
      <trkpt lat="40.471829" lon="-2.670270">
        <ele>756.5</ele>
        <time>2015-02-22T12:48:51Z</time>
      </trkpt>
      <trkpt lat="40.471944" lon="-2.670308">
        <ele>756.2</ele>
        <time>2015-02-22T12:48:54Z</time>
      </trkpt>
      <trkpt lat="40.472050" lon="-2.670368">
        <ele>755.5</ele>
        <time>2015-02-22T12:48:57Z</time>
      </trkpt>
      <trkpt lat="40.472149" lon="-2.670448">
        <ele>754.6</ele>
        <time>2015-02-22T12:49:00Z</time>
      </trkpt>
      <trkpt lat="40.472230" lon="-2.670550">
        <ele>753.3</ele>
        <time>2015-02-22T12:49:03Z</time>
      </trkpt>
      <trkpt lat="40.472307" lon="-2.670650">
        <ele>752.2</ele>
        <time>2015-02-22T12:49:06Z</time>
      </trkpt>
      <trkpt lat="40.472387" lon="-2.670743">
        <ele>751.0</ele>
        <time>2015-02-22T12:49:09Z</time>
      </trkpt>
      <trkpt lat="40.472464" lon="-2.670833">
        <ele>749.9</ele>
        <time>2015-02-22T12:49:12Z</time>
      </trkpt>
      <trkpt lat="40.472555" lon="-2.670891">
        <ele>749.8</ele>
        <time>2015-02-22T12:49:15Z</time>
      </trkpt>
      <trkpt lat="40.472655" lon="-2.670930">
        <ele>749.7</ele>
        <time>2015-02-22T12:49:18Z</time>
      </trkpt>
      <trkpt lat="40.472755" lon="-2.670958">
        <ele>749.7</ele>
        <time>2015-02-22T12:49:21Z</time>
      </trkpt>
      <trkpt lat="40.472858" lon="-2.670986">
        <ele>749.7</ele>
        <time>2015-02-22T12:49:24Z</time>
      </trkpt>
      <trkpt lat="40.472967" lon="-2.671011">
        <ele>749.7</ele>
        <time>2015-02-22T12:49:27Z</time>
      </trkpt>
      <trkpt lat="40.473073" lon="-2.671026">
        <ele>749.8</ele>
        <time>2015-02-22T12:49:30Z</time>
      </trkpt>
      <trkpt lat="40.473180" lon="-2.671026">
        <ele>749.9</ele>
        <time>2015-02-22T12:49:33Z</time>
      </trkpt>
      <trkpt lat="40.473288" lon="-2.671035">
        <ele>749.9</ele>
        <time>2015-02-22T12:49:36Z</time>
      </trkpt>
      <trkpt lat="40.473387" lon="-2.671038">
        <ele>750.0</ele>
        <time>2015-02-22T12:49:39Z</time>
      </trkpt>
      <trkpt lat="40.473490" lon="-2.671032">
        <ele>750.0</ele>
        <time>2015-02-22T12:49:42Z</time>
      </trkpt>
      <trkpt lat="40.473595" lon="-2.671030">
        <ele>750.0</ele>
        <time>2015-02-22T12:49:45Z</time>
      </trkpt>
      <trkpt lat="40.473700" lon="-2.671017">
        <ele>750.1</ele>
        <time>2015-02-22T12:49:48Z</time>
      </trkpt>
      <trkpt lat="40.473805" lon="-2.671005">
        <ele>750.1</ele>
        <time>2015-02-22T12:49:51Z</time>
      </trkpt>
      <trkpt lat="40.473909" lon="-2.670990">
        <ele>750.1</ele>
        <time>2015-02-22T12:49:54Z</time>
      </trkpt>
      <trkpt lat="40.474009" lon="-2.670985">
        <ele>750.0</ele>
        <time>2015-02-22T12:49:57Z</time>
      </trkpt>
      <trkpt lat="40.474108" lon="-2.670967">
        <ele>750.0</ele>
        <time>2015-02-22T12:50:00Z</time>
      </trkpt>
      <trkpt lat="40.474207" lon="-2.670940">
        <ele>750.1</ele>
        <time>2015-02-22T12:50:03Z</time>
      </trkpt>
      <trkpt lat="40.474305" lon="-2.670911">
        <ele>750.3</ele>
        <time>2015-02-22T12:50:06Z</time>
      </trkpt>
      <trkpt lat="40.474405" lon="-2.670866">
        <ele>750.6</ele>
        <time>2015-02-22T12:50:09Z</time>
      </trkpt>
      <trkpt lat="40.474512" lon="-2.670812">
        <ele>751.2</ele>
        <time>2015-02-22T12:50:12Z</time>
      </trkpt>
      <trkpt lat="40.474630" lon="-2.670751">
        <ele>753.2</ele>
        <time>2015-02-22T12:50:15Z</time>
      </trkpt>
      <trkpt lat="40.474717" lon="-2.670708">
        <ele>754.5</ele>
        <time>2015-02-22T12:50:17Z</time>
      </trkpt>
      <trkpt lat="40.474809" lon="-2.670670">
        <ele>756.0</ele>
        <time>2015-02-22T12:50:19Z</time>
      </trkpt>
      <trkpt lat="40.474905" lon="-2.670641">
        <ele>757.1</ele>
        <time>2015-02-22T12:50:21Z</time>
      </trkpt>
      <trkpt lat="40.475003" lon="-2.670636">
        <ele>757.9</ele>
        <time>2015-02-22T12:50:23Z</time>
      </trkpt>
      <trkpt lat="40.475098" lon="-2.670653">
        <ele>758.0</ele>
        <time>2015-02-22T12:50:25Z</time>
      </trkpt>
      <trkpt lat="40.475194" lon="-2.670675">
        <ele>757.8</ele>
        <time>2015-02-22T12:50:27Z</time>
      </trkpt>
      <trkpt lat="40.475287" lon="-2.670686">
        <ele>758.0</ele>
        <time>2015-02-22T12:50:29Z</time>
      </trkpt>
      <trkpt lat="40.475377" lon="-2.670695">
        <ele>758.2</ele>
        <time>2015-02-22T12:50:31Z</time>
      </trkpt>
      <trkpt lat="40.475507" lon="-2.670705">
        <ele>759.0</ele>
        <time>2015-02-22T12:50:34Z</time>
      </trkpt>
      <trkpt lat="40.475635" lon="-2.670728">
        <ele>759.1</ele>
        <time>2015-02-22T12:50:37Z</time>
      </trkpt>
      <trkpt lat="40.475763" lon="-2.670775">
        <ele>758.7</ele>
        <time>2015-02-22T12:50:40Z</time>
      </trkpt>
      <trkpt lat="40.475850" lon="-2.670807">
        <ele>758.6</ele>
        <time>2015-02-22T12:50:42Z</time>
      </trkpt>
      <trkpt lat="40.475980" lon="-2.670832">
        <ele>757.8</ele>
        <time>2015-02-22T12:50:45Z</time>
      </trkpt>
      <trkpt lat="40.476112" lon="-2.670871">
        <ele>757.4</ele>
        <time>2015-02-22T12:50:48Z</time>
      </trkpt>
      <trkpt lat="40.476199" lon="-2.670905">
        <ele>757.0</ele>
        <time>2015-02-22T12:50:50Z</time>
      </trkpt>
      <trkpt lat="40.476282" lon="-2.670950">
        <ele>756.7</ele>
        <time>2015-02-22T12:50:52Z</time>
      </trkpt>
      <trkpt lat="40.476405" lon="-2.671008">
        <ele>756.2</ele>
        <time>2015-02-22T12:50:55Z</time>
      </trkpt>
      <trkpt lat="40.476530" lon="-2.671062">
        <ele>755.9</ele>
        <time>2015-02-22T12:50:58Z</time>
      </trkpt>
      <trkpt lat="40.476653" lon="-2.671120">
        <ele>755.6</ele>
        <time>2015-02-22T12:51:01Z</time>
      </trkpt>
      <trkpt lat="40.476783" lon="-2.671163">
        <ele>755.6</ele>
        <time>2015-02-22T12:51:04Z</time>
      </trkpt>
      <trkpt lat="40.476915" lon="-2.671180">
        <ele>755.7</ele>
        <time>2015-02-22T12:51:07Z</time>
      </trkpt>
      <trkpt lat="40.477044" lon="-2.671180">
        <ele>756.0</ele>
        <time>2015-02-22T12:51:10Z</time>
      </trkpt>
      <trkpt lat="40.477170" lon="-2.671172">
        <ele>756.2</ele>
        <time>2015-02-22T12:51:13Z</time>
      </trkpt>
      <trkpt lat="40.477289" lon="-2.671162">
        <ele>756.4</ele>
        <time>2015-02-22T12:51:16Z</time>
      </trkpt>
      <trkpt lat="40.477397" lon="-2.671160">
        <ele>756.7</ele>
        <time>2015-02-22T12:51:19Z</time>
      </trkpt>
      <trkpt lat="40.477505" lon="-2.671162">
        <ele>756.8</ele>
        <time>2015-02-22T12:51:22Z</time>
      </trkpt>
      <trkpt lat="40.477614" lon="-2.671163">
        <ele>757.5</ele>
        <time>2015-02-22T12:51:25Z</time>
      </trkpt>
      <trkpt lat="40.477720" lon="-2.671158">
        <ele>758.2</ele>
        <time>2015-02-22T12:51:28Z</time>
      </trkpt>
      <trkpt lat="40.477832" lon="-2.671140">
        <ele>759.0</ele>
        <time>2015-02-22T12:51:31Z</time>
      </trkpt>
      <trkpt lat="40.477955" lon="-2.671126">
        <ele>759.8</ele>
        <time>2015-02-22T12:51:34Z</time>
      </trkpt>
      <trkpt lat="40.478077" lon="-2.671132">
        <ele>760.6</ele>
        <time>2015-02-22T12:51:37Z</time>
      </trkpt>
      <trkpt lat="40.478197" lon="-2.671138">
        <ele>761.3</ele>
        <time>2015-02-22T12:51:40Z</time>
      </trkpt>
      <trkpt lat="40.478310" lon="-2.671140">
        <ele>762.0</ele>
        <time>2015-02-22T12:51:43Z</time>
      </trkpt>
      <trkpt lat="40.478422" lon="-2.671150">
        <ele>762.3</ele>
        <time>2015-02-22T12:51:46Z</time>
      </trkpt>
      <trkpt lat="40.478535" lon="-2.671150">
        <ele>762.5</ele>
        <time>2015-02-22T12:51:49Z</time>
      </trkpt>
      <trkpt lat="40.478647" lon="-2.671138">
        <ele>762.9</ele>
        <time>2015-02-22T12:51:52Z</time>
      </trkpt>
      <trkpt lat="40.478765" lon="-2.671123">
        <ele>763.3</ele>
        <time>2015-02-22T12:51:55Z</time>
      </trkpt>
      <trkpt lat="40.478883" lon="-2.671110">
        <ele>763.8</ele>
        <time>2015-02-22T12:51:58Z</time>
      </trkpt>
      <trkpt lat="40.479000" lon="-2.671093">
        <ele>764.4</ele>
        <time>2015-02-22T12:52:01Z</time>
      </trkpt>
      <trkpt lat="40.479118" lon="-2.671082">
        <ele>764.9</ele>
        <time>2015-02-22T12:52:04Z</time>
      </trkpt>
      <trkpt lat="40.479237" lon="-2.671078">
        <ele>765.2</ele>
        <time>2015-02-22T12:52:07Z</time>
      </trkpt>
      <trkpt lat="40.479353" lon="-2.671082">
        <ele>765.6</ele>
        <time>2015-02-22T12:52:10Z</time>
      </trkpt>
      <trkpt lat="40.479467" lon="-2.671095">
        <ele>765.8</ele>
        <time>2015-02-22T12:52:13Z</time>
      </trkpt>
      <trkpt lat="40.479573" lon="-2.671110">
        <ele>765.9</ele>
        <time>2015-02-22T12:52:16Z</time>
      </trkpt>
      <trkpt lat="40.479682" lon="-2.671121">
        <ele>766.3</ele>
        <time>2015-02-22T12:52:19Z</time>
      </trkpt>
      <trkpt lat="40.479792" lon="-2.671126">
        <ele>766.5</ele>
        <time>2015-02-22T12:52:22Z</time>
      </trkpt>
      <trkpt lat="40.479885" lon="-2.671128">
        <ele>766.8</ele>
        <time>2015-02-22T12:52:24Z</time>
      </trkpt>
      <trkpt lat="40.479980" lon="-2.671125">
        <ele>767.1</ele>
        <time>2015-02-22T12:52:27Z</time>
      </trkpt>
      <trkpt lat="40.480095" lon="-2.671120">
        <ele>767.2</ele>
        <time>2015-02-22T12:52:30Z</time>
      </trkpt>
      <trkpt lat="40.480205" lon="-2.671121">
        <ele>767.1</ele>
        <time>2015-02-22T12:52:33Z</time>
      </trkpt>
      <trkpt lat="40.480310" lon="-2.671140">
        <ele>766.9</ele>
        <time>2015-02-22T12:52:36Z</time>
      </trkpt>
      <trkpt lat="40.480400" lon="-2.671163">
        <ele>766.7</ele>
        <time>2015-02-22T12:52:39Z</time>
      </trkpt>
      <trkpt lat="40.480510" lon="-2.671168">
        <ele>766.6</ele>
        <time>2015-02-22T12:52:43Z</time>
      </trkpt>
      <trkpt lat="40.480609" lon="-2.671163">
        <ele>766.5</ele>
        <time>2015-02-22T12:53:22Z</time>
      </trkpt>
      <trkpt lat="40.480702" lon="-2.671173">
        <ele>766.5</ele>
        <time>2015-02-22T12:53:26Z</time>
      </trkpt>
      <trkpt lat="40.480798" lon="-2.671198">
        <ele>766.3</ele>
        <time>2015-02-22T12:53:32Z</time>
      </trkpt>
      <trkpt lat="40.480895" lon="-2.671228">
        <ele>766.0</ele>
        <time>2015-02-22T12:53:35Z</time>
      </trkpt>
      <trkpt lat="40.481007" lon="-2.671192">
        <ele>766.1</ele>
        <time>2015-02-22T12:53:38Z</time>
      </trkpt>
      <trkpt lat="40.481105" lon="-2.671103">
        <ele>766.1</ele>
        <time>2015-02-22T12:53:41Z</time>
      </trkpt>
      <trkpt lat="40.481192" lon="-2.670990">
        <ele>766.1</ele>
        <time>2015-02-22T12:53:44Z</time>
      </trkpt>
      <trkpt lat="40.481267" lon="-2.670881">
        <ele>765.9</ele>
        <time>2015-02-22T12:53:47Z</time>
      </trkpt>
      <trkpt lat="40.481332" lon="-2.670793">
        <ele>765.9</ele>
        <time>2015-02-22T12:53:50Z</time>
      </trkpt>
      <trkpt lat="40.481404" lon="-2.670713">
        <ele>766.2</ele>
        <time>2015-02-22T12:53:53Z</time>
      </trkpt>
      <trkpt lat="40.481473" lon="-2.670627">
        <ele>766.7</ele>
        <time>2015-02-22T12:53:56Z</time>
      </trkpt>
      <trkpt lat="40.481545" lon="-2.670546">
        <ele>767.0</ele>
        <time>2015-02-22T12:53:59Z</time>
      </trkpt>
      <trkpt lat="40.481640" lon="-2.670455">
        <ele>767.3</ele>
        <time>2015-02-22T12:54:03Z</time>
      </trkpt>
      <trkpt lat="40.481739" lon="-2.670382">
        <ele>767.9</ele>
        <time>2015-02-22T12:54:07Z</time>
      </trkpt>
      <trkpt lat="40.481842" lon="-2.670325">
        <ele>768.6</ele>
        <time>2015-02-22T12:54:11Z</time>
      </trkpt>
      <trkpt lat="40.481953" lon="-2.670280">
        <ele>769.1</ele>
        <time>2015-02-22T12:54:15Z</time>
      </trkpt>
      <trkpt lat="40.482067" lon="-2.670238">
        <ele>769.4</ele>
        <time>2015-02-22T12:54:19Z</time>
      </trkpt>
      <trkpt lat="40.482160" lon="-2.670193">
        <ele>769.7</ele>
        <time>2015-02-22T12:54:22Z</time>
      </trkpt>
      <trkpt lat="40.482265" lon="-2.670145">
        <ele>769.9</ele>
        <time>2015-02-22T12:54:25Z</time>
      </trkpt>
      <trkpt lat="40.482368" lon="-2.670081">
        <ele>770.0</ele>
        <time>2015-02-22T12:54:28Z</time>
      </trkpt>
      <trkpt lat="40.482467" lon="-2.670013">
        <ele>770.0</ele>
        <time>2015-02-22T12:54:31Z</time>
      </trkpt>
      <trkpt lat="40.482555" lon="-2.669928">
        <ele>770.5</ele>
        <time>2015-02-22T12:54:34Z</time>
      </trkpt>
      <trkpt lat="40.482637" lon="-2.669837">
        <ele>771.2</ele>
        <time>2015-02-22T12:54:37Z</time>
      </trkpt>
      <trkpt lat="40.482717" lon="-2.669741">
        <ele>771.8</ele>
        <time>2015-02-22T12:54:40Z</time>
      </trkpt>
      <trkpt lat="40.482793" lon="-2.669636">
        <ele>772.3</ele>
        <time>2015-02-22T12:54:43Z</time>
      </trkpt>
      <trkpt lat="40.482870" lon="-2.669531">
        <ele>772.7</ele>
        <time>2015-02-22T12:54:46Z</time>
      </trkpt>
      <trkpt lat="40.482950" lon="-2.669433">
        <ele>772.9</ele>
        <time>2015-02-22T12:54:49Z</time>
      </trkpt>
      <trkpt lat="40.483030" lon="-2.669326">
        <ele>773.0</ele>
        <time>2015-02-22T12:54:52Z</time>
      </trkpt>
      <trkpt lat="40.483107" lon="-2.669220">
        <ele>773.0</ele>
        <time>2015-02-22T12:54:55Z</time>
      </trkpt>
      <trkpt lat="40.483182" lon="-2.669115">
        <ele>773.2</ele>
        <time>2015-02-22T12:54:58Z</time>
      </trkpt>
      <trkpt lat="40.483257" lon="-2.669011">
        <ele>773.5</ele>
        <time>2015-02-22T12:55:01Z</time>
      </trkpt>
      <trkpt lat="40.483335" lon="-2.668917">
        <ele>773.6</ele>
        <time>2015-02-22T12:55:04Z</time>
      </trkpt>
      <trkpt lat="40.483414" lon="-2.668818">
        <ele>774.3</ele>
        <time>2015-02-22T12:55:07Z</time>
      </trkpt>
      <trkpt lat="40.483487" lon="-2.668718">
        <ele>774.8</ele>
        <time>2015-02-22T12:55:10Z</time>
      </trkpt>
      <trkpt lat="40.483552" lon="-2.668620">
        <ele>775.1</ele>
        <time>2015-02-22T12:55:13Z</time>
      </trkpt>
      <trkpt lat="40.483622" lon="-2.668520">
        <ele>775.3</ele>
        <time>2015-02-22T12:55:16Z</time>
      </trkpt>
      <trkpt lat="40.483692" lon="-2.668413">
        <ele>775.2</ele>
        <time>2015-02-22T12:55:19Z</time>
      </trkpt>
      <trkpt lat="40.483759" lon="-2.668316">
        <ele>775.0</ele>
        <time>2015-02-22T12:55:22Z</time>
      </trkpt>
      <trkpt lat="40.483822" lon="-2.668225">
        <ele>775.2</ele>
        <time>2015-02-22T12:55:25Z</time>
      </trkpt>
      <trkpt lat="40.483882" lon="-2.668121">
        <ele>775.3</ele>
        <time>2015-02-22T12:55:28Z</time>
      </trkpt>
      <trkpt lat="40.483942" lon="-2.668023">
        <ele>775.3</ele>
        <time>2015-02-22T12:55:31Z</time>
      </trkpt>
      <trkpt lat="40.484000" lon="-2.667928">
        <ele>775.3</ele>
        <time>2015-02-22T12:55:34Z</time>
      </trkpt>
      <trkpt lat="40.484062" lon="-2.667835">
        <ele>775.2</ele>
        <time>2015-02-22T12:55:37Z</time>
      </trkpt>
      <trkpt lat="40.484115" lon="-2.667730">
        <ele>775.1</ele>
        <time>2015-02-22T12:55:40Z</time>
      </trkpt>
      <trkpt lat="40.484152" lon="-2.667615">
        <ele>775.0</ele>
        <time>2015-02-22T12:55:43Z</time>
      </trkpt>
      <trkpt lat="40.484168" lon="-2.667498">
        <ele>775.0</ele>
        <time>2015-02-22T12:55:46Z</time>
      </trkpt>
      <trkpt lat="40.484173" lon="-2.667347">
        <ele>775.8</ele>
        <time>2015-02-22T12:55:50Z</time>
      </trkpt>
      <trkpt lat="40.484170" lon="-2.667195">
        <ele>776.5</ele>
        <time>2015-02-22T12:55:54Z</time>
      </trkpt>
      <trkpt lat="40.484165" lon="-2.667040">
        <ele>777.2</ele>
        <time>2015-02-22T12:55:58Z</time>
      </trkpt>
      <trkpt lat="40.484168" lon="-2.666886">
        <ele>777.9</ele>
        <time>2015-02-22T12:56:02Z</time>
      </trkpt>
      <trkpt lat="40.484177" lon="-2.666731">
        <ele>778.7</ele>
        <time>2015-02-22T12:56:06Z</time>
      </trkpt>
      <trkpt lat="40.484189" lon="-2.666578">
        <ele>779.4</ele>
        <time>2015-02-22T12:56:10Z</time>
      </trkpt>
      <trkpt lat="40.484202" lon="-2.666426">
        <ele>780.3</ele>
        <time>2015-02-22T12:56:14Z</time>
      </trkpt>
      <trkpt lat="40.484219" lon="-2.666280">
        <ele>781.0</ele>
        <time>2015-02-22T12:56:18Z</time>
      </trkpt>
      <trkpt lat="40.484240" lon="-2.666137">
        <ele>781.6</ele>
        <time>2015-02-22T12:56:22Z</time>
      </trkpt>
      <trkpt lat="40.484267" lon="-2.666000">
        <ele>782.1</ele>
        <time>2015-02-22T12:56:26Z</time>
      </trkpt>
      <trkpt lat="40.484299" lon="-2.665875">
        <ele>782.3</ele>
        <time>2015-02-22T12:56:30Z</time>
      </trkpt>
      <trkpt lat="40.484332" lon="-2.665755">
        <ele>782.8</ele>
        <time>2015-02-22T12:56:34Z</time>
      </trkpt>
      <trkpt lat="40.484365" lon="-2.665628">
        <ele>783.2</ele>
        <time>2015-02-22T12:56:38Z</time>
      </trkpt>
      <trkpt lat="40.484397" lon="-2.665500">
        <ele>783.7</ele>
        <time>2015-02-22T12:56:42Z</time>
      </trkpt>
      <trkpt lat="40.484432" lon="-2.665375">
        <ele>784.2</ele>
        <time>2015-02-22T12:56:46Z</time>
      </trkpt>
      <trkpt lat="40.484475" lon="-2.665260">
        <ele>784.5</ele>
        <time>2015-02-22T12:56:50Z</time>
      </trkpt>
      <trkpt lat="40.484527" lon="-2.665152">
        <ele>784.6</ele>
        <time>2015-02-22T12:56:54Z</time>
      </trkpt>
      <trkpt lat="40.484585" lon="-2.665043">
        <ele>784.6</ele>
        <time>2015-02-22T12:56:58Z</time>
      </trkpt>
      <trkpt lat="40.484644" lon="-2.664943">
        <ele>785.1</ele>
        <time>2015-02-22T12:57:02Z</time>
      </trkpt>
      <trkpt lat="40.484703" lon="-2.664825">
        <ele>786.3</ele>
        <time>2015-02-22T12:57:07Z</time>
      </trkpt>
      <trkpt lat="40.484728" lon="-2.664688">
        <ele>788.4</ele>
        <time>2015-02-22T12:57:12Z</time>
      </trkpt>
      <trkpt lat="40.484754" lon="-2.664557">
        <ele>790.1</ele>
        <time>2015-02-22T12:57:17Z</time>
      </trkpt>
      <trkpt lat="40.484775" lon="-2.664428">
        <ele>792.0</ele>
        <time>2015-02-22T12:57:22Z</time>
      </trkpt>
      <trkpt lat="40.484769" lon="-2.664290">
        <ele>794.2</ele>
        <time>2015-02-22T12:57:28Z</time>
      </trkpt>
      <trkpt lat="40.484742" lon="-2.664155">
        <ele>796.9</ele>
        <time>2015-02-22T12:57:34Z</time>
      </trkpt>
      <trkpt lat="40.484718" lon="-2.664023">
        <ele>799.4</ele>
        <time>2015-02-22T12:57:40Z</time>
      </trkpt>
      <trkpt lat="40.484754" lon="-2.663897">
        <ele>800.9</ele>
        <time>2015-02-22T12:57:46Z</time>
      </trkpt>
      <trkpt lat="40.484802" lon="-2.663780">
        <ele>802.3</ele>
        <time>2015-02-22T12:57:52Z</time>
      </trkpt>
      <trkpt lat="40.484835" lon="-2.663662">
        <ele>803.9</ele>
        <time>2015-02-22T12:57:58Z</time>
      </trkpt>
      <trkpt lat="40.484830" lon="-2.663528">
        <ele>806.5</ele>
        <time>2015-02-22T12:58:04Z</time>
      </trkpt>
      <trkpt lat="40.484807" lon="-2.663395">
        <ele>809.0</ele>
        <time>2015-02-22T12:58:10Z</time>
      </trkpt>
      <trkpt lat="40.484789" lon="-2.663271">
        <ele>810.8</ele>
        <time>2015-02-22T12:58:16Z</time>
      </trkpt>
      <trkpt lat="40.484749" lon="-2.663165">
        <ele>812.2</ele>
        <time>2015-02-22T12:58:22Z</time>
      </trkpt>
      <trkpt lat="40.484659" lon="-2.663170">
        <ele>813.0</ele>
        <time>2015-02-22T12:59:11Z</time>
      </trkpt>
      <trkpt lat="40.484593" lon="-2.663085">
        <ele>814.5</ele>
        <time>2015-02-22T12:59:18Z</time>
      </trkpt>
      <trkpt lat="40.484545" lon="-2.662960">
        <ele>815.9</ele>
        <time>2015-02-22T12:59:39Z</time>
      </trkpt>
      <trkpt lat="40.484509" lon="-2.662797">
        <ele>817.7</ele>
        <time>2015-02-22T12:59:42Z</time>
      </trkpt>
      <trkpt lat="40.484547" lon="-2.662643">
        <ele>818.6</ele>
        <time>2015-02-22T12:59:44Z</time>
      </trkpt>
      <trkpt lat="40.484598" lon="-2.662495">
        <ele>819.4</ele>
        <time>2015-02-22T12:59:46Z</time>
      </trkpt>
      <trkpt lat="40.484639" lon="-2.662347">
        <ele>820.5</ele>
        <time>2015-02-22T12:59:48Z</time>
      </trkpt>
      <trkpt lat="40.484665" lon="-2.662207">
        <ele>821.8</ele>
        <time>2015-02-22T12:59:50Z</time>
      </trkpt>
      <trkpt lat="40.484660" lon="-2.662081">
        <ele>823.1</ele>
        <time>2015-02-22T12:59:52Z</time>
      </trkpt>
      <trkpt lat="40.484610" lon="-2.661933">
        <ele>825.0</ele>
        <time>2015-02-22T12:59:55Z</time>
      </trkpt>
      <trkpt lat="40.484575" lon="-2.661797">
        <ele>826.7</ele>
        <time>2015-02-22T12:59:58Z</time>
      </trkpt>
      <trkpt lat="40.484480" lon="-2.661803">
        <ele>827.3</ele>
        <time>2015-02-22T13:01:08Z</time>
      </trkpt>
      <trkpt lat="40.484412" lon="-2.661715">
        <ele>828.7</ele>
        <time>2015-02-22T13:01:21Z</time>
      </trkpt>
      <trkpt lat="40.484460" lon="-2.661610">
        <ele>829.4</ele>
        <time>2015-02-22T13:02:05Z</time>
      </trkpt>
      <trkpt lat="40.484398" lon="-2.661702">
        <ele>828.9</ele>
        <time>2015-02-22T13:02:35Z</time>
      </trkpt>
      <trkpt lat="40.484452" lon="-2.661736">
        <ele>828.2</ele>
        <time>2015-02-22T13:05:41Z</time>
      </trkpt>
      <trkpt lat="40.484398" lon="-2.661835">
        <ele>827.7</ele>
        <time>2015-02-22T13:09:54Z</time>
      </trkpt>
      <trkpt lat="40.484488" lon="-2.661800">
        <ele>827.2</ele>
        <time>2015-02-22T13:10:20Z</time>
      </trkpt>
      <trkpt lat="40.484580" lon="-2.661817">
        <ele>826.4</ele>
        <time>2015-02-22T13:10:36Z</time>
      </trkpt>
      <trkpt lat="40.484674" lon="-2.661888">
        <ele>825.1</ele>
        <time>2015-02-22T13:10:41Z</time>
      </trkpt>
      <trkpt lat="40.484747" lon="-2.661985">
        <ele>823.4</ele>
        <time>2015-02-22T13:10:46Z</time>
      </trkpt>
      <trkpt lat="40.484810" lon="-2.662105">
        <ele>821.7</ele>
        <time>2015-02-22T13:10:50Z</time>
      </trkpt>
      <trkpt lat="40.484864" lon="-2.662208">
        <ele>820.2</ele>
        <time>2015-02-22T13:10:53Z</time>
      </trkpt>
      <trkpt lat="40.484964" lon="-2.662247">
        <ele>819.0</ele>
        <time>2015-02-22T13:10:56Z</time>
      </trkpt>
      <trkpt lat="40.485084" lon="-2.662240">
        <ele>817.7</ele>
        <time>2015-02-22T13:10:59Z</time>
      </trkpt>
      <trkpt lat="40.485190" lon="-2.662213">
        <ele>816.5</ele>
        <time>2015-02-22T13:11:02Z</time>
      </trkpt>
      <trkpt lat="40.485315" lon="-2.662178">
        <ele>815.0</ele>
        <time>2015-02-22T13:11:05Z</time>
      </trkpt>
      <trkpt lat="40.485412" lon="-2.662101">
        <ele>814.3</ele>
        <time>2015-02-22T13:11:08Z</time>
      </trkpt>
      <trkpt lat="40.485488" lon="-2.662000">
        <ele>814.1</ele>
        <time>2015-02-22T13:11:11Z</time>
      </trkpt>
      <trkpt lat="40.485597" lon="-2.661988">
        <ele>812.5</ele>
        <time>2015-02-22T13:11:14Z</time>
      </trkpt>
      <trkpt lat="40.485685" lon="-2.662040">
        <ele>810.9</ele>
        <time>2015-02-22T13:11:16Z</time>
      </trkpt>
      <trkpt lat="40.485797" lon="-2.662083">
        <ele>809.0</ele>
        <time>2015-02-22T13:11:18Z</time>
      </trkpt>
      <trkpt lat="40.485920" lon="-2.662117">
        <ele>807.4</ele>
        <time>2015-02-22T13:11:20Z</time>
      </trkpt>
      <trkpt lat="40.486053" lon="-2.662098">
        <ele>806.3</ele>
        <time>2015-02-22T13:11:22Z</time>
      </trkpt>
      <trkpt lat="40.486197" lon="-2.662058">
        <ele>805.2</ele>
        <time>2015-02-22T13:11:24Z</time>
      </trkpt>
      <trkpt lat="40.486370" lon="-2.662020">
        <ele>803.7</ele>
        <time>2015-02-22T13:11:26Z</time>
      </trkpt>
      <trkpt lat="40.486463" lon="-2.661978">
        <ele>803.1</ele>
        <time>2015-02-22T13:11:27Z</time>
      </trkpt>
      <trkpt lat="40.486557" lon="-2.661931">
        <ele>802.4</ele>
        <time>2015-02-22T13:11:28Z</time>
      </trkpt>
      <trkpt lat="40.486657" lon="-2.661890">
        <ele>801.8</ele>
        <time>2015-02-22T13:11:29Z</time>
      </trkpt>
      <trkpt lat="40.486764" lon="-2.661862">
        <ele>801.2</ele>
        <time>2015-02-22T13:11:30Z</time>
      </trkpt>
      <trkpt lat="40.486872" lon="-2.661858">
        <ele>800.6</ele>
        <time>2015-02-22T13:11:31Z</time>
      </trkpt>
      <trkpt lat="40.486980" lon="-2.661880">
        <ele>799.8</ele>
        <time>2015-02-22T13:11:32Z</time>
      </trkpt>
      <trkpt lat="40.487082" lon="-2.661910">
        <ele>798.9</ele>
        <time>2015-02-22T13:11:33Z</time>
      </trkpt>
      <trkpt lat="40.487178" lon="-2.661936">
        <ele>798.1</ele>
        <time>2015-02-22T13:11:34Z</time>
      </trkpt>
      <trkpt lat="40.487277" lon="-2.661961">
        <ele>797.2</ele>
        <time>2015-02-22T13:11:35Z</time>
      </trkpt>
      <trkpt lat="40.487373" lon="-2.661983">
        <ele>796.3</ele>
        <time>2015-02-22T13:11:36Z</time>
      </trkpt>
      <trkpt lat="40.487468" lon="-2.662003">
        <ele>795.5</ele>
        <time>2015-02-22T13:11:37Z</time>
      </trkpt>
      <trkpt lat="40.487562" lon="-2.662020">
        <ele>795.3</ele>
        <time>2015-02-22T13:11:38Z</time>
      </trkpt>
      <trkpt lat="40.487655" lon="-2.662030">
        <ele>795.3</ele>
        <time>2015-02-22T13:11:39Z</time>
      </trkpt>
      <trkpt lat="40.487747" lon="-2.662036">
        <ele>795.2</ele>
        <time>2015-02-22T13:11:40Z</time>
      </trkpt>
      <trkpt lat="40.487838" lon="-2.662048">
        <ele>795.2</ele>
        <time>2015-02-22T13:11:41Z</time>
      </trkpt>
      <trkpt lat="40.487930" lon="-2.662063">
        <ele>795.2</ele>
        <time>2015-02-22T13:11:42Z</time>
      </trkpt>
      <trkpt lat="40.488022" lon="-2.662083">
        <ele>795.1</ele>
        <time>2015-02-22T13:11:43Z</time>
      </trkpt>
      <trkpt lat="40.488114" lon="-2.662100">
        <ele>794.9</ele>
        <time>2015-02-22T13:11:44Z</time>
      </trkpt>
      <trkpt lat="40.488207" lon="-2.662110">
        <ele>795.0</ele>
        <time>2015-02-22T13:11:45Z</time>
      </trkpt>
      <trkpt lat="40.488298" lon="-2.662117">
        <ele>794.9</ele>
        <time>2015-02-22T13:11:46Z</time>
      </trkpt>
      <trkpt lat="40.488388" lon="-2.662130">
        <ele>795.2</ele>
        <time>2015-02-22T13:11:47Z</time>
      </trkpt>
      <trkpt lat="40.488552" lon="-2.662165">
        <ele>795.8</ele>
        <time>2015-02-22T13:11:49Z</time>
      </trkpt>
      <trkpt lat="40.488700" lon="-2.662203">
        <ele>796.2</ele>
        <time>2015-02-22T13:11:51Z</time>
      </trkpt>
      <trkpt lat="40.488837" lon="-2.662233">
        <ele>796.6</ele>
        <time>2015-02-22T13:11:53Z</time>
      </trkpt>
      <trkpt lat="40.488955" lon="-2.662242">
        <ele>797.4</ele>
        <time>2015-02-22T13:11:55Z</time>
      </trkpt>
      <trkpt lat="40.489055" lon="-2.662248">
        <ele>797.8</ele>
        <time>2015-02-22T13:11:57Z</time>
      </trkpt>
      <trkpt lat="40.489149" lon="-2.662271">
        <ele>797.9</ele>
        <time>2015-02-22T13:11:59Z</time>
      </trkpt>
      <trkpt lat="40.489242" lon="-2.662300">
        <ele>797.7</ele>
        <time>2015-02-22T13:12:01Z</time>
      </trkpt>
      <trkpt lat="40.489335" lon="-2.662333">
        <ele>797.3</ele>
        <time>2015-02-22T13:12:03Z</time>
      </trkpt>
      <trkpt lat="40.489425" lon="-2.662367">
        <ele>797.1</ele>
        <time>2015-02-22T13:12:05Z</time>
      </trkpt>
      <trkpt lat="40.489515" lon="-2.662396">
        <ele>796.9</ele>
        <time>2015-02-22T13:12:07Z</time>
      </trkpt>
      <trkpt lat="40.489612" lon="-2.662421">
        <ele>796.8</ele>
        <time>2015-02-22T13:12:09Z</time>
      </trkpt>
      <trkpt lat="40.489712" lon="-2.662433">
        <ele>796.9</ele>
        <time>2015-02-22T13:12:11Z</time>
      </trkpt>
      <trkpt lat="40.489815" lon="-2.662437">
        <ele>797.3</ele>
        <time>2015-02-22T13:12:13Z</time>
      </trkpt>
      <trkpt lat="40.489915" lon="-2.662432">
        <ele>797.6</ele>
        <time>2015-02-22T13:12:15Z</time>
      </trkpt>
      <trkpt lat="40.490015" lon="-2.662425">
        <ele>797.8</ele>
        <time>2015-02-22T13:12:17Z</time>
      </trkpt>
      <trkpt lat="40.490114" lon="-2.662415">
        <ele>797.9</ele>
        <time>2015-02-22T13:12:19Z</time>
      </trkpt>
      <trkpt lat="40.490208" lon="-2.662405">
        <ele>797.9</ele>
        <time>2015-02-22T13:12:21Z</time>
      </trkpt>
      <trkpt lat="40.490303" lon="-2.662400">
        <ele>797.7</ele>
        <time>2015-02-22T13:12:23Z</time>
      </trkpt>
      <trkpt lat="40.490395" lon="-2.662401">
        <ele>797.6</ele>
        <time>2015-02-22T13:12:25Z</time>
      </trkpt>
      <trkpt lat="40.490525" lon="-2.662400">
        <ele>797.4</ele>
        <time>2015-02-22T13:12:28Z</time>
      </trkpt>
      <trkpt lat="40.490647" lon="-2.662373">
        <ele>797.4</ele>
        <time>2015-02-22T13:12:31Z</time>
      </trkpt>
      <trkpt lat="40.490758" lon="-2.662317">
        <ele>797.9</ele>
        <time>2015-02-22T13:12:34Z</time>
      </trkpt>
      <trkpt lat="40.490862" lon="-2.662253">
        <ele>798.4</ele>
        <time>2015-02-22T13:12:37Z</time>
      </trkpt>
      <trkpt lat="40.490967" lon="-2.662212">
        <ele>798.7</ele>
        <time>2015-02-22T13:12:40Z</time>
      </trkpt>
      <trkpt lat="40.491070" lon="-2.662185">
        <ele>798.9</ele>
        <time>2015-02-22T13:12:43Z</time>
      </trkpt>
      <trkpt lat="40.491164" lon="-2.662170">
        <ele>799.0</ele>
        <time>2015-02-22T13:12:46Z</time>
      </trkpt>
      <trkpt lat="40.491275" lon="-2.662150">
        <ele>799.1</ele>
        <time>2015-02-22T13:12:50Z</time>
      </trkpt>
      <trkpt lat="40.491387" lon="-2.662180">
        <ele>798.8</ele>
        <time>2015-02-22T13:12:54Z</time>
      </trkpt>
      <trkpt lat="40.491410" lon="-2.662345">
        <ele>798.1</ele>
        <time>2015-02-22T13:12:57Z</time>
      </trkpt>
      <trkpt lat="40.491423" lon="-2.662482">
        <ele>797.5</ele>
        <time>2015-02-22T13:12:59Z</time>
      </trkpt>
      <trkpt lat="40.491435" lon="-2.662635">
        <ele>798.3</ele>
        <time>2015-02-22T13:13:01Z</time>
      </trkpt>
      <trkpt lat="40.491457" lon="-2.662792">
        <ele>799.4</ele>
        <time>2015-02-22T13:13:03Z</time>
      </trkpt>
      <trkpt lat="40.491530" lon="-2.662905">
        <ele>800.3</ele>
        <time>2015-02-22T13:13:05Z</time>
      </trkpt>
      <trkpt lat="40.491630" lon="-2.662973">
        <ele>801.3</ele>
        <time>2015-02-22T13:13:07Z</time>
      </trkpt>
      <trkpt lat="40.491709" lon="-2.663038">
        <ele>802.1</ele>
        <time>2015-02-22T13:13:09Z</time>
      </trkpt>
      <trkpt lat="40.491772" lon="-2.663145">
        <ele>803.1</ele>
        <time>2015-02-22T13:13:13Z</time>
      </trkpt>
      <trkpt lat="40.491785" lon="-2.663263">
        <ele>804.0</ele>
        <time>2015-02-22T13:13:18Z</time>
      </trkpt>
      <trkpt lat="40.491810" lon="-2.663390">
        <ele>805.4</ele>
        <time>2015-02-22T13:13:25Z</time>
      </trkpt>
      <trkpt lat="40.491819" lon="-2.663523">
        <ele>807.3</ele>
        <time>2015-02-22T13:13:32Z</time>
      </trkpt>
      <trkpt lat="40.491845" lon="-2.663652">
        <ele>809.2</ele>
        <time>2015-02-22T13:13:39Z</time>
      </trkpt>
      <trkpt lat="40.491900" lon="-2.663762">
        <ele>810.7</ele>
        <time>2015-02-22T13:13:46Z</time>
      </trkpt>
      <trkpt lat="40.491953" lon="-2.663866">
        <ele>812.3</ele>
        <time>2015-02-22T13:13:52Z</time>
      </trkpt>
      <trkpt lat="40.492014" lon="-2.663955">
        <ele>813.6</ele>
        <time>2015-02-22T13:13:58Z</time>
      </trkpt>
      <trkpt lat="40.492097" lon="-2.664023">
        <ele>814.6</ele>
        <time>2015-02-22T13:14:05Z</time>
      </trkpt>
      <trkpt lat="40.492177" lon="-2.664091">
        <ele>815.8</ele>
        <time>2015-02-22T13:14:12Z</time>
      </trkpt>
      <trkpt lat="40.492269" lon="-2.664145">
        <ele>816.6</ele>
        <time>2015-02-22T13:14:19Z</time>
      </trkpt>
      <trkpt lat="40.492362" lon="-2.664201">
        <ele>817.1</ele>
        <time>2015-02-22T13:14:26Z</time>
      </trkpt>
      <trkpt lat="40.492448" lon="-2.664256">
        <ele>817.6</ele>
        <time>2015-02-22T13:14:33Z</time>
      </trkpt>
      <trkpt lat="40.492537" lon="-2.664332">
        <ele>818.6</ele>
        <time>2015-02-22T13:14:39Z</time>
      </trkpt>
      <trkpt lat="40.492620" lon="-2.664405">
        <ele>819.6</ele>
        <time>2015-02-22T13:14:44Z</time>
      </trkpt>
      <trkpt lat="40.492704" lon="-2.664468">
        <ele>820.3</ele>
        <time>2015-02-22T13:14:49Z</time>
      </trkpt>
      <trkpt lat="40.492795" lon="-2.664518">
        <ele>821.2</ele>
        <time>2015-02-22T13:14:54Z</time>
      </trkpt>
      <trkpt lat="40.492885" lon="-2.664572">
        <ele>822.0</ele>
        <time>2015-02-22T13:14:59Z</time>
      </trkpt>
      <trkpt lat="40.492950" lon="-2.664672">
        <ele>823.2</ele>
        <time>2015-02-22T13:15:05Z</time>
      </trkpt>
      <trkpt lat="40.493015" lon="-2.664776">
        <ele>824.5</ele>
        <time>2015-02-22T13:15:12Z</time>
      </trkpt>
      <trkpt lat="40.493077" lon="-2.664875">
        <ele>825.7</ele>
        <time>2015-02-22T13:15:19Z</time>
      </trkpt>
      <trkpt lat="40.493162" lon="-2.664940">
        <ele>826.7</ele>
        <time>2015-02-22T13:15:26Z</time>
      </trkpt>
      <trkpt lat="40.493250" lon="-2.664988">
        <ele>827.5</ele>
        <time>2015-02-22T13:15:33Z</time>
      </trkpt>
      <trkpt lat="40.493340" lon="-2.665056">
        <ele>829.1</ele>
        <time>2015-02-22T13:15:40Z</time>
      </trkpt>
      <trkpt lat="40.493425" lon="-2.665098">
        <ele>831.0</ele>
        <time>2015-02-22T13:15:46Z</time>
      </trkpt>
      <trkpt lat="40.493507" lon="-2.665150">
        <ele>833.1</ele>
        <time>2015-02-22T13:15:52Z</time>
      </trkpt>
      <trkpt lat="40.493595" lon="-2.665211">
        <ele>835.3</ele>
        <time>2015-02-22T13:15:59Z</time>
      </trkpt>
      <trkpt lat="40.493677" lon="-2.665263">
        <ele>837.2</ele>
        <time>2015-02-22T13:16:05Z</time>
      </trkpt>
      <trkpt lat="40.493753" lon="-2.665330">
        <ele>839.0</ele>
        <time>2015-02-22T13:16:11Z</time>
      </trkpt>
      <trkpt lat="40.493829" lon="-2.665413">
        <ele>840.8</ele>
        <time>2015-02-22T13:16:17Z</time>
      </trkpt>
      <trkpt lat="40.493907" lon="-2.665505">
        <ele>842.7</ele>
        <time>2015-02-22T13:16:23Z</time>
      </trkpt>
      <trkpt lat="40.493980" lon="-2.665598">
        <ele>844.4</ele>
        <time>2015-02-22T13:16:29Z</time>
      </trkpt>
      <trkpt lat="40.494045" lon="-2.665688">
        <ele>845.8</ele>
        <time>2015-02-22T13:16:35Z</time>
      </trkpt>
      <trkpt lat="40.494102" lon="-2.665798">
        <ele>847.2</ele>
        <time>2015-02-22T13:16:42Z</time>
      </trkpt>
      <trkpt lat="40.494154" lon="-2.665912">
        <ele>848.0</ele>
        <time>2015-02-22T13:16:49Z</time>
      </trkpt>
      <trkpt lat="40.494190" lon="-2.666022">
        <ele>848.5</ele>
        <time>2015-02-22T13:16:55Z</time>
      </trkpt>
      <trkpt lat="40.494227" lon="-2.666133">
        <ele>849.1</ele>
        <time>2015-02-22T13:17:01Z</time>
      </trkpt>
      <trkpt lat="40.494264" lon="-2.666247">
        <ele>849.7</ele>
        <time>2015-02-22T13:17:07Z</time>
      </trkpt>
      <trkpt lat="40.494282" lon="-2.666378">
        <ele>850.2</ele>
        <time>2015-02-22T13:17:14Z</time>
      </trkpt>
      <trkpt lat="40.494302" lon="-2.666501">
        <ele>850.6</ele>
        <time>2015-02-22T13:17:20Z</time>
      </trkpt>
      <trkpt lat="40.494332" lon="-2.666626">
        <ele>851.1</ele>
        <time>2015-02-22T13:17:26Z</time>
      </trkpt>
      <trkpt lat="40.494364" lon="-2.666745">
        <ele>852.5</ele>
        <time>2015-02-22T13:17:32Z</time>
      </trkpt>
      <trkpt lat="40.494389" lon="-2.666861">
        <ele>854.0</ele>
        <time>2015-02-22T13:17:38Z</time>
      </trkpt>
      <trkpt lat="40.494400" lon="-2.666980">
        <ele>855.4</ele>
        <time>2015-02-22T13:17:44Z</time>
      </trkpt>
      <trkpt lat="40.494389" lon="-2.667098">
        <ele>856.5</ele>
        <time>2015-02-22T13:17:51Z</time>
      </trkpt>
      <trkpt lat="40.494389" lon="-2.667235">
        <ele>858.1</ele>
        <time>2015-02-22T13:17:58Z</time>
      </trkpt>
      <trkpt lat="40.494410" lon="-2.667357">
        <ele>859.5</ele>
        <time>2015-02-22T13:18:04Z</time>
      </trkpt>
      <trkpt lat="40.494437" lon="-2.667488">
        <ele>861.1</ele>
        <time>2015-02-22T13:18:11Z</time>
      </trkpt>
      <trkpt lat="40.494459" lon="-2.667610">
        <ele>862.4</ele>
        <time>2015-02-22T13:18:17Z</time>
      </trkpt>
      <trkpt lat="40.494475" lon="-2.667728">
        <ele>863.6</ele>
        <time>2015-02-22T13:18:23Z</time>
      </trkpt>
      <trkpt lat="40.494507" lon="-2.667848">
        <ele>864.8</ele>
        <time>2015-02-22T13:18:30Z</time>
      </trkpt>
      <trkpt lat="40.494537" lon="-2.667978">
        <ele>866.2</ele>
        <time>2015-02-22T13:18:37Z</time>
      </trkpt>
      <trkpt lat="40.494557" lon="-2.668096">
        <ele>867.3</ele>
        <time>2015-02-22T13:18:43Z</time>
      </trkpt>
      <trkpt lat="40.494567" lon="-2.668221">
        <ele>868.5</ele>
        <time>2015-02-22T13:18:50Z</time>
      </trkpt>
      <trkpt lat="40.494590" lon="-2.668342">
        <ele>869.6</ele>
        <time>2015-02-22T13:18:56Z</time>
      </trkpt>
      <trkpt lat="40.494599" lon="-2.668478">
        <ele>870.7</ele>
        <time>2015-02-22T13:19:03Z</time>
      </trkpt>
      <trkpt lat="40.494607" lon="-2.668610">
        <ele>871.8</ele>
        <time>2015-02-22T13:19:09Z</time>
      </trkpt>
      <trkpt lat="40.494632" lon="-2.668740">
        <ele>873.0</ele>
        <time>2015-02-22T13:19:16Z</time>
      </trkpt>
      <trkpt lat="40.494650" lon="-2.668866">
        <ele>874.0</ele>
        <time>2015-02-22T13:19:23Z</time>
      </trkpt>
      <trkpt lat="40.494684" lon="-2.668980">
        <ele>875.2</ele>
        <time>2015-02-22T13:19:29Z</time>
      </trkpt>
      <trkpt lat="40.494717" lon="-2.669095">
        <ele>876.4</ele>
        <time>2015-02-22T13:19:35Z</time>
      </trkpt>
      <trkpt lat="40.494758" lon="-2.669205">
        <ele>877.6</ele>
        <time>2015-02-22T13:19:41Z</time>
      </trkpt>
      <trkpt lat="40.494792" lon="-2.669323">
        <ele>878.7</ele>
        <time>2015-02-22T13:19:47Z</time>
      </trkpt>
      <trkpt lat="40.494835" lon="-2.669443">
        <ele>880.0</ele>
        <time>2015-02-22T13:19:53Z</time>
      </trkpt>
      <trkpt lat="40.494885" lon="-2.669563">
        <ele>881.4</ele>
        <time>2015-02-22T13:19:59Z</time>
      </trkpt>
      <trkpt lat="40.494922" lon="-2.669678">
        <ele>882.7</ele>
        <time>2015-02-22T13:20:04Z</time>
      </trkpt>
      <trkpt lat="40.494954" lon="-2.669800">
        <ele>883.9</ele>
        <time>2015-02-22T13:20:09Z</time>
      </trkpt>
      <trkpt lat="40.494975" lon="-2.669933">
        <ele>885.2</ele>
        <time>2015-02-22T13:20:14Z</time>
      </trkpt>
      <trkpt lat="40.495003" lon="-2.670073">
        <ele>886.4</ele>
        <time>2015-02-22T13:20:19Z</time>
      </trkpt>
      <trkpt lat="40.495035" lon="-2.670208">
        <ele>887.8</ele>
        <time>2015-02-22T13:20:24Z</time>
      </trkpt>
      <trkpt lat="40.495062" lon="-2.670350">
        <ele>889.0</ele>
        <time>2015-02-22T13:20:29Z</time>
      </trkpt>
      <trkpt lat="40.495088" lon="-2.670490">
        <ele>890.2</ele>
        <time>2015-02-22T13:20:34Z</time>
      </trkpt>
      <trkpt lat="40.495115" lon="-2.670627">
        <ele>891.4</ele>
        <time>2015-02-22T13:20:39Z</time>
      </trkpt>
      <trkpt lat="40.495145" lon="-2.670765">
        <ele>892.7</ele>
        <time>2015-02-22T13:20:44Z</time>
      </trkpt>
      <trkpt lat="40.495175" lon="-2.670890">
        <ele>893.7</ele>
        <time>2015-02-22T13:20:49Z</time>
      </trkpt>
      <trkpt lat="40.495208" lon="-2.671010">
        <ele>894.5</ele>
        <time>2015-02-22T13:20:54Z</time>
      </trkpt>
      <trkpt lat="40.495245" lon="-2.671128">
        <ele>895.4</ele>
        <time>2015-02-22T13:20:59Z</time>
      </trkpt>
      <trkpt lat="40.495279" lon="-2.671242">
        <ele>896.2</ele>
        <time>2015-02-22T13:21:04Z</time>
      </trkpt>
      <trkpt lat="40.495325" lon="-2.671360">
        <ele>897.3</ele>
        <time>2015-02-22T13:21:10Z</time>
      </trkpt>
      <trkpt lat="40.495367" lon="-2.671483">
        <ele>898.3</ele>
        <time>2015-02-22T13:21:16Z</time>
      </trkpt>
      <trkpt lat="40.495412" lon="-2.671600">
        <ele>899.4</ele>
        <time>2015-02-22T13:21:22Z</time>
      </trkpt>
      <trkpt lat="40.495475" lon="-2.671697">
        <ele>900.7</ele>
        <time>2015-02-22T13:21:28Z</time>
      </trkpt>
      <trkpt lat="40.495557" lon="-2.671758">
        <ele>902.4</ele>
        <time>2015-02-22T13:21:34Z</time>
      </trkpt>
      <trkpt lat="40.495635" lon="-2.671823">
        <ele>904.0</ele>
        <time>2015-02-22T13:21:40Z</time>
      </trkpt>
      <trkpt lat="40.495700" lon="-2.671910">
        <ele>905.3</ele>
        <time>2015-02-22T13:21:46Z</time>
      </trkpt>
      <trkpt lat="40.495763" lon="-2.672001">
        <ele>906.6</ele>
        <time>2015-02-22T13:21:52Z</time>
      </trkpt>
      <trkpt lat="40.495824" lon="-2.672093">
        <ele>907.8</ele>
        <time>2015-02-22T13:21:58Z</time>
      </trkpt>
      <trkpt lat="40.495893" lon="-2.672170">
        <ele>909.3</ele>
        <time>2015-02-22T13:22:04Z</time>
      </trkpt>
      <trkpt lat="40.495980" lon="-2.672241">
        <ele>911.2</ele>
        <time>2015-02-22T13:22:11Z</time>
      </trkpt>
      <trkpt lat="40.496065" lon="-2.672323">
        <ele>913.0</ele>
        <time>2015-02-22T13:22:18Z</time>
      </trkpt>
      <trkpt lat="40.496145" lon="-2.672395">
        <ele>914.8</ele>
        <time>2015-02-22T13:22:24Z</time>
      </trkpt>
      <trkpt lat="40.496217" lon="-2.672470">
        <ele>916.3</ele>
        <time>2015-02-22T13:22:30Z</time>
      </trkpt>
      <trkpt lat="40.496289" lon="-2.672570">
        <ele>918.1</ele>
        <time>2015-02-22T13:22:37Z</time>
      </trkpt>
      <trkpt lat="40.496354" lon="-2.672670">
        <ele>919.8</ele>
        <time>2015-02-22T13:22:44Z</time>
      </trkpt>
      <trkpt lat="40.496427" lon="-2.672766">
        <ele>921.7</ele>
        <time>2015-02-22T13:22:51Z</time>
      </trkpt>
      <trkpt lat="40.496497" lon="-2.672847">
        <ele>923.4</ele>
        <time>2015-02-22T13:22:57Z</time>
      </trkpt>
      <trkpt lat="40.496565" lon="-2.672930">
        <ele>925.0</ele>
        <time>2015-02-22T13:23:03Z</time>
      </trkpt>
      <trkpt lat="40.496635" lon="-2.673005">
        <ele>926.6</ele>
        <time>2015-02-22T13:23:09Z</time>
      </trkpt>
      <trkpt lat="40.496719" lon="-2.673062">
        <ele>928.4</ele>
        <time>2015-02-22T13:23:15Z</time>
      </trkpt>
      <trkpt lat="40.496810" lon="-2.673098">
        <ele>930.2</ele>
        <time>2015-02-22T13:23:21Z</time>
      </trkpt>
      <trkpt lat="40.496898" lon="-2.673130">
        <ele>932.0</ele>
        <time>2015-02-22T13:23:27Z</time>
      </trkpt>
      <trkpt lat="40.496982" lon="-2.673177">
        <ele>933.8</ele>
        <time>2015-02-22T13:23:33Z</time>
      </trkpt>
      <trkpt lat="40.497062" lon="-2.673235">
        <ele>935.5</ele>
        <time>2015-02-22T13:23:39Z</time>
      </trkpt>
      <trkpt lat="40.497143" lon="-2.673290">
        <ele>937.1</ele>
        <time>2015-02-22T13:23:45Z</time>
      </trkpt>
      <trkpt lat="40.497222" lon="-2.673378">
        <ele>938.7</ele>
        <time>2015-02-22T13:23:52Z</time>
      </trkpt>
      <trkpt lat="40.497282" lon="-2.673480">
        <ele>940.0</ele>
        <time>2015-02-22T13:23:58Z</time>
      </trkpt>
      <trkpt lat="40.497335" lon="-2.673593">
        <ele>941.1</ele>
        <time>2015-02-22T13:24:04Z</time>
      </trkpt>
      <trkpt lat="40.497379" lon="-2.673712">
        <ele>941.9</ele>
        <time>2015-02-22T13:24:10Z</time>
      </trkpt>
      <trkpt lat="40.497424" lon="-2.673820">
        <ele>942.7</ele>
        <time>2015-02-22T13:24:16Z</time>
      </trkpt>
      <trkpt lat="40.497472" lon="-2.673920">
        <ele>943.6</ele>
        <time>2015-02-22T13:24:22Z</time>
      </trkpt>
      <trkpt lat="40.497530" lon="-2.674035">
        <ele>944.4</ele>
        <time>2015-02-22T13:24:29Z</time>
      </trkpt>
      <trkpt lat="40.497578" lon="-2.674135">
        <ele>944.9</ele>
        <time>2015-02-22T13:24:35Z</time>
      </trkpt>
      <trkpt lat="40.497609" lon="-2.674263">
        <ele>945.8</ele>
        <time>2015-02-22T13:24:42Z</time>
      </trkpt>
      <trkpt lat="40.497642" lon="-2.674382">
        <ele>946.7</ele>
        <time>2015-02-22T13:24:48Z</time>
      </trkpt>
      <trkpt lat="40.497677" lon="-2.674498">
        <ele>947.6</ele>
        <time>2015-02-22T13:24:54Z</time>
      </trkpt>
      <trkpt lat="40.497722" lon="-2.674612">
        <ele>948.6</ele>
        <time>2015-02-22T13:25:00Z</time>
      </trkpt>
      <trkpt lat="40.497763" lon="-2.674727">
        <ele>949.4</ele>
        <time>2015-02-22T13:25:06Z</time>
      </trkpt>
      <trkpt lat="40.497819" lon="-2.674843">
        <ele>950.5</ele>
        <time>2015-02-22T13:25:12Z</time>
      </trkpt>
      <trkpt lat="40.497867" lon="-2.674955">
        <ele>951.4</ele>
        <time>2015-02-22T13:25:18Z</time>
      </trkpt>
      <trkpt lat="40.497929" lon="-2.675068">
        <ele>952.4</ele>
        <time>2015-02-22T13:25:24Z</time>
      </trkpt>
      <trkpt lat="40.497980" lon="-2.675187">
        <ele>953.3</ele>
        <time>2015-02-22T13:25:30Z</time>
      </trkpt>
      <trkpt lat="40.498023" lon="-2.675312">
        <ele>954.2</ele>
        <time>2015-02-22T13:25:36Z</time>
      </trkpt>
      <trkpt lat="40.498055" lon="-2.675423">
        <ele>954.9</ele>
        <time>2015-02-22T13:25:41Z</time>
      </trkpt>
      <trkpt lat="40.498079" lon="-2.675538">
        <ele>955.5</ele>
        <time>2015-02-22T13:25:46Z</time>
      </trkpt>
      <trkpt lat="40.498098" lon="-2.675675">
        <ele>956.2</ele>
        <time>2015-02-22T13:25:52Z</time>
      </trkpt>
      <trkpt lat="40.498128" lon="-2.675791">
        <ele>956.9</ele>
        <time>2015-02-22T13:25:58Z</time>
      </trkpt>
      <trkpt lat="40.498200" lon="-2.675888">
        <ele>957.9</ele>
        <time>2015-02-22T13:28:07Z</time>
      </trkpt>
      <trkpt lat="40.498258" lon="-2.675985">
        <ele>958.6</ele>
        <time>2015-02-22T13:28:13Z</time>
      </trkpt>
      <trkpt lat="40.498337" lon="-2.676073">
        <ele>959.3</ele>
        <time>2015-02-22T13:28:19Z</time>
      </trkpt>
      <trkpt lat="40.498435" lon="-2.676125">
        <ele>959.6</ele>
        <time>2015-02-22T13:28:25Z</time>
      </trkpt>
      <trkpt lat="40.498504" lon="-2.676213">
        <ele>959.9</ele>
        <time>2015-02-22T13:28:31Z</time>
      </trkpt>
      <trkpt lat="40.498570" lon="-2.676320">
        <ele>960.2</ele>
        <time>2015-02-22T13:28:37Z</time>
      </trkpt>
      <trkpt lat="40.498642" lon="-2.676417">
        <ele>960.4</ele>
        <time>2015-02-22T13:28:43Z</time>
      </trkpt>
      <trkpt lat="40.498730" lon="-2.676498">
        <ele>960.8</ele>
        <time>2015-02-22T13:28:49Z</time>
      </trkpt>
      <trkpt lat="40.498804" lon="-2.676568">
        <ele>961.0</ele>
        <time>2015-02-22T13:28:54Z</time>
      </trkpt>
      <trkpt lat="40.498870" lon="-2.676658">
        <ele>961.3</ele>
        <time>2015-02-22T13:28:59Z</time>
      </trkpt>
      <trkpt lat="40.498923" lon="-2.676762">
        <ele>961.7</ele>
        <time>2015-02-22T13:29:04Z</time>
      </trkpt>
      <trkpt lat="40.498990" lon="-2.676865">
        <ele>962.1</ele>
        <time>2015-02-22T13:29:09Z</time>
      </trkpt>
      <trkpt lat="40.499069" lon="-2.676965">
        <ele>962.5</ele>
        <time>2015-02-22T13:29:14Z</time>
      </trkpt>
      <trkpt lat="40.499165" lon="-2.677038">
        <ele>962.9</ele>
        <time>2015-02-22T13:29:19Z</time>
      </trkpt>
      <trkpt lat="40.499245" lon="-2.677098">
        <ele>963.0</ele>
        <time>2015-02-22T13:29:23Z</time>
      </trkpt>
      <trkpt lat="40.499332" lon="-2.677176">
        <ele>963.1</ele>
        <time>2015-02-22T13:29:28Z</time>
      </trkpt>
      <trkpt lat="40.499407" lon="-2.677250">
        <ele>963.3</ele>
        <time>2015-02-22T13:29:32Z</time>
      </trkpt>
      <trkpt lat="40.499482" lon="-2.677323">
        <ele>963.5</ele>
        <time>2015-02-22T13:29:36Z</time>
      </trkpt>
      <trkpt lat="40.499565" lon="-2.677388">
        <ele>963.7</ele>
        <time>2015-02-22T13:29:40Z</time>
      </trkpt>
      <trkpt lat="40.499658" lon="-2.677448">
        <ele>963.8</ele>
        <time>2015-02-22T13:29:44Z</time>
      </trkpt>
      <trkpt lat="40.499765" lon="-2.677488">
        <ele>964.0</ele>
        <time>2015-02-22T13:29:48Z</time>
      </trkpt>
      <trkpt lat="40.499869" lon="-2.677540">
        <ele>964.2</ele>
        <time>2015-02-22T13:29:52Z</time>
      </trkpt>
      <trkpt lat="40.499974" lon="-2.677606">
        <ele>964.6</ele>
        <time>2015-02-22T13:29:56Z</time>
      </trkpt>
      <trkpt lat="40.500064" lon="-2.677696">
        <ele>965.4</ele>
        <time>2015-02-22T13:30:00Z</time>
      </trkpt>
      <trkpt lat="40.500154" lon="-2.677706">
        <ele>965.7</ele>
        <time>2015-02-22T13:30:22Z</time>
      </trkpt>
      <trkpt lat="40.500227" lon="-2.677816">
        <ele>966.6</ele>
        <time>2015-02-22T13:30:29Z</time>
      </trkpt>
      <trkpt lat="40.500315" lon="-2.677920">
        <ele>967.3</ele>
        <time>2015-02-22T13:30:33Z</time>
      </trkpt>
      <trkpt lat="40.500412" lon="-2.678006">
        <ele>967.9</ele>
        <time>2015-02-22T13:30:37Z</time>
      </trkpt>
      <trkpt lat="40.500495" lon="-2.678063">
        <ele>968.4</ele>
        <time>2015-02-22T13:30:40Z</time>
      </trkpt>
      <trkpt lat="40.500582" lon="-2.678116">
        <ele>968.8</ele>
        <time>2015-02-22T13:30:43Z</time>
      </trkpt>
      <trkpt lat="40.500667" lon="-2.678180">
        <ele>969.2</ele>
        <time>2015-02-22T13:30:46Z</time>
      </trkpt>
      <trkpt lat="40.500750" lon="-2.678240">
        <ele>969.6</ele>
        <time>2015-02-22T13:30:49Z</time>
      </trkpt>
      <trkpt lat="40.500839" lon="-2.678285">
        <ele>969.8</ele>
        <time>2015-02-22T13:30:52Z</time>
      </trkpt>
      <trkpt lat="40.500950" lon="-2.678325">
        <ele>969.7</ele>
        <time>2015-02-22T13:30:56Z</time>
      </trkpt>
      <trkpt lat="40.501057" lon="-2.678355">
        <ele>969.6</ele>
        <time>2015-02-22T13:31:00Z</time>
      </trkpt>
      <trkpt lat="40.501160" lon="-2.678388">
        <ele>969.5</ele>
        <time>2015-02-22T13:31:04Z</time>
      </trkpt>
      <trkpt lat="40.501265" lon="-2.678417">
        <ele>969.5</ele>
        <time>2015-02-22T13:31:08Z</time>
      </trkpt>
      <trkpt lat="40.501362" lon="-2.678438">
        <ele>969.4</ele>
        <time>2015-02-22T13:31:12Z</time>
      </trkpt>
      <trkpt lat="40.501453" lon="-2.678450">
        <ele>969.3</ele>
        <time>2015-02-22T13:31:16Z</time>
      </trkpt>
      <trkpt lat="40.501553" lon="-2.678461">
        <ele>969.3</ele>
        <time>2015-02-22T13:31:20Z</time>
      </trkpt>
      <trkpt lat="40.501647" lon="-2.678485">
        <ele>969.3</ele>
        <time>2015-02-22T13:31:24Z</time>
      </trkpt>
      <trkpt lat="40.501755" lon="-2.678501">
        <ele>969.0</ele>
        <time>2015-02-22T13:31:28Z</time>
      </trkpt>
      <trkpt lat="40.501847" lon="-2.678522">
        <ele>968.7</ele>
        <time>2015-02-22T13:31:32Z</time>
      </trkpt>
      <trkpt lat="40.501950" lon="-2.678563">
        <ele>968.5</ele>
        <time>2015-02-22T13:31:37Z</time>
      </trkpt>
      <trkpt lat="40.502048" lon="-2.678603">
        <ele>968.3</ele>
        <time>2015-02-22T13:31:41Z</time>
      </trkpt>
      <trkpt lat="40.502169" lon="-2.678623">
        <ele>967.9</ele>
        <time>2015-02-22T13:31:45Z</time>
      </trkpt>
      <trkpt lat="40.502288" lon="-2.678606">
        <ele>967.1</ele>
        <time>2015-02-22T13:31:48Z</time>
      </trkpt>
      <trkpt lat="40.502380" lon="-2.678605">
        <ele>966.6</ele>
        <time>2015-02-22T13:31:50Z</time>
      </trkpt>
      <trkpt lat="40.502507" lon="-2.678648">
        <ele>966.2</ele>
        <time>2015-02-22T13:31:53Z</time>
      </trkpt>
      <trkpt lat="40.502632" lon="-2.678698">
        <ele>966.0</ele>
        <time>2015-02-22T13:31:56Z</time>
      </trkpt>
      <trkpt lat="40.502744" lon="-2.678745">
        <ele>965.8</ele>
        <time>2015-02-22T13:31:59Z</time>
      </trkpt>
      <trkpt lat="40.502845" lon="-2.678777">
        <ele>965.6</ele>
        <time>2015-02-22T13:32:02Z</time>
      </trkpt>
      <trkpt lat="40.502952" lon="-2.678803">
        <ele>965.3</ele>
        <time>2015-02-22T13:32:05Z</time>
      </trkpt>
      <trkpt lat="40.503055" lon="-2.678833">
        <ele>965.1</ele>
        <time>2015-02-22T13:32:08Z</time>
      </trkpt>
      <trkpt lat="40.503157" lon="-2.678883">
        <ele>965.1</ele>
        <time>2015-02-22T13:32:11Z</time>
      </trkpt>
      <trkpt lat="40.503245" lon="-2.678970">
        <ele>965.5</ele>
        <time>2015-02-22T13:32:14Z</time>
      </trkpt>
      <trkpt lat="40.503319" lon="-2.679076">
        <ele>966.2</ele>
        <time>2015-02-22T13:32:17Z</time>
      </trkpt>
      <trkpt lat="40.503397" lon="-2.679186">
        <ele>966.7</ele>
        <time>2015-02-22T13:32:20Z</time>
      </trkpt>
      <trkpt lat="40.503495" lon="-2.679285">
        <ele>966.3</ele>
        <time>2015-02-22T13:32:23Z</time>
      </trkpt>
      <trkpt lat="40.503597" lon="-2.679378">
        <ele>966.0</ele>
        <time>2015-02-22T13:32:26Z</time>
      </trkpt>
      <trkpt lat="40.503693" lon="-2.679483">
        <ele>965.8</ele>
        <time>2015-02-22T13:32:29Z</time>
      </trkpt>
      <trkpt lat="40.503782" lon="-2.679601">
        <ele>965.7</ele>
        <time>2015-02-22T13:32:32Z</time>
      </trkpt>
      <trkpt lat="40.503872" lon="-2.679713">
        <ele>965.5</ele>
        <time>2015-02-22T13:32:35Z</time>
      </trkpt>
      <trkpt lat="40.503989" lon="-2.679783">
        <ele>965.1</ele>
        <time>2015-02-22T13:32:38Z</time>
      </trkpt>
      <trkpt lat="40.504110" lon="-2.679858">
        <ele>964.8</ele>
        <time>2015-02-22T13:32:41Z</time>
      </trkpt>
      <trkpt lat="40.504224" lon="-2.679948">
        <ele>964.6</ele>
        <time>2015-02-22T13:32:44Z</time>
      </trkpt>
      <trkpt lat="40.504302" lon="-2.680016">
        <ele>964.5</ele>
        <time>2015-02-22T13:32:46Z</time>
      </trkpt>
      <trkpt lat="40.504370" lon="-2.680097">
        <ele>964.2</ele>
        <time>2015-02-22T13:32:48Z</time>
      </trkpt>
      <trkpt lat="40.504450" lon="-2.680235">
        <ele>963.9</ele>
        <time>2015-02-22T13:32:51Z</time>
      </trkpt>
      <trkpt lat="40.504530" lon="-2.680360">
        <ele>963.6</ele>
        <time>2015-02-22T13:32:54Z</time>
      </trkpt>
      <trkpt lat="40.504635" lon="-2.680448">
        <ele>963.4</ele>
        <time>2015-02-22T13:32:57Z</time>
      </trkpt>
      <trkpt lat="40.504723" lon="-2.680490">
        <ele>963.2</ele>
        <time>2015-02-22T13:32:59Z</time>
      </trkpt>
      <trkpt lat="40.504818" lon="-2.680523">
        <ele>963.0</ele>
        <time>2015-02-22T13:33:01Z</time>
      </trkpt>
      <trkpt lat="40.504915" lon="-2.680578">
        <ele>962.9</ele>
        <time>2015-02-22T13:33:03Z</time>
      </trkpt>
      <trkpt lat="40.505013" lon="-2.680658">
        <ele>962.7</ele>
        <time>2015-02-22T13:33:05Z</time>
      </trkpt>
      <trkpt lat="40.505109" lon="-2.680745">
        <ele>962.4</ele>
        <time>2015-02-22T13:33:07Z</time>
      </trkpt>
      <trkpt lat="40.505199" lon="-2.680836">
        <ele>962.0</ele>
        <time>2015-02-22T13:33:09Z</time>
      </trkpt>
      <trkpt lat="40.505282" lon="-2.680936">
        <ele>961.4</ele>
        <time>2015-02-22T13:33:11Z</time>
      </trkpt>
      <trkpt lat="40.505360" lon="-2.681030">
        <ele>960.8</ele>
        <time>2015-02-22T13:33:13Z</time>
      </trkpt>
      <trkpt lat="40.505447" lon="-2.681117">
        <ele>960.2</ele>
        <time>2015-02-22T13:33:15Z</time>
      </trkpt>
      <trkpt lat="40.505530" lon="-2.681205">
        <ele>959.7</ele>
        <time>2015-02-22T13:33:17Z</time>
      </trkpt>
      <trkpt lat="40.505605" lon="-2.681300">
        <ele>959.2</ele>
        <time>2015-02-22T13:33:19Z</time>
      </trkpt>
      <trkpt lat="40.505682" lon="-2.681400">
        <ele>958.8</ele>
        <time>2015-02-22T13:33:21Z</time>
      </trkpt>
      <trkpt lat="40.505762" lon="-2.681503">
        <ele>958.4</ele>
        <time>2015-02-22T13:33:23Z</time>
      </trkpt>
      <trkpt lat="40.505830" lon="-2.681610">
        <ele>958.1</ele>
        <time>2015-02-22T13:33:25Z</time>
      </trkpt>
      <trkpt lat="40.505885" lon="-2.681710">
        <ele>957.5</ele>
        <time>2015-02-22T13:33:27Z</time>
      </trkpt>
      <trkpt lat="40.505947" lon="-2.681807">
        <ele>957.0</ele>
        <time>2015-02-22T13:33:29Z</time>
      </trkpt>
      <trkpt lat="40.506027" lon="-2.681887">
        <ele>956.6</ele>
        <time>2015-02-22T13:33:31Z</time>
      </trkpt>
      <trkpt lat="40.506107" lon="-2.681966">
        <ele>956.3</ele>
        <time>2015-02-22T13:33:33Z</time>
      </trkpt>
      <trkpt lat="40.506177" lon="-2.682093">
        <ele>956.2</ele>
        <time>2015-02-22T13:33:35Z</time>
      </trkpt>
      <trkpt lat="40.506270" lon="-2.682232">
        <ele>956.4</ele>
        <time>2015-02-22T13:33:37Z</time>
      </trkpt>
      <trkpt lat="40.506373" lon="-2.682373">
        <ele>956.8</ele>
        <time>2015-02-22T13:33:39Z</time>
      </trkpt>
      <trkpt lat="40.506473" lon="-2.682508">
        <ele>957.6</ele>
        <time>2015-02-22T13:33:41Z</time>
      </trkpt>
      <trkpt lat="40.506567" lon="-2.682623">
        <ele>958.4</ele>
        <time>2015-02-22T13:33:43Z</time>
      </trkpt>
      <trkpt lat="40.506642" lon="-2.682708">
        <ele>959.0</ele>
        <time>2015-02-22T13:33:45Z</time>
      </trkpt>
      <trkpt lat="40.506722" lon="-2.682798">
        <ele>959.7</ele>
        <time>2015-02-22T13:33:48Z</time>
      </trkpt>
      <trkpt lat="40.506804" lon="-2.682908">
        <ele>960.6</ele>
        <time>2015-02-22T13:33:52Z</time>
      </trkpt>
      <trkpt lat="40.506833" lon="-2.683040">
        <ele>961.2</ele>
        <time>2015-02-22T13:33:56Z</time>
      </trkpt>
      <trkpt lat="40.506837" lon="-2.683165">
        <ele>961.7</ele>
        <time>2015-02-22T13:33:59Z</time>
      </trkpt>
      <trkpt lat="40.506872" lon="-2.683286">
        <ele>962.3</ele>
        <time>2015-02-22T13:34:02Z</time>
      </trkpt>
      <trkpt lat="40.506942" lon="-2.683373">
        <ele>962.9</ele>
        <time>2015-02-22T13:34:05Z</time>
      </trkpt>
      <trkpt lat="40.507007" lon="-2.683465">
        <ele>963.5</ele>
        <time>2015-02-22T13:34:08Z</time>
      </trkpt>
      <trkpt lat="40.507052" lon="-2.683573">
        <ele>964.1</ele>
        <time>2015-02-22T13:34:11Z</time>
      </trkpt>
      <trkpt lat="40.507088" lon="-2.683710">
        <ele>964.8</ele>
        <time>2015-02-22T13:34:15Z</time>
      </trkpt>
      <trkpt lat="40.507129" lon="-2.683845">
        <ele>965.5</ele>
        <time>2015-02-22T13:34:19Z</time>
      </trkpt>
      <trkpt lat="40.507130" lon="-2.683988">
        <ele>966.2</ele>
        <time>2015-02-22T13:34:23Z</time>
      </trkpt>
      <trkpt lat="40.507109" lon="-2.684125">
        <ele>966.8</ele>
        <time>2015-02-22T13:34:27Z</time>
      </trkpt>
      <trkpt lat="40.507092" lon="-2.684276">
        <ele>967.3</ele>
        <time>2015-02-22T13:34:31Z</time>
      </trkpt>
      <trkpt lat="40.507043" lon="-2.684406">
        <ele>967.8</ele>
        <time>2015-02-22T13:34:35Z</time>
      </trkpt>
      <trkpt lat="40.506953" lon="-2.684500">
        <ele>968.1</ele>
        <time>2015-02-22T13:34:39Z</time>
      </trkpt>
      <trkpt lat="40.506938" lon="-2.684630">
        <ele>968.5</ele>
        <time>2015-02-22T13:34:42Z</time>
      </trkpt>
      <trkpt lat="40.506967" lon="-2.684756">
        <ele>968.9</ele>
        <time>2015-02-22T13:34:45Z</time>
      </trkpt>
      <trkpt lat="40.506995" lon="-2.684900">
        <ele>969.3</ele>
        <time>2015-02-22T13:34:49Z</time>
      </trkpt>
      <trkpt lat="40.507004" lon="-2.685028">
        <ele>969.7</ele>
        <time>2015-02-22T13:34:53Z</time>
      </trkpt>
      <trkpt lat="40.507057" lon="-2.685127">
        <ele>970.0</ele>
        <time>2015-02-22T13:34:57Z</time>
      </trkpt>
      <trkpt lat="40.507073" lon="-2.685263">
        <ele>970.5</ele>
        <time>2015-02-22T13:35:02Z</time>
      </trkpt>
      <trkpt lat="40.507075" lon="-2.685403">
        <ele>971.0</ele>
        <time>2015-02-22T13:35:07Z</time>
      </trkpt>
      <trkpt lat="40.507095" lon="-2.685520">
        <ele>971.3</ele>
        <time>2015-02-22T13:35:11Z</time>
      </trkpt>
      <trkpt lat="40.507122" lon="-2.685651">
        <ele>971.7</ele>
        <time>2015-02-22T13:35:16Z</time>
      </trkpt>
      <trkpt lat="40.507170" lon="-2.685756">
        <ele>971.9</ele>
        <time>2015-02-22T13:35:21Z</time>
      </trkpt>
      <trkpt lat="40.507200" lon="-2.685890">
        <ele>972.6</ele>
        <time>2015-02-22T13:35:27Z</time>
      </trkpt>
      <trkpt lat="40.507199" lon="-2.686015">
        <ele>973.5</ele>
        <time>2015-02-22T13:35:32Z</time>
      </trkpt>
      <trkpt lat="40.507209" lon="-2.686140">
        <ele>974.5</ele>
        <time>2015-02-22T13:35:37Z</time>
      </trkpt>
      <trkpt lat="40.507192" lon="-2.686262">
        <ele>975.5</ele>
        <time>2015-02-22T13:35:42Z</time>
      </trkpt>
      <trkpt lat="40.507149" lon="-2.686390">
        <ele>976.7</ele>
        <time>2015-02-22T13:35:48Z</time>
      </trkpt>
      <trkpt lat="40.507092" lon="-2.686505">
        <ele>977.8</ele>
        <time>2015-02-22T13:35:54Z</time>
      </trkpt>
      <trkpt lat="40.507028" lon="-2.686615">
        <ele>978.7</ele>
        <time>2015-02-22T13:36:00Z</time>
      </trkpt>
      <trkpt lat="40.506992" lon="-2.686740">
        <ele>979.6</ele>
        <time>2015-02-22T13:36:06Z</time>
      </trkpt>
      <trkpt lat="40.506975" lon="-2.686860">
        <ele>980.2</ele>
        <time>2015-02-22T13:36:11Z</time>
      </trkpt>
      <trkpt lat="40.506978" lon="-2.686983">
        <ele>980.8</ele>
        <time>2015-02-22T13:36:16Z</time>
      </trkpt>
      <trkpt lat="40.506953" lon="-2.687100">
        <ele>981.4</ele>
        <time>2015-02-22T13:36:21Z</time>
      </trkpt>
      <trkpt lat="40.506895" lon="-2.687218">
        <ele>982.3</ele>
        <time>2015-02-22T13:36:27Z</time>
      </trkpt>
      <trkpt lat="40.506872" lon="-2.687343">
        <ele>983.0</ele>
        <time>2015-02-22T13:36:33Z</time>
      </trkpt>
      <trkpt lat="40.506865" lon="-2.687463">
        <ele>983.6</ele>
        <time>2015-02-22T13:36:39Z</time>
      </trkpt>
      <trkpt lat="40.506832" lon="-2.687593">
        <ele>984.2</ele>
        <time>2015-02-22T13:36:46Z</time>
      </trkpt>
      <trkpt lat="40.506775" lon="-2.687693">
        <ele>984.8</ele>
        <time>2015-02-22T13:36:51Z</time>
      </trkpt>
      <trkpt lat="40.506708" lon="-2.687790">
        <ele>985.5</ele>
        <time>2015-02-22T13:36:57Z</time>
      </trkpt>
      <trkpt lat="40.506618" lon="-2.687793">
        <ele>985.7</ele>
        <time>2015-02-22T13:37:02Z</time>
      </trkpt>
      <trkpt lat="40.506520" lon="-2.687771">
        <ele>985.6</ele>
        <time>2015-02-22T13:37:07Z</time>
      </trkpt>
      <trkpt lat="40.506419" lon="-2.687756">
        <ele>985.5</ele>
        <time>2015-02-22T13:37:12Z</time>
      </trkpt>
      <trkpt lat="40.506329" lon="-2.687713">
        <ele>985.3</ele>
        <time>2015-02-22T13:37:16Z</time>
      </trkpt>
      <trkpt lat="40.506229" lon="-2.687690">
        <ele>985.2</ele>
        <time>2015-02-22T13:37:20Z</time>
      </trkpt>
      <trkpt lat="40.506135" lon="-2.687748">
        <ele>985.3</ele>
        <time>2015-02-22T13:37:24Z</time>
      </trkpt>
      <trkpt lat="40.506063" lon="-2.687833">
        <ele>985.7</ele>
        <time>2015-02-22T13:37:28Z</time>
      </trkpt>
      <trkpt lat="40.505968" lon="-2.687918">
        <ele>986.0</ele>
        <time>2015-02-22T13:37:32Z</time>
      </trkpt>
      <trkpt lat="40.505874" lon="-2.688001">
        <ele>986.4</ele>
        <time>2015-02-22T13:37:36Z</time>
      </trkpt>
      <trkpt lat="40.505764" lon="-2.688042">
        <ele>986.5</ele>
        <time>2015-02-22T13:37:40Z</time>
      </trkpt>
      <trkpt lat="40.505665" lon="-2.688083">
        <ele>986.5</ele>
        <time>2015-02-22T13:37:43Z</time>
      </trkpt>
      <trkpt lat="40.505560" lon="-2.688130">
        <ele>986.5</ele>
        <time>2015-02-22T13:37:46Z</time>
      </trkpt>
      <trkpt lat="40.505459" lon="-2.688167">
        <ele>986.4</ele>
        <time>2015-02-22T13:37:49Z</time>
      </trkpt>
      <trkpt lat="40.505364" lon="-2.688226">
        <ele>986.4</ele>
        <time>2015-02-22T13:37:52Z</time>
      </trkpt>
      <trkpt lat="40.505283" lon="-2.688347">
        <ele>986.7</ele>
        <time>2015-02-22T13:37:55Z</time>
      </trkpt>
      <trkpt lat="40.505178" lon="-2.688443">
        <ele>986.5</ele>
        <time>2015-02-22T13:37:58Z</time>
      </trkpt>
      <trkpt lat="40.505085" lon="-2.688512">
        <ele>986.4</ele>
        <time>2015-02-22T13:38:00Z</time>
      </trkpt>
      <trkpt lat="40.504980" lon="-2.688582">
        <ele>986.1</ele>
        <time>2015-02-22T13:38:02Z</time>
      </trkpt>
      <trkpt lat="40.504857" lon="-2.688615">
        <ele>985.2</ele>
        <time>2015-02-22T13:38:04Z</time>
      </trkpt>
      <trkpt lat="40.504727" lon="-2.688605">
        <ele>984.1</ele>
        <time>2015-02-22T13:38:06Z</time>
      </trkpt>
      <trkpt lat="40.504590" lon="-2.688593">
        <ele>983.1</ele>
        <time>2015-02-22T13:38:08Z</time>
      </trkpt>
      <trkpt lat="40.504442" lon="-2.688570">
        <ele>981.9</ele>
        <time>2015-02-22T13:38:10Z</time>
      </trkpt>
      <trkpt lat="40.504285" lon="-2.688531">
        <ele>980.7</ele>
        <time>2015-02-22T13:38:12Z</time>
      </trkpt>
      <trkpt lat="40.504129" lon="-2.688495">
        <ele>979.5</ele>
        <time>2015-02-22T13:38:14Z</time>
      </trkpt>
      <trkpt lat="40.503979" lon="-2.688455">
        <ele>978.4</ele>
        <time>2015-02-22T13:38:16Z</time>
      </trkpt>
      <trkpt lat="40.503842" lon="-2.688420">
        <ele>977.3</ele>
        <time>2015-02-22T13:38:18Z</time>
      </trkpt>
      <trkpt lat="40.503722" lon="-2.688395">
        <ele>976.4</ele>
        <time>2015-02-22T13:38:20Z</time>
      </trkpt>
      <trkpt lat="40.503618" lon="-2.688401">
        <ele>975.6</ele>
        <time>2015-02-22T13:38:23Z</time>
      </trkpt>
      <trkpt lat="40.503603" lon="-2.688551">
        <ele>975.7</ele>
        <time>2015-02-22T13:38:27Z</time>
      </trkpt>
      <trkpt lat="40.503620" lon="-2.688672">
        <ele>976.1</ele>
        <time>2015-02-22T13:38:30Z</time>
      </trkpt>
      <trkpt lat="40.503640" lon="-2.688822">
        <ele>976.5</ele>
        <time>2015-02-22T13:38:34Z</time>
      </trkpt>
      <trkpt lat="40.503644" lon="-2.688963">
        <ele>976.8</ele>
        <time>2015-02-22T13:38:38Z</time>
      </trkpt>
      <trkpt lat="40.503657" lon="-2.689106">
        <ele>977.1</ele>
        <time>2015-02-22T13:38:43Z</time>
      </trkpt>
      <trkpt lat="40.503690" lon="-2.689236">
        <ele>977.6</ele>
        <time>2015-02-22T13:38:48Z</time>
      </trkpt>
      <trkpt lat="40.503680" lon="-2.689367">
        <ele>978.1</ele>
        <time>2015-02-22T13:38:54Z</time>
      </trkpt>
      <trkpt lat="40.503680" lon="-2.689503">
        <ele>978.7</ele>
        <time>2015-02-22T13:38:59Z</time>
      </trkpt>
      <trkpt lat="40.503629" lon="-2.689612">
        <ele>979.0</ele>
        <time>2015-02-22T13:39:03Z</time>
      </trkpt>
      <trkpt lat="40.503617" lon="-2.689740">
        <ele>979.5</ele>
        <time>2015-02-22T13:39:07Z</time>
      </trkpt>
      <trkpt lat="40.503603" lon="-2.689885">
        <ele>980.1</ele>
        <time>2015-02-22T13:39:12Z</time>
      </trkpt>
      <trkpt lat="40.503597" lon="-2.690006">
        <ele>980.6</ele>
        <time>2015-02-22T13:39:16Z</time>
      </trkpt>
      <trkpt lat="40.503595" lon="-2.690125">
        <ele>980.4</ele>
        <time>2015-02-22T13:39:20Z</time>
      </trkpt>
      <trkpt lat="40.503552" lon="-2.690233">
        <ele>980.0</ele>
        <time>2015-02-22T13:39:24Z</time>
      </trkpt>
      <trkpt lat="40.503502" lon="-2.690370">
        <ele>979.4</ele>
        <time>2015-02-22T13:39:28Z</time>
      </trkpt>
      <trkpt lat="40.503444" lon="-2.690473">
        <ele>978.8</ele>
        <time>2015-02-22T13:39:31Z</time>
      </trkpt>
      <trkpt lat="40.503350" lon="-2.690583">
        <ele>978.0</ele>
        <time>2015-02-22T13:39:34Z</time>
      </trkpt>
      <trkpt lat="40.503310" lon="-2.690712">
        <ele>977.2</ele>
        <time>2015-02-22T13:39:37Z</time>
      </trkpt>
      <trkpt lat="40.503387" lon="-2.690832">
        <ele>977.4</ele>
        <time>2015-02-22T13:39:41Z</time>
      </trkpt>
      <trkpt lat="40.503325" lon="-2.690965">
        <ele>974.3</ele>
        <time>2015-02-22T13:39:44Z</time>
      </trkpt>
      <trkpt lat="40.503252" lon="-2.691078">
        <ele>971.1</ele>
        <time>2015-02-22T13:39:46Z</time>
      </trkpt>
      <trkpt lat="40.503180" lon="-2.691216">
        <ele>967.3</ele>
        <time>2015-02-22T13:39:49Z</time>
      </trkpt>
      <trkpt lat="40.503099" lon="-2.691266">
        <ele>965.3</ele>
        <time>2015-02-22T13:39:51Z</time>
      </trkpt>
      <trkpt lat="40.502995" lon="-2.691316">
        <ele>963.2</ele>
        <time>2015-02-22T13:39:54Z</time>
      </trkpt>
      <trkpt lat="40.502912" lon="-2.691387">
        <ele>960.5</ele>
        <time>2015-02-22T13:39:57Z</time>
      </trkpt>
      <trkpt lat="40.502844" lon="-2.691510">
        <ele>957.1</ele>
        <time>2015-02-22T13:40:00Z</time>
      </trkpt>
      <trkpt lat="40.502740" lon="-2.691613">
        <ele>953.4</ele>
        <time>2015-02-22T13:40:03Z</time>
      </trkpt>
      <trkpt lat="40.502649" lon="-2.691680">
        <ele>950.5</ele>
        <time>2015-02-22T13:40:05Z</time>
      </trkpt>
      <trkpt lat="40.502559" lon="-2.691742">
        <ele>947.1</ele>
        <time>2015-02-22T13:40:07Z</time>
      </trkpt>
      <trkpt lat="40.502444" lon="-2.691822">
        <ele>943.5</ele>
        <time>2015-02-22T13:40:10Z</time>
      </trkpt>
      <trkpt lat="40.502333" lon="-2.691880">
        <ele>941.2</ele>
        <time>2015-02-22T13:40:13Z</time>
      </trkpt>
      <trkpt lat="40.502243" lon="-2.691978">
        <ele>937.9</ele>
        <time>2015-02-22T13:40:16Z</time>
      </trkpt>
      <trkpt lat="40.502170" lon="-2.692063">
        <ele>934.6</ele>
        <time>2015-02-22T13:40:19Z</time>
      </trkpt>
      <trkpt lat="40.502147" lon="-2.692190">
        <ele>929.9</ele>
        <time>2015-02-22T13:40:22Z</time>
      </trkpt>
      <trkpt lat="40.502064" lon="-2.692321">
        <ele>925.1</ele>
        <time>2015-02-22T13:40:25Z</time>
      </trkpt>
      <trkpt lat="40.502010" lon="-2.692423">
        <ele>921.7</ele>
        <time>2015-02-22T13:40:27Z</time>
      </trkpt>
      <trkpt lat="40.501927" lon="-2.692502">
        <ele>918.6</ele>
        <time>2015-02-22T13:40:30Z</time>
      </trkpt>
      <trkpt lat="40.501889" lon="-2.692617">
        <ele>914.8</ele>
        <time>2015-02-22T13:41:17Z</time>
      </trkpt>
      <trkpt lat="40.501808" lon="-2.692713">
        <ele>911.4</ele>
        <time>2015-02-22T13:41:20Z</time>
      </trkpt>
      <trkpt lat="40.501692" lon="-2.692781">
        <ele>909.1</ele>
        <time>2015-02-22T13:41:23Z</time>
      </trkpt>
      <trkpt lat="40.501595" lon="-2.692803">
        <ele>909.1</ele>
        <time>2015-02-22T13:41:25Z</time>
      </trkpt>
      <trkpt lat="40.501479" lon="-2.692855">
        <ele>908.8</ele>
        <time>2015-02-22T13:41:28Z</time>
      </trkpt>
      <trkpt lat="40.501400" lon="-2.692921">
        <ele>907.6</ele>
        <time>2015-02-22T13:41:30Z</time>
      </trkpt>
      <trkpt lat="40.501320" lon="-2.692985">
        <ele>906.5</ele>
        <time>2015-02-22T13:41:32Z</time>
      </trkpt>
      <trkpt lat="40.501268" lon="-2.693085">
        <ele>904.1</ele>
        <time>2015-02-22T13:41:35Z</time>
      </trkpt>
      <trkpt lat="40.501194" lon="-2.693182">
        <ele>901.7</ele>
        <time>2015-02-22T13:41:38Z</time>
      </trkpt>
      <trkpt lat="40.501094" lon="-2.693278">
        <ele>899.9</ele>
        <time>2015-02-22T13:41:42Z</time>
      </trkpt>
      <trkpt lat="40.500985" lon="-2.693378">
        <ele>898.1</ele>
        <time>2015-02-22T13:41:45Z</time>
      </trkpt>
      <trkpt lat="40.500920" lon="-2.693465">
        <ele>896.9</ele>
        <time>2015-02-22T13:41:47Z</time>
      </trkpt>
      <trkpt lat="40.500852" lon="-2.693548">
        <ele>895.5</ele>
        <time>2015-02-22T13:41:49Z</time>
      </trkpt>
      <trkpt lat="40.500798" lon="-2.693696">
        <ele>892.5</ele>
        <time>2015-02-22T13:41:52Z</time>
      </trkpt>
      <trkpt lat="40.500712" lon="-2.693780">
        <ele>891.1</ele>
        <time>2015-02-22T13:41:55Z</time>
      </trkpt>
      <trkpt lat="40.500630" lon="-2.693883">
        <ele>889.2</ele>
        <time>2015-02-22T13:41:58Z</time>
      </trkpt>
      <trkpt lat="40.500593" lon="-2.694023">
        <ele>886.2</ele>
        <time>2015-02-22T13:42:01Z</time>
      </trkpt>
      <trkpt lat="40.500565" lon="-2.694150">
        <ele>883.2</ele>
        <time>2015-02-22T13:42:04Z</time>
      </trkpt>
      <trkpt lat="40.500494" lon="-2.694268">
        <ele>881.1</ele>
        <time>2015-02-22T13:42:07Z</time>
      </trkpt>
      <trkpt lat="40.500410" lon="-2.694346">
        <ele>880.0</ele>
        <time>2015-02-22T13:42:10Z</time>
      </trkpt>
      <trkpt lat="40.500352" lon="-2.694438">
        <ele>878.4</ele>
        <time>2015-02-22T13:42:13Z</time>
      </trkpt>
      <trkpt lat="40.500257" lon="-2.694527">
        <ele>877.1</ele>
        <time>2015-02-22T13:42:16Z</time>
      </trkpt>
      <trkpt lat="40.500163" lon="-2.694622">
        <ele>875.9</ele>
        <time>2015-02-22T13:42:19Z</time>
      </trkpt>
      <trkpt lat="40.500120" lon="-2.694743">
        <ele>873.4</ele>
        <time>2015-02-22T13:42:21Z</time>
      </trkpt>
      <trkpt lat="40.500060" lon="-2.694867">
        <ele>871.3</ele>
        <time>2015-02-22T13:42:23Z</time>
      </trkpt>
      <trkpt lat="40.499989" lon="-2.694965">
        <ele>869.6</ele>
        <time>2015-02-22T13:42:25Z</time>
      </trkpt>
      <trkpt lat="40.499933" lon="-2.695077">
        <ele>868.0</ele>
        <time>2015-02-22T13:42:28Z</time>
      </trkpt>
      <trkpt lat="40.499855" lon="-2.695172">
        <ele>866.5</ele>
        <time>2015-02-22T13:42:31Z</time>
      </trkpt>
      <trkpt lat="40.499742" lon="-2.695263">
        <ele>865.2</ele>
        <time>2015-02-22T13:42:34Z</time>
      </trkpt>
      <trkpt lat="40.499670" lon="-2.695343">
        <ele>863.9</ele>
        <time>2015-02-22T13:42:36Z</time>
      </trkpt>
      <trkpt lat="40.499592" lon="-2.695445">
        <ele>862.1</ele>
        <time>2015-02-22T13:42:38Z</time>
      </trkpt>
      <trkpt lat="40.499524" lon="-2.695538">
        <ele>860.0</ele>
        <time>2015-02-22T13:42:40Z</time>
      </trkpt>
      <trkpt lat="40.499467" lon="-2.695642">
        <ele>857.6</ele>
        <time>2015-02-22T13:42:42Z</time>
      </trkpt>
      <trkpt lat="40.499392" lon="-2.695767">
        <ele>854.8</ele>
        <time>2015-02-22T13:42:45Z</time>
      </trkpt>
      <trkpt lat="40.499368" lon="-2.695905">
        <ele>852.2</ele>
        <time>2015-02-22T13:42:49Z</time>
      </trkpt>
      <trkpt lat="40.499340" lon="-2.696021">
        <ele>850.6</ele>
        <time>2015-02-22T13:44:31Z</time>
      </trkpt>
      <trkpt lat="40.499332" lon="-2.696170">
        <ele>848.7</ele>
        <time>2015-02-22T13:44:34Z</time>
      </trkpt>
      <trkpt lat="40.499292" lon="-2.696300">
        <ele>847.0</ele>
        <time>2015-02-22T13:44:36Z</time>
      </trkpt>
      <trkpt lat="40.499240" lon="-2.696433">
        <ele>845.2</ele>
        <time>2015-02-22T13:44:38Z</time>
      </trkpt>
      <trkpt lat="40.499200" lon="-2.696573">
        <ele>843.2</ele>
        <time>2015-02-22T13:44:41Z</time>
      </trkpt>
      <trkpt lat="40.499214" lon="-2.696730">
        <ele>841.3</ele>
        <time>2015-02-22T13:44:44Z</time>
      </trkpt>
      <trkpt lat="40.499265" lon="-2.696873">
        <ele>839.6</ele>
        <time>2015-02-22T13:44:46Z</time>
      </trkpt>
      <trkpt lat="40.499333" lon="-2.697011">
        <ele>838.0</ele>
        <time>2015-02-22T13:44:48Z</time>
      </trkpt>
      <trkpt lat="40.499399" lon="-2.697128">
        <ele>836.7</ele>
        <time>2015-02-22T13:44:50Z</time>
      </trkpt>
      <trkpt lat="40.499410" lon="-2.697270">
        <ele>834.9</ele>
        <time>2015-02-22T13:44:52Z</time>
      </trkpt>
      <trkpt lat="40.499404" lon="-2.697408">
        <ele>833.4</ele>
        <time>2015-02-22T13:44:54Z</time>
      </trkpt>
      <trkpt lat="40.499404" lon="-2.697543">
        <ele>831.6</ele>
        <time>2015-02-22T13:44:56Z</time>
      </trkpt>
      <trkpt lat="40.499399" lon="-2.697695">
        <ele>829.6</ele>
        <time>2015-02-22T13:44:58Z</time>
      </trkpt>
      <trkpt lat="40.499352" lon="-2.697828">
        <ele>827.7</ele>
        <time>2015-02-22T13:45:00Z</time>
      </trkpt>
      <trkpt lat="40.499318" lon="-2.697982">
        <ele>825.7</ele>
        <time>2015-02-22T13:45:03Z</time>
      </trkpt>
      <trkpt lat="40.499374" lon="-2.698151">
        <ele>823.5</ele>
        <time>2015-02-22T13:45:06Z</time>
      </trkpt>
      <trkpt lat="40.499395" lon="-2.698295">
        <ele>821.5</ele>
        <time>2015-02-22T13:45:08Z</time>
      </trkpt>
      <trkpt lat="40.499387" lon="-2.698428">
        <ele>819.9</ele>
        <time>2015-02-22T13:45:10Z</time>
      </trkpt>
      <trkpt lat="40.499380" lon="-2.698557">
        <ele>818.6</ele>
        <time>2015-02-22T13:45:13Z</time>
      </trkpt>
      <trkpt lat="40.499304" lon="-2.698620">
        <ele>817.9</ele>
        <time>2015-02-22T13:45:24Z</time>
      </trkpt>
      <trkpt lat="40.499199" lon="-2.698642">
        <ele>817.6</ele>
        <time>2015-02-22T13:45:29Z</time>
      </trkpt>
      <trkpt lat="40.499108" lon="-2.698548">
        <ele>818.6</ele>
        <time>2015-02-22T13:45:33Z</time>
      </trkpt>
      <trkpt lat="40.499023" lon="-2.698455">
        <ele>819.6</ele>
        <time>2015-02-22T13:45:36Z</time>
      </trkpt>
      <trkpt lat="40.498932" lon="-2.698363">
        <ele>820.6</ele>
        <time>2015-02-22T13:45:39Z</time>
      </trkpt>
      <trkpt lat="40.498845" lon="-2.698305">
        <ele>821.3</ele>
        <time>2015-02-22T13:45:42Z</time>
      </trkpt>
      <trkpt lat="40.498747" lon="-2.698280">
        <ele>821.7</ele>
        <time>2015-02-22T13:45:45Z</time>
      </trkpt>
      <trkpt lat="40.498627" lon="-2.698263">
        <ele>821.8</ele>
        <time>2015-02-22T13:45:48Z</time>
      </trkpt>
      <trkpt lat="40.498514" lon="-2.698266">
        <ele>821.8</ele>
        <time>2015-02-22T13:45:51Z</time>
      </trkpt>
      <trkpt lat="40.498430" lon="-2.698317">
        <ele>821.2</ele>
        <time>2015-02-22T13:45:54Z</time>
      </trkpt>
      <trkpt lat="40.498340" lon="-2.698413">
        <ele>820.3</ele>
        <time>2015-02-22T13:45:58Z</time>
      </trkpt>
      <trkpt lat="40.498302" lon="-2.698527">
        <ele>819.2</ele>
        <time>2015-02-22T13:46:01Z</time>
      </trkpt>
      <trkpt lat="40.498250" lon="-2.698628">
        <ele>818.0</ele>
        <time>2015-02-22T13:46:04Z</time>
      </trkpt>
      <trkpt lat="40.498180" lon="-2.698755">
        <ele>816.5</ele>
        <time>2015-02-22T13:46:08Z</time>
      </trkpt>
      <trkpt lat="40.498123" lon="-2.698888">
        <ele>815.0</ele>
        <time>2015-02-22T13:46:11Z</time>
      </trkpt>
      <trkpt lat="40.498080" lon="-2.698997">
        <ele>813.9</ele>
        <time>2015-02-22T13:46:13Z</time>
      </trkpt>
      <trkpt lat="40.498040" lon="-2.699125">
        <ele>812.6</ele>
        <time>2015-02-22T13:46:15Z</time>
      </trkpt>
      <trkpt lat="40.497980" lon="-2.699240">
        <ele>811.2</ele>
        <time>2015-02-22T13:46:17Z</time>
      </trkpt>
      <trkpt lat="40.497902" lon="-2.699333">
        <ele>810.0</ele>
        <time>2015-02-22T13:46:19Z</time>
      </trkpt>
      <trkpt lat="40.497839" lon="-2.699447">
        <ele>808.8</ele>
        <time>2015-02-22T13:46:21Z</time>
      </trkpt>
      <trkpt lat="40.497792" lon="-2.699575">
        <ele>807.6</ele>
        <time>2015-02-22T13:46:23Z</time>
      </trkpt>
      <trkpt lat="40.497729" lon="-2.699701">
        <ele>806.5</ele>
        <time>2015-02-22T13:46:25Z</time>
      </trkpt>
      <trkpt lat="40.497660" lon="-2.699825">
        <ele>805.4</ele>
        <time>2015-02-22T13:46:27Z</time>
      </trkpt>
      <trkpt lat="40.497604" lon="-2.699918">
        <ele>804.6</ele>
        <time>2015-02-22T13:46:29Z</time>
      </trkpt>
      <trkpt lat="40.497520" lon="-2.700036">
        <ele>803.8</ele>
        <time>2015-02-22T13:46:32Z</time>
      </trkpt>
      <trkpt lat="40.497447" lon="-2.700130">
        <ele>803.2</ele>
        <time>2015-02-22T13:46:39Z</time>
      </trkpt>
      <trkpt lat="40.497384" lon="-2.700243">
        <ele>802.4</ele>
        <time>2015-02-22T13:46:42Z</time>
      </trkpt>
      <trkpt lat="40.497337" lon="-2.700386">
        <ele>801.5</ele>
        <time>2015-02-22T13:46:45Z</time>
      </trkpt>
      <trkpt lat="40.497309" lon="-2.700552">
        <ele>800.3</ele>
        <time>2015-02-22T13:46:48Z</time>
      </trkpt>
      <trkpt lat="40.497297" lon="-2.700688">
        <ele>799.5</ele>
        <time>2015-02-22T13:46:50Z</time>
      </trkpt>
      <trkpt lat="40.497309" lon="-2.700846">
        <ele>798.5</ele>
        <time>2015-02-22T13:46:52Z</time>
      </trkpt>
      <trkpt lat="40.497338" lon="-2.701008">
        <ele>797.4</ele>
        <time>2015-02-22T13:46:54Z</time>
      </trkpt>
      <trkpt lat="40.497347" lon="-2.701178">
        <ele>796.3</ele>
        <time>2015-02-22T13:46:56Z</time>
      </trkpt>
      <trkpt lat="40.497340" lon="-2.701353">
        <ele>795.2</ele>
        <time>2015-02-22T13:46:58Z</time>
      </trkpt>
      <trkpt lat="40.497318" lon="-2.701525">
        <ele>794.1</ele>
        <time>2015-02-22T13:47:00Z</time>
      </trkpt>
      <trkpt lat="40.497302" lon="-2.701698">
        <ele>793.1</ele>
        <time>2015-02-22T13:47:02Z</time>
      </trkpt>
      <trkpt lat="40.497287" lon="-2.701875">
        <ele>792.4</ele>
        <time>2015-02-22T13:47:04Z</time>
      </trkpt>
      <trkpt lat="40.497252" lon="-2.702046">
        <ele>791.8</ele>
        <time>2015-02-22T13:47:06Z</time>
      </trkpt>
      <trkpt lat="40.497185" lon="-2.702212">
        <ele>791.2</ele>
        <time>2015-02-22T13:47:08Z</time>
      </trkpt>
      <trkpt lat="40.497164" lon="-2.702398">
        <ele>790.4</ele>
        <time>2015-02-22T13:47:10Z</time>
      </trkpt>
      <trkpt lat="40.497179" lon="-2.702586">
        <ele>789.6</ele>
        <time>2015-02-22T13:47:12Z</time>
      </trkpt>
      <trkpt lat="40.497150" lon="-2.702738">
        <ele>789.1</ele>
        <time>2015-02-22T13:47:14Z</time>
      </trkpt>
      <trkpt lat="40.497095" lon="-2.702878">
        <ele>788.6</ele>
        <time>2015-02-22T13:47:16Z</time>
      </trkpt>
      <trkpt lat="40.497037" lon="-2.703023">
        <ele>788.1</ele>
        <time>2015-02-22T13:47:18Z</time>
      </trkpt>
      <trkpt lat="40.496977" lon="-2.703161">
        <ele>787.8</ele>
        <time>2015-02-22T13:47:20Z</time>
      </trkpt>
      <trkpt lat="40.496900" lon="-2.703273">
        <ele>787.6</ele>
        <time>2015-02-22T13:47:22Z</time>
      </trkpt>
      <trkpt lat="40.496842" lon="-2.703375">
        <ele>787.4</ele>
        <time>2015-02-22T13:47:24Z</time>
      </trkpt>
      <trkpt lat="40.496792" lon="-2.703483">
        <ele>787.1</ele>
        <time>2015-02-22T13:47:26Z</time>
      </trkpt>
      <trkpt lat="40.496732" lon="-2.703582">
        <ele>787.0</ele>
        <time>2015-02-22T13:47:28Z</time>
      </trkpt>
      <trkpt lat="40.496673" lon="-2.703687">
        <ele>786.7</ele>
        <time>2015-02-22T13:47:30Z</time>
      </trkpt>
      <trkpt lat="40.496620" lon="-2.703800">
        <ele>786.3</ele>
        <time>2015-02-22T13:47:32Z</time>
      </trkpt>
      <trkpt lat="40.496580" lon="-2.703928">
        <ele>785.8</ele>
        <time>2015-02-22T13:47:34Z</time>
      </trkpt>
      <trkpt lat="40.496561" lon="-2.704068">
        <ele>785.3</ele>
        <time>2015-02-22T13:47:36Z</time>
      </trkpt>
      <trkpt lat="40.496552" lon="-2.704207">
        <ele>784.9</ele>
        <time>2015-02-22T13:47:38Z</time>
      </trkpt>
      <trkpt lat="40.496547" lon="-2.704345">
        <ele>784.4</ele>
        <time>2015-02-22T13:47:40Z</time>
      </trkpt>
      <trkpt lat="40.496535" lon="-2.704486">
        <ele>783.9</ele>
        <time>2015-02-22T13:47:42Z</time>
      </trkpt>
      <trkpt lat="40.496509" lon="-2.704628">
        <ele>783.4</ele>
        <time>2015-02-22T13:47:44Z</time>
      </trkpt>
      <trkpt lat="40.496487" lon="-2.704782">
        <ele>782.9</ele>
        <time>2015-02-22T13:47:46Z</time>
      </trkpt>
      <trkpt lat="40.496485" lon="-2.704948">
        <ele>782.4</ele>
        <time>2015-02-22T13:47:48Z</time>
      </trkpt>
      <trkpt lat="40.496487" lon="-2.705105">
        <ele>781.6</ele>
        <time>2015-02-22T13:47:50Z</time>
      </trkpt>
      <trkpt lat="40.496482" lon="-2.705262">
        <ele>780.7</ele>
        <time>2015-02-22T13:47:52Z</time>
      </trkpt>
      <trkpt lat="40.496472" lon="-2.705438">
        <ele>779.7</ele>
        <time>2015-02-22T13:47:54Z</time>
      </trkpt>
      <trkpt lat="40.496432" lon="-2.705621">
        <ele>778.7</ele>
        <time>2015-02-22T13:47:56Z</time>
      </trkpt>
      <trkpt lat="40.496392" lon="-2.705812">
        <ele>777.7</ele>
        <time>2015-02-22T13:47:58Z</time>
      </trkpt>
      <trkpt lat="40.496347" lon="-2.706008">
        <ele>777.2</ele>
        <time>2015-02-22T13:48:00Z</time>
      </trkpt>
      <trkpt lat="40.496287" lon="-2.706195">
        <ele>776.8</ele>
        <time>2015-02-22T13:48:02Z</time>
      </trkpt>
      <trkpt lat="40.496230" lon="-2.706382">
        <ele>776.4</ele>
        <time>2015-02-22T13:48:04Z</time>
      </trkpt>
      <trkpt lat="40.496142" lon="-2.706531">
        <ele>776.0</ele>
        <time>2015-02-22T13:48:06Z</time>
      </trkpt>
      <trkpt lat="40.496035" lon="-2.706623">
        <ele>775.9</ele>
        <time>2015-02-22T13:48:08Z</time>
      </trkpt>
      <trkpt lat="40.495937" lon="-2.706668">
        <ele>775.9</ele>
        <time>2015-02-22T13:48:10Z</time>
      </trkpt>
      <trkpt lat="40.495835" lon="-2.706753">
        <ele>775.9</ele>
        <time>2015-02-22T13:48:13Z</time>
      </trkpt>
      <trkpt lat="40.495775" lon="-2.706870">
        <ele>776.0</ele>
        <time>2015-02-22T13:48:16Z</time>
      </trkpt>
      <trkpt lat="40.495712" lon="-2.706970">
        <ele>776.1</ele>
        <time>2015-02-22T13:48:19Z</time>
      </trkpt>
      <trkpt lat="40.495632" lon="-2.707055">
        <ele>776.4</ele>
        <time>2015-02-22T13:48:22Z</time>
      </trkpt>
      <trkpt lat="40.495554" lon="-2.707157">
        <ele>776.6</ele>
        <time>2015-02-22T13:48:25Z</time>
      </trkpt>
      <trkpt lat="40.495458" lon="-2.707286">
        <ele>776.9</ele>
        <time>2015-02-22T13:48:28Z</time>
      </trkpt>
      <trkpt lat="40.495375" lon="-2.707380">
        <ele>777.3</ele>
        <time>2015-02-22T13:48:30Z</time>
      </trkpt>
      <trkpt lat="40.495260" lon="-2.707458">
        <ele>777.8</ele>
        <time>2015-02-22T13:48:32Z</time>
      </trkpt>
      <trkpt lat="40.495125" lon="-2.707506">
        <ele>778.4</ele>
        <time>2015-02-22T13:48:34Z</time>
      </trkpt>
      <trkpt lat="40.494997" lon="-2.707583">
        <ele>779.0</ele>
        <time>2015-02-22T13:48:36Z</time>
      </trkpt>
      <trkpt lat="40.494895" lon="-2.707695">
        <ele>778.6</ele>
        <time>2015-02-22T13:48:38Z</time>
      </trkpt>
      <trkpt lat="40.494800" lon="-2.707792">
        <ele>778.1</ele>
        <time>2015-02-22T13:48:40Z</time>
      </trkpt>
      <trkpt lat="40.494699" lon="-2.707843">
        <ele>777.6</ele>
        <time>2015-02-22T13:48:42Z</time>
      </trkpt>
      <trkpt lat="40.494582" lon="-2.707875">
        <ele>777.0</ele>
        <time>2015-02-22T13:48:44Z</time>
      </trkpt>
      <trkpt lat="40.494452" lon="-2.707895">
        <ele>776.4</ele>
        <time>2015-02-22T13:48:46Z</time>
      </trkpt>
      <trkpt lat="40.494317" lon="-2.707907">
        <ele>775.7</ele>
        <time>2015-02-22T13:48:48Z</time>
      </trkpt>
      <trkpt lat="40.494187" lon="-2.707928">
        <ele>775.1</ele>
        <time>2015-02-22T13:48:50Z</time>
      </trkpt>
      <trkpt lat="40.494059" lon="-2.707952">
        <ele>774.4</ele>
        <time>2015-02-22T13:48:52Z</time>
      </trkpt>
      <trkpt lat="40.493934" lon="-2.707993">
        <ele>773.8</ele>
        <time>2015-02-22T13:48:54Z</time>
      </trkpt>
      <trkpt lat="40.493805" lon="-2.708060">
        <ele>773.1</ele>
        <time>2015-02-22T13:48:56Z</time>
      </trkpt>
      <trkpt lat="40.493673" lon="-2.708121">
        <ele>772.3</ele>
        <time>2015-02-22T13:48:58Z</time>
      </trkpt>
      <trkpt lat="40.493557" lon="-2.708196">
        <ele>771.5</ele>
        <time>2015-02-22T13:49:00Z</time>
      </trkpt>
      <trkpt lat="40.493469" lon="-2.708308">
        <ele>770.7</ele>
        <time>2015-02-22T13:49:02Z</time>
      </trkpt>
      <trkpt lat="40.493405" lon="-2.708430">
        <ele>770.3</ele>
        <time>2015-02-22T13:49:04Z</time>
      </trkpt>
      <trkpt lat="40.493343" lon="-2.708555">
        <ele>770.0</ele>
        <time>2015-02-22T13:49:06Z</time>
      </trkpt>
      <trkpt lat="40.493287" lon="-2.708673">
        <ele>770.0</ele>
        <time>2015-02-22T13:49:08Z</time>
      </trkpt>
      <trkpt lat="40.493228" lon="-2.708766">
        <ele>770.1</ele>
        <time>2015-02-22T13:49:10Z</time>
      </trkpt>
      <trkpt lat="40.493140" lon="-2.708893">
        <ele>770.0</ele>
        <time>2015-02-22T13:49:13Z</time>
      </trkpt>
      <trkpt lat="40.493093" lon="-2.708998">
        <ele>769.9</ele>
        <time>2015-02-22T13:49:15Z</time>
      </trkpt>
      <trkpt lat="40.493050" lon="-2.709115">
        <ele>769.7</ele>
        <time>2015-02-22T13:49:17Z</time>
      </trkpt>
      <trkpt lat="40.493002" lon="-2.709228">
        <ele>769.3</ele>
        <time>2015-02-22T13:49:19Z</time>
      </trkpt>
      <trkpt lat="40.492947" lon="-2.709336">
        <ele>768.7</ele>
        <time>2015-02-22T13:49:21Z</time>
      </trkpt>
      <trkpt lat="40.492892" lon="-2.709435">
        <ele>768.2</ele>
        <time>2015-02-22T13:49:23Z</time>
      </trkpt>
      <trkpt lat="40.492824" lon="-2.709528">
        <ele>767.6</ele>
        <time>2015-02-22T13:49:25Z</time>
      </trkpt>
      <trkpt lat="40.492745" lon="-2.709623">
        <ele>767.1</ele>
        <time>2015-02-22T13:49:27Z</time>
      </trkpt>
      <trkpt lat="40.492650" lon="-2.709698">
        <ele>766.6</ele>
        <time>2015-02-22T13:49:29Z</time>
      </trkpt>
      <trkpt lat="40.492532" lon="-2.709725">
        <ele>766.4</ele>
        <time>2015-02-22T13:49:31Z</time>
      </trkpt>
      <trkpt lat="40.492405" lon="-2.709737">
        <ele>766.6</ele>
        <time>2015-02-22T13:49:33Z</time>
      </trkpt>
      <trkpt lat="40.492284" lon="-2.709795">
        <ele>766.7</ele>
        <time>2015-02-22T13:49:35Z</time>
      </trkpt>
      <trkpt lat="40.492167" lon="-2.709858">
        <ele>766.8</ele>
        <time>2015-02-22T13:49:37Z</time>
      </trkpt>
      <trkpt lat="40.492055" lon="-2.709891">
        <ele>767.0</ele>
        <time>2015-02-22T13:49:39Z</time>
      </trkpt>
      <trkpt lat="40.491953" lon="-2.709911">
        <ele>767.3</ele>
        <time>2015-02-22T13:49:41Z</time>
      </trkpt>
      <trkpt lat="40.491860" lon="-2.709933">
        <ele>767.5</ele>
        <time>2015-02-22T13:49:43Z</time>
      </trkpt>
      <trkpt lat="40.491768" lon="-2.709971">
        <ele>767.7</ele>
        <time>2015-02-22T13:49:45Z</time>
      </trkpt>
      <trkpt lat="40.491680" lon="-2.710032">
        <ele>767.7</ele>
        <time>2015-02-22T13:49:47Z</time>
      </trkpt>
      <trkpt lat="40.491594" lon="-2.710123">
        <ele>767.3</ele>
        <time>2015-02-22T13:49:49Z</time>
      </trkpt>
      <trkpt lat="40.491505" lon="-2.710245">
        <ele>766.8</ele>
        <time>2015-02-22T13:49:51Z</time>
      </trkpt>
      <trkpt lat="40.491387" lon="-2.710336">
        <ele>766.4</ele>
        <time>2015-02-22T13:49:53Z</time>
      </trkpt>
      <trkpt lat="40.491252" lon="-2.710402">
        <ele>766.3</ele>
        <time>2015-02-22T13:49:55Z</time>
      </trkpt>
      <trkpt lat="40.491127" lon="-2.710492">
        <ele>766.1</ele>
        <time>2015-02-22T13:49:57Z</time>
      </trkpt>
      <trkpt lat="40.491022" lon="-2.710578">
        <ele>765.8</ele>
        <time>2015-02-22T13:49:59Z</time>
      </trkpt>
      <trkpt lat="40.490962" lon="-2.710732">
        <ele>765.1</ele>
        <time>2015-02-22T13:50:02Z</time>
      </trkpt>
      <trkpt lat="40.490950" lon="-2.710875">
        <ele>764.4</ele>
        <time>2015-02-22T13:50:04Z</time>
      </trkpt>
      <trkpt lat="40.490940" lon="-2.711026">
        <ele>763.4</ele>
        <time>2015-02-22T13:50:06Z</time>
      </trkpt>
      <trkpt lat="40.490935" lon="-2.711187">
        <ele>762.3</ele>
        <time>2015-02-22T13:50:08Z</time>
      </trkpt>
      <trkpt lat="40.490939" lon="-2.711355">
        <ele>761.2</ele>
        <time>2015-02-22T13:50:10Z</time>
      </trkpt>
      <trkpt lat="40.490935" lon="-2.711527">
        <ele>759.9</ele>
        <time>2015-02-22T13:50:12Z</time>
      </trkpt>
      <trkpt lat="40.490929" lon="-2.711712">
        <ele>758.8</ele>
        <time>2015-02-22T13:50:14Z</time>
      </trkpt>
      <trkpt lat="40.490925" lon="-2.711900">
        <ele>757.9</ele>
        <time>2015-02-22T13:50:16Z</time>
      </trkpt>
      <trkpt lat="40.490927" lon="-2.712093">
        <ele>757.0</ele>
        <time>2015-02-22T13:50:18Z</time>
      </trkpt>
      <trkpt lat="40.490927" lon="-2.712285">
        <ele>756.1</ele>
        <time>2015-02-22T13:50:20Z</time>
      </trkpt>
      <trkpt lat="40.490897" lon="-2.712475">
        <ele>755.2</ele>
        <time>2015-02-22T13:50:22Z</time>
      </trkpt>
      <trkpt lat="40.490828" lon="-2.712645">
        <ele>754.1</ele>
        <time>2015-02-22T13:50:24Z</time>
      </trkpt>
      <trkpt lat="40.490735" lon="-2.712793">
        <ele>753.1</ele>
        <time>2015-02-22T13:50:26Z</time>
      </trkpt>
      <trkpt lat="40.490627" lon="-2.712938">
        <ele>752.1</ele>
        <time>2015-02-22T13:50:28Z</time>
      </trkpt>
      <trkpt lat="40.490505" lon="-2.713083">
        <ele>750.9</ele>
        <time>2015-02-22T13:50:30Z</time>
      </trkpt>
      <trkpt lat="40.490388" lon="-2.713240">
        <ele>749.6</ele>
        <time>2015-02-22T13:50:32Z</time>
      </trkpt>
      <trkpt lat="40.490290" lon="-2.713418">
        <ele>748.4</ele>
        <time>2015-02-22T13:50:34Z</time>
      </trkpt>
      <trkpt lat="40.490204" lon="-2.713595">
        <ele>747.7</ele>
        <time>2015-02-22T13:50:36Z</time>
      </trkpt>
      <trkpt lat="40.490080" lon="-2.713703">
        <ele>747.2</ele>
        <time>2015-02-22T13:50:38Z</time>
      </trkpt>
      <trkpt lat="40.489945" lon="-2.713780">
        <ele>747.0</ele>
        <time>2015-02-22T13:50:40Z</time>
      </trkpt>
      <trkpt lat="40.489815" lon="-2.713860">
        <ele>746.9</ele>
        <time>2015-02-22T13:50:42Z</time>
      </trkpt>
      <trkpt lat="40.489707" lon="-2.713978">
        <ele>746.8</ele>
        <time>2015-02-22T13:50:44Z</time>
      </trkpt>
      <trkpt lat="40.489620" lon="-2.714121">
        <ele>746.5</ele>
        <time>2015-02-22T13:50:46Z</time>
      </trkpt>
      <trkpt lat="40.489547" lon="-2.714276">
        <ele>746.3</ele>
        <time>2015-02-22T13:50:48Z</time>
      </trkpt>
      <trkpt lat="40.489492" lon="-2.714436">
        <ele>746.1</ele>
        <time>2015-02-22T13:50:50Z</time>
      </trkpt>
      <trkpt lat="40.489470" lon="-2.714608">
        <ele>745.9</ele>
        <time>2015-02-22T13:50:52Z</time>
      </trkpt>
      <trkpt lat="40.489479" lon="-2.714781">
        <ele>745.5</ele>
        <time>2015-02-22T13:50:54Z</time>
      </trkpt>
      <trkpt lat="40.489505" lon="-2.714945">
        <ele>745.1</ele>
        <time>2015-02-22T13:50:56Z</time>
      </trkpt>
      <trkpt lat="40.489539" lon="-2.715098">
        <ele>744.5</ele>
        <time>2015-02-22T13:50:58Z</time>
      </trkpt>
      <trkpt lat="40.489567" lon="-2.715248">
        <ele>744.0</ele>
        <time>2015-02-22T13:51:00Z</time>
      </trkpt>
      <trkpt lat="40.489585" lon="-2.715395">
        <ele>743.5</ele>
        <time>2015-02-22T13:51:02Z</time>
      </trkpt>
      <trkpt lat="40.489595" lon="-2.715541">
        <ele>743.1</ele>
        <time>2015-02-22T13:51:04Z</time>
      </trkpt>
      <trkpt lat="40.489600" lon="-2.715691">
        <ele>742.8</ele>
        <time>2015-02-22T13:51:06Z</time>
      </trkpt>
      <trkpt lat="40.489595" lon="-2.715847">
        <ele>742.4</ele>
        <time>2015-02-22T13:51:08Z</time>
      </trkpt>
      <trkpt lat="40.489555" lon="-2.715998">
        <ele>742.4</ele>
        <time>2015-02-22T13:51:10Z</time>
      </trkpt>
      <trkpt lat="40.489492" lon="-2.716148">
        <ele>742.4</ele>
        <time>2015-02-22T13:51:12Z</time>
      </trkpt>
      <trkpt lat="40.489422" lon="-2.716300">
        <ele>742.5</ele>
        <time>2015-02-22T13:51:14Z</time>
      </trkpt>
      <trkpt lat="40.489355" lon="-2.716456">
        <ele>742.6</ele>
        <time>2015-02-22T13:51:16Z</time>
      </trkpt>
      <trkpt lat="40.489292" lon="-2.716606">
        <ele>742.6</ele>
        <time>2015-02-22T13:51:18Z</time>
      </trkpt>
      <trkpt lat="40.489230" lon="-2.716750">
        <ele>742.7</ele>
        <time>2015-02-22T13:51:20Z</time>
      </trkpt>
      <trkpt lat="40.489175" lon="-2.716886">
        <ele>742.7</ele>
        <time>2015-02-22T13:51:22Z</time>
      </trkpt>
      <trkpt lat="40.489129" lon="-2.716998">
        <ele>742.6</ele>
        <time>2015-02-22T13:51:24Z</time>
      </trkpt>
      <trkpt lat="40.489087" lon="-2.717160">
        <ele>742.5</ele>
        <time>2015-02-22T13:51:27Z</time>
      </trkpt>
      <trkpt lat="40.489060" lon="-2.717276">
        <ele>742.3</ele>
        <time>2015-02-22T13:51:29Z</time>
      </trkpt>
      <trkpt lat="40.489024" lon="-2.717397">
        <ele>742.2</ele>
        <time>2015-02-22T13:51:31Z</time>
      </trkpt>
      <trkpt lat="40.488977" lon="-2.717517">
        <ele>742.1</ele>
        <time>2015-02-22T13:51:33Z</time>
      </trkpt>
      <trkpt lat="40.488927" lon="-2.717633">
        <ele>742.8</ele>
        <time>2015-02-22T13:51:35Z</time>
      </trkpt>
      <trkpt lat="40.488887" lon="-2.717753">
        <ele>743.4</ele>
        <time>2015-02-22T13:51:37Z</time>
      </trkpt>
      <trkpt lat="40.488865" lon="-2.717872">
        <ele>743.9</ele>
        <time>2015-02-22T13:51:39Z</time>
      </trkpt>
      <trkpt lat="40.488789" lon="-2.718003">
        <ele>744.5</ele>
        <time>2015-02-22T13:51:42Z</time>
      </trkpt>
      <trkpt lat="40.488697" lon="-2.718130">
        <ele>745.0</ele>
        <time>2015-02-22T13:51:45Z</time>
      </trkpt>
      <trkpt lat="40.488615" lon="-2.718250">
        <ele>745.3</ele>
        <time>2015-02-22T13:51:48Z</time>
      </trkpt>
      <trkpt lat="40.488552" lon="-2.718353">
        <ele>745.6</ele>
        <time>2015-02-22T13:51:51Z</time>
      </trkpt>
      <trkpt lat="40.488485" lon="-2.718471">
        <ele>746.1</ele>
        <time>2015-02-22T13:51:55Z</time>
      </trkpt>
      <trkpt lat="40.488427" lon="-2.718605">
        <ele>746.7</ele>
        <time>2015-02-22T13:51:59Z</time>
      </trkpt>
      <trkpt lat="40.488355" lon="-2.718728">
        <ele>747.4</ele>
        <time>2015-02-22T13:52:03Z</time>
      </trkpt>
      <trkpt lat="40.488293" lon="-2.718826">
        <ele>748.1</ele>
        <time>2015-02-22T13:52:07Z</time>
      </trkpt>
      <trkpt lat="40.488225" lon="-2.718913">
        <ele>748.8</ele>
        <time>2015-02-22T13:52:11Z</time>
      </trkpt>
      <trkpt lat="40.488150" lon="-2.718993">
        <ele>749.5</ele>
        <time>2015-02-22T13:52:15Z</time>
      </trkpt>
      <trkpt lat="40.488082" lon="-2.719102">
        <ele>750.3</ele>
        <time>2015-02-22T13:52:19Z</time>
      </trkpt>
      <trkpt lat="40.488042" lon="-2.719228">
        <ele>750.9</ele>
        <time>2015-02-22T13:52:22Z</time>
      </trkpt>
      <trkpt lat="40.487992" lon="-2.719361">
        <ele>751.3</ele>
        <time>2015-02-22T13:52:25Z</time>
      </trkpt>
      <trkpt lat="40.487934" lon="-2.719488">
        <ele>751.7</ele>
        <time>2015-02-22T13:52:28Z</time>
      </trkpt>
      <trkpt lat="40.487862" lon="-2.719605">
        <ele>752.2</ele>
        <time>2015-02-22T13:52:31Z</time>
      </trkpt>
      <trkpt lat="40.487770" lon="-2.719713">
        <ele>752.7</ele>
        <time>2015-02-22T13:52:34Z</time>
      </trkpt>
      <trkpt lat="40.487682" lon="-2.719820">
        <ele>753.2</ele>
        <time>2015-02-22T13:52:37Z</time>
      </trkpt>
      <trkpt lat="40.487605" lon="-2.719945">
        <ele>753.6</ele>
        <time>2015-02-22T13:52:40Z</time>
      </trkpt>
      <trkpt lat="40.487565" lon="-2.720058">
        <ele>753.4</ele>
        <time>2015-02-22T13:52:42Z</time>
      </trkpt>
      <trkpt lat="40.487530" lon="-2.720188">
        <ele>752.5</ele>
        <time>2015-02-22T13:52:44Z</time>
      </trkpt>
      <trkpt lat="40.487487" lon="-2.720313">
        <ele>751.7</ele>
        <time>2015-02-22T13:52:46Z</time>
      </trkpt>
      <trkpt lat="40.487430" lon="-2.720438">
        <ele>750.7</ele>
        <time>2015-02-22T13:52:48Z</time>
      </trkpt>
      <trkpt lat="40.487372" lon="-2.720575">
        <ele>749.7</ele>
        <time>2015-02-22T13:52:50Z</time>
      </trkpt>
      <trkpt lat="40.487310" lon="-2.720710">
        <ele>748.7</ele>
        <time>2015-02-22T13:52:52Z</time>
      </trkpt>
      <trkpt lat="40.487247" lon="-2.720845">
        <ele>748.0</ele>
        <time>2015-02-22T13:52:54Z</time>
      </trkpt>
      <trkpt lat="40.487178" lon="-2.720980">
        <ele>747.7</ele>
        <time>2015-02-22T13:52:56Z</time>
      </trkpt>
      <trkpt lat="40.487095" lon="-2.721112">
        <ele>747.5</ele>
        <time>2015-02-22T13:52:58Z</time>
      </trkpt>
      <trkpt lat="40.487004" lon="-2.721240">
        <ele>747.3</ele>
        <time>2015-02-22T13:53:00Z</time>
      </trkpt>
      <trkpt lat="40.486914" lon="-2.721362">
        <ele>747.2</ele>
        <time>2015-02-22T13:53:02Z</time>
      </trkpt>
      <trkpt lat="40.486820" lon="-2.721470">
        <ele>747.1</ele>
        <time>2015-02-22T13:53:04Z</time>
      </trkpt>
      <trkpt lat="40.486718" lon="-2.721573">
        <ele>747.1</ele>
        <time>2015-02-22T13:53:06Z</time>
      </trkpt>
      <trkpt lat="40.486630" lon="-2.721690">
        <ele>746.9</ele>
        <time>2015-02-22T13:53:08Z</time>
      </trkpt>
      <trkpt lat="40.486562" lon="-2.721810">
        <ele>746.9</ele>
        <time>2015-02-22T13:53:10Z</time>
      </trkpt>
      <trkpt lat="40.486513" lon="-2.721923">
        <ele>747.0</ele>
        <time>2015-02-22T13:53:12Z</time>
      </trkpt>
      <trkpt lat="40.486477" lon="-2.722031">
        <ele>747.0</ele>
        <time>2015-02-22T13:53:14Z</time>
      </trkpt>
      <trkpt lat="40.486425" lon="-2.722140">
        <ele>747.0</ele>
        <time>2015-02-22T13:53:16Z</time>
      </trkpt>
      <trkpt lat="40.486359" lon="-2.722252">
        <ele>746.8</ele>
        <time>2015-02-22T13:53:18Z</time>
      </trkpt>
      <trkpt lat="40.486278" lon="-2.722350">
        <ele>746.5</ele>
        <time>2015-02-22T13:53:20Z</time>
      </trkpt>
      <trkpt lat="40.486205" lon="-2.722447">
        <ele>746.2</ele>
        <time>2015-02-22T13:53:22Z</time>
      </trkpt>
      <trkpt lat="40.486124" lon="-2.722520">
        <ele>746.0</ele>
        <time>2015-02-22T13:53:24Z</time>
      </trkpt>
      <trkpt lat="40.486023" lon="-2.722567">
        <ele>745.8</ele>
        <time>2015-02-22T13:53:26Z</time>
      </trkpt>
      <trkpt lat="40.485930" lon="-2.722616">
        <ele>745.8</ele>
        <time>2015-02-22T13:53:28Z</time>
      </trkpt>
      <trkpt lat="40.485857" lon="-2.722690">
        <ele>746.2</ele>
        <time>2015-02-22T13:53:30Z</time>
      </trkpt>
      <trkpt lat="40.485775" lon="-2.722765">
        <ele>746.7</ele>
        <time>2015-02-22T13:53:32Z</time>
      </trkpt>
      <trkpt lat="40.485680" lon="-2.722841">
        <ele>746.9</ele>
        <time>2015-02-22T13:53:34Z</time>
      </trkpt>
      <trkpt lat="40.485593" lon="-2.722933">
        <ele>747.1</ele>
        <time>2015-02-22T13:53:36Z</time>
      </trkpt>
      <trkpt lat="40.485495" lon="-2.723023">
        <ele>746.9</ele>
        <time>2015-02-22T13:53:38Z</time>
      </trkpt>
      <trkpt lat="40.485367" lon="-2.723095">
        <ele>746.3</ele>
        <time>2015-02-22T13:53:40Z</time>
      </trkpt>
      <trkpt lat="40.485243" lon="-2.723142">
        <ele>745.4</ele>
        <time>2015-02-22T13:53:42Z</time>
      </trkpt>
      <trkpt lat="40.485109" lon="-2.723188">
        <ele>744.1</ele>
        <time>2015-02-22T13:53:44Z</time>
      </trkpt>
      <trkpt lat="40.484990" lon="-2.723243">
        <ele>742.9</ele>
        <time>2015-02-22T13:53:46Z</time>
      </trkpt>
      <trkpt lat="40.484890" lon="-2.723332">
        <ele>741.8</ele>
        <time>2015-02-22T13:53:49Z</time>
      </trkpt>
      <trkpt lat="40.484830" lon="-2.723425">
        <ele>741.0</ele>
        <time>2015-02-22T13:53:51Z</time>
      </trkpt>
      <trkpt lat="40.484785" lon="-2.723573">
        <ele>740.1</ele>
        <time>2015-02-22T13:53:53Z</time>
      </trkpt>
      <trkpt lat="40.484755" lon="-2.723753">
        <ele>739.3</ele>
        <time>2015-02-22T13:53:55Z</time>
      </trkpt>
      <trkpt lat="40.484730" lon="-2.723945">
        <ele>738.6</ele>
        <time>2015-02-22T13:53:57Z</time>
      </trkpt>
      <trkpt lat="40.484720" lon="-2.724117">
        <ele>738.1</ele>
        <time>2015-02-22T13:53:59Z</time>
      </trkpt>
      <trkpt lat="40.484720" lon="-2.724270">
        <ele>738.6</ele>
        <time>2015-02-22T13:54:01Z</time>
      </trkpt>
      <trkpt lat="40.484723" lon="-2.724410">
        <ele>739.5</ele>
        <time>2015-02-22T13:54:03Z</time>
      </trkpt>
      <trkpt lat="40.484723" lon="-2.724533">
        <ele>740.2</ele>
        <time>2015-02-22T13:54:05Z</time>
      </trkpt>
      <trkpt lat="40.484712" lon="-2.724700">
        <ele>741.1</ele>
        <time>2015-02-22T13:54:08Z</time>
      </trkpt>
      <trkpt lat="40.484693" lon="-2.724855">
        <ele>741.8</ele>
        <time>2015-02-22T13:54:11Z</time>
      </trkpt>
      <trkpt lat="40.484678" lon="-2.725008">
        <ele>742.3</ele>
        <time>2015-02-22T13:54:14Z</time>
      </trkpt>
      <trkpt lat="40.484669" lon="-2.725127">
        <ele>742.0</ele>
        <time>2015-02-22T13:54:16Z</time>
      </trkpt>
      <trkpt lat="40.484654" lon="-2.725263">
        <ele>741.6</ele>
        <time>2015-02-22T13:54:18Z</time>
      </trkpt>
      <trkpt lat="40.484635" lon="-2.725418">
        <ele>741.1</ele>
        <time>2015-02-22T13:54:20Z</time>
      </trkpt>
      <trkpt lat="40.484617" lon="-2.725593">
        <ele>740.5</ele>
        <time>2015-02-22T13:54:22Z</time>
      </trkpt>
      <trkpt lat="40.484595" lon="-2.725780">
        <ele>739.8</ele>
        <time>2015-02-22T13:54:24Z</time>
      </trkpt>
      <trkpt lat="40.484569" lon="-2.725968">
        <ele>737.4</ele>
        <time>2015-02-22T13:54:26Z</time>
      </trkpt>
      <trkpt lat="40.484549" lon="-2.726153">
        <ele>734.7</ele>
        <time>2015-02-22T13:54:28Z</time>
      </trkpt>
      <trkpt lat="40.484560" lon="-2.726355">
        <ele>732.3</ele>
        <time>2015-02-22T13:54:30Z</time>
      </trkpt>
      <trkpt lat="40.484592" lon="-2.726560">
        <ele>730.0</ele>
        <time>2015-02-22T13:54:32Z</time>
      </trkpt>
      <trkpt lat="40.484610" lon="-2.726753">
        <ele>727.5</ele>
        <time>2015-02-22T13:54:34Z</time>
      </trkpt>
      <trkpt lat="40.484610" lon="-2.726943">
        <ele>724.5</ele>
        <time>2015-02-22T13:54:36Z</time>
      </trkpt>
      <trkpt lat="40.484613" lon="-2.727105">
        <ele>722.1</ele>
        <time>2015-02-22T13:54:38Z</time>
      </trkpt>
      <trkpt lat="40.484640" lon="-2.727253">
        <ele>720.1</ele>
        <time>2015-02-22T13:54:40Z</time>
      </trkpt>
      <trkpt lat="40.484640" lon="-2.727253">
        <ele>720.1</ele>
        <time>2015-02-22T13:54:40Z</time>
      </trkpt>
      <trkpt lat="40.484640" lon="-2.727253">
        <ele>720.1</ele>
        <time>2015-02-22T08:33:37Z</time>
      </trkpt>
      <trkpt lat="40.484715" lon="-2.727355">
        <ele>719.0</ele>
        <time>2015-02-22T08:33:39Z</time>
      </trkpt>
      <trkpt lat="40.484818" lon="-2.727383">
        <ele>719.2</ele>
        <time>2015-02-22T08:33:41Z</time>
      </trkpt>
      <trkpt lat="40.484945" lon="-2.727365">
        <ele>720.2</ele>
        <time>2015-02-22T08:33:44Z</time>
      </trkpt>
      <trkpt lat="40.485062" lon="-2.727335">
        <ele>720.9</ele>
        <time>2015-02-22T08:33:47Z</time>
      </trkpt>
      <trkpt lat="40.485172" lon="-2.727316">
        <ele>721.1</ele>
        <time>2015-02-22T08:33:50Z</time>
      </trkpt>
      <trkpt lat="40.485280" lon="-2.727308">
        <ele>720.9</ele>
        <time>2015-02-22T08:33:53Z</time>
      </trkpt>
      <trkpt lat="40.485382" lon="-2.727300">
        <ele>720.9</ele>
        <time>2015-02-22T08:33:56Z</time>
      </trkpt>
      <trkpt lat="40.485477" lon="-2.727295">
        <ele>720.7</ele>
        <time>2015-02-22T08:33:59Z</time>
      </trkpt>
      <trkpt lat="40.485567" lon="-2.727285">
        <ele>720.6</ele>
        <time>2015-02-22T08:34:02Z</time>
      </trkpt>
      <trkpt lat="40.485657" lon="-2.727272">
        <ele>720.6</ele>
        <time>2015-02-22T08:34:05Z</time>
      </trkpt>
      <trkpt lat="40.485774" lon="-2.727250">
        <ele>720.5</ele>
        <time>2015-02-22T08:34:09Z</time>
      </trkpt>
      <trkpt lat="40.485869" lon="-2.727228">
        <ele>720.5</ele>
        <time>2015-02-22T08:34:12Z</time>
      </trkpt>
      <trkpt lat="40.485969" lon="-2.727213">
        <ele>720.3</ele>
        <time>2015-02-22T08:34:15Z</time>
      </trkpt>
      <trkpt lat="40.486084" lon="-2.727198">
        <ele>720.0</ele>
        <time>2015-02-22T08:34:18Z</time>
      </trkpt>
      <trkpt lat="40.486192" lon="-2.727173">
        <ele>719.8</ele>
        <time>2015-02-22T08:34:21Z</time>
      </trkpt>
      <trkpt lat="40.486310" lon="-2.727152">
        <ele>719.5</ele>
        <time>2015-02-22T08:34:24Z</time>
      </trkpt>
      <trkpt lat="40.486429" lon="-2.727135">
        <ele>719.4</ele>
        <time>2015-02-22T08:34:27Z</time>
      </trkpt>
      <trkpt lat="40.486547" lon="-2.727111">
        <ele>719.2</ele>
        <time>2015-02-22T08:34:30Z</time>
      </trkpt>
      <trkpt lat="40.486679" lon="-2.727088">
        <ele>718.8</ele>
        <time>2015-02-22T08:34:33Z</time>
      </trkpt>
      <trkpt lat="40.486784" lon="-2.727081">
        <ele>718.3</ele>
        <time>2015-02-22T08:34:35Z</time>
      </trkpt>
      <trkpt lat="40.486889" lon="-2.727066">
        <ele>717.8</ele>
        <time>2015-02-22T08:34:37Z</time>
      </trkpt>
      <trkpt lat="40.486980" lon="-2.727058">
        <ele>717.3</ele>
        <time>2015-02-22T08:34:39Z</time>
      </trkpt>
      <trkpt lat="40.487090" lon="-2.727052">
        <ele>716.7</ele>
        <time>2015-02-22T08:34:42Z</time>
      </trkpt>
      <trkpt lat="40.487197" lon="-2.727070">
        <ele>715.9</ele>
        <time>2015-02-22T08:34:45Z</time>
      </trkpt>
      <trkpt lat="40.487300" lon="-2.727093">
        <ele>715.1</ele>
        <time>2015-02-22T08:34:48Z</time>
      </trkpt>
      <trkpt lat="40.487390" lon="-2.727103">
        <ele>714.5</ele>
        <time>2015-02-22T08:34:51Z</time>
      </trkpt>
      <trkpt lat="40.487480" lon="-2.727100">
        <ele>713.9</ele>
        <time>2015-02-22T08:34:54Z</time>
      </trkpt>
      <trkpt lat="40.487572" lon="-2.727095">
        <ele>714.4</ele>
        <time>2015-02-22T08:34:57Z</time>
      </trkpt>
      <trkpt lat="40.487665" lon="-2.727090">
        <ele>715.1</ele>
        <time>2015-02-22T08:35:00Z</time>
      </trkpt>
      <trkpt lat="40.487759" lon="-2.727098">
        <ele>715.8</ele>
        <time>2015-02-22T08:35:03Z</time>
      </trkpt>
      <trkpt lat="40.487857" lon="-2.727120">
        <ele>716.3</ele>
        <time>2015-02-22T08:35:06Z</time>
      </trkpt>
      <trkpt lat="40.487965" lon="-2.727135">
        <ele>717.0</ele>
        <time>2015-02-22T08:35:09Z</time>
      </trkpt>
      <trkpt lat="40.488060" lon="-2.727120">
        <ele>717.8</ele>
        <time>2015-02-22T08:35:11Z</time>
      </trkpt>
      <trkpt lat="40.488163" lon="-2.727066">
        <ele>718.9</ele>
        <time>2015-02-22T08:35:13Z</time>
      </trkpt>
      <trkpt lat="40.488272" lon="-2.727020">
        <ele>720.0</ele>
        <time>2015-02-22T08:35:15Z</time>
      </trkpt>
      <trkpt lat="40.488392" lon="-2.727017">
        <ele>720.5</ele>
        <time>2015-02-22T08:35:17Z</time>
      </trkpt>
      <trkpt lat="40.488505" lon="-2.726981">
        <ele>720.8</ele>
        <time>2015-02-22T08:35:19Z</time>
      </trkpt>
      <trkpt lat="40.488600" lon="-2.726918">
        <ele>721.5</ele>
        <time>2015-02-22T08:35:21Z</time>
      </trkpt>
      <trkpt lat="40.488730" lon="-2.726925">
        <ele>721.6</ele>
        <time>2015-02-22T08:35:24Z</time>
      </trkpt>
      <trkpt lat="40.488838" lon="-2.726990">
        <ele>721.2</ele>
        <time>2015-02-22T08:35:27Z</time>
      </trkpt>
      <trkpt lat="40.488937" lon="-2.727088">
        <ele>720.2</ele>
        <time>2015-02-22T08:35:30Z</time>
      </trkpt>
      <trkpt lat="40.489017" lon="-2.727221">
        <ele>719.0</ele>
        <time>2015-02-22T08:35:33Z</time>
      </trkpt>
      <trkpt lat="40.489097" lon="-2.727343">
        <ele>717.7</ele>
        <time>2015-02-22T08:35:36Z</time>
      </trkpt>
      <trkpt lat="40.489187" lon="-2.727418">
        <ele>716.8</ele>
        <time>2015-02-22T08:35:39Z</time>
      </trkpt>
      <trkpt lat="40.489285" lon="-2.727443">
        <ele>716.5</ele>
        <time>2015-02-22T08:35:42Z</time>
      </trkpt>
      <trkpt lat="40.489402" lon="-2.727438">
        <ele>716.5</ele>
        <time>2015-02-22T08:35:45Z</time>
      </trkpt>
      <trkpt lat="40.489517" lon="-2.727380">
        <ele>717.0</ele>
        <time>2015-02-22T08:35:48Z</time>
      </trkpt>
      <trkpt lat="40.489630" lon="-2.727318">
        <ele>717.5</ele>
        <time>2015-02-22T08:35:51Z</time>
      </trkpt>
      <trkpt lat="40.489745" lon="-2.727262">
        <ele>717.7</ele>
        <time>2015-02-22T08:35:54Z</time>
      </trkpt>
      <trkpt lat="40.489868" lon="-2.727230">
        <ele>717.8</ele>
        <time>2015-02-22T08:35:57Z</time>
      </trkpt>
      <trkpt lat="40.489992" lon="-2.727198">
        <ele>717.8</ele>
        <time>2015-02-22T08:36:00Z</time>
      </trkpt>
      <trkpt lat="40.490110" lon="-2.727155">
        <ele>717.9</ele>
        <time>2015-02-22T08:36:03Z</time>
      </trkpt>
      <trkpt lat="40.490219" lon="-2.727103">
        <ele>718.2</ele>
        <time>2015-02-22T08:36:06Z</time>
      </trkpt>
      <trkpt lat="40.490323" lon="-2.727070">
        <ele>718.4</ele>
        <time>2015-02-22T08:36:09Z</time>
      </trkpt>
      <trkpt lat="40.490423" lon="-2.727053">
        <ele>718.4</ele>
        <time>2015-02-22T08:36:12Z</time>
      </trkpt>
      <trkpt lat="40.490533" lon="-2.727042">
        <ele>718.5</ele>
        <time>2015-02-22T08:36:16Z</time>
      </trkpt>
      <trkpt lat="40.490647" lon="-2.727025">
        <ele>718.6</ele>
        <time>2015-02-22T08:36:20Z</time>
      </trkpt>
      <trkpt lat="40.490752" lon="-2.726985">
        <ele>718.9</ele>
        <time>2015-02-22T08:36:23Z</time>
      </trkpt>
      <trkpt lat="40.490855" lon="-2.726960">
        <ele>719.0</ele>
        <time>2015-02-22T08:36:26Z</time>
      </trkpt>
      <trkpt lat="40.490967" lon="-2.726930">
        <ele>718.7</ele>
        <time>2015-02-22T08:36:29Z</time>
      </trkpt>
      <trkpt lat="40.491092" lon="-2.726910">
        <ele>718.2</ele>
        <time>2015-02-22T08:36:32Z</time>
      </trkpt>
      <trkpt lat="40.491224" lon="-2.726905">
        <ele>717.6</ele>
        <time>2015-02-22T08:36:35Z</time>
      </trkpt>
      <trkpt lat="40.491315" lon="-2.726920">
        <ele>717.0</ele>
        <time>2015-02-22T08:36:37Z</time>
      </trkpt>
      <trkpt lat="40.491413" lon="-2.726945">
        <ele>716.3</ele>
        <time>2015-02-22T08:36:39Z</time>
      </trkpt>
      <trkpt lat="40.491510" lon="-2.726968">
        <ele>715.6</ele>
        <time>2015-02-22T08:36:41Z</time>
      </trkpt>
      <trkpt lat="40.491605" lon="-2.726991">
        <ele>715.0</ele>
        <time>2015-02-22T08:36:43Z</time>
      </trkpt>
      <trkpt lat="40.491694" lon="-2.727017">
        <ele>714.3</ele>
        <time>2015-02-22T08:36:45Z</time>
      </trkpt>
      <trkpt lat="40.491810" lon="-2.727070">
        <ele>713.1</ele>
        <time>2015-02-22T08:36:48Z</time>
      </trkpt>
      <trkpt lat="40.491917" lon="-2.727132">
        <ele>712.0</ele>
        <time>2015-02-22T08:36:51Z</time>
      </trkpt>
      <trkpt lat="40.492020" lon="-2.727160">
        <ele>711.1</ele>
        <time>2015-02-22T08:36:54Z</time>
      </trkpt>
      <trkpt lat="40.492122" lon="-2.727160">
        <ele>710.5</ele>
        <time>2015-02-22T08:36:57Z</time>
      </trkpt>
      <trkpt lat="40.492229" lon="-2.727142">
        <ele>709.9</ele>
        <time>2015-02-22T08:37:00Z</time>
      </trkpt>
      <trkpt lat="40.492323" lon="-2.727085">
        <ele>709.7</ele>
        <time>2015-02-22T08:37:03Z</time>
      </trkpt>
      <trkpt lat="40.492403" lon="-2.727007">
        <ele>709.6</ele>
        <time>2015-02-22T08:37:06Z</time>
      </trkpt>
      <trkpt lat="40.492464" lon="-2.726895">
        <ele>709.8</ele>
        <time>2015-02-22T08:37:09Z</time>
      </trkpt>
      <trkpt lat="40.492498" lon="-2.726751">
        <ele>710.5</ele>
        <time>2015-02-22T08:37:12Z</time>
      </trkpt>
      <trkpt lat="40.492548" lon="-2.726606">
        <ele>710.9</ele>
        <time>2015-02-22T08:37:15Z</time>
      </trkpt>
      <trkpt lat="40.492607" lon="-2.726455">
        <ele>711.0</ele>
        <time>2015-02-22T08:37:18Z</time>
      </trkpt>
      <trkpt lat="40.492640" lon="-2.726315">
        <ele>711.1</ele>
        <time>2015-02-22T08:37:21Z</time>
      </trkpt>
      <trkpt lat="40.492689" lon="-2.726168">
        <ele>711.3</ele>
        <time>2015-02-22T08:37:24Z</time>
      </trkpt>
      <trkpt lat="40.492762" lon="-2.726088">
        <ele>711.4</ele>
        <time>2015-02-22T08:37:26Z</time>
      </trkpt>
      <trkpt lat="40.492860" lon="-2.726030">
        <ele>711.5</ele>
        <time>2015-02-22T08:37:28Z</time>
      </trkpt>
      <trkpt lat="40.492972" lon="-2.725965">
        <ele>711.6</ele>
        <time>2015-02-22T08:37:30Z</time>
      </trkpt>
      <trkpt lat="40.493073" lon="-2.725876">
        <ele>711.8</ele>
        <time>2015-02-22T08:37:32Z</time>
      </trkpt>
      <trkpt lat="40.493160" lon="-2.725803">
        <ele>712.2</ele>
        <time>2015-02-22T08:37:34Z</time>
      </trkpt>
      <trkpt lat="40.493267" lon="-2.725778">
        <ele>712.4</ele>
        <time>2015-02-22T08:37:37Z</time>
      </trkpt>
      <trkpt lat="40.493347" lon="-2.725868">
        <ele>711.8</ele>
        <time>2015-02-22T08:37:41Z</time>
      </trkpt>
      <trkpt lat="40.493412" lon="-2.725951">
        <ele>711.6</ele>
        <time>2015-02-22T08:37:54Z</time>
      </trkpt>
      <trkpt lat="40.493518" lon="-2.725980">
        <ele>711.6</ele>
        <time>2015-02-22T08:37:58Z</time>
      </trkpt>
      <trkpt lat="40.493645" lon="-2.725903">
        <ele>712.3</ele>
        <time>2015-02-22T08:38:01Z</time>
      </trkpt>
      <trkpt lat="40.493705" lon="-2.725810">
        <ele>713.0</ele>
        <time>2015-02-22T08:38:03Z</time>
      </trkpt>
      <trkpt lat="40.493770" lon="-2.725708">
        <ele>714.3</ele>
        <time>2015-02-22T08:38:06Z</time>
      </trkpt>
      <trkpt lat="40.493842" lon="-2.725606">
        <ele>715.6</ele>
        <time>2015-02-22T08:38:11Z</time>
      </trkpt>
      <trkpt lat="40.493885" lon="-2.725495">
        <ele>717.0</ele>
        <time>2015-02-22T08:38:16Z</time>
      </trkpt>
      <trkpt lat="40.493939" lon="-2.725383">
        <ele>718.3</ele>
        <time>2015-02-22T08:38:23Z</time>
      </trkpt>
      <trkpt lat="40.494035" lon="-2.725348">
        <ele>719.2</ele>
        <time>2015-02-22T08:38:32Z</time>
      </trkpt>
      <trkpt lat="40.494125" lon="-2.725411">
        <ele>718.8</ele>
        <time>2015-02-22T08:38:39Z</time>
      </trkpt>
      <trkpt lat="40.494229" lon="-2.725415">
        <ele>719.1</ele>
        <time>2015-02-22T08:38:46Z</time>
      </trkpt>
      <trkpt lat="40.494327" lon="-2.725406">
        <ele>719.3</ele>
        <time>2015-02-22T08:38:53Z</time>
      </trkpt>
      <trkpt lat="40.494415" lon="-2.725378">
        <ele>719.9</ele>
        <time>2015-02-22T08:38:59Z</time>
      </trkpt>
      <trkpt lat="40.494509" lon="-2.725332">
        <ele>720.6</ele>
        <time>2015-02-22T08:39:05Z</time>
      </trkpt>
      <trkpt lat="40.494614" lon="-2.725291">
        <ele>721.3</ele>
        <time>2015-02-22T08:39:11Z</time>
      </trkpt>
      <trkpt lat="40.494719" lon="-2.725253">
        <ele>722.0</ele>
        <time>2015-02-22T08:39:16Z</time>
      </trkpt>
      <trkpt lat="40.494805" lon="-2.725216">
        <ele>722.7</ele>
        <time>2015-02-22T08:39:20Z</time>
      </trkpt>
      <trkpt lat="40.494905" lon="-2.725176">
        <ele>723.4</ele>
        <time>2015-02-22T08:39:24Z</time>
      </trkpt>
      <trkpt lat="40.495018" lon="-2.725128">
        <ele>724.1</ele>
        <time>2015-02-22T08:39:27Z</time>
      </trkpt>
      <trkpt lat="40.495117" lon="-2.725090">
        <ele>723.9</ele>
        <time>2015-02-22T08:39:30Z</time>
      </trkpt>
      <trkpt lat="40.495213" lon="-2.725095">
        <ele>722.9</ele>
        <time>2015-02-22T08:39:35Z</time>
      </trkpt>
      <trkpt lat="40.495305" lon="-2.725091">
        <ele>722.4</ele>
        <time>2015-02-22T08:39:40Z</time>
      </trkpt>
      <trkpt lat="40.495403" lon="-2.725076">
        <ele>721.8</ele>
        <time>2015-02-22T08:39:46Z</time>
      </trkpt>
      <trkpt lat="40.495494" lon="-2.725070">
        <ele>721.0</ele>
        <time>2015-02-22T08:39:51Z</time>
      </trkpt>
      <trkpt lat="40.495592" lon="-2.725048">
        <ele>720.5</ele>
        <time>2015-02-22T08:39:56Z</time>
      </trkpt>
      <trkpt lat="40.495683" lon="-2.725028">
        <ele>720.0</ele>
        <time>2015-02-22T08:40:02Z</time>
      </trkpt>
      <trkpt lat="40.495780" lon="-2.725007">
        <ele>719.3</ele>
        <time>2015-02-22T08:40:08Z</time>
      </trkpt>
      <trkpt lat="40.495872" lon="-2.725028">
        <ele>718.7</ele>
        <time>2015-02-22T08:40:13Z</time>
      </trkpt>
      <trkpt lat="40.495990" lon="-2.724995">
        <ele>718.8</ele>
        <time>2015-02-22T08:40:17Z</time>
      </trkpt>
      <trkpt lat="40.496095" lon="-2.724940">
        <ele>719.2</ele>
        <time>2015-02-22T08:40:19Z</time>
      </trkpt>
      <trkpt lat="40.496210" lon="-2.724898">
        <ele>719.5</ele>
        <time>2015-02-22T08:40:21Z</time>
      </trkpt>
      <trkpt lat="40.496342" lon="-2.724860">
        <ele>719.7</ele>
        <time>2015-02-22T08:40:23Z</time>
      </trkpt>
      <trkpt lat="40.496484" lon="-2.724803">
        <ele>720.0</ele>
        <time>2015-02-22T08:40:25Z</time>
      </trkpt>
      <trkpt lat="40.496629" lon="-2.724772">
        <ele>719.9</ele>
        <time>2015-02-22T08:40:27Z</time>
      </trkpt>
      <trkpt lat="40.496755" lon="-2.724750">
        <ele>719.5</ele>
        <time>2015-02-22T08:40:29Z</time>
      </trkpt>
      <trkpt lat="40.496870" lon="-2.724740">
        <ele>718.9</ele>
        <time>2015-02-22T08:40:31Z</time>
      </trkpt>
      <trkpt lat="40.496987" lon="-2.724711">
        <ele>718.4</ele>
        <time>2015-02-22T08:40:33Z</time>
      </trkpt>
      <trkpt lat="40.497103" lon="-2.724687">
        <ele>717.9</ele>
        <time>2015-02-22T08:40:35Z</time>
      </trkpt>
      <trkpt lat="40.497200" lon="-2.724660">
        <ele>717.5</ele>
        <time>2015-02-22T08:40:37Z</time>
      </trkpt>
      <trkpt lat="40.497323" lon="-2.724616">
        <ele>717.2</ele>
        <time>2015-02-22T08:40:40Z</time>
      </trkpt>
      <trkpt lat="40.497450" lon="-2.724582">
        <ele>716.8</ele>
        <time>2015-02-22T08:40:43Z</time>
      </trkpt>
      <trkpt lat="40.497578" lon="-2.724588">
        <ele>716.1</ele>
        <time>2015-02-22T08:40:46Z</time>
      </trkpt>
      <trkpt lat="40.497692" lon="-2.724600">
        <ele>715.7</ele>
        <time>2015-02-22T08:40:49Z</time>
      </trkpt>
      <trkpt lat="40.497780" lon="-2.724572">
        <ele>715.8</ele>
        <time>2015-02-22T08:40:53Z</time>
      </trkpt>
      <trkpt lat="40.497880" lon="-2.724552">
        <ele>715.6</ele>
        <time>2015-02-22T08:40:57Z</time>
      </trkpt>
      <trkpt lat="40.497975" lon="-2.724510">
        <ele>715.6</ele>
        <time>2015-02-22T08:40:59Z</time>
      </trkpt>
      <trkpt lat="40.498083" lon="-2.724473">
        <ele>715.6</ele>
        <time>2015-02-22T08:41:01Z</time>
      </trkpt>
      <trkpt lat="40.498189" lon="-2.724436">
        <ele>715.5</ele>
        <time>2015-02-22T08:41:03Z</time>
      </trkpt>
      <trkpt lat="40.498287" lon="-2.724381">
        <ele>715.6</ele>
        <time>2015-02-22T08:41:05Z</time>
      </trkpt>
      <trkpt lat="40.498367" lon="-2.724312">
        <ele>715.6</ele>
        <time>2015-02-22T08:41:07Z</time>
      </trkpt>
      <trkpt lat="40.498459" lon="-2.724240">
        <ele>715.2</ele>
        <time>2015-02-22T08:41:10Z</time>
      </trkpt>
      <trkpt lat="40.498555" lon="-2.724168">
        <ele>714.6</ele>
        <time>2015-02-22T08:41:14Z</time>
      </trkpt>
      <trkpt lat="40.498635" lon="-2.724068">
        <ele>714.2</ele>
        <time>2015-02-22T08:41:18Z</time>
      </trkpt>
      <trkpt lat="40.498710" lon="-2.723993">
        <ele>713.9</ele>
        <time>2015-02-22T08:41:21Z</time>
      </trkpt>
      <trkpt lat="40.498802" lon="-2.723946">
        <ele>713.4</ele>
        <time>2015-02-22T08:41:25Z</time>
      </trkpt>
      <trkpt lat="40.498908" lon="-2.723918">
        <ele>712.7</ele>
        <time>2015-02-22T08:41:52Z</time>
      </trkpt>
      <trkpt lat="40.499012" lon="-2.723838">
        <ele>712.6</ele>
        <time>2015-02-22T08:41:55Z</time>
      </trkpt>
      <trkpt lat="40.499123" lon="-2.723725">
        <ele>713.0</ele>
        <time>2015-02-22T08:41:57Z</time>
      </trkpt>
      <trkpt lat="40.499272" lon="-2.723631">
        <ele>714.2</ele>
        <time>2015-02-22T08:41:59Z</time>
      </trkpt>
      <trkpt lat="40.499417" lon="-2.723545">
        <ele>715.8</ele>
        <time>2015-02-22T08:42:01Z</time>
      </trkpt>
      <trkpt lat="40.499547" lon="-2.723505">
        <ele>716.9</ele>
        <time>2015-02-22T08:42:03Z</time>
      </trkpt>
      <trkpt lat="40.499647" lon="-2.723500">
        <ele>717.6</ele>
        <time>2015-02-22T08:42:05Z</time>
      </trkpt>
      <trkpt lat="40.499745" lon="-2.723460">
        <ele>718.6</ele>
        <time>2015-02-22T08:42:08Z</time>
      </trkpt>
      <trkpt lat="40.499847" lon="-2.723410">
        <ele>719.9</ele>
        <time>2015-02-22T08:42:12Z</time>
      </trkpt>
      <trkpt lat="40.499955" lon="-2.723381">
        <ele>720.9</ele>
        <time>2015-02-22T08:42:17Z</time>
      </trkpt>
      <trkpt lat="40.500059" lon="-2.723367">
        <ele>721.2</ele>
        <time>2015-02-22T08:42:22Z</time>
      </trkpt>
      <trkpt lat="40.500154" lon="-2.723357">
        <ele>721.1</ele>
        <time>2015-02-22T08:42:27Z</time>
      </trkpt>
      <trkpt lat="40.500257" lon="-2.723343">
        <ele>720.9</ele>
        <time>2015-02-22T08:42:33Z</time>
      </trkpt>
      <trkpt lat="40.500348" lon="-2.723308">
        <ele>721.1</ele>
        <time>2015-02-22T08:42:38Z</time>
      </trkpt>
      <trkpt lat="40.500457" lon="-2.723285">
        <ele>720.8</ele>
        <time>2015-02-22T08:42:43Z</time>
      </trkpt>
      <trkpt lat="40.500562" lon="-2.723255">
        <ele>721.0</ele>
        <time>2015-02-22T08:42:48Z</time>
      </trkpt>
      <trkpt lat="40.500662" lon="-2.723237">
        <ele>720.9</ele>
        <time>2015-02-22T08:42:53Z</time>
      </trkpt>
      <trkpt lat="40.500752" lon="-2.723228">
        <ele>720.8</ele>
        <time>2015-02-22T08:42:57Z</time>
      </trkpt>
      <trkpt lat="40.500854" lon="-2.723213">
        <ele>720.6</ele>
        <time>2015-02-22T08:43:01Z</time>
      </trkpt>
      <trkpt lat="40.500945" lon="-2.723190">
        <ele>720.6</ele>
        <time>2015-02-22T08:43:05Z</time>
      </trkpt>
      <trkpt lat="40.501037" lon="-2.723125">
        <ele>721.1</ele>
        <time>2015-02-22T08:43:10Z</time>
      </trkpt>
      <trkpt lat="40.501135" lon="-2.723092">
        <ele>721.1</ele>
        <time>2015-02-22T08:43:15Z</time>
      </trkpt>
      <trkpt lat="40.501233" lon="-2.723068">
        <ele>721.0</ele>
        <time>2015-02-22T08:43:19Z</time>
      </trkpt>
      <trkpt lat="40.501330" lon="-2.723065">
        <ele>720.6</ele>
        <time>2015-02-22T08:43:23Z</time>
      </trkpt>
      <trkpt lat="40.501425" lon="-2.723056">
        <ele>720.3</ele>
        <time>2015-02-22T08:43:27Z</time>
      </trkpt>
      <trkpt lat="40.501537" lon="-2.723046">
        <ele>720.0</ele>
        <time>2015-02-22T08:43:32Z</time>
      </trkpt>
      <trkpt lat="40.501620" lon="-2.722997">
        <ele>720.3</ele>
        <time>2015-02-22T08:43:35Z</time>
      </trkpt>
      <trkpt lat="40.501713" lon="-2.722930">
        <ele>720.4</ele>
        <time>2015-02-22T08:43:39Z</time>
      </trkpt>
      <trkpt lat="40.501807" lon="-2.722912">
        <ele>719.7</ele>
        <time>2015-02-22T08:43:43Z</time>
      </trkpt>
      <trkpt lat="40.501905" lon="-2.722892">
        <ele>719.1</ele>
        <time>2015-02-22T08:43:47Z</time>
      </trkpt>
      <trkpt lat="40.502000" lon="-2.722875">
        <ele>718.4</ele>
        <time>2015-02-22T08:43:51Z</time>
      </trkpt>
      <trkpt lat="40.502114" lon="-2.722850">
        <ele>717.6</ele>
        <time>2015-02-22T08:43:55Z</time>
      </trkpt>
      <trkpt lat="40.502230" lon="-2.722815">
        <ele>716.8</ele>
        <time>2015-02-22T08:43:58Z</time>
      </trkpt>
      <trkpt lat="40.502347" lon="-2.722746">
        <ele>716.4</ele>
        <time>2015-02-22T08:44:01Z</time>
      </trkpt>
      <trkpt lat="40.502432" lon="-2.722675">
        <ele>716.2</ele>
        <time>2015-02-22T08:44:03Z</time>
      </trkpt>
      <trkpt lat="40.502520" lon="-2.722603">
        <ele>716.0</ele>
        <time>2015-02-22T08:44:05Z</time>
      </trkpt>
      <trkpt lat="40.502610" lon="-2.722553">
        <ele>715.9</ele>
        <time>2015-02-22T08:44:07Z</time>
      </trkpt>
      <trkpt lat="40.502702" lon="-2.722523">
        <ele>715.6</ele>
        <time>2015-02-22T08:44:09Z</time>
      </trkpt>
      <trkpt lat="40.502815" lon="-2.722447">
        <ele>715.7</ele>
        <time>2015-02-22T08:44:12Z</time>
      </trkpt>
      <trkpt lat="40.502910" lon="-2.722442">
        <ele>715.1</ele>
        <time>2015-02-22T08:44:14Z</time>
      </trkpt>
      <trkpt lat="40.503013" lon="-2.722437">
        <ele>714.7</ele>
        <time>2015-02-22T08:44:16Z</time>
      </trkpt>
      <trkpt lat="40.503113" lon="-2.722457">
        <ele>713.8</ele>
        <time>2015-02-22T08:44:18Z</time>
      </trkpt>
      <trkpt lat="40.503227" lon="-2.722435">
        <ele>713.5</ele>
        <time>2015-02-22T08:44:21Z</time>
      </trkpt>
      <trkpt lat="40.503350" lon="-2.722406">
        <ele>713.2</ele>
        <time>2015-02-22T08:44:24Z</time>
      </trkpt>
      <trkpt lat="40.503444" lon="-2.722373">
        <ele>713.2</ele>
        <time>2015-02-22T08:44:26Z</time>
      </trkpt>
      <trkpt lat="40.503535" lon="-2.722308">
        <ele>713.9</ele>
        <time>2015-02-22T08:44:28Z</time>
      </trkpt>
      <trkpt lat="40.503588" lon="-2.722212">
        <ele>715.3</ele>
        <time>2015-02-22T08:44:30Z</time>
      </trkpt>
      <trkpt lat="40.503707" lon="-2.722135">
        <ele>716.3</ele>
        <time>2015-02-22T08:44:33Z</time>
      </trkpt>
      <trkpt lat="40.503810" lon="-2.722151">
        <ele>715.7</ele>
        <time>2015-02-22T08:44:35Z</time>
      </trkpt>
      <trkpt lat="40.503923" lon="-2.722178">
        <ele>715.1</ele>
        <time>2015-02-22T08:44:37Z</time>
      </trkpt>
      <trkpt lat="40.504014" lon="-2.722210">
        <ele>714.5</ele>
        <time>2015-02-22T08:44:39Z</time>
      </trkpt>
      <trkpt lat="40.504122" lon="-2.722218">
        <ele>714.0</ele>
        <time>2015-02-22T08:44:44Z</time>
      </trkpt>
      <trkpt lat="40.504209" lon="-2.722186">
        <ele>714.4</ele>
        <time>2015-02-22T08:44:47Z</time>
      </trkpt>
      <trkpt lat="40.504305" lon="-2.722132">
        <ele>714.8</ele>
        <time>2015-02-22T08:44:50Z</time>
      </trkpt>
      <trkpt lat="40.504407" lon="-2.722080">
        <ele>715.2</ele>
        <time>2015-02-22T08:44:54Z</time>
      </trkpt>
      <trkpt lat="40.504499" lon="-2.722063">
        <ele>714.9</ele>
        <time>2015-02-22T08:44:58Z</time>
      </trkpt>
      <trkpt lat="40.504602" lon="-2.722031">
        <ele>715.0</ele>
        <time>2015-02-22T08:45:03Z</time>
      </trkpt>
      <trkpt lat="40.504695" lon="-2.721995">
        <ele>714.9</ele>
        <time>2015-02-22T08:45:08Z</time>
      </trkpt>
      <trkpt lat="40.504795" lon="-2.721945">
        <ele>715.1</ele>
        <time>2015-02-22T08:45:12Z</time>
      </trkpt>
      <trkpt lat="40.504880" lon="-2.721900">
        <ele>715.4</ele>
        <time>2015-02-22T08:45:14Z</time>
      </trkpt>
      <trkpt lat="40.504969" lon="-2.721860">
        <ele>715.4</ele>
        <time>2015-02-22T08:45:16Z</time>
      </trkpt>
      <trkpt lat="40.505060" lon="-2.721841">
        <ele>715.0</ele>
        <time>2015-02-22T08:45:19Z</time>
      </trkpt>
      <trkpt lat="40.505163" lon="-2.721865">
        <ele>714.1</ele>
        <time>2015-02-22T08:45:24Z</time>
      </trkpt>
      <trkpt lat="40.505262" lon="-2.721831">
        <ele>714.0</ele>
        <time>2015-02-22T08:45:30Z</time>
      </trkpt>
      <trkpt lat="40.505352" lon="-2.721810">
        <ele>713.8</ele>
        <time>2015-02-22T08:45:37Z</time>
      </trkpt>
      <trkpt lat="40.505442" lon="-2.721782">
        <ele>713.6</ele>
        <time>2015-02-22T08:45:44Z</time>
      </trkpt>
      <trkpt lat="40.505540" lon="-2.721713">
        <ele>713.6</ele>
        <time>2015-02-22T08:46:09Z</time>
      </trkpt>
      <trkpt lat="40.505625" lon="-2.721663">
        <ele>713.5</ele>
        <time>2015-02-22T08:46:12Z</time>
      </trkpt>
      <trkpt lat="40.505747" lon="-2.721598">
        <ele>712.8</ele>
        <time>2015-02-22T08:46:15Z</time>
      </trkpt>
      <trkpt lat="40.505852" lon="-2.721548">
        <ele>712.1</ele>
        <time>2015-02-22T08:46:17Z</time>
      </trkpt>
      <trkpt lat="40.505960" lon="-2.721503">
        <ele>711.2</ele>
        <time>2015-02-22T08:46:19Z</time>
      </trkpt>
      <trkpt lat="40.506048" lon="-2.721480">
        <ele>710.4</ele>
        <time>2015-02-22T08:46:21Z</time>
      </trkpt>
      <trkpt lat="40.506158" lon="-2.721448">
        <ele>709.4</ele>
        <time>2015-02-22T08:46:24Z</time>
      </trkpt>
      <trkpt lat="40.506245" lon="-2.721403">
        <ele>708.7</ele>
        <time>2015-02-22T08:46:26Z</time>
      </trkpt>
      <trkpt lat="40.506332" lon="-2.721348">
        <ele>708.0</ele>
        <time>2015-02-22T08:46:28Z</time>
      </trkpt>
      <trkpt lat="40.506424" lon="-2.721300">
        <ele>707.2</ele>
        <time>2015-02-22T08:46:30Z</time>
      </trkpt>
      <trkpt lat="40.506523" lon="-2.721270">
        <ele>706.3</ele>
        <time>2015-02-22T08:46:32Z</time>
      </trkpt>
      <trkpt lat="40.506632" lon="-2.721217">
        <ele>705.4</ele>
        <time>2015-02-22T08:46:34Z</time>
      </trkpt>
      <trkpt lat="40.506755" lon="-2.721158">
        <ele>705.6</ele>
        <time>2015-02-22T08:46:36Z</time>
      </trkpt>
      <trkpt lat="40.506870" lon="-2.721095">
        <ele>706.2</ele>
        <time>2015-02-22T08:46:38Z</time>
      </trkpt>
      <trkpt lat="40.506972" lon="-2.721040">
        <ele>706.8</ele>
        <time>2015-02-22T08:46:40Z</time>
      </trkpt>
      <trkpt lat="40.507038" lon="-2.720956">
        <ele>707.3</ele>
        <time>2015-02-22T08:46:42Z</time>
      </trkpt>
      <trkpt lat="40.507023" lon="-2.720800">
        <ele>707.9</ele>
        <time>2015-02-22T08:46:45Z</time>
      </trkpt>
      <trkpt lat="40.506977" lon="-2.720668">
        <ele>708.5</ele>
        <time>2015-02-22T08:46:48Z</time>
      </trkpt>
      <trkpt lat="40.506940" lon="-2.720535">
        <ele>709.2</ele>
        <time>2015-02-22T08:46:51Z</time>
      </trkpt>
      <trkpt lat="40.506909" lon="-2.720400">
        <ele>709.9</ele>
        <time>2015-02-22T08:46:54Z</time>
      </trkpt>
      <trkpt lat="40.506879" lon="-2.720261">
        <ele>710.6</ele>
        <time>2015-02-22T08:46:57Z</time>
      </trkpt>
      <trkpt lat="40.506855" lon="-2.720123">
        <ele>711.3</ele>
        <time>2015-02-22T08:47:00Z</time>
      </trkpt>
      <trkpt lat="40.506843" lon="-2.719998">
        <ele>712.1</ele>
        <time>2015-02-22T08:47:03Z</time>
      </trkpt>
      <trkpt lat="40.506830" lon="-2.719865">
        <ele>713.2</ele>
        <time>2015-02-22T08:47:07Z</time>
      </trkpt>
      <trkpt lat="40.506820" lon="-2.719740">
        <ele>714.3</ele>
        <time>2015-02-22T08:47:11Z</time>
      </trkpt>
      <trkpt lat="40.506818" lon="-2.719593">
        <ele>715.6</ele>
        <time>2015-02-22T08:47:15Z</time>
      </trkpt>
      <trkpt lat="40.506923" lon="-2.719516">
        <ele>717.1</ele>
        <time>2015-02-22T08:47:19Z</time>
      </trkpt>
      <trkpt lat="40.507010" lon="-2.719548">
        <ele>717.4</ele>
        <time>2015-02-22T08:47:22Z</time>
      </trkpt>
      <trkpt lat="40.507110" lon="-2.719550">
        <ele>718.2</ele>
        <time>2015-02-22T08:47:26Z</time>
      </trkpt>
      <trkpt lat="40.507190" lon="-2.719615">
        <ele>718.2</ele>
        <time>2015-02-22T08:47:30Z</time>
      </trkpt>
      <trkpt lat="40.507260" lon="-2.719740">
        <ele>717.4</ele>
        <time>2015-02-22T08:47:34Z</time>
      </trkpt>
      <trkpt lat="40.507350" lon="-2.719835">
        <ele>716.9</ele>
        <time>2015-02-22T08:47:38Z</time>
      </trkpt>
      <trkpt lat="40.507435" lon="-2.719880">
        <ele>717.0</ele>
        <time>2015-02-22T08:47:41Z</time>
      </trkpt>
      <trkpt lat="40.507522" lon="-2.719917">
        <ele>717.1</ele>
        <time>2015-02-22T08:47:44Z</time>
      </trkpt>
      <trkpt lat="40.507625" lon="-2.719987">
        <ele>716.9</ele>
        <time>2015-02-22T08:47:48Z</time>
      </trkpt>
      <trkpt lat="40.507703" lon="-2.720060">
        <ele>716.7</ele>
        <time>2015-02-22T08:47:52Z</time>
      </trkpt>
      <trkpt lat="40.507790" lon="-2.720148">
        <ele>716.4</ele>
        <time>2015-02-22T08:47:57Z</time>
      </trkpt>
      <trkpt lat="40.507882" lon="-2.720168">
        <ele>716.7</ele>
        <time>2015-02-22T08:48:01Z</time>
      </trkpt>
      <trkpt lat="40.507982" lon="-2.720146">
        <ele>717.3</ele>
        <time>2015-02-22T08:48:06Z</time>
      </trkpt>
      <trkpt lat="40.508078" lon="-2.720131">
        <ele>718.1</ele>
        <time>2015-02-22T08:48:11Z</time>
      </trkpt>
      <trkpt lat="40.508168" lon="-2.720098">
        <ele>718.9</ele>
        <time>2015-02-22T08:48:16Z</time>
      </trkpt>
      <trkpt lat="40.508273" lon="-2.720136">
        <ele>719.0</ele>
        <time>2015-02-22T08:48:22Z</time>
      </trkpt>
      <trkpt lat="40.508373" lon="-2.720140">
        <ele>719.0</ele>
        <time>2015-02-22T08:48:27Z</time>
      </trkpt>
      <trkpt lat="40.508462" lon="-2.720180">
        <ele>717.9</ele>
        <time>2015-02-22T08:48:32Z</time>
      </trkpt>
      <trkpt lat="40.508570" lon="-2.720203">
        <ele>716.9</ele>
        <time>2015-02-22T08:48:37Z</time>
      </trkpt>
      <trkpt lat="40.508667" lon="-2.720273">
        <ele>715.4</ele>
        <time>2015-02-22T08:48:41Z</time>
      </trkpt>
      <trkpt lat="40.508748" lon="-2.720388">
        <ele>713.5</ele>
        <time>2015-02-22T08:48:45Z</time>
      </trkpt>
      <trkpt lat="40.508860" lon="-2.720428">
        <ele>712.4</ele>
        <time>2015-02-22T08:48:49Z</time>
      </trkpt>
      <trkpt lat="40.508962" lon="-2.720400">
        <ele>712.0</ele>
        <time>2015-02-22T08:48:54Z</time>
      </trkpt>
      <trkpt lat="40.509052" lon="-2.720391">
        <ele>711.5</ele>
        <time>2015-02-22T08:48:58Z</time>
      </trkpt>
      <trkpt lat="40.509159" lon="-2.720376">
        <ele>711.0</ele>
        <time>2015-02-22T08:49:03Z</time>
      </trkpt>
      <trkpt lat="40.509268" lon="-2.720356">
        <ele>710.9</ele>
        <time>2015-02-22T08:49:08Z</time>
      </trkpt>
      <trkpt lat="40.509387" lon="-2.720342">
        <ele>710.7</ele>
        <time>2015-02-22T08:49:12Z</time>
      </trkpt>
      <trkpt lat="40.509522" lon="-2.720360">
        <ele>710.3</ele>
        <time>2015-02-22T08:49:15Z</time>
      </trkpt>
      <trkpt lat="40.509637" lon="-2.720356">
        <ele>710.1</ele>
        <time>2015-02-22T08:49:17Z</time>
      </trkpt>
      <trkpt lat="40.509753" lon="-2.720316">
        <ele>710.2</ele>
        <time>2015-02-22T08:49:19Z</time>
      </trkpt>
      <trkpt lat="40.509848" lon="-2.720275">
        <ele>710.4</ele>
        <time>2015-02-22T08:49:21Z</time>
      </trkpt>
      <trkpt lat="40.509963" lon="-2.720246">
        <ele>710.3</ele>
        <time>2015-02-22T08:49:24Z</time>
      </trkpt>
      <trkpt lat="40.510058" lon="-2.720215">
        <ele>710.4</ele>
        <time>2015-02-22T08:49:27Z</time>
      </trkpt>
      <trkpt lat="40.510155" lon="-2.720187">
        <ele>710.5</ele>
        <time>2015-02-22T08:49:30Z</time>
      </trkpt>
      <trkpt lat="40.510250" lon="-2.720170">
        <ele>710.7</ele>
        <time>2015-02-22T08:49:33Z</time>
      </trkpt>
      <trkpt lat="40.510367" lon="-2.720181">
        <ele>710.5</ele>
        <time>2015-02-22T08:49:37Z</time>
      </trkpt>
      <trkpt lat="40.510457" lon="-2.720207">
        <ele>710.4</ele>
        <time>2015-02-22T08:49:40Z</time>
      </trkpt>
      <trkpt lat="40.510552" lon="-2.720210">
        <ele>710.3</ele>
        <time>2015-02-22T08:49:43Z</time>
      </trkpt>
      <trkpt lat="40.510655" lon="-2.720207">
        <ele>710.3</ele>
        <time>2015-02-22T08:49:46Z</time>
      </trkpt>
      <trkpt lat="40.510758" lon="-2.720217">
        <ele>710.2</ele>
        <time>2015-02-22T08:49:49Z</time>
      </trkpt>
      <trkpt lat="40.510867" lon="-2.720205">
        <ele>710.3</ele>
        <time>2015-02-22T08:49:52Z</time>
      </trkpt>
      <trkpt lat="40.510970" lon="-2.720185">
        <ele>710.3</ele>
        <time>2015-02-22T08:49:55Z</time>
      </trkpt>
      <trkpt lat="40.511068" lon="-2.720146">
        <ele>710.5</ele>
        <time>2015-02-22T08:49:58Z</time>
      </trkpt>
      <trkpt lat="40.511157" lon="-2.720100">
        <ele>710.7</ele>
        <time>2015-02-22T08:50:01Z</time>
      </trkpt>
      <trkpt lat="40.511250" lon="-2.720013">
        <ele>711.0</ele>
        <time>2015-02-22T08:50:05Z</time>
      </trkpt>
      <trkpt lat="40.511347" lon="-2.719936">
        <ele>711.6</ele>
        <time>2015-02-22T08:50:09Z</time>
      </trkpt>
      <trkpt lat="40.511430" lon="-2.719885">
        <ele>712.0</ele>
        <time>2015-02-22T08:50:12Z</time>
      </trkpt>
      <trkpt lat="40.511513" lon="-2.719831">
        <ele>712.4</ele>
        <time>2015-02-22T08:50:15Z</time>
      </trkpt>
      <trkpt lat="40.511595" lon="-2.719775">
        <ele>712.7</ele>
        <time>2015-02-22T08:50:18Z</time>
      </trkpt>
      <trkpt lat="40.511680" lon="-2.719716">
        <ele>713.0</ele>
        <time>2015-02-22T08:50:21Z</time>
      </trkpt>
      <trkpt lat="40.511770" lon="-2.719667">
        <ele>713.3</ele>
        <time>2015-02-22T08:50:24Z</time>
      </trkpt>
      <trkpt lat="40.511858" lon="-2.719625">
        <ele>713.5</ele>
        <time>2015-02-22T08:50:27Z</time>
      </trkpt>
      <trkpt lat="40.511942" lon="-2.719573">
        <ele>713.8</ele>
        <time>2015-02-22T08:50:30Z</time>
      </trkpt>
      <trkpt lat="40.512037" lon="-2.719480">
        <ele>714.6</ele>
        <time>2015-02-22T08:50:34Z</time>
      </trkpt>
      <trkpt lat="40.512114" lon="-2.719378">
        <ele>715.3</ele>
        <time>2015-02-22T08:50:38Z</time>
      </trkpt>
      <trkpt lat="40.512213" lon="-2.719330">
        <ele>715.6</ele>
        <time>2015-02-22T08:50:42Z</time>
      </trkpt>
      <trkpt lat="40.512328" lon="-2.719315">
        <ele>715.7</ele>
        <time>2015-02-22T08:50:46Z</time>
      </trkpt>
      <trkpt lat="40.512440" lon="-2.719280">
        <ele>716.0</ele>
        <time>2015-02-22T08:50:50Z</time>
      </trkpt>
      <trkpt lat="40.512550" lon="-2.719243">
        <ele>716.1</ele>
        <time>2015-02-22T08:50:54Z</time>
      </trkpt>
      <trkpt lat="40.512660" lon="-2.719207">
        <ele>715.9</ele>
        <time>2015-02-22T08:50:58Z</time>
      </trkpt>
      <trkpt lat="40.512772" lon="-2.719175">
        <ele>715.6</ele>
        <time>2015-02-22T08:51:02Z</time>
      </trkpt>
      <trkpt lat="40.512882" lon="-2.719115">
        <ele>715.5</ele>
        <time>2015-02-22T08:51:06Z</time>
      </trkpt>
      <trkpt lat="40.512977" lon="-2.719066">
        <ele>715.3</ele>
        <time>2015-02-22T08:51:10Z</time>
      </trkpt>
      <trkpt lat="40.513093" lon="-2.719093">
        <ele>714.6</ele>
        <time>2015-02-22T08:51:14Z</time>
      </trkpt>
      <trkpt lat="40.513187" lon="-2.719136">
        <ele>713.9</ele>
        <time>2015-02-22T08:51:17Z</time>
      </trkpt>
      <trkpt lat="40.513290" lon="-2.719183">
        <ele>713.1</ele>
        <time>2015-02-22T08:51:20Z</time>
      </trkpt>
      <trkpt lat="40.513377" lon="-2.719241">
        <ele>712.7</ele>
        <time>2015-02-22T08:51:22Z</time>
      </trkpt>
      <trkpt lat="40.513464" lon="-2.719322">
        <ele>712.3</ele>
        <time>2015-02-22T08:51:24Z</time>
      </trkpt>
      <trkpt lat="40.513538" lon="-2.719410">
        <ele>712.0</ele>
        <time>2015-02-22T08:51:26Z</time>
      </trkpt>
      <trkpt lat="40.513600" lon="-2.719505">
        <ele>711.7</ele>
        <time>2015-02-22T08:51:28Z</time>
      </trkpt>
      <trkpt lat="40.513695" lon="-2.719622">
        <ele>711.4</ele>
        <time>2015-02-22T08:51:31Z</time>
      </trkpt>
      <trkpt lat="40.513802" lon="-2.719720">
        <ele>711.2</ele>
        <time>2015-02-22T08:51:34Z</time>
      </trkpt>
      <trkpt lat="40.513915" lon="-2.719716">
        <ele>711.2</ele>
        <time>2015-02-22T08:51:37Z</time>
      </trkpt>
      <trkpt lat="40.514027" lon="-2.719672">
        <ele>711.4</ele>
        <time>2015-02-22T08:51:40Z</time>
      </trkpt>
      <trkpt lat="40.514144" lon="-2.719625">
        <ele>711.4</ele>
        <time>2015-02-22T08:51:43Z</time>
      </trkpt>
      <trkpt lat="40.514235" lon="-2.719566">
        <ele>711.1</ele>
        <time>2015-02-22T08:51:45Z</time>
      </trkpt>
      <trkpt lat="40.514320" lon="-2.719471">
        <ele>710.8</ele>
        <time>2015-02-22T08:51:47Z</time>
      </trkpt>
      <trkpt lat="40.514402" lon="-2.719363">
        <ele>710.6</ele>
        <time>2015-02-22T08:51:49Z</time>
      </trkpt>
      <trkpt lat="40.514490" lon="-2.719280">
        <ele>710.2</ele>
        <time>2015-02-22T08:51:51Z</time>
      </trkpt>
      <trkpt lat="40.514572" lon="-2.719230">
        <ele>709.9</ele>
        <time>2015-02-22T08:51:53Z</time>
      </trkpt>
      <trkpt lat="40.514673" lon="-2.719158">
        <ele>709.6</ele>
        <time>2015-02-22T08:51:57Z</time>
      </trkpt>
      <trkpt lat="40.514750" lon="-2.719066">
        <ele>710.0</ele>
        <time>2015-02-22T08:52:01Z</time>
      </trkpt>
      <trkpt lat="40.514790" lon="-2.718951">
        <ele>710.9</ele>
        <time>2015-02-22T08:52:05Z</time>
      </trkpt>
      <trkpt lat="40.514782" lon="-2.718801">
        <ele>712.3</ele>
        <time>2015-02-22T08:52:09Z</time>
      </trkpt>
      <trkpt lat="40.514770" lon="-2.718675">
        <ele>713.3</ele>
        <time>2015-02-22T08:52:12Z</time>
      </trkpt>
      <trkpt lat="40.514768" lon="-2.718553">
        <ele>714.5</ele>
        <time>2015-02-22T08:52:15Z</time>
      </trkpt>
      <trkpt lat="40.514812" lon="-2.718435">
        <ele>715.6</ele>
        <time>2015-02-22T08:52:19Z</time>
      </trkpt>
      <trkpt lat="40.514872" lon="-2.718343">
        <ele>716.6</ele>
        <time>2015-02-22T08:52:23Z</time>
      </trkpt>
      <trkpt lat="40.514917" lon="-2.718230">
        <ele>717.4</ele>
        <time>2015-02-22T08:52:27Z</time>
      </trkpt>
      <trkpt lat="40.514917" lon="-2.718092">
        <ele>718.2</ele>
        <time>2015-02-22T08:52:32Z</time>
      </trkpt>
      <trkpt lat="40.514905" lon="-2.717952">
        <ele>719.0</ele>
        <time>2015-02-22T08:52:37Z</time>
      </trkpt>
      <trkpt lat="40.514935" lon="-2.717828">
        <ele>719.8</ele>
        <time>2015-02-22T08:52:41Z</time>
      </trkpt>
      <trkpt lat="40.515025" lon="-2.717733">
        <ele>720.8</ele>
        <time>2015-02-22T08:52:45Z</time>
      </trkpt>
      <trkpt lat="40.515113" lon="-2.717660">
        <ele>722.0</ele>
        <time>2015-02-22T08:52:47Z</time>
      </trkpt>
      <trkpt lat="40.515223" lon="-2.717600">
        <ele>723.4</ele>
        <time>2015-02-22T08:52:49Z</time>
      </trkpt>
      <trkpt lat="40.515318" lon="-2.717540">
        <ele>724.8</ele>
        <time>2015-02-22T08:52:51Z</time>
      </trkpt>
      <trkpt lat="40.515402" lon="-2.717586">
        <ele>725.1</ele>
        <time>2015-02-22T08:52:54Z</time>
      </trkpt>
      <trkpt lat="40.515457" lon="-2.717706">
        <ele>724.6</ele>
        <time>2015-02-22T08:52:58Z</time>
      </trkpt>
      <trkpt lat="40.515370" lon="-2.717816">
        <ele>722.9</ele>
        <time>2015-02-22T08:53:02Z</time>
      </trkpt>
      <trkpt lat="40.515313" lon="-2.717967">
        <ele>721.4</ele>
        <time>2015-02-22T08:53:05Z</time>
      </trkpt>
      <trkpt lat="40.515295" lon="-2.718087">
        <ele>720.3</ele>
        <time>2015-02-22T08:53:07Z</time>
      </trkpt>
      <trkpt lat="40.515313" lon="-2.718203">
        <ele>719.5</ele>
        <time>2015-02-22T08:53:09Z</time>
      </trkpt>
      <trkpt lat="40.515338" lon="-2.718351">
        <ele>718.4</ele>
        <time>2015-02-22T08:53:12Z</time>
      </trkpt>
      <trkpt lat="40.515387" lon="-2.718485">
        <ele>717.3</ele>
        <time>2015-02-22T08:53:16Z</time>
      </trkpt>
      <trkpt lat="40.515447" lon="-2.718611">
        <ele>716.2</ele>
        <time>2015-02-22T08:53:20Z</time>
      </trkpt>
      <trkpt lat="40.515533" lon="-2.718670">
        <ele>716.2</ele>
        <time>2015-02-22T08:53:24Z</time>
      </trkpt>
      <trkpt lat="40.515632" lon="-2.718680">
        <ele>716.6</ele>
        <time>2015-02-22T08:53:28Z</time>
      </trkpt>
      <trkpt lat="40.515730" lon="-2.718695">
        <ele>717.0</ele>
        <time>2015-02-22T08:53:32Z</time>
      </trkpt>
      <trkpt lat="40.515832" lon="-2.718710">
        <ele>717.4</ele>
        <time>2015-02-22T08:53:36Z</time>
      </trkpt>
      <trkpt lat="40.515937" lon="-2.718736">
        <ele>717.1</ele>
        <time>2015-02-22T08:53:40Z</time>
      </trkpt>
      <trkpt lat="40.516039" lon="-2.718770">
        <ele>716.7</ele>
        <time>2015-02-22T08:53:44Z</time>
      </trkpt>
      <trkpt lat="40.516125" lon="-2.718808">
        <ele>716.3</ele>
        <time>2015-02-22T08:53:48Z</time>
      </trkpt>
      <trkpt lat="40.516223" lon="-2.718858">
        <ele>715.7</ele>
        <time>2015-02-22T08:53:52Z</time>
      </trkpt>
      <trkpt lat="40.516322" lon="-2.718916">
        <ele>715.1</ele>
        <time>2015-02-22T08:53:56Z</time>
      </trkpt>
      <trkpt lat="40.516417" lon="-2.718975">
        <ele>714.4</ele>
        <time>2015-02-22T08:54:00Z</time>
      </trkpt>
      <trkpt lat="40.516518" lon="-2.719018">
        <ele>713.8</ele>
        <time>2015-02-22T08:54:04Z</time>
      </trkpt>
      <trkpt lat="40.516635" lon="-2.719048">
        <ele>713.4</ele>
        <time>2015-02-22T08:54:08Z</time>
      </trkpt>
      <trkpt lat="40.516734" lon="-2.719065">
        <ele>712.9</ele>
        <time>2015-02-22T08:54:11Z</time>
      </trkpt>
      <trkpt lat="40.516824" lon="-2.719080">
        <ele>712.6</ele>
        <time>2015-02-22T08:54:14Z</time>
      </trkpt>
      <trkpt lat="40.516940" lon="-2.719090">
        <ele>712.3</ele>
        <time>2015-02-22T08:54:18Z</time>
      </trkpt>
      <trkpt lat="40.517054" lon="-2.719087">
        <ele>712.0</ele>
        <time>2015-02-22T08:54:22Z</time>
      </trkpt>
      <trkpt lat="40.517165" lon="-2.719087">
        <ele>711.7</ele>
        <time>2015-02-22T08:54:26Z</time>
      </trkpt>
      <trkpt lat="40.517267" lon="-2.719077">
        <ele>711.6</ele>
        <time>2015-02-22T08:54:30Z</time>
      </trkpt>
      <trkpt lat="40.517369" lon="-2.719063">
        <ele>711.6</ele>
        <time>2015-02-22T08:54:34Z</time>
      </trkpt>
      <trkpt lat="40.517465" lon="-2.719021">
        <ele>711.8</ele>
        <time>2015-02-22T08:54:38Z</time>
      </trkpt>
      <trkpt lat="40.517537" lon="-2.718918">
        <ele>712.9</ele>
        <time>2015-02-22T08:54:43Z</time>
      </trkpt>
      <trkpt lat="40.517629" lon="-2.718885">
        <ele>713.2</ele>
        <time>2015-02-22T08:54:48Z</time>
      </trkpt>
      <trkpt lat="40.517715" lon="-2.718951">
        <ele>712.4</ele>
        <time>2015-02-22T08:54:52Z</time>
      </trkpt>
      <trkpt lat="40.517815" lon="-2.718970">
        <ele>712.3</ele>
        <time>2015-02-22T08:54:56Z</time>
      </trkpt>
      <trkpt lat="40.517912" lon="-2.718918">
        <ele>712.7</ele>
        <time>2015-02-22T08:55:01Z</time>
      </trkpt>
      <trkpt lat="40.518003" lon="-2.718915">
        <ele>712.7</ele>
        <time>2015-02-22T08:55:05Z</time>
      </trkpt>
      <trkpt lat="40.518105" lon="-2.718858">
        <ele>713.0</ele>
        <time>2015-02-22T08:55:09Z</time>
      </trkpt>
      <trkpt lat="40.518238" lon="-2.718835">
        <ele>713.1</ele>
        <time>2015-02-22T08:55:12Z</time>
      </trkpt>
      <trkpt lat="40.518333" lon="-2.718801">
        <ele>713.2</ele>
        <time>2015-02-22T08:55:14Z</time>
      </trkpt>
      <trkpt lat="40.518453" lon="-2.718777">
        <ele>713.5</ele>
        <time>2015-02-22T08:55:17Z</time>
      </trkpt>
      <trkpt lat="40.518553" lon="-2.718777">
        <ele>713.6</ele>
        <time>2015-02-22T08:55:20Z</time>
      </trkpt>
      <trkpt lat="40.518643" lon="-2.718816">
        <ele>713.4</ele>
        <time>2015-02-22T08:55:23Z</time>
      </trkpt>
      <trkpt lat="40.518737" lon="-2.718835">
        <ele>713.2</ele>
        <time>2015-02-22T08:55:26Z</time>
      </trkpt>
      <trkpt lat="40.518844" lon="-2.718828">
        <ele>713.4</ele>
        <time>2015-02-22T08:55:29Z</time>
      </trkpt>
      <trkpt lat="40.518952" lon="-2.718808">
        <ele>713.6</ele>
        <time>2015-02-22T08:55:32Z</time>
      </trkpt>
      <trkpt lat="40.519069" lon="-2.718772">
        <ele>714.1</ele>
        <time>2015-02-22T08:55:35Z</time>
      </trkpt>
      <trkpt lat="40.519184" lon="-2.718738">
        <ele>714.6</ele>
        <time>2015-02-22T08:55:38Z</time>
      </trkpt>
      <trkpt lat="40.519307" lon="-2.718691">
        <ele>714.9</ele>
        <time>2015-02-22T08:55:41Z</time>
      </trkpt>
      <trkpt lat="40.519405" lon="-2.718645">
        <ele>715.3</ele>
        <time>2015-02-22T08:55:44Z</time>
      </trkpt>
      <trkpt lat="40.519505" lon="-2.718625">
        <ele>715.3</ele>
        <time>2015-02-22T08:55:47Z</time>
      </trkpt>
      <trkpt lat="40.519600" lon="-2.718633">
        <ele>715.1</ele>
        <time>2015-02-22T08:55:50Z</time>
      </trkpt>
      <trkpt lat="40.519705" lon="-2.718618">
        <ele>715.1</ele>
        <time>2015-02-22T08:55:54Z</time>
      </trkpt>
      <trkpt lat="40.519802" lon="-2.718575">
        <ele>715.2</ele>
        <time>2015-02-22T08:55:58Z</time>
      </trkpt>
      <trkpt lat="40.519897" lon="-2.718565">
        <ele>715.1</ele>
        <time>2015-02-22T08:56:02Z</time>
      </trkpt>
      <trkpt lat="40.519980" lon="-2.718611">
        <ele>714.7</ele>
        <time>2015-02-22T08:57:44Z</time>
      </trkpt>
      <trkpt lat="40.520070" lon="-2.718591">
        <ele>714.7</ele>
        <time>2015-02-22T08:57:49Z</time>
      </trkpt>
      <trkpt lat="40.520169" lon="-2.718535">
        <ele>714.9</ele>
        <time>2015-02-22T08:57:54Z</time>
      </trkpt>
      <trkpt lat="40.520262" lon="-2.718523">
        <ele>715.0</ele>
        <time>2015-02-22T08:57:58Z</time>
      </trkpt>
      <trkpt lat="40.520367" lon="-2.718523">
        <ele>714.9</ele>
        <time>2015-02-22T08:58:02Z</time>
      </trkpt>
      <trkpt lat="40.520477" lon="-2.718527">
        <ele>714.9</ele>
        <time>2015-02-22T08:58:05Z</time>
      </trkpt>
      <trkpt lat="40.520593" lon="-2.718527">
        <ele>714.9</ele>
        <time>2015-02-22T08:58:08Z</time>
      </trkpt>
      <trkpt lat="40.520730" lon="-2.718530">
        <ele>714.8</ele>
        <time>2015-02-22T08:58:11Z</time>
      </trkpt>
      <trkpt lat="40.520854" lon="-2.718523">
        <ele>714.7</ele>
        <time>2015-02-22T08:58:13Z</time>
      </trkpt>
      <trkpt lat="40.520989" lon="-2.718550">
        <ele>714.4</ele>
        <time>2015-02-22T08:58:15Z</time>
      </trkpt>
      <trkpt lat="40.521120" lon="-2.718610">
        <ele>713.9</ele>
        <time>2015-02-22T08:58:17Z</time>
      </trkpt>
      <trkpt lat="40.521243" lon="-2.718658">
        <ele>713.5</ele>
        <time>2015-02-22T08:58:19Z</time>
      </trkpt>
      <trkpt lat="40.521352" lon="-2.718660">
        <ele>713.1</ele>
        <time>2015-02-22T08:58:21Z</time>
      </trkpt>
      <trkpt lat="40.521442" lon="-2.718571">
        <ele>713.4</ele>
        <time>2015-02-22T08:58:24Z</time>
      </trkpt>
      <trkpt lat="40.521539" lon="-2.718506">
        <ele>713.7</ele>
        <time>2015-02-22T08:58:28Z</time>
      </trkpt>
      <trkpt lat="40.521619" lon="-2.718445">
        <ele>714.1</ele>
        <time>2015-02-22T08:58:31Z</time>
      </trkpt>
      <trkpt lat="40.521735" lon="-2.718442">
        <ele>713.8</ele>
        <time>2015-02-22T08:58:35Z</time>
      </trkpt>
      <trkpt lat="40.521823" lon="-2.718418">
        <ele>713.8</ele>
        <time>2015-02-22T08:58:38Z</time>
      </trkpt>
      <trkpt lat="40.521917" lon="-2.718363">
        <ele>714.0</ele>
        <time>2015-02-22T08:58:42Z</time>
      </trkpt>
      <trkpt lat="40.522010" lon="-2.718315">
        <ele>714.3</ele>
        <time>2015-02-22T08:58:46Z</time>
      </trkpt>
      <trkpt lat="40.522112" lon="-2.718297">
        <ele>714.2</ele>
        <time>2015-02-22T08:58:50Z</time>
      </trkpt>
      <trkpt lat="40.522209" lon="-2.718303">
        <ele>714.0</ele>
        <time>2015-02-22T08:58:53Z</time>
      </trkpt>
      <trkpt lat="40.522317" lon="-2.718308">
        <ele>713.7</ele>
        <time>2015-02-22T08:58:56Z</time>
      </trkpt>
      <trkpt lat="40.522407" lon="-2.718281">
        <ele>713.8</ele>
        <time>2015-02-22T08:58:58Z</time>
      </trkpt>
      <trkpt lat="40.522512" lon="-2.718248">
        <ele>713.9</ele>
        <time>2015-02-22T08:59:00Z</time>
      </trkpt>
      <trkpt lat="40.522620" lon="-2.718220">
        <ele>713.6</ele>
        <time>2015-02-22T08:59:02Z</time>
      </trkpt>
      <trkpt lat="40.522713" lon="-2.718198">
        <ele>713.3</ele>
        <time>2015-02-22T08:59:04Z</time>
      </trkpt>
      <trkpt lat="40.522815" lon="-2.718193">
        <ele>712.8</ele>
        <time>2015-02-22T08:59:07Z</time>
      </trkpt>
      <trkpt lat="40.522907" lon="-2.718177">
        <ele>712.5</ele>
        <time>2015-02-22T08:59:10Z</time>
      </trkpt>
      <trkpt lat="40.522997" lon="-2.718175">
        <ele>711.9</ele>
        <time>2015-02-22T08:59:13Z</time>
      </trkpt>
      <trkpt lat="40.523102" lon="-2.718141">
        <ele>711.5</ele>
        <time>2015-02-22T08:59:17Z</time>
      </trkpt>
      <trkpt lat="40.523219" lon="-2.718146">
        <ele>710.8</ele>
        <time>2015-02-22T08:59:21Z</time>
      </trkpt>
      <trkpt lat="40.523340" lon="-2.718131">
        <ele>710.2</ele>
        <time>2015-02-22T08:59:25Z</time>
      </trkpt>
      <trkpt lat="40.523448" lon="-2.718055">
        <ele>711.2</ele>
        <time>2015-02-22T08:59:28Z</time>
      </trkpt>
      <trkpt lat="40.523520" lon="-2.717968">
        <ele>712.0</ele>
        <time>2015-02-22T08:59:30Z</time>
      </trkpt>
      <trkpt lat="40.523587" lon="-2.717878">
        <ele>712.8</ele>
        <time>2015-02-22T08:59:32Z</time>
      </trkpt>
      <trkpt lat="40.523657" lon="-2.717798">
        <ele>713.5</ele>
        <time>2015-02-22T08:59:34Z</time>
      </trkpt>
      <trkpt lat="40.523759" lon="-2.717710">
        <ele>714.4</ele>
        <time>2015-02-22T08:59:37Z</time>
      </trkpt>
      <trkpt lat="40.523852" lon="-2.717615">
        <ele>715.3</ele>
        <time>2015-02-22T08:59:40Z</time>
      </trkpt>
      <trkpt lat="40.523945" lon="-2.717517">
        <ele>716.1</ele>
        <time>2015-02-22T08:59:43Z</time>
      </trkpt>
      <trkpt lat="40.524043" lon="-2.717417">
        <ele>716.9</ele>
        <time>2015-02-22T08:59:46Z</time>
      </trkpt>
      <trkpt lat="40.524137" lon="-2.717333">
        <ele>717.7</ele>
        <time>2015-02-22T08:59:49Z</time>
      </trkpt>
      <trkpt lat="40.524153" lon="-2.717471">
        <ele>717.1</ele>
        <time>2015-02-22T08:59:54Z</time>
      </trkpt>
      <trkpt lat="40.524107" lon="-2.717601">
        <ele>716.3</ele>
        <time>2015-02-22T08:59:57Z</time>
      </trkpt>
      <trkpt lat="40.524048" lon="-2.717743">
        <ele>715.3</ele>
        <time>2015-02-22T09:00:00Z</time>
      </trkpt>
      <trkpt lat="40.523985" lon="-2.717880">
        <ele>714.4</ele>
        <time>2015-02-22T09:00:03Z</time>
      </trkpt>
      <trkpt lat="40.523940" lon="-2.718025">
        <ele>713.5</ele>
        <time>2015-02-22T09:00:06Z</time>
      </trkpt>
      <trkpt lat="40.523900" lon="-2.718171">
        <ele>712.5</ele>
        <time>2015-02-22T09:00:09Z</time>
      </trkpt>
      <trkpt lat="40.523964" lon="-2.718303">
        <ele>712.2</ele>
        <time>2015-02-22T09:00:12Z</time>
      </trkpt>
      <trkpt lat="40.524052" lon="-2.718348">
        <ele>712.5</ele>
        <time>2015-02-22T09:00:14Z</time>
      </trkpt>
      <trkpt lat="40.524160" lon="-2.718388">
        <ele>713.1</ele>
        <time>2015-02-22T09:00:16Z</time>
      </trkpt>
      <trkpt lat="40.524253" lon="-2.718476">
        <ele>714.1</ele>
        <time>2015-02-22T09:00:18Z</time>
      </trkpt>
      <trkpt lat="40.524335" lon="-2.718535">
        <ele>714.9</ele>
        <time>2015-02-22T09:00:21Z</time>
      </trkpt>
      <trkpt lat="40.524435" lon="-2.718552">
        <ele>715.8</ele>
        <time>2015-02-22T09:00:25Z</time>
      </trkpt>
      <trkpt lat="40.524534" lon="-2.718558">
        <ele>716.6</ele>
        <time>2015-02-22T09:00:30Z</time>
      </trkpt>
      <trkpt lat="40.524632" lon="-2.718603">
        <ele>717.4</ele>
        <time>2015-02-22T09:00:36Z</time>
      </trkpt>
      <trkpt lat="40.524685" lon="-2.718725">
        <ele>717.8</ele>
        <time>2015-02-22T09:00:41Z</time>
      </trkpt>
      <trkpt lat="40.524703" lon="-2.718842">
        <ele>717.8</ele>
        <time>2015-02-22T09:00:45Z</time>
      </trkpt>
      <trkpt lat="40.524725" lon="-2.718970">
        <ele>717.8</ele>
        <time>2015-02-22T09:00:49Z</time>
      </trkpt>
      <trkpt lat="40.524760" lon="-2.719103">
        <ele>717.9</ele>
        <time>2015-02-22T09:00:54Z</time>
      </trkpt>
      <trkpt lat="40.524802" lon="-2.719212">
        <ele>717.6</ele>
        <time>2015-02-22T09:00:59Z</time>
      </trkpt>
      <trkpt lat="40.524848" lon="-2.719330">
        <ele>716.7</ele>
        <time>2015-02-22T09:01:05Z</time>
      </trkpt>
      <trkpt lat="40.524925" lon="-2.719413">
        <ele>716.1</ele>
        <time>2015-02-22T09:01:11Z</time>
      </trkpt>
      <trkpt lat="40.525028" lon="-2.719423">
        <ele>716.2</ele>
        <time>2015-02-22T09:01:17Z</time>
      </trkpt>
      <trkpt lat="40.525125" lon="-2.719418">
        <ele>716.2</ele>
        <time>2015-02-22T09:01:22Z</time>
      </trkpt>
      <trkpt lat="40.525225" lon="-2.719422">
        <ele>716.3</ele>
        <time>2015-02-22T09:01:27Z</time>
      </trkpt>
      <trkpt lat="40.525320" lon="-2.719428">
        <ele>716.3</ele>
        <time>2015-02-22T09:01:31Z</time>
      </trkpt>
      <trkpt lat="40.525412" lon="-2.719473">
        <ele>715.9</ele>
        <time>2015-02-22T09:01:35Z</time>
      </trkpt>
      <trkpt lat="40.525488" lon="-2.719557">
        <ele>715.3</ele>
        <time>2015-02-22T09:01:38Z</time>
      </trkpt>
      <trkpt lat="40.525580" lon="-2.719635">
        <ele>714.8</ele>
        <time>2015-02-22T09:01:40Z</time>
      </trkpt>
      <trkpt lat="40.525693" lon="-2.719700">
        <ele>714.5</ele>
        <time>2015-02-22T09:01:42Z</time>
      </trkpt>
      <trkpt lat="40.525797" lon="-2.719760">
        <ele>714.3</ele>
        <time>2015-02-22T09:01:44Z</time>
      </trkpt>
      <trkpt lat="40.525889" lon="-2.719800">
        <ele>714.2</ele>
        <time>2015-02-22T09:01:46Z</time>
      </trkpt>
      <trkpt lat="40.525987" lon="-2.719811">
        <ele>714.1</ele>
        <time>2015-02-22T09:01:49Z</time>
      </trkpt>
      <trkpt lat="40.526085" lon="-2.719836">
        <ele>713.9</ele>
        <time>2015-02-22T09:01:53Z</time>
      </trkpt>
      <trkpt lat="40.526180" lon="-2.719847">
        <ele>713.9</ele>
        <time>2015-02-22T09:01:56Z</time>
      </trkpt>
      <trkpt lat="40.526293" lon="-2.719843">
        <ele>713.9</ele>
        <time>2015-02-22T09:01:59Z</time>
      </trkpt>
      <trkpt lat="40.526400" lon="-2.719848">
        <ele>713.9</ele>
        <time>2015-02-22T09:02:02Z</time>
      </trkpt>
      <trkpt lat="40.526505" lon="-2.719873">
        <ele>713.7</ele>
        <time>2015-02-22T09:02:05Z</time>
      </trkpt>
      <trkpt lat="40.526607" lon="-2.719908">
        <ele>713.5</ele>
        <time>2015-02-22T09:02:08Z</time>
      </trkpt>
      <trkpt lat="40.526705" lon="-2.719930">
        <ele>713.3</ele>
        <time>2015-02-22T09:02:11Z</time>
      </trkpt>
      <trkpt lat="40.526797" lon="-2.719960">
        <ele>712.9</ele>
        <time>2015-02-22T09:02:14Z</time>
      </trkpt>
      <trkpt lat="40.526875" lon="-2.720025">
        <ele>712.3</ele>
        <time>2015-02-22T09:02:17Z</time>
      </trkpt>
      <trkpt lat="40.526953" lon="-2.720086">
        <ele>711.7</ele>
        <time>2015-02-22T09:02:20Z</time>
      </trkpt>
      <trkpt lat="40.527040" lon="-2.720123">
        <ele>711.2</ele>
        <time>2015-02-22T09:02:23Z</time>
      </trkpt>
      <trkpt lat="40.527150" lon="-2.720155">
        <ele>710.8</ele>
        <time>2015-02-22T09:02:27Z</time>
      </trkpt>
      <trkpt lat="40.527263" lon="-2.720146">
        <ele>710.6</ele>
        <time>2015-02-22T09:02:31Z</time>
      </trkpt>
      <trkpt lat="40.527365" lon="-2.720115">
        <ele>710.6</ele>
        <time>2015-02-22T09:02:35Z</time>
      </trkpt>
      <trkpt lat="40.527469" lon="-2.720082">
        <ele>710.5</ele>
        <time>2015-02-22T09:02:39Z</time>
      </trkpt>
      <trkpt lat="40.527577" lon="-2.719997">
        <ele>710.5</ele>
        <time>2015-02-22T09:02:43Z</time>
      </trkpt>
      <trkpt lat="40.527684" lon="-2.719915">
        <ele>710.2</ele>
        <time>2015-02-22T09:02:46Z</time>
      </trkpt>
      <trkpt lat="40.527797" lon="-2.719828">
        <ele>710.0</ele>
        <time>2015-02-22T09:02:49Z</time>
      </trkpt>
      <trkpt lat="40.527885" lon="-2.719790">
        <ele>709.7</ele>
        <time>2015-02-22T09:02:51Z</time>
      </trkpt>
      <trkpt lat="40.527969" lon="-2.719738">
        <ele>709.5</ele>
        <time>2015-02-22T09:02:53Z</time>
      </trkpt>
      <trkpt lat="40.528075" lon="-2.719650">
        <ele>709.4</ele>
        <time>2015-02-22T09:02:56Z</time>
      </trkpt>
      <trkpt lat="40.528188" lon="-2.719580">
        <ele>709.2</ele>
        <time>2015-02-22T09:02:59Z</time>
      </trkpt>
      <trkpt lat="40.528303" lon="-2.719527">
        <ele>708.9</ele>
        <time>2015-02-22T09:03:02Z</time>
      </trkpt>
      <trkpt lat="40.528413" lon="-2.719500">
        <ele>709.1</ele>
        <time>2015-02-22T09:03:05Z</time>
      </trkpt>
      <trkpt lat="40.528520" lon="-2.719478">
        <ele>709.5</ele>
        <time>2015-02-22T09:03:08Z</time>
      </trkpt>
      <trkpt lat="40.528615" lon="-2.719470">
        <ele>709.8</ele>
        <time>2015-02-22T09:03:11Z</time>
      </trkpt>
      <trkpt lat="40.528708" lon="-2.719443">
        <ele>710.2</ele>
        <time>2015-02-22T09:03:14Z</time>
      </trkpt>
      <trkpt lat="40.528800" lon="-2.719378">
        <ele>710.9</ele>
        <time>2015-02-22T09:03:17Z</time>
      </trkpt>
      <trkpt lat="40.528870" lon="-2.719265">
        <ele>712.1</ele>
        <time>2015-02-22T09:03:20Z</time>
      </trkpt>
      <trkpt lat="40.528905" lon="-2.719143">
        <ele>713.2</ele>
        <time>2015-02-22T09:03:23Z</time>
      </trkpt>
      <trkpt lat="40.528963" lon="-2.719048">
        <ele>714.8</ele>
        <time>2015-02-22T09:03:26Z</time>
      </trkpt>
      <trkpt lat="40.529055" lon="-2.718972">
        <ele>716.3</ele>
        <time>2015-02-22T09:03:29Z</time>
      </trkpt>
      <trkpt lat="40.529149" lon="-2.718911">
        <ele>717.5</ele>
        <time>2015-02-22T09:03:33Z</time>
      </trkpt>
      <trkpt lat="40.529240" lon="-2.718865">
        <ele>718.1</ele>
        <time>2015-02-22T09:03:37Z</time>
      </trkpt>
      <trkpt lat="40.529337" lon="-2.718845">
        <ele>717.9</ele>
        <time>2015-02-22T09:03:41Z</time>
      </trkpt>
      <trkpt lat="40.529442" lon="-2.718847">
        <ele>717.5</ele>
        <time>2015-02-22T09:03:45Z</time>
      </trkpt>
      <trkpt lat="40.529547" lon="-2.718857">
        <ele>717.0</ele>
        <time>2015-02-22T09:03:49Z</time>
      </trkpt>
      <trkpt lat="40.529647" lon="-2.718893">
        <ele>716.4</ele>
        <time>2015-02-22T09:03:53Z</time>
      </trkpt>
      <trkpt lat="40.529752" lon="-2.718928">
        <ele>715.7</ele>
        <time>2015-02-22T09:03:57Z</time>
      </trkpt>
      <trkpt lat="40.529848" lon="-2.718985">
        <ele>714.9</ele>
        <time>2015-02-22T09:04:01Z</time>
      </trkpt>
      <trkpt lat="40.529934" lon="-2.719043">
        <ele>714.1</ele>
        <time>2015-02-22T09:04:04Z</time>
      </trkpt>
      <trkpt lat="40.530020" lon="-2.719092">
        <ele>713.5</ele>
        <time>2015-02-22T09:04:07Z</time>
      </trkpt>
      <trkpt lat="40.530109" lon="-2.719117">
        <ele>713.3</ele>
        <time>2015-02-22T09:04:10Z</time>
      </trkpt>
      <trkpt lat="40.530213" lon="-2.719155">
        <ele>712.8</ele>
        <time>2015-02-22T09:04:14Z</time>
      </trkpt>
      <trkpt lat="40.530325" lon="-2.719166">
        <ele>712.6</ele>
        <time>2015-02-22T09:04:18Z</time>
      </trkpt>
      <trkpt lat="40.530443" lon="-2.719192">
        <ele>712.3</ele>
        <time>2015-02-22T09:04:22Z</time>
      </trkpt>
      <trkpt lat="40.530538" lon="-2.719210">
        <ele>712.0</ele>
        <time>2015-02-22T09:04:25Z</time>
      </trkpt>
      <trkpt lat="40.530638" lon="-2.719185">
        <ele>712.0</ele>
        <time>2015-02-22T09:04:28Z</time>
      </trkpt>
      <trkpt lat="40.530740" lon="-2.719126">
        <ele>712.2</ele>
        <time>2015-02-22T09:04:31Z</time>
      </trkpt>
      <trkpt lat="40.530840" lon="-2.719041">
        <ele>712.1</ele>
        <time>2015-02-22T09:04:34Z</time>
      </trkpt>
      <trkpt lat="40.530945" lon="-2.718965">
        <ele>712.1</ele>
        <time>2015-02-22T09:04:37Z</time>
      </trkpt>
      <trkpt lat="40.531052" lon="-2.718883">
        <ele>712.0</ele>
        <time>2015-02-22T09:04:40Z</time>
      </trkpt>
      <trkpt lat="40.531165" lon="-2.718813">
        <ele>711.9</ele>
        <time>2015-02-22T09:04:43Z</time>
      </trkpt>
      <trkpt lat="40.531287" lon="-2.718748">
        <ele>711.7</ele>
        <time>2015-02-22T09:04:46Z</time>
      </trkpt>
      <trkpt lat="40.531402" lon="-2.718678">
        <ele>711.5</ele>
        <time>2015-02-22T09:04:49Z</time>
      </trkpt>
      <trkpt lat="40.531503" lon="-2.718596">
        <ele>711.3</ele>
        <time>2015-02-22T09:04:52Z</time>
      </trkpt>
      <trkpt lat="40.531602" lon="-2.718510">
        <ele>711.1</ele>
        <time>2015-02-22T09:04:55Z</time>
      </trkpt>
      <trkpt lat="40.531685" lon="-2.718403">
        <ele>710.9</ele>
        <time>2015-02-22T09:04:58Z</time>
      </trkpt>
      <trkpt lat="40.531758" lon="-2.718286">
        <ele>710.7</ele>
        <time>2015-02-22T09:05:01Z</time>
      </trkpt>
      <trkpt lat="40.531843" lon="-2.718185">
        <ele>710.9</ele>
        <time>2015-02-22T09:05:04Z</time>
      </trkpt>
      <trkpt lat="40.531937" lon="-2.718098">
        <ele>710.9</ele>
        <time>2015-02-22T09:05:07Z</time>
      </trkpt>
      <trkpt lat="40.532037" lon="-2.718036">
        <ele>710.6</ele>
        <time>2015-02-22T09:05:10Z</time>
      </trkpt>
      <trkpt lat="40.532134" lon="-2.717985">
        <ele>710.2</ele>
        <time>2015-02-22T09:05:13Z</time>
      </trkpt>
      <trkpt lat="40.532222" lon="-2.717895">
        <ele>710.3</ele>
        <time>2015-02-22T09:05:17Z</time>
      </trkpt>
      <trkpt lat="40.532277" lon="-2.717796">
        <ele>710.6</ele>
        <time>2015-02-22T09:05:21Z</time>
      </trkpt>
      <trkpt lat="40.532377" lon="-2.717743">
        <ele>710.2</ele>
        <time>2015-02-22T09:05:26Z</time>
      </trkpt>
      <trkpt lat="40.532485" lon="-2.717722">
        <ele>709.5</ele>
        <time>2015-02-22T09:05:31Z</time>
      </trkpt>
      <trkpt lat="40.532589" lon="-2.717688">
        <ele>708.9</ele>
        <time>2015-02-22T09:05:35Z</time>
      </trkpt>
      <trkpt lat="40.532702" lon="-2.717655">
        <ele>708.1</ele>
        <time>2015-02-22T09:05:39Z</time>
      </trkpt>
      <trkpt lat="40.532787" lon="-2.717606">
        <ele>707.5</ele>
        <time>2015-02-22T09:05:42Z</time>
      </trkpt>
      <trkpt lat="40.532872" lon="-2.717503">
        <ele>706.9</ele>
        <time>2015-02-22T09:05:46Z</time>
      </trkpt>
      <trkpt lat="40.532914" lon="-2.717390">
        <ele>707.6</ele>
        <time>2015-02-22T09:05:49Z</time>
      </trkpt>
      <trkpt lat="40.532952" lon="-2.717275">
        <ele>708.3</ele>
        <time>2015-02-22T09:05:52Z</time>
      </trkpt>
      <trkpt lat="40.533002" lon="-2.717160">
        <ele>708.9</ele>
        <time>2015-02-22T09:05:55Z</time>
      </trkpt>
      <trkpt lat="40.533085" lon="-2.717066">
        <ele>708.7</ele>
        <time>2015-02-22T09:05:58Z</time>
      </trkpt>
      <trkpt lat="40.533202" lon="-2.717035">
        <ele>707.5</ele>
        <time>2015-02-22T09:06:01Z</time>
      </trkpt>
      <trkpt lat="40.533307" lon="-2.716950">
        <ele>706.9</ele>
        <time>2015-02-22T09:06:04Z</time>
      </trkpt>
      <trkpt lat="40.533384" lon="-2.716858">
        <ele>707.3</ele>
        <time>2015-02-22T09:06:07Z</time>
      </trkpt>
      <trkpt lat="40.533474" lon="-2.716796">
        <ele>707.6</ele>
        <time>2015-02-22T09:06:11Z</time>
      </trkpt>
      <trkpt lat="40.533565" lon="-2.716745">
        <ele>707.7</ele>
        <time>2015-02-22T09:06:15Z</time>
      </trkpt>
      <trkpt lat="40.533673" lon="-2.716733">
        <ele>707.4</ele>
        <time>2015-02-22T09:06:19Z</time>
      </trkpt>
      <trkpt lat="40.533770" lon="-2.716728">
        <ele>707.2</ele>
        <time>2015-02-22T09:06:22Z</time>
      </trkpt>
      <trkpt lat="40.533865" lon="-2.716720">
        <ele>706.9</ele>
        <time>2015-02-22T09:06:25Z</time>
      </trkpt>
      <trkpt lat="40.533970" lon="-2.716676">
        <ele>706.7</ele>
        <time>2015-02-22T09:06:28Z</time>
      </trkpt>
      <trkpt lat="40.534083" lon="-2.716615">
        <ele>706.6</ele>
        <time>2015-02-22T09:06:31Z</time>
      </trkpt>
      <trkpt lat="40.534200" lon="-2.716535">
        <ele>706.6</ele>
        <time>2015-02-22T09:06:34Z</time>
      </trkpt>
      <trkpt lat="40.534265" lon="-2.716448">
        <ele>706.7</ele>
        <time>2015-02-22T09:06:36Z</time>
      </trkpt>
      <trkpt lat="40.534312" lon="-2.716293">
        <ele>707.5</ele>
        <time>2015-02-22T09:06:39Z</time>
      </trkpt>
      <trkpt lat="40.534328" lon="-2.716150">
        <ele>708.4</ele>
        <time>2015-02-22T09:06:42Z</time>
      </trkpt>
      <trkpt lat="40.534375" lon="-2.716021">
        <ele>709.2</ele>
        <time>2015-02-22T09:06:45Z</time>
      </trkpt>
      <trkpt lat="40.534437" lon="-2.715900">
        <ele>709.9</ele>
        <time>2015-02-22T09:06:48Z</time>
      </trkpt>
      <trkpt lat="40.534489" lon="-2.715785">
        <ele>710.5</ele>
        <time>2015-02-22T09:06:51Z</time>
      </trkpt>
      <trkpt lat="40.534540" lon="-2.715681">
        <ele>711.2</ele>
        <time>2015-02-22T09:06:54Z</time>
      </trkpt>
      <trkpt lat="40.534624" lon="-2.715593">
        <ele>711.7</ele>
        <time>2015-02-22T09:06:59Z</time>
      </trkpt>
      <trkpt lat="40.534717" lon="-2.715571">
        <ele>711.7</ele>
        <time>2015-02-22T09:07:03Z</time>
      </trkpt>
      <trkpt lat="40.534829" lon="-2.715556">
        <ele>711.4</ele>
        <time>2015-02-22T09:07:07Z</time>
      </trkpt>
      <trkpt lat="40.534919" lon="-2.715525">
        <ele>711.4</ele>
        <time>2015-02-22T09:07:10Z</time>
      </trkpt>
      <trkpt lat="40.535010" lon="-2.715476">
        <ele>711.5</ele>
        <time>2015-02-22T09:07:13Z</time>
      </trkpt>
      <trkpt lat="40.535130" lon="-2.715432">
        <ele>711.9</ele>
        <time>2015-02-22T09:07:16Z</time>
      </trkpt>
      <trkpt lat="40.535237" lon="-2.715405">
        <ele>712.1</ele>
        <time>2015-02-22T09:07:18Z</time>
      </trkpt>
      <trkpt lat="40.535347" lon="-2.715393">
        <ele>712.1</ele>
        <time>2015-02-22T09:07:20Z</time>
      </trkpt>
      <trkpt lat="40.535457" lon="-2.715397">
        <ele>712.1</ele>
        <time>2015-02-22T09:07:22Z</time>
      </trkpt>
      <trkpt lat="40.535552" lon="-2.715415">
        <ele>712.0</ele>
        <time>2015-02-22T09:07:24Z</time>
      </trkpt>
      <trkpt lat="40.535662" lon="-2.715430">
        <ele>711.9</ele>
        <time>2015-02-22T09:07:27Z</time>
      </trkpt>
      <trkpt lat="40.535760" lon="-2.715437">
        <ele>711.8</ele>
        <time>2015-02-22T09:07:30Z</time>
      </trkpt>
      <trkpt lat="40.535857" lon="-2.715446">
        <ele>711.8</ele>
        <time>2015-02-22T09:07:33Z</time>
      </trkpt>
      <trkpt lat="40.535969" lon="-2.715445">
        <ele>712.4</ele>
        <time>2015-02-22T09:07:37Z</time>
      </trkpt>
      <trkpt lat="40.536082" lon="-2.715445">
        <ele>713.0</ele>
        <time>2015-02-22T09:07:41Z</time>
      </trkpt>
      <trkpt lat="40.536195" lon="-2.715430">
        <ele>713.7</ele>
        <time>2015-02-22T09:07:45Z</time>
      </trkpt>
      <trkpt lat="40.536302" lon="-2.715368">
        <ele>714.5</ele>
        <time>2015-02-22T09:07:48Z</time>
      </trkpt>
      <trkpt lat="40.536409" lon="-2.715273">
        <ele>715.6</ele>
        <time>2015-02-22T09:07:51Z</time>
      </trkpt>
      <trkpt lat="40.536522" lon="-2.715226">
        <ele>716.3</ele>
        <time>2015-02-22T09:07:54Z</time>
      </trkpt>
      <trkpt lat="40.536640" lon="-2.715218">
        <ele>716.8</ele>
        <time>2015-02-22T09:07:57Z</time>
      </trkpt>
      <trkpt lat="40.536747" lon="-2.715195">
        <ele>717.2</ele>
        <time>2015-02-22T09:08:00Z</time>
      </trkpt>
      <trkpt lat="40.536844" lon="-2.715225">
        <ele>717.2</ele>
        <time>2015-02-22T09:08:03Z</time>
      </trkpt>
      <trkpt lat="40.536937" lon="-2.715245">
        <ele>717.3</ele>
        <time>2015-02-22T09:08:06Z</time>
      </trkpt>
      <trkpt lat="40.537024" lon="-2.715287">
        <ele>717.2</ele>
        <time>2015-02-22T09:08:09Z</time>
      </trkpt>
      <trkpt lat="40.537113" lon="-2.715282">
        <ele>717.3</ele>
        <time>2015-02-22T09:08:12Z</time>
      </trkpt>
      <trkpt lat="40.537225" lon="-2.715233">
        <ele>717.8</ele>
        <time>2015-02-22T09:08:15Z</time>
      </trkpt>
      <trkpt lat="40.537337" lon="-2.715175">
        <ele>718.4</ele>
        <time>2015-02-22T09:08:18Z</time>
      </trkpt>
      <trkpt lat="40.537437" lon="-2.715126">
        <ele>718.9</ele>
        <time>2015-02-22T09:08:21Z</time>
      </trkpt>
      <trkpt lat="40.537533" lon="-2.715097">
        <ele>719.0</ele>
        <time>2015-02-22T09:08:24Z</time>
      </trkpt>
      <trkpt lat="40.537629" lon="-2.715072">
        <ele>718.5</ele>
        <time>2015-02-22T09:08:27Z</time>
      </trkpt>
      <trkpt lat="40.537739" lon="-2.715072">
        <ele>717.7</ele>
        <time>2015-02-22T09:08:30Z</time>
      </trkpt>
      <trkpt lat="40.537842" lon="-2.715063">
        <ele>717.1</ele>
        <time>2015-02-22T09:08:33Z</time>
      </trkpt>
      <trkpt lat="40.537935" lon="-2.715116">
        <ele>716.1</ele>
        <time>2015-02-22T09:08:38Z</time>
      </trkpt>
      <trkpt lat="40.538027" lon="-2.715068">
        <ele>715.7</ele>
        <time>2015-02-22T09:08:42Z</time>
      </trkpt>
      <trkpt lat="40.538128" lon="-2.715068">
        <ele>715.0</ele>
        <time>2015-02-22T09:08:47Z</time>
      </trkpt>
      <trkpt lat="40.538240" lon="-2.715092">
        <ele>714.1</ele>
        <time>2015-02-22T09:08:52Z</time>
      </trkpt>
      <trkpt lat="40.538343" lon="-2.715101">
        <ele>713.3</ele>
        <time>2015-02-22T09:08:57Z</time>
      </trkpt>
      <trkpt lat="40.538437" lon="-2.715110">
        <ele>712.9</ele>
        <time>2015-02-22T09:09:01Z</time>
      </trkpt>
      <trkpt lat="40.538534" lon="-2.715057">
        <ele>712.9</ele>
        <time>2015-02-22T09:09:18Z</time>
      </trkpt>
      <trkpt lat="40.538642" lon="-2.714995">
        <ele>712.9</ele>
        <time>2015-02-22T09:09:22Z</time>
      </trkpt>
      <trkpt lat="40.538762" lon="-2.714921">
        <ele>712.9</ele>
        <time>2015-02-22T09:09:25Z</time>
      </trkpt>
      <trkpt lat="40.538859" lon="-2.714876">
        <ele>712.8</ele>
        <time>2015-02-22T09:09:27Z</time>
      </trkpt>
      <trkpt lat="40.538962" lon="-2.714832">
        <ele>712.8</ele>
        <time>2015-02-22T09:09:29Z</time>
      </trkpt>
      <trkpt lat="40.539059" lon="-2.714796">
        <ele>712.6</ele>
        <time>2015-02-22T09:09:31Z</time>
      </trkpt>
      <trkpt lat="40.539147" lon="-2.714770">
        <ele>712.4</ele>
        <time>2015-02-22T09:09:33Z</time>
      </trkpt>
      <trkpt lat="40.539244" lon="-2.714753">
        <ele>712.5</ele>
        <time>2015-02-22T09:09:36Z</time>
      </trkpt>
      <trkpt lat="40.539338" lon="-2.714732">
        <ele>712.5</ele>
        <time>2015-02-22T09:09:40Z</time>
      </trkpt>
      <trkpt lat="40.539430" lon="-2.714745">
        <ele>712.4</ele>
        <time>2015-02-22T09:09:44Z</time>
      </trkpt>
      <trkpt lat="40.539512" lon="-2.714798">
        <ele>712.2</ele>
        <time>2015-02-22T09:09:48Z</time>
      </trkpt>
      <trkpt lat="40.539607" lon="-2.714750">
        <ele>712.4</ele>
        <time>2015-02-22T09:09:53Z</time>
      </trkpt>
      <trkpt lat="40.539702" lon="-2.714725">
        <ele>712.4</ele>
        <time>2015-02-22T09:09:57Z</time>
      </trkpt>
      <trkpt lat="40.539822" lon="-2.714696">
        <ele>712.5</ele>
        <time>2015-02-22T09:10:01Z</time>
      </trkpt>
      <trkpt lat="40.539929" lon="-2.714657">
        <ele>712.5</ele>
        <time>2015-02-22T09:10:04Z</time>
      </trkpt>
      <trkpt lat="40.540035" lon="-2.714621">
        <ele>712.3</ele>
        <time>2015-02-22T09:10:07Z</time>
      </trkpt>
      <trkpt lat="40.540142" lon="-2.714608">
        <ele>712.0</ele>
        <time>2015-02-22T09:10:10Z</time>
      </trkpt>
      <trkpt lat="40.540263" lon="-2.714592">
        <ele>711.7</ele>
        <time>2015-02-22T09:10:13Z</time>
      </trkpt>
      <trkpt lat="40.540387" lon="-2.714585">
        <ele>711.3</ele>
        <time>2015-02-22T09:10:16Z</time>
      </trkpt>
      <trkpt lat="40.540497" lon="-2.714518">
        <ele>711.1</ele>
        <time>2015-02-22T09:10:19Z</time>
      </trkpt>
      <trkpt lat="40.540573" lon="-2.714453">
        <ele>711.0</ele>
        <time>2015-02-22T09:10:21Z</time>
      </trkpt>
      <trkpt lat="40.540687" lon="-2.714361">
        <ele>710.9</ele>
        <time>2015-02-22T09:10:24Z</time>
      </trkpt>
      <trkpt lat="40.540744" lon="-2.714216">
        <ele>711.1</ele>
        <time>2015-02-22T09:10:27Z</time>
      </trkpt>
      <trkpt lat="40.540795" lon="-2.714101">
        <ele>710.9</ele>
        <time>2015-02-22T09:10:30Z</time>
      </trkpt>
      <trkpt lat="40.540767" lon="-2.713965">
        <ele>710.7</ele>
        <time>2015-02-22T09:10:34Z</time>
      </trkpt>
      <trkpt lat="40.540698" lon="-2.713870">
        <ele>710.7</ele>
        <time>2015-02-22T09:10:37Z</time>
      </trkpt>
      <trkpt lat="40.540645" lon="-2.713767">
        <ele>710.7</ele>
        <time>2015-02-22T09:10:40Z</time>
      </trkpt>
      <trkpt lat="40.540603" lon="-2.713660">
        <ele>710.7</ele>
        <time>2015-02-22T09:10:43Z</time>
      </trkpt>
      <trkpt lat="40.540575" lon="-2.713546">
        <ele>710.6</ele>
        <time>2015-02-22T09:10:46Z</time>
      </trkpt>
      <trkpt lat="40.540609" lon="-2.713423">
        <ele>710.2</ele>
        <time>2015-02-22T09:10:50Z</time>
      </trkpt>
      <trkpt lat="40.540703" lon="-2.713350">
        <ele>709.7</ele>
        <time>2015-02-22T09:10:54Z</time>
      </trkpt>
      <trkpt lat="40.540810" lon="-2.713313">
        <ele>709.2</ele>
        <time>2015-02-22T09:10:58Z</time>
      </trkpt>
      <trkpt lat="40.540898" lon="-2.713228">
        <ele>709.3</ele>
        <time>2015-02-22T09:11:02Z</time>
      </trkpt>
      <trkpt lat="40.540997" lon="-2.713165">
        <ele>709.5</ele>
        <time>2015-02-22T09:11:06Z</time>
      </trkpt>
      <trkpt lat="40.541084" lon="-2.713116">
        <ele>709.7</ele>
        <time>2015-02-22T09:11:09Z</time>
      </trkpt>
      <trkpt lat="40.541212" lon="-2.713032">
        <ele>710.1</ele>
        <time>2015-02-22T09:11:12Z</time>
      </trkpt>
      <trkpt lat="40.541319" lon="-2.712957">
        <ele>710.6</ele>
        <time>2015-02-22T09:11:14Z</time>
      </trkpt>
      <trkpt lat="40.541422" lon="-2.712848">
        <ele>711.3</ele>
        <time>2015-02-22T09:11:16Z</time>
      </trkpt>
      <trkpt lat="40.541535" lon="-2.712765">
        <ele>711.9</ele>
        <time>2015-02-22T09:11:18Z</time>
      </trkpt>
      <trkpt lat="40.541654" lon="-2.712710">
        <ele>712.5</ele>
        <time>2015-02-22T09:11:20Z</time>
      </trkpt>
      <trkpt lat="40.541760" lon="-2.712678">
        <ele>712.7</ele>
        <time>2015-02-22T09:11:22Z</time>
      </trkpt>
      <trkpt lat="40.541850" lon="-2.712648">
        <ele>712.9</ele>
        <time>2015-02-22T09:11:24Z</time>
      </trkpt>
      <trkpt lat="40.541955" lon="-2.712592">
        <ele>713.2</ele>
        <time>2015-02-22T09:11:27Z</time>
      </trkpt>
      <trkpt lat="40.542050" lon="-2.712525">
        <ele>713.4</ele>
        <time>2015-02-22T09:11:32Z</time>
      </trkpt>
      <trkpt lat="40.542149" lon="-2.712523">
        <ele>713.3</ele>
        <time>2015-02-22T09:11:36Z</time>
      </trkpt>
      <trkpt lat="40.542255" lon="-2.712453">
        <ele>713.3</ele>
        <time>2015-02-22T09:11:40Z</time>
      </trkpt>
      <trkpt lat="40.542334" lon="-2.712365">
        <ele>713.2</ele>
        <time>2015-02-22T09:11:43Z</time>
      </trkpt>
      <trkpt lat="40.542405" lon="-2.712288">
        <ele>713.0</ele>
        <time>2015-02-22T09:11:46Z</time>
      </trkpt>
      <trkpt lat="40.542470" lon="-2.712201">
        <ele>712.8</ele>
        <time>2015-02-22T09:11:49Z</time>
      </trkpt>
      <trkpt lat="40.542517" lon="-2.712095">
        <ele>712.5</ele>
        <time>2015-02-22T09:11:52Z</time>
      </trkpt>
      <trkpt lat="40.542573" lon="-2.711957">
        <ele>712.1</ele>
        <time>2015-02-22T09:11:56Z</time>
      </trkpt>
      <trkpt lat="40.542630" lon="-2.711856">
        <ele>711.7</ele>
        <time>2015-02-22T09:11:59Z</time>
      </trkpt>
      <trkpt lat="40.542732" lon="-2.711766">
        <ele>711.1</ele>
        <time>2015-02-22T09:12:03Z</time>
      </trkpt>
      <trkpt lat="40.542807" lon="-2.711660">
        <ele>710.5</ele>
        <time>2015-02-22T09:12:06Z</time>
      </trkpt>
      <trkpt lat="40.542850" lon="-2.711538">
        <ele>710.3</ele>
        <time>2015-02-22T09:12:09Z</time>
      </trkpt>
      <trkpt lat="40.542875" lon="-2.711388">
        <ele>710.2</ele>
        <time>2015-02-22T09:12:12Z</time>
      </trkpt>
      <trkpt lat="40.542902" lon="-2.711247">
        <ele>710.1</ele>
        <time>2015-02-22T09:12:15Z</time>
      </trkpt>
      <trkpt lat="40.542945" lon="-2.711116">
        <ele>709.8</ele>
        <time>2015-02-22T09:12:18Z</time>
      </trkpt>
      <trkpt lat="40.543007" lon="-2.711026">
        <ele>709.4</ele>
        <time>2015-02-22T09:12:21Z</time>
      </trkpt>
      <trkpt lat="40.543107" lon="-2.710948">
        <ele>708.7</ele>
        <time>2015-02-22T09:12:24Z</time>
      </trkpt>
      <trkpt lat="40.543222" lon="-2.710853">
        <ele>707.8</ele>
        <time>2015-02-22T09:12:27Z</time>
      </trkpt>
      <trkpt lat="40.543302" lon="-2.710783">
        <ele>707.6</ele>
        <time>2015-02-22T09:12:29Z</time>
      </trkpt>
      <trkpt lat="40.543382" lon="-2.710720">
        <ele>707.7</ele>
        <time>2015-02-22T09:12:31Z</time>
      </trkpt>
      <trkpt lat="40.543487" lon="-2.710640">
        <ele>708.1</ele>
        <time>2015-02-22T09:12:34Z</time>
      </trkpt>
      <trkpt lat="40.543578" lon="-2.710582">
        <ele>708.1</ele>
        <time>2015-02-22T09:12:37Z</time>
      </trkpt>
      <trkpt lat="40.543680" lon="-2.710502">
        <ele>708.3</ele>
        <time>2015-02-22T09:12:40Z</time>
      </trkpt>
      <trkpt lat="40.543749" lon="-2.710387">
        <ele>708.6</ele>
        <time>2015-02-22T09:12:43Z</time>
      </trkpt>
      <trkpt lat="40.543812" lon="-2.710277">
        <ele>708.9</ele>
        <time>2015-02-22T09:12:46Z</time>
      </trkpt>
      <trkpt lat="40.543909" lon="-2.710228">
        <ele>708.6</ele>
        <time>2015-02-22T09:12:49Z</time>
      </trkpt>
      <trkpt lat="40.544007" lon="-2.710177">
        <ele>708.4</ele>
        <time>2015-02-22T09:12:52Z</time>
      </trkpt>
      <trkpt lat="40.544102" lon="-2.710100">
        <ele>708.1</ele>
        <time>2015-02-22T09:12:55Z</time>
      </trkpt>
      <trkpt lat="40.544160" lon="-2.709991">
        <ele>708.0</ele>
        <time>2015-02-22T09:12:58Z</time>
      </trkpt>
      <trkpt lat="40.544182" lon="-2.709863">
        <ele>708.6</ele>
        <time>2015-02-22T09:13:02Z</time>
      </trkpt>
      <trkpt lat="40.544219" lon="-2.709746">
        <ele>709.1</ele>
        <time>2015-02-22T09:13:07Z</time>
      </trkpt>
      <trkpt lat="40.544317" lon="-2.709707">
        <ele>709.1</ele>
        <time>2015-02-22T09:13:11Z</time>
      </trkpt>
      <trkpt lat="40.544402" lon="-2.709660">
        <ele>709.2</ele>
        <time>2015-02-22T09:13:14Z</time>
      </trkpt>
      <trkpt lat="40.544478" lon="-2.709577">
        <ele>709.4</ele>
        <time>2015-02-22T09:13:17Z</time>
      </trkpt>
      <trkpt lat="40.544547" lon="-2.709478">
        <ele>709.9</ele>
        <time>2015-02-22T09:13:20Z</time>
      </trkpt>
      <trkpt lat="40.544612" lon="-2.709350">
        <ele>710.5</ele>
        <time>2015-02-22T09:13:23Z</time>
      </trkpt>
      <trkpt lat="40.544675" lon="-2.709213">
        <ele>711.1</ele>
        <time>2015-02-22T09:13:26Z</time>
      </trkpt>
      <trkpt lat="40.544742" lon="-2.709088">
        <ele>711.4</ele>
        <time>2015-02-22T09:13:29Z</time>
      </trkpt>
      <trkpt lat="40.544799" lon="-2.708953">
        <ele>711.7</ele>
        <time>2015-02-22T09:13:32Z</time>
      </trkpt>
      <trkpt lat="40.544835" lon="-2.708800">
        <ele>712.1</ele>
        <time>2015-02-22T09:13:35Z</time>
      </trkpt>
      <trkpt lat="40.544875" lon="-2.708658">
        <ele>712.5</ele>
        <time>2015-02-22T09:13:38Z</time>
      </trkpt>
      <trkpt lat="40.544905" lon="-2.708530">
        <ele>713.0</ele>
        <time>2015-02-22T09:13:41Z</time>
      </trkpt>
      <trkpt lat="40.544927" lon="-2.708403">
        <ele>713.4</ele>
        <time>2015-02-22T09:13:44Z</time>
      </trkpt>
      <trkpt lat="40.544953" lon="-2.708282">
        <ele>713.9</ele>
        <time>2015-02-22T09:13:47Z</time>
      </trkpt>
      <trkpt lat="40.544997" lon="-2.708162">
        <ele>714.4</ele>
        <time>2015-02-22T09:13:50Z</time>
      </trkpt>
      <trkpt lat="40.545058" lon="-2.708047">
        <ele>714.1</ele>
        <time>2015-02-22T09:13:53Z</time>
      </trkpt>
      <trkpt lat="40.545127" lon="-2.707925">
        <ele>713.5</ele>
        <time>2015-02-22T09:13:56Z</time>
      </trkpt>
      <trkpt lat="40.545183" lon="-2.707797">
        <ele>713.0</ele>
        <time>2015-02-22T09:13:59Z</time>
      </trkpt>
      <trkpt lat="40.545224" lon="-2.707665">
        <ele>712.6</ele>
        <time>2015-02-22T09:14:02Z</time>
      </trkpt>
      <trkpt lat="40.545243" lon="-2.707540">
        <ele>712.5</ele>
        <time>2015-02-22T09:14:05Z</time>
      </trkpt>
      <trkpt lat="40.545263" lon="-2.707395">
        <ele>712.2</ele>
        <time>2015-02-22T09:14:09Z</time>
      </trkpt>
      <trkpt lat="40.545243" lon="-2.707275">
        <ele>712.3</ele>
        <time>2015-02-22T09:14:13Z</time>
      </trkpt>
      <trkpt lat="40.545232" lon="-2.707153">
        <ele>712.4</ele>
        <time>2015-02-22T09:14:18Z</time>
      </trkpt>
      <trkpt lat="40.545225" lon="-2.707030">
        <ele>712.4</ele>
        <time>2015-02-22T09:14:23Z</time>
      </trkpt>
      <trkpt lat="40.545255" lon="-2.706897">
        <ele>712.0</ele>
        <time>2015-02-22T09:14:28Z</time>
      </trkpt>
      <trkpt lat="40.545297" lon="-2.706771">
        <ele>711.5</ele>
        <time>2015-02-22T09:14:33Z</time>
      </trkpt>
      <trkpt lat="40.545339" lon="-2.706660">
        <ele>711.2</ele>
        <time>2015-02-22T09:14:38Z</time>
      </trkpt>
      <trkpt lat="40.545400" lon="-2.706548">
        <ele>710.6</ele>
        <time>2015-02-22T09:14:44Z</time>
      </trkpt>
      <trkpt lat="40.545500" lon="-2.706490">
        <ele>709.8</ele>
        <time>2015-02-22T09:14:48Z</time>
      </trkpt>
      <trkpt lat="40.545582" lon="-2.706435">
        <ele>709.2</ele>
        <time>2015-02-22T09:14:50Z</time>
      </trkpt>
      <trkpt lat="40.545674" lon="-2.706363">
        <ele>708.7</ele>
        <time>2015-02-22T09:14:52Z</time>
      </trkpt>
      <trkpt lat="40.545755" lon="-2.706290">
        <ele>708.4</ele>
        <time>2015-02-22T09:14:54Z</time>
      </trkpt>
      <trkpt lat="40.545808" lon="-2.706155">
        <ele>708.3</ele>
        <time>2015-02-22T09:14:57Z</time>
      </trkpt>
      <trkpt lat="40.545785" lon="-2.706025">
        <ele>708.7</ele>
        <time>2015-02-22T09:15:00Z</time>
      </trkpt>
      <trkpt lat="40.545730" lon="-2.705920">
        <ele>709.1</ele>
        <time>2015-02-22T09:15:03Z</time>
      </trkpt>
      <trkpt lat="40.545685" lon="-2.705771">
        <ele>709.6</ele>
        <time>2015-02-22T09:15:07Z</time>
      </trkpt>
      <trkpt lat="40.545767" lon="-2.705646">
        <ele>710.2</ele>
        <time>2015-02-22T09:15:10Z</time>
      </trkpt>
      <trkpt lat="40.545865" lon="-2.705616">
        <ele>710.5</ele>
        <time>2015-02-22T09:15:12Z</time>
      </trkpt>
      <trkpt lat="40.545969" lon="-2.705583">
        <ele>711.5</ele>
        <time>2015-02-22T09:15:14Z</time>
      </trkpt>
      <trkpt lat="40.546070" lon="-2.705487">
        <ele>712.8</ele>
        <time>2015-02-22T09:15:16Z</time>
      </trkpt>
      <trkpt lat="40.546152" lon="-2.705365">
        <ele>714.1</ele>
        <time>2015-02-22T09:15:18Z</time>
      </trkpt>
      <trkpt lat="40.546227" lon="-2.705270">
        <ele>715.0</ele>
        <time>2015-02-22T09:15:20Z</time>
      </trkpt>
      <trkpt lat="40.546335" lon="-2.705271">
        <ele>715.8</ele>
        <time>2015-02-22T09:15:23Z</time>
      </trkpt>
      <trkpt lat="40.546427" lon="-2.705330">
        <ele>716.1</ele>
        <time>2015-02-22T09:15:26Z</time>
      </trkpt>
      <trkpt lat="40.546525" lon="-2.705405">
        <ele>716.5</ele>
        <time>2015-02-22T09:15:29Z</time>
      </trkpt>
      <trkpt lat="40.546620" lon="-2.705465">
        <ele>717.0</ele>
        <time>2015-02-22T09:15:32Z</time>
      </trkpt>
      <trkpt lat="40.546710" lon="-2.705515">
        <ele>717.0</ele>
        <time>2015-02-22T09:15:36Z</time>
      </trkpt>
      <trkpt lat="40.546807" lon="-2.705578">
        <ele>716.4</ele>
        <time>2015-02-22T09:15:41Z</time>
      </trkpt>
      <trkpt lat="40.546905" lon="-2.705605">
        <ele>715.9</ele>
        <time>2015-02-22T09:15:47Z</time>
      </trkpt>
      <trkpt lat="40.546992" lon="-2.705552">
        <ele>715.8</ele>
        <time>2015-02-22T09:15:53Z</time>
      </trkpt>
      <trkpt lat="40.547087" lon="-2.705606">
        <ele>715.2</ele>
        <time>2015-02-22T09:16:00Z</time>
      </trkpt>
      <trkpt lat="40.547175" lon="-2.705546">
        <ele>715.2</ele>
        <time>2015-02-22T09:16:07Z</time>
      </trkpt>
      <trkpt lat="40.547262" lon="-2.705505">
        <ele>715.2</ele>
        <time>2015-02-22T09:16:13Z</time>
      </trkpt>
      <trkpt lat="40.547365" lon="-2.705487">
        <ele>714.9</ele>
        <time>2015-02-22T09:16:19Z</time>
      </trkpt>
      <trkpt lat="40.547465" lon="-2.705463">
        <ele>714.7</ele>
        <time>2015-02-22T09:16:25Z</time>
      </trkpt>
      <trkpt lat="40.547569" lon="-2.705431">
        <ele>714.2</ele>
        <time>2015-02-22T09:16:31Z</time>
      </trkpt>
      <trkpt lat="40.547655" lon="-2.705380">
        <ele>713.5</ele>
        <time>2015-02-22T09:16:36Z</time>
      </trkpt>
      <trkpt lat="40.547742" lon="-2.705310">
        <ele>712.9</ele>
        <time>2015-02-22T09:16:41Z</time>
      </trkpt>
      <trkpt lat="40.547820" lon="-2.705215">
        <ele>712.4</ele>
        <time>2015-02-22T09:16:46Z</time>
      </trkpt>
      <trkpt lat="40.547902" lon="-2.705135">
        <ele>711.7</ele>
        <time>2015-02-22T09:16:51Z</time>
      </trkpt>
      <trkpt lat="40.547970" lon="-2.705056">
        <ele>711.0</ele>
        <time>2015-02-22T09:16:55Z</time>
      </trkpt>
      <trkpt lat="40.548042" lon="-2.704965">
        <ele>710.3</ele>
        <time>2015-02-22T09:16:59Z</time>
      </trkpt>
      <trkpt lat="40.548102" lon="-2.704853">
        <ele>710.4</ele>
        <time>2015-02-22T09:17:03Z</time>
      </trkpt>
      <trkpt lat="40.548085" lon="-2.704703">
        <ele>711.6</ele>
        <time>2015-02-22T09:17:07Z</time>
      </trkpt>
      <trkpt lat="40.548037" lon="-2.704583">
        <ele>713.0</ele>
        <time>2015-02-22T09:17:10Z</time>
      </trkpt>
      <trkpt lat="40.548002" lon="-2.704452">
        <ele>714.2</ele>
        <time>2015-02-22T09:17:13Z</time>
      </trkpt>
      <trkpt lat="40.547960" lon="-2.704330">
        <ele>715.2</ele>
        <time>2015-02-22T09:17:16Z</time>
      </trkpt>
      <trkpt lat="40.547914" lon="-2.704218">
        <ele>716.2</ele>
        <time>2015-02-22T09:17:19Z</time>
      </trkpt>
      <trkpt lat="40.547885" lon="-2.704100">
        <ele>716.8</ele>
        <time>2015-02-22T09:17:22Z</time>
      </trkpt>
      <trkpt lat="40.547897" lon="-2.703950">
        <ele>717.0</ele>
        <time>2015-02-22T09:17:26Z</time>
      </trkpt>
      <trkpt lat="40.547942" lon="-2.703812">
        <ele>717.0</ele>
        <time>2015-02-22T09:17:30Z</time>
      </trkpt>
      <trkpt lat="40.548010" lon="-2.703705">
        <ele>716.8</ele>
        <time>2015-02-22T09:17:33Z</time>
      </trkpt>
      <trkpt lat="40.548092" lon="-2.703592">
        <ele>716.6</ele>
        <time>2015-02-22T09:17:36Z</time>
      </trkpt>
      <trkpt lat="40.548134" lon="-2.703475">
        <ele>716.7</ele>
        <time>2015-02-22T09:17:39Z</time>
      </trkpt>
      <trkpt lat="40.548160" lon="-2.703355">
        <ele>716.8</ele>
        <time>2015-02-22T09:17:43Z</time>
      </trkpt>
      <trkpt lat="40.548192" lon="-2.703215">
        <ele>717.1</ele>
        <time>2015-02-22T09:17:48Z</time>
      </trkpt>
      <trkpt lat="40.548204" lon="-2.703083">
        <ele>717.5</ele>
        <time>2015-02-22T09:17:53Z</time>
      </trkpt>
      <trkpt lat="40.548215" lon="-2.702940">
        <ele>717.9</ele>
        <time>2015-02-22T09:17:58Z</time>
      </trkpt>
      <trkpt lat="40.548232" lon="-2.702802">
        <ele>718.3</ele>
        <time>2015-02-22T09:18:03Z</time>
      </trkpt>
      <trkpt lat="40.548239" lon="-2.702653">
        <ele>718.8</ele>
        <time>2015-02-22T09:18:08Z</time>
      </trkpt>
      <trkpt lat="40.548250" lon="-2.702535">
        <ele>719.2</ele>
        <time>2015-02-22T09:18:12Z</time>
      </trkpt>
      <trkpt lat="40.548265" lon="-2.702417">
        <ele>719.3</ele>
        <time>2015-02-22T09:18:16Z</time>
      </trkpt>
      <trkpt lat="40.548288" lon="-2.702295">
        <ele>719.4</ele>
        <time>2015-02-22T09:18:20Z</time>
      </trkpt>
      <trkpt lat="40.548298" lon="-2.702163">
        <ele>719.5</ele>
        <time>2015-02-22T09:18:24Z</time>
      </trkpt>
      <trkpt lat="40.548325" lon="-2.702028">
        <ele>719.6</ele>
        <time>2015-02-22T09:18:28Z</time>
      </trkpt>
      <trkpt lat="40.548375" lon="-2.701893">
        <ele>719.5</ele>
        <time>2015-02-22T09:18:32Z</time>
      </trkpt>
      <trkpt lat="40.548410" lon="-2.701767">
        <ele>719.5</ele>
        <time>2015-02-22T09:18:36Z</time>
      </trkpt>
      <trkpt lat="40.548440" lon="-2.701650">
        <ele>719.5</ele>
        <time>2015-02-22T09:18:40Z</time>
      </trkpt>
      <trkpt lat="40.548467" lon="-2.701523">
        <ele>719.9</ele>
        <time>2015-02-22T09:18:45Z</time>
      </trkpt>
      <trkpt lat="40.548450" lon="-2.701386">
        <ele>720.5</ele>
        <time>2015-02-22T09:19:32Z</time>
      </trkpt>
      <trkpt lat="40.548434" lon="-2.701227">
        <ele>721.1</ele>
        <time>2015-02-22T09:19:36Z</time>
      </trkpt>
      <trkpt lat="40.548412" lon="-2.701102">
        <ele>721.7</ele>
        <time>2015-02-22T09:19:39Z</time>
      </trkpt>
      <trkpt lat="40.548392" lon="-2.700985">
        <ele>722.2</ele>
        <time>2015-02-22T09:19:42Z</time>
      </trkpt>
      <trkpt lat="40.548400" lon="-2.700867">
        <ele>722.6</ele>
        <time>2015-02-22T09:19:45Z</time>
      </trkpt>
      <trkpt lat="40.548444" lon="-2.700758">
        <ele>722.3</ele>
        <time>2015-02-22T09:19:48Z</time>
      </trkpt>
      <trkpt lat="40.548422" lon="-2.700618">
        <ele>721.8</ele>
        <time>2015-02-22T09:19:52Z</time>
      </trkpt>
      <trkpt lat="40.548488" lon="-2.700538">
        <ele>721.4</ele>
        <time>2015-02-22T09:19:57Z</time>
      </trkpt>
      <trkpt lat="40.548594" lon="-2.700540">
        <ele>721.2</ele>
        <time>2015-02-22T09:20:01Z</time>
      </trkpt>
      <trkpt lat="40.548713" lon="-2.700550">
        <ele>721.1</ele>
        <time>2015-02-22T09:20:04Z</time>
      </trkpt>
      <trkpt lat="40.548840" lon="-2.700587">
        <ele>720.9</ele>
        <time>2015-02-22T09:20:07Z</time>
      </trkpt>
      <trkpt lat="40.548960" lon="-2.700621">
        <ele>720.7</ele>
        <time>2015-02-22T09:20:10Z</time>
      </trkpt>
      <trkpt lat="40.549083" lon="-2.700648">
        <ele>720.4</ele>
        <time>2015-02-22T09:20:13Z</time>
      </trkpt>
      <trkpt lat="40.549200" lon="-2.700660">
        <ele>719.7</ele>
        <time>2015-02-22T09:20:16Z</time>
      </trkpt>
      <trkpt lat="40.549293" lon="-2.700662">
        <ele>718.5</ele>
        <time>2015-02-22T09:20:19Z</time>
      </trkpt>
      <trkpt lat="40.549380" lon="-2.700596">
        <ele>717.4</ele>
        <time>2015-02-22T09:20:24Z</time>
      </trkpt>
      <trkpt lat="40.549427" lon="-2.700491">
        <ele>717.0</ele>
        <time>2015-02-22T09:20:28Z</time>
      </trkpt>
      <trkpt lat="40.549465" lon="-2.700368">
        <ele>716.8</ele>
        <time>2015-02-22T09:20:32Z</time>
      </trkpt>
      <trkpt lat="40.549455" lon="-2.700242">
        <ele>717.3</ele>
        <time>2015-02-22T09:20:38Z</time>
      </trkpt>
      <trkpt lat="40.549408" lon="-2.700093">
        <ele>718.2</ele>
        <time>2015-02-22T09:20:42Z</time>
      </trkpt>
      <trkpt lat="40.549380" lon="-2.699953">
        <ele>718.3</ele>
        <time>2015-02-22T09:20:44Z</time>
      </trkpt>
      <trkpt lat="40.549349" lon="-2.699818">
        <ele>717.4</ele>
        <time>2015-02-22T09:20:46Z</time>
      </trkpt>
      <trkpt lat="40.549308" lon="-2.699685">
        <ele>716.6</ele>
        <time>2015-02-22T09:20:48Z</time>
      </trkpt>
      <trkpt lat="40.549267" lon="-2.699542">
        <ele>715.7</ele>
        <time>2015-02-22T09:20:50Z</time>
      </trkpt>
      <trkpt lat="40.549224" lon="-2.699422">
        <ele>715.0</ele>
        <time>2015-02-22T09:20:52Z</time>
      </trkpt>
      <trkpt lat="40.549134" lon="-2.699348">
        <ele>714.7</ele>
        <time>2015-02-22T09:20:55Z</time>
      </trkpt>
      <trkpt lat="40.549022" lon="-2.699310">
        <ele>714.0</ele>
        <time>2015-02-22T09:20:58Z</time>
      </trkpt>
      <trkpt lat="40.548939" lon="-2.699263">
        <ele>713.5</ele>
        <time>2015-02-22T09:21:00Z</time>
      </trkpt>
      <trkpt lat="40.548857" lon="-2.699207">
        <ele>712.6</ele>
        <time>2015-02-22T09:21:02Z</time>
      </trkpt>
      <trkpt lat="40.548775" lon="-2.699143">
        <ele>712.0</ele>
        <time>2015-02-22T09:21:04Z</time>
      </trkpt>
      <trkpt lat="40.548694" lon="-2.699071">
        <ele>711.3</ele>
        <time>2015-02-22T09:21:06Z</time>
      </trkpt>
      <trkpt lat="40.548620" lon="-2.698993">
        <ele>710.7</ele>
        <time>2015-02-22T09:21:08Z</time>
      </trkpt>
      <trkpt lat="40.548522" lon="-2.698880">
        <ele>709.9</ele>
        <time>2015-02-22T09:21:11Z</time>
      </trkpt>
      <trkpt lat="40.548435" lon="-2.698782">
        <ele>709.3</ele>
        <time>2015-02-22T09:21:14Z</time>
      </trkpt>
      <trkpt lat="40.548362" lon="-2.698657">
        <ele>708.6</ele>
        <time>2015-02-22T09:21:17Z</time>
      </trkpt>
      <trkpt lat="40.548310" lon="-2.698518">
        <ele>708.2</ele>
        <time>2015-02-22T09:21:20Z</time>
      </trkpt>
      <trkpt lat="40.548267" lon="-2.698371">
        <ele>707.7</ele>
        <time>2015-02-22T09:21:23Z</time>
      </trkpt>
      <trkpt lat="40.548197" lon="-2.698255">
        <ele>708.1</ele>
        <time>2015-02-22T09:21:26Z</time>
      </trkpt>
      <trkpt lat="40.548119" lon="-2.698173">
        <ele>708.8</ele>
        <time>2015-02-22T09:21:29Z</time>
      </trkpt>
      <trkpt lat="40.548057" lon="-2.698065">
        <ele>709.2</ele>
        <time>2015-02-22T09:21:32Z</time>
      </trkpt>
      <trkpt lat="40.548033" lon="-2.697921">
        <ele>709.3</ele>
        <time>2015-02-22T09:21:35Z</time>
      </trkpt>
      <trkpt lat="40.548027" lon="-2.697775">
        <ele>709.3</ele>
        <time>2015-02-22T09:21:38Z</time>
      </trkpt>
      <trkpt lat="40.548060" lon="-2.697650">
        <ele>709.0</ele>
        <time>2015-02-22T09:21:41Z</time>
      </trkpt>
      <trkpt lat="40.548105" lon="-2.697527">
        <ele>708.6</ele>
        <time>2015-02-22T09:21:44Z</time>
      </trkpt>
      <trkpt lat="40.548175" lon="-2.697405">
        <ele>708.7</ele>
        <time>2015-02-22T09:21:47Z</time>
      </trkpt>
      <trkpt lat="40.548254" lon="-2.697285">
        <ele>709.0</ele>
        <time>2015-02-22T09:21:50Z</time>
      </trkpt>
      <trkpt lat="40.548307" lon="-2.697160">
        <ele>709.6</ele>
        <time>2015-02-22T09:21:53Z</time>
      </trkpt>
      <trkpt lat="40.548354" lon="-2.697041">
        <ele>710.2</ele>
        <time>2015-02-22T09:21:56Z</time>
      </trkpt>
      <trkpt lat="40.548415" lon="-2.696933">
        <ele>710.5</ele>
        <time>2015-02-22T09:21:59Z</time>
      </trkpt>
      <trkpt lat="40.548495" lon="-2.696833">
        <ele>710.7</ele>
        <time>2015-02-22T09:22:02Z</time>
      </trkpt>
      <trkpt lat="40.548580" lon="-2.696742">
        <ele>710.5</ele>
        <time>2015-02-22T09:22:05Z</time>
      </trkpt>
      <trkpt lat="40.548675" lon="-2.696658">
        <ele>710.1</ele>
        <time>2015-02-22T09:22:08Z</time>
      </trkpt>
      <trkpt lat="40.548762" lon="-2.696576">
        <ele>709.7</ele>
        <time>2015-02-22T09:22:11Z</time>
      </trkpt>
      <trkpt lat="40.548848" lon="-2.696500">
        <ele>709.1</ele>
        <time>2015-02-22T09:22:14Z</time>
      </trkpt>
      <trkpt lat="40.548932" lon="-2.696428">
        <ele>708.5</ele>
        <time>2015-02-22T09:22:17Z</time>
      </trkpt>
      <trkpt lat="40.549012" lon="-2.696360">
        <ele>707.8</ele>
        <time>2015-02-22T09:22:20Z</time>
      </trkpt>
      <trkpt lat="40.549090" lon="-2.696253">
        <ele>707.2</ele>
        <time>2015-02-22T09:22:24Z</time>
      </trkpt>
      <trkpt lat="40.549090" lon="-2.696118">
        <ele>707.5</ele>
        <time>2015-02-22T09:22:28Z</time>
      </trkpt>
      <trkpt lat="40.549063" lon="-2.695998">
        <ele>707.9</ele>
        <time>2015-02-22T09:22:32Z</time>
      </trkpt>
      <trkpt lat="40.549015" lon="-2.695877">
        <ele>708.7</ele>
        <time>2015-02-22T09:22:37Z</time>
      </trkpt>
      <trkpt lat="40.548970" lon="-2.695768">
        <ele>709.5</ele>
        <time>2015-02-22T09:22:42Z</time>
      </trkpt>
      <trkpt lat="40.548930" lon="-2.695658">
        <ele>710.3</ele>
        <time>2015-02-22T09:22:48Z</time>
      </trkpt>
      <trkpt lat="40.548879" lon="-2.695553">
        <ele>711.2</ele>
        <time>2015-02-22T09:22:55Z</time>
      </trkpt>
      <trkpt lat="40.548818" lon="-2.695455">
        <ele>712.2</ele>
        <time>2015-02-22T09:22:59Z</time>
      </trkpt>
      <trkpt lat="40.548832" lon="-2.695335">
        <ele>712.3</ele>
        <time>2015-02-22T09:23:03Z</time>
      </trkpt>
      <trkpt lat="40.548827" lon="-2.695212">
        <ele>712.7</ele>
        <time>2015-02-22T09:23:07Z</time>
      </trkpt>
      <trkpt lat="40.548828" lon="-2.695087">
        <ele>713.0</ele>
        <time>2015-02-22T09:23:11Z</time>
      </trkpt>
      <trkpt lat="40.548825" lon="-2.694962">
        <ele>713.3</ele>
        <time>2015-02-22T09:23:15Z</time>
      </trkpt>
      <trkpt lat="40.548820" lon="-2.694818">
        <ele>713.6</ele>
        <time>2015-02-22T09:23:19Z</time>
      </trkpt>
      <trkpt lat="40.548833" lon="-2.694680">
        <ele>713.7</ele>
        <time>2015-02-22T09:23:23Z</time>
      </trkpt>
      <trkpt lat="40.548852" lon="-2.694537">
        <ele>713.8</ele>
        <time>2015-02-22T09:23:27Z</time>
      </trkpt>
      <trkpt lat="40.548879" lon="-2.694418">
        <ele>713.7</ele>
        <time>2015-02-22T09:23:30Z</time>
      </trkpt>
      <trkpt lat="40.548909" lon="-2.694297">
        <ele>713.6</ele>
        <time>2015-02-22T09:23:33Z</time>
      </trkpt>
      <trkpt lat="40.548942" lon="-2.694180">
        <ele>713.4</ele>
        <time>2015-02-22T09:23:36Z</time>
      </trkpt>
      <trkpt lat="40.548989" lon="-2.694067">
        <ele>713.4</ele>
        <time>2015-02-22T09:23:39Z</time>
      </trkpt>
      <trkpt lat="40.549045" lon="-2.693955">
        <ele>713.3</ele>
        <time>2015-02-22T09:23:42Z</time>
      </trkpt>
      <trkpt lat="40.549110" lon="-2.693842">
        <ele>713.2</ele>
        <time>2015-02-22T09:23:45Z</time>
      </trkpt>
      <trkpt lat="40.549173" lon="-2.693735">
        <ele>713.0</ele>
        <time>2015-02-22T09:23:48Z</time>
      </trkpt>
      <trkpt lat="40.549244" lon="-2.693638">
        <ele>712.8</ele>
        <time>2015-02-22T09:23:51Z</time>
      </trkpt>
      <trkpt lat="40.549318" lon="-2.693553">
        <ele>712.5</ele>
        <time>2015-02-22T09:23:54Z</time>
      </trkpt>
      <trkpt lat="40.549408" lon="-2.693461">
        <ele>711.9</ele>
        <time>2015-02-22T09:23:58Z</time>
      </trkpt>
      <trkpt lat="40.549484" lon="-2.693373">
        <ele>711.4</ele>
        <time>2015-02-22T09:24:04Z</time>
      </trkpt>
      <trkpt lat="40.549545" lon="-2.693279">
        <ele>711.5</ele>
        <time>2015-02-22T09:24:40Z</time>
      </trkpt>
      <trkpt lat="40.549627" lon="-2.693200">
        <ele>711.7</ele>
        <time>2015-02-22T09:24:44Z</time>
      </trkpt>
      <trkpt lat="40.549710" lon="-2.693103">
        <ele>712.0</ele>
        <time>2015-02-22T09:24:48Z</time>
      </trkpt>
      <trkpt lat="40.549794" lon="-2.693001">
        <ele>712.4</ele>
        <time>2015-02-22T09:24:52Z</time>
      </trkpt>
      <trkpt lat="40.549873" lon="-2.692893">
        <ele>713.0</ele>
        <time>2015-02-22T09:24:56Z</time>
      </trkpt>
      <trkpt lat="40.549957" lon="-2.692790">
        <ele>713.5</ele>
        <time>2015-02-22T09:25:00Z</time>
      </trkpt>
      <trkpt lat="40.550048" lon="-2.692695">
        <ele>713.9</ele>
        <time>2015-02-22T09:25:04Z</time>
      </trkpt>
      <trkpt lat="40.550140" lon="-2.692600">
        <ele>714.0</ele>
        <time>2015-02-22T09:25:08Z</time>
      </trkpt>
      <trkpt lat="40.550232" lon="-2.692498">
        <ele>713.9</ele>
        <time>2015-02-22T09:25:12Z</time>
      </trkpt>
      <trkpt lat="40.550315" lon="-2.692400">
        <ele>713.4</ele>
        <time>2015-02-22T09:25:16Z</time>
      </trkpt>
      <trkpt lat="40.550382" lon="-2.692312">
        <ele>712.9</ele>
        <time>2015-02-22T09:25:20Z</time>
      </trkpt>
      <trkpt lat="40.550449" lon="-2.692231">
        <ele>712.4</ele>
        <time>2015-02-22T09:25:24Z</time>
      </trkpt>
      <trkpt lat="40.550515" lon="-2.692120">
        <ele>712.0</ele>
        <time>2015-02-22T09:25:29Z</time>
      </trkpt>
      <trkpt lat="40.550574" lon="-2.691996">
        <ele>711.8</ele>
        <time>2015-02-22T09:25:34Z</time>
      </trkpt>
      <trkpt lat="40.550612" lon="-2.691885">
        <ele>711.7</ele>
        <time>2015-02-22T09:25:38Z</time>
      </trkpt>
      <trkpt lat="40.550653" lon="-2.691743">
        <ele>711.7</ele>
        <time>2015-02-22T09:25:42Z</time>
      </trkpt>
      <trkpt lat="40.550672" lon="-2.691625">
        <ele>711.8</ele>
        <time>2015-02-22T09:25:45Z</time>
      </trkpt>
      <trkpt lat="40.550675" lon="-2.691495">
        <ele>712.0</ele>
        <time>2015-02-22T09:25:48Z</time>
      </trkpt>
      <trkpt lat="40.550669" lon="-2.691348">
        <ele>712.5</ele>
        <time>2015-02-22T09:25:51Z</time>
      </trkpt>
      <trkpt lat="40.550632" lon="-2.691195">
        <ele>713.4</ele>
        <time>2015-02-22T09:25:54Z</time>
      </trkpt>
      <trkpt lat="40.550584" lon="-2.691035">
        <ele>714.3</ele>
        <time>2015-02-22T09:25:57Z</time>
      </trkpt>
      <trkpt lat="40.550553" lon="-2.690917">
        <ele>714.9</ele>
        <time>2015-02-22T09:25:59Z</time>
      </trkpt>
      <trkpt lat="40.550520" lon="-2.690800">
        <ele>715.2</ele>
        <time>2015-02-22T09:26:01Z</time>
      </trkpt>
      <trkpt lat="40.550477" lon="-2.690683">
        <ele>714.6</ele>
        <time>2015-02-22T09:26:03Z</time>
      </trkpt>
      <trkpt lat="40.550423" lon="-2.690560">
        <ele>714.0</ele>
        <time>2015-02-22T09:26:05Z</time>
      </trkpt>
      <trkpt lat="40.550367" lon="-2.690435">
        <ele>713.4</ele>
        <time>2015-02-22T09:26:07Z</time>
      </trkpt>
      <trkpt lat="40.550330" lon="-2.690306">
        <ele>712.5</ele>
        <time>2015-02-22T09:26:09Z</time>
      </trkpt>
      <trkpt lat="40.550334" lon="-2.690175">
        <ele>711.3</ele>
        <time>2015-02-22T09:26:11Z</time>
      </trkpt>
      <trkpt lat="40.550345" lon="-2.690022">
        <ele>709.8</ele>
        <time>2015-02-22T09:26:13Z</time>
      </trkpt>
      <trkpt lat="40.550342" lon="-2.689853">
        <ele>708.9</ele>
        <time>2015-02-22T09:26:15Z</time>
      </trkpt>
      <trkpt lat="40.550325" lon="-2.689693">
        <ele>708.3</ele>
        <time>2015-02-22T09:26:17Z</time>
      </trkpt>
      <trkpt lat="40.550310" lon="-2.689555">
        <ele>707.8</ele>
        <time>2015-02-22T09:26:19Z</time>
      </trkpt>
      <trkpt lat="40.550305" lon="-2.689387">
        <ele>707.0</ele>
        <time>2015-02-22T09:26:22Z</time>
      </trkpt>
      <trkpt lat="40.550307" lon="-2.689228">
        <ele>706.3</ele>
        <time>2015-02-22T09:26:25Z</time>
      </trkpt>
      <trkpt lat="40.550303" lon="-2.689073">
        <ele>706.2</ele>
        <time>2015-02-22T09:26:28Z</time>
      </trkpt>
      <trkpt lat="40.550300" lon="-2.688902">
        <ele>706.6</ele>
        <time>2015-02-22T09:26:31Z</time>
      </trkpt>
      <trkpt lat="40.550325" lon="-2.688746">
        <ele>706.9</ele>
        <time>2015-02-22T09:26:34Z</time>
      </trkpt>
      <trkpt lat="40.550417" lon="-2.688627">
        <ele>707.0</ele>
        <time>2015-02-22T09:26:37Z</time>
      </trkpt>
      <trkpt lat="40.550494" lon="-2.688556">
        <ele>706.9</ele>
        <time>2015-02-22T09:26:39Z</time>
      </trkpt>
      <trkpt lat="40.550570" lon="-2.688485">
        <ele>706.8</ele>
        <time>2015-02-22T09:26:41Z</time>
      </trkpt>
      <trkpt lat="40.550648" lon="-2.688408">
        <ele>706.6</ele>
        <time>2015-02-22T09:26:43Z</time>
      </trkpt>
      <trkpt lat="40.550760" lon="-2.688306">
        <ele>706.3</ele>
        <time>2015-02-22T09:26:46Z</time>
      </trkpt>
      <trkpt lat="40.550867" lon="-2.688203">
        <ele>706.0</ele>
        <time>2015-02-22T09:26:49Z</time>
      </trkpt>
      <trkpt lat="40.550975" lon="-2.688120">
        <ele>706.0</ele>
        <time>2015-02-22T09:26:52Z</time>
      </trkpt>
      <trkpt lat="40.551078" lon="-2.688030">
        <ele>706.0</ele>
        <time>2015-02-22T09:26:55Z</time>
      </trkpt>
      <trkpt lat="40.551135" lon="-2.687898">
        <ele>706.0</ele>
        <time>2015-02-22T09:26:58Z</time>
      </trkpt>
      <trkpt lat="40.551137" lon="-2.687768">
        <ele>706.0</ele>
        <time>2015-02-22T09:27:01Z</time>
      </trkpt>
      <trkpt lat="40.551085" lon="-2.687622">
        <ele>706.0</ele>
        <time>2015-02-22T09:27:05Z</time>
      </trkpt>
      <trkpt lat="40.550990" lon="-2.687500">
        <ele>706.0</ele>
        <time>2015-02-22T09:27:08Z</time>
      </trkpt>
      <trkpt lat="40.550905" lon="-2.687390">
        <ele>706.0</ele>
        <time>2015-02-22T09:27:11Z</time>
      </trkpt>
      <trkpt lat="40.550860" lon="-2.687258">
        <ele>706.0</ele>
        <time>2015-02-22T09:27:14Z</time>
      </trkpt>
      <trkpt lat="40.550840" lon="-2.687108">
        <ele>706.0</ele>
        <time>2015-02-22T09:27:17Z</time>
      </trkpt>
      <trkpt lat="40.550824" lon="-2.686958">
        <ele>706.1</ele>
        <time>2015-02-22T09:27:20Z</time>
      </trkpt>
      <trkpt lat="40.550817" lon="-2.686810">
        <ele>706.2</ele>
        <time>2015-02-22T09:27:23Z</time>
      </trkpt>
      <trkpt lat="40.550833" lon="-2.686668">
        <ele>706.0</ele>
        <time>2015-02-22T09:27:26Z</time>
      </trkpt>
      <trkpt lat="40.550860" lon="-2.686528">
        <ele>706.0</ele>
        <time>2015-02-22T09:27:29Z</time>
      </trkpt>
      <trkpt lat="40.550877" lon="-2.686395">
        <ele>706.0</ele>
        <time>2015-02-22T09:27:32Z</time>
      </trkpt>
      <trkpt lat="40.550895" lon="-2.686270">
        <ele>706.0</ele>
        <time>2015-02-22T09:27:35Z</time>
      </trkpt>
      <trkpt lat="40.550930" lon="-2.686120">
        <ele>706.0</ele>
        <time>2015-02-22T09:27:39Z</time>
      </trkpt>
      <trkpt lat="40.550979" lon="-2.685980">
        <ele>706.0</ele>
        <time>2015-02-22T09:27:43Z</time>
      </trkpt>
      <trkpt lat="40.551025" lon="-2.685870">
        <ele>706.0</ele>
        <time>2015-02-22T09:27:46Z</time>
      </trkpt>
      <trkpt lat="40.551087" lon="-2.685765">
        <ele>706.0</ele>
        <time>2015-02-22T09:27:49Z</time>
      </trkpt>
      <trkpt lat="40.551150" lon="-2.685658">
        <ele>706.0</ele>
        <time>2015-02-22T09:27:52Z</time>
      </trkpt>
      <trkpt lat="40.551212" lon="-2.685540">
        <ele>706.0</ele>
        <time>2015-02-22T09:27:55Z</time>
      </trkpt>
      <trkpt lat="40.551249" lon="-2.685416">
        <ele>706.0</ele>
        <time>2015-02-22T09:27:58Z</time>
      </trkpt>
      <trkpt lat="40.551269" lon="-2.685298">
        <ele>706.0</ele>
        <time>2015-02-22T09:28:01Z</time>
      </trkpt>
      <trkpt lat="40.551277" lon="-2.685142">
        <ele>706.0</ele>
        <time>2015-02-22T09:28:05Z</time>
      </trkpt>
      <trkpt lat="40.551275" lon="-2.685005">
        <ele>706.0</ele>
        <time>2015-02-22T09:28:08Z</time>
      </trkpt>
      <trkpt lat="40.551269" lon="-2.684851">
        <ele>706.0</ele>
        <time>2015-02-22T09:28:11Z</time>
      </trkpt>
      <trkpt lat="40.551252" lon="-2.684703">
        <ele>706.0</ele>
        <time>2015-02-22T09:28:14Z</time>
      </trkpt>
      <trkpt lat="40.551229" lon="-2.684557">
        <ele>706.0</ele>
        <time>2015-02-22T09:28:17Z</time>
      </trkpt>
      <trkpt lat="40.551217" lon="-2.684421">
        <ele>706.0</ele>
        <time>2015-02-22T09:28:20Z</time>
      </trkpt>
      <trkpt lat="40.551203" lon="-2.684286">
        <ele>706.0</ele>
        <time>2015-02-22T09:28:23Z</time>
      </trkpt>
      <trkpt lat="40.551175" lon="-2.684151">
        <ele>706.0</ele>
        <time>2015-02-22T09:28:26Z</time>
      </trkpt>
      <trkpt lat="40.551152" lon="-2.684010">
        <ele>706.5</ele>
        <time>2015-02-22T09:28:29Z</time>
      </trkpt>
      <trkpt lat="40.551145" lon="-2.683875">
        <ele>706.9</ele>
        <time>2015-02-22T09:28:32Z</time>
      </trkpt>
      <trkpt lat="40.551137" lon="-2.683748">
        <ele>707.3</ele>
        <time>2015-02-22T09:28:35Z</time>
      </trkpt>
      <trkpt lat="40.551122" lon="-2.683625">
        <ele>707.7</ele>
        <time>2015-02-22T09:28:38Z</time>
      </trkpt>
      <trkpt lat="40.551127" lon="-2.683495">
        <ele>708.1</ele>
        <time>2015-02-22T09:28:41Z</time>
      </trkpt>
      <trkpt lat="40.551155" lon="-2.683352">
        <ele>708.4</ele>
        <time>2015-02-22T09:28:44Z</time>
      </trkpt>
      <trkpt lat="40.551182" lon="-2.683205">
        <ele>708.3</ele>
        <time>2015-02-22T09:28:47Z</time>
      </trkpt>
      <trkpt lat="40.551209" lon="-2.683070">
        <ele>708.2</ele>
        <time>2015-02-22T09:28:50Z</time>
      </trkpt>
      <trkpt lat="40.551245" lon="-2.682938">
        <ele>708.0</ele>
        <time>2015-02-22T09:28:53Z</time>
      </trkpt>
      <trkpt lat="40.551277" lon="-2.682802">
        <ele>707.9</ele>
        <time>2015-02-22T09:28:56Z</time>
      </trkpt>
      <trkpt lat="40.551308" lon="-2.682673">
        <ele>707.7</ele>
        <time>2015-02-22T09:28:59Z</time>
      </trkpt>
      <trkpt lat="40.551339" lon="-2.682538">
        <ele>707.6</ele>
        <time>2015-02-22T09:29:02Z</time>
      </trkpt>
      <trkpt lat="40.551377" lon="-2.682423">
        <ele>707.6</ele>
        <time>2015-02-22T09:29:05Z</time>
      </trkpt>
      <trkpt lat="40.551437" lon="-2.682325">
        <ele>707.4</ele>
        <time>2015-02-22T09:29:08Z</time>
      </trkpt>
      <trkpt lat="40.551502" lon="-2.682190">
        <ele>707.1</ele>
        <time>2015-02-22T09:29:11Z</time>
      </trkpt>
      <trkpt lat="40.551552" lon="-2.682041">
        <ele>706.9</ele>
        <time>2015-02-22T09:29:14Z</time>
      </trkpt>
      <trkpt lat="40.551600" lon="-2.681905">
        <ele>706.6</ele>
        <time>2015-02-22T09:29:17Z</time>
      </trkpt>
      <trkpt lat="40.551652" lon="-2.681770">
        <ele>706.1</ele>
        <time>2015-02-22T09:29:20Z</time>
      </trkpt>
      <trkpt lat="40.551704" lon="-2.681630">
        <ele>706.0</ele>
        <time>2015-02-22T09:29:23Z</time>
      </trkpt>
      <trkpt lat="40.551748" lon="-2.681495">
        <ele>706.0</ele>
        <time>2015-02-22T09:29:26Z</time>
      </trkpt>
      <trkpt lat="40.551800" lon="-2.681361">
        <ele>706.0</ele>
        <time>2015-02-22T09:29:29Z</time>
      </trkpt>
      <trkpt lat="40.551858" lon="-2.681228">
        <ele>706.0</ele>
        <time>2015-02-22T09:29:32Z</time>
      </trkpt>
      <trkpt lat="40.551919" lon="-2.681093">
        <ele>706.0</ele>
        <time>2015-02-22T09:29:35Z</time>
      </trkpt>
      <trkpt lat="40.551963" lon="-2.680946">
        <ele>706.0</ele>
        <time>2015-02-22T09:29:38Z</time>
      </trkpt>
      <trkpt lat="40.552004" lon="-2.680806">
        <ele>706.1</ele>
        <time>2015-02-22T09:29:41Z</time>
      </trkpt>
      <trkpt lat="40.552052" lon="-2.680680">
        <ele>706.7</ele>
        <time>2015-02-22T09:29:44Z</time>
      </trkpt>
      <trkpt lat="40.552110" lon="-2.680543">
        <ele>707.1</ele>
        <time>2015-02-22T09:29:47Z</time>
      </trkpt>
      <trkpt lat="40.552167" lon="-2.680422">
        <ele>707.2</ele>
        <time>2015-02-22T09:29:50Z</time>
      </trkpt>
      <trkpt lat="40.552239" lon="-2.680310">
        <ele>706.9</ele>
        <time>2015-02-22T09:29:54Z</time>
      </trkpt>
      <trkpt lat="40.552295" lon="-2.680205">
        <ele>706.5</ele>
        <time>2015-02-22T09:29:59Z</time>
      </trkpt>
      <trkpt lat="40.552350" lon="-2.680087">
        <ele>706.0</ele>
        <time>2015-02-22T09:30:05Z</time>
      </trkpt>
      <trkpt lat="40.552379" lon="-2.679955">
        <ele>705.8</ele>
        <time>2015-02-22T09:30:11Z</time>
      </trkpt>
      <trkpt lat="40.552412" lon="-2.679840">
        <ele>706.1</ele>
        <time>2015-02-22T09:30:16Z</time>
      </trkpt>
      <trkpt lat="40.552467" lon="-2.679745">
        <ele>705.9</ele>
        <time>2015-02-22T09:30:21Z</time>
      </trkpt>
      <trkpt lat="40.552518" lon="-2.679646">
        <ele>706.0</ele>
        <time>2015-02-22T09:30:26Z</time>
      </trkpt>
      <trkpt lat="40.552585" lon="-2.679562">
        <ele>706.2</ele>
        <time>2015-02-22T09:30:29Z</time>
      </trkpt>
      <trkpt lat="40.552695" lon="-2.679470">
        <ele>706.2</ele>
        <time>2015-02-22T09:30:32Z</time>
      </trkpt>
      <trkpt lat="40.552758" lon="-2.679340">
        <ele>706.5</ele>
        <time>2015-02-22T09:30:34Z</time>
      </trkpt>
      <trkpt lat="40.552824" lon="-2.679192">
        <ele>706.9</ele>
        <time>2015-02-22T09:30:36Z</time>
      </trkpt>
      <trkpt lat="40.552887" lon="-2.679038">
        <ele>707.1</ele>
        <time>2015-02-22T09:30:38Z</time>
      </trkpt>
      <trkpt lat="40.552932" lon="-2.678872">
        <ele>707.5</ele>
        <time>2015-02-22T09:30:40Z</time>
      </trkpt>
      <trkpt lat="40.552973" lon="-2.678701">
        <ele>707.9</ele>
        <time>2015-02-22T09:30:42Z</time>
      </trkpt>
      <trkpt lat="40.553010" lon="-2.678538">
        <ele>708.5</ele>
        <time>2015-02-22T09:30:44Z</time>
      </trkpt>
      <trkpt lat="40.553027" lon="-2.678381">
        <ele>709.1</ele>
        <time>2015-02-22T09:30:46Z</time>
      </trkpt>
      <trkpt lat="40.553035" lon="-2.678246">
        <ele>709.6</ele>
        <time>2015-02-22T09:30:48Z</time>
      </trkpt>
      <trkpt lat="40.553047" lon="-2.678077">
        <ele>710.1</ele>
        <time>2015-02-22T09:30:51Z</time>
      </trkpt>
      <trkpt lat="40.553057" lon="-2.677916">
        <ele>710.7</ele>
        <time>2015-02-22T09:30:54Z</time>
      </trkpt>
      <trkpt lat="40.553055" lon="-2.677762">
        <ele>711.2</ele>
        <time>2015-02-22T09:30:57Z</time>
      </trkpt>
      <trkpt lat="40.553050" lon="-2.677611">
        <ele>711.6</ele>
        <time>2015-02-22T09:31:00Z</time>
      </trkpt>
      <trkpt lat="40.553047" lon="-2.677468">
        <ele>712.0</ele>
        <time>2015-02-22T09:31:03Z</time>
      </trkpt>
      <trkpt lat="40.553045" lon="-2.677327">
        <ele>712.3</ele>
        <time>2015-02-22T09:31:06Z</time>
      </trkpt>
      <trkpt lat="40.553022" lon="-2.677185">
        <ele>712.4</ele>
        <time>2015-02-22T09:31:10Z</time>
      </trkpt>
      <trkpt lat="40.552968" lon="-2.677065">
        <ele>712.4</ele>
        <time>2015-02-22T09:31:15Z</time>
      </trkpt>
      <trkpt lat="40.552932" lon="-2.676926">
        <ele>712.4</ele>
        <time>2015-02-22T09:31:20Z</time>
      </trkpt>
      <trkpt lat="40.552944" lon="-2.676780">
        <ele>712.6</ele>
        <time>2015-02-22T09:31:24Z</time>
      </trkpt>
      <trkpt lat="40.552964" lon="-2.676648">
        <ele>712.9</ele>
        <time>2015-02-22T09:31:27Z</time>
      </trkpt>
      <trkpt lat="40.552980" lon="-2.676523">
        <ele>713.8</ele>
        <time>2015-02-22T09:31:30Z</time>
      </trkpt>
      <trkpt lat="40.552982" lon="-2.676396">
        <ele>714.6</ele>
        <time>2015-02-22T09:31:33Z</time>
      </trkpt>
      <trkpt lat="40.552975" lon="-2.676258">
        <ele>715.4</ele>
        <time>2015-02-22T09:31:36Z</time>
      </trkpt>
      <trkpt lat="40.552977" lon="-2.676112">
        <ele>716.3</ele>
        <time>2015-02-22T09:31:39Z</time>
      </trkpt>
      <trkpt lat="40.553007" lon="-2.675962">
        <ele>717.6</ele>
        <time>2015-02-22T09:31:42Z</time>
      </trkpt>
      <trkpt lat="40.553054" lon="-2.675785">
        <ele>718.8</ele>
        <time>2015-02-22T09:31:45Z</time>
      </trkpt>
      <trkpt lat="40.553090" lon="-2.675653">
        <ele>718.7</ele>
        <time>2015-02-22T09:31:47Z</time>
      </trkpt>
      <trkpt lat="40.553132" lon="-2.675528">
        <ele>718.6</ele>
        <time>2015-02-22T09:31:49Z</time>
      </trkpt>
      <trkpt lat="40.553178" lon="-2.675413">
        <ele>718.6</ele>
        <time>2015-02-22T09:31:51Z</time>
      </trkpt>
      <trkpt lat="40.553239" lon="-2.675298">
        <ele>718.6</ele>
        <time>2015-02-22T09:31:53Z</time>
      </trkpt>
      <trkpt lat="40.553295" lon="-2.675163">
        <ele>718.5</ele>
        <time>2015-02-22T09:31:55Z</time>
      </trkpt>
      <trkpt lat="40.553345" lon="-2.675015">
        <ele>718.3</ele>
        <time>2015-02-22T09:31:57Z</time>
      </trkpt>
      <trkpt lat="40.553392" lon="-2.674870">
        <ele>718.1</ele>
        <time>2015-02-22T09:31:59Z</time>
      </trkpt>
      <trkpt lat="40.553425" lon="-2.674735">
        <ele>717.8</ele>
        <time>2015-02-22T09:32:01Z</time>
      </trkpt>
      <trkpt lat="40.553447" lon="-2.674618">
        <ele>717.5</ele>
        <time>2015-02-22T09:32:03Z</time>
      </trkpt>
      <trkpt lat="40.553464" lon="-2.674476">
        <ele>716.8</ele>
        <time>2015-02-22T09:32:06Z</time>
      </trkpt>
      <trkpt lat="40.553487" lon="-2.674321">
        <ele>716.2</ele>
        <time>2015-02-22T09:32:09Z</time>
      </trkpt>
      <trkpt lat="40.553522" lon="-2.674178">
        <ele>715.9</ele>
        <time>2015-02-22T09:32:12Z</time>
      </trkpt>
      <trkpt lat="40.553594" lon="-2.674062">
        <ele>716.7</ele>
        <time>2015-02-22T09:32:15Z</time>
      </trkpt>
      <trkpt lat="40.553675" lon="-2.673973">
        <ele>717.8</ele>
        <time>2015-02-22T09:32:18Z</time>
      </trkpt>
      <trkpt lat="40.553760" lon="-2.673852">
        <ele>718.6</ele>
        <time>2015-02-22T09:32:21Z</time>
      </trkpt>
      <trkpt lat="40.553804" lon="-2.673707">
        <ele>718.4</ele>
        <time>2015-02-22T09:32:24Z</time>
      </trkpt>
      <trkpt lat="40.553824" lon="-2.673548">
        <ele>717.7</ele>
        <time>2015-02-22T09:32:27Z</time>
      </trkpt>
      <trkpt lat="40.553863" lon="-2.673395">
        <ele>717.1</ele>
        <time>2015-02-22T09:32:30Z</time>
      </trkpt>
      <trkpt lat="40.553924" lon="-2.673257">
        <ele>717.0</ele>
        <time>2015-02-22T09:32:33Z</time>
      </trkpt>
      <trkpt lat="40.553995" lon="-2.673133">
        <ele>716.8</ele>
        <time>2015-02-22T09:32:36Z</time>
      </trkpt>
      <trkpt lat="40.554072" lon="-2.673013">
        <ele>716.3</ele>
        <time>2015-02-22T09:32:39Z</time>
      </trkpt>
      <trkpt lat="40.554152" lon="-2.672901">
        <ele>715.3</ele>
        <time>2015-02-22T09:32:42Z</time>
      </trkpt>
      <trkpt lat="40.554220" lon="-2.672810">
        <ele>715.1</ele>
        <time>2015-02-22T09:32:45Z</time>
      </trkpt>
      <trkpt lat="40.554229" lon="-2.672686">
        <ele>713.7</ele>
        <time>2015-02-22T09:32:49Z</time>
      </trkpt>
      <trkpt lat="40.554159" lon="-2.672608">
        <ele>711.6</ele>
        <time>2015-02-22T09:33:40Z</time>
      </trkpt>
      <trkpt lat="40.554167" lon="-2.672480">
        <ele>710.0</ele>
        <time>2015-02-22T09:34:49Z</time>
      </trkpt>
      <trkpt lat="40.554159" lon="-2.672355">
        <ele>709.9</ele>
        <time>2015-02-22T09:34:56Z</time>
      </trkpt>
      <trkpt lat="40.554167" lon="-2.672225">
        <ele>709.7</ele>
        <time>2015-02-22T09:35:02Z</time>
      </trkpt>
      <trkpt lat="40.554169" lon="-2.672080">
        <ele>709.6</ele>
        <time>2015-02-22T09:35:08Z</time>
      </trkpt>
      <trkpt lat="40.554080" lon="-2.672043">
        <ele>710.2</ele>
        <time>2015-02-22T09:35:15Z</time>
      </trkpt>
      <trkpt lat="40.553985" lon="-2.672081">
        <ele>711.1</ele>
        <time>2015-02-22T09:35:22Z</time>
      </trkpt>
      <trkpt lat="40.553912" lon="-2.672162">
        <ele>711.8</ele>
        <time>2015-02-22T09:44:20Z</time>
      </trkpt>
      <trkpt lat="40.553822" lon="-2.672185">
        <ele>712.6</ele>
        <time>2015-02-22T09:44:29Z</time>
      </trkpt>
      <trkpt lat="40.553735" lon="-2.672218">
        <ele>713.3</ele>
        <time>2015-02-22T09:44:37Z</time>
      </trkpt>
      <trkpt lat="40.553652" lon="-2.672278">
        <ele>713.9</ele>
        <time>2015-02-22T09:44:44Z</time>
      </trkpt>
      <trkpt lat="40.553585" lon="-2.672362">
        <ele>714.3</ele>
        <time>2015-02-22T09:44:53Z</time>
      </trkpt>
      <trkpt lat="40.553538" lon="-2.672465">
        <ele>714.6</ele>
        <time>2015-02-22T09:45:00Z</time>
      </trkpt>
      <trkpt lat="40.553497" lon="-2.672576">
        <ele>714.5</ele>
        <time>2015-02-22T09:45:08Z</time>
      </trkpt>
      <trkpt lat="40.553470" lon="-2.672691">
        <ele>714.1</ele>
        <time>2015-02-22T09:45:16Z</time>
      </trkpt>
      <trkpt lat="40.553443" lon="-2.672820">
        <ele>713.4</ele>
        <time>2015-02-22T09:45:24Z</time>
      </trkpt>
      <trkpt lat="40.553380" lon="-2.672911">
        <ele>712.7</ele>
        <time>2015-02-22T09:45:32Z</time>
      </trkpt>
      <trkpt lat="40.553284" lon="-2.672881">
        <ele>713.9</ele>
        <time>2015-02-22T09:45:41Z</time>
      </trkpt>
      <trkpt lat="40.553183" lon="-2.672871">
        <ele>716.4</ele>
        <time>2015-02-22T09:45:48Z</time>
      </trkpt>
      <trkpt lat="40.553090" lon="-2.672920">
        <ele>718.2</ele>
        <time>2015-02-22T09:45:53Z</time>
      </trkpt>
      <trkpt lat="40.553002" lon="-2.672943">
        <ele>720.3</ele>
        <time>2015-02-22T09:45:58Z</time>
      </trkpt>
      <trkpt lat="40.552909" lon="-2.672910">
        <ele>722.7</ele>
        <time>2015-02-22T09:46:07Z</time>
      </trkpt>
      <trkpt lat="40.552827" lon="-2.672853">
        <ele>725.0</ele>
        <time>2015-02-22T09:46:15Z</time>
      </trkpt>
      <trkpt lat="40.552735" lon="-2.672815">
        <ele>727.3</ele>
        <time>2015-02-22T09:46:25Z</time>
      </trkpt>
      <trkpt lat="40.552632" lon="-2.672817">
        <ele>729.7</ele>
        <time>2015-02-22T09:46:31Z</time>
      </trkpt>
      <trkpt lat="40.552533" lon="-2.672845">
        <ele>731.9</ele>
        <time>2015-02-22T09:46:38Z</time>
      </trkpt>
      <trkpt lat="40.552437" lon="-2.672891">
        <ele>733.3</ele>
        <time>2015-02-22T09:46:45Z</time>
      </trkpt>
      <trkpt lat="40.552350" lon="-2.672938">
        <ele>734.1</ele>
        <time>2015-02-22T09:46:52Z</time>
      </trkpt>
      <trkpt lat="40.552264" lon="-2.673006">
        <ele>734.9</ele>
        <time>2015-02-22T09:47:00Z</time>
      </trkpt>
      <trkpt lat="40.552192" lon="-2.673092">
        <ele>735.6</ele>
        <time>2015-02-22T09:47:07Z</time>
      </trkpt>
      <trkpt lat="40.552115" lon="-2.673180">
        <ele>736.3</ele>
        <time>2015-02-22T09:47:15Z</time>
      </trkpt>
      <trkpt lat="40.552068" lon="-2.673297">
        <ele>736.7</ele>
        <time>2015-02-22T09:47:22Z</time>
      </trkpt>
      <trkpt lat="40.552022" lon="-2.673407">
        <ele>736.3</ele>
        <time>2015-02-22T09:47:29Z</time>
      </trkpt>
      <trkpt lat="40.551962" lon="-2.673512">
        <ele>735.9</ele>
        <time>2015-02-22T09:47:37Z</time>
      </trkpt>
      <trkpt lat="40.551880" lon="-2.673585">
        <ele>736.3</ele>
        <time>2015-02-22T09:47:46Z</time>
      </trkpt>
      <trkpt lat="40.551805" lon="-2.673658">
        <ele>736.9</ele>
        <time>2015-02-22T09:47:54Z</time>
      </trkpt>
      <trkpt lat="40.551723" lon="-2.673735">
        <ele>737.6</ele>
        <time>2015-02-22T09:48:04Z</time>
      </trkpt>
      <trkpt lat="40.551658" lon="-2.673820">
        <ele>738.0</ele>
        <time>2015-02-22T09:48:12Z</time>
      </trkpt>
      <trkpt lat="40.551607" lon="-2.673928">
        <ele>738.5</ele>
        <time>2015-02-22T09:48:20Z</time>
      </trkpt>
      <trkpt lat="40.551545" lon="-2.674038">
        <ele>739.5</ele>
        <time>2015-02-22T09:48:28Z</time>
      </trkpt>
      <trkpt lat="40.551497" lon="-2.674141">
        <ele>740.2</ele>
        <time>2015-02-22T09:48:36Z</time>
      </trkpt>
      <trkpt lat="40.551457" lon="-2.674265">
        <ele>740.2</ele>
        <time>2015-02-22T09:48:44Z</time>
      </trkpt>
      <trkpt lat="40.551415" lon="-2.674382">
        <ele>740.3</ele>
        <time>2015-02-22T09:48:52Z</time>
      </trkpt>
      <trkpt lat="40.551384" lon="-2.674498">
        <ele>740.3</ele>
        <time>2015-02-22T09:49:09Z</time>
      </trkpt>
      <trkpt lat="40.551372" lon="-2.674627">
        <ele>739.4</ele>
        <time>2015-02-22T09:49:22Z</time>
      </trkpt>
      <trkpt lat="40.551352" lon="-2.674745">
        <ele>738.9</ele>
        <time>2015-02-22T09:49:31Z</time>
      </trkpt>
      <trkpt lat="40.551327" lon="-2.674871">
        <ele>738.8</ele>
        <time>2015-02-22T09:49:42Z</time>
      </trkpt>
      <trkpt lat="40.551298" lon="-2.674988">
        <ele>738.8</ele>
        <time>2015-02-22T09:49:50Z</time>
      </trkpt>
      <trkpt lat="40.551269" lon="-2.675111">
        <ele>739.2</ele>
        <time>2015-02-22T09:49:58Z</time>
      </trkpt>
      <trkpt lat="40.551224" lon="-2.675215">
        <ele>740.4</ele>
        <time>2015-02-22T09:50:06Z</time>
      </trkpt>
      <trkpt lat="40.551154" lon="-2.675292">
        <ele>742.7</ele>
        <time>2015-02-22T09:50:14Z</time>
      </trkpt>
      <trkpt lat="40.551065" lon="-2.675325">
        <ele>746.0</ele>
        <time>2015-02-22T09:50:26Z</time>
      </trkpt>
      <trkpt lat="40.550967" lon="-2.675323">
        <ele>749.7</ele>
        <time>2015-02-22T09:50:40Z</time>
      </trkpt>
      <trkpt lat="40.550868" lon="-2.675310">
        <ele>753.5</ele>
        <time>2015-02-22T09:50:53Z</time>
      </trkpt>
      <trkpt lat="40.550778" lon="-2.675313">
        <ele>756.6</ele>
        <time>2015-02-22T09:51:02Z</time>
      </trkpt>
      <trkpt lat="40.550682" lon="-2.675297">
        <ele>759.7</ele>
        <time>2015-02-22T09:51:09Z</time>
      </trkpt>
      <trkpt lat="40.550590" lon="-2.675317">
        <ele>762.5</ele>
        <time>2015-02-22T09:51:18Z</time>
      </trkpt>
      <trkpt lat="40.550500" lon="-2.675326">
        <ele>765.4</ele>
        <time>2015-02-22T09:51:25Z</time>
      </trkpt>
      <trkpt lat="40.550410" lon="-2.675346">
        <ele>768.0</ele>
        <time>2015-02-22T09:51:32Z</time>
      </trkpt>
      <trkpt lat="40.550339" lon="-2.675427">
        <ele>769.5</ele>
        <time>2015-02-22T09:51:46Z</time>
      </trkpt>
      <trkpt lat="40.550245" lon="-2.675433">
        <ele>772.1</ele>
        <time>2015-02-22T09:51:56Z</time>
      </trkpt>
      <trkpt lat="40.550149" lon="-2.675420">
        <ele>775.3</ele>
        <time>2015-02-22T09:52:08Z</time>
      </trkpt>
      <trkpt lat="40.550059" lon="-2.675397">
        <ele>778.4</ele>
        <time>2015-02-22T09:52:19Z</time>
      </trkpt>
      <trkpt lat="40.549962" lon="-2.675388">
        <ele>781.0</ele>
        <time>2015-02-22T09:52:29Z</time>
      </trkpt>
      <trkpt lat="40.549865" lon="-2.675375">
        <ele>782.8</ele>
        <time>2015-02-22T09:52:36Z</time>
      </trkpt>
      <trkpt lat="40.549775" lon="-2.675376">
        <ele>784.4</ele>
        <time>2015-02-22T09:52:45Z</time>
      </trkpt>
      <trkpt lat="40.549680" lon="-2.675398">
        <ele>785.7</ele>
        <time>2015-02-22T09:53:00Z</time>
      </trkpt>
      <trkpt lat="40.549580" lon="-2.675382">
        <ele>787.6</ele>
        <time>2015-02-22T09:53:07Z</time>
      </trkpt>
      <trkpt lat="40.549487" lon="-2.675390">
        <ele>789.2</ele>
        <time>2015-02-22T09:53:13Z</time>
      </trkpt>
      <trkpt lat="40.549395" lon="-2.675397">
        <ele>790.6</ele>
        <time>2015-02-22T09:53:19Z</time>
      </trkpt>
      <trkpt lat="40.549303" lon="-2.675407">
        <ele>792.1</ele>
        <time>2015-02-22T09:53:26Z</time>
      </trkpt>
      <trkpt lat="40.549203" lon="-2.675410">
        <ele>793.8</ele>
        <time>2015-02-22T09:53:33Z</time>
      </trkpt>
      <trkpt lat="40.549099" lon="-2.675413">
        <ele>795.6</ele>
        <time>2015-02-22T09:53:40Z</time>
      </trkpt>
      <trkpt lat="40.548999" lon="-2.675433">
        <ele>796.9</ele>
        <time>2015-02-22T09:53:46Z</time>
      </trkpt>
      <trkpt lat="40.548899" lon="-2.675463">
        <ele>798.4</ele>
        <time>2015-02-22T09:53:52Z</time>
      </trkpt>
      <trkpt lat="40.548862" lon="-2.675571">
        <ele>798.5</ele>
        <time>2015-02-22T09:54:00Z</time>
      </trkpt>
      <trkpt lat="40.548874" lon="-2.675691">
        <ele>797.7</ele>
        <time>2015-02-22T09:54:07Z</time>
      </trkpt>
      <trkpt lat="40.548853" lon="-2.675815">
        <ele>797.4</ele>
        <time>2015-02-22T09:54:17Z</time>
      </trkpt>
      <trkpt lat="40.548825" lon="-2.675940">
        <ele>798.9</ele>
        <time>2015-02-22T09:54:26Z</time>
      </trkpt>
      <trkpt lat="40.548770" lon="-2.676045">
        <ele>801.1</ele>
        <time>2015-02-22T09:54:34Z</time>
      </trkpt>
      <trkpt lat="40.548709" lon="-2.676140">
        <ele>803.2</ele>
        <time>2015-02-22T09:54:46Z</time>
      </trkpt>
      <trkpt lat="40.548657" lon="-2.676243">
        <ele>805.3</ele>
        <time>2015-02-22T09:54:57Z</time>
      </trkpt>
      <trkpt lat="40.548595" lon="-2.676330">
        <ele>807.4</ele>
        <time>2015-02-22T09:55:14Z</time>
      </trkpt>
      <trkpt lat="40.548503" lon="-2.676371">
        <ele>810.0</ele>
        <time>2015-02-22T09:55:30Z</time>
      </trkpt>
      <trkpt lat="40.548405" lon="-2.676388">
        <ele>812.4</ele>
        <time>2015-02-22T09:55:39Z</time>
      </trkpt>
      <trkpt lat="40.548313" lon="-2.676420">
        <ele>814.6</ele>
        <time>2015-02-22T09:55:48Z</time>
      </trkpt>
      <trkpt lat="40.548224" lon="-2.676476">
        <ele>816.4</ele>
        <time>2015-02-22T09:55:59Z</time>
      </trkpt>
      <trkpt lat="40.548132" lon="-2.676523">
        <ele>818.1</ele>
        <time>2015-02-22T09:56:08Z</time>
      </trkpt>
      <trkpt lat="40.548048" lon="-2.676578">
        <ele>819.9</ele>
        <time>2015-02-22T09:56:17Z</time>
      </trkpt>
      <trkpt lat="40.547963" lon="-2.676630">
        <ele>821.4</ele>
        <time>2015-02-22T09:56:27Z</time>
      </trkpt>
      <trkpt lat="40.547873" lon="-2.676686">
        <ele>823.2</ele>
        <time>2015-02-22T09:56:38Z</time>
      </trkpt>
      <trkpt lat="40.547787" lon="-2.676757">
        <ele>824.6</ele>
        <time>2015-02-22T09:56:47Z</time>
      </trkpt>
      <trkpt lat="40.547712" lon="-2.676836">
        <ele>826.0</ele>
        <time>2015-02-22T09:56:56Z</time>
      </trkpt>
      <trkpt lat="40.547660" lon="-2.676936">
        <ele>827.3</ele>
        <time>2015-02-22T09:57:03Z</time>
      </trkpt>
      <trkpt lat="40.547590" lon="-2.677023">
        <ele>828.8</ele>
        <time>2015-02-22T09:57:12Z</time>
      </trkpt>
      <trkpt lat="40.547528" lon="-2.677110">
        <ele>830.2</ele>
        <time>2015-02-22T09:57:21Z</time>
      </trkpt>
      <trkpt lat="40.547457" lon="-2.677197">
        <ele>831.8</ele>
        <time>2015-02-22T09:57:33Z</time>
      </trkpt>
      <trkpt lat="40.547377" lon="-2.677251">
        <ele>833.2</ele>
        <time>2015-02-22T09:57:42Z</time>
      </trkpt>
      <trkpt lat="40.547302" lon="-2.677328">
        <ele>834.7</ele>
        <time>2015-02-22T09:57:54Z</time>
      </trkpt>
      <trkpt lat="40.547207" lon="-2.677356">
        <ele>836.2</ele>
        <time>2015-02-22T09:58:06Z</time>
      </trkpt>
      <trkpt lat="40.547115" lon="-2.677360">
        <ele>837.5</ele>
        <time>2015-02-22T09:58:15Z</time>
      </trkpt>
      <trkpt lat="40.547020" lon="-2.677347">
        <ele>838.7</ele>
        <time>2015-02-22T09:58:24Z</time>
      </trkpt>
      <trkpt lat="40.546920" lon="-2.677332">
        <ele>839.9</ele>
        <time>2015-02-22T09:58:33Z</time>
      </trkpt>
      <trkpt lat="40.546822" lon="-2.677327">
        <ele>841.2</ele>
        <time>2015-02-22T09:58:43Z</time>
      </trkpt>
      <trkpt lat="40.546732" lon="-2.677325">
        <ele>842.5</ele>
        <time>2015-02-22T09:58:49Z</time>
      </trkpt>
      <trkpt lat="40.546638" lon="-2.677343">
        <ele>843.8</ele>
        <time>2015-02-22T09:58:56Z</time>
      </trkpt>
      <trkpt lat="40.546544" lon="-2.677376">
        <ele>845.1</ele>
        <time>2015-02-22T09:59:03Z</time>
      </trkpt>
      <trkpt lat="40.546455" lon="-2.677410">
        <ele>846.3</ele>
        <time>2015-02-22T09:59:10Z</time>
      </trkpt>
      <trkpt lat="40.546370" lon="-2.677475">
        <ele>847.9</ele>
        <time>2015-02-22T09:59:17Z</time>
      </trkpt>
      <trkpt lat="40.546288" lon="-2.677571">
        <ele>849.0</ele>
        <time>2015-02-22T09:59:23Z</time>
      </trkpt>
      <trkpt lat="40.546207" lon="-2.677642">
        <ele>849.9</ele>
        <time>2015-02-22T09:59:28Z</time>
      </trkpt>
      <trkpt lat="40.546124" lon="-2.677708">
        <ele>850.8</ele>
        <time>2015-02-22T09:59:34Z</time>
      </trkpt>
      <trkpt lat="40.546048" lon="-2.677788">
        <ele>851.6</ele>
        <time>2015-02-22T09:59:41Z</time>
      </trkpt>
      <trkpt lat="40.545992" lon="-2.677898">
        <ele>852.2</ele>
        <time>2015-02-22T09:59:48Z</time>
      </trkpt>
      <trkpt lat="40.545943" lon="-2.677998">
        <ele>852.7</ele>
        <time>2015-02-22T09:59:55Z</time>
      </trkpt>
      <trkpt lat="40.545907" lon="-2.678110">
        <ele>853.1</ele>
        <time>2015-02-22T10:00:01Z</time>
      </trkpt>
      <trkpt lat="40.545850" lon="-2.678223">
        <ele>853.8</ele>
        <time>2015-02-22T10:00:08Z</time>
      </trkpt>
      <trkpt lat="40.545780" lon="-2.678312">
        <ele>854.4</ele>
        <time>2015-02-22T10:00:15Z</time>
      </trkpt>
      <trkpt lat="40.545713" lon="-2.678402">
        <ele>854.8</ele>
        <time>2015-02-22T10:00:21Z</time>
      </trkpt>
      <trkpt lat="40.545645" lon="-2.678498">
        <ele>855.2</ele>
        <time>2015-02-22T10:00:28Z</time>
      </trkpt>
      <trkpt lat="40.545582" lon="-2.678591">
        <ele>855.7</ele>
        <time>2015-02-22T10:00:35Z</time>
      </trkpt>
      <trkpt lat="40.545497" lon="-2.678658">
        <ele>856.7</ele>
        <time>2015-02-22T10:00:42Z</time>
      </trkpt>
      <trkpt lat="40.545415" lon="-2.678733">
        <ele>857.7</ele>
        <time>2015-02-22T10:00:49Z</time>
      </trkpt>
      <trkpt lat="40.545337" lon="-2.678816">
        <ele>858.9</ele>
        <time>2015-02-22T10:00:56Z</time>
      </trkpt>
      <trkpt lat="40.545258" lon="-2.678882">
        <ele>860.2</ele>
        <time>2015-02-22T10:01:04Z</time>
      </trkpt>
      <trkpt lat="40.545177" lon="-2.678950">
        <ele>861.8</ele>
        <time>2015-02-22T10:01:16Z</time>
      </trkpt>
      <trkpt lat="40.545107" lon="-2.679026">
        <ele>863.3</ele>
        <time>2015-02-22T10:01:30Z</time>
      </trkpt>
      <trkpt lat="40.545017" lon="-2.679083">
        <ele>865.2</ele>
        <time>2015-02-22T10:01:38Z</time>
      </trkpt>
      <trkpt lat="40.544918" lon="-2.679113">
        <ele>866.5</ele>
        <time>2015-02-22T10:01:46Z</time>
      </trkpt>
      <trkpt lat="40.544835" lon="-2.679180">
        <ele>867.8</ele>
        <time>2015-02-22T10:01:54Z</time>
      </trkpt>
      <trkpt lat="40.544757" lon="-2.679251">
        <ele>869.1</ele>
        <time>2015-02-22T10:02:02Z</time>
      </trkpt>
      <trkpt lat="40.544667" lon="-2.679278">
        <ele>870.2</ele>
        <time>2015-02-22T10:02:10Z</time>
      </trkpt>
      <trkpt lat="40.544572" lon="-2.679327">
        <ele>871.5</ele>
        <time>2015-02-22T10:02:18Z</time>
      </trkpt>
      <trkpt lat="40.544482" lon="-2.679360">
        <ele>872.7</ele>
        <time>2015-02-22T10:02:26Z</time>
      </trkpt>
      <trkpt lat="40.544387" lon="-2.679401">
        <ele>873.9</ele>
        <time>2015-02-22T10:02:36Z</time>
      </trkpt>
      <trkpt lat="40.544304" lon="-2.679455">
        <ele>875.2</ele>
        <time>2015-02-22T10:02:45Z</time>
      </trkpt>
      <trkpt lat="40.544219" lon="-2.679508">
        <ele>876.5</ele>
        <time>2015-02-22T10:02:54Z</time>
      </trkpt>
      <trkpt lat="40.544128" lon="-2.679553">
        <ele>877.7</ele>
        <time>2015-02-22T10:03:03Z</time>
      </trkpt>
      <trkpt lat="40.544040" lon="-2.679588">
        <ele>878.9</ele>
        <time>2015-02-22T10:03:13Z</time>
      </trkpt>
      <trkpt lat="40.543940" lon="-2.679623">
        <ele>880.0</ele>
        <time>2015-02-22T10:03:28Z</time>
      </trkpt>
      <trkpt lat="40.543848" lon="-2.679625">
        <ele>881.1</ele>
        <time>2015-02-22T10:03:40Z</time>
      </trkpt>
      <trkpt lat="40.543757" lon="-2.679643">
        <ele>882.1</ele>
        <time>2015-02-22T10:03:52Z</time>
      </trkpt>
      <trkpt lat="40.543664" lon="-2.679657">
        <ele>883.1</ele>
        <time>2015-02-22T10:04:09Z</time>
      </trkpt>
      <trkpt lat="40.543582" lon="-2.679706">
        <ele>884.3</ele>
        <time>2015-02-22T10:04:23Z</time>
      </trkpt>
      <trkpt lat="40.543493" lon="-2.679743">
        <ele>885.6</ele>
        <time>2015-02-22T10:04:38Z</time>
      </trkpt>
      <trkpt lat="40.543404" lon="-2.679777">
        <ele>886.7</ele>
        <time>2015-02-22T10:04:53Z</time>
      </trkpt>
      <trkpt lat="40.543330" lon="-2.679847">
        <ele>888.0</ele>
        <time>2015-02-22T10:05:04Z</time>
      </trkpt>
      <trkpt lat="40.543250" lon="-2.679905">
        <ele>890.1</ele>
        <time>2015-02-22T10:05:17Z</time>
      </trkpt>
      <trkpt lat="40.543165" lon="-2.679957">
        <ele>892.3</ele>
        <time>2015-02-22T10:05:41Z</time>
      </trkpt>
      <trkpt lat="40.543070" lon="-2.679953">
        <ele>894.4</ele>
        <time>2015-02-22T10:05:53Z</time>
      </trkpt>
      <trkpt lat="40.542974" lon="-2.679945">
        <ele>896.4</ele>
        <time>2015-02-22T10:06:06Z</time>
      </trkpt>
      <trkpt lat="40.542885" lon="-2.679973">
        <ele>898.4</ele>
        <time>2015-02-22T10:06:21Z</time>
      </trkpt>
      <trkpt lat="40.542792" lon="-2.679987">
        <ele>900.6</ele>
        <time>2015-02-22T10:06:30Z</time>
      </trkpt>
      <trkpt lat="40.542695" lon="-2.679980">
        <ele>902.7</ele>
        <time>2015-02-22T10:06:37Z</time>
      </trkpt>
      <trkpt lat="40.542602" lon="-2.679978">
        <ele>904.7</ele>
        <time>2015-02-22T10:06:57Z</time>
      </trkpt>
      <trkpt lat="40.542514" lon="-2.679953">
        <ele>906.4</ele>
        <time>2015-02-22T10:07:36Z</time>
      </trkpt>
      <trkpt lat="40.542425" lon="-2.679977">
        <ele>908.1</ele>
        <time>2015-02-22T10:10:25Z</time>
      </trkpt>
      <trkpt lat="40.542407" lon="-2.680093">
        <ele>909.2</ele>
        <time>2015-02-22T10:11:11Z</time>
      </trkpt>
      <trkpt lat="40.542417" lon="-2.680212">
        <ele>910.2</ele>
        <time>2015-02-22T10:14:43Z</time>
      </trkpt>
      <trkpt lat="40.542495" lon="-2.680288">
        <ele>909.5</ele>
        <time>2015-02-22T10:14:50Z</time>
      </trkpt>
      <trkpt lat="40.542562" lon="-2.680371">
        <ele>909.0</ele>
        <time>2015-02-22T10:14:56Z</time>
      </trkpt>
      <trkpt lat="40.542620" lon="-2.680476">
        <ele>908.8</ele>
        <time>2015-02-22T10:15:03Z</time>
      </trkpt>
      <trkpt lat="40.542678" lon="-2.680570">
        <ele>908.5</ele>
        <time>2015-02-22T10:15:09Z</time>
      </trkpt>
      <trkpt lat="40.542732" lon="-2.680681">
        <ele>908.7</ele>
        <time>2015-02-22T10:15:14Z</time>
      </trkpt>
      <trkpt lat="40.542832" lon="-2.680763">
        <ele>907.8</ele>
        <time>2015-02-22T10:15:19Z</time>
      </trkpt>
      <trkpt lat="40.542930" lon="-2.680831">
        <ele>906.8</ele>
        <time>2015-02-22T10:15:22Z</time>
      </trkpt>
      <trkpt lat="40.543018" lon="-2.680948">
        <ele>907.2</ele>
        <time>2015-02-22T10:15:25Z</time>
      </trkpt>
      <trkpt lat="40.543100" lon="-2.681050">
        <ele>907.6</ele>
        <time>2015-02-22T10:15:28Z</time>
      </trkpt>
      <trkpt lat="40.543177" lon="-2.681163">
        <ele>908.5</ele>
        <time>2015-02-22T10:15:31Z</time>
      </trkpt>
      <trkpt lat="40.543242" lon="-2.681246">
        <ele>908.9</ele>
        <time>2015-02-22T10:15:33Z</time>
      </trkpt>
      <trkpt lat="40.543330" lon="-2.681333">
        <ele>909.2</ele>
        <time>2015-02-22T10:15:35Z</time>
      </trkpt>
      <trkpt lat="40.543427" lon="-2.681435">
        <ele>910.1</ele>
        <time>2015-02-22T10:15:37Z</time>
      </trkpt>
      <trkpt lat="40.543503" lon="-2.681557">
        <ele>911.3</ele>
        <time>2015-02-22T10:15:39Z</time>
      </trkpt>
      <trkpt lat="40.543573" lon="-2.681655">
        <ele>912.2</ele>
        <time>2015-02-22T10:15:41Z</time>
      </trkpt>
      <trkpt lat="40.543675" lon="-2.681743">
        <ele>911.7</ele>
        <time>2015-02-22T10:15:44Z</time>
      </trkpt>
      <trkpt lat="40.543754" lon="-2.681820">
        <ele>911.2</ele>
        <time>2015-02-22T10:15:47Z</time>
      </trkpt>
      <trkpt lat="40.543832" lon="-2.681887">
        <ele>910.6</ele>
        <time>2015-02-22T10:15:51Z</time>
      </trkpt>
      <trkpt lat="40.543905" lon="-2.681966">
        <ele>910.1</ele>
        <time>2015-02-22T10:15:55Z</time>
      </trkpt>
      <trkpt lat="40.543970" lon="-2.682060">
        <ele>909.8</ele>
        <time>2015-02-22T10:15:59Z</time>
      </trkpt>
      <trkpt lat="40.544023" lon="-2.682165">
        <ele>909.6</ele>
        <time>2015-02-22T10:16:03Z</time>
      </trkpt>
      <trkpt lat="40.544055" lon="-2.682281">
        <ele>909.6</ele>
        <time>2015-02-22T10:16:08Z</time>
      </trkpt>
      <trkpt lat="40.544067" lon="-2.682401">
        <ele>909.9</ele>
        <time>2015-02-22T10:16:12Z</time>
      </trkpt>
      <trkpt lat="40.544092" lon="-2.682538">
        <ele>909.5</ele>
        <time>2015-02-22T10:16:16Z</time>
      </trkpt>
      <trkpt lat="40.544097" lon="-2.682660">
        <ele>907.8</ele>
        <time>2015-02-22T10:16:19Z</time>
      </trkpt>
      <trkpt lat="40.544062" lon="-2.682775">
        <ele>907.0</ele>
        <time>2015-02-22T10:16:23Z</time>
      </trkpt>
      <trkpt lat="40.543995" lon="-2.682877">
        <ele>906.7</ele>
        <time>2015-02-22T10:16:28Z</time>
      </trkpt>
      <trkpt lat="40.543930" lon="-2.682966">
        <ele>906.7</ele>
        <time>2015-02-22T10:16:35Z</time>
      </trkpt>
      <trkpt lat="40.543869" lon="-2.683055">
        <ele>906.7</ele>
        <time>2015-02-22T10:16:44Z</time>
      </trkpt>
      <trkpt lat="40.543812" lon="-2.683161">
        <ele>906.6</ele>
        <time>2015-02-22T10:16:53Z</time>
      </trkpt>
      <trkpt lat="40.543760" lon="-2.683270">
        <ele>906.5</ele>
        <time>2015-02-22T10:17:03Z</time>
      </trkpt>
      <trkpt lat="40.543698" lon="-2.683358">
        <ele>906.7</ele>
        <time>2015-02-22T10:17:12Z</time>
      </trkpt>
      <trkpt lat="40.543627" lon="-2.683445">
        <ele>907.3</ele>
        <time>2015-02-22T10:17:21Z</time>
      </trkpt>
      <trkpt lat="40.543557" lon="-2.683526">
        <ele>908.1</ele>
        <time>2015-02-22T10:17:30Z</time>
      </trkpt>
      <trkpt lat="40.543483" lon="-2.683616">
        <ele>909.0</ele>
        <time>2015-02-22T10:17:39Z</time>
      </trkpt>
      <trkpt lat="40.543415" lon="-2.683703">
        <ele>909.9</ele>
        <time>2015-02-22T10:17:47Z</time>
      </trkpt>
      <trkpt lat="40.543343" lon="-2.683788">
        <ele>911.0</ele>
        <time>2015-02-22T10:17:55Z</time>
      </trkpt>
      <trkpt lat="40.543278" lon="-2.683878">
        <ele>912.4</ele>
        <time>2015-02-22T10:18:04Z</time>
      </trkpt>
      <trkpt lat="40.543200" lon="-2.683961">
        <ele>914.4</ele>
        <time>2015-02-22T10:18:13Z</time>
      </trkpt>
      <trkpt lat="40.543115" lon="-2.684005">
        <ele>916.9</ele>
        <time>2015-02-22T10:18:23Z</time>
      </trkpt>
      <trkpt lat="40.543022" lon="-2.684037">
        <ele>919.6</ele>
        <time>2015-02-22T10:18:34Z</time>
      </trkpt>
      <trkpt lat="40.542932" lon="-2.684051">
        <ele>922.5</ele>
        <time>2015-02-22T10:18:53Z</time>
      </trkpt>
      <trkpt lat="40.542842" lon="-2.684058">
        <ele>925.3</ele>
        <time>2015-02-22T10:19:13Z</time>
      </trkpt>
      <trkpt lat="40.542759" lon="-2.684105">
        <ele>927.7</ele>
        <time>2015-02-22T10:19:20Z</time>
      </trkpt>
      <trkpt lat="40.542677" lon="-2.684156">
        <ele>930.2</ele>
        <time>2015-02-22T10:19:27Z</time>
      </trkpt>
      <trkpt lat="40.542585" lon="-2.684205">
        <ele>933.1</ele>
        <time>2015-02-22T10:19:34Z</time>
      </trkpt>
      <trkpt lat="40.542502" lon="-2.684253">
        <ele>935.5</ele>
        <time>2015-02-22T10:19:41Z</time>
      </trkpt>
      <trkpt lat="40.542410" lon="-2.684305">
        <ele>937.0</ele>
        <time>2015-02-22T10:19:49Z</time>
      </trkpt>
      <trkpt lat="40.542325" lon="-2.684365">
        <ele>938.3</ele>
        <time>2015-02-22T10:19:58Z</time>
      </trkpt>
      <trkpt lat="40.542227" lon="-2.684395">
        <ele>940.1</ele>
        <time>2015-02-22T10:20:06Z</time>
      </trkpt>
      <trkpt lat="40.542142" lon="-2.684452">
        <ele>941.5</ele>
        <time>2015-02-22T10:20:14Z</time>
      </trkpt>
      <trkpt lat="40.542045" lon="-2.684495">
        <ele>943.1</ele>
        <time>2015-02-22T10:20:22Z</time>
      </trkpt>
      <trkpt lat="40.541957" lon="-2.684530">
        <ele>944.7</ele>
        <time>2015-02-22T10:20:28Z</time>
      </trkpt>
      <trkpt lat="40.541869" lon="-2.684562">
        <ele>946.2</ele>
        <time>2015-02-22T10:20:34Z</time>
      </trkpt>
      <trkpt lat="40.541770" lon="-2.684600">
        <ele>947.9</ele>
        <time>2015-02-22T10:20:41Z</time>
      </trkpt>
      <trkpt lat="40.541680" lon="-2.684641">
        <ele>949.4</ele>
        <time>2015-02-22T10:20:48Z</time>
      </trkpt>
      <trkpt lat="40.541587" lon="-2.684667">
        <ele>950.7</ele>
        <time>2015-02-22T10:20:55Z</time>
      </trkpt>
      <trkpt lat="40.541490" lon="-2.684687">
        <ele>952.0</ele>
        <time>2015-02-22T10:21:01Z</time>
      </trkpt>
      <trkpt lat="40.541397" lon="-2.684718">
        <ele>953.1</ele>
        <time>2015-02-22T10:21:07Z</time>
      </trkpt>
      <trkpt lat="40.541307" lon="-2.684745">
        <ele>954.2</ele>
        <time>2015-02-22T10:21:13Z</time>
      </trkpt>
      <trkpt lat="40.541212" lon="-2.684763">
        <ele>955.5</ele>
        <time>2015-02-22T10:21:20Z</time>
      </trkpt>
      <trkpt lat="40.541120" lon="-2.684766">
        <ele>956.8</ele>
        <time>2015-02-22T10:21:29Z</time>
      </trkpt>
      <trkpt lat="40.541022" lon="-2.684745">
        <ele>958.2</ele>
        <time>2015-02-22T10:21:38Z</time>
      </trkpt>
      <trkpt lat="40.540932" lon="-2.684718">
        <ele>959.6</ele>
        <time>2015-02-22T10:21:48Z</time>
      </trkpt>
      <trkpt lat="40.540842" lon="-2.684682">
        <ele>961.0</ele>
        <time>2015-02-22T10:21:57Z</time>
      </trkpt>
      <trkpt lat="40.540750" lon="-2.684636">
        <ele>961.9</ele>
        <time>2015-02-22T10:22:05Z</time>
      </trkpt>
      <trkpt lat="40.540654" lon="-2.684616">
        <ele>962.7</ele>
        <time>2015-02-22T10:22:11Z</time>
      </trkpt>
      <trkpt lat="40.540562" lon="-2.684610">
        <ele>963.4</ele>
        <time>2015-02-22T10:22:16Z</time>
      </trkpt>
      <trkpt lat="40.540463" lon="-2.684660">
        <ele>964.0</ele>
        <time>2015-02-22T10:22:23Z</time>
      </trkpt>
      <trkpt lat="40.540377" lon="-2.684713">
        <ele>964.7</ele>
        <time>2015-02-22T10:22:30Z</time>
      </trkpt>
      <trkpt lat="40.540292" lon="-2.684790">
        <ele>965.3</ele>
        <time>2015-02-22T10:22:37Z</time>
      </trkpt>
      <trkpt lat="40.540222" lon="-2.684873">
        <ele>965.9</ele>
        <time>2015-02-22T10:22:43Z</time>
      </trkpt>
      <trkpt lat="40.540148" lon="-2.684951">
        <ele>966.5</ele>
        <time>2015-02-22T10:22:49Z</time>
      </trkpt>
      <trkpt lat="40.540080" lon="-2.685033">
        <ele>967.6</ele>
        <time>2015-02-22T10:22:55Z</time>
      </trkpt>
      <trkpt lat="40.540005" lon="-2.685123">
        <ele>969.3</ele>
        <time>2015-02-22T10:23:02Z</time>
      </trkpt>
      <trkpt lat="40.539927" lon="-2.685211">
        <ele>970.7</ele>
        <time>2015-02-22T10:23:09Z</time>
      </trkpt>
      <trkpt lat="40.539847" lon="-2.685291">
        <ele>971.8</ele>
        <time>2015-02-22T10:23:17Z</time>
      </trkpt>
      <trkpt lat="40.539777" lon="-2.685368">
        <ele>972.7</ele>
        <time>2015-02-22T10:23:24Z</time>
      </trkpt>
      <trkpt lat="40.539712" lon="-2.685463">
        <ele>973.6</ele>
        <time>2015-02-22T10:23:31Z</time>
      </trkpt>
      <trkpt lat="40.539647" lon="-2.685565">
        <ele>974.6</ele>
        <time>2015-02-22T10:23:38Z</time>
      </trkpt>
      <trkpt lat="40.539558" lon="-2.685643">
        <ele>975.2</ele>
        <time>2015-02-22T10:23:45Z</time>
      </trkpt>
      <trkpt lat="40.539487" lon="-2.685718">
        <ele>975.6</ele>
        <time>2015-02-22T10:23:50Z</time>
      </trkpt>
      <trkpt lat="40.539437" lon="-2.685823">
        <ele>976.3</ele>
        <time>2015-02-22T10:23:56Z</time>
      </trkpt>
      <trkpt lat="40.539404" lon="-2.685950">
        <ele>977.2</ele>
        <time>2015-02-22T10:24:02Z</time>
      </trkpt>
      <trkpt lat="40.539368" lon="-2.686070">
        <ele>978.1</ele>
        <time>2015-02-22T10:24:10Z</time>
      </trkpt>
      <trkpt lat="40.539330" lon="-2.686196">
        <ele>979.2</ele>
        <time>2015-02-22T10:24:17Z</time>
      </trkpt>
      <trkpt lat="40.539290" lon="-2.686313">
        <ele>980.1</ele>
        <time>2015-02-22T10:24:23Z</time>
      </trkpt>
      <trkpt lat="40.539258" lon="-2.686426">
        <ele>981.1</ele>
        <time>2015-02-22T10:24:28Z</time>
      </trkpt>
      <trkpt lat="40.539225" lon="-2.686540">
        <ele>982.0</ele>
        <time>2015-02-22T10:24:33Z</time>
      </trkpt>
      <trkpt lat="40.539185" lon="-2.686662">
        <ele>983.0</ele>
        <time>2015-02-22T10:24:39Z</time>
      </trkpt>
      <trkpt lat="40.539143" lon="-2.686768">
        <ele>983.1</ele>
        <time>2015-02-22T10:24:45Z</time>
      </trkpt>
      <trkpt lat="40.539097" lon="-2.686885">
        <ele>983.2</ele>
        <time>2015-02-22T10:24:51Z</time>
      </trkpt>
      <trkpt lat="40.539057" lon="-2.686998">
        <ele>983.2</ele>
        <time>2015-02-22T10:24:56Z</time>
      </trkpt>
      <trkpt lat="40.539017" lon="-2.687108">
        <ele>983.3</ele>
        <time>2015-02-22T10:25:01Z</time>
      </trkpt>
      <trkpt lat="40.538964" lon="-2.687230">
        <ele>983.3</ele>
        <time>2015-02-22T10:25:07Z</time>
      </trkpt>
      <trkpt lat="40.538910" lon="-2.687330">
        <ele>983.2</ele>
        <time>2015-02-22T10:25:12Z</time>
      </trkpt>
      <trkpt lat="40.538857" lon="-2.687435">
        <ele>983.2</ele>
        <time>2015-02-22T10:25:17Z</time>
      </trkpt>
      <trkpt lat="40.538803" lon="-2.687533">
        <ele>983.2</ele>
        <time>2015-02-22T10:25:22Z</time>
      </trkpt>
      <trkpt lat="40.538759" lon="-2.687643">
        <ele>983.2</ele>
        <time>2015-02-22T10:25:28Z</time>
      </trkpt>
      <trkpt lat="40.538712" lon="-2.687750">
        <ele>983.3</ele>
        <time>2015-02-22T10:25:34Z</time>
      </trkpt>
      <trkpt lat="40.538667" lon="-2.687865">
        <ele>983.4</ele>
        <time>2015-02-22T10:25:40Z</time>
      </trkpt>
      <trkpt lat="40.538625" lon="-2.687983">
        <ele>983.6</ele>
        <time>2015-02-22T10:25:46Z</time>
      </trkpt>
      <trkpt lat="40.538583" lon="-2.688091">
        <ele>983.9</ele>
        <time>2015-02-22T10:25:51Z</time>
      </trkpt>
      <trkpt lat="40.538535" lon="-2.688218">
        <ele>984.2</ele>
        <time>2015-02-22T10:25:57Z</time>
      </trkpt>
      <trkpt lat="40.538492" lon="-2.688330">
        <ele>984.6</ele>
        <time>2015-02-22T10:26:02Z</time>
      </trkpt>
      <trkpt lat="40.538448" lon="-2.688445">
        <ele>984.6</ele>
        <time>2015-02-22T10:26:07Z</time>
      </trkpt>
      <trkpt lat="40.538394" lon="-2.688548">
        <ele>984.7</ele>
        <time>2015-02-22T10:26:12Z</time>
      </trkpt>
      <trkpt lat="40.538320" lon="-2.688636">
        <ele>985.0</ele>
        <time>2015-02-22T10:26:17Z</time>
      </trkpt>
      <trkpt lat="40.538247" lon="-2.688723">
        <ele>985.1</ele>
        <time>2015-02-22T10:26:22Z</time>
      </trkpt>
      <trkpt lat="40.538179" lon="-2.688815">
        <ele>985.3</ele>
        <time>2015-02-22T10:26:27Z</time>
      </trkpt>
      <trkpt lat="40.538107" lon="-2.688891">
        <ele>985.5</ele>
        <time>2015-02-22T10:26:32Z</time>
      </trkpt>
      <trkpt lat="40.538023" lon="-2.688978">
        <ele>985.7</ele>
        <time>2015-02-22T10:26:38Z</time>
      </trkpt>
      <trkpt lat="40.537949" lon="-2.689047">
        <ele>985.9</ele>
        <time>2015-02-22T10:26:44Z</time>
      </trkpt>
      <trkpt lat="40.537922" lon="-2.689181">
        <ele>985.8</ele>
        <time>2015-02-22T10:26:51Z</time>
      </trkpt>
      <trkpt lat="40.537902" lon="-2.689315">
        <ele>983.8</ele>
        <time>2015-02-22T10:26:56Z</time>
      </trkpt>
      <trkpt lat="40.537850" lon="-2.689420">
        <ele>982.6</ele>
        <time>2015-02-22T10:27:00Z</time>
      </trkpt>
      <trkpt lat="40.537772" lon="-2.689480">
        <ele>982.4</ele>
        <time>2015-02-22T10:27:04Z</time>
      </trkpt>
      <trkpt lat="40.537670" lon="-2.689521">
        <ele>982.4</ele>
        <time>2015-02-22T10:27:09Z</time>
      </trkpt>
      <trkpt lat="40.537578" lon="-2.689588">
        <ele>982.3</ele>
        <time>2015-02-22T10:27:14Z</time>
      </trkpt>
      <trkpt lat="40.537515" lon="-2.689682">
        <ele>981.9</ele>
        <time>2015-02-22T10:27:19Z</time>
      </trkpt>
      <trkpt lat="40.537490" lon="-2.689797">
        <ele>981.0</ele>
        <time>2015-02-22T10:27:40Z</time>
      </trkpt>
      <trkpt lat="40.537505" lon="-2.689916">
        <ele>979.7</ele>
        <time>2015-02-22T10:30:16Z</time>
      </trkpt>
      <trkpt lat="40.537417" lon="-2.689881">
        <ele>980.8</ele>
        <time>2015-02-22T10:32:46Z</time>
      </trkpt>
      <trkpt lat="40.537350" lon="-2.689963">
        <ele>980.8</ele>
        <time>2015-02-22T10:36:29Z</time>
      </trkpt>
      <trkpt lat="40.537260" lon="-2.689958">
        <ele>981.6</ele>
        <time>2015-02-22T10:37:24Z</time>
      </trkpt>
      <trkpt lat="40.537165" lon="-2.689948">
        <ele>982.6</ele>
        <time>2015-02-22T10:37:48Z</time>
      </trkpt>
      <trkpt lat="40.537077" lon="-2.689996">
        <ele>983.1</ele>
        <time>2015-02-22T10:37:58Z</time>
      </trkpt>
      <trkpt lat="40.536985" lon="-2.690022">
        <ele>983.4</ele>
        <time>2015-02-22T10:38:09Z</time>
      </trkpt>
      <trkpt lat="40.536885" lon="-2.690028">
        <ele>984.3</ele>
        <time>2015-02-22T10:38:17Z</time>
      </trkpt>
      <trkpt lat="40.536792" lon="-2.690065">
        <ele>984.4</ele>
        <time>2015-02-22T10:38:23Z</time>
      </trkpt>
      <trkpt lat="40.536697" lon="-2.690086">
        <ele>984.9</ele>
        <time>2015-02-22T10:38:30Z</time>
      </trkpt>
      <trkpt lat="40.536599" lon="-2.690110">
        <ele>984.9</ele>
        <time>2015-02-22T10:38:37Z</time>
      </trkpt>
      <trkpt lat="40.536502" lon="-2.690148">
        <ele>984.5</ele>
        <time>2015-02-22T10:38:41Z</time>
      </trkpt>
      <trkpt lat="40.536413" lon="-2.690200">
        <ele>983.8</ele>
        <time>2015-02-22T10:38:44Z</time>
      </trkpt>
      <trkpt lat="40.536313" lon="-2.690270">
        <ele>983.0</ele>
        <time>2015-02-22T10:38:48Z</time>
      </trkpt>
      <trkpt lat="40.536195" lon="-2.690316">
        <ele>982.5</ele>
        <time>2015-02-22T10:38:51Z</time>
      </trkpt>
      <trkpt lat="40.536093" lon="-2.690343">
        <ele>982.5</ele>
        <time>2015-02-22T10:38:53Z</time>
      </trkpt>
      <trkpt lat="40.535997" lon="-2.690373">
        <ele>982.5</ele>
        <time>2015-02-22T10:38:55Z</time>
      </trkpt>
      <trkpt lat="40.535882" lon="-2.690387">
        <ele>982.7</ele>
        <time>2015-02-22T10:38:57Z</time>
      </trkpt>
      <trkpt lat="40.535765" lon="-2.690415">
        <ele>982.7</ele>
        <time>2015-02-22T10:38:59Z</time>
      </trkpt>
      <trkpt lat="40.535645" lon="-2.690457">
        <ele>982.4</ele>
        <time>2015-02-22T10:39:01Z</time>
      </trkpt>
      <trkpt lat="40.535522" lon="-2.690497">
        <ele>982.4</ele>
        <time>2015-02-22T10:39:03Z</time>
      </trkpt>
      <trkpt lat="40.535387" lon="-2.690528">
        <ele>982.5</ele>
        <time>2015-02-22T10:39:05Z</time>
      </trkpt>
      <trkpt lat="40.535244" lon="-2.690558">
        <ele>982.9</ele>
        <time>2015-02-22T10:39:07Z</time>
      </trkpt>
      <trkpt lat="40.535097" lon="-2.690593">
        <ele>983.4</ele>
        <time>2015-02-22T10:39:09Z</time>
      </trkpt>
      <trkpt lat="40.534945" lon="-2.690626">
        <ele>983.6</ele>
        <time>2015-02-22T10:39:11Z</time>
      </trkpt>
      <trkpt lat="40.534797" lon="-2.690673">
        <ele>982.9</ele>
        <time>2015-02-22T10:39:13Z</time>
      </trkpt>
      <trkpt lat="40.534648" lon="-2.690712">
        <ele>982.3</ele>
        <time>2015-02-22T10:39:15Z</time>
      </trkpt>
      <trkpt lat="40.534499" lon="-2.690722">
        <ele>981.9</ele>
        <time>2015-02-22T10:39:17Z</time>
      </trkpt>
      <trkpt lat="40.534350" lon="-2.690708">
        <ele>981.4</ele>
        <time>2015-02-22T10:39:19Z</time>
      </trkpt>
      <trkpt lat="40.534215" lon="-2.690740">
        <ele>981.0</ele>
        <time>2015-02-22T10:39:21Z</time>
      </trkpt>
      <trkpt lat="40.534110" lon="-2.690791">
        <ele>980.8</ele>
        <time>2015-02-22T10:39:23Z</time>
      </trkpt>
      <trkpt lat="40.534005" lon="-2.690860">
        <ele>980.1</ele>
        <time>2015-02-22T10:39:26Z</time>
      </trkpt>
      <trkpt lat="40.533902" lon="-2.690928">
        <ele>978.4</ele>
        <time>2015-02-22T10:39:30Z</time>
      </trkpt>
      <trkpt lat="40.533814" lon="-2.690976">
        <ele>977.6</ele>
        <time>2015-02-22T10:39:33Z</time>
      </trkpt>
      <trkpt lat="40.533705" lon="-2.691033">
        <ele>976.4</ele>
        <time>2015-02-22T10:39:37Z</time>
      </trkpt>
      <trkpt lat="40.533607" lon="-2.691081">
        <ele>975.7</ele>
        <time>2015-02-22T10:39:41Z</time>
      </trkpt>
      <trkpt lat="40.533507" lon="-2.691110">
        <ele>975.1</ele>
        <time>2015-02-22T10:39:45Z</time>
      </trkpt>
      <trkpt lat="40.533402" lon="-2.691128">
        <ele>975.0</ele>
        <time>2015-02-22T10:39:48Z</time>
      </trkpt>
      <trkpt lat="40.533287" lon="-2.691143">
        <ele>975.1</ele>
        <time>2015-02-22T10:39:51Z</time>
      </trkpt>
      <trkpt lat="40.533167" lon="-2.691168">
        <ele>975.5</ele>
        <time>2015-02-22T10:39:54Z</time>
      </trkpt>
      <trkpt lat="40.533047" lon="-2.691196">
        <ele>976.0</ele>
        <time>2015-02-22T10:39:57Z</time>
      </trkpt>
      <trkpt lat="40.532937" lon="-2.691220">
        <ele>976.4</ele>
        <time>2015-02-22T10:40:00Z</time>
      </trkpt>
      <trkpt lat="40.532835" lon="-2.691240">
        <ele>976.8</ele>
        <time>2015-02-22T10:40:03Z</time>
      </trkpt>
      <trkpt lat="40.532737" lon="-2.691266">
        <ele>977.2</ele>
        <time>2015-02-22T10:40:06Z</time>
      </trkpt>
      <trkpt lat="40.532637" lon="-2.691300">
        <ele>977.7</ele>
        <time>2015-02-22T10:40:09Z</time>
      </trkpt>
      <trkpt lat="40.532542" lon="-2.691325">
        <ele>978.1</ele>
        <time>2015-02-22T10:40:12Z</time>
      </trkpt>
      <trkpt lat="40.532425" lon="-2.691365">
        <ele>978.4</ele>
        <time>2015-02-22T10:40:16Z</time>
      </trkpt>
      <trkpt lat="40.532320" lon="-2.691423">
        <ele>978.4</ele>
        <time>2015-02-22T10:40:20Z</time>
      </trkpt>
      <trkpt lat="40.532234" lon="-2.691471">
        <ele>978.5</ele>
        <time>2015-02-22T10:40:23Z</time>
      </trkpt>
      <trkpt lat="40.532124" lon="-2.691520">
        <ele>978.6</ele>
        <time>2015-02-22T10:40:27Z</time>
      </trkpt>
      <trkpt lat="40.532037" lon="-2.691555">
        <ele>978.8</ele>
        <time>2015-02-22T10:40:30Z</time>
      </trkpt>
      <trkpt lat="40.531945" lon="-2.691590">
        <ele>979.0</ele>
        <time>2015-02-22T10:40:34Z</time>
      </trkpt>
      <trkpt lat="40.531852" lon="-2.691618">
        <ele>979.3</ele>
        <time>2015-02-22T10:40:38Z</time>
      </trkpt>
      <trkpt lat="40.531758" lon="-2.691632">
        <ele>979.7</ele>
        <time>2015-02-22T10:40:42Z</time>
      </trkpt>
      <trkpt lat="40.531665" lon="-2.691651">
        <ele>980.0</ele>
        <time>2015-02-22T10:40:46Z</time>
      </trkpt>
      <trkpt lat="40.531570" lon="-2.691683">
        <ele>980.2</ele>
        <time>2015-02-22T10:40:50Z</time>
      </trkpt>
      <trkpt lat="40.531489" lon="-2.691737">
        <ele>979.8</ele>
        <time>2015-02-22T10:40:54Z</time>
      </trkpt>
      <trkpt lat="40.531398" lon="-2.691793">
        <ele>979.5</ele>
        <time>2015-02-22T10:40:59Z</time>
      </trkpt>
      <trkpt lat="40.531320" lon="-2.691870">
        <ele>978.7</ele>
        <time>2015-02-22T10:41:05Z</time>
      </trkpt>
      <trkpt lat="40.531227" lon="-2.691940">
        <ele>978.5</ele>
        <time>2015-02-22T10:41:11Z</time>
      </trkpt>
      <trkpt lat="40.531155" lon="-2.692018">
        <ele>977.9</ele>
        <time>2015-02-22T10:41:16Z</time>
      </trkpt>
      <trkpt lat="40.531087" lon="-2.692100">
        <ele>977.2</ele>
        <time>2015-02-22T10:41:21Z</time>
      </trkpt>
      <trkpt lat="40.531012" lon="-2.692177">
        <ele>977.1</ele>
        <time>2015-02-22T10:41:26Z</time>
      </trkpt>
      <trkpt lat="40.530927" lon="-2.692253">
        <ele>977.1</ele>
        <time>2015-02-22T10:41:31Z</time>
      </trkpt>
      <trkpt lat="40.530832" lon="-2.692305">
        <ele>977.8</ele>
        <time>2015-02-22T10:41:36Z</time>
      </trkpt>
      <trkpt lat="40.530740" lon="-2.692360">
        <ele>978.2</ele>
        <time>2015-02-22T10:41:41Z</time>
      </trkpt>
      <trkpt lat="40.530645" lon="-2.692400">
        <ele>979.1</ele>
        <time>2015-02-22T10:41:46Z</time>
      </trkpt>
      <trkpt lat="40.530552" lon="-2.692428">
        <ele>980.1</ele>
        <time>2015-02-22T10:41:51Z</time>
      </trkpt>
      <trkpt lat="40.530459" lon="-2.692456">
        <ele>981.2</ele>
        <time>2015-02-22T10:41:56Z</time>
      </trkpt>
      <trkpt lat="40.530359" lon="-2.692492">
        <ele>982.4</ele>
        <time>2015-02-22T10:42:02Z</time>
      </trkpt>
      <trkpt lat="40.530263" lon="-2.692518">
        <ele>983.3</ele>
        <time>2015-02-22T10:42:07Z</time>
      </trkpt>
      <trkpt lat="40.530155" lon="-2.692546">
        <ele>984.5</ele>
        <time>2015-02-22T10:42:12Z</time>
      </trkpt>
      <trkpt lat="40.530058" lon="-2.692560">
        <ele>985.7</ele>
        <time>2015-02-22T10:42:16Z</time>
      </trkpt>
      <trkpt lat="40.529958" lon="-2.692593">
        <ele>986.4</ele>
        <time>2015-02-22T10:42:20Z</time>
      </trkpt>
      <trkpt lat="40.529852" lon="-2.692628">
        <ele>986.1</ele>
        <time>2015-02-22T10:42:25Z</time>
      </trkpt>
      <trkpt lat="40.529743" lon="-2.692675">
        <ele>985.7</ele>
        <time>2015-02-22T10:42:29Z</time>
      </trkpt>
      <trkpt lat="40.529645" lon="-2.692723">
        <ele>985.5</ele>
        <time>2015-02-22T10:42:32Z</time>
      </trkpt>
      <trkpt lat="40.529542" lon="-2.692758">
        <ele>985.4</ele>
        <time>2015-02-22T10:42:35Z</time>
      </trkpt>
      <trkpt lat="40.529420" lon="-2.692761">
        <ele>986.1</ele>
        <time>2015-02-22T10:42:38Z</time>
      </trkpt>
      <trkpt lat="40.529290" lon="-2.692750">
        <ele>986.9</ele>
        <time>2015-02-22T10:42:41Z</time>
      </trkpt>
      <trkpt lat="40.529163" lon="-2.692755">
        <ele>987.6</ele>
        <time>2015-02-22T10:42:44Z</time>
      </trkpt>
      <trkpt lat="40.529070" lon="-2.692755">
        <ele>987.6</ele>
        <time>2015-02-22T10:42:46Z</time>
      </trkpt>
      <trkpt lat="40.528970" lon="-2.692755">
        <ele>987.5</ele>
        <time>2015-02-22T10:42:48Z</time>
      </trkpt>
      <trkpt lat="40.528862" lon="-2.692765">
        <ele>987.3</ele>
        <time>2015-02-22T10:42:50Z</time>
      </trkpt>
      <trkpt lat="40.528745" lon="-2.692771">
        <ele>987.2</ele>
        <time>2015-02-22T10:42:52Z</time>
      </trkpt>
      <trkpt lat="40.528630" lon="-2.692806">
        <ele>986.7</ele>
        <time>2015-02-22T10:42:54Z</time>
      </trkpt>
      <trkpt lat="40.528510" lon="-2.692830">
        <ele>986.3</ele>
        <time>2015-02-22T10:42:56Z</time>
      </trkpt>
      <trkpt lat="40.528392" lon="-2.692847">
        <ele>986.2</ele>
        <time>2015-02-22T10:42:58Z</time>
      </trkpt>
      <trkpt lat="40.528278" lon="-2.692865">
        <ele>985.7</ele>
        <time>2015-02-22T10:43:00Z</time>
      </trkpt>
      <trkpt lat="40.528178" lon="-2.692900">
        <ele>984.6</ele>
        <time>2015-02-22T10:43:02Z</time>
      </trkpt>
      <trkpt lat="40.528097" lon="-2.692952">
        <ele>983.5</ele>
        <time>2015-02-22T10:43:04Z</time>
      </trkpt>
      <trkpt lat="40.528014" lon="-2.693015">
        <ele>982.3</ele>
        <time>2015-02-22T10:43:07Z</time>
      </trkpt>
      <trkpt lat="40.527933" lon="-2.693078">
        <ele>981.1</ele>
        <time>2015-02-22T10:43:11Z</time>
      </trkpt>
      <trkpt lat="40.527842" lon="-2.693153">
        <ele>979.8</ele>
        <time>2015-02-22T10:43:16Z</time>
      </trkpt>
      <trkpt lat="40.527750" lon="-2.693110">
        <ele>979.7</ele>
        <time>2015-02-22T10:43:22Z</time>
      </trkpt>
      <trkpt lat="40.527708" lon="-2.693005">
        <ele>980.5</ele>
        <time>2015-02-22T10:43:27Z</time>
      </trkpt>
      <trkpt lat="40.527635" lon="-2.692903">
        <ele>981.0</ele>
        <time>2015-02-22T10:43:33Z</time>
      </trkpt>
      <trkpt lat="40.527542" lon="-2.692858">
        <ele>980.8</ele>
        <time>2015-02-22T10:43:44Z</time>
      </trkpt>
      <trkpt lat="40.527440" lon="-2.692876">
        <ele>980.2</ele>
        <time>2015-02-22T10:43:48Z</time>
      </trkpt>
      <trkpt lat="40.527334" lon="-2.692901">
        <ele>979.7</ele>
        <time>2015-02-22T10:43:52Z</time>
      </trkpt>
      <trkpt lat="40.527234" lon="-2.692935">
        <ele>979.1</ele>
        <time>2015-02-22T10:43:55Z</time>
      </trkpt>
      <trkpt lat="40.527142" lon="-2.692963">
        <ele>978.7</ele>
        <time>2015-02-22T10:43:58Z</time>
      </trkpt>
      <trkpt lat="40.527052" lon="-2.692967">
        <ele>978.6</ele>
        <time>2015-02-22T10:44:00Z</time>
      </trkpt>
      <trkpt lat="40.526923" lon="-2.692920">
        <ele>978.5</ele>
        <time>2015-02-22T10:44:03Z</time>
      </trkpt>
      <trkpt lat="40.526807" lon="-2.692875">
        <ele>978.6</ele>
        <time>2015-02-22T10:44:06Z</time>
      </trkpt>
      <trkpt lat="40.526712" lon="-2.692895">
        <ele>978.2</ele>
        <time>2015-02-22T10:44:09Z</time>
      </trkpt>
      <trkpt lat="40.526617" lon="-2.692888">
        <ele>977.8</ele>
        <time>2015-02-22T10:44:15Z</time>
      </trkpt>
      <trkpt lat="40.526529" lon="-2.692838">
        <ele>977.5</ele>
        <time>2015-02-22T10:44:24Z</time>
      </trkpt>
      <trkpt lat="40.526435" lon="-2.692808">
        <ele>977.1</ele>
        <time>2015-02-22T10:44:30Z</time>
      </trkpt>
      <trkpt lat="40.526345" lon="-2.692806">
        <ele>976.6</ele>
        <time>2015-02-22T10:44:37Z</time>
      </trkpt>
      <trkpt lat="40.526260" lon="-2.692852">
        <ele>975.8</ele>
        <time>2015-02-22T10:44:53Z</time>
      </trkpt>
      <trkpt lat="40.526170" lon="-2.692862">
        <ele>975.2</ele>
        <time>2015-02-22T10:45:21Z</time>
      </trkpt>
      <trkpt lat="40.526100" lon="-2.692785">
        <ele>975.4</ele>
        <time>2015-02-22T10:46:27Z</time>
      </trkpt>
      <trkpt lat="40.526004" lon="-2.692791">
        <ele>974.8</ele>
        <time>2015-02-22T10:46:42Z</time>
      </trkpt>
      <trkpt lat="40.525907" lon="-2.692793">
        <ele>974.2</ele>
        <time>2015-02-22T10:46:47Z</time>
      </trkpt>
      <trkpt lat="40.525802" lon="-2.692808">
        <ele>973.5</ele>
        <time>2015-02-22T10:46:52Z</time>
      </trkpt>
      <trkpt lat="40.525697" lon="-2.692838">
        <ele>972.8</ele>
        <time>2015-02-22T10:46:57Z</time>
      </trkpt>
      <trkpt lat="40.525600" lon="-2.692868">
        <ele>971.9</ele>
        <time>2015-02-22T10:47:01Z</time>
      </trkpt>
      <trkpt lat="40.525508" lon="-2.692906">
        <ele>971.1</ele>
        <time>2015-02-22T10:47:05Z</time>
      </trkpt>
      <trkpt lat="40.525415" lon="-2.692920">
        <ele>970.6</ele>
        <time>2015-02-22T10:47:09Z</time>
      </trkpt>
      <trkpt lat="40.525309" lon="-2.692918">
        <ele>970.3</ele>
        <time>2015-02-22T10:47:13Z</time>
      </trkpt>
      <trkpt lat="40.525204" lon="-2.692910">
        <ele>969.9</ele>
        <time>2015-02-22T10:47:17Z</time>
      </trkpt>
      <trkpt lat="40.525104" lon="-2.692901">
        <ele>969.6</ele>
        <time>2015-02-22T10:47:22Z</time>
      </trkpt>
      <trkpt lat="40.525010" lon="-2.692911">
        <ele>969.0</ele>
        <time>2015-02-22T10:47:26Z</time>
      </trkpt>
      <trkpt lat="40.524907" lon="-2.692905">
        <ele>969.7</ele>
        <time>2015-02-22T10:47:30Z</time>
      </trkpt>
      <trkpt lat="40.524808" lon="-2.692870">
        <ele>970.7</ele>
        <time>2015-02-22T10:47:34Z</time>
      </trkpt>
      <trkpt lat="40.524719" lon="-2.692833">
        <ele>971.7</ele>
        <time>2015-02-22T10:47:38Z</time>
      </trkpt>
      <trkpt lat="40.524625" lon="-2.692783">
        <ele>972.9</ele>
        <time>2015-02-22T10:47:42Z</time>
      </trkpt>
      <trkpt lat="40.524535" lon="-2.692723">
        <ele>974.3</ele>
        <time>2015-02-22T10:47:46Z</time>
      </trkpt>
      <trkpt lat="40.524447" lon="-2.692666">
        <ele>975.6</ele>
        <time>2015-02-22T10:47:50Z</time>
      </trkpt>
      <trkpt lat="40.524355" lon="-2.692612">
        <ele>977.0</ele>
        <time>2015-02-22T10:47:54Z</time>
      </trkpt>
      <trkpt lat="40.524263" lon="-2.692571">
        <ele>978.2</ele>
        <time>2015-02-22T10:47:58Z</time>
      </trkpt>
      <trkpt lat="40.524165" lon="-2.692525">
        <ele>979.7</ele>
        <time>2015-02-22T10:48:02Z</time>
      </trkpt>
      <trkpt lat="40.524068" lon="-2.692485">
        <ele>980.5</ele>
        <time>2015-02-22T10:48:06Z</time>
      </trkpt>
      <trkpt lat="40.523964" lon="-2.692448">
        <ele>981.1</ele>
        <time>2015-02-22T10:48:10Z</time>
      </trkpt>
      <trkpt lat="40.523852" lon="-2.692387">
        <ele>981.7</ele>
        <time>2015-02-22T10:48:14Z</time>
      </trkpt>
      <trkpt lat="40.523765" lon="-2.692321">
        <ele>982.2</ele>
        <time>2015-02-22T10:48:17Z</time>
      </trkpt>
      <trkpt lat="40.523664" lon="-2.692231">
        <ele>982.8</ele>
        <time>2015-02-22T10:48:21Z</time>
      </trkpt>
      <trkpt lat="40.523559" lon="-2.692155">
        <ele>983.4</ele>
        <time>2015-02-22T10:48:25Z</time>
      </trkpt>
      <trkpt lat="40.523455" lon="-2.692135">
        <ele>983.9</ele>
        <time>2015-02-22T10:48:28Z</time>
      </trkpt>
      <trkpt lat="40.523340" lon="-2.692147">
        <ele>984.4</ele>
        <time>2015-02-22T10:48:31Z</time>
      </trkpt>
      <trkpt lat="40.523227" lon="-2.692173">
        <ele>984.1</ele>
        <time>2015-02-22T10:48:34Z</time>
      </trkpt>
      <trkpt lat="40.523125" lon="-2.692192">
        <ele>983.6</ele>
        <time>2015-02-22T10:48:37Z</time>
      </trkpt>
      <trkpt lat="40.523018" lon="-2.692208">
        <ele>983.2</ele>
        <time>2015-02-22T10:48:40Z</time>
      </trkpt>
      <trkpt lat="40.522907" lon="-2.692215">
        <ele>982.8</ele>
        <time>2015-02-22T10:48:43Z</time>
      </trkpt>
      <trkpt lat="40.522795" lon="-2.692220">
        <ele>982.4</ele>
        <time>2015-02-22T10:48:46Z</time>
      </trkpt>
      <trkpt lat="40.522679" lon="-2.692208">
        <ele>982.0</ele>
        <time>2015-02-22T10:48:50Z</time>
      </trkpt>
      <trkpt lat="40.522585" lon="-2.692195">
        <ele>981.8</ele>
        <time>2015-02-22T10:48:53Z</time>
      </trkpt>
      <trkpt lat="40.522463" lon="-2.692175">
        <ele>981.7</ele>
        <time>2015-02-22T10:48:56Z</time>
      </trkpt>
      <trkpt lat="40.522357" lon="-2.692163">
        <ele>981.8</ele>
        <time>2015-02-22T10:48:58Z</time>
      </trkpt>
      <trkpt lat="40.522228" lon="-2.692145">
        <ele>982.0</ele>
        <time>2015-02-22T10:49:00Z</time>
      </trkpt>
      <trkpt lat="40.522089" lon="-2.692115">
        <ele>982.3</ele>
        <time>2015-02-22T10:49:02Z</time>
      </trkpt>
      <trkpt lat="40.521940" lon="-2.692085">
        <ele>982.8</ele>
        <time>2015-02-22T10:49:04Z</time>
      </trkpt>
      <trkpt lat="40.521807" lon="-2.692062">
        <ele>983.1</ele>
        <time>2015-02-22T10:49:06Z</time>
      </trkpt>
      <trkpt lat="40.521712" lon="-2.692038">
        <ele>983.5</ele>
        <time>2015-02-22T10:49:08Z</time>
      </trkpt>
      <trkpt lat="40.521627" lon="-2.691993">
        <ele>983.9</ele>
        <time>2015-02-22T10:49:16Z</time>
      </trkpt>
      <trkpt lat="40.521517" lon="-2.691970">
        <ele>982.8</ele>
        <time>2015-02-22T10:50:44Z</time>
      </trkpt>
      <trkpt lat="40.521392" lon="-2.691955">
        <ele>981.7</ele>
        <time>2015-02-22T10:50:47Z</time>
      </trkpt>
      <trkpt lat="40.521292" lon="-2.691927">
        <ele>980.9</ele>
        <time>2015-02-22T10:50:49Z</time>
      </trkpt>
      <trkpt lat="40.521174" lon="-2.691896">
        <ele>979.9</ele>
        <time>2015-02-22T10:50:51Z</time>
      </trkpt>
      <trkpt lat="40.521055" lon="-2.691876">
        <ele>978.8</ele>
        <time>2015-02-22T10:50:53Z</time>
      </trkpt>
      <trkpt lat="40.520955" lon="-2.691855">
        <ele>977.9</ele>
        <time>2015-02-22T10:50:55Z</time>
      </trkpt>
      <trkpt lat="40.520865" lon="-2.691830">
        <ele>977.1</ele>
        <time>2015-02-22T10:50:57Z</time>
      </trkpt>
      <trkpt lat="40.520744" lon="-2.691798">
        <ele>976.7</ele>
        <time>2015-02-22T10:51:00Z</time>
      </trkpt>
      <trkpt lat="40.520630" lon="-2.691780">
        <ele>976.1</ele>
        <time>2015-02-22T10:51:03Z</time>
      </trkpt>
      <trkpt lat="40.520510" lon="-2.691763">
        <ele>975.5</ele>
        <time>2015-02-22T10:51:06Z</time>
      </trkpt>
      <trkpt lat="40.520378" lon="-2.691740">
        <ele>975.0</ele>
        <time>2015-02-22T10:51:09Z</time>
      </trkpt>
      <trkpt lat="40.520279" lon="-2.691730">
        <ele>974.6</ele>
        <time>2015-02-22T10:51:11Z</time>
      </trkpt>
      <trkpt lat="40.520184" lon="-2.691722">
        <ele>974.0</ele>
        <time>2015-02-22T10:51:13Z</time>
      </trkpt>
      <trkpt lat="40.520092" lon="-2.691715">
        <ele>973.6</ele>
        <time>2015-02-22T10:51:15Z</time>
      </trkpt>
      <trkpt lat="40.519972" lon="-2.691717">
        <ele>973.0</ele>
        <time>2015-02-22T10:51:18Z</time>
      </trkpt>
      <trkpt lat="40.519874" lon="-2.691738">
        <ele>972.4</ele>
        <time>2015-02-22T10:51:21Z</time>
      </trkpt>
      <trkpt lat="40.519775" lon="-2.691745">
        <ele>972.3</ele>
        <time>2015-02-22T10:51:24Z</time>
      </trkpt>
      <trkpt lat="40.519678" lon="-2.691751">
        <ele>972.0</ele>
        <time>2015-02-22T10:51:30Z</time>
      </trkpt>
      <trkpt lat="40.519580" lon="-2.691781">
        <ele>971.4</ele>
        <time>2015-02-22T10:51:35Z</time>
      </trkpt>
      <trkpt lat="40.519488" lon="-2.691786">
        <ele>971.0</ele>
        <time>2015-02-22T10:51:40Z</time>
      </trkpt>
      <trkpt lat="40.519409" lon="-2.691717">
        <ele>972.4</ele>
        <time>2015-02-22T10:51:45Z</time>
      </trkpt>
      <trkpt lat="40.519317" lon="-2.691725">
        <ele>972.0</ele>
        <time>2015-02-22T10:51:51Z</time>
      </trkpt>
      <trkpt lat="40.519240" lon="-2.691805">
        <ele>970.5</ele>
        <time>2015-02-22T10:51:56Z</time>
      </trkpt>
      <trkpt lat="40.519159" lon="-2.691893">
        <ele>968.8</ele>
        <time>2015-02-22T10:51:59Z</time>
      </trkpt>
      <trkpt lat="40.519065" lon="-2.691923">
        <ele>968.7</ele>
        <time>2015-02-22T10:52:01Z</time>
      </trkpt>
      <trkpt lat="40.518974" lon="-2.691948">
        <ele>968.5</ele>
        <time>2015-02-22T10:52:03Z</time>
      </trkpt>
      <trkpt lat="40.518872" lon="-2.691993">
        <ele>968.2</ele>
        <time>2015-02-22T10:52:05Z</time>
      </trkpt>
      <trkpt lat="40.518740" lon="-2.692042">
        <ele>967.7</ele>
        <time>2015-02-22T10:52:07Z</time>
      </trkpt>
      <trkpt lat="40.518590" lon="-2.692080">
        <ele>967.6</ele>
        <time>2015-02-22T10:52:09Z</time>
      </trkpt>
      <trkpt lat="40.518438" lon="-2.692106">
        <ele>967.6</ele>
        <time>2015-02-22T10:52:11Z</time>
      </trkpt>
      <trkpt lat="40.518300" lon="-2.692130">
        <ele>967.5</ele>
        <time>2015-02-22T10:52:13Z</time>
      </trkpt>
      <trkpt lat="40.518164" lon="-2.692167">
        <ele>966.6</ele>
        <time>2015-02-22T10:52:15Z</time>
      </trkpt>
      <trkpt lat="40.518028" lon="-2.692193">
        <ele>965.9</ele>
        <time>2015-02-22T10:52:17Z</time>
      </trkpt>
      <trkpt lat="40.517910" lon="-2.692198">
        <ele>965.7</ele>
        <time>2015-02-22T10:52:19Z</time>
      </trkpt>
      <trkpt lat="40.517822" lon="-2.692241">
        <ele>964.8</ele>
        <time>2015-02-22T10:52:21Z</time>
      </trkpt>
      <trkpt lat="40.517740" lon="-2.692320">
        <ele>962.9</ele>
        <time>2015-02-22T10:52:23Z</time>
      </trkpt>
      <trkpt lat="40.517614" lon="-2.692287">
        <ele>963.5</ele>
        <time>2015-02-22T10:52:26Z</time>
      </trkpt>
      <trkpt lat="40.517547" lon="-2.692186">
        <ele>965.4</ele>
        <time>2015-02-22T10:52:29Z</time>
      </trkpt>
      <trkpt lat="40.517477" lon="-2.692065">
        <ele>967.6</ele>
        <time>2015-02-22T10:52:33Z</time>
      </trkpt>
      <trkpt lat="40.517405" lon="-2.691943">
        <ele>969.4</ele>
        <time>2015-02-22T10:52:37Z</time>
      </trkpt>
      <trkpt lat="40.517328" lon="-2.691860">
        <ele>970.5</ele>
        <time>2015-02-22T10:52:40Z</time>
      </trkpt>
      <trkpt lat="40.517255" lon="-2.691761">
        <ele>971.5</ele>
        <time>2015-02-22T10:52:43Z</time>
      </trkpt>
      <trkpt lat="40.517197" lon="-2.691633">
        <ele>973.0</ele>
        <time>2015-02-22T10:52:46Z</time>
      </trkpt>
      <trkpt lat="40.517137" lon="-2.691538">
        <ele>973.4</ele>
        <time>2015-02-22T10:52:49Z</time>
      </trkpt>
      <trkpt lat="40.517084" lon="-2.691440">
        <ele>973.8</ele>
        <time>2015-02-22T10:52:52Z</time>
      </trkpt>
      <trkpt lat="40.517035" lon="-2.691340">
        <ele>974.4</ele>
        <time>2015-02-22T10:52:55Z</time>
      </trkpt>
      <trkpt lat="40.516982" lon="-2.691228">
        <ele>975.1</ele>
        <time>2015-02-22T10:52:59Z</time>
      </trkpt>
      <trkpt lat="40.516932" lon="-2.691118">
        <ele>976.1</ele>
        <time>2015-02-22T10:53:03Z</time>
      </trkpt>
      <trkpt lat="40.516870" lon="-2.691001">
        <ele>977.0</ele>
        <time>2015-02-22T10:53:08Z</time>
      </trkpt>
      <trkpt lat="40.516824" lon="-2.690895">
        <ele>978.0</ele>
        <time>2015-02-22T10:53:12Z</time>
      </trkpt>
      <trkpt lat="40.516770" lon="-2.690793">
        <ele>978.6</ele>
        <time>2015-02-22T10:53:16Z</time>
      </trkpt>
      <trkpt lat="40.516695" lon="-2.690683">
        <ele>978.4</ele>
        <time>2015-02-22T10:53:21Z</time>
      </trkpt>
      <trkpt lat="40.516590" lon="-2.690623">
        <ele>977.7</ele>
        <time>2015-02-22T10:53:25Z</time>
      </trkpt>
      <trkpt lat="40.516509" lon="-2.690566">
        <ele>977.0</ele>
        <time>2015-02-22T10:53:28Z</time>
      </trkpt>
      <trkpt lat="40.516433" lon="-2.690453">
        <ele>976.7</ele>
        <time>2015-02-22T10:53:32Z</time>
      </trkpt>
      <trkpt lat="40.516387" lon="-2.690345">
        <ele>976.8</ele>
        <time>2015-02-22T10:53:36Z</time>
      </trkpt>
      <trkpt lat="40.516330" lon="-2.690243">
        <ele>977.0</ele>
        <time>2015-02-22T10:53:40Z</time>
      </trkpt>
      <trkpt lat="40.516275" lon="-2.690130">
        <ele>977.3</ele>
        <time>2015-02-22T10:53:44Z</time>
      </trkpt>
      <trkpt lat="40.516175" lon="-2.690058">
        <ele>977.2</ele>
        <time>2015-02-22T10:53:48Z</time>
      </trkpt>
      <trkpt lat="40.516065" lon="-2.690032">
        <ele>976.8</ele>
        <time>2015-02-22T10:53:51Z</time>
      </trkpt>
      <trkpt lat="40.515959" lon="-2.689996">
        <ele>976.6</ele>
        <time>2015-02-22T10:53:54Z</time>
      </trkpt>
      <trkpt lat="40.515865" lon="-2.689960">
        <ele>976.2</ele>
        <time>2015-02-22T10:53:58Z</time>
      </trkpt>
      <trkpt lat="40.515772" lon="-2.689990">
        <ele>975.6</ele>
        <time>2015-02-22T10:54:01Z</time>
      </trkpt>
      <trkpt lat="40.515663" lon="-2.690068">
        <ele>973.9</ele>
        <time>2015-02-22T10:54:04Z</time>
      </trkpt>
      <trkpt lat="40.515545" lon="-2.690101">
        <ele>972.7</ele>
        <time>2015-02-22T10:54:07Z</time>
      </trkpt>
      <trkpt lat="40.515477" lon="-2.690193">
        <ele>971.1</ele>
        <time>2015-02-22T10:54:10Z</time>
      </trkpt>
      <trkpt lat="40.515380" lon="-2.690315">
        <ele>968.8</ele>
        <time>2015-02-22T10:54:13Z</time>
      </trkpt>
      <trkpt lat="40.515308" lon="-2.690430">
        <ele>966.9</ele>
        <time>2015-02-22T10:54:15Z</time>
      </trkpt>
      <trkpt lat="40.515232" lon="-2.690561">
        <ele>964.6</ele>
        <time>2015-02-22T10:54:17Z</time>
      </trkpt>
      <trkpt lat="40.515154" lon="-2.690681">
        <ele>962.3</ele>
        <time>2015-02-22T10:54:19Z</time>
      </trkpt>
      <trkpt lat="40.515080" lon="-2.690778">
        <ele>960.5</ele>
        <time>2015-02-22T10:54:21Z</time>
      </trkpt>
      <trkpt lat="40.515028" lon="-2.690876">
        <ele>958.3</ele>
        <time>2015-02-22T10:54:23Z</time>
      </trkpt>
      <trkpt lat="40.514952" lon="-2.691005">
        <ele>955.6</ele>
        <time>2015-02-22T10:54:26Z</time>
      </trkpt>
      <trkpt lat="40.514888" lon="-2.691095">
        <ele>953.5</ele>
        <time>2015-02-22T10:54:28Z</time>
      </trkpt>
      <trkpt lat="40.514820" lon="-2.691188">
        <ele>951.2</ele>
        <time>2015-02-22T10:54:30Z</time>
      </trkpt>
      <trkpt lat="40.514768" lon="-2.691298">
        <ele>948.9</ele>
        <time>2015-02-22T10:54:32Z</time>
      </trkpt>
      <trkpt lat="40.514717" lon="-2.691398">
        <ele>946.5</ele>
        <time>2015-02-22T10:54:34Z</time>
      </trkpt>
      <trkpt lat="40.514618" lon="-2.691467">
        <ele>944.7</ele>
        <time>2015-02-22T10:54:37Z</time>
      </trkpt>
      <trkpt lat="40.514494" lon="-2.691483">
        <ele>943.7</ele>
        <time>2015-02-22T10:54:40Z</time>
      </trkpt>
      <trkpt lat="40.514385" lon="-2.691566">
        <ele>941.2</ele>
        <time>2015-02-22T10:54:44Z</time>
      </trkpt>
      <trkpt lat="40.514328" lon="-2.691668">
        <ele>939.0</ele>
        <time>2015-02-22T10:54:46Z</time>
      </trkpt>
      <trkpt lat="40.514228" lon="-2.691718">
        <ele>937.2</ele>
        <time>2015-02-22T10:54:49Z</time>
      </trkpt>
      <trkpt lat="40.514137" lon="-2.691748">
        <ele>936.2</ele>
        <time>2015-02-22T10:54:53Z</time>
      </trkpt>
      <trkpt lat="40.514045" lon="-2.691722">
        <ele>937.5</ele>
        <time>2015-02-22T10:55:42Z</time>
      </trkpt>
      <trkpt lat="40.513952" lon="-2.691785">
        <ele>937.1</ele>
        <time>2015-02-22T10:55:45Z</time>
      </trkpt>
      <trkpt lat="40.513862" lon="-2.691825">
        <ele>936.9</ele>
        <time>2015-02-22T10:55:47Z</time>
      </trkpt>
      <trkpt lat="40.513802" lon="-2.691953">
        <ele>934.4</ele>
        <time>2015-02-22T10:55:50Z</time>
      </trkpt>
      <trkpt lat="40.513724" lon="-2.692042">
        <ele>932.9</ele>
        <time>2015-02-22T10:55:53Z</time>
      </trkpt>
      <trkpt lat="40.513612" lon="-2.692082">
        <ele>932.8</ele>
        <time>2015-02-22T10:55:56Z</time>
      </trkpt>
      <trkpt lat="40.513513" lon="-2.692170">
        <ele>931.4</ele>
        <time>2015-02-22T10:55:59Z</time>
      </trkpt>
      <trkpt lat="40.513450" lon="-2.692257">
        <ele>929.7</ele>
        <time>2015-02-22T10:56:01Z</time>
      </trkpt>
      <trkpt lat="40.513377" lon="-2.692326">
        <ele>928.7</ele>
        <time>2015-02-22T10:56:03Z</time>
      </trkpt>
      <trkpt lat="40.513287" lon="-2.692378">
        <ele>927.6</ele>
        <time>2015-02-22T10:56:05Z</time>
      </trkpt>
      <trkpt lat="40.513190" lon="-2.692428">
        <ele>926.0</ele>
        <time>2015-02-22T10:56:07Z</time>
      </trkpt>
      <trkpt lat="40.513090" lon="-2.692483">
        <ele>924.4</ele>
        <time>2015-02-22T10:56:09Z</time>
      </trkpt>
      <trkpt lat="40.512993" lon="-2.692522">
        <ele>923.1</ele>
        <time>2015-02-22T10:56:11Z</time>
      </trkpt>
      <trkpt lat="40.512892" lon="-2.692595">
        <ele>920.8</ele>
        <time>2015-02-22T10:56:14Z</time>
      </trkpt>
      <trkpt lat="40.512852" lon="-2.692756">
        <ele>916.7</ele>
        <time>2015-02-22T10:56:17Z</time>
      </trkpt>
      <trkpt lat="40.512770" lon="-2.692870">
        <ele>913.5</ele>
        <time>2015-02-22T10:56:20Z</time>
      </trkpt>
      <trkpt lat="40.512727" lon="-2.693016">
        <ele>909.7</ele>
        <time>2015-02-22T10:56:24Z</time>
      </trkpt>
      <trkpt lat="40.512679" lon="-2.693133">
        <ele>906.6</ele>
        <time>2015-02-22T10:56:27Z</time>
      </trkpt>
      <trkpt lat="40.512623" lon="-2.693300">
        <ele>902.1</ele>
        <time>2015-02-22T10:56:30Z</time>
      </trkpt>
      <trkpt lat="40.512562" lon="-2.693407">
        <ele>899.1</ele>
        <time>2015-02-22T10:56:32Z</time>
      </trkpt>
      <trkpt lat="40.512502" lon="-2.693495">
        <ele>896.3</ele>
        <time>2015-02-22T10:56:34Z</time>
      </trkpt>
      <trkpt lat="40.512440" lon="-2.693588">
        <ele>894.6</ele>
        <time>2015-02-22T10:56:37Z</time>
      </trkpt>
      <trkpt lat="40.512412" lon="-2.693727">
        <ele>891.1</ele>
        <time>2015-02-22T10:56:40Z</time>
      </trkpt>
      <trkpt lat="40.512354" lon="-2.693818">
        <ele>889.4</ele>
        <time>2015-02-22T10:56:42Z</time>
      </trkpt>
      <trkpt lat="40.512290" lon="-2.693948">
        <ele>886.9</ele>
        <time>2015-02-22T10:56:45Z</time>
      </trkpt>
      <trkpt lat="40.512260" lon="-2.694078">
        <ele>884.0</ele>
        <time>2015-02-22T10:56:48Z</time>
      </trkpt>
      <trkpt lat="40.512202" lon="-2.694203">
        <ele>882.1</ele>
        <time>2015-02-22T10:56:51Z</time>
      </trkpt>
      <trkpt lat="40.512168" lon="-2.694318">
        <ele>880.0</ele>
        <time>2015-02-22T10:56:54Z</time>
      </trkpt>
      <trkpt lat="40.512180" lon="-2.694443">
        <ele>876.8</ele>
        <time>2015-02-22T10:56:57Z</time>
      </trkpt>
      <trkpt lat="40.512177" lon="-2.694575">
        <ele>873.9</ele>
        <time>2015-02-22T10:57:00Z</time>
      </trkpt>
      <trkpt lat="40.512112" lon="-2.694723">
        <ele>871.7</ele>
        <time>2015-02-22T10:57:03Z</time>
      </trkpt>
      <trkpt lat="40.512073" lon="-2.694857">
        <ele>869.4</ele>
        <time>2015-02-22T10:57:06Z</time>
      </trkpt>
      <trkpt lat="40.512070" lon="-2.694993">
        <ele>866.2</ele>
        <time>2015-02-22T10:57:10Z</time>
      </trkpt>
      <trkpt lat="40.512060" lon="-2.695150">
        <ele>863.3</ele>
        <time>2015-02-22T10:57:14Z</time>
      </trkpt>
      <trkpt lat="40.512019" lon="-2.695275">
        <ele>861.7</ele>
        <time>2015-02-22T10:57:17Z</time>
      </trkpt>
      <trkpt lat="40.511962" lon="-2.695393">
        <ele>860.0</ele>
        <time>2015-02-22T10:57:20Z</time>
      </trkpt>
      <trkpt lat="40.511889" lon="-2.695473">
        <ele>859.6</ele>
        <time>2015-02-22T10:57:23Z</time>
      </trkpt>
      <trkpt lat="40.511809" lon="-2.695575">
        <ele>859.0</ele>
        <time>2015-02-22T10:57:27Z</time>
      </trkpt>
      <trkpt lat="40.511747" lon="-2.695693">
        <ele>857.4</ele>
        <time>2015-02-22T10:57:31Z</time>
      </trkpt>
      <trkpt lat="40.511697" lon="-2.695828">
        <ele>855.5</ele>
        <time>2015-02-22T10:57:35Z</time>
      </trkpt>
      <trkpt lat="40.511627" lon="-2.695945">
        <ele>854.4</ele>
        <time>2015-02-22T10:57:38Z</time>
      </trkpt>
      <trkpt lat="40.511564" lon="-2.696078">
        <ele>852.9</ele>
        <time>2015-02-22T10:57:42Z</time>
      </trkpt>
      <trkpt lat="40.511518" lon="-2.696205">
        <ele>851.2</ele>
        <time>2015-02-22T10:57:45Z</time>
      </trkpt>
      <trkpt lat="40.511438" lon="-2.696313">
        <ele>850.6</ele>
        <time>2015-02-22T10:57:48Z</time>
      </trkpt>
      <trkpt lat="40.511384" lon="-2.696460">
        <ele>848.8</ele>
        <time>2015-02-22T10:57:52Z</time>
      </trkpt>
      <trkpt lat="40.511360" lon="-2.696575">
        <ele>846.9</ele>
        <time>2015-02-22T10:57:55Z</time>
      </trkpt>
      <trkpt lat="40.511387" lon="-2.696720">
        <ele>844.4</ele>
        <time>2015-02-22T10:57:59Z</time>
      </trkpt>
      <trkpt lat="40.511385" lon="-2.696848">
        <ele>843.5</ele>
        <time>2015-02-22T10:58:02Z</time>
      </trkpt>
      <trkpt lat="40.511405" lon="-2.696992">
        <ele>842.3</ele>
        <time>2015-02-22T10:58:05Z</time>
      </trkpt>
      <trkpt lat="40.511405" lon="-2.697130">
        <ele>841.5</ele>
        <time>2015-02-22T10:58:08Z</time>
      </trkpt>
      <trkpt lat="40.511349" lon="-2.697246">
        <ele>841.3</ele>
        <time>2015-02-22T10:58:11Z</time>
      </trkpt>
      <trkpt lat="40.511288" lon="-2.697337">
        <ele>841.3</ele>
        <time>2015-02-22T10:58:14Z</time>
      </trkpt>
      <trkpt lat="40.511225" lon="-2.697433">
        <ele>841.2</ele>
        <time>2015-02-22T10:58:18Z</time>
      </trkpt>
      <trkpt lat="40.511139" lon="-2.697491">
        <ele>841.4</ele>
        <time>2015-02-22T10:59:19Z</time>
      </trkpt>
      <trkpt lat="40.511040" lon="-2.697460">
        <ele>842.6</ele>
        <time>2015-02-22T10:59:22Z</time>
      </trkpt>
      <trkpt lat="40.510948" lon="-2.697480">
        <ele>843.2</ele>
        <time>2015-02-22T10:59:24Z</time>
      </trkpt>
      <trkpt lat="40.510837" lon="-2.697496">
        <ele>844.0</ele>
        <time>2015-02-22T10:59:26Z</time>
      </trkpt>
      <trkpt lat="40.510730" lon="-2.697490">
        <ele>843.6</ele>
        <time>2015-02-22T10:59:28Z</time>
      </trkpt>
      <trkpt lat="40.510638" lon="-2.697517">
        <ele>843.1</ele>
        <time>2015-02-22T10:59:30Z</time>
      </trkpt>
      <trkpt lat="40.510540" lon="-2.697583">
        <ele>842.1</ele>
        <time>2015-02-22T10:59:32Z</time>
      </trkpt>
      <trkpt lat="40.510447" lon="-2.697670">
        <ele>840.9</ele>
        <time>2015-02-22T10:59:34Z</time>
      </trkpt>
      <trkpt lat="40.510370" lon="-2.697806">
        <ele>839.0</ele>
        <time>2015-02-22T10:59:36Z</time>
      </trkpt>
      <trkpt lat="40.510312" lon="-2.697978">
        <ele>836.8</ele>
        <time>2015-02-22T10:59:38Z</time>
      </trkpt>
      <trkpt lat="40.510262" lon="-2.698148">
        <ele>834.6</ele>
        <time>2015-02-22T10:59:40Z</time>
      </trkpt>
      <trkpt lat="40.510207" lon="-2.698275">
        <ele>832.6</ele>
        <time>2015-02-22T10:59:42Z</time>
      </trkpt>
      <trkpt lat="40.510139" lon="-2.698383">
        <ele>830.8</ele>
        <time>2015-02-22T10:59:44Z</time>
      </trkpt>
      <trkpt lat="40.510082" lon="-2.698501">
        <ele>828.9</ele>
        <time>2015-02-22T10:59:46Z</time>
      </trkpt>
      <trkpt lat="40.510029" lon="-2.698622">
        <ele>827.2</ele>
        <time>2015-02-22T10:59:48Z</time>
      </trkpt>
      <trkpt lat="40.509947" lon="-2.698737">
        <ele>825.9</ele>
        <time>2015-02-22T10:59:50Z</time>
      </trkpt>
      <trkpt lat="40.509840" lon="-2.698833">
        <ele>825.1</ele>
        <time>2015-02-22T10:59:52Z</time>
      </trkpt>
      <trkpt lat="40.509733" lon="-2.698926">
        <ele>824.4</ele>
        <time>2015-02-22T10:59:54Z</time>
      </trkpt>
      <trkpt lat="40.509633" lon="-2.699040">
        <ele>823.3</ele>
        <time>2015-02-22T10:59:56Z</time>
      </trkpt>
      <trkpt lat="40.509559" lon="-2.699168">
        <ele>822.1</ele>
        <time>2015-02-22T10:59:58Z</time>
      </trkpt>
      <trkpt lat="40.509493" lon="-2.699322">
        <ele>820.4</ele>
        <time>2015-02-22T11:00:00Z</time>
      </trkpt>
      <trkpt lat="40.509427" lon="-2.699473">
        <ele>818.7</ele>
        <time>2015-02-22T11:00:02Z</time>
      </trkpt>
      <trkpt lat="40.509360" lon="-2.699627">
        <ele>816.9</ele>
        <time>2015-02-22T11:00:04Z</time>
      </trkpt>
      <trkpt lat="40.509298" lon="-2.699780">
        <ele>815.1</ele>
        <time>2015-02-22T11:00:06Z</time>
      </trkpt>
      <trkpt lat="40.509257" lon="-2.699930">
        <ele>813.0</ele>
        <time>2015-02-22T11:00:08Z</time>
      </trkpt>
      <trkpt lat="40.509200" lon="-2.700068">
        <ele>811.2</ele>
        <time>2015-02-22T11:00:10Z</time>
      </trkpt>
      <trkpt lat="40.509120" lon="-2.700158">
        <ele>810.7</ele>
        <time>2015-02-22T11:00:12Z</time>
      </trkpt>
      <trkpt lat="40.509062" lon="-2.700275">
        <ele>809.8</ele>
        <time>2015-02-22T11:00:15Z</time>
      </trkpt>
      <trkpt lat="40.508997" lon="-2.700433">
        <ele>808.2</ele>
        <time>2015-02-22T11:00:18Z</time>
      </trkpt>
      <trkpt lat="40.508920" lon="-2.700578">
        <ele>806.9</ele>
        <time>2015-02-22T11:00:21Z</time>
      </trkpt>
      <trkpt lat="40.508858" lon="-2.700670">
        <ele>806.1</ele>
        <time>2015-02-22T11:00:23Z</time>
      </trkpt>
      <trkpt lat="40.508785" lon="-2.700745">
        <ele>805.4</ele>
        <time>2015-02-22T11:00:25Z</time>
      </trkpt>
      <trkpt lat="40.508717" lon="-2.700828">
        <ele>804.6</ele>
        <time>2015-02-22T11:00:27Z</time>
      </trkpt>
      <trkpt lat="40.508597" lon="-2.700875">
        <ele>804.4</ele>
        <time>2015-02-22T11:00:30Z</time>
      </trkpt>
      <trkpt lat="40.508507" lon="-2.700921">
        <ele>804.2</ele>
        <time>2015-02-22T11:00:32Z</time>
      </trkpt>
      <trkpt lat="40.508415" lon="-2.700985">
        <ele>803.5</ele>
        <time>2015-02-22T11:00:34Z</time>
      </trkpt>
      <trkpt lat="40.508314" lon="-2.701063">
        <ele>802.6</ele>
        <time>2015-02-22T11:00:36Z</time>
      </trkpt>
      <trkpt lat="40.508205" lon="-2.701158">
        <ele>801.2</ele>
        <time>2015-02-22T11:00:38Z</time>
      </trkpt>
      <trkpt lat="40.508090" lon="-2.701256">
        <ele>799.8</ele>
        <time>2015-02-22T11:00:40Z</time>
      </trkpt>
      <trkpt lat="40.507987" lon="-2.701361">
        <ele>798.5</ele>
        <time>2015-02-22T11:00:42Z</time>
      </trkpt>
      <trkpt lat="40.507889" lon="-2.701480">
        <ele>797.2</ele>
        <time>2015-02-22T11:00:44Z</time>
      </trkpt>
      <trkpt lat="40.507764" lon="-2.701575">
        <ele>796.4</ele>
        <time>2015-02-22T11:00:46Z</time>
      </trkpt>
      <trkpt lat="40.507628" lon="-2.701662">
        <ele>795.7</ele>
        <time>2015-02-22T11:00:48Z</time>
      </trkpt>
      <trkpt lat="40.507487" lon="-2.701731">
        <ele>795.6</ele>
        <time>2015-02-22T11:00:50Z</time>
      </trkpt>
      <trkpt lat="40.507340" lon="-2.701793">
        <ele>795.2</ele>
        <time>2015-02-22T11:00:52Z</time>
      </trkpt>
      <trkpt lat="40.507202" lon="-2.701850">
        <ele>795.0</ele>
        <time>2015-02-22T11:00:54Z</time>
      </trkpt>
      <trkpt lat="40.507114" lon="-2.701920">
        <ele>794.6</ele>
        <time>2015-02-22T11:00:56Z</time>
      </trkpt>
      <trkpt lat="40.507068" lon="-2.702035">
        <ele>794.0</ele>
        <time>2015-02-22T11:00:58Z</time>
      </trkpt>
      <trkpt lat="40.507028" lon="-2.702168">
        <ele>793.3</ele>
        <time>2015-02-22T11:01:00Z</time>
      </trkpt>
      <trkpt lat="40.506973" lon="-2.702296">
        <ele>792.7</ele>
        <time>2015-02-22T11:01:02Z</time>
      </trkpt>
      <trkpt lat="40.506912" lon="-2.702432">
        <ele>792.0</ele>
        <time>2015-02-22T11:01:04Z</time>
      </trkpt>
      <trkpt lat="40.506827" lon="-2.702548">
        <ele>791.5</ele>
        <time>2015-02-22T11:01:06Z</time>
      </trkpt>
      <trkpt lat="40.506740" lon="-2.702643">
        <ele>791.1</ele>
        <time>2015-02-22T11:01:08Z</time>
      </trkpt>
      <trkpt lat="40.506654" lon="-2.702745">
        <ele>790.5</ele>
        <time>2015-02-22T11:01:10Z</time>
      </trkpt>
      <trkpt lat="40.506562" lon="-2.702850">
        <ele>789.6</ele>
        <time>2015-02-22T11:01:12Z</time>
      </trkpt>
      <trkpt lat="40.506478" lon="-2.702972">
        <ele>788.7</ele>
        <time>2015-02-22T11:01:14Z</time>
      </trkpt>
      <trkpt lat="40.506415" lon="-2.703105">
        <ele>787.7</ele>
        <time>2015-02-22T11:01:16Z</time>
      </trkpt>
      <trkpt lat="40.506329" lon="-2.703203">
        <ele>787.0</ele>
        <time>2015-02-22T11:01:18Z</time>
      </trkpt>
      <trkpt lat="40.506225" lon="-2.703275">
        <ele>786.3</ele>
        <time>2015-02-22T11:01:20Z</time>
      </trkpt>
      <trkpt lat="40.506137" lon="-2.703360">
        <ele>785.6</ele>
        <time>2015-02-22T11:01:22Z</time>
      </trkpt>
      <trkpt lat="40.506050" lon="-2.703450">
        <ele>784.8</ele>
        <time>2015-02-22T11:01:24Z</time>
      </trkpt>
      <trkpt lat="40.505973" lon="-2.703553">
        <ele>784.0</ele>
        <time>2015-02-22T11:01:26Z</time>
      </trkpt>
      <trkpt lat="40.505900" lon="-2.703660">
        <ele>783.2</ele>
        <time>2015-02-22T11:01:28Z</time>
      </trkpt>
      <trkpt lat="40.505822" lon="-2.703753">
        <ele>782.4</ele>
        <time>2015-02-22T11:01:30Z</time>
      </trkpt>
      <trkpt lat="40.505737" lon="-2.703823">
        <ele>782.2</ele>
        <time>2015-02-22T11:01:32Z</time>
      </trkpt>
      <trkpt lat="40.505650" lon="-2.703877">
        <ele>782.0</ele>
        <time>2015-02-22T11:01:34Z</time>
      </trkpt>
      <trkpt lat="40.505572" lon="-2.703958">
        <ele>781.7</ele>
        <time>2015-02-22T11:01:36Z</time>
      </trkpt>
      <trkpt lat="40.505490" lon="-2.704040">
        <ele>781.4</ele>
        <time>2015-02-22T11:01:38Z</time>
      </trkpt>
      <trkpt lat="40.505398" lon="-2.704083">
        <ele>781.4</ele>
        <time>2015-02-22T11:01:40Z</time>
      </trkpt>
      <trkpt lat="40.505272" lon="-2.704115">
        <ele>781.6</ele>
        <time>2015-02-22T11:01:43Z</time>
      </trkpt>
      <trkpt lat="40.505155" lon="-2.704132">
        <ele>781.7</ele>
        <time>2015-02-22T11:01:46Z</time>
      </trkpt>
      <trkpt lat="40.505024" lon="-2.704150">
        <ele>782.0</ele>
        <time>2015-02-22T11:01:49Z</time>
      </trkpt>
      <trkpt lat="40.504923" lon="-2.704158">
        <ele>782.0</ele>
        <time>2015-02-22T11:01:51Z</time>
      </trkpt>
      <trkpt lat="40.504812" lon="-2.704153">
        <ele>782.0</ele>
        <time>2015-02-22T11:01:53Z</time>
      </trkpt>
      <trkpt lat="40.504688" lon="-2.704140">
        <ele>782.1</ele>
        <time>2015-02-22T11:01:55Z</time>
      </trkpt>
      <trkpt lat="40.504559" lon="-2.704125">
        <ele>782.1</ele>
        <time>2015-02-22T11:01:57Z</time>
      </trkpt>
      <trkpt lat="40.504427" lon="-2.704125">
        <ele>782.1</ele>
        <time>2015-02-22T11:01:59Z</time>
      </trkpt>
      <trkpt lat="40.504307" lon="-2.704133">
        <ele>782.1</ele>
        <time>2015-02-22T11:02:01Z</time>
      </trkpt>
      <trkpt lat="40.504187" lon="-2.704150">
        <ele>782.0</ele>
        <time>2015-02-22T11:02:03Z</time>
      </trkpt>
      <trkpt lat="40.504062" lon="-2.704155">
        <ele>782.3</ele>
        <time>2015-02-22T11:02:05Z</time>
      </trkpt>
      <trkpt lat="40.503938" lon="-2.704145">
        <ele>782.6</ele>
        <time>2015-02-22T11:02:07Z</time>
      </trkpt>
      <trkpt lat="40.503830" lon="-2.704132">
        <ele>782.9</ele>
        <time>2015-02-22T11:02:09Z</time>
      </trkpt>
      <trkpt lat="40.503702" lon="-2.704122">
        <ele>783.2</ele>
        <time>2015-02-22T11:02:12Z</time>
      </trkpt>
      <trkpt lat="40.503592" lon="-2.704110">
        <ele>783.5</ele>
        <time>2015-02-22T11:02:15Z</time>
      </trkpt>
      <trkpt lat="40.503487" lon="-2.704098">
        <ele>783.8</ele>
        <time>2015-02-22T11:02:18Z</time>
      </trkpt>
      <trkpt lat="40.503382" lon="-2.704063">
        <ele>784.1</ele>
        <time>2015-02-22T11:02:21Z</time>
      </trkpt>
      <trkpt lat="40.503270" lon="-2.704055">
        <ele>784.3</ele>
        <time>2015-02-22T11:02:24Z</time>
      </trkpt>
      <trkpt lat="40.503163" lon="-2.704092">
        <ele>784.2</ele>
        <time>2015-02-22T11:02:27Z</time>
      </trkpt>
      <trkpt lat="40.503045" lon="-2.704115">
        <ele>784.1</ele>
        <time>2015-02-22T11:02:30Z</time>
      </trkpt>
      <trkpt lat="40.502952" lon="-2.704127">
        <ele>784.1</ele>
        <time>2015-02-22T11:02:32Z</time>
      </trkpt>
      <trkpt lat="40.502852" lon="-2.704120">
        <ele>784.1</ele>
        <time>2015-02-22T11:02:34Z</time>
      </trkpt>
      <trkpt lat="40.502745" lon="-2.704103">
        <ele>784.2</ele>
        <time>2015-02-22T11:02:36Z</time>
      </trkpt>
      <trkpt lat="40.502632" lon="-2.704101">
        <ele>784.2</ele>
        <time>2015-02-22T11:02:38Z</time>
      </trkpt>
      <trkpt lat="40.502520" lon="-2.704123">
        <ele>784.1</ele>
        <time>2015-02-22T11:02:40Z</time>
      </trkpt>
      <trkpt lat="40.502407" lon="-2.704146">
        <ele>784.0</ele>
        <time>2015-02-22T11:02:42Z</time>
      </trkpt>
      <trkpt lat="40.502287" lon="-2.704175">
        <ele>783.9</ele>
        <time>2015-02-22T11:02:44Z</time>
      </trkpt>
      <trkpt lat="40.502173" lon="-2.704201">
        <ele>783.8</ele>
        <time>2015-02-22T11:02:46Z</time>
      </trkpt>
      <trkpt lat="40.502055" lon="-2.704217">
        <ele>783.7</ele>
        <time>2015-02-22T11:02:48Z</time>
      </trkpt>
      <trkpt lat="40.501947" lon="-2.704233">
        <ele>783.7</ele>
        <time>2015-02-22T11:02:50Z</time>
      </trkpt>
      <trkpt lat="40.501854" lon="-2.704290">
        <ele>783.3</ele>
        <time>2015-02-22T11:02:52Z</time>
      </trkpt>
      <trkpt lat="40.501772" lon="-2.704370">
        <ele>783.0</ele>
        <time>2015-02-22T11:02:54Z</time>
      </trkpt>
      <trkpt lat="40.501682" lon="-2.704423">
        <ele>782.7</ele>
        <time>2015-02-22T11:02:56Z</time>
      </trkpt>
      <trkpt lat="40.501592" lon="-2.704460">
        <ele>782.5</ele>
        <time>2015-02-22T11:02:58Z</time>
      </trkpt>
      <trkpt lat="40.501499" lon="-2.704485">
        <ele>782.3</ele>
        <time>2015-02-22T11:03:00Z</time>
      </trkpt>
      <trkpt lat="40.501404" lon="-2.704493">
        <ele>782.2</ele>
        <time>2015-02-22T11:03:02Z</time>
      </trkpt>
      <trkpt lat="40.501307" lon="-2.704508">
        <ele>781.9</ele>
        <time>2015-02-22T11:03:04Z</time>
      </trkpt>
      <trkpt lat="40.501217" lon="-2.704557">
        <ele>781.6</ele>
        <time>2015-02-22T11:03:06Z</time>
      </trkpt>
      <trkpt lat="40.501137" lon="-2.704628">
        <ele>781.0</ele>
        <time>2015-02-22T11:03:08Z</time>
      </trkpt>
      <trkpt lat="40.501057" lon="-2.704687">
        <ele>780.6</ele>
        <time>2015-02-22T11:03:10Z</time>
      </trkpt>
      <trkpt lat="40.500954" lon="-2.704787">
        <ele>779.7</ele>
        <time>2015-02-22T11:03:13Z</time>
      </trkpt>
      <trkpt lat="40.500857" lon="-2.704885">
        <ele>778.9</ele>
        <time>2015-02-22T11:03:16Z</time>
      </trkpt>
      <trkpt lat="40.500755" lon="-2.704928">
        <ele>778.8</ele>
        <time>2015-02-22T11:03:19Z</time>
      </trkpt>
      <trkpt lat="40.500620" lon="-2.704995">
        <ele>779.0</ele>
        <time>2015-02-22T11:03:22Z</time>
      </trkpt>
      <trkpt lat="40.500520" lon="-2.705088">
        <ele>779.3</ele>
        <time>2015-02-22T11:03:24Z</time>
      </trkpt>
      <trkpt lat="40.500424" lon="-2.705220">
        <ele>779.3</ele>
        <time>2015-02-22T11:03:26Z</time>
      </trkpt>
      <trkpt lat="40.500330" lon="-2.705373">
        <ele>779.1</ele>
        <time>2015-02-22T11:03:28Z</time>
      </trkpt>
      <trkpt lat="40.500247" lon="-2.705501">
        <ele>778.9</ele>
        <time>2015-02-22T11:03:30Z</time>
      </trkpt>
      <trkpt lat="40.500177" lon="-2.705593">
        <ele>778.7</ele>
        <time>2015-02-22T11:03:32Z</time>
      </trkpt>
      <trkpt lat="40.500097" lon="-2.705715">
        <ele>778.4</ele>
        <time>2015-02-22T11:03:35Z</time>
      </trkpt>
      <trkpt lat="40.500037" lon="-2.705808">
        <ele>778.1</ele>
        <time>2015-02-22T11:03:38Z</time>
      </trkpt>
      <trkpt lat="40.499962" lon="-2.705920">
        <ele>777.6</ele>
        <time>2015-02-22T11:03:42Z</time>
      </trkpt>
      <trkpt lat="40.499902" lon="-2.706010">
        <ele>777.2</ele>
        <time>2015-02-22T11:03:45Z</time>
      </trkpt>
      <trkpt lat="40.499837" lon="-2.706107">
        <ele>776.8</ele>
        <time>2015-02-22T11:04:18Z</time>
      </trkpt>
      <trkpt lat="40.499778" lon="-2.706255">
        <ele>776.1</ele>
        <time>2015-02-22T11:04:22Z</time>
      </trkpt>
      <trkpt lat="40.499725" lon="-2.706408">
        <ele>775.5</ele>
        <time>2015-02-22T11:04:25Z</time>
      </trkpt>
      <trkpt lat="40.499692" lon="-2.706523">
        <ele>775.0</ele>
        <time>2015-02-22T11:04:27Z</time>
      </trkpt>
      <trkpt lat="40.499657" lon="-2.706641">
        <ele>774.5</ele>
        <time>2015-02-22T11:04:29Z</time>
      </trkpt>
      <trkpt lat="40.499617" lon="-2.706763">
        <ele>774.1</ele>
        <time>2015-02-22T11:04:31Z</time>
      </trkpt>
      <trkpt lat="40.499575" lon="-2.706878">
        <ele>773.7</ele>
        <time>2015-02-22T11:04:33Z</time>
      </trkpt>
      <trkpt lat="40.499530" lon="-2.706995">
        <ele>773.3</ele>
        <time>2015-02-22T11:04:35Z</time>
      </trkpt>
      <trkpt lat="40.499492" lon="-2.707123">
        <ele>773.0</ele>
        <time>2015-02-22T11:04:37Z</time>
      </trkpt>
      <trkpt lat="40.499468" lon="-2.707272">
        <ele>772.4</ele>
        <time>2015-02-22T11:04:39Z</time>
      </trkpt>
      <trkpt lat="40.499440" lon="-2.707433">
        <ele>771.9</ele>
        <time>2015-02-22T11:04:41Z</time>
      </trkpt>
      <trkpt lat="40.499404" lon="-2.707603">
        <ele>771.1</ele>
        <time>2015-02-22T11:04:43Z</time>
      </trkpt>
      <trkpt lat="40.499362" lon="-2.707780">
        <ele>770.2</ele>
        <time>2015-02-22T11:04:45Z</time>
      </trkpt>
      <trkpt lat="40.499337" lon="-2.707963">
        <ele>769.3</ele>
        <time>2015-02-22T11:04:47Z</time>
      </trkpt>
      <trkpt lat="40.499324" lon="-2.708155">
        <ele>768.3</ele>
        <time>2015-02-22T11:04:49Z</time>
      </trkpt>
      <trkpt lat="40.499320" lon="-2.708358">
        <ele>767.3</ele>
        <time>2015-02-22T11:04:51Z</time>
      </trkpt>
      <trkpt lat="40.499340" lon="-2.708575">
        <ele>765.7</ele>
        <time>2015-02-22T11:04:53Z</time>
      </trkpt>
      <trkpt lat="40.499362" lon="-2.708800">
        <ele>764.2</ele>
        <time>2015-02-22T11:04:55Z</time>
      </trkpt>
      <trkpt lat="40.499394" lon="-2.709025">
        <ele>762.7</ele>
        <time>2015-02-22T11:04:57Z</time>
      </trkpt>
      <trkpt lat="40.499419" lon="-2.709243">
        <ele>761.2</ele>
        <time>2015-02-22T11:04:59Z</time>
      </trkpt>
      <trkpt lat="40.499417" lon="-2.709462">
        <ele>759.8</ele>
        <time>2015-02-22T11:05:01Z</time>
      </trkpt>
      <trkpt lat="40.499389" lon="-2.709665">
        <ele>758.4</ele>
        <time>2015-02-22T11:05:03Z</time>
      </trkpt>
      <trkpt lat="40.499340" lon="-2.709846">
        <ele>757.2</ele>
        <time>2015-02-22T11:05:05Z</time>
      </trkpt>
      <trkpt lat="40.499285" lon="-2.710013">
        <ele>756.1</ele>
        <time>2015-02-22T11:05:07Z</time>
      </trkpt>
      <trkpt lat="40.499223" lon="-2.710168">
        <ele>755.7</ele>
        <time>2015-02-22T11:05:09Z</time>
      </trkpt>
      <trkpt lat="40.499138" lon="-2.710310">
        <ele>755.3</ele>
        <time>2015-02-22T11:05:11Z</time>
      </trkpt>
      <trkpt lat="40.499022" lon="-2.710421">
        <ele>755.3</ele>
        <time>2015-02-22T11:05:13Z</time>
      </trkpt>
      <trkpt lat="40.498908" lon="-2.710546">
        <ele>755.1</ele>
        <time>2015-02-22T11:05:15Z</time>
      </trkpt>
      <trkpt lat="40.498813" lon="-2.710690">
        <ele>754.6</ele>
        <time>2015-02-22T11:05:17Z</time>
      </trkpt>
      <trkpt lat="40.498715" lon="-2.710827">
        <ele>754.0</ele>
        <time>2015-02-22T11:05:19Z</time>
      </trkpt>
      <trkpt lat="40.498617" lon="-2.710957">
        <ele>753.3</ele>
        <time>2015-02-22T11:05:21Z</time>
      </trkpt>
      <trkpt lat="40.498542" lon="-2.711111">
        <ele>752.5</ele>
        <time>2015-02-22T11:05:23Z</time>
      </trkpt>
      <trkpt lat="40.498497" lon="-2.711288">
        <ele>751.5</ele>
        <time>2015-02-22T11:05:25Z</time>
      </trkpt>
      <trkpt lat="40.498459" lon="-2.711463">
        <ele>750.4</ele>
        <time>2015-02-22T11:05:27Z</time>
      </trkpt>
      <trkpt lat="40.498435" lon="-2.711637">
        <ele>749.4</ele>
        <time>2015-02-22T11:05:29Z</time>
      </trkpt>
      <trkpt lat="40.498447" lon="-2.711806">
        <ele>748.9</ele>
        <time>2015-02-22T11:05:31Z</time>
      </trkpt>
      <trkpt lat="40.498472" lon="-2.711980">
        <ele>748.5</ele>
        <time>2015-02-22T11:05:33Z</time>
      </trkpt>
      <trkpt lat="40.498504" lon="-2.712158">
        <ele>748.1</ele>
        <time>2015-02-22T11:05:35Z</time>
      </trkpt>
      <trkpt lat="40.498543" lon="-2.712335">
        <ele>747.7</ele>
        <time>2015-02-22T11:05:37Z</time>
      </trkpt>
      <trkpt lat="40.498553" lon="-2.712505">
        <ele>747.3</ele>
        <time>2015-02-22T11:05:39Z</time>
      </trkpt>
      <trkpt lat="40.498479" lon="-2.712632">
        <ele>747.2</ele>
        <time>2015-02-22T11:05:41Z</time>
      </trkpt>
      <trkpt lat="40.498384" lon="-2.712728">
        <ele>747.3</ele>
        <time>2015-02-22T11:05:43Z</time>
      </trkpt>
      <trkpt lat="40.498295" lon="-2.712830">
        <ele>747.6</ele>
        <time>2015-02-22T11:05:45Z</time>
      </trkpt>
      <trkpt lat="40.498215" lon="-2.712940">
        <ele>748.2</ele>
        <time>2015-02-22T11:05:47Z</time>
      </trkpt>
      <trkpt lat="40.498133" lon="-2.713041">
        <ele>748.7</ele>
        <time>2015-02-22T11:05:49Z</time>
      </trkpt>
      <trkpt lat="40.498055" lon="-2.713128">
        <ele>749.2</ele>
        <time>2015-02-22T11:05:51Z</time>
      </trkpt>
      <trkpt lat="40.497970" lon="-2.713185">
        <ele>749.6</ele>
        <time>2015-02-22T11:05:53Z</time>
      </trkpt>
      <trkpt lat="40.497882" lon="-2.713225">
        <ele>750.1</ele>
        <time>2015-02-22T11:05:55Z</time>
      </trkpt>
      <trkpt lat="40.497755" lon="-2.713278">
        <ele>750.7</ele>
        <time>2015-02-22T11:05:58Z</time>
      </trkpt>
      <trkpt lat="40.497625" lon="-2.713312">
        <ele>751.4</ele>
        <time>2015-02-22T11:06:01Z</time>
      </trkpt>
      <trkpt lat="40.497524" lon="-2.713313">
        <ele>751.9</ele>
        <time>2015-02-22T11:06:03Z</time>
      </trkpt>
      <trkpt lat="40.497405" lon="-2.713340">
        <ele>752.5</ele>
        <time>2015-02-22T11:06:05Z</time>
      </trkpt>
      <trkpt lat="40.497282" lon="-2.713385">
        <ele>753.1</ele>
        <time>2015-02-22T11:06:07Z</time>
      </trkpt>
      <trkpt lat="40.497185" lon="-2.713487">
        <ele>753.7</ele>
        <time>2015-02-22T11:06:09Z</time>
      </trkpt>
      <trkpt lat="40.497110" lon="-2.713647">
        <ele>754.1</ele>
        <time>2015-02-22T11:06:11Z</time>
      </trkpt>
      <trkpt lat="40.497005" lon="-2.713801">
        <ele>754.5</ele>
        <time>2015-02-22T11:06:13Z</time>
      </trkpt>
      <trkpt lat="40.496888" lon="-2.713947">
        <ele>754.8</ele>
        <time>2015-02-22T11:06:15Z</time>
      </trkpt>
      <trkpt lat="40.496750" lon="-2.714080">
        <ele>755.0</ele>
        <time>2015-02-22T11:06:17Z</time>
      </trkpt>
      <trkpt lat="40.496602" lon="-2.714206">
        <ele>754.5</ele>
        <time>2015-02-22T11:06:19Z</time>
      </trkpt>
      <trkpt lat="40.496525" lon="-2.714272">
        <ele>754.0</ele>
        <time>2015-02-22T11:06:20Z</time>
      </trkpt>
      <trkpt lat="40.496447" lon="-2.714340">
        <ele>753.4</ele>
        <time>2015-02-22T11:06:21Z</time>
      </trkpt>
      <trkpt lat="40.496367" lon="-2.714405">
        <ele>752.8</ele>
        <time>2015-02-22T11:06:22Z</time>
      </trkpt>
      <trkpt lat="40.496285" lon="-2.714470">
        <ele>752.3</ele>
        <time>2015-02-22T11:06:23Z</time>
      </trkpt>
      <trkpt lat="40.496203" lon="-2.714533">
        <ele>751.7</ele>
        <time>2015-02-22T11:06:24Z</time>
      </trkpt>
      <trkpt lat="40.496122" lon="-2.714598">
        <ele>751.1</ele>
        <time>2015-02-22T11:06:25Z</time>
      </trkpt>
      <trkpt lat="40.496042" lon="-2.714661">
        <ele>750.5</ele>
        <time>2015-02-22T11:06:26Z</time>
      </trkpt>
      <trkpt lat="40.495964" lon="-2.714728">
        <ele>749.9</ele>
        <time>2015-02-22T11:06:27Z</time>
      </trkpt>
      <trkpt lat="40.495887" lon="-2.714800">
        <ele>749.4</ele>
        <time>2015-02-22T11:06:28Z</time>
      </trkpt>
      <trkpt lat="40.495817" lon="-2.714878">
        <ele>748.9</ele>
        <time>2015-02-22T11:06:29Z</time>
      </trkpt>
      <trkpt lat="40.495752" lon="-2.714962">
        <ele>748.5</ele>
        <time>2015-02-22T11:06:30Z</time>
      </trkpt>
      <trkpt lat="40.495689" lon="-2.715047">
        <ele>748.1</ele>
        <time>2015-02-22T11:06:31Z</time>
      </trkpt>
      <trkpt lat="40.495579" lon="-2.715225">
        <ele>747.1</ele>
        <time>2015-02-22T11:06:33Z</time>
      </trkpt>
      <trkpt lat="40.495500" lon="-2.715420">
        <ele>746.3</ele>
        <time>2015-02-22T11:06:35Z</time>
      </trkpt>
      <trkpt lat="40.495423" lon="-2.715617">
        <ele>745.4</ele>
        <time>2015-02-22T11:06:37Z</time>
      </trkpt>
      <trkpt lat="40.495328" lon="-2.715790">
        <ele>744.4</ele>
        <time>2015-02-22T11:06:39Z</time>
      </trkpt>
      <trkpt lat="40.495213" lon="-2.715937">
        <ele>743.8</ele>
        <time>2015-02-22T11:06:41Z</time>
      </trkpt>
      <trkpt lat="40.495098" lon="-2.716073">
        <ele>743.6</ele>
        <time>2015-02-22T11:06:43Z</time>
      </trkpt>
      <trkpt lat="40.495005" lon="-2.716220">
        <ele>743.9</ele>
        <time>2015-02-22T11:06:45Z</time>
      </trkpt>
      <trkpt lat="40.494949" lon="-2.716395">
        <ele>744.6</ele>
        <time>2015-02-22T11:06:47Z</time>
      </trkpt>
      <trkpt lat="40.494895" lon="-2.716563">
        <ele>745.1</ele>
        <time>2015-02-22T11:06:49Z</time>
      </trkpt>
      <trkpt lat="40.494830" lon="-2.716688">
        <ele>745.1</ele>
        <time>2015-02-22T11:06:51Z</time>
      </trkpt>
      <trkpt lat="40.494762" lon="-2.716808">
        <ele>744.5</ele>
        <time>2015-02-22T11:06:54Z</time>
      </trkpt>
      <trkpt lat="40.494660" lon="-2.716905">
        <ele>743.7</ele>
        <time>2015-02-22T11:06:58Z</time>
      </trkpt>
      <trkpt lat="40.494585" lon="-2.716980">
        <ele>743.1</ele>
        <time>2015-02-22T11:07:00Z</time>
      </trkpt>
      <trkpt lat="40.494495" lon="-2.717053">
        <ele>742.4</ele>
        <time>2015-02-22T11:07:02Z</time>
      </trkpt>
      <trkpt lat="40.494392" lon="-2.717133">
        <ele>741.5</ele>
        <time>2015-02-22T11:07:04Z</time>
      </trkpt>
      <trkpt lat="40.494310" lon="-2.717222">
        <ele>740.8</ele>
        <time>2015-02-22T11:07:07Z</time>
      </trkpt>
      <trkpt lat="40.494223" lon="-2.717332">
        <ele>739.9</ele>
        <time>2015-02-22T11:07:26Z</time>
      </trkpt>
      <trkpt lat="40.494193" lon="-2.717445">
        <ele>739.3</ele>
        <time>2015-02-22T11:07:28Z</time>
      </trkpt>
      <trkpt lat="40.494170" lon="-2.717576">
        <ele>739.0</ele>
        <time>2015-02-22T11:07:30Z</time>
      </trkpt>
      <trkpt lat="40.494152" lon="-2.717730">
        <ele>738.9</ele>
        <time>2015-02-22T11:07:32Z</time>
      </trkpt>
      <trkpt lat="40.494130" lon="-2.717891">
        <ele>738.8</ele>
        <time>2015-02-22T11:07:34Z</time>
      </trkpt>
      <trkpt lat="40.494110" lon="-2.718051">
        <ele>738.7</ele>
        <time>2015-02-22T11:07:36Z</time>
      </trkpt>
      <trkpt lat="40.494114" lon="-2.718208">
        <ele>738.8</ele>
        <time>2015-02-22T11:07:38Z</time>
      </trkpt>
      <trkpt lat="40.494169" lon="-2.718337">
        <ele>739.0</ele>
        <time>2015-02-22T11:07:40Z</time>
      </trkpt>
      <trkpt lat="40.494237" lon="-2.718438">
        <ele>739.3</ele>
        <time>2015-02-22T11:07:42Z</time>
      </trkpt>
      <trkpt lat="40.494285" lon="-2.718540">
        <ele>739.5</ele>
        <time>2015-02-22T11:07:44Z</time>
      </trkpt>
      <trkpt lat="40.494280" lon="-2.718710">
        <ele>739.5</ele>
        <time>2015-02-22T11:07:47Z</time>
      </trkpt>
      <trkpt lat="40.494247" lon="-2.718850">
        <ele>739.4</ele>
        <time>2015-02-22T11:07:49Z</time>
      </trkpt>
      <trkpt lat="40.494225" lon="-2.719008">
        <ele>739.3</ele>
        <time>2015-02-22T11:07:51Z</time>
      </trkpt>
      <trkpt lat="40.494223" lon="-2.719175">
        <ele>739.3</ele>
        <time>2015-02-22T11:07:53Z</time>
      </trkpt>
      <trkpt lat="40.494212" lon="-2.719343">
        <ele>739.0</ele>
        <time>2015-02-22T11:07:55Z</time>
      </trkpt>
      <trkpt lat="40.494160" lon="-2.719507">
        <ele>738.5</ele>
        <time>2015-02-22T11:07:57Z</time>
      </trkpt>
      <trkpt lat="40.494065" lon="-2.719643">
        <ele>737.4</ele>
        <time>2015-02-22T11:07:59Z</time>
      </trkpt>
      <trkpt lat="40.493978" lon="-2.719800">
        <ele>736.5</ele>
        <time>2015-02-22T11:08:01Z</time>
      </trkpt>
      <trkpt lat="40.493917" lon="-2.719985">
        <ele>735.9</ele>
        <time>2015-02-22T11:08:03Z</time>
      </trkpt>
      <trkpt lat="40.493850" lon="-2.720165">
        <ele>734.8</ele>
        <time>2015-02-22T11:08:05Z</time>
      </trkpt>
      <trkpt lat="40.493789" lon="-2.720363">
        <ele>733.9</ele>
        <time>2015-02-22T11:08:07Z</time>
      </trkpt>
      <trkpt lat="40.493738" lon="-2.720570">
        <ele>733.1</ele>
        <time>2015-02-22T11:08:09Z</time>
      </trkpt>
      <trkpt lat="40.493687" lon="-2.720767">
        <ele>732.4</ele>
        <time>2015-02-22T11:08:11Z</time>
      </trkpt>
      <trkpt lat="40.493645" lon="-2.720955">
        <ele>731.8</ele>
        <time>2015-02-22T11:08:13Z</time>
      </trkpt>
      <trkpt lat="40.493612" lon="-2.721143">
        <ele>731.1</ele>
        <time>2015-02-22T11:08:15Z</time>
      </trkpt>
      <trkpt lat="40.493567" lon="-2.721327">
        <ele>730.4</ele>
        <time>2015-02-22T11:08:17Z</time>
      </trkpt>
      <trkpt lat="40.493543" lon="-2.721508">
        <ele>729.7</ele>
        <time>2015-02-22T11:08:19Z</time>
      </trkpt>
      <trkpt lat="40.493564" lon="-2.721691">
        <ele>729.3</ele>
        <time>2015-02-22T11:08:21Z</time>
      </trkpt>
      <trkpt lat="40.493600" lon="-2.721880">
        <ele>729.1</ele>
        <time>2015-02-22T11:08:23Z</time>
      </trkpt>
      <trkpt lat="40.493643" lon="-2.722078">
        <ele>728.9</ele>
        <time>2015-02-22T11:08:25Z</time>
      </trkpt>
      <trkpt lat="40.493687" lon="-2.722278">
        <ele>728.7</ele>
        <time>2015-02-22T11:08:27Z</time>
      </trkpt>
      <trkpt lat="40.493717" lon="-2.722467">
        <ele>728.4</ele>
        <time>2015-02-22T11:08:29Z</time>
      </trkpt>
      <trkpt lat="40.493742" lon="-2.722638">
        <ele>728.5</ele>
        <time>2015-02-22T11:08:31Z</time>
      </trkpt>
      <trkpt lat="40.493767" lon="-2.722807">
        <ele>728.6</ele>
        <time>2015-02-22T11:08:33Z</time>
      </trkpt>
      <trkpt lat="40.493777" lon="-2.722978">
        <ele>728.8</ele>
        <time>2015-02-22T11:08:35Z</time>
      </trkpt>
      <trkpt lat="40.493783" lon="-2.723148">
        <ele>728.9</ele>
        <time>2015-02-22T11:08:37Z</time>
      </trkpt>
      <trkpt lat="40.493773" lon="-2.723322">
        <ele>728.8</ele>
        <time>2015-02-22T11:08:39Z</time>
      </trkpt>
      <trkpt lat="40.493744" lon="-2.723498">
        <ele>728.3</ele>
        <time>2015-02-22T11:08:41Z</time>
      </trkpt>
      <trkpt lat="40.493682" lon="-2.723668">
        <ele>727.4</ele>
        <time>2015-02-22T11:08:43Z</time>
      </trkpt>
      <trkpt lat="40.493572" lon="-2.723788">
        <ele>726.0</ele>
        <time>2015-02-22T11:08:45Z</time>
      </trkpt>
      <trkpt lat="40.493457" lon="-2.723890">
        <ele>724.5</ele>
        <time>2015-02-22T11:08:47Z</time>
      </trkpt>
      <trkpt lat="40.493362" lon="-2.723998">
        <ele>723.4</ele>
        <time>2015-02-22T11:08:49Z</time>
      </trkpt>
      <trkpt lat="40.493307" lon="-2.724113">
        <ele>722.8</ele>
        <time>2015-02-22T11:08:51Z</time>
      </trkpt>
      <trkpt lat="40.493282" lon="-2.724263">
        <ele>722.1</ele>
        <time>2015-02-22T11:08:54Z</time>
      </trkpt>
      <trkpt lat="40.493315" lon="-2.724406">
        <ele>721.7</ele>
        <time>2015-02-22T11:08:58Z</time>
      </trkpt>
      <trkpt lat="40.493352" lon="-2.724521">
        <ele>721.4</ele>
        <time>2015-02-22T11:09:01Z</time>
      </trkpt>
      <trkpt lat="40.493365" lon="-2.724692">
        <ele>720.7</ele>
        <time>2015-02-22T11:09:04Z</time>
      </trkpt>
      <trkpt lat="40.493360" lon="-2.724825">
        <ele>720.0</ele>
        <time>2015-02-22T11:09:06Z</time>
      </trkpt>
      <trkpt lat="40.493355" lon="-2.724963">
        <ele>719.3</ele>
        <time>2015-02-22T11:09:08Z</time>
      </trkpt>
      <trkpt lat="40.493350" lon="-2.725100">
        <ele>718.2</ele>
        <time>2015-02-22T11:09:10Z</time>
      </trkpt>
      <trkpt lat="40.493342" lon="-2.725227">
        <ele>717.1</ele>
        <time>2015-02-22T11:09:12Z</time>
      </trkpt>
      <trkpt lat="40.493320" lon="-2.725383">
        <ele>715.7</ele>
        <time>2015-02-22T11:09:15Z</time>
      </trkpt>
      <trkpt lat="40.493287" lon="-2.725513">
        <ele>714.5</ele>
        <time>2015-02-22T11:09:18Z</time>
      </trkpt>
      <trkpt lat="40.493255" lon="-2.725631">
        <ele>713.6</ele>
        <time>2015-02-22T11:09:21Z</time>
      </trkpt>
      <trkpt lat="40.493265" lon="-2.725777">
        <ele>712.4</ele>
        <time>2015-02-22T11:09:25Z</time>
      </trkpt>
      <trkpt lat="40.493335" lon="-2.725895">
        <ele>711.7</ele>
        <time>2015-02-22T11:09:28Z</time>
      </trkpt>
      <trkpt lat="40.493380" lon="-2.726010">
        <ele>711.2</ele>
        <time>2015-02-22T11:09:30Z</time>
      </trkpt>
      <trkpt lat="40.493422" lon="-2.726132">
        <ele>710.7</ele>
        <time>2015-02-22T11:09:32Z</time>
      </trkpt>
      <trkpt lat="40.493494" lon="-2.726212">
        <ele>710.4</ele>
        <time>2015-02-22T11:09:34Z</time>
      </trkpt>
      <trkpt lat="40.493585" lon="-2.726270">
        <ele>710.2</ele>
        <time>2015-02-22T11:09:36Z</time>
      </trkpt>
      <trkpt lat="40.493668" lon="-2.726372">
        <ele>709.7</ele>
        <time>2015-02-22T11:09:38Z</time>
      </trkpt>
      <trkpt lat="40.493730" lon="-2.726505">
        <ele>708.9</ele>
        <time>2015-02-22T11:09:40Z</time>
      </trkpt>
      <trkpt lat="40.493782" lon="-2.726643">
        <ele>708.1</ele>
        <time>2015-02-22T11:09:42Z</time>
      </trkpt>
      <trkpt lat="40.493807" lon="-2.726785">
        <ele>707.7</ele>
        <time>2015-02-22T11:09:44Z</time>
      </trkpt>
      <trkpt lat="40.493805" lon="-2.726920">
        <ele>707.4</ele>
        <time>2015-02-22T11:09:46Z</time>
      </trkpt>
      <trkpt lat="40.493802" lon="-2.727081">
        <ele>707.0</ele>
        <time>2015-02-22T11:09:49Z</time>
      </trkpt>
      <trkpt lat="40.493819" lon="-2.727221">
        <ele>706.7</ele>
        <time>2015-02-22T11:09:52Z</time>
      </trkpt>
      <trkpt lat="40.493824" lon="-2.727373">
        <ele>706.3</ele>
        <time>2015-02-22T11:09:55Z</time>
      </trkpt>
      <trkpt lat="40.493827" lon="-2.727513">
        <ele>706.0</ele>
        <time>2015-02-22T11:09:58Z</time>
      </trkpt>
      <trkpt lat="40.493807" lon="-2.727658">
        <ele>706.0</ele>
        <time>2015-02-22T11:10:02Z</time>
      </trkpt>
      <trkpt lat="40.493787" lon="-2.727783">
        <ele>706.0</ele>
        <time>2015-02-22T11:10:06Z</time>
      </trkpt>
      <trkpt lat="40.493699" lon="-2.727861">
        <ele>706.0</ele>
        <time>2015-02-22T11:10:10Z</time>
      </trkpt>
      <trkpt lat="40.493590" lon="-2.727933">
        <ele>706.0</ele>
        <time>2015-02-22T11:10:14Z</time>
      </trkpt>
      <trkpt lat="40.493490" lon="-2.727995">
        <ele>706.0</ele>
        <time>2015-02-22T11:10:17Z</time>
      </trkpt>
      <trkpt lat="40.493370" lon="-2.728062">
        <ele>706.0</ele>
        <time>2015-02-22T11:10:20Z</time>
      </trkpt>
      <trkpt lat="40.493262" lon="-2.728118">
        <ele>706.0</ele>
        <time>2015-02-22T11:10:23Z</time>
      </trkpt>
      <trkpt lat="40.493152" lon="-2.728173">
        <ele>706.0</ele>
        <time>2015-02-22T11:10:26Z</time>
      </trkpt>
      <trkpt lat="40.493042" lon="-2.728225">
        <ele>706.0</ele>
        <time>2015-02-22T11:10:29Z</time>
      </trkpt>
      <trkpt lat="40.492939" lon="-2.728272">
        <ele>706.0</ele>
        <time>2015-02-22T11:10:32Z</time>
      </trkpt>
      <trkpt lat="40.492832" lon="-2.728295">
        <ele>706.0</ele>
        <time>2015-02-22T11:10:35Z</time>
      </trkpt>
      <trkpt lat="40.492704" lon="-2.728280">
        <ele>706.0</ele>
        <time>2015-02-22T11:10:38Z</time>
      </trkpt>
      <trkpt lat="40.492617" lon="-2.728235">
        <ele>706.0</ele>
        <time>2015-02-22T11:10:40Z</time>
      </trkpt>
      <trkpt lat="40.492490" lon="-2.728196">
        <ele>706.0</ele>
        <time>2015-02-22T11:10:43Z</time>
      </trkpt>
      <trkpt lat="40.492395" lon="-2.728203">
        <ele>706.1</ele>
        <time>2015-02-22T11:10:45Z</time>
      </trkpt>
      <trkpt lat="40.492290" lon="-2.728215">
        <ele>706.2</ele>
        <time>2015-02-22T11:10:47Z</time>
      </trkpt>
      <trkpt lat="40.492178" lon="-2.728222">
        <ele>706.2</ele>
        <time>2015-02-22T11:10:49Z</time>
      </trkpt>
      <trkpt lat="40.492063" lon="-2.728223">
        <ele>706.3</ele>
        <time>2015-02-22T11:10:51Z</time>
      </trkpt>
      <trkpt lat="40.491952" lon="-2.728216">
        <ele>706.5</ele>
        <time>2015-02-22T11:10:53Z</time>
      </trkpt>
      <trkpt lat="40.491845" lon="-2.728210">
        <ele>706.6</ele>
        <time>2015-02-22T11:10:55Z</time>
      </trkpt>
      <trkpt lat="40.491733" lon="-2.728206">
        <ele>706.6</ele>
        <time>2015-02-22T11:10:57Z</time>
      </trkpt>
      <trkpt lat="40.491607" lon="-2.728208">
        <ele>707.0</ele>
        <time>2015-02-22T11:10:59Z</time>
      </trkpt>
      <trkpt lat="40.491472" lon="-2.728225">
        <ele>707.5</ele>
        <time>2015-02-22T11:11:01Z</time>
      </trkpt>
      <trkpt lat="40.491339" lon="-2.728250">
        <ele>708.0</ele>
        <time>2015-02-22T11:11:03Z</time>
      </trkpt>
      <trkpt lat="40.491212" lon="-2.728281">
        <ele>708.5</ele>
        <time>2015-02-22T11:11:05Z</time>
      </trkpt>
      <trkpt lat="40.491090" lon="-2.728313">
        <ele>708.8</ele>
        <time>2015-02-22T11:11:07Z</time>
      </trkpt>
      <trkpt lat="40.490977" lon="-2.728350">
        <ele>709.2</ele>
        <time>2015-02-22T11:11:09Z</time>
      </trkpt>
      <trkpt lat="40.490877" lon="-2.728400">
        <ele>709.5</ele>
        <time>2015-02-22T11:11:11Z</time>
      </trkpt>
      <trkpt lat="40.490782" lon="-2.728461">
        <ele>709.4</ele>
        <time>2015-02-22T11:11:13Z</time>
      </trkpt>
      <trkpt lat="40.490687" lon="-2.728506">
        <ele>709.1</ele>
        <time>2015-02-22T11:11:15Z</time>
      </trkpt>
      <trkpt lat="40.490585" lon="-2.728540">
        <ele>709.0</ele>
        <time>2015-02-22T11:11:17Z</time>
      </trkpt>
      <trkpt lat="40.490484" lon="-2.728575">
        <ele>708.8</ele>
        <time>2015-02-22T11:11:19Z</time>
      </trkpt>
      <trkpt lat="40.490380" lon="-2.728613">
        <ele>708.6</ele>
        <time>2015-02-22T11:11:21Z</time>
      </trkpt>
      <trkpt lat="40.490285" lon="-2.728656">
        <ele>708.4</ele>
        <time>2015-02-22T11:11:23Z</time>
      </trkpt>
      <trkpt lat="40.490198" lon="-2.728702">
        <ele>708.2</ele>
        <time>2015-02-22T11:11:25Z</time>
      </trkpt>
      <trkpt lat="40.490112" lon="-2.728743">
        <ele>708.0</ele>
        <time>2015-02-22T11:11:27Z</time>
      </trkpt>
      <trkpt lat="40.489982" lon="-2.728797">
        <ele>707.7</ele>
        <time>2015-02-22T11:11:30Z</time>
      </trkpt>
      <trkpt lat="40.489887" lon="-2.728828">
        <ele>707.5</ele>
        <time>2015-02-22T11:11:32Z</time>
      </trkpt>
      <trkpt lat="40.489782" lon="-2.728850">
        <ele>707.3</ele>
        <time>2015-02-22T11:11:34Z</time>
      </trkpt>
      <trkpt lat="40.489665" lon="-2.728861">
        <ele>707.1</ele>
        <time>2015-02-22T11:11:36Z</time>
      </trkpt>
      <trkpt lat="40.489542" lon="-2.728855">
        <ele>707.1</ele>
        <time>2015-02-22T11:11:38Z</time>
      </trkpt>
      <trkpt lat="40.489407" lon="-2.728833">
        <ele>707.0</ele>
        <time>2015-02-22T11:11:40Z</time>
      </trkpt>
      <trkpt lat="40.489267" lon="-2.728800">
        <ele>707.0</ele>
        <time>2015-02-22T11:11:42Z</time>
      </trkpt>
      <trkpt lat="40.489125" lon="-2.728773">
        <ele>706.9</ele>
        <time>2015-02-22T11:11:44Z</time>
      </trkpt>
      <trkpt lat="40.488980" lon="-2.728750">
        <ele>707.0</ele>
        <time>2015-02-22T11:11:46Z</time>
      </trkpt>
      <trkpt lat="40.488838" lon="-2.728730">
        <ele>707.0</ele>
        <time>2015-02-22T11:11:48Z</time>
      </trkpt>
      <trkpt lat="40.488702" lon="-2.728718">
        <ele>707.1</ele>
        <time>2015-02-22T11:11:50Z</time>
      </trkpt>
      <trkpt lat="40.488572" lon="-2.728708">
        <ele>707.1</ele>
        <time>2015-02-22T11:11:52Z</time>
      </trkpt>
      <trkpt lat="40.488455" lon="-2.728708">
        <ele>707.1</ele>
        <time>2015-02-22T11:11:54Z</time>
      </trkpt>
      <trkpt lat="40.488342" lon="-2.728707">
        <ele>707.1</ele>
        <time>2015-02-22T11:11:56Z</time>
      </trkpt>
      <trkpt lat="40.488224" lon="-2.728718">
        <ele>707.2</ele>
        <time>2015-02-22T11:11:58Z</time>
      </trkpt>
      <trkpt lat="40.488102" lon="-2.728728">
        <ele>707.3</ele>
        <time>2015-02-22T11:12:00Z</time>
      </trkpt>
      <trkpt lat="40.487982" lon="-2.728746">
        <ele>707.4</ele>
        <time>2015-02-22T11:12:02Z</time>
      </trkpt>
      <trkpt lat="40.487862" lon="-2.728776">
        <ele>707.5</ele>
        <time>2015-02-22T11:12:04Z</time>
      </trkpt>
      <trkpt lat="40.487745" lon="-2.728825">
        <ele>707.4</ele>
        <time>2015-02-22T11:12:06Z</time>
      </trkpt>
      <trkpt lat="40.487627" lon="-2.728890">
        <ele>707.2</ele>
        <time>2015-02-22T11:12:08Z</time>
      </trkpt>
      <trkpt lat="40.487513" lon="-2.728955">
        <ele>707.0</ele>
        <time>2015-02-22T11:12:10Z</time>
      </trkpt>
      <trkpt lat="40.487415" lon="-2.729035">
        <ele>706.5</ele>
        <time>2015-02-22T11:12:12Z</time>
      </trkpt>
      <trkpt lat="40.487317" lon="-2.729111">
        <ele>706.2</ele>
        <time>2015-02-22T11:12:14Z</time>
      </trkpt>
      <trkpt lat="40.487219" lon="-2.729196">
        <ele>706.0</ele>
        <time>2015-02-22T11:12:16Z</time>
      </trkpt>
      <trkpt lat="40.487120" lon="-2.729283">
        <ele>706.0</ele>
        <time>2015-02-22T11:12:18Z</time>
      </trkpt>
      <trkpt lat="40.487024" lon="-2.729373">
        <ele>706.0</ele>
        <time>2015-02-22T11:12:20Z</time>
      </trkpt>
      <trkpt lat="40.486932" lon="-2.729468">
        <ele>706.0</ele>
        <time>2015-02-22T11:12:22Z</time>
      </trkpt>
      <trkpt lat="40.486848" lon="-2.729570">
        <ele>706.0</ele>
        <time>2015-02-22T11:12:24Z</time>
      </trkpt>
      <trkpt lat="40.486792" lon="-2.729678">
        <ele>706.0</ele>
        <time>2015-02-22T11:12:26Z</time>
      </trkpt>
      <trkpt lat="40.486740" lon="-2.729783">
        <ele>706.0</ele>
        <time>2015-02-22T11:12:28Z</time>
      </trkpt>
      <trkpt lat="40.486623" lon="-2.729858">
        <ele>706.0</ele>
        <time>2015-02-22T11:12:31Z</time>
      </trkpt>
      <trkpt lat="40.486505" lon="-2.729853">
        <ele>706.0</ele>
        <time>2015-02-22T11:12:34Z</time>
      </trkpt>
      <trkpt lat="40.486393" lon="-2.729827">
        <ele>706.0</ele>
        <time>2015-02-22T11:12:37Z</time>
      </trkpt>
      <trkpt lat="40.486293" lon="-2.729791">
        <ele>706.0</ele>
        <time>2015-02-22T11:12:40Z</time>
      </trkpt>
      <trkpt lat="40.486185" lon="-2.729751">
        <ele>706.0</ele>
        <time>2015-02-22T11:12:43Z</time>
      </trkpt>
      <trkpt lat="40.486077" lon="-2.729730">
        <ele>706.0</ele>
        <time>2015-02-22T11:12:46Z</time>
      </trkpt>
      <trkpt lat="40.485960" lon="-2.729746">
        <ele>706.0</ele>
        <time>2015-02-22T11:12:49Z</time>
      </trkpt>
      <trkpt lat="40.485852" lon="-2.729793">
        <ele>706.0</ele>
        <time>2015-02-22T11:12:52Z</time>
      </trkpt>
      <trkpt lat="40.485760" lon="-2.729853">
        <ele>706.1</ele>
        <time>2015-02-22T11:12:55Z</time>
      </trkpt>
      <trkpt lat="40.485685" lon="-2.729927">
        <ele>706.1</ele>
        <time>2015-02-22T11:12:58Z</time>
      </trkpt>
      <trkpt lat="40.485618" lon="-2.730006">
        <ele>706.3</ele>
        <time>2015-02-22T11:13:01Z</time>
      </trkpt>
      <trkpt lat="40.485552" lon="-2.730088">
        <ele>706.3</ele>
        <time>2015-02-22T11:13:04Z</time>
      </trkpt>
      <trkpt lat="40.485465" lon="-2.730196">
        <ele>706.3</ele>
        <time>2015-02-22T11:13:08Z</time>
      </trkpt>
      <trkpt lat="40.485365" lon="-2.730280">
        <ele>706.4</ele>
        <time>2015-02-22T11:13:12Z</time>
      </trkpt>
      <trkpt lat="40.485283" lon="-2.730343">
        <ele>706.4</ele>
        <time>2015-02-22T11:13:15Z</time>
      </trkpt>
      <trkpt lat="40.485202" lon="-2.730413">
        <ele>706.4</ele>
        <time>2015-02-22T11:13:18Z</time>
      </trkpt>
      <trkpt lat="40.485143" lon="-2.730503">
        <ele>706.3</ele>
        <time>2015-02-22T11:13:21Z</time>
      </trkpt>
      <trkpt lat="40.485070" lon="-2.730617">
        <ele>706.2</ele>
        <time>2015-02-22T11:13:25Z</time>
      </trkpt>
      <trkpt lat="40.484995" lon="-2.730683">
        <ele>706.2</ele>
        <time>2015-02-22T11:13:28Z</time>
      </trkpt>
      <trkpt lat="40.484905" lon="-2.730727">
        <ele>706.8</ele>
        <time>2015-02-22T11:13:31Z</time>
      </trkpt>
      <trkpt lat="40.484789" lon="-2.730765">
        <ele>707.5</ele>
        <time>2015-02-22T11:13:35Z</time>
      </trkpt>
      <trkpt lat="40.484677" lon="-2.730795">
        <ele>708.3</ele>
        <time>2015-02-22T11:13:39Z</time>
      </trkpt>
      <trkpt lat="40.484569" lon="-2.730805">
        <ele>709.1</ele>
        <time>2015-02-22T11:13:43Z</time>
      </trkpt>
      <trkpt lat="40.484450" lon="-2.730813">
        <ele>709.9</ele>
        <time>2015-02-22T11:13:47Z</time>
      </trkpt>
      <trkpt lat="40.484355" lon="-2.730822">
        <ele>710.6</ele>
        <time>2015-02-22T11:13:50Z</time>
      </trkpt>
      <trkpt lat="40.484260" lon="-2.730850">
        <ele>711.6</ele>
        <time>2015-02-22T11:13:53Z</time>
      </trkpt>
      <trkpt lat="40.484194" lon="-2.730932">
        <ele>712.8</ele>
        <time>2015-02-22T11:13:56Z</time>
      </trkpt>
      <trkpt lat="40.484130" lon="-2.731050">
        <ele>714.5</ele>
        <time>2015-02-22T11:14:00Z</time>
      </trkpt>
      <trkpt lat="40.484074" lon="-2.731148">
        <ele>716.0</ele>
        <time>2015-02-22T11:14:04Z</time>
      </trkpt>
      <trkpt lat="40.483997" lon="-2.731236">
        <ele>717.4</ele>
        <time>2015-02-22T11:14:08Z</time>
      </trkpt>
      <trkpt lat="40.483913" lon="-2.731323">
        <ele>719.0</ele>
        <time>2015-02-22T11:14:12Z</time>
      </trkpt>
      <trkpt lat="40.483823" lon="-2.731382">
        <ele>720.3</ele>
        <time>2015-02-22T11:14:16Z</time>
      </trkpt>
      <trkpt lat="40.483730" lon="-2.731435">
        <ele>721.7</ele>
        <time>2015-02-22T11:14:20Z</time>
      </trkpt>
      <trkpt lat="40.483637" lon="-2.731478">
        <ele>722.8</ele>
        <time>2015-02-22T11:14:24Z</time>
      </trkpt>
      <trkpt lat="40.483535" lon="-2.731538">
        <ele>724.2</ele>
        <time>2015-02-22T11:14:29Z</time>
      </trkpt>
      <trkpt lat="40.483447" lon="-2.731568">
        <ele>725.3</ele>
        <time>2015-02-22T11:14:33Z</time>
      </trkpt>
      <trkpt lat="40.483352" lon="-2.731603">
        <ele>726.3</ele>
        <time>2015-02-22T11:14:37Z</time>
      </trkpt>
      <trkpt lat="40.483253" lon="-2.731632">
        <ele>726.9</ele>
        <time>2015-02-22T11:14:41Z</time>
      </trkpt>
      <trkpt lat="40.483158" lon="-2.731661">
        <ele>727.2</ele>
        <time>2015-02-22T11:14:45Z</time>
      </trkpt>
      <trkpt lat="40.483057" lon="-2.731705">
        <ele>727.3</ele>
        <time>2015-02-22T11:14:50Z</time>
      </trkpt>
      <trkpt lat="40.482972" lon="-2.731748">
        <ele>727.4</ele>
        <time>2015-02-22T11:14:54Z</time>
      </trkpt>
      <trkpt lat="40.482884" lon="-2.731796">
        <ele>727.5</ele>
        <time>2015-02-22T11:14:58Z</time>
      </trkpt>
      <trkpt lat="40.482787" lon="-2.731827">
        <ele>727.6</ele>
        <time>2015-02-22T11:15:02Z</time>
      </trkpt>
      <trkpt lat="40.482682" lon="-2.731840">
        <ele>727.9</ele>
        <time>2015-02-22T11:15:06Z</time>
      </trkpt>
      <trkpt lat="40.482588" lon="-2.731900">
        <ele>728.1</ele>
        <time>2015-02-22T11:15:10Z</time>
      </trkpt>
      <trkpt lat="40.482497" lon="-2.731957">
        <ele>728.4</ele>
        <time>2015-02-22T11:15:14Z</time>
      </trkpt>
      <trkpt lat="40.482383" lon="-2.731996">
        <ele>728.8</ele>
        <time>2015-02-22T11:15:18Z</time>
      </trkpt>
      <trkpt lat="40.482278" lon="-2.732040">
        <ele>729.2</ele>
        <time>2015-02-22T11:15:22Z</time>
      </trkpt>
      <trkpt lat="40.482172" lon="-2.732076">
        <ele>729.7</ele>
        <time>2015-02-22T11:15:26Z</time>
      </trkpt>
      <trkpt lat="40.482064" lon="-2.732103">
        <ele>730.1</ele>
        <time>2015-02-22T11:15:30Z</time>
      </trkpt>
      <trkpt lat="40.481972" lon="-2.732150">
        <ele>730.5</ele>
        <time>2015-02-22T11:15:34Z</time>
      </trkpt>
      <trkpt lat="40.481882" lon="-2.732213">
        <ele>730.9</ele>
        <time>2015-02-22T11:15:38Z</time>
      </trkpt>
      <trkpt lat="40.481803" lon="-2.732310">
        <ele>731.3</ele>
        <time>2015-02-22T11:15:42Z</time>
      </trkpt>
      <trkpt lat="40.481745" lon="-2.732416">
        <ele>731.6</ele>
        <time>2015-02-22T11:15:46Z</time>
      </trkpt>
      <trkpt lat="40.481659" lon="-2.732498">
        <ele>732.1</ele>
        <time>2015-02-22T11:15:50Z</time>
      </trkpt>
      <trkpt lat="40.481596" lon="-2.732560">
        <ele>732.8</ele>
        <time>2015-02-22T11:15:54Z</time>
      </trkpt>
      <trkpt lat="40.481487" lon="-2.732824">
        <ele>734.7</ele>
        <time>2015-02-22T11:17:44Z</time>
      </trkpt>
      <trkpt lat="40.481487" lon="-2.732824">
        <ele>734.7</ele>
        <time>2015-02-24T08:08:12Z</time>
      </trkpt>
      <trkpt lat="40.481477" lon="-2.732841">
        <ele>734.8</ele>
        <time>2015-02-22T06:55:23Z</time>
      </trkpt>
      <trkpt lat="40.481385" lon="-2.732909">
        <ele>735.9</ele>
        <time>2015-02-22T06:55:23Z</time>
      </trkpt>
      <trkpt lat="40.481251" lon="-2.732929">
        <ele>737.0</ele>
        <time>2015-02-22T06:55:23Z</time>
      </trkpt>
      <trkpt lat="40.480989" lon="-2.732780">
        <ele>738.7</ele>
        <time>2015-02-22T06:55:23Z</time>
      </trkpt>
      <trkpt lat="40.480885" lon="-2.732796">
        <ele>739.6</ele>
        <time>2015-02-22T06:55:28Z</time>
      </trkpt>
      <trkpt lat="40.480774" lon="-2.732818">
        <ele>740.5</ele>
        <time>2015-02-22T06:55:33Z</time>
      </trkpt>
      <trkpt lat="40.480667" lon="-2.732856">
        <ele>741.3</ele>
        <time>2015-02-22T06:55:36Z</time>
      </trkpt>
      <trkpt lat="40.480552" lon="-2.732856">
        <ele>742.0</ele>
        <time>2015-02-22T06:55:39Z</time>
      </trkpt>
      <trkpt lat="40.480417" lon="-2.732842">
        <ele>742.8</ele>
        <time>2015-02-22T06:55:42Z</time>
      </trkpt>
      <trkpt lat="40.480319" lon="-2.732833">
        <ele>743.3</ele>
        <time>2015-02-22T06:55:44Z</time>
      </trkpt>
      <trkpt lat="40.480218" lon="-2.732813">
        <ele>743.8</ele>
        <time>2015-02-22T06:55:46Z</time>
      </trkpt>
      <trkpt lat="40.480123" lon="-2.732805">
        <ele>744.4</ele>
        <time>2015-02-22T06:55:48Z</time>
      </trkpt>
      <trkpt lat="40.480022" lon="-2.732785">
        <ele>744.9</ele>
        <time>2015-02-22T06:55:50Z</time>
      </trkpt>
      <trkpt lat="40.479918" lon="-2.732761">
        <ele>745.3</ele>
        <time>2015-02-22T06:55:52Z</time>
      </trkpt>
      <trkpt lat="40.479827" lon="-2.732740">
        <ele>745.7</ele>
        <time>2015-02-22T06:55:54Z</time>
      </trkpt>
      <trkpt lat="40.479737" lon="-2.732722">
        <ele>746.0</ele>
        <time>2015-02-22T06:55:56Z</time>
      </trkpt>
      <trkpt lat="40.479640" lon="-2.732742">
        <ele>746.5</ele>
        <time>2015-02-22T06:55:58Z</time>
      </trkpt>
      <trkpt lat="40.479530" lon="-2.732820">
        <ele>747.2</ele>
        <time>2015-02-22T06:56:01Z</time>
      </trkpt>
      <trkpt lat="40.479422" lon="-2.732893">
        <ele>747.9</ele>
        <time>2015-02-22T06:56:04Z</time>
      </trkpt>
      <trkpt lat="40.479314" lon="-2.732950">
        <ele>748.5</ele>
        <time>2015-02-22T06:56:07Z</time>
      </trkpt>
      <trkpt lat="40.479225" lon="-2.732975">
        <ele>748.9</ele>
        <time>2015-02-22T06:56:09Z</time>
      </trkpt>
      <trkpt lat="40.479135" lon="-2.732995">
        <ele>749.2</ele>
        <time>2015-02-22T06:56:11Z</time>
      </trkpt>
      <trkpt lat="40.479040" lon="-2.733015">
        <ele>749.3</ele>
        <time>2015-02-22T06:56:13Z</time>
      </trkpt>
      <trkpt lat="40.478939" lon="-2.733023">
        <ele>749.4</ele>
        <time>2015-02-22T06:56:15Z</time>
      </trkpt>
      <trkpt lat="40.478834" lon="-2.733042">
        <ele>749.6</ele>
        <time>2015-02-22T06:56:17Z</time>
      </trkpt>
      <trkpt lat="40.478727" lon="-2.733058">
        <ele>749.7</ele>
        <time>2015-02-22T06:56:19Z</time>
      </trkpt>
      <trkpt lat="40.478615" lon="-2.733060">
        <ele>749.8</ele>
        <time>2015-02-22T06:56:21Z</time>
      </trkpt>
      <trkpt lat="40.478502" lon="-2.733075">
        <ele>750.0</ele>
        <time>2015-02-22T06:56:23Z</time>
      </trkpt>
      <trkpt lat="40.478395" lon="-2.733086">
        <ele>750.2</ele>
        <time>2015-02-22T06:56:25Z</time>
      </trkpt>
      <trkpt lat="40.478292" lon="-2.733085">
        <ele>750.2</ele>
        <time>2015-02-22T06:56:27Z</time>
      </trkpt>
      <trkpt lat="40.478185" lon="-2.733060">
        <ele>750.1</ele>
        <time>2015-02-22T06:56:29Z</time>
      </trkpt>
      <trkpt lat="40.478085" lon="-2.733008">
        <ele>749.9</ele>
        <time>2015-02-22T06:56:31Z</time>
      </trkpt>
      <trkpt lat="40.477993" lon="-2.732963">
        <ele>749.7</ele>
        <time>2015-02-22T06:56:33Z</time>
      </trkpt>
      <trkpt lat="40.477912" lon="-2.732911">
        <ele>749.5</ele>
        <time>2015-02-22T06:56:35Z</time>
      </trkpt>
      <trkpt lat="40.477867" lon="-2.732788">
        <ele>748.8</ele>
        <time>2015-02-22T06:56:38Z</time>
      </trkpt>
      <trkpt lat="40.477893" lon="-2.732618">
        <ele>747.8</ele>
        <time>2015-02-22T06:56:41Z</time>
      </trkpt>
      <trkpt lat="40.477910" lon="-2.732492">
        <ele>747.0</ele>
        <time>2015-02-22T06:56:43Z</time>
      </trkpt>
      <trkpt lat="40.477897" lon="-2.732343">
        <ele>745.7</ele>
        <time>2015-02-22T06:56:45Z</time>
      </trkpt>
      <trkpt lat="40.477873" lon="-2.732191">
        <ele>744.6</ele>
        <time>2015-02-22T06:56:48Z</time>
      </trkpt>
      <trkpt lat="40.477857" lon="-2.732038">
        <ele>743.4</ele>
        <time>2015-02-22T06:56:51Z</time>
      </trkpt>
      <trkpt lat="40.477827" lon="-2.731881">
        <ele>742.2</ele>
        <time>2015-02-22T06:56:54Z</time>
      </trkpt>
      <trkpt lat="40.477730" lon="-2.731838">
        <ele>742.2</ele>
        <time>2015-02-22T06:56:57Z</time>
      </trkpt>
      <trkpt lat="40.477622" lon="-2.731891">
        <ele>743.2</ele>
        <time>2015-02-22T06:57:00Z</time>
      </trkpt>
      <trkpt lat="40.477497" lon="-2.731943">
        <ele>744.1</ele>
        <time>2015-02-22T06:57:03Z</time>
      </trkpt>
      <trkpt lat="40.477375" lon="-2.731896">
        <ele>743.8</ele>
        <time>2015-02-22T06:57:05Z</time>
      </trkpt>
      <trkpt lat="40.477238" lon="-2.731833">
        <ele>743.5</ele>
        <time>2015-02-22T06:57:07Z</time>
      </trkpt>
      <trkpt lat="40.477092" lon="-2.731765">
        <ele>743.2</ele>
        <time>2015-02-22T06:57:09Z</time>
      </trkpt>
      <trkpt lat="40.476960" lon="-2.731702">
        <ele>742.9</ele>
        <time>2015-02-22T06:57:11Z</time>
      </trkpt>
      <trkpt lat="40.476837" lon="-2.731635">
        <ele>742.7</ele>
        <time>2015-02-22T06:57:13Z</time>
      </trkpt>
      <trkpt lat="40.476722" lon="-2.731570">
        <ele>742.5</ele>
        <time>2015-02-22T06:57:15Z</time>
      </trkpt>
      <trkpt lat="40.476612" lon="-2.731503">
        <ele>742.2</ele>
        <time>2015-02-22T06:57:17Z</time>
      </trkpt>
      <trkpt lat="40.476509" lon="-2.731440">
        <ele>741.8</ele>
        <time>2015-02-22T06:57:19Z</time>
      </trkpt>
      <trkpt lat="40.476405" lon="-2.731392">
        <ele>741.5</ele>
        <time>2015-02-22T06:57:21Z</time>
      </trkpt>
      <trkpt lat="40.476303" lon="-2.731340">
        <ele>741.2</ele>
        <time>2015-02-22T06:57:23Z</time>
      </trkpt>
      <trkpt lat="40.476197" lon="-2.731287">
        <ele>740.9</ele>
        <time>2015-02-22T06:57:25Z</time>
      </trkpt>
      <trkpt lat="40.476088" lon="-2.731230">
        <ele>740.6</ele>
        <time>2015-02-22T06:57:27Z</time>
      </trkpt>
      <trkpt lat="40.475982" lon="-2.731172">
        <ele>740.3</ele>
        <time>2015-02-22T06:57:29Z</time>
      </trkpt>
      <trkpt lat="40.475880" lon="-2.731108">
        <ele>740.0</ele>
        <time>2015-02-22T06:57:31Z</time>
      </trkpt>
      <trkpt lat="40.475780" lon="-2.731044">
        <ele>740.1</ele>
        <time>2015-02-22T06:57:33Z</time>
      </trkpt>
      <trkpt lat="40.475680" lon="-2.730981">
        <ele>740.4</ele>
        <time>2015-02-22T06:57:35Z</time>
      </trkpt>
      <trkpt lat="40.475580" lon="-2.730928">
        <ele>740.8</ele>
        <time>2015-02-22T06:57:37Z</time>
      </trkpt>
      <trkpt lat="40.475487" lon="-2.730886">
        <ele>741.2</ele>
        <time>2015-02-22T06:57:39Z</time>
      </trkpt>
      <trkpt lat="40.475404" lon="-2.730842">
        <ele>741.6</ele>
        <time>2015-02-22T06:57:41Z</time>
      </trkpt>
      <trkpt lat="40.475280" lon="-2.730780">
        <ele>742.1</ele>
        <time>2015-02-22T06:57:44Z</time>
      </trkpt>
      <trkpt lat="40.475159" lon="-2.730738">
        <ele>742.7</ele>
        <time>2015-02-22T06:57:47Z</time>
      </trkpt>
      <trkpt lat="40.475032" lon="-2.730703">
        <ele>743.2</ele>
        <time>2015-02-22T06:57:50Z</time>
      </trkpt>
      <trkpt lat="40.474902" lon="-2.730676">
        <ele>743.6</ele>
        <time>2015-02-22T06:57:53Z</time>
      </trkpt>
      <trkpt lat="40.474773" lon="-2.730658">
        <ele>744.1</ele>
        <time>2015-02-22T06:57:56Z</time>
      </trkpt>
      <trkpt lat="40.474670" lon="-2.730648">
        <ele>744.4</ele>
        <time>2015-02-22T06:57:59Z</time>
      </trkpt>
      <trkpt lat="40.474552" lon="-2.730619">
        <ele>744.7</ele>
        <time>2015-02-22T06:58:02Z</time>
      </trkpt>
      <trkpt lat="40.474464" lon="-2.730590">
        <ele>745.0</ele>
        <time>2015-02-22T06:58:04Z</time>
      </trkpt>
      <trkpt lat="40.474354" lon="-2.730502">
        <ele>745.1</ele>
        <time>2015-02-22T06:58:07Z</time>
      </trkpt>
      <trkpt lat="40.474267" lon="-2.730426">
        <ele>745.1</ele>
        <time>2015-02-22T06:58:09Z</time>
      </trkpt>
      <trkpt lat="40.474147" lon="-2.730382">
        <ele>745.5</ele>
        <time>2015-02-22T06:58:11Z</time>
      </trkpt>
      <trkpt lat="40.474034" lon="-2.730348">
        <ele>745.6</ele>
        <time>2015-02-22T06:58:13Z</time>
      </trkpt>
      <trkpt lat="40.473927" lon="-2.730310">
        <ele>745.7</ele>
        <time>2015-02-22T06:58:15Z</time>
      </trkpt>
      <trkpt lat="40.473822" lon="-2.730262">
        <ele>745.7</ele>
        <time>2015-02-22T06:58:17Z</time>
      </trkpt>
      <trkpt lat="40.473717" lon="-2.730230">
        <ele>745.8</ele>
        <time>2015-02-22T06:58:19Z</time>
      </trkpt>
      <trkpt lat="40.473612" lon="-2.730201">
        <ele>745.9</ele>
        <time>2015-02-22T06:58:21Z</time>
      </trkpt>
      <trkpt lat="40.473497" lon="-2.730175">
        <ele>746.0</ele>
        <time>2015-02-22T06:58:23Z</time>
      </trkpt>
      <trkpt lat="40.473413" lon="-2.730128">
        <ele>745.8</ele>
        <time>2015-02-22T06:58:25Z</time>
      </trkpt>
      <trkpt lat="40.473412" lon="-2.729962">
        <ele>744.8</ele>
        <time>2015-02-22T06:58:28Z</time>
      </trkpt>
      <trkpt lat="40.473474" lon="-2.729861">
        <ele>744.3</ele>
        <time>2015-02-22T06:58:30Z</time>
      </trkpt>
      <trkpt lat="40.473540" lon="-2.729773">
        <ele>743.8</ele>
        <time>2015-02-22T06:58:32Z</time>
      </trkpt>
      <trkpt lat="40.473602" lon="-2.729687">
        <ele>743.2</ele>
        <time>2015-02-22T06:58:34Z</time>
      </trkpt>
      <trkpt lat="40.473684" lon="-2.729558">
        <ele>742.3</ele>
        <time>2015-02-22T06:58:37Z</time>
      </trkpt>
      <trkpt lat="40.473767" lon="-2.729463">
        <ele>741.6</ele>
        <time>2015-02-22T06:58:40Z</time>
      </trkpt>
      <trkpt lat="40.473882" lon="-2.729425">
        <ele>740.9</ele>
        <time>2015-02-22T06:58:43Z</time>
      </trkpt>
      <trkpt lat="40.473900" lon="-2.729293">
        <ele>740.1</ele>
        <time>2015-02-22T06:58:48Z</time>
      </trkpt>
      <trkpt lat="40.473825" lon="-2.729196">
        <ele>739.9</ele>
        <time>2015-02-22T06:58:54Z</time>
      </trkpt>
      <trkpt lat="40.473715" lon="-2.729133">
        <ele>740.2</ele>
        <time>2015-02-22T06:58:57Z</time>
      </trkpt>
      <trkpt lat="40.473625" lon="-2.729126">
        <ele>740.7</ele>
        <time>2015-02-22T06:59:01Z</time>
      </trkpt>
      <trkpt lat="40.473567" lon="-2.729232">
        <ele>741.2</ele>
        <time>2015-02-22T06:59:05Z</time>
      </trkpt>
      <trkpt lat="40.473522" lon="-2.729345">
        <ele>741.9</ele>
        <time>2015-02-22T06:59:10Z</time>
      </trkpt>
      <trkpt lat="40.473459" lon="-2.729433">
        <ele>742.5</ele>
        <time>2015-02-22T06:59:14Z</time>
      </trkpt>
      <trkpt lat="40.473384" lon="-2.729518">
        <ele>743.1</ele>
        <time>2015-02-22T06:59:18Z</time>
      </trkpt>
      <trkpt lat="40.473303" lon="-2.729615">
        <ele>743.6</ele>
        <time>2015-02-22T06:59:22Z</time>
      </trkpt>
      <trkpt lat="40.473222" lon="-2.729710">
        <ele>743.7</ele>
        <time>2015-02-22T06:59:26Z</time>
      </trkpt>
      <trkpt lat="40.473127" lon="-2.729803">
        <ele>743.7</ele>
        <time>2015-02-22T06:59:30Z</time>
      </trkpt>
      <trkpt lat="40.473052" lon="-2.729870">
        <ele>743.6</ele>
        <time>2015-02-22T06:59:33Z</time>
      </trkpt>
      <trkpt lat="40.472958" lon="-2.729900">
        <ele>743.4</ele>
        <time>2015-02-22T06:59:36Z</time>
      </trkpt>
      <trkpt lat="40.472862" lon="-2.729890">
        <ele>743.1</ele>
        <time>2015-02-22T06:59:39Z</time>
      </trkpt>
      <trkpt lat="40.472768" lon="-2.729883">
        <ele>742.7</ele>
        <time>2015-02-22T06:59:42Z</time>
      </trkpt>
      <trkpt lat="40.472679" lon="-2.729873">
        <ele>742.4</ele>
        <time>2015-02-22T06:59:45Z</time>
      </trkpt>
      <trkpt lat="40.472572" lon="-2.729835">
        <ele>742.0</ele>
        <time>2015-02-22T06:59:49Z</time>
      </trkpt>
      <trkpt lat="40.472479" lon="-2.729780">
        <ele>741.7</ele>
        <time>2015-02-22T06:59:53Z</time>
      </trkpt>
      <trkpt lat="40.472369" lon="-2.729700">
        <ele>741.8</ele>
        <time>2015-02-22T06:59:57Z</time>
      </trkpt>
      <trkpt lat="40.472250" lon="-2.729640">
        <ele>741.8</ele>
        <time>2015-02-22T07:00:00Z</time>
      </trkpt>
      <trkpt lat="40.472130" lon="-2.729580">
        <ele>741.9</ele>
        <time>2015-02-22T07:00:03Z</time>
      </trkpt>
      <trkpt lat="40.472025" lon="-2.729538">
        <ele>742.1</ele>
        <time>2015-02-22T07:00:06Z</time>
      </trkpt>
      <trkpt lat="40.471934" lon="-2.729492">
        <ele>742.2</ele>
        <time>2015-02-22T07:00:09Z</time>
      </trkpt>
      <trkpt lat="40.471848" lon="-2.729445">
        <ele>742.4</ele>
        <time>2015-02-22T07:00:12Z</time>
      </trkpt>
      <trkpt lat="40.471762" lon="-2.729405">
        <ele>742.5</ele>
        <time>2015-02-22T07:00:15Z</time>
      </trkpt>
      <trkpt lat="40.471653" lon="-2.729351">
        <ele>742.8</ele>
        <time>2015-02-22T07:00:19Z</time>
      </trkpt>
      <trkpt lat="40.471562" lon="-2.729295">
        <ele>743.2</ele>
        <time>2015-02-22T07:00:23Z</time>
      </trkpt>
      <trkpt lat="40.471480" lon="-2.729228">
        <ele>743.6</ele>
        <time>2015-02-22T07:00:27Z</time>
      </trkpt>
      <trkpt lat="40.471383" lon="-2.729201">
        <ele>743.9</ele>
        <time>2015-02-22T07:00:31Z</time>
      </trkpt>
      <trkpt lat="40.471282" lon="-2.729178">
        <ele>744.4</ele>
        <time>2015-02-22T07:00:35Z</time>
      </trkpt>
      <trkpt lat="40.471181" lon="-2.729162">
        <ele>744.7</ele>
        <time>2015-02-22T07:00:39Z</time>
      </trkpt>
      <trkpt lat="40.471077" lon="-2.729133">
        <ele>745.5</ele>
        <time>2015-02-22T07:00:44Z</time>
      </trkpt>
      <trkpt lat="40.471045" lon="-2.729020">
        <ele>747.6</ele>
        <time>2015-02-22T07:00:53Z</time>
      </trkpt>
      <trkpt lat="40.471029" lon="-2.728896">
        <ele>749.5</ele>
        <time>2015-02-22T07:01:06Z</time>
      </trkpt>
      <trkpt lat="40.471050" lon="-2.728773">
        <ele>751.5</ele>
        <time>2015-02-22T07:01:19Z</time>
      </trkpt>
      <trkpt lat="40.471042" lon="-2.728653">
        <ele>753.5</ele>
        <time>2015-02-22T07:01:30Z</time>
      </trkpt>
      <trkpt lat="40.471040" lon="-2.728533">
        <ele>755.4</ele>
        <time>2015-02-22T07:01:43Z</time>
      </trkpt>
      <trkpt lat="40.471024" lon="-2.728413">
        <ele>757.6</ele>
        <time>2015-02-22T07:01:52Z</time>
      </trkpt>
      <trkpt lat="40.471017" lon="-2.728287">
        <ele>759.0</ele>
        <time>2015-02-22T07:02:00Z</time>
      </trkpt>
      <trkpt lat="40.470973" lon="-2.728181">
        <ele>759.7</ele>
        <time>2015-02-22T07:02:07Z</time>
      </trkpt>
      <trkpt lat="40.470894" lon="-2.728110">
        <ele>760.5</ele>
        <time>2015-02-22T07:02:15Z</time>
      </trkpt>
      <trkpt lat="40.470822" lon="-2.728027">
        <ele>761.1</ele>
        <time>2015-02-22T07:02:25Z</time>
      </trkpt>
      <trkpt lat="40.470760" lon="-2.727918">
        <ele>761.5</ele>
        <time>2015-02-22T07:02:35Z</time>
      </trkpt>
      <trkpt lat="40.470680" lon="-2.727860">
        <ele>761.7</ele>
        <time>2015-02-22T07:02:39Z</time>
      </trkpt>
      <trkpt lat="40.470574" lon="-2.727820">
        <ele>761.9</ele>
        <time>2015-02-22T07:02:44Z</time>
      </trkpt>
      <trkpt lat="40.470485" lon="-2.727778">
        <ele>762.1</ele>
        <time>2015-02-22T07:02:48Z</time>
      </trkpt>
      <trkpt lat="40.470403" lon="-2.727713">
        <ele>762.4</ele>
        <time>2015-02-22T07:02:52Z</time>
      </trkpt>
      <trkpt lat="40.470339" lon="-2.727628">
        <ele>762.9</ele>
        <time>2015-02-22T07:02:56Z</time>
      </trkpt>
      <trkpt lat="40.470272" lon="-2.727523">
        <ele>763.5</ele>
        <time>2015-02-22T07:03:01Z</time>
      </trkpt>
      <trkpt lat="40.470182" lon="-2.727450">
        <ele>763.7</ele>
        <time>2015-02-22T07:03:05Z</time>
      </trkpt>
      <trkpt lat="40.470100" lon="-2.727390">
        <ele>763.8</ele>
        <time>2015-02-22T07:03:09Z</time>
      </trkpt>
      <trkpt lat="40.469999" lon="-2.727326">
        <ele>764.0</ele>
        <time>2015-02-22T07:03:13Z</time>
      </trkpt>
      <trkpt lat="40.469900" lon="-2.727260">
        <ele>764.8</ele>
        <time>2015-02-22T07:03:17Z</time>
      </trkpt>
      <trkpt lat="40.469810" lon="-2.727186">
        <ele>765.5</ele>
        <time>2015-02-22T07:03:21Z</time>
      </trkpt>
      <trkpt lat="40.469717" lon="-2.727105">
        <ele>766.2</ele>
        <time>2015-02-22T07:03:25Z</time>
      </trkpt>
      <trkpt lat="40.469632" lon="-2.727027">
        <ele>766.8</ele>
        <time>2015-02-22T07:03:29Z</time>
      </trkpt>
      <trkpt lat="40.469547" lon="-2.726965">
        <ele>767.5</ele>
        <time>2015-02-22T07:03:33Z</time>
      </trkpt>
      <trkpt lat="40.469467" lon="-2.726903">
        <ele>768.0</ele>
        <time>2015-02-22T07:03:37Z</time>
      </trkpt>
      <trkpt lat="40.469373" lon="-2.726836">
        <ele>768.7</ele>
        <time>2015-02-22T07:03:42Z</time>
      </trkpt>
      <trkpt lat="40.469275" lon="-2.726770">
        <ele>769.3</ele>
        <time>2015-02-22T07:03:47Z</time>
      </trkpt>
      <trkpt lat="40.469172" lon="-2.726732">
        <ele>770.0</ele>
        <time>2015-02-22T07:03:53Z</time>
      </trkpt>
      <trkpt lat="40.469077" lon="-2.726726">
        <ele>770.5</ele>
        <time>2015-02-22T07:03:57Z</time>
      </trkpt>
      <trkpt lat="40.468980" lon="-2.726717">
        <ele>771.0</ele>
        <time>2015-02-22T07:04:01Z</time>
      </trkpt>
      <trkpt lat="40.468892" lon="-2.726682">
        <ele>771.3</ele>
        <time>2015-02-22T07:04:05Z</time>
      </trkpt>
      <trkpt lat="40.468807" lon="-2.726638">
        <ele>771.6</ele>
        <time>2015-02-22T07:04:09Z</time>
      </trkpt>
      <trkpt lat="40.468719" lon="-2.726598">
        <ele>771.7</ele>
        <time>2015-02-22T07:04:13Z</time>
      </trkpt>
      <trkpt lat="40.468627" lon="-2.726568">
        <ele>772.0</ele>
        <time>2015-02-22T07:04:18Z</time>
      </trkpt>
      <trkpt lat="40.468557" lon="-2.726490">
        <ele>771.8</ele>
        <time>2015-02-22T07:04:22Z</time>
      </trkpt>
      <trkpt lat="40.468487" lon="-2.726410">
        <ele>771.6</ele>
        <time>2015-02-22T07:04:27Z</time>
      </trkpt>
      <trkpt lat="40.468405" lon="-2.726305">
        <ele>771.2</ele>
        <time>2015-02-22T07:04:31Z</time>
      </trkpt>
      <trkpt lat="40.468320" lon="-2.726257">
        <ele>771.1</ele>
        <time>2015-02-22T07:04:35Z</time>
      </trkpt>
      <trkpt lat="40.468230" lon="-2.726203">
        <ele>770.9</ele>
        <time>2015-02-22T07:04:38Z</time>
      </trkpt>
      <trkpt lat="40.468115" lon="-2.726137">
        <ele>770.7</ele>
        <time>2015-02-22T07:04:41Z</time>
      </trkpt>
      <trkpt lat="40.467997" lon="-2.726088">
        <ele>770.5</ele>
        <time>2015-02-22T07:04:44Z</time>
      </trkpt>
      <trkpt lat="40.467892" lon="-2.726065">
        <ele>770.5</ele>
        <time>2015-02-22T07:04:47Z</time>
      </trkpt>
      <trkpt lat="40.467789" lon="-2.726045">
        <ele>770.6</ele>
        <time>2015-02-22T07:04:50Z</time>
      </trkpt>
      <trkpt lat="40.467689" lon="-2.726032">
        <ele>770.7</ele>
        <time>2015-02-22T07:04:53Z</time>
      </trkpt>
      <trkpt lat="40.467599" lon="-2.726018">
        <ele>770.7</ele>
        <time>2015-02-22T07:04:56Z</time>
      </trkpt>
      <trkpt lat="40.467500" lon="-2.726022">
        <ele>770.9</ele>
        <time>2015-02-22T07:04:59Z</time>
      </trkpt>
      <trkpt lat="40.467407" lon="-2.726035">
        <ele>770.8</ele>
        <time>2015-02-22T07:05:02Z</time>
      </trkpt>
      <trkpt lat="40.467297" lon="-2.726073">
        <ele>771.0</ele>
        <time>2015-02-22T07:05:06Z</time>
      </trkpt>
      <trkpt lat="40.467182" lon="-2.726083">
        <ele>771.0</ele>
        <time>2015-02-22T07:05:10Z</time>
      </trkpt>
      <trkpt lat="40.467085" lon="-2.726042">
        <ele>770.3</ele>
        <time>2015-02-22T07:05:14Z</time>
      </trkpt>
      <trkpt lat="40.466999" lon="-2.725970">
        <ele>769.4</ele>
        <time>2015-02-22T07:05:17Z</time>
      </trkpt>
      <trkpt lat="40.466927" lon="-2.725876">
        <ele>768.2</ele>
        <time>2015-02-22T07:05:20Z</time>
      </trkpt>
      <trkpt lat="40.466842" lon="-2.725812">
        <ele>767.2</ele>
        <time>2015-02-22T07:05:23Z</time>
      </trkpt>
      <trkpt lat="40.466742" lon="-2.725740">
        <ele>766.0</ele>
        <time>2015-02-22T07:05:27Z</time>
      </trkpt>
      <trkpt lat="40.466633" lon="-2.725683">
        <ele>765.1</ele>
        <time>2015-02-22T07:05:30Z</time>
      </trkpt>
      <trkpt lat="40.466539" lon="-2.725613">
        <ele>764.2</ele>
        <time>2015-02-22T07:05:33Z</time>
      </trkpt>
      <trkpt lat="40.466445" lon="-2.725556">
        <ele>763.7</ele>
        <time>2015-02-22T07:05:37Z</time>
      </trkpt>
      <trkpt lat="40.466352" lon="-2.725513">
        <ele>763.3</ele>
        <time>2015-02-22T07:05:40Z</time>
      </trkpt>
      <trkpt lat="40.466265" lon="-2.725453">
        <ele>762.7</ele>
        <time>2015-02-22T07:05:43Z</time>
      </trkpt>
      <trkpt lat="40.466185" lon="-2.725391">
        <ele>762.1</ele>
        <time>2015-02-22T07:05:46Z</time>
      </trkpt>
      <trkpt lat="40.466120" lon="-2.725301">
        <ele>761.2</ele>
        <time>2015-02-22T07:05:53Z</time>
      </trkpt>
      <trkpt lat="40.466073" lon="-2.725183">
        <ele>760.1</ele>
        <time>2015-02-22T07:06:00Z</time>
      </trkpt>
      <trkpt lat="40.466053" lon="-2.725048">
        <ele>758.8</ele>
        <time>2015-02-22T07:06:06Z</time>
      </trkpt>
      <trkpt lat="40.466019" lon="-2.724917">
        <ele>758.4</ele>
        <time>2015-02-22T07:06:11Z</time>
      </trkpt>
      <trkpt lat="40.465928" lon="-2.724855">
        <ele>758.8</ele>
        <time>2015-02-22T07:06:17Z</time>
      </trkpt>
      <trkpt lat="40.465828" lon="-2.724875">
        <ele>759.2</ele>
        <time>2015-02-22T07:06:21Z</time>
      </trkpt>
      <trkpt lat="40.465728" lon="-2.724893">
        <ele>759.8</ele>
        <time>2015-02-22T07:06:25Z</time>
      </trkpt>
      <trkpt lat="40.465625" lon="-2.724915">
        <ele>760.4</ele>
        <time>2015-02-22T07:06:29Z</time>
      </trkpt>
      <trkpt lat="40.465512" lon="-2.724938">
        <ele>761.0</ele>
        <time>2015-02-22T07:06:33Z</time>
      </trkpt>
      <trkpt lat="40.465422" lon="-2.724965">
        <ele>761.5</ele>
        <time>2015-02-22T07:06:36Z</time>
      </trkpt>
      <trkpt lat="40.465327" lon="-2.724992">
        <ele>762.0</ele>
        <time>2015-02-22T07:06:39Z</time>
      </trkpt>
      <trkpt lat="40.465225" lon="-2.725017">
        <ele>762.8</ele>
        <time>2015-02-22T07:06:42Z</time>
      </trkpt>
      <trkpt lat="40.465122" lon="-2.725038">
        <ele>763.4</ele>
        <time>2015-02-22T07:06:45Z</time>
      </trkpt>
      <trkpt lat="40.465022" lon="-2.725058">
        <ele>764.1</ele>
        <time>2015-02-22T07:06:48Z</time>
      </trkpt>
      <trkpt lat="40.464918" lon="-2.725078">
        <ele>764.4</ele>
        <time>2015-02-22T07:06:51Z</time>
      </trkpt>
      <trkpt lat="40.464815" lon="-2.725101">
        <ele>764.6</ele>
        <time>2015-02-22T07:06:54Z</time>
      </trkpt>
      <trkpt lat="40.464710" lon="-2.725128">
        <ele>764.9</ele>
        <time>2015-02-22T07:06:57Z</time>
      </trkpt>
      <trkpt lat="40.464598" lon="-2.725149">
        <ele>765.1</ele>
        <time>2015-02-22T07:07:00Z</time>
      </trkpt>
      <trkpt lat="40.464478" lon="-2.725168">
        <ele>765.4</ele>
        <time>2015-02-22T07:07:03Z</time>
      </trkpt>
      <trkpt lat="40.464354" lon="-2.725188">
        <ele>765.7</ele>
        <time>2015-02-22T07:07:06Z</time>
      </trkpt>
      <trkpt lat="40.464227" lon="-2.725213">
        <ele>766.0</ele>
        <time>2015-02-22T07:07:09Z</time>
      </trkpt>
      <trkpt lat="40.464109" lon="-2.725243">
        <ele>766.4</ele>
        <time>2015-02-22T07:07:12Z</time>
      </trkpt>
      <trkpt lat="40.463989" lon="-2.725275">
        <ele>767.1</ele>
        <time>2015-02-22T07:07:15Z</time>
      </trkpt>
      <trkpt lat="40.463857" lon="-2.725305">
        <ele>767.8</ele>
        <time>2015-02-22T07:07:18Z</time>
      </trkpt>
      <trkpt lat="40.463762" lon="-2.725323">
        <ele>768.3</ele>
        <time>2015-02-22T07:07:20Z</time>
      </trkpt>
      <trkpt lat="40.463667" lon="-2.725338">
        <ele>768.8</ele>
        <time>2015-02-22T07:07:22Z</time>
      </trkpt>
      <trkpt lat="40.463570" lon="-2.725350">
        <ele>769.2</ele>
        <time>2015-02-22T07:07:24Z</time>
      </trkpt>
      <trkpt lat="40.463472" lon="-2.725358">
        <ele>769.7</ele>
        <time>2015-02-22T07:07:26Z</time>
      </trkpt>
      <trkpt lat="40.463372" lon="-2.725383">
        <ele>770.2</ele>
        <time>2015-02-22T07:07:28Z</time>
      </trkpt>
      <trkpt lat="40.463265" lon="-2.725423">
        <ele>770.3</ele>
        <time>2015-02-22T07:07:30Z</time>
      </trkpt>
      <trkpt lat="40.463153" lon="-2.725462">
        <ele>770.1</ele>
        <time>2015-02-22T07:07:32Z</time>
      </trkpt>
      <trkpt lat="40.463042" lon="-2.725485">
        <ele>769.9</ele>
        <time>2015-02-22T07:07:34Z</time>
      </trkpt>
      <trkpt lat="40.462930" lon="-2.725490">
        <ele>769.5</ele>
        <time>2015-02-22T07:07:36Z</time>
      </trkpt>
      <trkpt lat="40.462818" lon="-2.725483">
        <ele>769.1</ele>
        <time>2015-02-22T07:07:38Z</time>
      </trkpt>
      <trkpt lat="40.462707" lon="-2.725455">
        <ele>768.7</ele>
        <time>2015-02-22T07:07:40Z</time>
      </trkpt>
      <trkpt lat="40.462590" lon="-2.725423">
        <ele>768.3</ele>
        <time>2015-02-22T07:07:42Z</time>
      </trkpt>
      <trkpt lat="40.462466" lon="-2.725405">
        <ele>767.8</ele>
        <time>2015-02-22T07:07:44Z</time>
      </trkpt>
      <trkpt lat="40.462339" lon="-2.725376">
        <ele>766.9</ele>
        <time>2015-02-22T07:07:46Z</time>
      </trkpt>
      <trkpt lat="40.462217" lon="-2.725313">
        <ele>766.1</ele>
        <time>2015-02-22T07:07:48Z</time>
      </trkpt>
      <trkpt lat="40.462099" lon="-2.725234">
        <ele>765.2</ele>
        <time>2015-02-22T07:07:50Z</time>
      </trkpt>
      <trkpt lat="40.461984" lon="-2.725143">
        <ele>764.3</ele>
        <time>2015-02-22T07:07:52Z</time>
      </trkpt>
      <trkpt lat="40.461874" lon="-2.725051">
        <ele>763.4</ele>
        <time>2015-02-22T07:07:54Z</time>
      </trkpt>
      <trkpt lat="40.461762" lon="-2.724963">
        <ele>762.5</ele>
        <time>2015-02-22T07:07:56Z</time>
      </trkpt>
      <trkpt lat="40.461647" lon="-2.724882">
        <ele>761.8</ele>
        <time>2015-02-22T07:07:58Z</time>
      </trkpt>
      <trkpt lat="40.461534" lon="-2.724808">
        <ele>761.2</ele>
        <time>2015-02-22T07:08:00Z</time>
      </trkpt>
      <trkpt lat="40.461419" lon="-2.724735">
        <ele>760.6</ele>
        <time>2015-02-22T07:08:02Z</time>
      </trkpt>
      <trkpt lat="40.461307" lon="-2.724663">
        <ele>760.0</ele>
        <time>2015-02-22T07:08:04Z</time>
      </trkpt>
      <trkpt lat="40.461204" lon="-2.724595">
        <ele>759.3</ele>
        <time>2015-02-22T07:08:06Z</time>
      </trkpt>
      <trkpt lat="40.461099" lon="-2.724528">
        <ele>758.6</ele>
        <time>2015-02-22T07:08:08Z</time>
      </trkpt>
      <trkpt lat="40.460994" lon="-2.724472">
        <ele>757.9</ele>
        <time>2015-02-22T07:08:10Z</time>
      </trkpt>
      <trkpt lat="40.460897" lon="-2.724405">
        <ele>757.2</ele>
        <time>2015-02-22T07:08:12Z</time>
      </trkpt>
      <trkpt lat="40.460805" lon="-2.724337">
        <ele>756.7</ele>
        <time>2015-02-22T07:08:14Z</time>
      </trkpt>
      <trkpt lat="40.460710" lon="-2.724275">
        <ele>756.9</ele>
        <time>2015-02-22T07:08:16Z</time>
      </trkpt>
      <trkpt lat="40.460612" lon="-2.724222">
        <ele>757.0</ele>
        <time>2015-02-22T07:08:18Z</time>
      </trkpt>
      <trkpt lat="40.460514" lon="-2.724186">
        <ele>757.2</ele>
        <time>2015-02-22T07:08:20Z</time>
      </trkpt>
      <trkpt lat="40.460407" lon="-2.724150">
        <ele>757.5</ele>
        <time>2015-02-22T07:08:22Z</time>
      </trkpt>
      <trkpt lat="40.460300" lon="-2.724065">
        <ele>757.4</ele>
        <time>2015-02-22T07:08:24Z</time>
      </trkpt>
      <trkpt lat="40.460187" lon="-2.723980">
        <ele>757.2</ele>
        <time>2015-02-22T07:08:26Z</time>
      </trkpt>
      <trkpt lat="40.460055" lon="-2.723925">
        <ele>757.4</ele>
        <time>2015-02-22T07:08:28Z</time>
      </trkpt>
      <trkpt lat="40.459918" lon="-2.723865">
        <ele>757.0</ele>
        <time>2015-02-22T07:08:30Z</time>
      </trkpt>
      <trkpt lat="40.459778" lon="-2.723788">
        <ele>756.1</ele>
        <time>2015-02-22T07:08:32Z</time>
      </trkpt>
      <trkpt lat="40.459632" lon="-2.723715">
        <ele>755.2</ele>
        <time>2015-02-22T07:08:34Z</time>
      </trkpt>
      <trkpt lat="40.459480" lon="-2.723645">
        <ele>754.2</ele>
        <time>2015-02-22T07:08:36Z</time>
      </trkpt>
      <trkpt lat="40.459325" lon="-2.723575">
        <ele>753.3</ele>
        <time>2015-02-22T07:08:38Z</time>
      </trkpt>
      <trkpt lat="40.459169" lon="-2.723505">
        <ele>752.3</ele>
        <time>2015-02-22T07:08:40Z</time>
      </trkpt>
      <trkpt lat="40.459010" lon="-2.723430">
        <ele>750.8</ele>
        <time>2015-02-22T07:08:42Z</time>
      </trkpt>
      <trkpt lat="40.458850" lon="-2.723353">
        <ele>749.3</ele>
        <time>2015-02-22T07:08:44Z</time>
      </trkpt>
      <trkpt lat="40.458690" lon="-2.723278">
        <ele>748.0</ele>
        <time>2015-02-22T07:08:46Z</time>
      </trkpt>
      <trkpt lat="40.458524" lon="-2.723201">
        <ele>746.8</ele>
        <time>2015-02-22T07:08:48Z</time>
      </trkpt>
      <trkpt lat="40.458438" lon="-2.723161">
        <ele>746.2</ele>
        <time>2015-02-22T07:08:49Z</time>
      </trkpt>
      <trkpt lat="40.458353" lon="-2.723122">
        <ele>745.6</ele>
        <time>2015-02-22T07:08:50Z</time>
      </trkpt>
      <trkpt lat="40.458267" lon="-2.723080">
        <ele>745.1</ele>
        <time>2015-02-22T07:08:51Z</time>
      </trkpt>
      <trkpt lat="40.458098" lon="-2.722998">
        <ele>744.3</ele>
        <time>2015-02-22T07:08:53Z</time>
      </trkpt>
      <trkpt lat="40.457927" lon="-2.722921">
        <ele>743.3</ele>
        <time>2015-02-22T07:08:55Z</time>
      </trkpt>
      <trkpt lat="40.457840" lon="-2.722882">
        <ele>742.9</ele>
        <time>2015-02-22T07:08:56Z</time>
      </trkpt>
      <trkpt lat="40.457752" lon="-2.722841">
        <ele>742.4</ele>
        <time>2015-02-22T07:08:57Z</time>
      </trkpt>
      <trkpt lat="40.457663" lon="-2.722802">
        <ele>741.8</ele>
        <time>2015-02-22T07:08:58Z</time>
      </trkpt>
      <trkpt lat="40.457577" lon="-2.722758">
        <ele>741.3</ele>
        <time>2015-02-22T07:08:59Z</time>
      </trkpt>
      <trkpt lat="40.457490" lon="-2.722715">
        <ele>740.8</ele>
        <time>2015-02-22T07:09:00Z</time>
      </trkpt>
      <trkpt lat="40.457405" lon="-2.722672">
        <ele>740.3</ele>
        <time>2015-02-22T07:09:01Z</time>
      </trkpt>
      <trkpt lat="40.457318" lon="-2.722630">
        <ele>739.8</ele>
        <time>2015-02-22T07:09:02Z</time>
      </trkpt>
      <trkpt lat="40.457233" lon="-2.722586">
        <ele>739.4</ele>
        <time>2015-02-22T07:09:03Z</time>
      </trkpt>
      <trkpt lat="40.457069" lon="-2.722501">
        <ele>738.5</ele>
        <time>2015-02-22T07:09:05Z</time>
      </trkpt>
      <trkpt lat="40.456905" lon="-2.722427">
        <ele>738.0</ele>
        <time>2015-02-22T07:09:07Z</time>
      </trkpt>
      <trkpt lat="40.456750" lon="-2.722360">
        <ele>737.6</ele>
        <time>2015-02-22T07:09:09Z</time>
      </trkpt>
      <trkpt lat="40.456597" lon="-2.722295">
        <ele>737.3</ele>
        <time>2015-02-22T07:09:11Z</time>
      </trkpt>
      <trkpt lat="40.456450" lon="-2.722225">
        <ele>737.3</ele>
        <time>2015-02-22T07:09:13Z</time>
      </trkpt>
      <trkpt lat="40.456313" lon="-2.722151">
        <ele>737.3</ele>
        <time>2015-02-22T07:09:15Z</time>
      </trkpt>
      <trkpt lat="40.456179" lon="-2.722087">
        <ele>737.4</ele>
        <time>2015-02-22T07:09:17Z</time>
      </trkpt>
      <trkpt lat="40.456049" lon="-2.722022">
        <ele>737.5</ele>
        <time>2015-02-22T07:09:19Z</time>
      </trkpt>
      <trkpt lat="40.455937" lon="-2.721980">
        <ele>737.6</ele>
        <time>2015-02-22T07:09:21Z</time>
      </trkpt>
      <trkpt lat="40.455820" lon="-2.721988">
        <ele>737.4</ele>
        <time>2015-02-22T07:09:23Z</time>
      </trkpt>
      <trkpt lat="40.455699" lon="-2.722000">
        <ele>737.3</ele>
        <time>2015-02-22T07:09:25Z</time>
      </trkpt>
      <trkpt lat="40.455577" lon="-2.722020">
        <ele>737.3</ele>
        <time>2015-02-22T07:09:27Z</time>
      </trkpt>
      <trkpt lat="40.455462" lon="-2.722056">
        <ele>737.1</ele>
        <time>2015-02-22T07:09:29Z</time>
      </trkpt>
      <trkpt lat="40.455353" lon="-2.722112">
        <ele>736.9</ele>
        <time>2015-02-22T07:09:31Z</time>
      </trkpt>
      <trkpt lat="40.455254" lon="-2.722176">
        <ele>736.7</ele>
        <time>2015-02-22T07:09:33Z</time>
      </trkpt>
      <trkpt lat="40.455152" lon="-2.722222">
        <ele>736.6</ele>
        <time>2015-02-22T07:09:35Z</time>
      </trkpt>
      <trkpt lat="40.455040" lon="-2.722258">
        <ele>736.5</ele>
        <time>2015-02-22T07:09:37Z</time>
      </trkpt>
      <trkpt lat="40.454929" lon="-2.722298">
        <ele>736.2</ele>
        <time>2015-02-22T07:09:39Z</time>
      </trkpt>
      <trkpt lat="40.454817" lon="-2.722356">
        <ele>735.7</ele>
        <time>2015-02-22T07:09:41Z</time>
      </trkpt>
      <trkpt lat="40.454697" lon="-2.722408">
        <ele>735.1</ele>
        <time>2015-02-22T07:09:43Z</time>
      </trkpt>
      <trkpt lat="40.454580" lon="-2.722443">
        <ele>734.6</ele>
        <time>2015-02-22T07:09:45Z</time>
      </trkpt>
      <trkpt lat="40.454462" lon="-2.722467">
        <ele>734.1</ele>
        <time>2015-02-22T07:09:47Z</time>
      </trkpt>
      <trkpt lat="40.454345" lon="-2.722493">
        <ele>733.6</ele>
        <time>2015-02-22T07:09:49Z</time>
      </trkpt>
      <trkpt lat="40.454230" lon="-2.722515">
        <ele>733.3</ele>
        <time>2015-02-22T07:09:51Z</time>
      </trkpt>
      <trkpt lat="40.454124" lon="-2.722555">
        <ele>733.2</ele>
        <time>2015-02-22T07:09:53Z</time>
      </trkpt>
      <trkpt lat="40.454007" lon="-2.722630">
        <ele>733.4</ele>
        <time>2015-02-22T07:09:56Z</time>
      </trkpt>
      <trkpt lat="40.453882" lon="-2.722687">
        <ele>733.5</ele>
        <time>2015-02-22T07:09:59Z</time>
      </trkpt>
      <trkpt lat="40.453787" lon="-2.722726">
        <ele>733.5</ele>
        <time>2015-02-22T07:10:01Z</time>
      </trkpt>
      <trkpt lat="40.453682" lon="-2.722778">
        <ele>733.4</ele>
        <time>2015-02-22T07:10:03Z</time>
      </trkpt>
      <trkpt lat="40.453577" lon="-2.722831">
        <ele>733.4</ele>
        <time>2015-02-22T07:10:05Z</time>
      </trkpt>
      <trkpt lat="40.453492" lon="-2.722908">
        <ele>733.3</ele>
        <time>2015-02-22T07:10:07Z</time>
      </trkpt>
      <trkpt lat="40.453415" lon="-2.722976">
        <ele>733.2</ele>
        <time>2015-02-22T07:10:09Z</time>
      </trkpt>
      <trkpt lat="40.453332" lon="-2.723027">
        <ele>733.0</ele>
        <time>2015-02-22T07:10:11Z</time>
      </trkpt>
      <trkpt lat="40.453207" lon="-2.723085">
        <ele>732.4</ele>
        <time>2015-02-22T07:10:14Z</time>
      </trkpt>
      <trkpt lat="40.453119" lon="-2.723115">
        <ele>732.0</ele>
        <time>2015-02-22T07:10:16Z</time>
      </trkpt>
      <trkpt lat="40.453025" lon="-2.723137">
        <ele>731.6</ele>
        <time>2015-02-22T07:10:18Z</time>
      </trkpt>
      <trkpt lat="40.452932" lon="-2.723156">
        <ele>731.2</ele>
        <time>2015-02-22T07:10:20Z</time>
      </trkpt>
      <trkpt lat="40.452840" lon="-2.723165">
        <ele>730.8</ele>
        <time>2015-02-22T07:10:22Z</time>
      </trkpt>
      <trkpt lat="40.452746" lon="-2.723176">
        <ele>730.3</ele>
        <time>2015-02-22T07:10:24Z</time>
      </trkpt>
      <trkpt lat="40.452652" lon="-2.723190">
        <ele>729.9</ele>
        <time>2015-02-22T07:10:26Z</time>
      </trkpt>
      <trkpt lat="40.452552" lon="-2.723186">
        <ele>729.4</ele>
        <time>2015-02-22T07:10:28Z</time>
      </trkpt>
      <trkpt lat="40.452454" lon="-2.723171">
        <ele>729.3</ele>
        <time>2015-02-22T07:10:30Z</time>
      </trkpt>
      <trkpt lat="40.452359" lon="-2.723155">
        <ele>729.4</ele>
        <time>2015-02-22T07:10:32Z</time>
      </trkpt>
      <trkpt lat="40.452267" lon="-2.723142">
        <ele>729.6</ele>
        <time>2015-02-22T07:10:34Z</time>
      </trkpt>
      <trkpt lat="40.452175" lon="-2.723127">
        <ele>729.7</ele>
        <time>2015-02-22T07:10:36Z</time>
      </trkpt>
      <trkpt lat="40.452055" lon="-2.723130">
        <ele>729.9</ele>
        <time>2015-02-22T07:10:39Z</time>
      </trkpt>
      <trkpt lat="40.451954" lon="-2.723137">
        <ele>730.0</ele>
        <time>2015-02-22T07:10:42Z</time>
      </trkpt>
      <trkpt lat="40.451850" lon="-2.723140">
        <ele>730.2</ele>
        <time>2015-02-22T07:10:45Z</time>
      </trkpt>
      <trkpt lat="40.451737" lon="-2.723156">
        <ele>730.3</ele>
        <time>2015-02-22T07:10:48Z</time>
      </trkpt>
      <trkpt lat="40.451635" lon="-2.723180">
        <ele>730.3</ele>
        <time>2015-02-22T07:10:51Z</time>
      </trkpt>
      <trkpt lat="40.451528" lon="-2.723185">
        <ele>730.0</ele>
        <time>2015-02-22T07:10:54Z</time>
      </trkpt>
      <trkpt lat="40.451428" lon="-2.723190">
        <ele>729.8</ele>
        <time>2015-02-22T07:10:57Z</time>
      </trkpt>
      <trkpt lat="40.451325" lon="-2.723237">
        <ele>729.4</ele>
        <time>2015-02-22T07:11:00Z</time>
      </trkpt>
      <trkpt lat="40.451208" lon="-2.723265">
        <ele>729.1</ele>
        <time>2015-02-22T07:11:03Z</time>
      </trkpt>
      <trkpt lat="40.451088" lon="-2.723286">
        <ele>728.7</ele>
        <time>2015-02-22T07:11:06Z</time>
      </trkpt>
      <trkpt lat="40.450973" lon="-2.723311">
        <ele>728.4</ele>
        <time>2015-02-22T07:11:09Z</time>
      </trkpt>
      <trkpt lat="40.450865" lon="-2.723335">
        <ele>728.1</ele>
        <time>2015-02-22T07:11:12Z</time>
      </trkpt>
      <trkpt lat="40.450752" lon="-2.723361">
        <ele>727.8</ele>
        <time>2015-02-22T07:11:15Z</time>
      </trkpt>
      <trkpt lat="40.450630" lon="-2.723376">
        <ele>727.6</ele>
        <time>2015-02-22T07:11:18Z</time>
      </trkpt>
      <trkpt lat="40.450500" lon="-2.723385">
        <ele>727.3</ele>
        <time>2015-02-22T07:11:21Z</time>
      </trkpt>
      <trkpt lat="40.450410" lon="-2.723401">
        <ele>727.1</ele>
        <time>2015-02-22T07:11:23Z</time>
      </trkpt>
      <trkpt lat="40.450320" lon="-2.723400">
        <ele>726.9</ele>
        <time>2015-02-22T07:11:25Z</time>
      </trkpt>
      <trkpt lat="40.450188" lon="-2.723372">
        <ele>726.5</ele>
        <time>2015-02-22T07:11:28Z</time>
      </trkpt>
      <trkpt lat="40.450100" lon="-2.723342">
        <ele>726.3</ele>
        <time>2015-02-22T07:11:30Z</time>
      </trkpt>
      <trkpt lat="40.450010" lon="-2.723307">
        <ele>726.1</ele>
        <time>2015-02-22T07:11:32Z</time>
      </trkpt>
      <trkpt lat="40.449915" lon="-2.723283">
        <ele>726.2</ele>
        <time>2015-02-22T07:11:34Z</time>
      </trkpt>
      <trkpt lat="40.449824" lon="-2.723275">
        <ele>726.2</ele>
        <time>2015-02-22T07:11:36Z</time>
      </trkpt>
      <trkpt lat="40.449695" lon="-2.723295">
        <ele>726.1</ele>
        <time>2015-02-22T07:11:39Z</time>
      </trkpt>
      <trkpt lat="40.449575" lon="-2.723342">
        <ele>726.0</ele>
        <time>2015-02-22T07:11:42Z</time>
      </trkpt>
      <trkpt lat="40.449464" lon="-2.723386">
        <ele>726.0</ele>
        <time>2015-02-22T07:11:45Z</time>
      </trkpt>
      <trkpt lat="40.449337" lon="-2.723410">
        <ele>726.0</ele>
        <time>2015-02-22T07:11:48Z</time>
      </trkpt>
      <trkpt lat="40.449242" lon="-2.723413">
        <ele>726.0</ele>
        <time>2015-02-22T07:11:50Z</time>
      </trkpt>
      <trkpt lat="40.449137" lon="-2.723420">
        <ele>725.9</ele>
        <time>2015-02-22T07:11:52Z</time>
      </trkpt>
      <trkpt lat="40.449027" lon="-2.723442">
        <ele>725.5</ele>
        <time>2015-02-22T07:11:54Z</time>
      </trkpt>
      <trkpt lat="40.448917" lon="-2.723483">
        <ele>725.1</ele>
        <time>2015-02-22T07:11:56Z</time>
      </trkpt>
      <trkpt lat="40.448810" lon="-2.723538">
        <ele>724.7</ele>
        <time>2015-02-22T07:11:58Z</time>
      </trkpt>
      <trkpt lat="40.448694" lon="-2.723590">
        <ele>724.3</ele>
        <time>2015-02-22T07:12:00Z</time>
      </trkpt>
      <trkpt lat="40.448575" lon="-2.723631">
        <ele>723.9</ele>
        <time>2015-02-22T07:12:02Z</time>
      </trkpt>
      <trkpt lat="40.448455" lon="-2.723660">
        <ele>723.4</ele>
        <time>2015-02-22T07:12:04Z</time>
      </trkpt>
      <trkpt lat="40.448337" lon="-2.723687">
        <ele>723.0</ele>
        <time>2015-02-22T07:12:06Z</time>
      </trkpt>
      <trkpt lat="40.448217" lon="-2.723712">
        <ele>722.6</ele>
        <time>2015-02-22T07:12:08Z</time>
      </trkpt>
      <trkpt lat="40.448097" lon="-2.723731">
        <ele>722.2</ele>
        <time>2015-02-22T07:12:10Z</time>
      </trkpt>
      <trkpt lat="40.447979" lon="-2.723746">
        <ele>721.7</ele>
        <time>2015-02-22T07:12:12Z</time>
      </trkpt>
      <trkpt lat="40.447858" lon="-2.723763">
        <ele>721.3</ele>
        <time>2015-02-22T07:12:14Z</time>
      </trkpt>
      <trkpt lat="40.447742" lon="-2.723778">
        <ele>720.8</ele>
        <time>2015-02-22T07:12:16Z</time>
      </trkpt>
      <trkpt lat="40.447632" lon="-2.723798">
        <ele>720.4</ele>
        <time>2015-02-22T07:12:18Z</time>
      </trkpt>
      <trkpt lat="40.447522" lon="-2.723797">
        <ele>720.0</ele>
        <time>2015-02-22T07:12:20Z</time>
      </trkpt>
      <trkpt lat="40.447413" lon="-2.723788">
        <ele>720.0</ele>
        <time>2015-02-22T07:12:22Z</time>
      </trkpt>
      <trkpt lat="40.447303" lon="-2.723810">
        <ele>720.2</ele>
        <time>2015-02-22T07:12:24Z</time>
      </trkpt>
      <trkpt lat="40.447192" lon="-2.723827">
        <ele>720.3</ele>
        <time>2015-02-22T07:12:26Z</time>
      </trkpt>
      <trkpt lat="40.447087" lon="-2.723846">
        <ele>720.5</ele>
        <time>2015-02-22T07:12:28Z</time>
      </trkpt>
      <trkpt lat="40.446984" lon="-2.723868">
        <ele>720.7</ele>
        <time>2015-02-22T07:12:30Z</time>
      </trkpt>
      <trkpt lat="40.446880" lon="-2.723893">
        <ele>720.9</ele>
        <time>2015-02-22T07:12:32Z</time>
      </trkpt>
      <trkpt lat="40.446780" lon="-2.723930">
        <ele>721.2</ele>
        <time>2015-02-22T07:12:34Z</time>
      </trkpt>
      <trkpt lat="40.446689" lon="-2.723992">
        <ele>721.5</ele>
        <time>2015-02-22T07:12:36Z</time>
      </trkpt>
      <trkpt lat="40.446605" lon="-2.724065">
        <ele>721.7</ele>
        <time>2015-02-22T07:12:38Z</time>
      </trkpt>
      <trkpt lat="40.446508" lon="-2.724110">
        <ele>721.7</ele>
        <time>2015-02-22T07:12:40Z</time>
      </trkpt>
      <trkpt lat="40.446407" lon="-2.724140">
        <ele>721.6</ele>
        <time>2015-02-22T07:12:42Z</time>
      </trkpt>
      <trkpt lat="40.446304" lon="-2.724163">
        <ele>721.6</ele>
        <time>2015-02-22T07:12:44Z</time>
      </trkpt>
      <trkpt lat="40.446202" lon="-2.724191">
        <ele>721.5</ele>
        <time>2015-02-22T07:12:46Z</time>
      </trkpt>
      <trkpt lat="40.446099" lon="-2.724200">
        <ele>721.4</ele>
        <time>2015-02-22T07:12:48Z</time>
      </trkpt>
      <trkpt lat="40.445995" lon="-2.724191">
        <ele>721.3</ele>
        <time>2015-02-22T07:12:50Z</time>
      </trkpt>
      <trkpt lat="40.445889" lon="-2.724178">
        <ele>721.1</ele>
        <time>2015-02-22T07:12:52Z</time>
      </trkpt>
      <trkpt lat="40.445782" lon="-2.724168">
        <ele>721.1</ele>
        <time>2015-02-22T07:12:54Z</time>
      </trkpt>
      <trkpt lat="40.445677" lon="-2.724165">
        <ele>721.2</ele>
        <time>2015-02-22T07:12:56Z</time>
      </trkpt>
      <trkpt lat="40.445575" lon="-2.724168">
        <ele>721.3</ele>
        <time>2015-02-22T07:12:58Z</time>
      </trkpt>
      <trkpt lat="40.445472" lon="-2.724166">
        <ele>721.4</ele>
        <time>2015-02-22T07:13:00Z</time>
      </trkpt>
      <trkpt lat="40.445364" lon="-2.724165">
        <ele>721.6</ele>
        <time>2015-02-22T07:13:02Z</time>
      </trkpt>
      <trkpt lat="40.445253" lon="-2.724171">
        <ele>721.7</ele>
        <time>2015-02-22T07:13:04Z</time>
      </trkpt>
      <trkpt lat="40.445142" lon="-2.724186">
        <ele>721.9</ele>
        <time>2015-02-22T07:13:06Z</time>
      </trkpt>
      <trkpt lat="40.445028" lon="-2.724206">
        <ele>722.0</ele>
        <time>2015-02-22T07:13:08Z</time>
      </trkpt>
      <trkpt lat="40.444927" lon="-2.724218">
        <ele>722.3</ele>
        <time>2015-02-22T07:13:10Z</time>
      </trkpt>
      <trkpt lat="40.444827" lon="-2.724201">
        <ele>722.6</ele>
        <time>2015-02-22T07:13:13Z</time>
      </trkpt>
      <trkpt lat="40.444727" lon="-2.724206">
        <ele>723.0</ele>
        <time>2015-02-22T07:13:19Z</time>
      </trkpt>
      <trkpt lat="40.444613" lon="-2.724203">
        <ele>723.3</ele>
        <time>2015-02-22T07:13:23Z</time>
      </trkpt>
      <trkpt lat="40.444505" lon="-2.724183">
        <ele>723.7</ele>
        <time>2015-02-22T07:13:26Z</time>
      </trkpt>
      <trkpt lat="40.444415" lon="-2.724165">
        <ele>724.1</ele>
        <time>2015-02-22T07:13:29Z</time>
      </trkpt>
      <trkpt lat="40.444305" lon="-2.724148">
        <ele>724.5</ele>
        <time>2015-02-22T07:13:32Z</time>
      </trkpt>
      <trkpt lat="40.444195" lon="-2.724129">
        <ele>724.8</ele>
        <time>2015-02-22T07:13:35Z</time>
      </trkpt>
      <trkpt lat="40.444087" lon="-2.724122">
        <ele>725.0</ele>
        <time>2015-02-22T07:13:38Z</time>
      </trkpt>
      <trkpt lat="40.443955" lon="-2.724102">
        <ele>725.0</ele>
        <time>2015-02-22T07:13:41Z</time>
      </trkpt>
      <trkpt lat="40.443830" lon="-2.724081">
        <ele>725.1</ele>
        <time>2015-02-22T07:13:44Z</time>
      </trkpt>
      <trkpt lat="40.443733" lon="-2.724073">
        <ele>725.1</ele>
        <time>2015-02-22T07:13:46Z</time>
      </trkpt>
      <trkpt lat="40.443635" lon="-2.724061">
        <ele>725.1</ele>
        <time>2015-02-22T07:13:48Z</time>
      </trkpt>
      <trkpt lat="40.443534" lon="-2.724028">
        <ele>725.0</ele>
        <time>2015-02-22T07:13:50Z</time>
      </trkpt>
      <trkpt lat="40.443435" lon="-2.723978">
        <ele>724.7</ele>
        <time>2015-02-22T07:13:52Z</time>
      </trkpt>
      <trkpt lat="40.443327" lon="-2.723927">
        <ele>724.3</ele>
        <time>2015-02-22T07:13:54Z</time>
      </trkpt>
      <trkpt lat="40.443233" lon="-2.723883">
        <ele>723.8</ele>
        <time>2015-02-22T07:13:56Z</time>
      </trkpt>
      <trkpt lat="40.443135" lon="-2.723873">
        <ele>723.5</ele>
        <time>2015-02-22T07:13:58Z</time>
      </trkpt>
      <trkpt lat="40.443038" lon="-2.723858">
        <ele>723.1</ele>
        <time>2015-02-22T07:14:00Z</time>
      </trkpt>
      <trkpt lat="40.442928" lon="-2.723812">
        <ele>722.5</ele>
        <time>2015-02-22T07:14:03Z</time>
      </trkpt>
      <trkpt lat="40.442827" lon="-2.723803">
        <ele>722.2</ele>
        <time>2015-02-22T07:14:06Z</time>
      </trkpt>
      <trkpt lat="40.442708" lon="-2.723773">
        <ele>721.7</ele>
        <time>2015-02-22T07:14:09Z</time>
      </trkpt>
      <trkpt lat="40.442587" lon="-2.723745">
        <ele>721.2</ele>
        <time>2015-02-22T07:14:12Z</time>
      </trkpt>
      <trkpt lat="40.442468" lon="-2.723721">
        <ele>720.8</ele>
        <time>2015-02-22T07:14:15Z</time>
      </trkpt>
      <trkpt lat="40.442355" lon="-2.723698">
        <ele>720.8</ele>
        <time>2015-02-22T07:14:18Z</time>
      </trkpt>
      <trkpt lat="40.442229" lon="-2.723680">
        <ele>720.8</ele>
        <time>2015-02-22T07:14:21Z</time>
      </trkpt>
      <trkpt lat="40.442115" lon="-2.723670">
        <ele>720.8</ele>
        <time>2015-02-22T07:14:24Z</time>
      </trkpt>
      <trkpt lat="40.441995" lon="-2.723685">
        <ele>721.0</ele>
        <time>2015-02-22T07:14:28Z</time>
      </trkpt>
      <trkpt lat="40.441880" lon="-2.723683">
        <ele>721.2</ele>
        <time>2015-02-22T07:14:31Z</time>
      </trkpt>
      <trkpt lat="40.441779" lon="-2.723685">
        <ele>721.3</ele>
        <time>2015-02-22T07:14:34Z</time>
      </trkpt>
      <trkpt lat="40.441654" lon="-2.723688">
        <ele>721.5</ele>
        <time>2015-02-22T07:14:37Z</time>
      </trkpt>
      <trkpt lat="40.441524" lon="-2.723683">
        <ele>721.1</ele>
        <time>2015-02-22T07:14:40Z</time>
      </trkpt>
      <trkpt lat="40.441434" lon="-2.723700">
        <ele>721.1</ele>
        <time>2015-02-22T07:14:42Z</time>
      </trkpt>
      <trkpt lat="40.441340" lon="-2.723723">
        <ele>721.2</ele>
        <time>2015-02-22T07:14:44Z</time>
      </trkpt>
      <trkpt lat="40.441250" lon="-2.723741">
        <ele>721.2</ele>
        <time>2015-02-22T07:14:46Z</time>
      </trkpt>
      <trkpt lat="40.441132" lon="-2.723753">
        <ele>721.2</ele>
        <time>2015-02-22T07:14:49Z</time>
      </trkpt>
      <trkpt lat="40.441030" lon="-2.723751">
        <ele>720.9</ele>
        <time>2015-02-22T07:14:52Z</time>
      </trkpt>
      <trkpt lat="40.440920" lon="-2.723772">
        <ele>720.9</ele>
        <time>2015-02-22T07:14:55Z</time>
      </trkpt>
      <trkpt lat="40.440802" lon="-2.723795">
        <ele>720.9</ele>
        <time>2015-02-22T07:14:58Z</time>
      </trkpt>
      <trkpt lat="40.440687" lon="-2.723798">
        <ele>720.8</ele>
        <time>2015-02-22T07:15:01Z</time>
      </trkpt>
      <trkpt lat="40.440578" lon="-2.723788">
        <ele>720.7</ele>
        <time>2015-02-22T07:15:04Z</time>
      </trkpt>
      <trkpt lat="40.440468" lon="-2.723783">
        <ele>720.6</ele>
        <time>2015-02-22T07:15:07Z</time>
      </trkpt>
      <trkpt lat="40.440360" lon="-2.723788">
        <ele>720.5</ele>
        <time>2015-02-22T07:15:10Z</time>
      </trkpt>
      <trkpt lat="40.440250" lon="-2.723798">
        <ele>720.5</ele>
        <time>2015-02-22T07:15:13Z</time>
      </trkpt>
      <trkpt lat="40.440143" lon="-2.723797">
        <ele>720.5</ele>
        <time>2015-02-22T07:15:16Z</time>
      </trkpt>
      <trkpt lat="40.440025" lon="-2.723800">
        <ele>720.4</ele>
        <time>2015-02-22T07:15:19Z</time>
      </trkpt>
      <trkpt lat="40.439932" lon="-2.723816">
        <ele>720.5</ele>
        <time>2015-02-22T07:15:21Z</time>
      </trkpt>
      <trkpt lat="40.439847" lon="-2.723882">
        <ele>720.9</ele>
        <time>2015-02-22T07:15:23Z</time>
      </trkpt>
      <trkpt lat="40.439764" lon="-2.723998">
        <ele>721.6</ele>
        <time>2015-02-22T07:15:26Z</time>
      </trkpt>
      <trkpt lat="40.439652" lon="-2.724068">
        <ele>722.0</ele>
        <time>2015-02-22T07:15:29Z</time>
      </trkpt>
      <trkpt lat="40.439560" lon="-2.724090">
        <ele>722.0</ele>
        <time>2015-02-22T07:15:31Z</time>
      </trkpt>
      <trkpt lat="40.439467" lon="-2.724129">
        <ele>722.1</ele>
        <time>2015-02-22T07:15:33Z</time>
      </trkpt>
      <trkpt lat="40.439370" lon="-2.724178">
        <ele>722.3</ele>
        <time>2015-02-22T07:15:35Z</time>
      </trkpt>
      <trkpt lat="40.439280" lon="-2.724210">
        <ele>722.3</ele>
        <time>2015-02-22T07:15:37Z</time>
      </trkpt>
      <trkpt lat="40.439190" lon="-2.724233">
        <ele>722.3</ele>
        <time>2015-02-22T07:15:39Z</time>
      </trkpt>
      <trkpt lat="40.439087" lon="-2.724262">
        <ele>722.1</ele>
        <time>2015-02-22T07:15:41Z</time>
      </trkpt>
      <trkpt lat="40.438987" lon="-2.724278">
        <ele>721.9</ele>
        <time>2015-02-22T07:15:43Z</time>
      </trkpt>
      <trkpt lat="40.438890" lon="-2.724283">
        <ele>721.6</ele>
        <time>2015-02-22T07:15:45Z</time>
      </trkpt>
      <trkpt lat="40.438797" lon="-2.724283">
        <ele>721.3</ele>
        <time>2015-02-22T07:15:47Z</time>
      </trkpt>
      <trkpt lat="40.438690" lon="-2.724330">
        <ele>721.2</ele>
        <time>2015-02-22T07:15:50Z</time>
      </trkpt>
      <trkpt lat="40.438577" lon="-2.724358">
        <ele>721.1</ele>
        <time>2015-02-22T07:15:54Z</time>
      </trkpt>
      <trkpt lat="40.438453" lon="-2.724305">
        <ele>720.4</ele>
        <time>2015-02-22T07:15:57Z</time>
      </trkpt>
      <trkpt lat="40.438323" lon="-2.724333">
        <ele>720.2</ele>
        <time>2015-02-22T07:16:00Z</time>
      </trkpt>
      <trkpt lat="40.438207" lon="-2.724400">
        <ele>720.3</ele>
        <time>2015-02-22T07:16:03Z</time>
      </trkpt>
      <trkpt lat="40.438102" lon="-2.724500">
        <ele>720.6</ele>
        <time>2015-02-22T07:16:06Z</time>
      </trkpt>
      <trkpt lat="40.437992" lon="-2.724595">
        <ele>720.6</ele>
        <time>2015-02-22T07:16:09Z</time>
      </trkpt>
      <trkpt lat="40.437872" lon="-2.724653">
        <ele>720.4</ele>
        <time>2015-02-22T07:16:12Z</time>
      </trkpt>
      <trkpt lat="40.437775" lon="-2.724678">
        <ele>720.0</ele>
        <time>2015-02-22T07:16:14Z</time>
      </trkpt>
      <trkpt lat="40.437673" lon="-2.724690">
        <ele>719.5</ele>
        <time>2015-02-22T07:16:16Z</time>
      </trkpt>
      <trkpt lat="40.437543" lon="-2.724688">
        <ele>718.9</ele>
        <time>2015-02-22T07:16:19Z</time>
      </trkpt>
      <trkpt lat="40.437442" lon="-2.724687">
        <ele>718.7</ele>
        <time>2015-02-22T07:16:21Z</time>
      </trkpt>
      <trkpt lat="40.437338" lon="-2.724692">
        <ele>718.7</ele>
        <time>2015-02-22T07:16:23Z</time>
      </trkpt>
      <trkpt lat="40.437232" lon="-2.724707">
        <ele>718.8</ele>
        <time>2015-02-22T07:16:25Z</time>
      </trkpt>
      <trkpt lat="40.437132" lon="-2.724736">
        <ele>718.8</ele>
        <time>2015-02-22T07:16:27Z</time>
      </trkpt>
      <trkpt lat="40.437035" lon="-2.724767">
        <ele>718.9</ele>
        <time>2015-02-22T07:16:29Z</time>
      </trkpt>
      <trkpt lat="40.436929" lon="-2.724782">
        <ele>718.9</ele>
        <time>2015-02-22T07:16:31Z</time>
      </trkpt>
      <trkpt lat="40.436829" lon="-2.724776">
        <ele>718.9</ele>
        <time>2015-02-22T07:16:33Z</time>
      </trkpt>
      <trkpt lat="40.436697" lon="-2.724763">
        <ele>719.0</ele>
        <time>2015-02-22T07:16:36Z</time>
      </trkpt>
      <trkpt lat="40.436582" lon="-2.724733">
        <ele>718.9</ele>
        <time>2015-02-22T07:16:38Z</time>
      </trkpt>
      <trkpt lat="40.436460" lon="-2.724667">
        <ele>718.8</ele>
        <time>2015-02-22T07:16:40Z</time>
      </trkpt>
      <trkpt lat="40.436352" lon="-2.724567">
        <ele>718.6</ele>
        <time>2015-02-22T07:16:42Z</time>
      </trkpt>
      <trkpt lat="40.436269" lon="-2.724453">
        <ele>718.4</ele>
        <time>2015-02-22T07:16:44Z</time>
      </trkpt>
      <trkpt lat="40.436205" lon="-2.724343">
        <ele>718.1</ele>
        <time>2015-02-22T07:16:46Z</time>
      </trkpt>
      <trkpt lat="40.436140" lon="-2.724252">
        <ele>717.9</ele>
        <time>2015-02-22T07:16:48Z</time>
      </trkpt>
      <trkpt lat="40.436064" lon="-2.724188">
        <ele>717.6</ele>
        <time>2015-02-22T07:16:50Z</time>
      </trkpt>
      <trkpt lat="40.435940" lon="-2.724180">
        <ele>717.3</ele>
        <time>2015-02-22T07:16:53Z</time>
      </trkpt>
      <trkpt lat="40.435850" lon="-2.724206">
        <ele>717.1</ele>
        <time>2015-02-22T07:16:55Z</time>
      </trkpt>
      <trkpt lat="40.435722" lon="-2.724245">
        <ele>716.5</ele>
        <time>2015-02-22T07:16:58Z</time>
      </trkpt>
      <trkpt lat="40.435610" lon="-2.724293">
        <ele>716.0</ele>
        <time>2015-02-22T07:17:01Z</time>
      </trkpt>
      <trkpt lat="40.435499" lon="-2.724355">
        <ele>715.7</ele>
        <time>2015-02-22T07:17:04Z</time>
      </trkpt>
      <trkpt lat="40.435408" lon="-2.724371">
        <ele>715.3</ele>
        <time>2015-02-22T07:17:06Z</time>
      </trkpt>
      <trkpt lat="40.435318" lon="-2.724377">
        <ele>714.9</ele>
        <time>2015-02-22T07:17:08Z</time>
      </trkpt>
      <trkpt lat="40.435227" lon="-2.724395">
        <ele>714.6</ele>
        <time>2015-02-22T07:17:10Z</time>
      </trkpt>
      <trkpt lat="40.435103" lon="-2.724436">
        <ele>714.4</ele>
        <time>2015-02-22T07:17:13Z</time>
      </trkpt>
      <trkpt lat="40.434980" lon="-2.724505">
        <ele>714.7</ele>
        <time>2015-02-22T07:17:16Z</time>
      </trkpt>
      <trkpt lat="40.434902" lon="-2.724572">
        <ele>715.4</ele>
        <time>2015-02-22T07:17:18Z</time>
      </trkpt>
      <trkpt lat="40.434827" lon="-2.724641">
        <ele>716.3</ele>
        <time>2015-02-22T07:17:20Z</time>
      </trkpt>
      <trkpt lat="40.434753" lon="-2.724728">
        <ele>717.1</ele>
        <time>2015-02-22T07:17:22Z</time>
      </trkpt>
      <trkpt lat="40.434707" lon="-2.724843">
        <ele>718.4</ele>
        <time>2015-02-22T07:17:24Z</time>
      </trkpt>
      <trkpt lat="40.434660" lon="-2.724971">
        <ele>719.7</ele>
        <time>2015-02-22T07:17:26Z</time>
      </trkpt>
      <trkpt lat="40.434585" lon="-2.725078">
        <ele>720.2</ele>
        <time>2015-02-22T07:17:28Z</time>
      </trkpt>
      <trkpt lat="40.434480" lon="-2.725105">
        <ele>720.3</ele>
        <time>2015-02-22T07:17:30Z</time>
      </trkpt>
      <trkpt lat="40.434374" lon="-2.725115">
        <ele>720.3</ele>
        <time>2015-02-22T07:17:32Z</time>
      </trkpt>
      <trkpt lat="40.434272" lon="-2.725153">
        <ele>720.4</ele>
        <time>2015-02-22T07:17:34Z</time>
      </trkpt>
      <trkpt lat="40.434185" lon="-2.725213">
        <ele>720.5</ele>
        <time>2015-02-22T07:17:36Z</time>
      </trkpt>
      <trkpt lat="40.434103" lon="-2.725272">
        <ele>720.2</ele>
        <time>2015-02-22T07:17:38Z</time>
      </trkpt>
      <trkpt lat="40.434024" lon="-2.725326">
        <ele>719.8</ele>
        <time>2015-02-22T07:17:40Z</time>
      </trkpt>
      <trkpt lat="40.433934" lon="-2.725375">
        <ele>719.5</ele>
        <time>2015-02-22T07:17:42Z</time>
      </trkpt>
      <trkpt lat="40.433837" lon="-2.725415">
        <ele>719.0</ele>
        <time>2015-02-22T07:17:44Z</time>
      </trkpt>
      <trkpt lat="40.433732" lon="-2.725445">
        <ele>718.5</ele>
        <time>2015-02-22T07:17:46Z</time>
      </trkpt>
      <trkpt lat="40.433627" lon="-2.725473">
        <ele>718.1</ele>
        <time>2015-02-22T07:17:48Z</time>
      </trkpt>
      <trkpt lat="40.433519" lon="-2.725497">
        <ele>717.6</ele>
        <time>2015-02-22T07:17:50Z</time>
      </trkpt>
      <trkpt lat="40.433407" lon="-2.725511">
        <ele>717.2</ele>
        <time>2015-02-22T07:17:52Z</time>
      </trkpt>
      <trkpt lat="40.433298" lon="-2.725521">
        <ele>716.6</ele>
        <time>2015-02-22T07:17:54Z</time>
      </trkpt>
      <trkpt lat="40.433188" lon="-2.725531">
        <ele>716.3</ele>
        <time>2015-02-22T07:17:56Z</time>
      </trkpt>
      <trkpt lat="40.433076" lon="-2.725543">
        <ele>716.0</ele>
        <time>2015-02-22T07:17:58Z</time>
      </trkpt>
      <trkpt lat="40.432960" lon="-2.725558">
        <ele>715.7</ele>
        <time>2015-02-22T07:18:00Z</time>
      </trkpt>
      <trkpt lat="40.432850" lon="-2.725592">
        <ele>715.5</ele>
        <time>2015-02-22T07:18:02Z</time>
      </trkpt>
      <trkpt lat="40.432745" lon="-2.725626">
        <ele>715.2</ele>
        <time>2015-02-22T07:18:04Z</time>
      </trkpt>
      <trkpt lat="40.432637" lon="-2.725655">
        <ele>714.9</ele>
        <time>2015-02-22T07:18:06Z</time>
      </trkpt>
      <trkpt lat="40.432530" lon="-2.725697">
        <ele>714.7</ele>
        <time>2015-02-22T07:18:08Z</time>
      </trkpt>
      <trkpt lat="40.432437" lon="-2.725756">
        <ele>714.6</ele>
        <time>2015-02-22T07:18:10Z</time>
      </trkpt>
      <trkpt lat="40.432337" lon="-2.725853">
        <ele>714.8</ele>
        <time>2015-02-22T07:18:13Z</time>
      </trkpt>
      <trkpt lat="40.432269" lon="-2.725945">
        <ele>715.1</ele>
        <time>2015-02-22T07:18:16Z</time>
      </trkpt>
      <trkpt lat="40.432192" lon="-2.726028">
        <ele>715.3</ele>
        <time>2015-02-22T07:18:19Z</time>
      </trkpt>
      <trkpt lat="40.432090" lon="-2.726097">
        <ele>715.3</ele>
        <time>2015-02-22T07:18:23Z</time>
      </trkpt>
      <trkpt lat="40.431995" lon="-2.726132">
        <ele>715.2</ele>
        <time>2015-02-22T07:18:26Z</time>
      </trkpt>
      <trkpt lat="40.431880" lon="-2.726153">
        <ele>714.9</ele>
        <time>2015-02-22T07:18:30Z</time>
      </trkpt>
      <trkpt lat="40.431790" lon="-2.726173">
        <ele>714.6</ele>
        <time>2015-02-22T07:18:34Z</time>
      </trkpt>
      <trkpt lat="40.431684" lon="-2.726228">
        <ele>714.5</ele>
        <time>2015-02-22T07:19:23Z</time>
      </trkpt>
      <trkpt lat="40.431550" lon="-2.726266">
        <ele>714.2</ele>
        <time>2015-02-22T07:19:26Z</time>
      </trkpt>
      <trkpt lat="40.431454" lon="-2.726293">
        <ele>713.9</ele>
        <time>2015-02-22T07:19:28Z</time>
      </trkpt>
      <trkpt lat="40.431355" lon="-2.726318">
        <ele>713.6</ele>
        <time>2015-02-22T07:19:30Z</time>
      </trkpt>
      <trkpt lat="40.431255" lon="-2.726348">
        <ele>713.3</ele>
        <time>2015-02-22T07:19:32Z</time>
      </trkpt>
      <trkpt lat="40.431160" lon="-2.726378">
        <ele>713.0</ele>
        <time>2015-02-22T07:19:34Z</time>
      </trkpt>
      <trkpt lat="40.431063" lon="-2.726411">
        <ele>712.6</ele>
        <time>2015-02-22T07:19:36Z</time>
      </trkpt>
      <trkpt lat="40.430968" lon="-2.726442">
        <ele>712.3</ele>
        <time>2015-02-22T07:19:38Z</time>
      </trkpt>
      <trkpt lat="40.430873" lon="-2.726463">
        <ele>711.9</ele>
        <time>2015-02-22T07:19:40Z</time>
      </trkpt>
      <trkpt lat="40.430777" lon="-2.726463">
        <ele>711.7</ele>
        <time>2015-02-22T07:19:42Z</time>
      </trkpt>
      <trkpt lat="40.430677" lon="-2.726443">
        <ele>711.6</ele>
        <time>2015-02-22T07:19:44Z</time>
      </trkpt>
      <trkpt lat="40.430579" lon="-2.726413">
        <ele>711.6</ele>
        <time>2015-02-22T07:19:46Z</time>
      </trkpt>
      <trkpt lat="40.430475" lon="-2.726388">
        <ele>711.5</ele>
        <time>2015-02-22T07:19:48Z</time>
      </trkpt>
      <trkpt lat="40.430365" lon="-2.726370">
        <ele>711.5</ele>
        <time>2015-02-22T07:19:50Z</time>
      </trkpt>
      <trkpt lat="40.430250" lon="-2.726362">
        <ele>711.4</ele>
        <time>2015-02-22T07:19:52Z</time>
      </trkpt>
      <trkpt lat="40.430137" lon="-2.726385">
        <ele>711.4</ele>
        <time>2015-02-22T07:19:54Z</time>
      </trkpt>
      <trkpt lat="40.430027" lon="-2.726421">
        <ele>711.3</ele>
        <time>2015-02-22T07:19:56Z</time>
      </trkpt>
      <trkpt lat="40.429915" lon="-2.726446">
        <ele>711.3</ele>
        <time>2015-02-22T07:19:58Z</time>
      </trkpt>
      <trkpt lat="40.429817" lon="-2.726498">
        <ele>711.2</ele>
        <time>2015-02-22T07:20:00Z</time>
      </trkpt>
      <trkpt lat="40.429730" lon="-2.726570">
        <ele>711.1</ele>
        <time>2015-02-22T07:20:02Z</time>
      </trkpt>
      <trkpt lat="40.429645" lon="-2.726623">
        <ele>711.0</ele>
        <time>2015-02-22T07:20:04Z</time>
      </trkpt>
      <trkpt lat="40.429557" lon="-2.726660">
        <ele>711.0</ele>
        <time>2015-02-22T07:20:06Z</time>
      </trkpt>
      <trkpt lat="40.429469" lon="-2.726685">
        <ele>711.1</ele>
        <time>2015-02-22T07:20:08Z</time>
      </trkpt>
      <trkpt lat="40.429349" lon="-2.726756">
        <ele>711.2</ele>
        <time>2015-02-22T07:20:11Z</time>
      </trkpt>
      <trkpt lat="40.429277" lon="-2.726886">
        <ele>711.4</ele>
        <time>2015-02-22T07:20:14Z</time>
      </trkpt>
      <trkpt lat="40.429282" lon="-2.727055">
        <ele>711.7</ele>
        <time>2015-02-22T07:20:17Z</time>
      </trkpt>
      <trkpt lat="40.429318" lon="-2.727226">
        <ele>712.0</ele>
        <time>2015-02-22T07:20:20Z</time>
      </trkpt>
      <trkpt lat="40.429362" lon="-2.727333">
        <ele>712.4</ele>
        <time>2015-02-22T07:20:22Z</time>
      </trkpt>
      <trkpt lat="40.429395" lon="-2.727445">
        <ele>712.7</ele>
        <time>2015-02-22T07:20:24Z</time>
      </trkpt>
      <trkpt lat="40.429432" lon="-2.727613">
        <ele>713.7</ele>
        <time>2015-02-22T07:20:27Z</time>
      </trkpt>
      <trkpt lat="40.429449" lon="-2.727735">
        <ele>714.5</ele>
        <time>2015-02-22T07:20:29Z</time>
      </trkpt>
      <trkpt lat="40.429449" lon="-2.727853">
        <ele>715.3</ele>
        <time>2015-02-22T07:20:31Z</time>
      </trkpt>
      <trkpt lat="40.429420" lon="-2.728023">
        <ele>716.3</ele>
        <time>2015-02-22T07:20:34Z</time>
      </trkpt>
      <trkpt lat="40.429400" lon="-2.728188">
        <ele>717.2</ele>
        <time>2015-02-22T07:20:37Z</time>
      </trkpt>
      <trkpt lat="40.429415" lon="-2.728340">
        <ele>718.2</ele>
        <time>2015-02-22T07:20:40Z</time>
      </trkpt>
      <trkpt lat="40.429494" lon="-2.728446">
        <ele>718.6</ele>
        <time>2015-02-22T07:20:43Z</time>
      </trkpt>
      <trkpt lat="40.429590" lon="-2.728540">
        <ele>719.0</ele>
        <time>2015-02-22T07:20:46Z</time>
      </trkpt>
      <trkpt lat="40.429654" lon="-2.728655">
        <ele>719.2</ele>
        <time>2015-02-22T07:20:49Z</time>
      </trkpt>
      <trkpt lat="40.429725" lon="-2.728775">
        <ele>719.3</ele>
        <time>2015-02-22T07:20:52Z</time>
      </trkpt>
      <trkpt lat="40.429817" lon="-2.728875">
        <ele>719.4</ele>
        <time>2015-02-22T07:20:55Z</time>
      </trkpt>
      <trkpt lat="40.429910" lon="-2.728991">
        <ele>719.3</ele>
        <time>2015-02-22T07:20:58Z</time>
      </trkpt>
      <trkpt lat="40.429947" lon="-2.729117">
        <ele>719.1</ele>
        <time>2015-02-22T07:21:01Z</time>
      </trkpt>
      <trkpt lat="40.429999" lon="-2.729243">
        <ele>719.2</ele>
        <time>2015-02-22T07:21:04Z</time>
      </trkpt>
      <trkpt lat="40.430067" lon="-2.729353">
        <ele>719.8</ele>
        <time>2015-02-22T07:21:07Z</time>
      </trkpt>
      <trkpt lat="40.430147" lon="-2.729482">
        <ele>720.5</ele>
        <time>2015-02-22T07:21:10Z</time>
      </trkpt>
      <trkpt lat="40.430207" lon="-2.729610">
        <ele>721.0</ele>
        <time>2015-02-22T07:21:13Z</time>
      </trkpt>
      <trkpt lat="40.430254" lon="-2.729743">
        <ele>721.5</ele>
        <time>2015-02-22T07:21:16Z</time>
      </trkpt>
      <trkpt lat="40.430303" lon="-2.729875">
        <ele>721.9</ele>
        <time>2015-02-22T07:21:19Z</time>
      </trkpt>
      <trkpt lat="40.430354" lon="-2.730008">
        <ele>722.3</ele>
        <time>2015-02-22T07:21:22Z</time>
      </trkpt>
      <trkpt lat="40.430417" lon="-2.730126">
        <ele>722.4</ele>
        <time>2015-02-22T07:21:25Z</time>
      </trkpt>
      <trkpt lat="40.430492" lon="-2.730241">
        <ele>722.6</ele>
        <time>2015-02-22T07:21:28Z</time>
      </trkpt>
      <trkpt lat="40.430552" lon="-2.730363">
        <ele>722.7</ele>
        <time>2015-02-22T07:21:31Z</time>
      </trkpt>
      <trkpt lat="40.430602" lon="-2.730493">
        <ele>722.7</ele>
        <time>2015-02-22T07:21:34Z</time>
      </trkpt>
      <trkpt lat="40.430657" lon="-2.730627">
        <ele>722.8</ele>
        <time>2015-02-22T07:21:37Z</time>
      </trkpt>
      <trkpt lat="40.430728" lon="-2.730748">
        <ele>722.8</ele>
        <time>2015-02-22T07:21:40Z</time>
      </trkpt>
      <trkpt lat="40.430825" lon="-2.730828">
        <ele>723.0</ele>
        <time>2015-02-22T07:21:43Z</time>
      </trkpt>
      <trkpt lat="40.430932" lon="-2.730875">
        <ele>722.9</ele>
        <time>2015-02-22T07:21:46Z</time>
      </trkpt>
      <trkpt lat="40.431025" lon="-2.730970">
        <ele>722.6</ele>
        <time>2015-02-22T07:21:49Z</time>
      </trkpt>
      <trkpt lat="40.431142" lon="-2.731018">
        <ele>722.7</ele>
        <time>2015-02-22T07:21:52Z</time>
      </trkpt>
      <trkpt lat="40.431264" lon="-2.731003">
        <ele>723.1</ele>
        <time>2015-02-22T07:21:55Z</time>
      </trkpt>
      <trkpt lat="40.431380" lon="-2.730937">
        <ele>723.8</ele>
        <time>2015-02-22T07:21:58Z</time>
      </trkpt>
      <trkpt lat="40.431485" lon="-2.730838">
        <ele>724.5</ele>
        <time>2015-02-22T07:22:01Z</time>
      </trkpt>
      <trkpt lat="40.431572" lon="-2.730719">
        <ele>724.8</ele>
        <time>2015-02-22T07:22:04Z</time>
      </trkpt>
      <trkpt lat="40.431672" lon="-2.730645">
        <ele>725.0</ele>
        <time>2015-02-22T07:22:07Z</time>
      </trkpt>
      <trkpt lat="40.431787" lon="-2.730640">
        <ele>725.0</ele>
        <time>2015-02-22T07:22:10Z</time>
      </trkpt>
      <trkpt lat="40.431905" lon="-2.730636">
        <ele>725.0</ele>
        <time>2015-02-22T07:22:13Z</time>
      </trkpt>
      <trkpt lat="40.432024" lon="-2.730630">
        <ele>725.0</ele>
        <time>2015-02-22T07:22:16Z</time>
      </trkpt>
      <trkpt lat="40.432145" lon="-2.730622">
        <ele>725.0</ele>
        <time>2015-02-22T07:22:19Z</time>
      </trkpt>
      <trkpt lat="40.432265" lon="-2.730617">
        <ele>725.0</ele>
        <time>2015-02-22T07:22:22Z</time>
      </trkpt>
      <trkpt lat="40.432385" lon="-2.730608">
        <ele>724.9</ele>
        <time>2015-02-22T07:22:25Z</time>
      </trkpt>
      <trkpt lat="40.432507" lon="-2.730598">
        <ele>724.9</ele>
        <time>2015-02-22T07:22:28Z</time>
      </trkpt>
      <trkpt lat="40.432632" lon="-2.730603">
        <ele>725.1</ele>
        <time>2015-02-22T07:22:31Z</time>
      </trkpt>
      <trkpt lat="40.432757" lon="-2.730623">
        <ele>725.3</ele>
        <time>2015-02-22T07:22:34Z</time>
      </trkpt>
      <trkpt lat="40.432878" lon="-2.730638">
        <ele>725.5</ele>
        <time>2015-02-22T07:22:37Z</time>
      </trkpt>
      <trkpt lat="40.433007" lon="-2.730660">
        <ele>725.7</ele>
        <time>2015-02-22T07:22:40Z</time>
      </trkpt>
      <trkpt lat="40.433137" lon="-2.730676">
        <ele>725.8</ele>
        <time>2015-02-22T07:22:43Z</time>
      </trkpt>
      <trkpt lat="40.433230" lon="-2.730655">
        <ele>725.9</ele>
        <time>2015-02-22T07:22:46Z</time>
      </trkpt>
      <trkpt lat="40.433322" lon="-2.730617">
        <ele>726.0</ele>
        <time>2015-02-22T07:22:50Z</time>
      </trkpt>
      <trkpt lat="40.433422" lon="-2.730676">
        <ele>725.9</ele>
        <time>2015-02-22T07:22:53Z</time>
      </trkpt>
      <trkpt lat="40.433537" lon="-2.730666">
        <ele>725.8</ele>
        <time>2015-02-22T07:22:56Z</time>
      </trkpt>
      <trkpt lat="40.433662" lon="-2.730646">
        <ele>725.7</ele>
        <time>2015-02-22T07:22:59Z</time>
      </trkpt>
      <trkpt lat="40.433756" lon="-2.730646">
        <ele>725.6</ele>
        <time>2015-02-22T07:23:01Z</time>
      </trkpt>
      <trkpt lat="40.433852" lon="-2.730627">
        <ele>725.5</ele>
        <time>2015-02-22T07:23:03Z</time>
      </trkpt>
      <trkpt lat="40.433942" lon="-2.730586">
        <ele>725.5</ele>
        <time>2015-02-22T07:23:05Z</time>
      </trkpt>
      <trkpt lat="40.434035" lon="-2.730565">
        <ele>725.4</ele>
        <time>2015-02-22T07:23:07Z</time>
      </trkpt>
      <trkpt lat="40.434134" lon="-2.730573">
        <ele>725.3</ele>
        <time>2015-02-22T07:23:09Z</time>
      </trkpt>
      <trkpt lat="40.434237" lon="-2.730571">
        <ele>725.5</ele>
        <time>2015-02-22T07:23:11Z</time>
      </trkpt>
      <trkpt lat="40.434345" lon="-2.730571">
        <ele>725.7</ele>
        <time>2015-02-22T07:23:13Z</time>
      </trkpt>
      <trkpt lat="40.434448" lon="-2.730570">
        <ele>725.9</ele>
        <time>2015-02-22T07:23:15Z</time>
      </trkpt>
      <trkpt lat="40.434547" lon="-2.730568">
        <ele>726.1</ele>
        <time>2015-02-22T07:23:17Z</time>
      </trkpt>
      <trkpt lat="40.434645" lon="-2.730573">
        <ele>726.3</ele>
        <time>2015-02-22T07:23:19Z</time>
      </trkpt>
      <trkpt lat="40.434738" lon="-2.730575">
        <ele>726.5</ele>
        <time>2015-02-22T07:23:21Z</time>
      </trkpt>
      <trkpt lat="40.434829" lon="-2.730575">
        <ele>726.7</ele>
        <time>2015-02-22T07:23:23Z</time>
      </trkpt>
      <trkpt lat="40.434945" lon="-2.730641">
        <ele>726.9</ele>
        <time>2015-02-22T07:23:26Z</time>
      </trkpt>
      <trkpt lat="40.435050" lon="-2.730719">
        <ele>727.2</ele>
        <time>2015-02-22T07:23:29Z</time>
      </trkpt>
      <trkpt lat="40.435155" lon="-2.730791">
        <ele>727.6</ele>
        <time>2015-02-22T07:23:32Z</time>
      </trkpt>
      <trkpt lat="40.435262" lon="-2.730803">
        <ele>727.9</ele>
        <time>2015-02-22T07:23:35Z</time>
      </trkpt>
      <trkpt lat="40.435354" lon="-2.730791">
        <ele>728.3</ele>
        <time>2015-02-22T07:23:37Z</time>
      </trkpt>
      <trkpt lat="40.435460" lon="-2.730770">
        <ele>728.7</ele>
        <time>2015-02-22T07:23:39Z</time>
      </trkpt>
      <trkpt lat="40.435562" lon="-2.730740">
        <ele>729.0</ele>
        <time>2015-02-22T07:23:41Z</time>
      </trkpt>
      <trkpt lat="40.435660" lon="-2.730718">
        <ele>729.4</ele>
        <time>2015-02-22T07:23:43Z</time>
      </trkpt>
      <trkpt lat="40.435755" lon="-2.730712">
        <ele>729.7</ele>
        <time>2015-02-22T07:23:45Z</time>
      </trkpt>
      <trkpt lat="40.435850" lon="-2.730707">
        <ele>730.0</ele>
        <time>2015-02-22T07:23:47Z</time>
      </trkpt>
      <trkpt lat="40.435954" lon="-2.730700">
        <ele>730.2</ele>
        <time>2015-02-22T07:23:49Z</time>
      </trkpt>
      <trkpt lat="40.436054" lon="-2.730702">
        <ele>730.3</ele>
        <time>2015-02-22T07:23:51Z</time>
      </trkpt>
      <trkpt lat="40.436152" lon="-2.730713">
        <ele>730.4</ele>
        <time>2015-02-22T07:23:53Z</time>
      </trkpt>
      <trkpt lat="40.436245" lon="-2.730712">
        <ele>730.6</ele>
        <time>2015-02-22T07:23:55Z</time>
      </trkpt>
      <trkpt lat="40.436360" lon="-2.730688">
        <ele>730.7</ele>
        <time>2015-02-22T07:23:58Z</time>
      </trkpt>
      <trkpt lat="40.436474" lon="-2.730661">
        <ele>730.9</ele>
        <time>2015-02-22T07:24:01Z</time>
      </trkpt>
      <trkpt lat="40.436563" lon="-2.730653">
        <ele>731.1</ele>
        <time>2015-02-22T07:24:03Z</time>
      </trkpt>
      <trkpt lat="40.436694" lon="-2.730612">
        <ele>731.1</ele>
        <time>2015-02-22T07:24:06Z</time>
      </trkpt>
      <trkpt lat="40.436785" lon="-2.730575">
        <ele>730.6</ele>
        <time>2015-02-22T07:24:08Z</time>
      </trkpt>
      <trkpt lat="40.436910" lon="-2.730525">
        <ele>729.9</ele>
        <time>2015-02-22T07:24:11Z</time>
      </trkpt>
      <trkpt lat="40.437007" lon="-2.730502">
        <ele>729.4</ele>
        <time>2015-02-22T07:24:13Z</time>
      </trkpt>
      <trkpt lat="40.437112" lon="-2.730500">
        <ele>728.8</ele>
        <time>2015-02-22T07:24:15Z</time>
      </trkpt>
      <trkpt lat="40.437223" lon="-2.730507">
        <ele>728.2</ele>
        <time>2015-02-22T07:24:17Z</time>
      </trkpt>
      <trkpt lat="40.437337" lon="-2.730492">
        <ele>727.6</ele>
        <time>2015-02-22T07:24:19Z</time>
      </trkpt>
      <trkpt lat="40.437455" lon="-2.730467">
        <ele>727.0</ele>
        <time>2015-02-22T07:24:21Z</time>
      </trkpt>
      <trkpt lat="40.437578" lon="-2.730463">
        <ele>726.5</ele>
        <time>2015-02-22T07:24:23Z</time>
      </trkpt>
      <trkpt lat="40.437702" lon="-2.730468">
        <ele>726.1</ele>
        <time>2015-02-22T07:24:25Z</time>
      </trkpt>
      <trkpt lat="40.437822" lon="-2.730470">
        <ele>725.6</ele>
        <time>2015-02-22T07:24:27Z</time>
      </trkpt>
      <trkpt lat="40.437939" lon="-2.730473">
        <ele>725.2</ele>
        <time>2015-02-22T07:24:29Z</time>
      </trkpt>
      <trkpt lat="40.438055" lon="-2.730443">
        <ele>724.9</ele>
        <time>2015-02-22T07:24:31Z</time>
      </trkpt>
      <trkpt lat="40.438175" lon="-2.730411">
        <ele>724.6</ele>
        <time>2015-02-22T07:24:33Z</time>
      </trkpt>
      <trkpt lat="40.438299" lon="-2.730382">
        <ele>724.2</ele>
        <time>2015-02-22T07:24:35Z</time>
      </trkpt>
      <trkpt lat="40.438422" lon="-2.730348">
        <ele>723.9</ele>
        <time>2015-02-22T07:24:37Z</time>
      </trkpt>
      <trkpt lat="40.438552" lon="-2.730316">
        <ele>723.7</ele>
        <time>2015-02-22T07:24:39Z</time>
      </trkpt>
      <trkpt lat="40.438673" lon="-2.730287">
        <ele>723.5</ele>
        <time>2015-02-22T07:24:41Z</time>
      </trkpt>
      <trkpt lat="40.438792" lon="-2.730250">
        <ele>723.3</ele>
        <time>2015-02-22T07:24:43Z</time>
      </trkpt>
      <trkpt lat="40.438908" lon="-2.730211">
        <ele>723.2</ele>
        <time>2015-02-22T07:24:45Z</time>
      </trkpt>
      <trkpt lat="40.439032" lon="-2.730191">
        <ele>723.1</ele>
        <time>2015-02-22T07:24:47Z</time>
      </trkpt>
      <trkpt lat="40.439152" lon="-2.730206">
        <ele>722.8</ele>
        <time>2015-02-22T07:24:49Z</time>
      </trkpt>
      <trkpt lat="40.439265" lon="-2.730240">
        <ele>722.8</ele>
        <time>2015-02-22T07:24:51Z</time>
      </trkpt>
      <trkpt lat="40.439375" lon="-2.730270">
        <ele>723.0</ele>
        <time>2015-02-22T07:24:53Z</time>
      </trkpt>
      <trkpt lat="40.439490" lon="-2.730290">
        <ele>723.2</ele>
        <time>2015-02-22T07:24:55Z</time>
      </trkpt>
      <trkpt lat="40.439610" lon="-2.730295">
        <ele>723.6</ele>
        <time>2015-02-22T07:24:57Z</time>
      </trkpt>
      <trkpt lat="40.439734" lon="-2.730279">
        <ele>724.1</ele>
        <time>2015-02-22T07:24:59Z</time>
      </trkpt>
      <trkpt lat="40.439847" lon="-2.730263">
        <ele>724.5</ele>
        <time>2015-02-22T07:25:01Z</time>
      </trkpt>
      <trkpt lat="40.439954" lon="-2.730237">
        <ele>725.1</ele>
        <time>2015-02-22T07:25:03Z</time>
      </trkpt>
      <trkpt lat="40.440067" lon="-2.730225">
        <ele>725.4</ele>
        <time>2015-02-22T07:25:05Z</time>
      </trkpt>
      <trkpt lat="40.440177" lon="-2.730210">
        <ele>725.8</ele>
        <time>2015-02-22T07:25:07Z</time>
      </trkpt>
      <trkpt lat="40.440287" lon="-2.730221">
        <ele>725.9</ele>
        <time>2015-02-22T07:25:09Z</time>
      </trkpt>
      <trkpt lat="40.440397" lon="-2.730235">
        <ele>726.1</ele>
        <time>2015-02-22T07:25:11Z</time>
      </trkpt>
      <trkpt lat="40.440512" lon="-2.730250">
        <ele>726.1</ele>
        <time>2015-02-22T07:25:13Z</time>
      </trkpt>
      <trkpt lat="40.440625" lon="-2.730262">
        <ele>726.3</ele>
        <time>2015-02-22T07:25:15Z</time>
      </trkpt>
      <trkpt lat="40.440740" lon="-2.730270">
        <ele>726.5</ele>
        <time>2015-02-22T07:25:17Z</time>
      </trkpt>
      <trkpt lat="40.440855" lon="-2.730270">
        <ele>726.7</ele>
        <time>2015-02-22T07:25:19Z</time>
      </trkpt>
      <trkpt lat="40.440970" lon="-2.730262">
        <ele>726.9</ele>
        <time>2015-02-22T07:25:21Z</time>
      </trkpt>
      <trkpt lat="40.441072" lon="-2.730250">
        <ele>726.9</ele>
        <time>2015-02-22T07:25:23Z</time>
      </trkpt>
      <trkpt lat="40.441180" lon="-2.730241">
        <ele>727.1</ele>
        <time>2015-02-22T07:25:25Z</time>
      </trkpt>
      <trkpt lat="40.441287" lon="-2.730238">
        <ele>727.1</ele>
        <time>2015-02-22T07:25:27Z</time>
      </trkpt>
      <trkpt lat="40.441397" lon="-2.730258">
        <ele>727.2</ele>
        <time>2015-02-22T07:25:29Z</time>
      </trkpt>
      <trkpt lat="40.441507" lon="-2.730283">
        <ele>727.2</ele>
        <time>2015-02-22T07:25:31Z</time>
      </trkpt>
      <trkpt lat="40.441615" lon="-2.730293">
        <ele>727.2</ele>
        <time>2015-02-22T07:25:33Z</time>
      </trkpt>
      <trkpt lat="40.441718" lon="-2.730315">
        <ele>727.4</ele>
        <time>2015-02-22T07:25:35Z</time>
      </trkpt>
      <trkpt lat="40.441818" lon="-2.730362">
        <ele>727.8</ele>
        <time>2015-02-22T07:25:37Z</time>
      </trkpt>
      <trkpt lat="40.441913" lon="-2.730426">
        <ele>728.0</ele>
        <time>2015-02-22T07:25:39Z</time>
      </trkpt>
      <trkpt lat="40.441999" lon="-2.730503">
        <ele>728.2</ele>
        <time>2015-02-22T07:25:41Z</time>
      </trkpt>
      <trkpt lat="40.442079" lon="-2.730582">
        <ele>728.4</ele>
        <time>2015-02-22T07:25:43Z</time>
      </trkpt>
      <trkpt lat="40.442157" lon="-2.730655">
        <ele>728.6</ele>
        <time>2015-02-22T07:25:45Z</time>
      </trkpt>
      <trkpt lat="40.442234" lon="-2.730719">
        <ele>728.9</ele>
        <time>2015-02-22T07:25:47Z</time>
      </trkpt>
      <trkpt lat="40.442340" lon="-2.730795">
        <ele>729.3</ele>
        <time>2015-02-22T07:25:50Z</time>
      </trkpt>
      <trkpt lat="40.442442" lon="-2.730861">
        <ele>729.8</ele>
        <time>2015-02-22T07:25:53Z</time>
      </trkpt>
      <trkpt lat="40.442542" lon="-2.730905">
        <ele>730.4</ele>
        <time>2015-02-22T07:25:56Z</time>
      </trkpt>
      <trkpt lat="40.442647" lon="-2.730950">
        <ele>731.2</ele>
        <time>2015-02-22T07:25:59Z</time>
      </trkpt>
      <trkpt lat="40.442765" lon="-2.730998">
        <ele>732.0</ele>
        <time>2015-02-22T07:26:02Z</time>
      </trkpt>
      <trkpt lat="40.442852" lon="-2.731032">
        <ele>732.6</ele>
        <time>2015-02-22T07:26:04Z</time>
      </trkpt>
      <trkpt lat="40.442940" lon="-2.731075">
        <ele>733.2</ele>
        <time>2015-02-22T07:26:06Z</time>
      </trkpt>
      <trkpt lat="40.443012" lon="-2.731152">
        <ele>733.9</ele>
        <time>2015-02-22T07:26:08Z</time>
      </trkpt>
      <trkpt lat="40.443107" lon="-2.731260">
        <ele>734.7</ele>
        <time>2015-02-22T07:26:11Z</time>
      </trkpt>
      <trkpt lat="40.443194" lon="-2.731321">
        <ele>735.3</ele>
        <time>2015-02-22T07:26:14Z</time>
      </trkpt>
      <trkpt lat="40.443289" lon="-2.731275">
        <ele>735.8</ele>
        <time>2015-02-22T07:26:19Z</time>
      </trkpt>
      <trkpt lat="40.443387" lon="-2.731270">
        <ele>736.4</ele>
        <time>2015-02-22T07:26:22Z</time>
      </trkpt>
      <trkpt lat="40.443490" lon="-2.731272">
        <ele>736.9</ele>
        <time>2015-02-22T07:26:25Z</time>
      </trkpt>
      <trkpt lat="40.443597" lon="-2.731285">
        <ele>737.6</ele>
        <time>2015-02-22T07:26:28Z</time>
      </trkpt>
      <trkpt lat="40.443695" lon="-2.731296">
        <ele>738.2</ele>
        <time>2015-02-22T07:26:31Z</time>
      </trkpt>
      <trkpt lat="40.443797" lon="-2.731298">
        <ele>738.7</ele>
        <time>2015-02-22T07:26:34Z</time>
      </trkpt>
      <trkpt lat="40.443900" lon="-2.731287">
        <ele>739.2</ele>
        <time>2015-02-22T07:26:37Z</time>
      </trkpt>
      <trkpt lat="40.443995" lon="-2.731277">
        <ele>739.7</ele>
        <time>2015-02-22T07:26:40Z</time>
      </trkpt>
      <trkpt lat="40.444095" lon="-2.731253">
        <ele>740.2</ele>
        <time>2015-02-22T07:26:43Z</time>
      </trkpt>
      <trkpt lat="40.444187" lon="-2.731223">
        <ele>740.4</ele>
        <time>2015-02-22T07:26:46Z</time>
      </trkpt>
      <trkpt lat="40.444280" lon="-2.731200">
        <ele>740.5</ele>
        <time>2015-02-22T07:26:49Z</time>
      </trkpt>
      <trkpt lat="40.444377" lon="-2.731178">
        <ele>740.7</ele>
        <time>2015-02-22T07:26:52Z</time>
      </trkpt>
      <trkpt lat="40.444468" lon="-2.731147">
        <ele>740.7</ele>
        <time>2015-02-22T07:26:55Z</time>
      </trkpt>
      <trkpt lat="40.444554" lon="-2.731093">
        <ele>740.6</ele>
        <time>2015-02-22T07:26:58Z</time>
      </trkpt>
      <trkpt lat="40.444634" lon="-2.731038">
        <ele>740.5</ele>
        <time>2015-02-22T07:27:01Z</time>
      </trkpt>
      <trkpt lat="40.444733" lon="-2.731008">
        <ele>740.6</ele>
        <time>2015-02-22T07:27:04Z</time>
      </trkpt>
      <trkpt lat="40.444835" lon="-2.731001">
        <ele>740.8</ele>
        <time>2015-02-22T07:27:07Z</time>
      </trkpt>
      <trkpt lat="40.444942" lon="-2.730998">
        <ele>741.1</ele>
        <time>2015-02-22T07:27:10Z</time>
      </trkpt>
      <trkpt lat="40.445045" lon="-2.730995">
        <ele>741.3</ele>
        <time>2015-02-22T07:27:13Z</time>
      </trkpt>
      <trkpt lat="40.445153" lon="-2.730983">
        <ele>741.3</ele>
        <time>2015-02-22T07:27:16Z</time>
      </trkpt>
      <trkpt lat="40.445263" lon="-2.730988">
        <ele>741.4</ele>
        <time>2015-02-22T07:27:19Z</time>
      </trkpt>
      <trkpt lat="40.445360" lon="-2.731030">
        <ele>741.8</ele>
        <time>2015-02-22T07:27:22Z</time>
      </trkpt>
      <trkpt lat="40.445457" lon="-2.731078">
        <ele>742.3</ele>
        <time>2015-02-22T07:27:25Z</time>
      </trkpt>
      <trkpt lat="40.445550" lon="-2.731128">
        <ele>742.8</ele>
        <time>2015-02-22T07:27:28Z</time>
      </trkpt>
      <trkpt lat="40.445639" lon="-2.731170">
        <ele>743.2</ele>
        <time>2015-02-22T07:27:31Z</time>
      </trkpt>
      <trkpt lat="40.445732" lon="-2.731262">
        <ele>744.0</ele>
        <time>2015-02-22T07:27:35Z</time>
      </trkpt>
      <trkpt lat="40.445804" lon="-2.731375">
        <ele>744.9</ele>
        <time>2015-02-22T07:27:39Z</time>
      </trkpt>
      <trkpt lat="40.445897" lon="-2.731446">
        <ele>745.5</ele>
        <time>2015-02-22T07:27:43Z</time>
      </trkpt>
      <trkpt lat="40.446010" lon="-2.731487">
        <ele>745.9</ele>
        <time>2015-02-22T07:27:47Z</time>
      </trkpt>
      <trkpt lat="40.446127" lon="-2.731518">
        <ele>746.2</ele>
        <time>2015-02-22T07:27:51Z</time>
      </trkpt>
      <trkpt lat="40.446220" lon="-2.731541">
        <ele>746.4</ele>
        <time>2015-02-22T07:27:54Z</time>
      </trkpt>
      <trkpt lat="40.446315" lon="-2.731556">
        <ele>746.5</ele>
        <time>2015-02-22T07:27:57Z</time>
      </trkpt>
      <trkpt lat="40.446410" lon="-2.731561">
        <ele>746.6</ele>
        <time>2015-02-22T07:28:00Z</time>
      </trkpt>
      <trkpt lat="40.446514" lon="-2.731553">
        <ele>746.7</ele>
        <time>2015-02-22T07:28:03Z</time>
      </trkpt>
      <trkpt lat="40.446623" lon="-2.731541">
        <ele>746.7</ele>
        <time>2015-02-22T07:28:06Z</time>
      </trkpt>
      <trkpt lat="40.446733" lon="-2.731535">
        <ele>746.7</ele>
        <time>2015-02-22T07:28:09Z</time>
      </trkpt>
      <trkpt lat="40.446847" lon="-2.731522">
        <ele>746.7</ele>
        <time>2015-02-22T07:28:12Z</time>
      </trkpt>
      <trkpt lat="40.446967" lon="-2.731505">
        <ele>746.7</ele>
        <time>2015-02-22T07:28:15Z</time>
      </trkpt>
      <trkpt lat="40.447090" lon="-2.731482">
        <ele>746.7</ele>
        <time>2015-02-22T07:28:18Z</time>
      </trkpt>
      <trkpt lat="40.447210" lon="-2.731472">
        <ele>746.7</ele>
        <time>2015-02-22T07:28:21Z</time>
      </trkpt>
      <trkpt lat="40.447344" lon="-2.731482">
        <ele>746.7</ele>
        <time>2015-02-22T07:28:24Z</time>
      </trkpt>
      <trkpt lat="40.447434" lon="-2.731473">
        <ele>746.7</ele>
        <time>2015-02-22T07:28:26Z</time>
      </trkpt>
      <trkpt lat="40.447567" lon="-2.731458">
        <ele>747.3</ele>
        <time>2015-02-22T07:28:29Z</time>
      </trkpt>
      <trkpt lat="40.447659" lon="-2.731460">
        <ele>748.0</ele>
        <time>2015-02-22T07:28:31Z</time>
      </trkpt>
      <trkpt lat="40.447755" lon="-2.731453">
        <ele>748.8</ele>
        <time>2015-02-22T07:28:33Z</time>
      </trkpt>
      <trkpt lat="40.447882" lon="-2.731399">
        <ele>749.5</ele>
        <time>2015-02-22T07:28:36Z</time>
      </trkpt>
      <trkpt lat="40.447990" lon="-2.731308">
        <ele>749.6</ele>
        <time>2015-02-22T07:28:39Z</time>
      </trkpt>
      <trkpt lat="40.448053" lon="-2.731208">
        <ele>749.2</ele>
        <time>2015-02-22T07:28:41Z</time>
      </trkpt>
      <trkpt lat="40.448110" lon="-2.731095">
        <ele>748.4</ele>
        <time>2015-02-22T07:28:43Z</time>
      </trkpt>
      <trkpt lat="40.448182" lon="-2.730983">
        <ele>747.6</ele>
        <time>2015-02-22T07:28:45Z</time>
      </trkpt>
      <trkpt lat="40.448263" lon="-2.730886">
        <ele>746.6</ele>
        <time>2015-02-22T07:28:47Z</time>
      </trkpt>
      <trkpt lat="40.448342" lon="-2.730791">
        <ele>745.8</ele>
        <time>2015-02-22T07:28:49Z</time>
      </trkpt>
      <trkpt lat="40.448425" lon="-2.730718">
        <ele>745.6</ele>
        <time>2015-02-22T07:28:51Z</time>
      </trkpt>
      <trkpt lat="40.448523" lon="-2.730668">
        <ele>745.7</ele>
        <time>2015-02-22T07:28:53Z</time>
      </trkpt>
      <trkpt lat="40.448628" lon="-2.730648">
        <ele>745.8</ele>
        <time>2015-02-22T07:28:55Z</time>
      </trkpt>
      <trkpt lat="40.448737" lon="-2.730643">
        <ele>746.0</ele>
        <time>2015-02-22T07:28:57Z</time>
      </trkpt>
      <trkpt lat="40.448835" lon="-2.730625">
        <ele>746.1</ele>
        <time>2015-02-22T07:28:59Z</time>
      </trkpt>
      <trkpt lat="40.448920" lon="-2.730585">
        <ele>746.0</ele>
        <time>2015-02-22T07:29:01Z</time>
      </trkpt>
      <trkpt lat="40.449015" lon="-2.730550">
        <ele>746.1</ele>
        <time>2015-02-22T07:29:03Z</time>
      </trkpt>
      <trkpt lat="40.449117" lon="-2.730505">
        <ele>746.0</ele>
        <time>2015-02-22T07:29:05Z</time>
      </trkpt>
      <trkpt lat="40.449215" lon="-2.730453">
        <ele>745.8</ele>
        <time>2015-02-22T07:29:07Z</time>
      </trkpt>
      <trkpt lat="40.449312" lon="-2.730395">
        <ele>745.7</ele>
        <time>2015-02-22T07:29:09Z</time>
      </trkpt>
      <trkpt lat="40.449408" lon="-2.730340">
        <ele>745.4</ele>
        <time>2015-02-22T07:29:11Z</time>
      </trkpt>
      <trkpt lat="40.449503" lon="-2.730291">
        <ele>745.2</ele>
        <time>2015-02-22T07:29:13Z</time>
      </trkpt>
      <trkpt lat="40.449602" lon="-2.730252">
        <ele>745.1</ele>
        <time>2015-02-22T07:29:15Z</time>
      </trkpt>
      <trkpt lat="40.449695" lon="-2.730208">
        <ele>744.7</ele>
        <time>2015-02-22T07:29:17Z</time>
      </trkpt>
      <trkpt lat="40.449784" lon="-2.730153">
        <ele>744.4</ele>
        <time>2015-02-22T07:29:19Z</time>
      </trkpt>
      <trkpt lat="40.449875" lon="-2.730096">
        <ele>743.9</ele>
        <time>2015-02-22T07:29:21Z</time>
      </trkpt>
      <trkpt lat="40.449972" lon="-2.730040">
        <ele>743.4</ele>
        <time>2015-02-22T07:29:23Z</time>
      </trkpt>
      <trkpt lat="40.450072" lon="-2.729978">
        <ele>742.8</ele>
        <time>2015-02-22T07:29:25Z</time>
      </trkpt>
      <trkpt lat="40.450172" lon="-2.729930">
        <ele>742.4</ele>
        <time>2015-02-22T07:29:27Z</time>
      </trkpt>
      <trkpt lat="40.450272" lon="-2.729885">
        <ele>742.2</ele>
        <time>2015-02-22T07:29:29Z</time>
      </trkpt>
      <trkpt lat="40.450377" lon="-2.729845">
        <ele>742.0</ele>
        <time>2015-02-22T07:29:31Z</time>
      </trkpt>
      <trkpt lat="40.450480" lon="-2.729817">
        <ele>741.8</ele>
        <time>2015-02-22T07:29:33Z</time>
      </trkpt>
      <trkpt lat="40.450587" lon="-2.729788">
        <ele>741.7</ele>
        <time>2015-02-22T07:29:35Z</time>
      </trkpt>
      <trkpt lat="40.450697" lon="-2.729751">
        <ele>741.7</ele>
        <time>2015-02-22T07:29:37Z</time>
      </trkpt>
      <trkpt lat="40.450807" lon="-2.729730">
        <ele>741.6</ele>
        <time>2015-02-22T07:29:39Z</time>
      </trkpt>
      <trkpt lat="40.450914" lon="-2.729730">
        <ele>742.0</ele>
        <time>2015-02-22T07:29:41Z</time>
      </trkpt>
      <trkpt lat="40.451020" lon="-2.729728">
        <ele>742.4</ele>
        <time>2015-02-22T07:29:43Z</time>
      </trkpt>
      <trkpt lat="40.451122" lon="-2.729723">
        <ele>742.8</ele>
        <time>2015-02-22T07:29:45Z</time>
      </trkpt>
      <trkpt lat="40.451229" lon="-2.729710">
        <ele>743.3</ele>
        <time>2015-02-22T07:29:47Z</time>
      </trkpt>
      <trkpt lat="40.451337" lon="-2.729712">
        <ele>743.7</ele>
        <time>2015-02-22T07:29:49Z</time>
      </trkpt>
      <trkpt lat="40.451442" lon="-2.729703">
        <ele>744.1</ele>
        <time>2015-02-22T07:29:51Z</time>
      </trkpt>
      <trkpt lat="40.451545" lon="-2.729685">
        <ele>744.5</ele>
        <time>2015-02-22T07:29:53Z</time>
      </trkpt>
      <trkpt lat="40.451645" lon="-2.729661">
        <ele>744.9</ele>
        <time>2015-02-22T07:29:55Z</time>
      </trkpt>
      <trkpt lat="40.451750" lon="-2.729650">
        <ele>745.6</ele>
        <time>2015-02-22T07:29:57Z</time>
      </trkpt>
      <trkpt lat="40.451847" lon="-2.729610">
        <ele>746.1</ele>
        <time>2015-02-22T07:29:59Z</time>
      </trkpt>
      <trkpt lat="40.451935" lon="-2.729553">
        <ele>746.6</ele>
        <time>2015-02-22T07:30:01Z</time>
      </trkpt>
      <trkpt lat="40.452034" lon="-2.729498">
        <ele>747.0</ele>
        <time>2015-02-22T07:30:03Z</time>
      </trkpt>
      <trkpt lat="40.452134" lon="-2.729451">
        <ele>747.3</ele>
        <time>2015-02-22T07:30:05Z</time>
      </trkpt>
      <trkpt lat="40.452234" lon="-2.729390">
        <ele>747.4</ele>
        <time>2015-02-22T07:30:07Z</time>
      </trkpt>
      <trkpt lat="40.452322" lon="-2.729331">
        <ele>747.5</ele>
        <time>2015-02-22T07:30:09Z</time>
      </trkpt>
      <trkpt lat="40.452413" lon="-2.729280">
        <ele>747.6</ele>
        <time>2015-02-22T07:30:11Z</time>
      </trkpt>
      <trkpt lat="40.452502" lon="-2.729228">
        <ele>747.5</ele>
        <time>2015-02-22T07:30:13Z</time>
      </trkpt>
      <trkpt lat="40.452587" lon="-2.729163">
        <ele>747.3</ele>
        <time>2015-02-22T07:30:15Z</time>
      </trkpt>
      <trkpt lat="40.452665" lon="-2.729088">
        <ele>747.3</ele>
        <time>2015-02-22T07:30:17Z</time>
      </trkpt>
      <trkpt lat="40.452743" lon="-2.729006">
        <ele>747.3</ele>
        <time>2015-02-22T07:30:19Z</time>
      </trkpt>
      <trkpt lat="40.452822" lon="-2.728938">
        <ele>747.4</ele>
        <time>2015-02-22T07:30:21Z</time>
      </trkpt>
      <trkpt lat="40.452940" lon="-2.728855">
        <ele>747.5</ele>
        <time>2015-02-22T07:30:24Z</time>
      </trkpt>
      <trkpt lat="40.453060" lon="-2.728781">
        <ele>747.7</ele>
        <time>2015-02-22T07:30:27Z</time>
      </trkpt>
      <trkpt lat="40.453178" lon="-2.728717">
        <ele>747.9</ele>
        <time>2015-02-22T07:30:30Z</time>
      </trkpt>
      <trkpt lat="40.453270" lon="-2.728675">
        <ele>748.0</ele>
        <time>2015-02-22T07:30:32Z</time>
      </trkpt>
      <trkpt lat="40.453374" lon="-2.728648">
        <ele>748.4</ele>
        <time>2015-02-22T07:30:34Z</time>
      </trkpt>
      <trkpt lat="40.453482" lon="-2.728646">
        <ele>749.0</ele>
        <time>2015-02-22T07:30:36Z</time>
      </trkpt>
      <trkpt lat="40.453589" lon="-2.728641">
        <ele>749.6</ele>
        <time>2015-02-22T07:30:38Z</time>
      </trkpt>
      <trkpt lat="40.453692" lon="-2.728615">
        <ele>750.0</ele>
        <time>2015-02-22T07:30:40Z</time>
      </trkpt>
      <trkpt lat="40.453795" lon="-2.728577">
        <ele>750.4</ele>
        <time>2015-02-22T07:30:42Z</time>
      </trkpt>
      <trkpt lat="40.453892" lon="-2.728530">
        <ele>750.7</ele>
        <time>2015-02-22T07:30:44Z</time>
      </trkpt>
      <trkpt lat="40.453987" lon="-2.728492">
        <ele>751.0</ele>
        <time>2015-02-22T07:30:46Z</time>
      </trkpt>
      <trkpt lat="40.454082" lon="-2.728472">
        <ele>751.4</ele>
        <time>2015-02-22T07:30:48Z</time>
      </trkpt>
      <trkpt lat="40.454183" lon="-2.728465">
        <ele>751.8</ele>
        <time>2015-02-22T07:30:50Z</time>
      </trkpt>
      <trkpt lat="40.454280" lon="-2.728468">
        <ele>752.1</ele>
        <time>2015-02-22T07:30:52Z</time>
      </trkpt>
      <trkpt lat="40.454375" lon="-2.728477">
        <ele>752.2</ele>
        <time>2015-02-22T07:30:54Z</time>
      </trkpt>
      <trkpt lat="40.454470" lon="-2.728482">
        <ele>752.5</ele>
        <time>2015-02-22T07:30:56Z</time>
      </trkpt>
      <trkpt lat="40.454564" lon="-2.728482">
        <ele>752.7</ele>
        <time>2015-02-22T07:30:58Z</time>
      </trkpt>
      <trkpt lat="40.454655" lon="-2.728485">
        <ele>752.9</ele>
        <time>2015-02-22T07:31:00Z</time>
      </trkpt>
      <trkpt lat="40.454747" lon="-2.728485">
        <ele>753.0</ele>
        <time>2015-02-22T07:31:02Z</time>
      </trkpt>
      <trkpt lat="40.454839" lon="-2.728479">
        <ele>753.2</ele>
        <time>2015-02-22T07:31:04Z</time>
      </trkpt>
      <trkpt lat="40.454972" lon="-2.728450">
        <ele>753.1</ele>
        <time>2015-02-22T07:31:07Z</time>
      </trkpt>
      <trkpt lat="40.455064" lon="-2.728403">
        <ele>753.0</ele>
        <time>2015-02-22T07:31:09Z</time>
      </trkpt>
      <trkpt lat="40.455137" lon="-2.728333">
        <ele>752.7</ele>
        <time>2015-02-22T07:31:11Z</time>
      </trkpt>
      <trkpt lat="40.455208" lon="-2.728247">
        <ele>752.8</ele>
        <time>2015-02-22T07:31:13Z</time>
      </trkpt>
      <trkpt lat="40.455285" lon="-2.728168">
        <ele>753.0</ele>
        <time>2015-02-22T07:31:15Z</time>
      </trkpt>
      <trkpt lat="40.455357" lon="-2.728088">
        <ele>753.1</ele>
        <time>2015-02-22T07:31:17Z</time>
      </trkpt>
      <trkpt lat="40.455433" lon="-2.728008">
        <ele>753.3</ele>
        <time>2015-02-22T07:31:19Z</time>
      </trkpt>
      <trkpt lat="40.455507" lon="-2.727925">
        <ele>753.5</ele>
        <time>2015-02-22T07:31:21Z</time>
      </trkpt>
      <trkpt lat="40.455604" lon="-2.727818">
        <ele>753.7</ele>
        <time>2015-02-22T07:31:24Z</time>
      </trkpt>
      <trkpt lat="40.455687" lon="-2.727768">
        <ele>754.0</ele>
        <time>2015-02-22T07:31:26Z</time>
      </trkpt>
      <trkpt lat="40.455819" lon="-2.727745">
        <ele>754.5</ele>
        <time>2015-02-22T07:31:29Z</time>
      </trkpt>
      <trkpt lat="40.455934" lon="-2.727688">
        <ele>755.0</ele>
        <time>2015-02-22T07:31:32Z</time>
      </trkpt>
      <trkpt lat="40.456015" lon="-2.727633">
        <ele>755.3</ele>
        <time>2015-02-22T07:31:34Z</time>
      </trkpt>
      <trkpt lat="40.456100" lon="-2.727583">
        <ele>755.5</ele>
        <time>2015-02-22T07:31:36Z</time>
      </trkpt>
      <trkpt lat="40.456222" lon="-2.727512">
        <ele>755.9</ele>
        <time>2015-02-22T07:31:39Z</time>
      </trkpt>
      <trkpt lat="40.456340" lon="-2.727441">
        <ele>756.3</ele>
        <time>2015-02-22T07:31:42Z</time>
      </trkpt>
      <trkpt lat="40.456430" lon="-2.727395">
        <ele>756.6</ele>
        <time>2015-02-22T07:31:44Z</time>
      </trkpt>
      <trkpt lat="40.456522" lon="-2.727360">
        <ele>757.0</ele>
        <time>2015-02-22T07:31:46Z</time>
      </trkpt>
      <trkpt lat="40.456615" lon="-2.727335">
        <ele>757.4</ele>
        <time>2015-02-22T07:31:48Z</time>
      </trkpt>
      <trkpt lat="40.456747" lon="-2.727300">
        <ele>757.8</ele>
        <time>2015-02-22T07:31:51Z</time>
      </trkpt>
      <trkpt lat="40.456877" lon="-2.727260">
        <ele>758.0</ele>
        <time>2015-02-22T07:31:54Z</time>
      </trkpt>
      <trkpt lat="40.456965" lon="-2.727225">
        <ele>758.1</ele>
        <time>2015-02-22T07:31:56Z</time>
      </trkpt>
      <trkpt lat="40.457087" lon="-2.727168">
        <ele>758.1</ele>
        <time>2015-02-22T07:31:59Z</time>
      </trkpt>
      <trkpt lat="40.457210" lon="-2.727111">
        <ele>758.1</ele>
        <time>2015-02-22T07:32:02Z</time>
      </trkpt>
      <trkpt lat="40.457302" lon="-2.727071">
        <ele>758.1</ele>
        <time>2015-02-22T07:32:04Z</time>
      </trkpt>
      <trkpt lat="40.457394" lon="-2.727030">
        <ele>758.0</ele>
        <time>2015-02-22T07:32:06Z</time>
      </trkpt>
      <trkpt lat="40.457485" lon="-2.726993">
        <ele>757.9</ele>
        <time>2015-02-22T07:32:08Z</time>
      </trkpt>
      <trkpt lat="40.457582" lon="-2.726951">
        <ele>758.0</ele>
        <time>2015-02-22T07:32:10Z</time>
      </trkpt>
      <trkpt lat="40.457670" lon="-2.726912">
        <ele>758.0</ele>
        <time>2015-02-22T07:32:12Z</time>
      </trkpt>
      <trkpt lat="40.457764" lon="-2.726875">
        <ele>758.1</ele>
        <time>2015-02-22T07:32:14Z</time>
      </trkpt>
      <trkpt lat="40.457857" lon="-2.726848">
        <ele>758.3</ele>
        <time>2015-02-22T07:32:16Z</time>
      </trkpt>
      <trkpt lat="40.457952" lon="-2.726846">
        <ele>758.6</ele>
        <time>2015-02-22T07:32:18Z</time>
      </trkpt>
      <trkpt lat="40.458044" lon="-2.726863">
        <ele>759.0</ele>
        <time>2015-02-22T07:32:20Z</time>
      </trkpt>
      <trkpt lat="40.458172" lon="-2.726846">
        <ele>759.3</ele>
        <time>2015-02-22T07:32:23Z</time>
      </trkpt>
      <trkpt lat="40.458299" lon="-2.726805">
        <ele>759.6</ele>
        <time>2015-02-22T07:32:26Z</time>
      </trkpt>
      <trkpt lat="40.458430" lon="-2.726785">
        <ele>760.0</ele>
        <time>2015-02-22T07:32:29Z</time>
      </trkpt>
      <trkpt lat="40.458563" lon="-2.726751">
        <ele>760.5</ele>
        <time>2015-02-22T07:32:32Z</time>
      </trkpt>
      <trkpt lat="40.458654" lon="-2.726725">
        <ele>760.8</ele>
        <time>2015-02-22T07:32:34Z</time>
      </trkpt>
      <trkpt lat="40.458777" lon="-2.726703">
        <ele>761.3</ele>
        <time>2015-02-22T07:32:37Z</time>
      </trkpt>
      <trkpt lat="40.458893" lon="-2.726685">
        <ele>761.8</ele>
        <time>2015-02-22T07:32:40Z</time>
      </trkpt>
      <trkpt lat="40.459000" lon="-2.726618">
        <ele>762.1</ele>
        <time>2015-02-22T07:32:43Z</time>
      </trkpt>
      <trkpt lat="40.459102" lon="-2.726552">
        <ele>762.4</ele>
        <time>2015-02-22T07:32:46Z</time>
      </trkpt>
      <trkpt lat="40.459210" lon="-2.726545">
        <ele>762.9</ele>
        <time>2015-02-22T07:32:49Z</time>
      </trkpt>
      <trkpt lat="40.459299" lon="-2.726648">
        <ele>763.6</ele>
        <time>2015-02-22T07:32:53Z</time>
      </trkpt>
      <trkpt lat="40.459372" lon="-2.726721">
        <ele>764.2</ele>
        <time>2015-02-22T07:32:56Z</time>
      </trkpt>
      <trkpt lat="40.459457" lon="-2.726778">
        <ele>764.9</ele>
        <time>2015-02-22T07:32:59Z</time>
      </trkpt>
      <trkpt lat="40.459545" lon="-2.726805">
        <ele>765.4</ele>
        <time>2015-02-22T07:33:02Z</time>
      </trkpt>
      <trkpt lat="40.459662" lon="-2.726832">
        <ele>766.1</ele>
        <time>2015-02-22T07:33:06Z</time>
      </trkpt>
      <trkpt lat="40.459768" lon="-2.726853">
        <ele>766.8</ele>
        <time>2015-02-22T07:33:10Z</time>
      </trkpt>
      <trkpt lat="40.459869" lon="-2.726876">
        <ele>767.3</ele>
        <time>2015-02-22T07:33:14Z</time>
      </trkpt>
      <trkpt lat="40.459955" lon="-2.726934">
        <ele>768.1</ele>
        <time>2015-02-22T07:33:18Z</time>
      </trkpt>
      <trkpt lat="40.460040" lon="-2.726980">
        <ele>768.8</ele>
        <time>2015-02-22T07:33:22Z</time>
      </trkpt>
      <trkpt lat="40.460135" lon="-2.726995">
        <ele>769.5</ele>
        <time>2015-02-22T07:33:26Z</time>
      </trkpt>
      <trkpt lat="40.460228" lon="-2.726985">
        <ele>770.0</ele>
        <time>2015-02-22T07:33:30Z</time>
      </trkpt>
      <trkpt lat="40.460324" lon="-2.726953">
        <ele>770.3</ele>
        <time>2015-02-22T07:33:34Z</time>
      </trkpt>
      <trkpt lat="40.460425" lon="-2.726918">
        <ele>770.8</ele>
        <time>2015-02-22T07:33:38Z</time>
      </trkpt>
      <trkpt lat="40.460532" lon="-2.726905">
        <ele>771.3</ele>
        <time>2015-02-22T07:33:42Z</time>
      </trkpt>
      <trkpt lat="40.460640" lon="-2.726910">
        <ele>772.0</ele>
        <time>2015-02-22T07:33:46Z</time>
      </trkpt>
      <trkpt lat="40.460723" lon="-2.726965">
        <ele>772.8</ele>
        <time>2015-02-22T07:33:50Z</time>
      </trkpt>
      <trkpt lat="40.460797" lon="-2.727045">
        <ele>773.9</ele>
        <time>2015-02-22T07:33:54Z</time>
      </trkpt>
      <trkpt lat="40.460859" lon="-2.727163">
        <ele>775.2</ele>
        <time>2015-02-22T07:33:59Z</time>
      </trkpt>
      <trkpt lat="40.460895" lon="-2.727296">
        <ele>776.4</ele>
        <time>2015-02-22T07:34:04Z</time>
      </trkpt>
      <trkpt lat="40.460924" lon="-2.727423">
        <ele>777.4</ele>
        <time>2015-02-22T07:34:08Z</time>
      </trkpt>
      <trkpt lat="40.460964" lon="-2.727550">
        <ele>778.5</ele>
        <time>2015-02-22T07:34:12Z</time>
      </trkpt>
      <trkpt lat="40.461022" lon="-2.727645">
        <ele>779.3</ele>
        <time>2015-02-22T07:34:16Z</time>
      </trkpt>
      <trkpt lat="40.461060" lon="-2.727760">
        <ele>780.4</ele>
        <time>2015-02-22T07:34:20Z</time>
      </trkpt>
      <trkpt lat="40.461084" lon="-2.727890">
        <ele>781.6</ele>
        <time>2015-02-22T07:34:24Z</time>
      </trkpt>
      <trkpt lat="40.461099" lon="-2.728020">
        <ele>782.8</ele>
        <time>2015-02-22T07:34:28Z</time>
      </trkpt>
      <trkpt lat="40.461110" lon="-2.728154">
        <ele>784.1</ele>
        <time>2015-02-22T07:34:32Z</time>
      </trkpt>
      <trkpt lat="40.461123" lon="-2.728293">
        <ele>785.3</ele>
        <time>2015-02-22T07:34:36Z</time>
      </trkpt>
      <trkpt lat="40.461142" lon="-2.728436">
        <ele>786.2</ele>
        <time>2015-02-22T07:34:40Z</time>
      </trkpt>
      <trkpt lat="40.461158" lon="-2.728580">
        <ele>787.0</ele>
        <time>2015-02-22T07:34:44Z</time>
      </trkpt>
      <trkpt lat="40.461179" lon="-2.728723">
        <ele>787.7</ele>
        <time>2015-02-22T07:34:48Z</time>
      </trkpt>
      <trkpt lat="40.461210" lon="-2.728865">
        <ele>788.6</ele>
        <time>2015-02-22T07:34:52Z</time>
      </trkpt>
      <trkpt lat="40.461248" lon="-2.729005">
        <ele>789.7</ele>
        <time>2015-02-22T07:34:56Z</time>
      </trkpt>
      <trkpt lat="40.461307" lon="-2.729138">
        <ele>790.8</ele>
        <time>2015-02-22T07:35:00Z</time>
      </trkpt>
      <trkpt lat="40.461367" lon="-2.729230">
        <ele>790.8</ele>
        <time>2015-02-22T07:35:03Z</time>
      </trkpt>
      <trkpt lat="40.461438" lon="-2.729316">
        <ele>790.5</ele>
        <time>2015-02-22T07:35:06Z</time>
      </trkpt>
      <trkpt lat="40.461517" lon="-2.729405">
        <ele>790.3</ele>
        <time>2015-02-22T07:35:09Z</time>
      </trkpt>
      <trkpt lat="40.461598" lon="-2.729502">
        <ele>790.1</ele>
        <time>2015-02-22T07:35:12Z</time>
      </trkpt>
      <trkpt lat="40.461693" lon="-2.729612">
        <ele>790.0</ele>
        <time>2015-02-22T07:35:15Z</time>
      </trkpt>
      <trkpt lat="40.461767" lon="-2.729685">
        <ele>789.8</ele>
        <time>2015-02-22T07:35:17Z</time>
      </trkpt>
      <trkpt lat="40.461847" lon="-2.729766">
        <ele>789.7</ele>
        <time>2015-02-22T07:35:19Z</time>
      </trkpt>
      <trkpt lat="40.461928" lon="-2.729858">
        <ele>789.5</ele>
        <time>2015-02-22T07:35:21Z</time>
      </trkpt>
      <trkpt lat="40.462007" lon="-2.729963">
        <ele>789.2</ele>
        <time>2015-02-22T07:35:23Z</time>
      </trkpt>
      <trkpt lat="40.462074" lon="-2.730098">
        <ele>788.3</ele>
        <time>2015-02-22T07:35:25Z</time>
      </trkpt>
      <trkpt lat="40.462104" lon="-2.730258">
        <ele>786.8</ele>
        <time>2015-02-22T07:35:27Z</time>
      </trkpt>
      <trkpt lat="40.462085" lon="-2.730430">
        <ele>784.9</ele>
        <time>2015-02-22T07:35:29Z</time>
      </trkpt>
      <trkpt lat="40.462058" lon="-2.730603">
        <ele>782.8</ele>
        <time>2015-02-22T07:35:31Z</time>
      </trkpt>
      <trkpt lat="40.462038" lon="-2.730790">
        <ele>780.7</ele>
        <time>2015-02-22T07:35:33Z</time>
      </trkpt>
      <trkpt lat="40.462023" lon="-2.730980">
        <ele>779.0</ele>
        <time>2015-02-22T07:35:35Z</time>
      </trkpt>
      <trkpt lat="40.462050" lon="-2.731170">
        <ele>777.5</ele>
        <time>2015-02-22T07:35:37Z</time>
      </trkpt>
      <trkpt lat="40.462142" lon="-2.731328">
        <ele>775.9</ele>
        <time>2015-02-22T07:35:39Z</time>
      </trkpt>
      <trkpt lat="40.462257" lon="-2.731453">
        <ele>774.1</ele>
        <time>2015-02-22T07:35:41Z</time>
      </trkpt>
      <trkpt lat="40.462382" lon="-2.731563">
        <ele>772.2</ele>
        <time>2015-02-22T07:35:43Z</time>
      </trkpt>
      <trkpt lat="40.462510" lon="-2.731685">
        <ele>769.8</ele>
        <time>2015-02-22T07:35:45Z</time>
      </trkpt>
      <trkpt lat="40.462732" lon="-2.731910">
        <ele>767.7</ele>
        <time>2015-02-22T07:35:48Z</time>
      </trkpt>
      <trkpt lat="40.463001" lon="-2.732174">
        <ele>766.0</ele>
        <time>2015-02-22T07:35:52Z</time>
      </trkpt>
      <trkpt lat="40.463163" lon="-2.732333">
        <ele>765.3</ele>
        <time>2015-02-22T07:35:55Z</time>
      </trkpt>
      <trkpt lat="40.463282" lon="-2.732473">
        <ele>765.0</ele>
        <time>2015-02-22T07:35:57Z</time>
      </trkpt>
      <trkpt lat="40.463392" lon="-2.732583">
        <ele>765.3</ele>
        <time>2015-02-22T07:35:59Z</time>
      </trkpt>
      <trkpt lat="40.463487" lon="-2.732658">
        <ele>765.4</ele>
        <time>2015-02-22T07:36:01Z</time>
      </trkpt>
      <trkpt lat="40.463575" lon="-2.732703">
        <ele>765.6</ele>
        <time>2015-02-22T07:36:03Z</time>
      </trkpt>
      <trkpt lat="40.463690" lon="-2.732781">
        <ele>765.9</ele>
        <time>2015-02-22T07:36:06Z</time>
      </trkpt>
      <trkpt lat="40.463780" lon="-2.732860">
        <ele>766.2</ele>
        <time>2015-02-22T07:36:09Z</time>
      </trkpt>
      <trkpt lat="40.463864" lon="-2.732927">
        <ele>766.6</ele>
        <time>2015-02-22T07:36:12Z</time>
      </trkpt>
      <trkpt lat="40.463962" lon="-2.733001">
        <ele>767.0</ele>
        <time>2015-02-22T07:36:15Z</time>
      </trkpt>
      <trkpt lat="40.464070" lon="-2.733060">
        <ele>767.3</ele>
        <time>2015-02-22T07:36:18Z</time>
      </trkpt>
      <trkpt lat="40.464180" lon="-2.733092">
        <ele>767.6</ele>
        <time>2015-02-22T07:36:21Z</time>
      </trkpt>
      <trkpt lat="40.464277" lon="-2.733131">
        <ele>767.8</ele>
        <time>2015-02-22T07:36:25Z</time>
      </trkpt>
      <trkpt lat="40.464314" lon="-2.733263">
        <ele>768.6</ele>
        <time>2015-02-22T07:36:31Z</time>
      </trkpt>
      <trkpt lat="40.464297" lon="-2.733417">
        <ele>769.3</ele>
        <time>2015-02-22T07:36:35Z</time>
      </trkpt>
      <trkpt lat="40.464257" lon="-2.733545">
        <ele>769.8</ele>
        <time>2015-02-22T07:36:39Z</time>
      </trkpt>
      <trkpt lat="40.464334" lon="-2.733661">
        <ele>770.2</ele>
        <time>2015-02-22T07:36:43Z</time>
      </trkpt>
      <trkpt lat="40.464408" lon="-2.733735">
        <ele>770.5</ele>
        <time>2015-02-22T07:36:46Z</time>
      </trkpt>
      <trkpt lat="40.464497" lon="-2.733830">
        <ele>770.8</ele>
        <time>2015-02-22T07:36:50Z</time>
      </trkpt>
      <trkpt lat="40.464580" lon="-2.733931">
        <ele>771.2</ele>
        <time>2015-02-22T07:36:54Z</time>
      </trkpt>
      <trkpt lat="40.464649" lon="-2.734018">
        <ele>771.5</ele>
        <time>2015-02-22T07:36:57Z</time>
      </trkpt>
      <trkpt lat="40.464690" lon="-2.734128">
        <ele>771.9</ele>
        <time>2015-02-22T07:37:00Z</time>
      </trkpt>
      <trkpt lat="40.464722" lon="-2.734268">
        <ele>772.7</ele>
        <time>2015-02-22T07:37:04Z</time>
      </trkpt>
      <trkpt lat="40.464732" lon="-2.734402">
        <ele>773.7</ele>
        <time>2015-02-22T07:37:08Z</time>
      </trkpt>
      <trkpt lat="40.464698" lon="-2.734520">
        <ele>774.6</ele>
        <time>2015-02-22T07:37:12Z</time>
      </trkpt>
      <trkpt lat="40.464679" lon="-2.734638">
        <ele>775.6</ele>
        <time>2015-02-22T07:37:16Z</time>
      </trkpt>
      <trkpt lat="40.464688" lon="-2.734771">
        <ele>776.5</ele>
        <time>2015-02-22T07:37:20Z</time>
      </trkpt>
      <trkpt lat="40.464722" lon="-2.734923">
        <ele>777.4</ele>
        <time>2015-02-22T07:37:24Z</time>
      </trkpt>
      <trkpt lat="40.464764" lon="-2.735060">
        <ele>778.4</ele>
        <time>2015-02-22T07:37:28Z</time>
      </trkpt>
      <trkpt lat="40.464759" lon="-2.735198">
        <ele>779.6</ele>
        <time>2015-02-22T07:37:32Z</time>
      </trkpt>
      <trkpt lat="40.464712" lon="-2.735345">
        <ele>780.8</ele>
        <time>2015-02-22T07:37:36Z</time>
      </trkpt>
      <trkpt lat="40.464655" lon="-2.735455">
        <ele>781.6</ele>
        <time>2015-02-22T07:37:39Z</time>
      </trkpt>
      <trkpt lat="40.464613" lon="-2.735576">
        <ele>782.4</ele>
        <time>2015-02-22T07:37:42Z</time>
      </trkpt>
      <trkpt lat="40.464595" lon="-2.735705">
        <ele>783.2</ele>
        <time>2015-02-22T07:37:45Z</time>
      </trkpt>
      <trkpt lat="40.464554" lon="-2.735832">
        <ele>783.9</ele>
        <time>2015-02-22T07:37:48Z</time>
      </trkpt>
      <trkpt lat="40.464503" lon="-2.735950">
        <ele>784.7</ele>
        <time>2015-02-22T07:37:51Z</time>
      </trkpt>
      <trkpt lat="40.464447" lon="-2.736060">
        <ele>785.4</ele>
        <time>2015-02-22T07:37:54Z</time>
      </trkpt>
      <trkpt lat="40.464390" lon="-2.736163">
        <ele>786.0</ele>
        <time>2015-02-22T07:37:57Z</time>
      </trkpt>
      <trkpt lat="40.464347" lon="-2.736272">
        <ele>786.7</ele>
        <time>2015-02-22T07:38:00Z</time>
      </trkpt>
      <trkpt lat="40.464300" lon="-2.736415">
        <ele>787.7</ele>
        <time>2015-02-22T07:38:04Z</time>
      </trkpt>
      <trkpt lat="40.464253" lon="-2.736522">
        <ele>788.3</ele>
        <time>2015-02-22T07:38:07Z</time>
      </trkpt>
      <trkpt lat="40.464207" lon="-2.736630">
        <ele>788.9</ele>
        <time>2015-02-22T07:38:10Z</time>
      </trkpt>
      <trkpt lat="40.464155" lon="-2.736735">
        <ele>790.0</ele>
        <time>2015-02-22T07:38:13Z</time>
      </trkpt>
      <trkpt lat="40.464115" lon="-2.736847">
        <ele>791.1</ele>
        <time>2015-02-22T07:38:16Z</time>
      </trkpt>
      <trkpt lat="40.464097" lon="-2.736998">
        <ele>793.2</ele>
        <time>2015-02-22T07:38:20Z</time>
      </trkpt>
      <trkpt lat="40.464077" lon="-2.737123">
        <ele>794.7</ele>
        <time>2015-02-22T07:38:24Z</time>
      </trkpt>
      <trkpt lat="40.464052" lon="-2.737245">
        <ele>796.2</ele>
        <time>2015-02-22T07:38:28Z</time>
      </trkpt>
      <trkpt lat="40.464022" lon="-2.737385">
        <ele>797.7</ele>
        <time>2015-02-22T07:38:33Z</time>
      </trkpt>
      <trkpt lat="40.463980" lon="-2.737508">
        <ele>798.9</ele>
        <time>2015-02-22T07:38:38Z</time>
      </trkpt>
      <trkpt lat="40.463942" lon="-2.737628">
        <ele>799.8</ele>
        <time>2015-02-22T07:38:43Z</time>
      </trkpt>
      <trkpt lat="40.463938" lon="-2.737770">
        <ele>801.4</ele>
        <time>2015-02-22T07:38:48Z</time>
      </trkpt>
      <trkpt lat="40.463920" lon="-2.737910">
        <ele>802.7</ele>
        <time>2015-02-22T07:38:53Z</time>
      </trkpt>
      <trkpt lat="40.463922" lon="-2.738038">
        <ele>804.2</ele>
        <time>2015-02-22T07:38:57Z</time>
      </trkpt>
      <trkpt lat="40.463920" lon="-2.738158">
        <ele>805.5</ele>
        <time>2015-02-22T07:39:01Z</time>
      </trkpt>
      <trkpt lat="40.463928" lon="-2.738288">
        <ele>807.1</ele>
        <time>2015-02-22T07:39:06Z</time>
      </trkpt>
      <trkpt lat="40.463945" lon="-2.738405">
        <ele>809.0</ele>
        <time>2015-02-22T07:39:10Z</time>
      </trkpt>
      <trkpt lat="40.463937" lon="-2.738542">
        <ele>810.8</ele>
        <time>2015-02-22T07:39:15Z</time>
      </trkpt>
      <trkpt lat="40.463912" lon="-2.738665">
        <ele>812.3</ele>
        <time>2015-02-22T07:39:20Z</time>
      </trkpt>
      <trkpt lat="40.463875" lon="-2.738777">
        <ele>813.2</ele>
        <time>2015-02-22T07:39:25Z</time>
      </trkpt>
      <trkpt lat="40.463862" lon="-2.738905">
        <ele>814.8</ele>
        <time>2015-02-22T07:39:30Z</time>
      </trkpt>
      <trkpt lat="40.463859" lon="-2.739038">
        <ele>816.5</ele>
        <time>2015-02-22T07:39:35Z</time>
      </trkpt>
      <trkpt lat="40.463850" lon="-2.739168">
        <ele>818.2</ele>
        <time>2015-02-22T07:39:40Z</time>
      </trkpt>
      <trkpt lat="40.463833" lon="-2.739295">
        <ele>818.9</ele>
        <time>2015-02-22T07:39:45Z</time>
      </trkpt>
      <trkpt lat="40.463822" lon="-2.739430">
        <ele>819.8</ele>
        <time>2015-02-22T07:39:50Z</time>
      </trkpt>
      <trkpt lat="40.463792" lon="-2.739558">
        <ele>820.2</ele>
        <time>2015-02-22T07:39:55Z</time>
      </trkpt>
      <trkpt lat="40.463762" lon="-2.739686">
        <ele>820.7</ele>
        <time>2015-02-22T07:40:00Z</time>
      </trkpt>
      <trkpt lat="40.463742" lon="-2.739828">
        <ele>821.4</ele>
        <time>2015-02-22T07:40:05Z</time>
      </trkpt>
      <trkpt lat="40.463749" lon="-2.739950">
        <ele>822.6</ele>
        <time>2015-02-22T07:40:09Z</time>
      </trkpt>
      <trkpt lat="40.463723" lon="-2.740092">
        <ele>822.2</ele>
        <time>2015-02-22T07:40:14Z</time>
      </trkpt>
      <trkpt lat="40.463700" lon="-2.740207">
        <ele>821.4</ele>
        <time>2015-02-22T07:40:18Z</time>
      </trkpt>
      <trkpt lat="40.463672" lon="-2.740323">
        <ele>820.5</ele>
        <time>2015-02-22T07:40:23Z</time>
      </trkpt>
      <trkpt lat="40.463722" lon="-2.740442">
        <ele>821.2</ele>
        <time>2015-02-22T07:40:28Z</time>
      </trkpt>
      <trkpt lat="40.463798" lon="-2.740525">
        <ele>822.3</ele>
        <time>2015-02-22T07:40:32Z</time>
      </trkpt>
      <trkpt lat="40.463874" lon="-2.740606">
        <ele>823.3</ele>
        <time>2015-02-22T07:40:36Z</time>
      </trkpt>
      <trkpt lat="40.463952" lon="-2.740682">
        <ele>824.3</ele>
        <time>2015-02-22T07:40:40Z</time>
      </trkpt>
      <trkpt lat="40.464027" lon="-2.740757">
        <ele>825.2</ele>
        <time>2015-02-22T07:40:44Z</time>
      </trkpt>
      <trkpt lat="40.464099" lon="-2.740835">
        <ele>825.9</ele>
        <time>2015-02-22T07:40:48Z</time>
      </trkpt>
      <trkpt lat="40.464178" lon="-2.740902">
        <ele>826.7</ele>
        <time>2015-02-22T07:40:52Z</time>
      </trkpt>
      <trkpt lat="40.464275" lon="-2.740940">
        <ele>828.0</ele>
        <time>2015-02-22T07:40:56Z</time>
      </trkpt>
      <trkpt lat="40.464380" lon="-2.740963">
        <ele>829.7</ele>
        <time>2015-02-22T07:41:00Z</time>
      </trkpt>
      <trkpt lat="40.464488" lon="-2.741010">
        <ele>831.1</ele>
        <time>2015-02-22T07:41:04Z</time>
      </trkpt>
      <trkpt lat="40.464570" lon="-2.741071">
        <ele>832.0</ele>
        <time>2015-02-22T07:41:07Z</time>
      </trkpt>
      <trkpt lat="40.464655" lon="-2.741130">
        <ele>833.0</ele>
        <time>2015-02-22T07:41:10Z</time>
      </trkpt>
      <trkpt lat="40.464739" lon="-2.741190">
        <ele>834.0</ele>
        <time>2015-02-22T07:41:13Z</time>
      </trkpt>
      <trkpt lat="40.464818" lon="-2.741263">
        <ele>834.8</ele>
        <time>2015-02-22T07:41:16Z</time>
      </trkpt>
      <trkpt lat="40.464890" lon="-2.741358">
        <ele>835.4</ele>
        <time>2015-02-22T07:41:19Z</time>
      </trkpt>
      <trkpt lat="40.464955" lon="-2.741465">
        <ele>835.7</ele>
        <time>2015-02-22T07:41:22Z</time>
      </trkpt>
      <trkpt lat="40.465022" lon="-2.741570">
        <ele>836.4</ele>
        <time>2015-02-22T07:41:25Z</time>
      </trkpt>
      <trkpt lat="40.465090" lon="-2.741670">
        <ele>838.0</ele>
        <time>2015-02-22T07:41:28Z</time>
      </trkpt>
      <trkpt lat="40.465158" lon="-2.741763">
        <ele>839.6</ele>
        <time>2015-02-22T07:41:31Z</time>
      </trkpt>
      <trkpt lat="40.465225" lon="-2.741851">
        <ele>841.0</ele>
        <time>2015-02-22T07:41:34Z</time>
      </trkpt>
      <trkpt lat="40.465290" lon="-2.741941">
        <ele>842.4</ele>
        <time>2015-02-22T07:41:37Z</time>
      </trkpt>
      <trkpt lat="40.465373" lon="-2.742050">
        <ele>843.8</ele>
        <time>2015-02-22T07:41:41Z</time>
      </trkpt>
      <trkpt lat="40.465452" lon="-2.742155">
        <ele>844.9</ele>
        <time>2015-02-22T07:41:45Z</time>
      </trkpt>
      <trkpt lat="40.465530" lon="-2.742261">
        <ele>845.8</ele>
        <time>2015-02-22T07:41:49Z</time>
      </trkpt>
      <trkpt lat="40.465598" lon="-2.742373">
        <ele>846.1</ele>
        <time>2015-02-22T07:41:53Z</time>
      </trkpt>
      <trkpt lat="40.465577" lon="-2.742490">
        <ele>844.2</ele>
        <time>2015-02-22T07:41:57Z</time>
      </trkpt>
      <trkpt lat="40.465520" lon="-2.742590">
        <ele>842.6</ele>
        <time>2015-02-22T07:42:01Z</time>
      </trkpt>
      <trkpt lat="40.465432" lon="-2.742650">
        <ele>840.7</ele>
        <time>2015-02-22T07:42:06Z</time>
      </trkpt>
      <trkpt lat="40.465329" lon="-2.742663">
        <ele>838.7</ele>
        <time>2015-02-22T07:42:11Z</time>
      </trkpt>
      <trkpt lat="40.465233" lon="-2.742667">
        <ele>836.9</ele>
        <time>2015-02-22T07:42:16Z</time>
      </trkpt>
      <trkpt lat="40.465134" lon="-2.742687">
        <ele>835.1</ele>
        <time>2015-02-22T07:42:22Z</time>
      </trkpt>
      <trkpt lat="40.465042" lon="-2.742716">
        <ele>833.6</ele>
        <time>2015-02-22T07:42:28Z</time>
      </trkpt>
      <trkpt lat="40.464955" lon="-2.742782">
        <ele>833.3</ele>
        <time>2015-02-22T07:42:34Z</time>
      </trkpt>
      <trkpt lat="40.464877" lon="-2.742878">
        <ele>834.0</ele>
        <time>2015-02-22T07:42:40Z</time>
      </trkpt>
      <trkpt lat="40.464820" lon="-2.742977">
        <ele>835.1</ele>
        <time>2015-02-22T07:42:45Z</time>
      </trkpt>
      <trkpt lat="40.464772" lon="-2.743093">
        <ele>836.4</ele>
        <time>2015-02-22T07:42:51Z</time>
      </trkpt>
      <trkpt lat="40.464717" lon="-2.743200">
        <ele>837.8</ele>
        <time>2015-02-22T07:42:57Z</time>
      </trkpt>
      <trkpt lat="40.464649" lon="-2.743296">
        <ele>839.2</ele>
        <time>2015-02-22T07:43:03Z</time>
      </trkpt>
      <trkpt lat="40.464580" lon="-2.743400">
        <ele>841.7</ele>
        <time>2015-02-22T07:43:09Z</time>
      </trkpt>
      <trkpt lat="40.464520" lon="-2.743490">
        <ele>844.3</ele>
        <time>2015-02-22T07:43:14Z</time>
      </trkpt>
      <trkpt lat="40.464464" lon="-2.743596">
        <ele>847.7</ele>
        <time>2015-02-22T07:43:20Z</time>
      </trkpt>
      <trkpt lat="40.464404" lon="-2.743692">
        <ele>850.4</ele>
        <time>2015-02-22T07:43:26Z</time>
      </trkpt>
      <trkpt lat="40.464337" lon="-2.743772">
        <ele>852.7</ele>
        <time>2015-02-22T07:43:32Z</time>
      </trkpt>
      <trkpt lat="40.464258" lon="-2.743865">
        <ele>855.6</ele>
        <time>2015-02-22T07:43:39Z</time>
      </trkpt>
      <trkpt lat="40.464197" lon="-2.743965">
        <ele>858.7</ele>
        <time>2015-02-22T07:43:45Z</time>
      </trkpt>
      <trkpt lat="40.464138" lon="-2.744070">
        <ele>861.3</ele>
        <time>2015-02-22T07:43:52Z</time>
      </trkpt>
      <trkpt lat="40.464074" lon="-2.744163">
        <ele>862.8</ele>
        <time>2015-02-22T07:43:59Z</time>
      </trkpt>
      <trkpt lat="40.464007" lon="-2.744260">
        <ele>863.6</ele>
        <time>2015-02-22T07:44:06Z</time>
      </trkpt>
      <trkpt lat="40.463928" lon="-2.744343">
        <ele>864.3</ele>
        <time>2015-02-22T07:44:13Z</time>
      </trkpt>
      <trkpt lat="40.463855" lon="-2.744433">
        <ele>865.0</ele>
        <time>2015-02-22T07:44:20Z</time>
      </trkpt>
      <trkpt lat="40.463792" lon="-2.744528">
        <ele>865.9</ele>
        <time>2015-02-22T07:44:26Z</time>
      </trkpt>
      <trkpt lat="40.463730" lon="-2.744618">
        <ele>866.7</ele>
        <time>2015-02-22T07:44:31Z</time>
      </trkpt>
      <trkpt lat="40.463665" lon="-2.744723">
        <ele>867.7</ele>
        <time>2015-02-22T07:44:36Z</time>
      </trkpt>
      <trkpt lat="40.463607" lon="-2.744830">
        <ele>868.8</ele>
        <time>2015-02-22T07:44:41Z</time>
      </trkpt>
      <trkpt lat="40.463563" lon="-2.744942">
        <ele>870.4</ele>
        <time>2015-02-22T07:44:46Z</time>
      </trkpt>
      <trkpt lat="40.463527" lon="-2.745053">
        <ele>871.4</ele>
        <time>2015-02-22T07:44:51Z</time>
      </trkpt>
      <trkpt lat="40.463534" lon="-2.745175">
        <ele>872.9</ele>
        <time>2015-02-22T07:44:56Z</time>
      </trkpt>
      <trkpt lat="40.463572" lon="-2.745291">
        <ele>874.8</ele>
        <time>2015-02-22T07:45:02Z</time>
      </trkpt>
      <trkpt lat="40.463593" lon="-2.745420">
        <ele>876.6</ele>
        <time>2015-02-22T07:45:09Z</time>
      </trkpt>
      <trkpt lat="40.463592" lon="-2.745543">
        <ele>877.9</ele>
        <time>2015-02-22T07:45:15Z</time>
      </trkpt>
      <trkpt lat="40.463657" lon="-2.745640">
        <ele>879.9</ele>
        <time>2015-02-22T07:45:21Z</time>
      </trkpt>
      <trkpt lat="40.463752" lon="-2.745667">
        <ele>881.8</ele>
        <time>2015-02-22T07:45:27Z</time>
      </trkpt>
      <trkpt lat="40.463842" lon="-2.745645">
        <ele>882.8</ele>
        <time>2015-02-22T07:45:33Z</time>
      </trkpt>
      <trkpt lat="40.463935" lon="-2.745646">
        <ele>884.3</ele>
        <time>2015-02-22T07:45:40Z</time>
      </trkpt>
      <trkpt lat="40.464027" lon="-2.745643">
        <ele>885.7</ele>
        <time>2015-02-22T07:45:47Z</time>
      </trkpt>
      <trkpt lat="40.464122" lon="-2.745636">
        <ele>887.0</ele>
        <time>2015-02-22T07:45:54Z</time>
      </trkpt>
      <trkpt lat="40.464215" lon="-2.745628">
        <ele>887.6</ele>
        <time>2015-02-22T07:46:01Z</time>
      </trkpt>
      <trkpt lat="40.464307" lon="-2.745605">
        <ele>887.3</ele>
        <time>2015-02-22T07:46:09Z</time>
      </trkpt>
      <trkpt lat="40.464402" lon="-2.745621">
        <ele>887.4</ele>
        <time>2015-02-22T07:46:16Z</time>
      </trkpt>
      <trkpt lat="40.464464" lon="-2.745711">
        <ele>888.5</ele>
        <time>2015-02-22T07:46:23Z</time>
      </trkpt>
      <trkpt lat="40.464527" lon="-2.745802">
        <ele>889.7</ele>
        <time>2015-02-22T07:46:30Z</time>
      </trkpt>
      <trkpt lat="40.464606" lon="-2.745865">
        <ele>890.4</ele>
        <time>2015-02-22T07:46:39Z</time>
      </trkpt>
      <trkpt lat="40.464697" lon="-2.745895">
        <ele>890.6</ele>
        <time>2015-02-22T07:46:55Z</time>
      </trkpt>
      <trkpt lat="40.464787" lon="-2.745860">
        <ele>890.3</ele>
        <time>2015-02-22T07:47:10Z</time>
      </trkpt>
      <trkpt lat="40.464877" lon="-2.745833">
        <ele>890.0</ele>
        <time>2015-02-22T07:47:15Z</time>
      </trkpt>
      <trkpt lat="40.464984" lon="-2.745830">
        <ele>890.0</ele>
        <time>2015-02-22T07:47:21Z</time>
      </trkpt>
      <trkpt lat="40.465089" lon="-2.745828">
        <ele>889.9</ele>
        <time>2015-02-22T07:47:27Z</time>
      </trkpt>
      <trkpt lat="40.465192" lon="-2.745828">
        <ele>889.8</ele>
        <time>2015-02-22T07:47:33Z</time>
      </trkpt>
      <trkpt lat="40.465300" lon="-2.745833">
        <ele>889.6</ele>
        <time>2015-02-22T07:47:39Z</time>
      </trkpt>
      <trkpt lat="40.465395" lon="-2.745836">
        <ele>889.7</ele>
        <time>2015-02-22T07:47:44Z</time>
      </trkpt>
      <trkpt lat="40.465503" lon="-2.745828">
        <ele>889.4</ele>
        <time>2015-02-22T07:47:49Z</time>
      </trkpt>
      <trkpt lat="40.465597" lon="-2.745820">
        <ele>889.0</ele>
        <time>2015-02-22T07:47:53Z</time>
      </trkpt>
      <trkpt lat="40.465688" lon="-2.745830">
        <ele>889.2</ele>
        <time>2015-02-22T07:47:56Z</time>
      </trkpt>
      <trkpt lat="40.465812" lon="-2.745870">
        <ele>889.6</ele>
        <time>2015-02-22T07:47:59Z</time>
      </trkpt>
      <trkpt lat="40.465900" lon="-2.745897">
        <ele>889.9</ele>
        <time>2015-02-22T07:48:01Z</time>
      </trkpt>
      <trkpt lat="40.466030" lon="-2.745920">
        <ele>890.3</ele>
        <time>2015-02-22T07:48:04Z</time>
      </trkpt>
      <trkpt lat="40.466137" lon="-2.745928">
        <ele>890.5</ele>
        <time>2015-02-22T07:48:07Z</time>
      </trkpt>
      <trkpt lat="40.466239" lon="-2.745963">
        <ele>890.9</ele>
        <time>2015-02-22T07:48:10Z</time>
      </trkpt>
      <trkpt lat="40.466335" lon="-2.746027">
        <ele>892.2</ele>
        <time>2015-02-22T07:48:13Z</time>
      </trkpt>
      <trkpt lat="40.466432" lon="-2.746088">
        <ele>893.6</ele>
        <time>2015-02-22T07:48:17Z</time>
      </trkpt>
      <trkpt lat="40.466535" lon="-2.746132">
        <ele>894.6</ele>
        <time>2015-02-22T07:48:22Z</time>
      </trkpt>
      <trkpt lat="40.466610" lon="-2.746218">
        <ele>896.8</ele>
        <time>2015-02-22T07:48:29Z</time>
      </trkpt>
      <trkpt lat="40.466703" lon="-2.746268">
        <ele>897.7</ele>
        <time>2015-02-22T07:48:35Z</time>
      </trkpt>
      <trkpt lat="40.466800" lon="-2.746290">
        <ele>896.9</ele>
        <time>2015-02-22T07:48:41Z</time>
      </trkpt>
      <trkpt lat="40.466895" lon="-2.746323">
        <ele>896.8</ele>
        <time>2015-02-22T07:48:47Z</time>
      </trkpt>
      <trkpt lat="40.466985" lon="-2.746385">
        <ele>897.2</ele>
        <time>2015-02-22T07:48:55Z</time>
      </trkpt>
      <trkpt lat="40.467075" lon="-2.746441">
        <ele>897.3</ele>
        <time>2015-02-22T07:49:02Z</time>
      </trkpt>
      <trkpt lat="40.467145" lon="-2.746535">
        <ele>898.5</ele>
        <time>2015-02-22T07:49:10Z</time>
      </trkpt>
      <trkpt lat="40.467152" lon="-2.746656">
        <ele>901.2</ele>
        <time>2015-02-22T07:49:18Z</time>
      </trkpt>
      <trkpt lat="40.467097" lon="-2.746773">
        <ele>903.8</ele>
        <time>2015-02-22T07:49:26Z</time>
      </trkpt>
      <trkpt lat="40.467053" lon="-2.746887">
        <ele>905.9</ele>
        <time>2015-02-22T07:49:32Z</time>
      </trkpt>
      <trkpt lat="40.467060" lon="-2.747007">
        <ele>907.7</ele>
        <time>2015-02-22T07:49:38Z</time>
      </trkpt>
      <trkpt lat="40.467109" lon="-2.747122">
        <ele>909.2</ele>
        <time>2015-02-22T07:49:44Z</time>
      </trkpt>
      <trkpt lat="40.467168" lon="-2.747215">
        <ele>910.3</ele>
        <time>2015-02-22T07:49:50Z</time>
      </trkpt>
      <trkpt lat="40.467237" lon="-2.747313">
        <ele>911.7</ele>
        <time>2015-02-22T07:49:57Z</time>
      </trkpt>
      <trkpt lat="40.467229" lon="-2.747441">
        <ele>914.1</ele>
        <time>2015-02-22T07:50:05Z</time>
      </trkpt>
      <trkpt lat="40.467187" lon="-2.747567">
        <ele>916.2</ele>
        <time>2015-02-22T07:50:12Z</time>
      </trkpt>
      <trkpt lat="40.467115" lon="-2.747661">
        <ele>918.1</ele>
        <time>2015-02-22T07:50:19Z</time>
      </trkpt>
      <trkpt lat="40.467035" lon="-2.747750">
        <ele>919.8</ele>
        <time>2015-02-22T07:50:26Z</time>
      </trkpt>
      <trkpt lat="40.466964" lon="-2.747825">
        <ele>921.0</ele>
        <time>2015-02-22T07:50:32Z</time>
      </trkpt>
      <trkpt lat="40.466887" lon="-2.747893">
        <ele>922.4</ele>
        <time>2015-02-22T07:50:38Z</time>
      </trkpt>
      <trkpt lat="40.466792" lon="-2.747945">
        <ele>923.4</ele>
        <time>2015-02-22T07:50:45Z</time>
      </trkpt>
      <trkpt lat="40.466695" lon="-2.747995">
        <ele>924.1</ele>
        <time>2015-02-22T07:50:52Z</time>
      </trkpt>
      <trkpt lat="40.466607" lon="-2.748043">
        <ele>924.8</ele>
        <time>2015-02-22T07:50:58Z</time>
      </trkpt>
      <trkpt lat="40.466539" lon="-2.748130">
        <ele>926.1</ele>
        <time>2015-02-22T07:51:03Z</time>
      </trkpt>
      <trkpt lat="40.466479" lon="-2.748223">
        <ele>927.4</ele>
        <time>2015-02-22T07:51:08Z</time>
      </trkpt>
      <trkpt lat="40.466420" lon="-2.748321">
        <ele>928.8</ele>
        <time>2015-02-22T07:51:13Z</time>
      </trkpt>
      <trkpt lat="40.466355" lon="-2.748410">
        <ele>929.9</ele>
        <time>2015-02-22T07:51:19Z</time>
      </trkpt>
      <trkpt lat="40.466337" lon="-2.748541">
        <ele>931.5</ele>
        <time>2015-02-22T07:51:25Z</time>
      </trkpt>
      <trkpt lat="40.466427" lon="-2.748625">
        <ele>932.6</ele>
        <time>2015-02-22T07:51:30Z</time>
      </trkpt>
      <trkpt lat="40.466522" lon="-2.748613">
        <ele>932.4</ele>
        <time>2015-02-22T07:51:34Z</time>
      </trkpt>
      <trkpt lat="40.466622" lon="-2.748587">
        <ele>932.1</ele>
        <time>2015-02-22T07:51:38Z</time>
      </trkpt>
      <trkpt lat="40.466738" lon="-2.748561">
        <ele>931.8</ele>
        <time>2015-02-22T07:51:42Z</time>
      </trkpt>
      <trkpt lat="40.466837" lon="-2.748543">
        <ele>931.4</ele>
        <time>2015-02-22T07:51:45Z</time>
      </trkpt>
      <trkpt lat="40.466937" lon="-2.748551">
        <ele>931.5</ele>
        <time>2015-02-22T07:51:48Z</time>
      </trkpt>
      <trkpt lat="40.467027" lon="-2.748582">
        <ele>931.7</ele>
        <time>2015-02-22T07:51:51Z</time>
      </trkpt>
      <trkpt lat="40.467144" lon="-2.748588">
        <ele>931.8</ele>
        <time>2015-02-22T07:51:55Z</time>
      </trkpt>
      <trkpt lat="40.467234" lon="-2.748630">
        <ele>932.1</ele>
        <time>2015-02-22T07:51:58Z</time>
      </trkpt>
      <trkpt lat="40.467307" lon="-2.748708">
        <ele>932.8</ele>
        <time>2015-02-22T07:52:01Z</time>
      </trkpt>
      <trkpt lat="40.467344" lon="-2.748833">
        <ele>934.1</ele>
        <time>2015-02-22T07:52:06Z</time>
      </trkpt>
      <trkpt lat="40.467307" lon="-2.748960">
        <ele>935.3</ele>
        <time>2015-02-22T07:52:12Z</time>
      </trkpt>
      <trkpt lat="40.467298" lon="-2.749083">
        <ele>936.7</ele>
        <time>2015-02-22T07:52:17Z</time>
      </trkpt>
      <trkpt lat="40.467360" lon="-2.749190">
        <ele>937.5</ele>
        <time>2015-02-22T07:52:21Z</time>
      </trkpt>
      <trkpt lat="40.467442" lon="-2.749270">
        <ele>937.9</ele>
        <time>2015-02-22T07:52:25Z</time>
      </trkpt>
      <trkpt lat="40.467393" lon="-2.749373">
        <ele>938.7</ele>
        <time>2015-02-22T07:52:38Z</time>
      </trkpt>
      <trkpt lat="40.467322" lon="-2.749467">
        <ele>939.4</ele>
        <time>2015-02-22T07:52:43Z</time>
      </trkpt>
      <trkpt lat="40.467255" lon="-2.749567">
        <ele>940.1</ele>
        <time>2015-02-22T07:52:48Z</time>
      </trkpt>
      <trkpt lat="40.467194" lon="-2.749683">
        <ele>940.8</ele>
        <time>2015-02-22T07:52:54Z</time>
      </trkpt>
      <trkpt lat="40.467142" lon="-2.749790">
        <ele>941.4</ele>
        <time>2015-02-22T07:52:59Z</time>
      </trkpt>
      <trkpt lat="40.467050" lon="-2.749857">
        <ele>941.7</ele>
        <time>2015-02-22T07:53:05Z</time>
      </trkpt>
      <trkpt lat="40.466952" lon="-2.749866">
        <ele>941.7</ele>
        <time>2015-02-22T07:53:09Z</time>
      </trkpt>
      <trkpt lat="40.466857" lon="-2.749875">
        <ele>941.7</ele>
        <time>2015-02-22T07:53:13Z</time>
      </trkpt>
      <trkpt lat="40.466760" lon="-2.749893">
        <ele>941.7</ele>
        <time>2015-02-22T07:53:17Z</time>
      </trkpt>
      <trkpt lat="40.466659" lon="-2.749918">
        <ele>941.7</ele>
        <time>2015-02-22T07:53:21Z</time>
      </trkpt>
      <trkpt lat="40.466569" lon="-2.749948">
        <ele>942.1</ele>
        <time>2015-02-22T07:53:25Z</time>
      </trkpt>
      <trkpt lat="40.466467" lon="-2.750010">
        <ele>942.8</ele>
        <time>2015-02-22T07:53:30Z</time>
      </trkpt>
      <trkpt lat="40.466378" lon="-2.750088">
        <ele>943.9</ele>
        <time>2015-02-22T07:53:34Z</time>
      </trkpt>
      <trkpt lat="40.466292" lon="-2.750183">
        <ele>945.0</ele>
        <time>2015-02-22T07:53:38Z</time>
      </trkpt>
      <trkpt lat="40.466212" lon="-2.750263">
        <ele>946.1</ele>
        <time>2015-02-22T07:53:42Z</time>
      </trkpt>
      <trkpt lat="40.466127" lon="-2.750340">
        <ele>946.9</ele>
        <time>2015-02-22T07:53:46Z</time>
      </trkpt>
      <trkpt lat="40.466043" lon="-2.750410">
        <ele>947.9</ele>
        <time>2015-02-22T07:53:50Z</time>
      </trkpt>
      <trkpt lat="40.465962" lon="-2.750490">
        <ele>948.8</ele>
        <time>2015-02-22T07:53:54Z</time>
      </trkpt>
      <trkpt lat="40.465887" lon="-2.750595">
        <ele>949.9</ele>
        <time>2015-02-22T07:53:58Z</time>
      </trkpt>
      <trkpt lat="40.465820" lon="-2.750722">
        <ele>951.1</ele>
        <time>2015-02-22T07:54:02Z</time>
      </trkpt>
      <trkpt lat="40.465750" lon="-2.750848">
        <ele>951.8</ele>
        <time>2015-02-22T07:54:06Z</time>
      </trkpt>
      <trkpt lat="40.465699" lon="-2.750945">
        <ele>953.0</ele>
        <time>2015-02-22T07:54:09Z</time>
      </trkpt>
      <trkpt lat="40.465642" lon="-2.751058">
        <ele>954.3</ele>
        <time>2015-02-22T07:54:13Z</time>
      </trkpt>
      <trkpt lat="40.465580" lon="-2.751170">
        <ele>955.3</ele>
        <time>2015-02-22T07:54:17Z</time>
      </trkpt>
      <trkpt lat="40.465515" lon="-2.751270">
        <ele>956.3</ele>
        <time>2015-02-22T07:54:21Z</time>
      </trkpt>
      <trkpt lat="40.465439" lon="-2.751340">
        <ele>956.6</ele>
        <time>2015-02-22T07:54:25Z</time>
      </trkpt>
      <trkpt lat="40.465362" lon="-2.751423">
        <ele>957.1</ele>
        <time>2015-02-22T07:54:29Z</time>
      </trkpt>
      <trkpt lat="40.465280" lon="-2.751487">
        <ele>957.3</ele>
        <time>2015-02-22T07:54:34Z</time>
      </trkpt>
      <trkpt lat="40.465183" lon="-2.751571">
        <ele>957.5</ele>
        <time>2015-02-22T07:54:39Z</time>
      </trkpt>
      <trkpt lat="40.465122" lon="-2.751678">
        <ele>958.2</ele>
        <time>2015-02-22T07:54:43Z</time>
      </trkpt>
      <trkpt lat="40.465060" lon="-2.751786">
        <ele>959.7</ele>
        <time>2015-02-22T07:54:47Z</time>
      </trkpt>
      <trkpt lat="40.464992" lon="-2.751872">
        <ele>960.4</ele>
        <time>2015-02-22T07:54:51Z</time>
      </trkpt>
      <trkpt lat="40.464922" lon="-2.751960">
        <ele>961.3</ele>
        <time>2015-02-22T07:54:55Z</time>
      </trkpt>
      <trkpt lat="40.464847" lon="-2.752065">
        <ele>962.2</ele>
        <time>2015-02-22T07:55:00Z</time>
      </trkpt>
      <trkpt lat="40.464774" lon="-2.752167">
        <ele>963.2</ele>
        <time>2015-02-22T07:55:05Z</time>
      </trkpt>
      <trkpt lat="40.464697" lon="-2.752260">
        <ele>963.7</ele>
        <time>2015-02-22T07:55:10Z</time>
      </trkpt>
      <trkpt lat="40.464617" lon="-2.752355">
        <ele>964.3</ele>
        <time>2015-02-22T07:55:15Z</time>
      </trkpt>
      <trkpt lat="40.464540" lon="-2.752441">
        <ele>964.7</ele>
        <time>2015-02-22T07:55:20Z</time>
      </trkpt>
      <trkpt lat="40.464458" lon="-2.752530">
        <ele>965.2</ele>
        <time>2015-02-22T07:55:25Z</time>
      </trkpt>
      <trkpt lat="40.464390" lon="-2.752640">
        <ele>966.4</ele>
        <time>2015-02-22T07:55:30Z</time>
      </trkpt>
      <trkpt lat="40.464339" lon="-2.752753">
        <ele>967.9</ele>
        <time>2015-02-22T07:55:35Z</time>
      </trkpt>
      <trkpt lat="40.464272" lon="-2.752863">
        <ele>969.2</ele>
        <time>2015-02-22T07:55:41Z</time>
      </trkpt>
      <trkpt lat="40.464195" lon="-2.752927">
        <ele>969.6</ele>
        <time>2015-02-22T07:55:47Z</time>
      </trkpt>
      <trkpt lat="40.464105" lon="-2.753005">
        <ele>970.3</ele>
        <time>2015-02-22T07:55:54Z</time>
      </trkpt>
      <trkpt lat="40.464043" lon="-2.753091">
        <ele>971.6</ele>
        <time>2015-02-22T07:56:01Z</time>
      </trkpt>
      <trkpt lat="40.463979" lon="-2.753185">
        <ele>972.9</ele>
        <time>2015-02-22T07:56:39Z</time>
      </trkpt>
      <trkpt lat="40.463927" lon="-2.753290">
        <ele>974.5</ele>
        <time>2015-02-22T07:56:45Z</time>
      </trkpt>
      <trkpt lat="40.463875" lon="-2.753392">
        <ele>976.4</ele>
        <time>2015-02-22T07:56:51Z</time>
      </trkpt>
      <trkpt lat="40.463807" lon="-2.753470">
        <ele>977.7</ele>
        <time>2015-02-22T07:56:56Z</time>
      </trkpt>
      <trkpt lat="40.463723" lon="-2.753522">
        <ele>978.4</ele>
        <time>2015-02-22T07:57:01Z</time>
      </trkpt>
      <trkpt lat="40.463635" lon="-2.753560">
        <ele>978.8</ele>
        <time>2015-02-22T07:57:07Z</time>
      </trkpt>
      <trkpt lat="40.463532" lon="-2.753593">
        <ele>978.8</ele>
        <time>2015-02-22T07:57:13Z</time>
      </trkpt>
      <trkpt lat="40.463424" lon="-2.753605">
        <ele>978.4</ele>
        <time>2015-02-22T07:57:19Z</time>
      </trkpt>
      <trkpt lat="40.463324" lon="-2.753576">
        <ele>977.2</ele>
        <time>2015-02-22T07:57:25Z</time>
      </trkpt>
      <trkpt lat="40.463229" lon="-2.753568">
        <ele>977.1</ele>
        <time>2015-02-22T07:57:31Z</time>
      </trkpt>
      <trkpt lat="40.463137" lon="-2.753633">
        <ele>978.9</ele>
        <time>2015-02-22T07:57:38Z</time>
      </trkpt>
      <trkpt lat="40.463057" lon="-2.753695">
        <ele>980.7</ele>
        <time>2015-02-22T07:57:45Z</time>
      </trkpt>
      <trkpt lat="40.462967" lon="-2.753705">
        <ele>981.2</ele>
        <time>2015-02-22T07:57:51Z</time>
      </trkpt>
      <trkpt lat="40.462872" lon="-2.753710">
        <ele>981.3</ele>
        <time>2015-02-22T07:57:57Z</time>
      </trkpt>
      <trkpt lat="40.462783" lon="-2.753745">
        <ele>982.5</ele>
        <time>2015-02-22T07:58:05Z</time>
      </trkpt>
      <trkpt lat="40.462717" lon="-2.753826">
        <ele>984.6</ele>
        <time>2015-02-22T07:58:11Z</time>
      </trkpt>
      <trkpt lat="40.462647" lon="-2.753923">
        <ele>987.5</ele>
        <time>2015-02-22T07:58:17Z</time>
      </trkpt>
      <trkpt lat="40.462592" lon="-2.754016">
        <ele>990.0</ele>
        <time>2015-02-22T07:58:22Z</time>
      </trkpt>
      <trkpt lat="40.462552" lon="-2.754128">
        <ele>992.8</ele>
        <time>2015-02-22T07:58:28Z</time>
      </trkpt>
      <trkpt lat="40.462487" lon="-2.754230">
        <ele>995.0</ele>
        <time>2015-02-22T07:58:35Z</time>
      </trkpt>
      <trkpt lat="40.462432" lon="-2.754346">
        <ele>996.5</ele>
        <time>2015-02-22T07:58:40Z</time>
      </trkpt>
      <trkpt lat="40.462389" lon="-2.754455">
        <ele>997.8</ele>
        <time>2015-02-22T07:58:43Z</time>
      </trkpt>
      <trkpt lat="40.462343" lon="-2.754565">
        <ele>999.0</ele>
        <time>2015-02-22T07:58:46Z</time>
      </trkpt>
      <trkpt lat="40.462283" lon="-2.754666">
        <ele>999.8</ele>
        <time>2015-02-22T07:58:49Z</time>
      </trkpt>
      <trkpt lat="40.462190" lon="-2.754775">
        <ele>999.9</ele>
        <time>2015-02-22T07:58:52Z</time>
      </trkpt>
      <trkpt lat="40.462072" lon="-2.754833">
        <ele>999.1</ele>
        <time>2015-02-22T07:58:55Z</time>
      </trkpt>
      <trkpt lat="40.461987" lon="-2.754905">
        <ele>998.4</ele>
        <time>2015-02-22T07:58:57Z</time>
      </trkpt>
      <trkpt lat="40.461905" lon="-2.754978">
        <ele>997.6</ele>
        <time>2015-02-22T07:58:59Z</time>
      </trkpt>
      <trkpt lat="40.461825" lon="-2.755043">
        <ele>996.3</ele>
        <time>2015-02-22T07:59:01Z</time>
      </trkpt>
      <trkpt lat="40.461735" lon="-2.755113">
        <ele>994.8</ele>
        <time>2015-02-22T07:59:03Z</time>
      </trkpt>
      <trkpt lat="40.461644" lon="-2.755187">
        <ele>993.2</ele>
        <time>2015-02-22T07:59:05Z</time>
      </trkpt>
      <trkpt lat="40.461555" lon="-2.755258">
        <ele>991.8</ele>
        <time>2015-02-22T07:59:07Z</time>
      </trkpt>
      <trkpt lat="40.461453" lon="-2.755323">
        <ele>990.2</ele>
        <time>2015-02-22T07:59:09Z</time>
      </trkpt>
      <trkpt lat="40.461320" lon="-2.755348">
        <ele>988.1</ele>
        <time>2015-02-22T07:59:11Z</time>
      </trkpt>
      <trkpt lat="40.461157" lon="-2.755351">
        <ele>985.8</ele>
        <time>2015-02-22T07:59:13Z</time>
      </trkpt>
      <trkpt lat="40.460982" lon="-2.755383">
        <ele>982.9</ele>
        <time>2015-02-22T07:59:15Z</time>
      </trkpt>
      <trkpt lat="40.460813" lon="-2.755443">
        <ele>980.0</ele>
        <time>2015-02-22T07:59:17Z</time>
      </trkpt>
      <trkpt lat="40.460665" lon="-2.755527">
        <ele>977.1</ele>
        <time>2015-02-22T07:59:19Z</time>
      </trkpt>
      <trkpt lat="40.460552" lon="-2.755638">
        <ele>974.7</ele>
        <time>2015-02-22T07:59:21Z</time>
      </trkpt>
      <trkpt lat="40.460465" lon="-2.755744">
        <ele>972.7</ele>
        <time>2015-02-22T07:59:23Z</time>
      </trkpt>
      <trkpt lat="40.460385" lon="-2.755860">
        <ele>971.0</ele>
        <time>2015-02-22T07:59:26Z</time>
      </trkpt>
      <trkpt lat="40.460312" lon="-2.755963">
        <ele>969.5</ele>
        <time>2015-02-22T07:59:30Z</time>
      </trkpt>
      <trkpt lat="40.460247" lon="-2.756048">
        <ele>968.1</ele>
        <time>2015-02-22T07:59:34Z</time>
      </trkpt>
      <trkpt lat="40.460169" lon="-2.756146">
        <ele>966.4</ele>
        <time>2015-02-22T07:59:39Z</time>
      </trkpt>
      <trkpt lat="40.460085" lon="-2.756236">
        <ele>964.5</ele>
        <time>2015-02-22T07:59:44Z</time>
      </trkpt>
      <trkpt lat="40.460002" lon="-2.756313">
        <ele>962.6</ele>
        <time>2015-02-22T07:59:49Z</time>
      </trkpt>
      <trkpt lat="40.459917" lon="-2.756378">
        <ele>962.7</ele>
        <time>2015-02-22T07:59:54Z</time>
      </trkpt>
      <trkpt lat="40.459822" lon="-2.756450">
        <ele>963.2</ele>
        <time>2015-02-22T07:59:59Z</time>
      </trkpt>
      <trkpt lat="40.459734" lon="-2.756517">
        <ele>963.9</ele>
        <time>2015-02-22T08:00:04Z</time>
      </trkpt>
      <trkpt lat="40.459659" lon="-2.756585">
        <ele>964.6</ele>
        <time>2015-02-22T08:00:09Z</time>
      </trkpt>
      <trkpt lat="40.459587" lon="-2.756676">
        <ele>965.3</ele>
        <time>2015-02-22T08:00:14Z</time>
      </trkpt>
      <trkpt lat="40.459517" lon="-2.756785">
        <ele>965.6</ele>
        <time>2015-02-22T08:00:19Z</time>
      </trkpt>
      <trkpt lat="40.459443" lon="-2.756883">
        <ele>966.2</ele>
        <time>2015-02-22T08:00:24Z</time>
      </trkpt>
      <trkpt lat="40.459377" lon="-2.756980">
        <ele>967.1</ele>
        <time>2015-02-22T08:00:29Z</time>
      </trkpt>
      <trkpt lat="40.459302" lon="-2.757073">
        <ele>968.4</ele>
        <time>2015-02-22T08:00:34Z</time>
      </trkpt>
      <trkpt lat="40.459218" lon="-2.757148">
        <ele>970.3</ele>
        <time>2015-02-22T08:00:39Z</time>
      </trkpt>
      <trkpt lat="40.459125" lon="-2.757212">
        <ele>972.3</ele>
        <time>2015-02-22T08:00:44Z</time>
      </trkpt>
      <trkpt lat="40.459032" lon="-2.757265">
        <ele>974.1</ele>
        <time>2015-02-22T08:00:49Z</time>
      </trkpt>
      <trkpt lat="40.458939" lon="-2.757315">
        <ele>976.1</ele>
        <time>2015-02-22T08:00:54Z</time>
      </trkpt>
      <trkpt lat="40.458840" lon="-2.757366">
        <ele>978.4</ele>
        <time>2015-02-22T08:00:59Z</time>
      </trkpt>
      <trkpt lat="40.458740" lon="-2.757427">
        <ele>981.1</ele>
        <time>2015-02-22T08:01:04Z</time>
      </trkpt>
      <trkpt lat="40.458657" lon="-2.757475">
        <ele>983.3</ele>
        <time>2015-02-22T08:01:08Z</time>
      </trkpt>
      <trkpt lat="40.458556" lon="-2.757533">
        <ele>986.3</ele>
        <time>2015-02-22T08:01:13Z</time>
      </trkpt>
      <trkpt lat="40.458467" lon="-2.757598">
        <ele>988.8</ele>
        <time>2015-02-22T08:01:18Z</time>
      </trkpt>
      <trkpt lat="40.458387" lon="-2.757675">
        <ele>991.3</ele>
        <time>2015-02-22T08:01:23Z</time>
      </trkpt>
      <trkpt lat="40.458309" lon="-2.757767">
        <ele>993.3</ele>
        <time>2015-02-22T08:01:28Z</time>
      </trkpt>
      <trkpt lat="40.458232" lon="-2.757862">
        <ele>994.2</ele>
        <time>2015-02-22T08:01:33Z</time>
      </trkpt>
      <trkpt lat="40.458167" lon="-2.757955">
        <ele>995.2</ele>
        <time>2015-02-22T08:01:38Z</time>
      </trkpt>
      <trkpt lat="40.458084" lon="-2.758031">
        <ele>996.1</ele>
        <time>2015-02-22T08:01:43Z</time>
      </trkpt>
      <trkpt lat="40.458007" lon="-2.758112">
        <ele>997.2</ele>
        <time>2015-02-22T08:01:48Z</time>
      </trkpt>
      <trkpt lat="40.457927" lon="-2.758192">
        <ele>998.3</ele>
        <time>2015-02-22T08:01:53Z</time>
      </trkpt>
      <trkpt lat="40.457842" lon="-2.758273">
        <ele>999.7</ele>
        <time>2015-02-22T08:01:58Z</time>
      </trkpt>
      <trkpt lat="40.457767" lon="-2.758351">
        <ele>1000.6</ele>
        <time>2015-02-22T08:02:03Z</time>
      </trkpt>
      <trkpt lat="40.457687" lon="-2.758433">
        <ele>1000.8</ele>
        <time>2015-02-22T08:02:08Z</time>
      </trkpt>
      <trkpt lat="40.457599" lon="-2.758522">
        <ele>1001.0</ele>
        <time>2015-02-22T08:02:13Z</time>
      </trkpt>
      <trkpt lat="40.457515" lon="-2.758613">
        <ele>1001.2</ele>
        <time>2015-02-22T08:02:18Z</time>
      </trkpt>
      <trkpt lat="40.457428" lon="-2.758698">
        <ele>1001.1</ele>
        <time>2015-02-22T08:02:23Z</time>
      </trkpt>
      <trkpt lat="40.457343" lon="-2.758788">
        <ele>1001.1</ele>
        <time>2015-02-22T08:02:28Z</time>
      </trkpt>
      <trkpt lat="40.457259" lon="-2.758878">
        <ele>1001.2</ele>
        <time>2015-02-22T08:02:33Z</time>
      </trkpt>
      <trkpt lat="40.457190" lon="-2.758962">
        <ele>1001.5</ele>
        <time>2015-02-22T08:02:37Z</time>
      </trkpt>
      <trkpt lat="40.457117" lon="-2.759036">
        <ele>1002.0</ele>
        <time>2015-02-22T08:02:41Z</time>
      </trkpt>
      <trkpt lat="40.457022" lon="-2.759103">
        <ele>1002.6</ele>
        <time>2015-02-22T08:02:46Z</time>
      </trkpt>
      <trkpt lat="40.456930" lon="-2.759145">
        <ele>1003.4</ele>
        <time>2015-02-22T08:02:51Z</time>
      </trkpt>
      <trkpt lat="40.456837" lon="-2.759180">
        <ele>1004.0</ele>
        <time>2015-02-22T08:02:56Z</time>
      </trkpt>
      <trkpt lat="40.456734" lon="-2.759227">
        <ele>1005.0</ele>
        <time>2015-02-22T08:03:02Z</time>
      </trkpt>
      <trkpt lat="40.456647" lon="-2.759275">
        <ele>1005.9</ele>
        <time>2015-02-22T08:03:07Z</time>
      </trkpt>
      <trkpt lat="40.456550" lon="-2.759323">
        <ele>1006.7</ele>
        <time>2015-02-22T08:03:12Z</time>
      </trkpt>
      <trkpt lat="40.456452" lon="-2.759368">
        <ele>1007.7</ele>
        <time>2015-02-22T08:03:17Z</time>
      </trkpt>
      <trkpt lat="40.456355" lon="-2.759403">
        <ele>1008.6</ele>
        <time>2015-02-22T08:03:22Z</time>
      </trkpt>
      <trkpt lat="40.456265" lon="-2.759445">
        <ele>1009.5</ele>
        <time>2015-02-22T08:03:27Z</time>
      </trkpt>
      <trkpt lat="40.456175" lon="-2.759488">
        <ele>1010.5</ele>
        <time>2015-02-22T08:03:32Z</time>
      </trkpt>
      <trkpt lat="40.456082" lon="-2.759535">
        <ele>1011.7</ele>
        <time>2015-02-22T08:03:37Z</time>
      </trkpt>
      <trkpt lat="40.455988" lon="-2.759586">
        <ele>1013.0</ele>
        <time>2015-02-22T08:03:42Z</time>
      </trkpt>
      <trkpt lat="40.455892" lon="-2.759630">
        <ele>1014.3</ele>
        <time>2015-02-22T08:03:48Z</time>
      </trkpt>
      <trkpt lat="40.455795" lon="-2.759668">
        <ele>1015.4</ele>
        <time>2015-02-22T08:03:55Z</time>
      </trkpt>
      <trkpt lat="40.455702" lon="-2.759683">
        <ele>1015.8</ele>
        <time>2015-02-22T08:04:01Z</time>
      </trkpt>
      <trkpt lat="40.455609" lon="-2.759688">
        <ele>1016.0</ele>
        <time>2015-02-22T08:04:07Z</time>
      </trkpt>
      <trkpt lat="40.455512" lon="-2.759695">
        <ele>1016.4</ele>
        <time>2015-02-22T08:04:13Z</time>
      </trkpt>
      <trkpt lat="40.455417" lon="-2.759706">
        <ele>1016.9</ele>
        <time>2015-02-22T08:04:19Z</time>
      </trkpt>
      <trkpt lat="40.455323" lon="-2.759736">
        <ele>1017.5</ele>
        <time>2015-02-22T08:04:25Z</time>
      </trkpt>
      <trkpt lat="40.455229" lon="-2.759785">
        <ele>1018.6</ele>
        <time>2015-02-22T08:04:32Z</time>
      </trkpt>
      <trkpt lat="40.455150" lon="-2.759846">
        <ele>1020.0</ele>
        <time>2015-02-22T08:04:38Z</time>
      </trkpt>
      <trkpt lat="40.455072" lon="-2.759918">
        <ele>1021.4</ele>
        <time>2015-02-22T08:04:44Z</time>
      </trkpt>
      <trkpt lat="40.454980" lon="-2.759985">
        <ele>1022.9</ele>
        <time>2015-02-22T08:04:51Z</time>
      </trkpt>
      <trkpt lat="40.454902" lon="-2.760046">
        <ele>1024.0</ele>
        <time>2015-02-22T08:04:57Z</time>
      </trkpt>
      <trkpt lat="40.454817" lon="-2.760100">
        <ele>1024.9</ele>
        <time>2015-02-22T08:05:03Z</time>
      </trkpt>
      <trkpt lat="40.454738" lon="-2.760163">
        <ele>1025.9</ele>
        <time>2015-02-22T08:05:09Z</time>
      </trkpt>
      <trkpt lat="40.454655" lon="-2.760222">
        <ele>1026.7</ele>
        <time>2015-02-22T08:05:15Z</time>
      </trkpt>
      <trkpt lat="40.454570" lon="-2.760285">
        <ele>1027.6</ele>
        <time>2015-02-22T08:05:21Z</time>
      </trkpt>
      <trkpt lat="40.454482" lon="-2.760347">
        <ele>1028.5</ele>
        <time>2015-02-22T08:05:27Z</time>
      </trkpt>
      <trkpt lat="40.454399" lon="-2.760407">
        <ele>1029.4</ele>
        <time>2015-02-22T08:05:33Z</time>
      </trkpt>
      <trkpt lat="40.454312" lon="-2.760438">
        <ele>1030.0</ele>
        <time>2015-02-22T08:05:38Z</time>
      </trkpt>
      <trkpt lat="40.454208" lon="-2.760442">
        <ele>1030.5</ele>
        <time>2015-02-22T08:05:43Z</time>
      </trkpt>
      <trkpt lat="40.454107" lon="-2.760416">
        <ele>1030.5</ele>
        <time>2015-02-22T08:05:48Z</time>
      </trkpt>
      <trkpt lat="40.454007" lon="-2.760365">
        <ele>1030.4</ele>
        <time>2015-02-22T08:05:53Z</time>
      </trkpt>
      <trkpt lat="40.453915" lon="-2.760285">
        <ele>1030.2</ele>
        <time>2015-02-22T08:05:57Z</time>
      </trkpt>
      <trkpt lat="40.453830" lon="-2.760220">
        <ele>1030.2</ele>
        <time>2015-02-22T08:06:00Z</time>
      </trkpt>
      <trkpt lat="40.453737" lon="-2.760175">
        <ele>1030.4</ele>
        <time>2015-02-22T08:06:03Z</time>
      </trkpt>
      <trkpt lat="40.453624" lon="-2.760163">
        <ele>1030.7</ele>
        <time>2015-02-22T08:06:07Z</time>
      </trkpt>
      <trkpt lat="40.453517" lon="-2.760155">
        <ele>1031.0</ele>
        <time>2015-02-22T08:06:11Z</time>
      </trkpt>
      <trkpt lat="40.453403" lon="-2.760148">
        <ele>1031.4</ele>
        <time>2015-02-22T08:06:15Z</time>
      </trkpt>
      <trkpt lat="40.453312" lon="-2.760145">
        <ele>1031.7</ele>
        <time>2015-02-22T08:06:18Z</time>
      </trkpt>
      <trkpt lat="40.453217" lon="-2.760150">
        <ele>1032.0</ele>
        <time>2015-02-22T08:06:21Z</time>
      </trkpt>
      <trkpt lat="40.453095" lon="-2.760160">
        <ele>1032.2</ele>
        <time>2015-02-22T08:06:25Z</time>
      </trkpt>
      <trkpt lat="40.452988" lon="-2.760165">
        <ele>1032.5</ele>
        <time>2015-02-22T08:06:28Z</time>
      </trkpt>
      <trkpt lat="40.452887" lon="-2.760146">
        <ele>1032.9</ele>
        <time>2015-02-22T08:06:31Z</time>
      </trkpt>
      <trkpt lat="40.452777" lon="-2.760113">
        <ele>1033.5</ele>
        <time>2015-02-22T08:06:34Z</time>
      </trkpt>
      <trkpt lat="40.452670" lon="-2.760080">
        <ele>1034.3</ele>
        <time>2015-02-22T08:06:37Z</time>
      </trkpt>
      <trkpt lat="40.452552" lon="-2.760050">
        <ele>1035.1</ele>
        <time>2015-02-22T08:06:40Z</time>
      </trkpt>
      <trkpt lat="40.452428" lon="-2.760021">
        <ele>1035.8</ele>
        <time>2015-02-22T08:06:43Z</time>
      </trkpt>
      <trkpt lat="40.452313" lon="-2.759975">
        <ele>1036.0</ele>
        <time>2015-02-22T08:06:46Z</time>
      </trkpt>
      <trkpt lat="40.452215" lon="-2.759926">
        <ele>1035.6</ele>
        <time>2015-02-22T08:06:49Z</time>
      </trkpt>
      <trkpt lat="40.452112" lon="-2.759888">
        <ele>1035.2</ele>
        <time>2015-02-22T08:06:52Z</time>
      </trkpt>
      <trkpt lat="40.452015" lon="-2.759880">
        <ele>1035.3</ele>
        <time>2015-02-22T08:06:55Z</time>
      </trkpt>
      <trkpt lat="40.451924" lon="-2.759870">
        <ele>1035.4</ele>
        <time>2015-02-22T08:06:58Z</time>
      </trkpt>
      <trkpt lat="40.451832" lon="-2.759870">
        <ele>1035.7</ele>
        <time>2015-02-22T08:07:01Z</time>
      </trkpt>
      <trkpt lat="40.451717" lon="-2.759863">
        <ele>1036.1</ele>
        <time>2015-02-22T08:07:05Z</time>
      </trkpt>
      <trkpt lat="40.451615" lon="-2.759818">
        <ele>1035.7</ele>
        <time>2015-02-22T08:07:10Z</time>
      </trkpt>
      <trkpt lat="40.451518" lon="-2.759787">
        <ele>1035.6</ele>
        <time>2015-02-22T08:07:13Z</time>
      </trkpt>
      <trkpt lat="40.451413" lon="-2.759743">
        <ele>1035.5</ele>
        <time>2015-02-22T08:07:16Z</time>
      </trkpt>
      <trkpt lat="40.451300" lon="-2.759718">
        <ele>1035.5</ele>
        <time>2015-02-22T08:07:19Z</time>
      </trkpt>
      <trkpt lat="40.451187" lon="-2.759728">
        <ele>1035.9</ele>
        <time>2015-02-22T08:07:22Z</time>
      </trkpt>
      <trkpt lat="40.451075" lon="-2.759753">
        <ele>1036.5</ele>
        <time>2015-02-22T08:07:25Z</time>
      </trkpt>
      <trkpt lat="40.450970" lon="-2.759783">
        <ele>1037.1</ele>
        <time>2015-02-22T08:07:28Z</time>
      </trkpt>
      <trkpt lat="40.450867" lon="-2.759830">
        <ele>1037.7</ele>
        <time>2015-02-22T08:07:31Z</time>
      </trkpt>
      <trkpt lat="40.450760" lon="-2.759867">
        <ele>1038.2</ele>
        <time>2015-02-22T08:07:34Z</time>
      </trkpt>
      <trkpt lat="40.450669" lon="-2.759916">
        <ele>1038.8</ele>
        <time>2015-02-22T08:07:37Z</time>
      </trkpt>
      <trkpt lat="40.450579" lon="-2.759998">
        <ele>1039.6</ele>
        <time>2015-02-22T08:07:41Z</time>
      </trkpt>
      <trkpt lat="40.450495" lon="-2.760048">
        <ele>1039.5</ele>
        <time>2015-02-22T08:07:44Z</time>
      </trkpt>
      <trkpt lat="40.450393" lon="-2.760083">
        <ele>1039.6</ele>
        <time>2015-02-22T08:07:48Z</time>
      </trkpt>
      <trkpt lat="40.450302" lon="-2.760090">
        <ele>1039.8</ele>
        <time>2015-02-22T08:07:52Z</time>
      </trkpt>
      <trkpt lat="40.450205" lon="-2.760109">
        <ele>1040.0</ele>
        <time>2015-02-22T08:08:24Z</time>
      </trkpt>
      <trkpt lat="40.450152" lon="-2.760213">
        <ele>1039.7</ele>
        <time>2015-02-22T08:08:29Z</time>
      </trkpt>
      <trkpt lat="40.450090" lon="-2.760320">
        <ele>1039.5</ele>
        <time>2015-02-22T08:08:33Z</time>
      </trkpt>
      <trkpt lat="40.449998" lon="-2.760305">
        <ele>1039.9</ele>
        <time>2015-02-22T08:08:36Z</time>
      </trkpt>
      <trkpt lat="40.449885" lon="-2.760271">
        <ele>1039.0</ele>
        <time>2015-02-22T08:08:39Z</time>
      </trkpt>
      <trkpt lat="40.449789" lon="-2.760235">
        <ele>1038.3</ele>
        <time>2015-02-22T08:08:41Z</time>
      </trkpt>
      <trkpt lat="40.449699" lon="-2.760198">
        <ele>1037.6</ele>
        <time>2015-02-22T08:08:43Z</time>
      </trkpt>
      <trkpt lat="40.449575" lon="-2.760200">
        <ele>1036.6</ele>
        <time>2015-02-22T08:08:46Z</time>
      </trkpt>
      <trkpt lat="40.449475" lon="-2.760245">
        <ele>1035.4</ele>
        <time>2015-02-22T08:08:49Z</time>
      </trkpt>
      <trkpt lat="40.449370" lon="-2.760345">
        <ele>1033.6</ele>
        <time>2015-02-22T08:08:52Z</time>
      </trkpt>
      <trkpt lat="40.449285" lon="-2.760415">
        <ele>1032.2</ele>
        <time>2015-02-22T08:08:54Z</time>
      </trkpt>
      <trkpt lat="40.449198" lon="-2.760485">
        <ele>1030.6</ele>
        <time>2015-02-22T08:08:56Z</time>
      </trkpt>
      <trkpt lat="40.449117" lon="-2.760552">
        <ele>1028.9</ele>
        <time>2015-02-22T08:08:58Z</time>
      </trkpt>
      <trkpt lat="40.449017" lon="-2.760660">
        <ele>1026.4</ele>
        <time>2015-02-22T08:09:01Z</time>
      </trkpt>
      <trkpt lat="40.448917" lon="-2.760765">
        <ele>1023.6</ele>
        <time>2015-02-22T08:09:04Z</time>
      </trkpt>
      <trkpt lat="40.448820" lon="-2.760883">
        <ele>1019.6</ele>
        <time>2015-02-22T08:09:07Z</time>
      </trkpt>
      <trkpt lat="40.448728" lon="-2.760997">
        <ele>1014.5</ele>
        <time>2015-02-22T08:09:10Z</time>
      </trkpt>
      <trkpt lat="40.448662" lon="-2.761083">
        <ele>1010.5</ele>
        <time>2015-02-22T08:09:13Z</time>
      </trkpt>
      <trkpt lat="40.448743" lon="-2.761183">
        <ele>1009.1</ele>
        <time>2015-02-22T08:09:24Z</time>
      </trkpt>
      <trkpt lat="40.448845" lon="-2.761218">
        <ele>1009.8</ele>
        <time>2015-02-22T08:09:28Z</time>
      </trkpt>
      <trkpt lat="40.448943" lon="-2.761245">
        <ele>1010.9</ele>
        <time>2015-02-22T08:09:31Z</time>
      </trkpt>
      <trkpt lat="40.449057" lon="-2.761270">
        <ele>1012.2</ele>
        <time>2015-02-22T08:09:34Z</time>
      </trkpt>
      <trkpt lat="40.449029" lon="-2.761403">
        <ele>1007.9</ele>
        <time>2015-02-22T08:09:45Z</time>
      </trkpt>
      <trkpt lat="40.448961" lon="-2.761498">
        <ele>1003.8</ele>
        <time>2015-02-22T08:09:48Z</time>
      </trkpt>
      <trkpt lat="40.448910" lon="-2.761613">
        <ele>999.3</ele>
        <time>2015-02-22T08:09:51Z</time>
      </trkpt>
      <trkpt lat="40.448820" lon="-2.761733">
        <ele>993.8</ele>
        <time>2015-02-22T08:09:54Z</time>
      </trkpt>
      <trkpt lat="40.448732" lon="-2.761853">
        <ele>987.5</ele>
        <time>2015-02-22T08:09:57Z</time>
      </trkpt>
      <trkpt lat="40.448664" lon="-2.761945">
        <ele>982.8</ele>
        <time>2015-02-22T08:10:00Z</time>
      </trkpt>
      <trkpt lat="40.448567" lon="-2.762060">
        <ele>976.4</ele>
        <time>2015-02-22T08:10:04Z</time>
      </trkpt>
      <trkpt lat="40.448472" lon="-2.762170">
        <ele>970.5</ele>
        <time>2015-02-22T08:10:07Z</time>
      </trkpt>
      <trkpt lat="40.448392" lon="-2.762288">
        <ele>964.2</ele>
        <time>2015-02-22T08:10:10Z</time>
      </trkpt>
      <trkpt lat="40.448320" lon="-2.762378">
        <ele>959.4</ele>
        <time>2015-02-22T08:10:12Z</time>
      </trkpt>
      <trkpt lat="40.448237" lon="-2.762516">
        <ele>954.3</ele>
        <time>2015-02-22T08:10:15Z</time>
      </trkpt>
      <trkpt lat="40.448173" lon="-2.762605">
        <ele>951.9</ele>
        <time>2015-02-22T08:10:17Z</time>
      </trkpt>
      <trkpt lat="40.448094" lon="-2.762715">
        <ele>948.3</ele>
        <time>2015-02-22T08:10:20Z</time>
      </trkpt>
      <trkpt lat="40.448210" lon="-2.762720">
        <ele>948.6</ele>
        <time>2015-02-22T08:10:32Z</time>
      </trkpt>
      <trkpt lat="40.448312" lon="-2.762674">
        <ele>949.9</ele>
        <time>2015-02-22T08:10:35Z</time>
      </trkpt>
      <trkpt lat="40.448423" lon="-2.762636">
        <ele>953.4</ele>
        <time>2015-02-22T08:10:38Z</time>
      </trkpt>
      <trkpt lat="40.448562" lon="-2.762640">
        <ele>957.0</ele>
        <time>2015-02-22T08:10:41Z</time>
      </trkpt>
      <trkpt lat="40.448684" lon="-2.762692">
        <ele>958.7</ele>
        <time>2015-02-22T08:10:43Z</time>
      </trkpt>
      <trkpt lat="40.448817" lon="-2.762758">
        <ele>960.3</ele>
        <time>2015-02-22T08:10:45Z</time>
      </trkpt>
      <trkpt lat="40.448928" lon="-2.762848">
        <ele>960.4</ele>
        <time>2015-02-22T08:10:47Z</time>
      </trkpt>
      <trkpt lat="40.449004" lon="-2.762951">
        <ele>959.2</ele>
        <time>2015-02-22T08:10:49Z</time>
      </trkpt>
      <trkpt lat="40.449072" lon="-2.763063">
        <ele>957.5</ele>
        <time>2015-02-22T08:10:51Z</time>
      </trkpt>
      <trkpt lat="40.449155" lon="-2.763158">
        <ele>956.8</ele>
        <time>2015-02-22T08:10:53Z</time>
      </trkpt>
      <trkpt lat="40.449244" lon="-2.763250">
        <ele>955.7</ele>
        <time>2015-02-22T08:10:55Z</time>
      </trkpt>
      <trkpt lat="40.449359" lon="-2.763328">
        <ele>955.5</ele>
        <time>2015-02-22T08:10:57Z</time>
      </trkpt>
      <trkpt lat="40.449475" lon="-2.763386">
        <ele>955.9</ele>
        <time>2015-02-22T08:10:59Z</time>
      </trkpt>
      <trkpt lat="40.449582" lon="-2.763462">
        <ele>955.3</ele>
        <time>2015-02-22T08:11:01Z</time>
      </trkpt>
      <trkpt lat="40.449699" lon="-2.763521">
        <ele>955.1</ele>
        <time>2015-02-22T08:11:03Z</time>
      </trkpt>
      <trkpt lat="40.449805" lon="-2.763573">
        <ele>955.2</ele>
        <time>2015-02-22T08:11:05Z</time>
      </trkpt>
      <trkpt lat="40.449904" lon="-2.763615">
        <ele>955.5</ele>
        <time>2015-02-22T08:11:07Z</time>
      </trkpt>
      <trkpt lat="40.449994" lon="-2.763641">
        <ele>956.0</ele>
        <time>2015-02-22T08:11:09Z</time>
      </trkpt>
      <trkpt lat="40.450083" lon="-2.763673">
        <ele>955.2</ele>
        <time>2015-02-22T08:11:11Z</time>
      </trkpt>
      <trkpt lat="40.450170" lon="-2.763710">
        <ele>953.8</ele>
        <time>2015-02-22T08:11:13Z</time>
      </trkpt>
      <trkpt lat="40.450264" lon="-2.763750">
        <ele>952.5</ele>
        <time>2015-02-22T08:11:15Z</time>
      </trkpt>
      <trkpt lat="40.450370" lon="-2.763813">
        <ele>950.4</ele>
        <time>2015-02-22T08:11:17Z</time>
      </trkpt>
      <trkpt lat="40.450485" lon="-2.763903">
        <ele>947.7</ele>
        <time>2015-02-22T08:11:19Z</time>
      </trkpt>
      <trkpt lat="40.450587" lon="-2.764019">
        <ele>944.4</ele>
        <time>2015-02-22T08:11:21Z</time>
      </trkpt>
      <trkpt lat="40.450692" lon="-2.764128">
        <ele>941.6</ele>
        <time>2015-02-22T08:11:23Z</time>
      </trkpt>
      <trkpt lat="40.450797" lon="-2.764222">
        <ele>938.1</ele>
        <time>2015-02-22T08:11:25Z</time>
      </trkpt>
      <trkpt lat="40.450919" lon="-2.764306">
        <ele>934.1</ele>
        <time>2015-02-22T08:11:27Z</time>
      </trkpt>
      <trkpt lat="40.451042" lon="-2.764391">
        <ele>929.1</ele>
        <time>2015-02-22T08:11:29Z</time>
      </trkpt>
      <trkpt lat="40.451162" lon="-2.764457">
        <ele>925.3</ele>
        <time>2015-02-22T08:11:31Z</time>
      </trkpt>
      <trkpt lat="40.451275" lon="-2.764490">
        <ele>923.3</ele>
        <time>2015-02-22T08:11:33Z</time>
      </trkpt>
      <trkpt lat="40.451364" lon="-2.764523">
        <ele>921.0</ele>
        <time>2015-02-22T08:11:37Z</time>
      </trkpt>
      <trkpt lat="40.451450" lon="-2.764482">
        <ele>921.6</ele>
        <time>2015-02-22T08:12:25Z</time>
      </trkpt>
      <trkpt lat="40.451547" lon="-2.764465">
        <ele>921.7</ele>
        <time>2015-02-22T08:12:29Z</time>
      </trkpt>
      <trkpt lat="40.451647" lon="-2.764435">
        <ele>921.7</ele>
        <time>2015-02-22T08:12:33Z</time>
      </trkpt>
      <trkpt lat="40.451753" lon="-2.764408">
        <ele>920.9</ele>
        <time>2015-02-22T08:12:37Z</time>
      </trkpt>
      <trkpt lat="40.451862" lon="-2.764358">
        <ele>920.9</ele>
        <time>2015-02-22T08:12:41Z</time>
      </trkpt>
      <trkpt lat="40.451952" lon="-2.764305">
        <ele>921.2</ele>
        <time>2015-02-22T08:12:45Z</time>
      </trkpt>
      <trkpt lat="40.452032" lon="-2.764228">
        <ele>922.6</ele>
        <time>2015-02-22T08:12:49Z</time>
      </trkpt>
      <trkpt lat="40.452100" lon="-2.764140">
        <ele>924.4</ele>
        <time>2015-02-22T08:12:54Z</time>
      </trkpt>
      <trkpt lat="40.452157" lon="-2.764043">
        <ele>926.2</ele>
        <time>2015-02-22T08:12:59Z</time>
      </trkpt>
      <trkpt lat="40.452218" lon="-2.763943">
        <ele>928.4</ele>
        <time>2015-02-22T08:13:05Z</time>
      </trkpt>
      <trkpt lat="40.452303" lon="-2.763873">
        <ele>929.3</ele>
        <time>2015-02-22T08:13:11Z</time>
      </trkpt>
      <trkpt lat="40.452392" lon="-2.763840">
        <ele>929.3</ele>
        <time>2015-02-22T08:13:16Z</time>
      </trkpt>
      <trkpt lat="40.452490" lon="-2.763770">
        <ele>930.2</ele>
        <time>2015-02-22T08:13:21Z</time>
      </trkpt>
      <trkpt lat="40.452563" lon="-2.763694">
        <ele>933.2</ele>
        <time>2015-02-22T08:13:25Z</time>
      </trkpt>
      <trkpt lat="40.452640" lon="-2.763603">
        <ele>936.7</ele>
        <time>2015-02-22T08:13:29Z</time>
      </trkpt>
      <trkpt lat="40.452752" lon="-2.763542">
        <ele>939.5</ele>
        <time>2015-02-22T08:13:33Z</time>
      </trkpt>
      <trkpt lat="40.452855" lon="-2.763478">
        <ele>942.2</ele>
        <time>2015-02-22T08:13:37Z</time>
      </trkpt>
      <trkpt lat="40.452944" lon="-2.763403">
        <ele>944.7</ele>
        <time>2015-02-22T08:13:41Z</time>
      </trkpt>
      <trkpt lat="40.453032" lon="-2.763357">
        <ele>946.8</ele>
        <time>2015-02-22T08:13:45Z</time>
      </trkpt>
      <trkpt lat="40.453122" lon="-2.763342">
        <ele>947.6</ele>
        <time>2015-02-22T08:13:48Z</time>
      </trkpt>
      <trkpt lat="40.453215" lon="-2.763327">
        <ele>948.4</ele>
        <time>2015-02-22T08:13:51Z</time>
      </trkpt>
      <trkpt lat="40.453307" lon="-2.763308">
        <ele>949.6</ele>
        <time>2015-02-22T08:13:54Z</time>
      </trkpt>
      <trkpt lat="40.453403" lon="-2.763308">
        <ele>951.2</ele>
        <time>2015-02-22T08:13:57Z</time>
      </trkpt>
      <trkpt lat="40.453515" lon="-2.763290">
        <ele>953.8</ele>
        <time>2015-02-22T08:14:01Z</time>
      </trkpt>
      <trkpt lat="40.453619" lon="-2.763265">
        <ele>956.6</ele>
        <time>2015-02-22T08:14:05Z</time>
      </trkpt>
      <trkpt lat="40.453724" lon="-2.763275">
        <ele>958.4</ele>
        <time>2015-02-22T08:14:10Z</time>
      </trkpt>
      <trkpt lat="40.453820" lon="-2.763260">
        <ele>960.8</ele>
        <time>2015-02-22T08:14:15Z</time>
      </trkpt>
      <trkpt lat="40.453915" lon="-2.763240">
        <ele>963.5</ele>
        <time>2015-02-22T08:14:20Z</time>
      </trkpt>
      <trkpt lat="40.454020" lon="-2.763227">
        <ele>966.1</ele>
        <time>2015-02-22T08:14:25Z</time>
      </trkpt>
      <trkpt lat="40.454122" lon="-2.763268">
        <ele>967.0</ele>
        <time>2015-02-22T08:14:30Z</time>
      </trkpt>
      <trkpt lat="40.454212" lon="-2.763295">
        <ele>968.0</ele>
        <time>2015-02-22T08:14:34Z</time>
      </trkpt>
      <trkpt lat="40.454320" lon="-2.763323">
        <ele>968.9</ele>
        <time>2015-02-22T08:14:39Z</time>
      </trkpt>
      <trkpt lat="40.454425" lon="-2.763350">
        <ele>970.3</ele>
        <time>2015-02-22T08:14:44Z</time>
      </trkpt>
      <trkpt lat="40.454527" lon="-2.763380">
        <ele>971.6</ele>
        <time>2015-02-22T08:14:49Z</time>
      </trkpt>
      <trkpt lat="40.454629" lon="-2.763405">
        <ele>972.9</ele>
        <time>2015-02-22T08:14:55Z</time>
      </trkpt>
      <trkpt lat="40.454719" lon="-2.763430">
        <ele>974.0</ele>
        <time>2015-02-22T08:15:00Z</time>
      </trkpt>
      <trkpt lat="40.454809" lon="-2.763453">
        <ele>975.2</ele>
        <time>2015-02-22T08:15:05Z</time>
      </trkpt>
      <trkpt lat="40.454900" lon="-2.763465">
        <ele>977.1</ele>
        <time>2015-02-22T08:15:11Z</time>
      </trkpt>
      <trkpt lat="40.455000" lon="-2.763472">
        <ele>978.7</ele>
        <time>2015-02-22T08:15:17Z</time>
      </trkpt>
      <trkpt lat="40.455095" lon="-2.763493">
        <ele>976.3</ele>
        <time>2015-02-22T08:15:25Z</time>
      </trkpt>
      <trkpt lat="40.455187" lon="-2.763533">
        <ele>973.5</ele>
        <time>2015-02-22T08:15:32Z</time>
      </trkpt>
      <trkpt lat="40.455272" lon="-2.763588">
        <ele>970.5</ele>
        <time>2015-02-22T08:15:40Z</time>
      </trkpt>
      <trkpt lat="40.455352" lon="-2.763658">
        <ele>967.3</ele>
        <time>2015-02-22T08:15:48Z</time>
      </trkpt>
      <trkpt lat="40.455433" lon="-2.763726">
        <ele>963.5</ele>
        <time>2015-02-22T08:15:56Z</time>
      </trkpt>
      <trkpt lat="40.455520" lon="-2.763790">
        <ele>960.2</ele>
        <time>2015-02-22T08:16:04Z</time>
      </trkpt>
      <trkpt lat="40.455589" lon="-2.763875">
        <ele>956.1</ele>
        <time>2015-02-22T08:16:10Z</time>
      </trkpt>
      <trkpt lat="40.455658" lon="-2.763973">
        <ele>951.9</ele>
        <time>2015-02-22T08:16:17Z</time>
      </trkpt>
      <trkpt lat="40.455749" lon="-2.764028">
        <ele>947.9</ele>
        <time>2015-02-22T08:16:23Z</time>
      </trkpt>
      <trkpt lat="40.455793" lon="-2.763910">
        <ele>950.3</ele>
        <time>2015-02-22T08:16:32Z</time>
      </trkpt>
      <trkpt lat="40.455780" lon="-2.763780">
        <ele>954.5</ele>
        <time>2015-02-22T08:16:40Z</time>
      </trkpt>
      <trkpt lat="40.455793" lon="-2.763660">
        <ele>958.0</ele>
        <time>2015-02-22T08:16:47Z</time>
      </trkpt>
      <trkpt lat="40.455815" lon="-2.763543">
        <ele>961.1</ele>
        <time>2015-02-22T08:16:53Z</time>
      </trkpt>
      <trkpt lat="40.455845" lon="-2.763427">
        <ele>964.2</ele>
        <time>2015-02-22T08:17:00Z</time>
      </trkpt>
      <trkpt lat="40.455891" lon="-2.763315">
        <ele>967.3</ele>
        <time>2015-02-22T08:17:07Z</time>
      </trkpt>
      <trkpt lat="40.455937" lon="-2.763205">
        <ele>971.7</ele>
        <time>2015-02-22T08:17:14Z</time>
      </trkpt>
      <trkpt lat="40.455988" lon="-2.763102">
        <ele>975.0</ele>
        <time>2015-02-22T08:17:21Z</time>
      </trkpt>
      <trkpt lat="40.456050" lon="-2.762998">
        <ele>978.6</ele>
        <time>2015-02-22T08:17:28Z</time>
      </trkpt>
      <trkpt lat="40.456115" lon="-2.762912">
        <ele>981.6</ele>
        <time>2015-02-22T08:17:34Z</time>
      </trkpt>
      <trkpt lat="40.456198" lon="-2.762831">
        <ele>984.0</ele>
        <time>2015-02-22T08:17:41Z</time>
      </trkpt>
      <trkpt lat="40.456284" lon="-2.762760">
        <ele>986.2</ele>
        <time>2015-02-22T08:17:48Z</time>
      </trkpt>
      <trkpt lat="40.456375" lon="-2.762695">
        <ele>987.8</ele>
        <time>2015-02-22T08:17:55Z</time>
      </trkpt>
      <trkpt lat="40.456465" lon="-2.762638">
        <ele>988.9</ele>
        <time>2015-02-22T08:18:02Z</time>
      </trkpt>
      <trkpt lat="40.456557" lon="-2.762582">
        <ele>989.9</ele>
        <time>2015-02-22T08:18:09Z</time>
      </trkpt>
      <trkpt lat="40.456644" lon="-2.762535">
        <ele>990.9</ele>
        <time>2015-02-22T08:18:15Z</time>
      </trkpt>
      <trkpt lat="40.456732" lon="-2.762481">
        <ele>990.4</ele>
        <time>2015-02-22T08:18:21Z</time>
      </trkpt>
      <trkpt lat="40.456825" lon="-2.762437">
        <ele>988.8</ele>
        <time>2015-02-22T08:18:27Z</time>
      </trkpt>
      <trkpt lat="40.456917" lon="-2.762378">
        <ele>987.3</ele>
        <time>2015-02-22T08:18:33Z</time>
      </trkpt>
      <trkpt lat="40.457005" lon="-2.762313">
        <ele>986.1</ele>
        <time>2015-02-22T08:18:39Z</time>
      </trkpt>
      <trkpt lat="40.457100" lon="-2.762248">
        <ele>984.7</ele>
        <time>2015-02-22T08:18:45Z</time>
      </trkpt>
      <trkpt lat="40.457182" lon="-2.762193">
        <ele>983.3</ele>
        <time>2015-02-22T08:18:50Z</time>
      </trkpt>
      <trkpt lat="40.457269" lon="-2.762148">
        <ele>981.9</ele>
        <time>2015-02-22T08:18:55Z</time>
      </trkpt>
      <trkpt lat="40.457357" lon="-2.762098">
        <ele>980.4</ele>
        <time>2015-02-22T08:19:00Z</time>
      </trkpt>
      <trkpt lat="40.457453" lon="-2.762046">
        <ele>978.6</ele>
        <time>2015-02-22T08:19:06Z</time>
      </trkpt>
      <trkpt lat="40.457542" lon="-2.761980">
        <ele>977.2</ele>
        <time>2015-02-22T08:19:12Z</time>
      </trkpt>
      <trkpt lat="40.457622" lon="-2.761912">
        <ele>975.6</ele>
        <time>2015-02-22T08:19:18Z</time>
      </trkpt>
      <trkpt lat="40.457700" lon="-2.761833">
        <ele>974.5</ele>
        <time>2015-02-22T08:19:24Z</time>
      </trkpt>
      <trkpt lat="40.457764" lon="-2.761743">
        <ele>974.2</ele>
        <time>2015-02-22T08:19:30Z</time>
      </trkpt>
      <trkpt lat="40.457807" lon="-2.761637">
        <ele>974.7</ele>
        <time>2015-02-22T08:19:36Z</time>
      </trkpt>
      <trkpt lat="40.457857" lon="-2.761516">
        <ele>974.9</ele>
        <time>2015-02-22T08:19:42Z</time>
      </trkpt>
      <trkpt lat="40.457890" lon="-2.761381">
        <ele>976.1</ele>
        <time>2015-02-22T08:19:47Z</time>
      </trkpt>
      <trkpt lat="40.457917" lon="-2.761248">
        <ele>977.2</ele>
        <time>2015-02-22T08:19:51Z</time>
      </trkpt>
      <trkpt lat="40.457933" lon="-2.761112">
        <ele>978.7</ele>
        <time>2015-02-22T08:19:55Z</time>
      </trkpt>
      <trkpt lat="40.457937" lon="-2.760960">
        <ele>981.1</ele>
        <time>2015-02-22T08:19:59Z</time>
      </trkpt>
      <trkpt lat="40.457912" lon="-2.760800">
        <ele>984.3</ele>
        <time>2015-02-22T08:20:02Z</time>
      </trkpt>
      <trkpt lat="40.457877" lon="-2.760672">
        <ele>986.4</ele>
        <time>2015-02-22T08:20:04Z</time>
      </trkpt>
      <trkpt lat="40.457824" lon="-2.760537">
        <ele>989.0</ele>
        <time>2015-02-22T08:20:06Z</time>
      </trkpt>
      <trkpt lat="40.457752" lon="-2.760386">
        <ele>992.1</ele>
        <time>2015-02-22T08:20:08Z</time>
      </trkpt>
      <trkpt lat="40.457667" lon="-2.760222">
        <ele>995.2</ele>
        <time>2015-02-22T08:20:10Z</time>
      </trkpt>
      <trkpt lat="40.457570" lon="-2.760038">
        <ele>998.1</ele>
        <time>2015-02-22T08:20:12Z</time>
      </trkpt>
      <trkpt lat="40.457473" lon="-2.759846">
        <ele>1000.3</ele>
        <time>2015-02-22T08:20:14Z</time>
      </trkpt>
      <trkpt lat="40.457384" lon="-2.759660">
        <ele>1001.2</ele>
        <time>2015-02-22T08:20:16Z</time>
      </trkpt>
      <trkpt lat="40.457307" lon="-2.759478">
        <ele>1001.7</ele>
        <time>2015-02-22T08:20:18Z</time>
      </trkpt>
      <trkpt lat="40.457238" lon="-2.759307">
        <ele>1001.9</ele>
        <time>2015-02-22T08:20:20Z</time>
      </trkpt>
      <trkpt lat="40.457195" lon="-2.759150">
        <ele>1001.8</ele>
        <time>2015-02-22T08:20:22Z</time>
      </trkpt>
      <trkpt lat="40.457198" lon="-2.759001">
        <ele>1001.6</ele>
        <time>2015-02-22T08:20:24Z</time>
      </trkpt>
      <trkpt lat="40.457259" lon="-2.758872">
        <ele>1001.2</ele>
        <time>2015-02-22T08:20:26Z</time>
      </trkpt>
      <trkpt lat="40.457353" lon="-2.758767">
        <ele>1001.1</ele>
        <time>2015-02-22T08:20:28Z</time>
      </trkpt>
      <trkpt lat="40.457463" lon="-2.758652">
        <ele>1001.2</ele>
        <time>2015-02-22T08:20:30Z</time>
      </trkpt>
      <trkpt lat="40.457584" lon="-2.758537">
        <ele>1001.0</ele>
        <time>2015-02-22T08:20:32Z</time>
      </trkpt>
      <trkpt lat="40.457705" lon="-2.758412">
        <ele>1000.8</ele>
        <time>2015-02-22T08:20:34Z</time>
      </trkpt>
      <trkpt lat="40.457830" lon="-2.758282">
        <ele>999.8</ele>
        <time>2015-02-22T08:20:36Z</time>
      </trkpt>
      <trkpt lat="40.457964" lon="-2.758153">
        <ele>997.8</ele>
        <time>2015-02-22T08:20:38Z</time>
      </trkpt>
      <trkpt lat="40.458095" lon="-2.758023">
        <ele>996.1</ele>
        <time>2015-02-22T08:20:40Z</time>
      </trkpt>
      <trkpt lat="40.458216" lon="-2.757893">
        <ele>994.6</ele>
        <time>2015-02-22T08:20:42Z</time>
      </trkpt>
      <trkpt lat="40.458328" lon="-2.757752">
        <ele>993.2</ele>
        <time>2015-02-22T08:20:44Z</time>
      </trkpt>
      <trkpt lat="40.458470" lon="-2.757610">
        <ele>988.8</ele>
        <time>2015-02-22T08:20:46Z</time>
      </trkpt>
      <trkpt lat="40.458557" lon="-2.757547">
        <ele>986.3</ele>
        <time>2015-02-22T08:20:47Z</time>
      </trkpt>
      <trkpt lat="40.458648" lon="-2.757488">
        <ele>983.6</ele>
        <time>2015-02-22T08:20:48Z</time>
      </trkpt>
      <trkpt lat="40.458735" lon="-2.757437">
        <ele>981.2</ele>
        <time>2015-02-22T08:20:49Z</time>
      </trkpt>
      <trkpt lat="40.458898" lon="-2.757342">
        <ele>977.1</ele>
        <time>2015-02-22T08:20:51Z</time>
      </trkpt>
      <trkpt lat="40.458982" lon="-2.757297">
        <ele>975.2</ele>
        <time>2015-02-22T08:20:52Z</time>
      </trkpt>
      <trkpt lat="40.459065" lon="-2.757251">
        <ele>973.5</ele>
        <time>2015-02-22T08:20:53Z</time>
      </trkpt>
      <trkpt lat="40.459148" lon="-2.757200">
        <ele>971.9</ele>
        <time>2015-02-22T08:20:54Z</time>
      </trkpt>
      <trkpt lat="40.459227" lon="-2.757135">
        <ele>970.1</ele>
        <time>2015-02-22T08:20:55Z</time>
      </trkpt>
      <trkpt lat="40.459302" lon="-2.757058">
        <ele>968.4</ele>
        <time>2015-02-22T08:20:56Z</time>
      </trkpt>
      <trkpt lat="40.459372" lon="-2.756975">
        <ele>967.2</ele>
        <time>2015-02-22T08:20:57Z</time>
      </trkpt>
      <trkpt lat="40.459437" lon="-2.756888">
        <ele>966.3</ele>
        <time>2015-02-22T08:20:58Z</time>
      </trkpt>
      <trkpt lat="40.459505" lon="-2.756798">
        <ele>965.7</ele>
        <time>2015-02-22T08:20:59Z</time>
      </trkpt>
      <trkpt lat="40.459577" lon="-2.756703">
        <ele>965.3</ele>
        <time>2015-02-22T08:21:00Z</time>
      </trkpt>
      <trkpt lat="40.459657" lon="-2.756610">
        <ele>964.6</ele>
        <time>2015-02-22T08:21:01Z</time>
      </trkpt>
      <trkpt lat="40.459742" lon="-2.756522">
        <ele>963.8</ele>
        <time>2015-02-22T08:21:02Z</time>
      </trkpt>
      <trkpt lat="40.459832" lon="-2.756441">
        <ele>963.2</ele>
        <time>2015-02-22T08:21:03Z</time>
      </trkpt>
      <trkpt lat="40.459922" lon="-2.756366">
        <ele>962.8</ele>
        <time>2015-02-22T08:21:04Z</time>
      </trkpt>
      <trkpt lat="40.460012" lon="-2.756293">
        <ele>962.8</ele>
        <time>2015-02-22T08:21:05Z</time>
      </trkpt>
      <trkpt lat="40.460102" lon="-2.756213">
        <ele>964.9</ele>
        <time>2015-02-22T08:21:06Z</time>
      </trkpt>
      <trkpt lat="40.460189" lon="-2.756121">
        <ele>966.8</ele>
        <time>2015-02-22T08:21:07Z</time>
      </trkpt>
      <trkpt lat="40.460274" lon="-2.756020">
        <ele>968.6</ele>
        <time>2015-02-22T08:21:08Z</time>
      </trkpt>
      <trkpt lat="40.460357" lon="-2.755910">
        <ele>970.4</ele>
        <time>2015-02-22T08:21:09Z</time>
      </trkpt>
      <trkpt lat="40.460439" lon="-2.755798">
        <ele>972.0</ele>
        <time>2015-02-22T08:21:10Z</time>
      </trkpt>
      <trkpt lat="40.460524" lon="-2.755690">
        <ele>973.9</ele>
        <time>2015-02-22T08:21:11Z</time>
      </trkpt>
      <trkpt lat="40.460614" lon="-2.755595">
        <ele>975.9</ele>
        <time>2015-02-22T08:21:12Z</time>
      </trkpt>
      <trkpt lat="40.460707" lon="-2.755515">
        <ele>977.8</ele>
        <time>2015-02-22T08:21:13Z</time>
      </trkpt>
      <trkpt lat="40.460805" lon="-2.755453">
        <ele>979.8</ele>
        <time>2015-02-22T08:21:14Z</time>
      </trkpt>
      <trkpt lat="40.460903" lon="-2.755407">
        <ele>981.6</ele>
        <time>2015-02-22T08:21:15Z</time>
      </trkpt>
      <trkpt lat="40.460998" lon="-2.755371">
        <ele>983.3</ele>
        <time>2015-02-22T08:21:16Z</time>
      </trkpt>
      <trkpt lat="40.461167" lon="-2.755338">
        <ele>986.0</ele>
        <time>2015-02-22T08:21:18Z</time>
      </trkpt>
      <trkpt lat="40.461305" lon="-2.755340">
        <ele>988.0</ele>
        <time>2015-02-22T08:21:20Z</time>
      </trkpt>
      <trkpt lat="40.461407" lon="-2.755353">
        <ele>989.4</ele>
        <time>2015-02-22T08:21:22Z</time>
      </trkpt>
      <trkpt lat="40.461529" lon="-2.755385">
        <ele>991.0</ele>
        <time>2015-02-22T08:21:25Z</time>
      </trkpt>
      <trkpt lat="40.461639" lon="-2.755418">
        <ele>992.6</ele>
        <time>2015-02-22T08:21:28Z</time>
      </trkpt>
      <trkpt lat="40.461740" lon="-2.755461">
        <ele>993.9</ele>
        <time>2015-02-22T08:21:31Z</time>
      </trkpt>
      <trkpt lat="40.461842" lon="-2.755505">
        <ele>995.3</ele>
        <time>2015-02-22T08:21:34Z</time>
      </trkpt>
      <trkpt lat="40.461938" lon="-2.755543">
        <ele>996.5</ele>
        <time>2015-02-22T08:21:37Z</time>
      </trkpt>
      <trkpt lat="40.462033" lon="-2.755630">
        <ele>997.5</ele>
        <time>2015-02-22T08:21:41Z</time>
      </trkpt>
      <trkpt lat="40.462074" lon="-2.755740">
        <ele>997.7</ele>
        <time>2015-02-22T08:21:45Z</time>
      </trkpt>
      <trkpt lat="40.462057" lon="-2.755875">
        <ele>996.9</ele>
        <time>2015-02-22T08:21:50Z</time>
      </trkpt>
      <trkpt lat="40.462008" lon="-2.756003">
        <ele>995.7</ele>
        <time>2015-02-22T08:21:55Z</time>
      </trkpt>
      <trkpt lat="40.461982" lon="-2.756116">
        <ele>994.8</ele>
        <time>2015-02-22T08:21:59Z</time>
      </trkpt>
      <trkpt lat="40.461975" lon="-2.756251">
        <ele>994.1</ele>
        <time>2015-02-22T08:22:04Z</time>
      </trkpt>
      <trkpt lat="40.462027" lon="-2.756358">
        <ele>994.2</ele>
        <time>2015-02-22T08:22:09Z</time>
      </trkpt>
      <trkpt lat="40.462115" lon="-2.756424">
        <ele>995.1</ele>
        <time>2015-02-22T08:22:14Z</time>
      </trkpt>
      <trkpt lat="40.462217" lon="-2.756448">
        <ele>996.3</ele>
        <time>2015-02-22T08:22:19Z</time>
      </trkpt>
      <trkpt lat="40.462317" lon="-2.756466">
        <ele>997.5</ele>
        <time>2015-02-22T08:22:24Z</time>
      </trkpt>
      <trkpt lat="40.462422" lon="-2.756463">
        <ele>998.9</ele>
        <time>2015-02-22T08:22:29Z</time>
      </trkpt>
      <trkpt lat="40.462534" lon="-2.756451">
        <ele>1000.1</ele>
        <time>2015-02-22T08:22:34Z</time>
      </trkpt>
      <trkpt lat="40.462637" lon="-2.756433">
        <ele>1000.5</ele>
        <time>2015-02-22T08:22:39Z</time>
      </trkpt>
      <trkpt lat="40.462738" lon="-2.756424">
        <ele>1000.8</ele>
        <time>2015-02-22T08:22:44Z</time>
      </trkpt>
      <trkpt lat="40.462847" lon="-2.756450">
        <ele>1000.9</ele>
        <time>2015-02-22T08:22:49Z</time>
      </trkpt>
      <trkpt lat="40.462935" lon="-2.756478">
        <ele>1001.0</ele>
        <time>2015-02-22T08:22:53Z</time>
      </trkpt>
      <trkpt lat="40.463038" lon="-2.756522">
        <ele>1001.1</ele>
        <time>2015-02-22T08:22:58Z</time>
      </trkpt>
      <trkpt lat="40.463135" lon="-2.756560">
        <ele>1001.1</ele>
        <time>2015-02-22T08:23:03Z</time>
      </trkpt>
      <trkpt lat="40.463232" lon="-2.756593">
        <ele>1001.1</ele>
        <time>2015-02-22T08:23:08Z</time>
      </trkpt>
      <trkpt lat="40.463334" lon="-2.756613">
        <ele>1001.3</ele>
        <time>2015-02-22T08:23:13Z</time>
      </trkpt>
      <trkpt lat="40.463442" lon="-2.756616">
        <ele>1000.8</ele>
        <time>2015-02-22T08:23:18Z</time>
      </trkpt>
      <trkpt lat="40.463534" lon="-2.756618">
        <ele>1000.3</ele>
        <time>2015-02-22T08:23:22Z</time>
      </trkpt>
      <trkpt lat="40.463637" lon="-2.756627">
        <ele>999.8</ele>
        <time>2015-02-22T08:23:26Z</time>
      </trkpt>
      <trkpt lat="40.463754" lon="-2.756627">
        <ele>999.2</ele>
        <time>2015-02-22T08:23:30Z</time>
      </trkpt>
      <trkpt lat="40.463854" lon="-2.756622">
        <ele>998.8</ele>
        <time>2015-02-22T08:23:33Z</time>
      </trkpt>
      <trkpt lat="40.463960" lon="-2.756596">
        <ele>998.4</ele>
        <time>2015-02-22T08:23:36Z</time>
      </trkpt>
      <trkpt lat="40.464072" lon="-2.756543">
        <ele>998.3</ele>
        <time>2015-02-22T08:23:39Z</time>
      </trkpt>
      <trkpt lat="40.464175" lon="-2.756456">
        <ele>998.4</ele>
        <time>2015-02-22T08:23:42Z</time>
      </trkpt>
      <trkpt lat="40.464258" lon="-2.756336">
        <ele>998.4</ele>
        <time>2015-02-22T08:23:45Z</time>
      </trkpt>
      <trkpt lat="40.464322" lon="-2.756193">
        <ele>998.7</ele>
        <time>2015-02-22T08:23:48Z</time>
      </trkpt>
      <trkpt lat="40.464373" lon="-2.756045">
        <ele>999.0</ele>
        <time>2015-02-22T08:23:51Z</time>
      </trkpt>
      <trkpt lat="40.464425" lon="-2.755888">
        <ele>999.5</ele>
        <time>2015-02-22T08:23:54Z</time>
      </trkpt>
      <trkpt lat="40.464467" lon="-2.755776">
        <ele>999.5</ele>
        <time>2015-02-22T08:23:56Z</time>
      </trkpt>
      <trkpt lat="40.464514" lon="-2.755668">
        <ele>999.4</ele>
        <time>2015-02-22T08:23:58Z</time>
      </trkpt>
      <trkpt lat="40.464572" lon="-2.755571">
        <ele>999.2</ele>
        <time>2015-02-22T08:24:00Z</time>
      </trkpt>
      <trkpt lat="40.464640" lon="-2.755488">
        <ele>998.9</ele>
        <time>2015-02-22T08:24:02Z</time>
      </trkpt>
      <trkpt lat="40.464720" lon="-2.755410">
        <ele>998.5</ele>
        <time>2015-02-22T08:24:04Z</time>
      </trkpt>
      <trkpt lat="40.464813" lon="-2.755335">
        <ele>998.1</ele>
        <time>2015-02-22T08:24:06Z</time>
      </trkpt>
      <trkpt lat="40.464917" lon="-2.755263">
        <ele>997.7</ele>
        <time>2015-02-22T08:24:08Z</time>
      </trkpt>
      <trkpt lat="40.465032" lon="-2.755188">
        <ele>997.6</ele>
        <time>2015-02-22T08:24:10Z</time>
      </trkpt>
      <trkpt lat="40.465150" lon="-2.755103">
        <ele>998.2</ele>
        <time>2015-02-22T08:24:12Z</time>
      </trkpt>
      <trkpt lat="40.465273" lon="-2.754998">
        <ele>998.7</ele>
        <time>2015-02-22T08:24:14Z</time>
      </trkpt>
      <trkpt lat="40.465395" lon="-2.754876">
        <ele>998.5</ele>
        <time>2015-02-22T08:24:16Z</time>
      </trkpt>
      <trkpt lat="40.465525" lon="-2.754755">
        <ele>998.4</ele>
        <time>2015-02-22T08:24:18Z</time>
      </trkpt>
      <trkpt lat="40.465670" lon="-2.754671">
        <ele>998.2</ele>
        <time>2015-02-22T08:24:20Z</time>
      </trkpt>
      <trkpt lat="40.465814" lon="-2.754632">
        <ele>998.0</ele>
        <time>2015-02-22T08:24:22Z</time>
      </trkpt>
      <trkpt lat="40.465942" lon="-2.754608">
        <ele>998.6</ele>
        <time>2015-02-22T08:24:24Z</time>
      </trkpt>
      <trkpt lat="40.466068" lon="-2.754576">
        <ele>999.3</ele>
        <time>2015-02-22T08:24:26Z</time>
      </trkpt>
      <trkpt lat="40.466190" lon="-2.754538">
        <ele>999.9</ele>
        <time>2015-02-22T08:24:28Z</time>
      </trkpt>
      <trkpt lat="40.466310" lon="-2.754493">
        <ele>1000.4</ele>
        <time>2015-02-22T08:24:30Z</time>
      </trkpt>
      <trkpt lat="40.466425" lon="-2.754451">
        <ele>1000.9</ele>
        <time>2015-02-22T08:24:32Z</time>
      </trkpt>
      <trkpt lat="40.466539" lon="-2.754412">
        <ele>1001.3</ele>
        <time>2015-02-22T08:24:34Z</time>
      </trkpt>
      <trkpt lat="40.466652" lon="-2.754366">
        <ele>1001.7</ele>
        <time>2015-02-22T08:24:36Z</time>
      </trkpt>
      <trkpt lat="40.466760" lon="-2.754328">
        <ele>1000.0</ele>
        <time>2015-02-22T08:24:38Z</time>
      </trkpt>
      <trkpt lat="40.466860" lon="-2.754297">
        <ele>998.0</ele>
        <time>2015-02-22T08:24:40Z</time>
      </trkpt>
      <trkpt lat="40.466957" lon="-2.754265">
        <ele>996.2</ele>
        <time>2015-02-22T08:24:42Z</time>
      </trkpt>
      <trkpt lat="40.467053" lon="-2.754241">
        <ele>994.2</ele>
        <time>2015-02-22T08:24:44Z</time>
      </trkpt>
      <trkpt lat="40.467150" lon="-2.754216">
        <ele>992.2</ele>
        <time>2015-02-22T08:24:46Z</time>
      </trkpt>
      <trkpt lat="40.467244" lon="-2.754178">
        <ele>990.0</ele>
        <time>2015-02-22T08:24:48Z</time>
      </trkpt>
      <trkpt lat="40.467334" lon="-2.754103">
        <ele>988.1</ele>
        <time>2015-02-22T08:24:50Z</time>
      </trkpt>
      <trkpt lat="40.467434" lon="-2.753990">
        <ele>986.3</ele>
        <time>2015-02-22T08:24:52Z</time>
      </trkpt>
      <trkpt lat="40.467549" lon="-2.753855">
        <ele>984.2</ele>
        <time>2015-02-22T08:24:54Z</time>
      </trkpt>
      <trkpt lat="40.467670" lon="-2.753703">
        <ele>981.1</ele>
        <time>2015-02-22T08:24:56Z</time>
      </trkpt>
      <trkpt lat="40.467784" lon="-2.753531">
        <ele>978.1</ele>
        <time>2015-02-22T08:24:58Z</time>
      </trkpt>
      <trkpt lat="40.467885" lon="-2.753338">
        <ele>974.9</ele>
        <time>2015-02-22T08:25:00Z</time>
      </trkpt>
      <trkpt lat="40.467935" lon="-2.753230">
        <ele>973.3</ele>
        <time>2015-02-22T08:25:01Z</time>
      </trkpt>
      <trkpt lat="40.467984" lon="-2.753118">
        <ele>972.0</ele>
        <time>2015-02-22T08:25:02Z</time>
      </trkpt>
      <trkpt lat="40.468034" lon="-2.753000">
        <ele>970.8</ele>
        <time>2015-02-22T08:25:03Z</time>
      </trkpt>
      <trkpt lat="40.468085" lon="-2.752881">
        <ele>969.7</ele>
        <time>2015-02-22T08:25:04Z</time>
      </trkpt>
      <trkpt lat="40.468138" lon="-2.752760">
        <ele>968.8</ele>
        <time>2015-02-22T08:25:05Z</time>
      </trkpt>
      <trkpt lat="40.468195" lon="-2.752640">
        <ele>967.9</ele>
        <time>2015-02-22T08:25:06Z</time>
      </trkpt>
      <trkpt lat="40.468250" lon="-2.752522">
        <ele>967.3</ele>
        <time>2015-02-22T08:25:07Z</time>
      </trkpt>
      <trkpt lat="40.468303" lon="-2.752407">
        <ele>967.0</ele>
        <time>2015-02-22T08:25:08Z</time>
      </trkpt>
      <trkpt lat="40.468352" lon="-2.752298">
        <ele>966.8</ele>
        <time>2015-02-22T08:25:09Z</time>
      </trkpt>
      <trkpt lat="40.468400" lon="-2.752193">
        <ele>966.7</ele>
        <time>2015-02-22T08:25:10Z</time>
      </trkpt>
      <trkpt lat="40.468450" lon="-2.752093">
        <ele>966.8</ele>
        <time>2015-02-22T08:25:11Z</time>
      </trkpt>
      <trkpt lat="40.468508" lon="-2.751995">
        <ele>966.8</ele>
        <time>2015-02-22T08:25:12Z</time>
      </trkpt>
      <trkpt lat="40.468580" lon="-2.751908">
        <ele>966.8</ele>
        <time>2015-02-22T08:25:13Z</time>
      </trkpt>
      <trkpt lat="40.468665" lon="-2.751838">
        <ele>966.7</ele>
        <time>2015-02-22T08:25:14Z</time>
      </trkpt>
      <trkpt lat="40.468758" lon="-2.751778">
        <ele>966.4</ele>
        <time>2015-02-22T08:25:15Z</time>
      </trkpt>
      <trkpt lat="40.468853" lon="-2.751725">
        <ele>966.3</ele>
        <time>2015-02-22T08:25:16Z</time>
      </trkpt>
      <trkpt lat="40.468950" lon="-2.751676">
        <ele>966.3</ele>
        <time>2015-02-22T08:25:17Z</time>
      </trkpt>
      <trkpt lat="40.469047" lon="-2.751628">
        <ele>965.8</ele>
        <time>2015-02-22T08:25:18Z</time>
      </trkpt>
      <trkpt lat="40.469142" lon="-2.751575">
        <ele>965.1</ele>
        <time>2015-02-22T08:25:19Z</time>
      </trkpt>
      <trkpt lat="40.469235" lon="-2.751517">
        <ele>963.7</ele>
        <time>2015-02-22T08:25:20Z</time>
      </trkpt>
      <trkpt lat="40.469323" lon="-2.751451">
        <ele>962.2</ele>
        <time>2015-02-22T08:25:21Z</time>
      </trkpt>
      <trkpt lat="40.469409" lon="-2.751379">
        <ele>960.7</ele>
        <time>2015-02-22T08:25:22Z</time>
      </trkpt>
      <trkpt lat="40.469487" lon="-2.751303">
        <ele>959.5</ele>
        <time>2015-02-22T08:25:23Z</time>
      </trkpt>
      <trkpt lat="40.469560" lon="-2.751223">
        <ele>958.4</ele>
        <time>2015-02-22T08:25:24Z</time>
      </trkpt>
      <trkpt lat="40.469633" lon="-2.751143">
        <ele>957.4</ele>
        <time>2015-02-22T08:25:25Z</time>
      </trkpt>
      <trkpt lat="40.469707" lon="-2.751067">
        <ele>956.5</ele>
        <time>2015-02-22T08:25:26Z</time>
      </trkpt>
      <trkpt lat="40.469785" lon="-2.751001">
        <ele>955.5</ele>
        <time>2015-02-22T08:25:27Z</time>
      </trkpt>
      <trkpt lat="40.469870" lon="-2.750950">
        <ele>954.4</ele>
        <time>2015-02-22T08:25:28Z</time>
      </trkpt>
      <trkpt lat="40.469957" lon="-2.750913">
        <ele>953.3</ele>
        <time>2015-02-22T08:25:29Z</time>
      </trkpt>
      <trkpt lat="40.470119" lon="-2.750863">
        <ele>952.4</ele>
        <time>2015-02-22T08:25:31Z</time>
      </trkpt>
      <trkpt lat="40.470244" lon="-2.750765">
        <ele>952.3</ele>
        <time>2015-02-22T08:25:33Z</time>
      </trkpt>
      <trkpt lat="40.470329" lon="-2.750561">
        <ele>952.8</ele>
        <time>2015-02-22T08:25:35Z</time>
      </trkpt>
      <trkpt lat="40.470377" lon="-2.750451">
        <ele>953.1</ele>
        <time>2015-02-22T08:25:36Z</time>
      </trkpt>
      <trkpt lat="40.470442" lon="-2.750357">
        <ele>953.5</ele>
        <time>2015-02-22T08:25:37Z</time>
      </trkpt>
      <trkpt lat="40.470516" lon="-2.750278">
        <ele>953.8</ele>
        <time>2015-02-22T08:25:38Z</time>
      </trkpt>
      <trkpt lat="40.470599" lon="-2.750216">
        <ele>954.2</ele>
        <time>2015-02-22T08:25:39Z</time>
      </trkpt>
      <trkpt lat="40.470689" lon="-2.750163">
        <ele>954.6</ele>
        <time>2015-02-22T08:25:40Z</time>
      </trkpt>
      <trkpt lat="40.470782" lon="-2.750098">
        <ele>955.2</ele>
        <time>2015-02-22T08:25:41Z</time>
      </trkpt>
      <trkpt lat="40.470868" lon="-2.750008">
        <ele>956.5</ele>
        <time>2015-02-22T08:25:42Z</time>
      </trkpt>
      <trkpt lat="40.470940" lon="-2.749895">
        <ele>959.1</ele>
        <time>2015-02-22T08:25:43Z</time>
      </trkpt>
      <trkpt lat="40.470992" lon="-2.749768">
        <ele>961.4</ele>
        <time>2015-02-22T08:25:44Z</time>
      </trkpt>
      <trkpt lat="40.471029" lon="-2.749643">
        <ele>963.7</ele>
        <time>2015-02-22T08:25:45Z</time>
      </trkpt>
      <trkpt lat="40.471060" lon="-2.749531">
        <ele>965.8</ele>
        <time>2015-02-22T08:25:46Z</time>
      </trkpt>
      <trkpt lat="40.471132" lon="-2.749375">
        <ele>969.1</ele>
        <time>2015-02-22T08:25:48Z</time>
      </trkpt>
      <trkpt lat="40.471225" lon="-2.749330">
        <ele>971.3</ele>
        <time>2015-02-22T08:25:50Z</time>
      </trkpt>
      <trkpt lat="40.471322" lon="-2.749388">
        <ele>972.4</ele>
        <time>2015-02-22T08:25:52Z</time>
      </trkpt>
      <trkpt lat="40.471427" lon="-2.749494">
        <ele>972.8</ele>
        <time>2015-02-22T08:25:54Z</time>
      </trkpt>
      <trkpt lat="40.471550" lon="-2.749621">
        <ele>973.4</ele>
        <time>2015-02-22T08:25:56Z</time>
      </trkpt>
      <trkpt lat="40.471670" lon="-2.749751">
        <ele>973.6</ele>
        <time>2015-02-22T08:25:58Z</time>
      </trkpt>
      <trkpt lat="40.471789" lon="-2.749873">
        <ele>972.3</ele>
        <time>2015-02-22T08:26:00Z</time>
      </trkpt>
      <trkpt lat="40.471897" lon="-2.749986">
        <ele>971.3</ele>
        <time>2015-02-22T08:26:02Z</time>
      </trkpt>
      <trkpt lat="40.471997" lon="-2.750085">
        <ele>969.9</ele>
        <time>2015-02-22T08:26:04Z</time>
      </trkpt>
      <trkpt lat="40.472083" lon="-2.750173">
        <ele>968.6</ele>
        <time>2015-02-22T08:26:06Z</time>
      </trkpt>
      <trkpt lat="40.472163" lon="-2.750252">
        <ele>967.5</ele>
        <time>2015-02-22T08:26:08Z</time>
      </trkpt>
      <trkpt lat="40.472265" lon="-2.750362">
        <ele>966.0</ele>
        <time>2015-02-22T08:26:11Z</time>
      </trkpt>
      <trkpt lat="40.472354" lon="-2.750465">
        <ele>964.4</ele>
        <time>2015-02-22T08:26:14Z</time>
      </trkpt>
      <trkpt lat="40.472438" lon="-2.750565">
        <ele>962.8</ele>
        <time>2015-02-22T08:26:17Z</time>
      </trkpt>
      <trkpt lat="40.472528" lon="-2.750648">
        <ele>961.5</ele>
        <time>2015-02-22T08:26:20Z</time>
      </trkpt>
      <trkpt lat="40.472648" lon="-2.750675">
        <ele>961.0</ele>
        <time>2015-02-22T08:26:23Z</time>
      </trkpt>
      <trkpt lat="40.472748" lon="-2.750678">
        <ele>961.0</ele>
        <time>2015-02-22T08:26:25Z</time>
      </trkpt>
      <trkpt lat="40.472870" lon="-2.750671">
        <ele>961.0</ele>
        <time>2015-02-22T08:26:27Z</time>
      </trkpt>
      <trkpt lat="40.472997" lon="-2.750665">
        <ele>961.1</ele>
        <time>2015-02-22T08:26:29Z</time>
      </trkpt>
      <trkpt lat="40.473119" lon="-2.750661">
        <ele>961.1</ele>
        <time>2015-02-22T08:26:31Z</time>
      </trkpt>
      <trkpt lat="40.473229" lon="-2.750658">
        <ele>961.0</ele>
        <time>2015-02-22T08:26:33Z</time>
      </trkpt>
      <trkpt lat="40.473333" lon="-2.750655">
        <ele>961.0</ele>
        <time>2015-02-22T08:26:35Z</time>
      </trkpt>
      <trkpt lat="40.473435" lon="-2.750650">
        <ele>959.8</ele>
        <time>2015-02-22T08:26:37Z</time>
      </trkpt>
      <trkpt lat="40.473533" lon="-2.750643">
        <ele>958.5</ele>
        <time>2015-02-22T08:26:39Z</time>
      </trkpt>
      <trkpt lat="40.473630" lon="-2.750635">
        <ele>957.4</ele>
        <time>2015-02-22T08:26:41Z</time>
      </trkpt>
      <trkpt lat="40.473722" lon="-2.750633">
        <ele>956.2</ele>
        <time>2015-02-22T08:26:43Z</time>
      </trkpt>
      <trkpt lat="40.473814" lon="-2.750635">
        <ele>955.0</ele>
        <time>2015-02-22T08:26:45Z</time>
      </trkpt>
      <trkpt lat="40.473905" lon="-2.750648">
        <ele>953.9</ele>
        <time>2015-02-22T08:26:47Z</time>
      </trkpt>
      <trkpt lat="40.473995" lon="-2.750666">
        <ele>952.7</ele>
        <time>2015-02-22T08:26:49Z</time>
      </trkpt>
      <trkpt lat="40.474127" lon="-2.750693">
        <ele>951.2</ele>
        <time>2015-02-22T08:26:52Z</time>
      </trkpt>
      <trkpt lat="40.474218" lon="-2.750713">
        <ele>950.6</ele>
        <time>2015-02-22T08:26:54Z</time>
      </trkpt>
      <trkpt lat="40.474313" lon="-2.750745">
        <ele>950.6</ele>
        <time>2015-02-22T08:26:56Z</time>
      </trkpt>
      <trkpt lat="40.474412" lon="-2.750781">
        <ele>950.7</ele>
        <time>2015-02-22T08:26:58Z</time>
      </trkpt>
      <trkpt lat="40.474522" lon="-2.750813">
        <ele>950.9</ele>
        <time>2015-02-22T08:27:00Z</time>
      </trkpt>
      <trkpt lat="40.474624" lon="-2.750833">
        <ele>951.0</ele>
        <time>2015-02-22T08:27:02Z</time>
      </trkpt>
      <trkpt lat="40.474753" lon="-2.750843">
        <ele>951.1</ele>
        <time>2015-02-22T08:27:05Z</time>
      </trkpt>
      <trkpt lat="40.474849" lon="-2.750855">
        <ele>951.1</ele>
        <time>2015-02-22T08:27:07Z</time>
      </trkpt>
      <trkpt lat="40.474950" lon="-2.750843">
        <ele>951.1</ele>
        <time>2015-02-22T08:27:09Z</time>
      </trkpt>
      <trkpt lat="40.475060" lon="-2.750798">
        <ele>949.5</ele>
        <time>2015-02-22T08:27:11Z</time>
      </trkpt>
      <trkpt lat="40.475177" lon="-2.750707">
        <ele>946.0</ele>
        <time>2015-02-22T08:27:13Z</time>
      </trkpt>
      <trkpt lat="40.475300" lon="-2.750578">
        <ele>941.6</ele>
        <time>2015-02-22T08:27:15Z</time>
      </trkpt>
      <trkpt lat="40.475417" lon="-2.750423">
        <ele>936.5</ele>
        <time>2015-02-22T08:27:17Z</time>
      </trkpt>
      <trkpt lat="40.475519" lon="-2.750238">
        <ele>930.9</ele>
        <time>2015-02-22T08:27:19Z</time>
      </trkpt>
      <trkpt lat="40.475558" lon="-2.750130">
        <ele>927.8</ele>
        <time>2015-02-22T08:27:20Z</time>
      </trkpt>
      <trkpt lat="40.475594" lon="-2.750011">
        <ele>924.7</ele>
        <time>2015-02-22T08:27:21Z</time>
      </trkpt>
      <trkpt lat="40.475620" lon="-2.749883">
        <ele>923.6</ele>
        <time>2015-02-22T08:27:22Z</time>
      </trkpt>
      <trkpt lat="40.475643" lon="-2.749748">
        <ele>922.8</ele>
        <time>2015-02-22T08:27:23Z</time>
      </trkpt>
      <trkpt lat="40.475663" lon="-2.749612">
        <ele>922.1</ele>
        <time>2015-02-22T08:27:24Z</time>
      </trkpt>
      <trkpt lat="40.475683" lon="-2.749475">
        <ele>921.5</ele>
        <time>2015-02-22T08:27:25Z</time>
      </trkpt>
      <trkpt lat="40.475702" lon="-2.749340">
        <ele>920.8</ele>
        <time>2015-02-22T08:27:26Z</time>
      </trkpt>
      <trkpt lat="40.475719" lon="-2.749210">
        <ele>920.3</ele>
        <time>2015-02-22T08:27:27Z</time>
      </trkpt>
      <trkpt lat="40.475739" lon="-2.749081">
        <ele>921.5</ele>
        <time>2015-02-22T08:27:28Z</time>
      </trkpt>
      <trkpt lat="40.475767" lon="-2.748960">
        <ele>923.8</ele>
        <time>2015-02-22T08:27:29Z</time>
      </trkpt>
      <trkpt lat="40.475805" lon="-2.748846">
        <ele>925.5</ele>
        <time>2015-02-22T08:27:30Z</time>
      </trkpt>
      <trkpt lat="40.475855" lon="-2.748746">
        <ele>927.4</ele>
        <time>2015-02-22T08:27:31Z</time>
      </trkpt>
      <trkpt lat="40.475980" lon="-2.748590">
        <ele>930.7</ele>
        <time>2015-02-22T08:27:33Z</time>
      </trkpt>
      <trkpt lat="40.476125" lon="-2.748483">
        <ele>932.7</ele>
        <time>2015-02-22T08:27:35Z</time>
      </trkpt>
      <trkpt lat="40.476259" lon="-2.748418">
        <ele>933.8</ele>
        <time>2015-02-22T08:27:37Z</time>
      </trkpt>
      <trkpt lat="40.476380" lon="-2.748365">
        <ele>934.8</ele>
        <time>2015-02-22T08:27:39Z</time>
      </trkpt>
      <trkpt lat="40.476495" lon="-2.748313">
        <ele>935.5</ele>
        <time>2015-02-22T08:27:41Z</time>
      </trkpt>
      <trkpt lat="40.476604" lon="-2.748258">
        <ele>935.7</ele>
        <time>2015-02-22T08:27:43Z</time>
      </trkpt>
      <trkpt lat="40.476712" lon="-2.748208">
        <ele>935.1</ele>
        <time>2015-02-22T08:27:45Z</time>
      </trkpt>
      <trkpt lat="40.476819" lon="-2.748162">
        <ele>933.8</ele>
        <time>2015-02-22T08:27:47Z</time>
      </trkpt>
      <trkpt lat="40.476923" lon="-2.748123">
        <ele>932.4</ele>
        <time>2015-02-22T08:27:49Z</time>
      </trkpt>
      <trkpt lat="40.477025" lon="-2.748085">
        <ele>931.0</ele>
        <time>2015-02-22T08:27:51Z</time>
      </trkpt>
      <trkpt lat="40.477122" lon="-2.748047">
        <ele>929.6</ele>
        <time>2015-02-22T08:27:53Z</time>
      </trkpt>
      <trkpt lat="40.477212" lon="-2.748010">
        <ele>928.2</ele>
        <time>2015-02-22T08:27:55Z</time>
      </trkpt>
      <trkpt lat="40.477300" lon="-2.747973">
        <ele>926.8</ele>
        <time>2015-02-22T08:27:57Z</time>
      </trkpt>
      <trkpt lat="40.477394" lon="-2.747938">
        <ele>925.3</ele>
        <time>2015-02-22T08:27:59Z</time>
      </trkpt>
      <trkpt lat="40.477497" lon="-2.747905">
        <ele>923.6</ele>
        <time>2015-02-22T08:28:01Z</time>
      </trkpt>
      <trkpt lat="40.477617" lon="-2.747873">
        <ele>921.3</ele>
        <time>2015-02-22T08:28:03Z</time>
      </trkpt>
      <trkpt lat="40.477730" lon="-2.747788">
        <ele>919.0</ele>
        <time>2015-02-22T08:28:05Z</time>
      </trkpt>
      <trkpt lat="40.477808" lon="-2.747635">
        <ele>917.2</ele>
        <time>2015-02-22T08:28:07Z</time>
      </trkpt>
      <trkpt lat="40.477847" lon="-2.747446">
        <ele>915.5</ele>
        <time>2015-02-22T08:28:09Z</time>
      </trkpt>
      <trkpt lat="40.477854" lon="-2.747260">
        <ele>913.3</ele>
        <time>2015-02-22T08:28:11Z</time>
      </trkpt>
      <trkpt lat="40.477827" lon="-2.747063">
        <ele>911.7</ele>
        <time>2015-02-22T08:28:13Z</time>
      </trkpt>
      <trkpt lat="40.477780" lon="-2.746873">
        <ele>910.6</ele>
        <time>2015-02-22T08:28:15Z</time>
      </trkpt>
      <trkpt lat="40.477741" lon="-2.746614">
        <ele>908.9</ele>
        <time>2015-02-22T08:28:17Z</time>
      </trkpt>
      <trkpt lat="40.477830" lon="-2.746136">
        <ele>904.4</ele>
        <time>2015-02-22T08:28:21Z</time>
      </trkpt>
      <trkpt lat="40.477999" lon="-2.745567">
        <ele>903.6</ele>
        <time>2015-02-22T08:28:25Z</time>
      </trkpt>
      <trkpt lat="40.478088" lon="-2.745160">
        <ele>907.8</ele>
        <time>2015-02-22T08:28:28Z</time>
      </trkpt>
      <trkpt lat="40.478117" lon="-2.745010">
        <ele>909.8</ele>
        <time>2015-02-22T08:28:29Z</time>
      </trkpt>
      <trkpt lat="40.478138" lon="-2.744880">
        <ele>910.5</ele>
        <time>2015-02-22T08:28:30Z</time>
      </trkpt>
      <trkpt lat="40.478162" lon="-2.744685">
        <ele>911.5</ele>
        <time>2015-02-22T08:28:32Z</time>
      </trkpt>
      <trkpt lat="40.478174" lon="-2.744488">
        <ele>912.3</ele>
        <time>2015-02-22T08:28:34Z</time>
      </trkpt>
      <trkpt lat="40.478195" lon="-2.744296">
        <ele>913.4</ele>
        <time>2015-02-22T08:28:36Z</time>
      </trkpt>
      <trkpt lat="40.478194" lon="-2.744142">
        <ele>913.2</ele>
        <time>2015-02-22T08:28:38Z</time>
      </trkpt>
      <trkpt lat="40.478184" lon="-2.744003">
        <ele>910.1</ele>
        <time>2015-02-22T08:28:40Z</time>
      </trkpt>
      <trkpt lat="40.478199" lon="-2.743853">
        <ele>906.7</ele>
        <time>2015-02-22T08:28:43Z</time>
      </trkpt>
      <trkpt lat="40.478218" lon="-2.743708">
        <ele>903.7</ele>
        <time>2015-02-22T08:29:18Z</time>
      </trkpt>
      <trkpt lat="40.478252" lon="-2.743567">
        <ele>900.7</ele>
        <time>2015-02-22T08:29:21Z</time>
      </trkpt>
      <trkpt lat="40.478279" lon="-2.743406">
        <ele>897.3</ele>
        <time>2015-02-22T08:29:24Z</time>
      </trkpt>
      <trkpt lat="40.478317" lon="-2.743248">
        <ele>894.2</ele>
        <time>2015-02-22T08:29:27Z</time>
      </trkpt>
      <trkpt lat="40.478342" lon="-2.743120">
        <ele>891.6</ele>
        <time>2015-02-22T08:29:29Z</time>
      </trkpt>
      <trkpt lat="40.478350" lon="-2.742985">
        <ele>888.9</ele>
        <time>2015-02-22T08:29:31Z</time>
      </trkpt>
      <trkpt lat="40.478347" lon="-2.742856">
        <ele>886.0</ele>
        <time>2015-02-22T08:29:33Z</time>
      </trkpt>
      <trkpt lat="40.478365" lon="-2.742678">
        <ele>882.3</ele>
        <time>2015-02-22T08:29:36Z</time>
      </trkpt>
      <trkpt lat="40.478375" lon="-2.742553">
        <ele>879.6</ele>
        <time>2015-02-22T08:29:38Z</time>
      </trkpt>
      <trkpt lat="40.478430" lon="-2.742425">
        <ele>877.7</ele>
        <time>2015-02-22T08:29:41Z</time>
      </trkpt>
      <trkpt lat="40.478500" lon="-2.742335">
        <ele>876.5</ele>
        <time>2015-02-22T08:29:43Z</time>
      </trkpt>
      <trkpt lat="40.478585" lon="-2.742251">
        <ele>875.4</ele>
        <time>2015-02-22T08:29:45Z</time>
      </trkpt>
      <trkpt lat="40.478670" lon="-2.742181">
        <ele>874.9</ele>
        <time>2015-02-22T08:29:47Z</time>
      </trkpt>
      <trkpt lat="40.478753" lon="-2.742127">
        <ele>874.7</ele>
        <time>2015-02-22T08:29:49Z</time>
      </trkpt>
      <trkpt lat="40.478865" lon="-2.742056">
        <ele>874.3</ele>
        <time>2015-02-22T08:29:52Z</time>
      </trkpt>
      <trkpt lat="40.478940" lon="-2.741988">
        <ele>873.7</ele>
        <time>2015-02-22T08:29:54Z</time>
      </trkpt>
      <trkpt lat="40.479015" lon="-2.741922">
        <ele>873.1</ele>
        <time>2015-02-22T08:29:56Z</time>
      </trkpt>
      <trkpt lat="40.479098" lon="-2.741846">
        <ele>872.3</ele>
        <time>2015-02-22T08:29:58Z</time>
      </trkpt>
      <trkpt lat="40.479172" lon="-2.741777">
        <ele>871.7</ele>
        <time>2015-02-22T08:30:00Z</time>
      </trkpt>
      <trkpt lat="40.479240" lon="-2.741660">
        <ele>868.8</ele>
        <time>2015-02-22T08:30:03Z</time>
      </trkpt>
      <trkpt lat="40.479302" lon="-2.741570">
        <ele>865.7</ele>
        <time>2015-02-22T08:30:06Z</time>
      </trkpt>
      <trkpt lat="40.479367" lon="-2.741447">
        <ele>861.3</ele>
        <time>2015-02-22T08:30:10Z</time>
      </trkpt>
      <trkpt lat="40.479445" lon="-2.741337">
        <ele>857.8</ele>
        <time>2015-02-22T08:30:13Z</time>
      </trkpt>
      <trkpt lat="40.479500" lon="-2.741213">
        <ele>853.5</ele>
        <time>2015-02-22T08:30:16Z</time>
      </trkpt>
      <trkpt lat="40.479571" lon="-2.741077">
        <ele>849.4</ele>
        <time>2015-02-22T08:30:19Z</time>
      </trkpt>
      <trkpt lat="40.479644" lon="-2.740958">
        <ele>845.7</ele>
        <time>2015-02-22T08:30:22Z</time>
      </trkpt>
      <trkpt lat="40.479745" lon="-2.740848">
        <ele>842.1</ele>
        <time>2015-02-22T08:30:25Z</time>
      </trkpt>
      <trkpt lat="40.479807" lon="-2.740762">
        <ele>840.1</ele>
        <time>2015-02-22T08:30:27Z</time>
      </trkpt>
      <trkpt lat="40.479890" lon="-2.740620">
        <ele>836.3</ele>
        <time>2015-02-22T08:30:30Z</time>
      </trkpt>
      <trkpt lat="40.479957" lon="-2.740486">
        <ele>832.7</ele>
        <time>2015-02-22T08:30:33Z</time>
      </trkpt>
      <trkpt lat="40.479964" lon="-2.740328">
        <ele>828.4</ele>
        <time>2015-02-22T08:30:36Z</time>
      </trkpt>
      <trkpt lat="40.480013" lon="-2.740205">
        <ele>824.6</ele>
        <time>2015-02-22T08:30:38Z</time>
      </trkpt>
      <trkpt lat="40.480062" lon="-2.740073">
        <ele>820.6</ele>
        <time>2015-02-22T08:30:40Z</time>
      </trkpt>
      <trkpt lat="40.480142" lon="-2.739931">
        <ele>816.5</ele>
        <time>2015-02-22T08:30:43Z</time>
      </trkpt>
      <trkpt lat="40.480197" lon="-2.739773">
        <ele>813.0</ele>
        <time>2015-02-22T08:30:46Z</time>
      </trkpt>
      <trkpt lat="40.480210" lon="-2.739611">
        <ele>809.7</ele>
        <time>2015-02-22T08:30:49Z</time>
      </trkpt>
      <trkpt lat="40.480270" lon="-2.739508">
        <ele>807.2</ele>
        <time>2015-02-22T08:30:52Z</time>
      </trkpt>
      <trkpt lat="40.480357" lon="-2.739410">
        <ele>803.9</ele>
        <time>2015-02-22T08:30:56Z</time>
      </trkpt>
      <trkpt lat="40.480365" lon="-2.739286">
        <ele>801.5</ele>
        <time>2015-02-22T08:30:59Z</time>
      </trkpt>
      <trkpt lat="40.480365" lon="-2.739145">
        <ele>798.7</ele>
        <time>2015-02-22T08:31:02Z</time>
      </trkpt>
      <trkpt lat="40.480360" lon="-2.739013">
        <ele>796.6</ele>
        <time>2015-02-22T08:31:05Z</time>
      </trkpt>
      <trkpt lat="40.480362" lon="-2.738880">
        <ele>794.3</ele>
        <time>2015-02-22T08:31:08Z</time>
      </trkpt>
      <trkpt lat="40.480337" lon="-2.738737">
        <ele>792.3</ele>
        <time>2015-02-22T08:31:11Z</time>
      </trkpt>
      <trkpt lat="40.480310" lon="-2.738603">
        <ele>790.6</ele>
        <time>2015-02-22T08:31:14Z</time>
      </trkpt>
      <trkpt lat="40.480199" lon="-2.738558">
        <ele>791.8</ele>
        <time>2015-02-22T08:31:17Z</time>
      </trkpt>
      <trkpt lat="40.480082" lon="-2.738538">
        <ele>793.2</ele>
        <time>2015-02-22T08:31:20Z</time>
      </trkpt>
      <trkpt lat="40.479965" lon="-2.738512">
        <ele>794.3</ele>
        <time>2015-02-22T08:31:23Z</time>
      </trkpt>
      <trkpt lat="40.479850" lon="-2.738481">
        <ele>794.8</ele>
        <time>2015-02-22T08:31:26Z</time>
      </trkpt>
      <trkpt lat="40.479742" lon="-2.738478">
        <ele>795.5</ele>
        <time>2015-02-22T08:31:29Z</time>
      </trkpt>
      <trkpt lat="40.479647" lon="-2.738452">
        <ele>795.8</ele>
        <time>2015-02-22T08:31:32Z</time>
      </trkpt>
      <trkpt lat="40.479542" lon="-2.738460">
        <ele>796.8</ele>
        <time>2015-02-22T08:31:35Z</time>
      </trkpt>
      <trkpt lat="40.479445" lon="-2.738386">
        <ele>796.4</ele>
        <time>2015-02-22T08:31:38Z</time>
      </trkpt>
      <trkpt lat="40.479355" lon="-2.738300">
        <ele>795.8</ele>
        <time>2015-02-22T08:31:41Z</time>
      </trkpt>
      <trkpt lat="40.479280" lon="-2.738226">
        <ele>794.6</ele>
        <time>2015-02-22T08:31:43Z</time>
      </trkpt>
      <trkpt lat="40.479189" lon="-2.738102">
        <ele>792.5</ele>
        <time>2015-02-22T08:31:46Z</time>
      </trkpt>
      <trkpt lat="40.479128" lon="-2.737965">
        <ele>788.9</ele>
        <time>2015-02-22T08:31:49Z</time>
      </trkpt>
      <trkpt lat="40.479189" lon="-2.737826">
        <ele>785.7</ele>
        <time>2015-02-22T08:31:52Z</time>
      </trkpt>
      <trkpt lat="40.479235" lon="-2.737705">
        <ele>782.6</ele>
        <time>2015-02-22T08:31:54Z</time>
      </trkpt>
      <trkpt lat="40.479287" lon="-2.737586">
        <ele>779.6</ele>
        <time>2015-02-22T08:31:56Z</time>
      </trkpt>
      <trkpt lat="40.479340" lon="-2.737466">
        <ele>776.7</ele>
        <time>2015-02-22T08:31:58Z</time>
      </trkpt>
      <trkpt lat="40.479397" lon="-2.737348">
        <ele>774.4</ele>
        <time>2015-02-22T08:32:00Z</time>
      </trkpt>
      <trkpt lat="40.479447" lon="-2.737235">
        <ele>772.2</ele>
        <time>2015-02-22T08:32:02Z</time>
      </trkpt>
      <trkpt lat="40.479502" lon="-2.737108">
        <ele>769.8</ele>
        <time>2015-02-22T08:32:04Z</time>
      </trkpt>
      <trkpt lat="40.479580" lon="-2.736973">
        <ele>767.6</ele>
        <time>2015-02-22T08:32:06Z</time>
      </trkpt>
      <trkpt lat="40.479650" lon="-2.736848">
        <ele>765.4</ele>
        <time>2015-02-22T08:32:08Z</time>
      </trkpt>
      <trkpt lat="40.479713" lon="-2.736725">
        <ele>763.6</ele>
        <time>2015-02-22T08:32:10Z</time>
      </trkpt>
      <trkpt lat="40.479777" lon="-2.736581">
        <ele>762.0</ele>
        <time>2015-02-22T08:32:12Z</time>
      </trkpt>
      <trkpt lat="40.479849" lon="-2.736432">
        <ele>760.5</ele>
        <time>2015-02-22T08:32:14Z</time>
      </trkpt>
      <trkpt lat="40.479908" lon="-2.736283">
        <ele>759.0</ele>
        <time>2015-02-22T08:32:16Z</time>
      </trkpt>
      <trkpt lat="40.479954" lon="-2.736130">
        <ele>757.3</ele>
        <time>2015-02-22T08:32:18Z</time>
      </trkpt>
      <trkpt lat="40.480008" lon="-2.735982">
        <ele>755.7</ele>
        <time>2015-02-22T08:32:20Z</time>
      </trkpt>
      <trkpt lat="40.480079" lon="-2.735826">
        <ele>753.8</ele>
        <time>2015-02-22T08:32:22Z</time>
      </trkpt>
      <trkpt lat="40.480155" lon="-2.735652">
        <ele>752.8</ele>
        <time>2015-02-22T08:32:24Z</time>
      </trkpt>
      <trkpt lat="40.480233" lon="-2.735471">
        <ele>752.0</ele>
        <time>2015-02-22T08:32:26Z</time>
      </trkpt>
      <trkpt lat="40.480310" lon="-2.735298">
        <ele>751.2</ele>
        <time>2015-02-22T08:32:28Z</time>
      </trkpt>
      <trkpt lat="40.480397" lon="-2.735135">
        <ele>750.5</ele>
        <time>2015-02-22T08:32:30Z</time>
      </trkpt>
      <trkpt lat="40.480472" lon="-2.735006">
        <ele>750.0</ele>
        <time>2015-02-22T08:32:32Z</time>
      </trkpt>
      <trkpt lat="40.480514" lon="-2.734878">
        <ele>749.6</ele>
        <time>2015-02-22T08:32:35Z</time>
      </trkpt>
      <trkpt lat="40.480624" lon="-2.734898">
        <ele>749.7</ele>
        <time>2015-02-22T08:32:40Z</time>
      </trkpt>
      <trkpt lat="40.480730" lon="-2.734975">
        <ele>749.9</ele>
        <time>2015-02-22T08:32:43Z</time>
      </trkpt>
      <trkpt lat="40.480832" lon="-2.735087">
        <ele>750.2</ele>
        <time>2015-02-22T08:32:46Z</time>
      </trkpt>
      <trkpt lat="40.480917" lon="-2.735143">
        <ele>749.8</ele>
        <time>2015-02-22T08:32:48Z</time>
      </trkpt>
      <trkpt lat="40.481030" lon="-2.735231">
        <ele>749.3</ele>
        <time>2015-02-22T08:32:51Z</time>
      </trkpt>
      <trkpt lat="40.481150" lon="-2.735268">
        <ele>748.6</ele>
        <time>2015-02-22T08:32:54Z</time>
      </trkpt>
      <trkpt lat="40.481242" lon="-2.735275">
        <ele>748.0</ele>
        <time>2015-02-22T08:32:56Z</time>
      </trkpt>
      <trkpt lat="40.481332" lon="-2.735275">
        <ele>747.5</ele>
        <time>2015-02-22T08:32:58Z</time>
      </trkpt>
      <trkpt lat="40.481430" lon="-2.735280">
        <ele>746.9</ele>
        <time>2015-02-22T08:33:01Z</time>
      </trkpt>
      <trkpt lat="40.481490" lon="-2.735155">
        <ele>745.9</ele>
        <time>2015-02-22T08:33:06Z</time>
      </trkpt>
      <trkpt lat="40.481529" lon="-2.735038">
        <ele>745.2</ele>
        <time>2015-02-22T08:33:08Z</time>
      </trkpt>
      <trkpt lat="40.481560" lon="-2.734895">
        <ele>744.4</ele>
        <time>2015-02-22T08:33:10Z</time>
      </trkpt>
      <trkpt lat="40.481598" lon="-2.734723">
        <ele>743.5</ele>
        <time>2015-02-22T08:33:12Z</time>
      </trkpt>
      <trkpt lat="40.481607" lon="-2.734527">
        <ele>742.7</ele>
        <time>2015-02-22T08:33:14Z</time>
      </trkpt>
      <trkpt lat="40.481588" lon="-2.734350">
        <ele>742.2</ele>
        <time>2015-02-22T08:33:16Z</time>
      </trkpt>
      <trkpt lat="40.481597" lon="-2.734182">
        <ele>741.5</ele>
        <time>2015-02-22T08:33:18Z</time>
      </trkpt>
      <trkpt lat="40.481622" lon="-2.734020">
        <ele>740.3</ele>
        <time>2015-02-22T08:33:20Z</time>
      </trkpt>
      <trkpt lat="40.481649" lon="-2.733867">
        <ele>739.0</ele>
        <time>2015-02-22T08:33:22Z</time>
      </trkpt>
      <trkpt lat="40.481649" lon="-2.733727">
        <ele>738.0</ele>
        <time>2015-02-22T08:33:25Z</time>
      </trkpt>
      <trkpt lat="40.481620" lon="-2.733576">
        <ele>737.1</ele>
        <time>2015-02-22T08:33:28Z</time>
      </trkpt>
      <trkpt lat="40.481619" lon="-2.733418">
        <ele>736.0</ele>
        <time>2015-02-22T08:33:31Z</time>
      </trkpt>
      <trkpt lat="40.481575" lon="-2.733298">
        <ele>735.7</ele>
        <time>2015-02-22T08:33:34Z</time>
      </trkpt>
      <trkpt lat="40.481515" lon="-2.733210">
        <ele>735.8</ele>
        <time>2015-02-22T08:33:37Z</time>
      </trkpt>
      <trkpt lat="40.481386" lon="-2.732986">
        <ele>736.1</ele>
        <time>2015-02-22T08:33:37Z</time>
      </trkpt>
      <trkpt lat="40.481183" lon="-2.732964">
        <ele>737.7</ele>
        <time>2015-02-22T08:33:37Z</time>
      </trkpt>
      <trkpt lat="40.481183" lon="-2.732964">
        <ele>737.7</ele>
        <time>2015-02-22T08:33:37Z</time>
      </trkpt>
    </trkseg>
  </trk>
</gpx>
